<?xml version='1.0' encoding='UTF-8'?><gpx version="1.1" creator="JPX - https://github.com/jenetics/jpx" xmlns="http://www.topografix.com/GPX/1/1"><trk><trkseg><trkpt lat="36.7956164" lon="10.1824068"><ele>11.0</ele><time>2026-04-24T07:58:25.161Z</time></trkpt><trkpt lat="36.7956227" lon="10.182493"><ele>11.0</ele><time>2026-04-24T07:58:35.126Z</time></trkpt><trkpt lat="36.795625" lon="10.1824107"><ele>11.0</ele><time>2026-04-24T07:59:29.138Z</time></trkpt><trkpt lat="36.7956747" lon="10.1823516"><ele>11.0</ele><time>2026-04-24T07:59:37.147Z</time></trkpt><trkpt lat="36.795624" lon="10.1824018"><ele>11.0</ele><time>2026-04-24T08:00:44.119Z</time></trkpt><trkpt lat="36.7955394" lon="10.1824289"><ele>11.0</ele><time>2026-04-24T08:00:48.165Z</time></trkpt><trkpt lat="36.7955746" lon="10.1823584"><ele>11.0</ele><time>2026-04-24T08:01:09.128Z</time></trkpt><trkpt lat="36.7955662" lon="10.1822801"><ele>10.714285714285715</ele><time>2026-04-24T08:01:13.136Z</time></trkpt><trkpt lat="36.7956109" lon="10.1821931"><ele>10.428571428571429</ele><time>2026-04-24T08:01:38.132Z</time></trkpt><trkpt lat="36.795636" lon="10.1821186"><ele>10.142857142857142</ele><time>2026-04-24T08:02:21.132Z</time></trkpt><trkpt lat="36.7955711" lon="10.1820987"><ele>9.857142857142858</ele><time>2026-04-24T08:02:26.149Z</time></trkpt><trkpt lat="36.7954986" lon="10.1820968"><ele>9.571428571428571</ele><time>2026-04-24T08:02:29.147Z</time></trkpt><trkpt lat="36.7954313" lon="10.1820911"><ele>9.285714285714286</ele><time>2026-04-24T08:02:32.155Z</time></trkpt><trkpt lat="36.7953592" lon="10.1820801"><ele>9.0</ele><time>2026-04-24T08:02:34.142Z</time></trkpt><trkpt lat="36.7952873" lon="10.18208"><ele>9.0</ele><time>2026-04-24T08:02:36.134Z</time></trkpt><trkpt lat="36.7952115" lon="10.1820821"><ele>9.0</ele><time>2026-04-24T08:02:38.142Z</time></trkpt><trkpt lat="36.7951103" lon="10.1820735"><ele>9.0</ele><time>2026-04-24T08:02:40.155Z</time></trkpt><trkpt lat="36.7950181" lon="10.1821051"><ele>9.0</ele><time>2026-04-24T08:02:42.126Z</time></trkpt><trkpt lat="36.794915" lon="10.1821206"><ele>9.0</ele><time>2026-04-24T08:02:44.125Z</time></trkpt><trkpt lat="36.7947957" lon="10.182135"><ele>8.6</ele><time>2026-04-24T08:02:46.137Z</time></trkpt><trkpt lat="36.7947026" lon="10.1821499"><ele>8.2</ele><time>2026-04-24T08:02:48.131Z</time></trkpt><trkpt lat="36.7945946" lon="10.1821824"><ele>7.799999999999999</ele><time>2026-04-24T08:02:50.146Z</time></trkpt><trkpt lat="36.7944827" lon="10.1822064"><ele>7.3999999999999995</ele><time>2026-04-24T08:02:52.111Z</time></trkpt><trkpt lat="36.7943749" lon="10.1822252"><ele>7.0</ele><time>2026-04-24T08:02:54.14Z</time></trkpt><trkpt lat="36.7942762" lon="10.1822383"><ele>7.0</ele><time>2026-04-24T08:02:56.135Z</time></trkpt><trkpt lat="36.7941677" lon="10.1822681"><ele>6.999999999999999</ele><time>2026-04-24T08:02:58.135Z</time></trkpt><trkpt lat="36.7940655" lon="10.182264"><ele>6.999999999999999</ele><time>2026-04-24T08:03:00.133Z</time></trkpt><trkpt lat="36.7939739" lon="10.1822532"><ele>7.0</ele><time>2026-04-24T08:03:02.145Z</time></trkpt><trkpt lat="36.7938859" lon="10.1822429"><ele>7.0</ele><time>2026-04-24T08:03:04.148Z</time></trkpt><trkpt lat="36.7938105" lon="10.1822582"><ele>7.000000000000001</ele><time>2026-04-24T08:03:06.146Z</time></trkpt><trkpt lat="36.7937484" lon="10.1822737"><ele>7.0</ele><time>2026-04-24T08:03:08.124Z</time></trkpt><trkpt lat="36.7936553" lon="10.1822881"><ele>7.0</ele><time>2026-04-24T08:03:11.167Z</time></trkpt><trkpt lat="36.7935764" lon="10.1823057"><ele>7.0</ele><time>2026-04-24T08:03:14.172Z</time></trkpt><trkpt lat="36.7934964" lon="10.1823133"><ele>7.000000000000001</ele><time>2026-04-24T08:03:17.164Z</time></trkpt><trkpt lat="36.7934072" lon="10.1823375"><ele>7.0</ele><time>2026-04-24T08:03:20.113Z</time></trkpt><trkpt lat="36.793323" lon="10.1823608"><ele>7.8</ele><time>2026-04-24T08:03:22.139Z</time></trkpt><trkpt lat="36.7932387" lon="10.1823739"><ele>8.6</ele><time>2026-04-24T08:03:24.16Z</time></trkpt><trkpt lat="36.7931308" lon="10.1823753"><ele>9.4</ele><time>2026-04-24T08:03:26.151Z</time></trkpt><trkpt lat="36.7930196" lon="10.1824041"><ele>10.200000000000001</ele><time>2026-04-24T08:03:28.164Z</time></trkpt><trkpt lat="36.7929063" lon="10.1824216"><ele>11.0</ele><time>2026-04-24T08:03:30.168Z</time></trkpt><trkpt lat="36.7927813" lon="10.182435"><ele>11.0</ele><time>2026-04-24T08:03:32.165Z</time></trkpt><trkpt lat="36.7927048" lon="10.1824484"><ele>11.0</ele><time>2026-04-24T08:03:33.137Z</time></trkpt><trkpt lat="36.7926209" lon="10.182463"><ele>11.0</ele><time>2026-04-24T08:03:34.147Z</time></trkpt><trkpt lat="36.7925404" lon="10.1824785"><ele>11.0</ele><time>2026-04-24T08:03:35.172Z</time></trkpt><trkpt lat="36.7924651" lon="10.1824969"><ele>11.0</ele><time>2026-04-24T08:03:36.209Z</time></trkpt><trkpt lat="36.7923899" lon="10.1825033"><ele>11.0</ele><time>2026-04-24T08:03:37.147Z</time></trkpt><trkpt lat="36.7923263" lon="10.1825124"><ele>10.0</ele><time>2026-04-24T08:03:38.175Z</time></trkpt><trkpt lat="36.7922627" lon="10.1825221"><ele>9.0</ele><time>2026-04-24T08:03:39.158Z</time></trkpt><trkpt lat="36.7921541" lon="10.182534"><ele>8.0</ele><time>2026-04-24T08:03:41.156Z</time></trkpt><trkpt lat="36.7920331" lon="10.1825542"><ele>7.0</ele><time>2026-04-24T08:03:43.182Z</time></trkpt><trkpt lat="36.7919258" lon="10.1825687"><ele>6.0</ele><time>2026-04-24T08:03:45.175Z</time></trkpt><trkpt lat="36.7918097" lon="10.1825848"><ele>6.0</ele><time>2026-04-24T08:03:47.161Z</time></trkpt><trkpt lat="36.7917002" lon="10.1826049"><ele>6.0</ele><time>2026-04-24T08:03:49.172Z</time></trkpt><trkpt lat="36.7915884" lon="10.182621"><ele>6.0</ele><time>2026-04-24T08:03:51.136Z</time></trkpt><trkpt lat="36.7914792" lon="10.1826209"><ele>6.0</ele><time>2026-04-24T08:03:53.142Z</time></trkpt><trkpt lat="36.7913954" lon="10.1826253"><ele>6.0</ele><time>2026-04-24T08:03:55.143Z</time></trkpt><trkpt lat="36.7913217" lon="10.1825895"><ele>5.999999999999999</ele><time>2026-04-24T08:03:57.172Z</time></trkpt><trkpt lat="36.7912579" lon="10.1825531"><ele>6.0</ele><time>2026-04-24T08:04:00.137Z</time></trkpt><trkpt lat="36.7911954" lon="10.1825224"><ele>6.0</ele><time>2026-04-24T08:04:04.169Z</time></trkpt><trkpt lat="36.7911286" lon="10.1825375"><ele>6.0</ele><time>2026-04-24T08:04:17.155Z</time></trkpt><trkpt lat="36.7910687" lon="10.1825747"><ele>6.0</ele><time>2026-04-24T08:11:19.147Z</time></trkpt><trkpt lat="36.7910072" lon="10.1826184"><ele>5.999999999999999</ele><time>2026-04-24T08:11:32.114Z</time></trkpt><trkpt lat="36.7909737" lon="10.1826996"><ele>6.0</ele><time>2026-04-24T08:11:40.148Z</time></trkpt><trkpt lat="36.7908866" lon="10.1827142"><ele>6.4</ele><time>2026-04-24T08:11:42.105Z</time></trkpt><trkpt lat="36.7907691" lon="10.1827291"><ele>6.8</ele><time>2026-04-24T08:11:44.119Z</time></trkpt><trkpt lat="36.7907033" lon="10.1827375"><ele>7.200000000000001</ele><time>2026-04-24T08:11:45.129Z</time></trkpt><trkpt lat="36.7906363" lon="10.1827489"><ele>7.6000000000000005</ele><time>2026-04-24T08:11:46.133Z</time></trkpt><trkpt lat="36.7905249" lon="10.1827734"><ele>8.0</ele><time>2026-04-24T08:11:48.138Z</time></trkpt><trkpt lat="36.7904032" lon="10.1827859"><ele>7.999999999999999</ele><time>2026-04-24T08:11:50.148Z</time></trkpt><trkpt lat="36.7902988" lon="10.1828059"><ele>8.0</ele><time>2026-04-24T08:11:52.127Z</time></trkpt><trkpt lat="36.7902101" lon="10.1828143"><ele>8.0</ele><time>2026-04-24T08:11:54.14Z</time></trkpt><trkpt lat="36.7901372" lon="10.1828289"><ele>8.0</ele><time>2026-04-24T08:11:56.148Z</time></trkpt><trkpt lat="36.7900727" lon="10.1828358"><ele>7.999999999999999</ele><time>2026-04-24T08:12:00.135Z</time></trkpt><trkpt lat="36.7899955" lon="10.1828507"><ele>8.0</ele><time>2026-04-24T08:12:49.149Z</time></trkpt><trkpt lat="36.7898937" lon="10.1828673"><ele>7.4</ele><time>2026-04-24T08:12:51.15Z</time></trkpt><trkpt lat="36.789772" lon="10.1828831"><ele>6.800000000000001</ele><time>2026-04-24T08:12:53.162Z</time></trkpt><trkpt lat="36.7897039" lon="10.1828919"><ele>6.2</ele><time>2026-04-24T08:12:54.149Z</time></trkpt><trkpt lat="36.7896402" lon="10.1829072"><ele>5.6</ele><time>2026-04-24T08:12:55.152Z</time></trkpt><trkpt lat="36.7895265" lon="10.1829263"><ele>5.0</ele><time>2026-04-24T08:12:57.152Z</time></trkpt><trkpt lat="36.7894096" lon="10.1829404"><ele>4.857142857142857</ele><time>2026-04-24T08:12:59.149Z</time></trkpt><trkpt lat="36.7893138" lon="10.1829485"><ele>4.714285714285714</ele><time>2026-04-24T08:13:01.138Z</time></trkpt><trkpt lat="36.7892356" lon="10.182954"><ele>4.571428571428571</ele><time>2026-04-24T08:13:03.114Z</time></trkpt><trkpt lat="36.7891721" lon="10.1829558"><ele>4.428571428571429</ele><time>2026-04-24T08:13:05.137Z</time></trkpt><trkpt lat="36.7890991" lon="10.1829378"><ele>4.285714285714286</ele><time>2026-04-24T08:13:08.149Z</time></trkpt><trkpt lat="36.7890385" lon="10.182894"><ele>4.142857142857142</ele><time>2026-04-24T08:13:19.144Z</time></trkpt><trkpt lat="36.7889865" lon="10.1828478"><ele>4.0</ele><time>2026-04-24T08:13:23.134Z</time></trkpt><trkpt lat="36.7889246" lon="10.1827843"><ele>3.9999999999999996</ele><time>2026-04-24T08:13:25.145Z</time></trkpt><trkpt lat="36.7888711" lon="10.182725"><ele>4.0</ele><time>2026-04-24T08:13:27.143Z</time></trkpt><trkpt lat="36.7888306" lon="10.1826515"><ele>4.0</ele><time>2026-04-24T08:13:29.13Z</time></trkpt><trkpt lat="36.7887975" lon="10.1825597"><ele>4.0</ele><time>2026-04-24T08:13:31.146Z</time></trkpt><trkpt lat="36.788764" lon="10.1824524"><ele>3.9999999999999996</ele><time>2026-04-24T08:13:33.144Z</time></trkpt><trkpt lat="36.7887424" lon="10.1823461"><ele>4.0</ele><time>2026-04-24T08:13:35.166Z</time></trkpt><trkpt lat="36.7887117" lon="10.1822237"><ele>4.4</ele><time>2026-04-24T08:13:37.136Z</time></trkpt><trkpt lat="36.7886976" lon="10.1821088"><ele>4.800000000000001</ele><time>2026-04-24T08:13:39.129Z</time></trkpt><trkpt lat="36.7886849" lon="10.1819902"><ele>5.199999999999999</ele><time>2026-04-24T08:13:41.154Z</time></trkpt><trkpt lat="36.7886634" lon="10.1818343"><ele>5.6</ele><time>2026-04-24T08:13:43.147Z</time></trkpt><trkpt lat="36.7886494" lon="10.1817514"><ele>6.0</ele><time>2026-04-24T08:13:44.115Z</time></trkpt><trkpt lat="36.7886282" lon="10.1816716"><ele>6.0</ele><time>2026-04-24T08:13:45.116Z</time></trkpt><trkpt lat="36.7886004" lon="10.1815938"><ele>6.0</ele><time>2026-04-24T08:13:46.11Z</time></trkpt><trkpt lat="36.7885504" lon="10.1814539"><ele>6.0</ele><time>2026-04-24T08:13:48.15Z</time></trkpt><trkpt lat="36.7884954" lon="10.1813157"><ele>6.0</ele><time>2026-04-24T08:13:50.142Z</time></trkpt><trkpt lat="36.7884598" lon="10.1812451"><ele>6.0</ele><time>2026-04-24T08:13:51.12Z</time></trkpt><trkpt lat="36.7884213" lon="10.1811694"><ele>6.166666666666667</ele><time>2026-04-24T08:13:52.164Z</time></trkpt><trkpt lat="36.7883784" lon="10.1810904"><ele>6.333333333333334</ele><time>2026-04-24T08:13:53.143Z</time></trkpt><trkpt lat="36.7883327" lon="10.1810149"><ele>6.5</ele><time>2026-04-24T08:13:54.141Z</time></trkpt><trkpt lat="36.7882844" lon="10.1809433"><ele>6.666666666666667</ele><time>2026-04-24T08:13:55.15Z</time></trkpt><trkpt lat="36.7882341" lon="10.1808651"><ele>6.833333333333334</ele><time>2026-04-24T08:13:56.122Z</time></trkpt><trkpt lat="36.7881757" lon="10.1808004"><ele>7.0</ele><time>2026-04-24T08:13:57.127Z</time></trkpt><trkpt lat="36.7881191" lon="10.1807433"><ele>7.000000000000001</ele><time>2026-04-24T08:13:58.131Z</time></trkpt><trkpt lat="36.7880605" lon="10.1806891"><ele>7.0</ele><time>2026-04-24T08:13:59.18Z</time></trkpt><trkpt lat="36.7880052" lon="10.1806375"><ele>7.0</ele><time>2026-04-24T08:14:00.128Z</time></trkpt><trkpt lat="36.7879032" lon="10.1805619"><ele>7.0</ele><time>2026-04-24T08:14:02.148Z</time></trkpt><trkpt lat="36.7878108" lon="10.1805124"><ele>7.000000000000001</ele><time>2026-04-24T08:14:04.165Z</time></trkpt><trkpt lat="36.7877332" lon="10.180472"><ele>7.0</ele><time>2026-04-24T08:14:07.148Z</time></trkpt><trkpt lat="36.7876689" lon="10.1804406"><ele>7.333333333333334</ele><time>2026-04-24T08:14:10.169Z</time></trkpt><trkpt lat="36.7875897" lon="10.1804101"><ele>7.666666666666667</ele><time>2026-04-24T08:14:12.178Z</time></trkpt><trkpt lat="36.7875046" lon="10.1803756"><ele>8.0</ele><time>2026-04-24T08:14:14.18Z</time></trkpt><trkpt lat="36.7874261" lon="10.1803519"><ele>8.333333333333334</ele><time>2026-04-24T08:14:16.118Z</time></trkpt><trkpt lat="36.7873456" lon="10.1803271"><ele>8.666666666666666</ele><time>2026-04-24T08:14:18.181Z</time></trkpt><trkpt lat="36.7872551" lon="10.1803014"><ele>9.0</ele><time>2026-04-24T08:14:21.179Z</time></trkpt><trkpt lat="36.7871516" lon="10.1802725"><ele>9.0</ele><time>2026-04-24T08:14:23.172Z</time></trkpt><trkpt lat="36.787081" lon="10.1802505"><ele>9.0</ele><time>2026-04-24T08:14:24.171Z</time></trkpt><trkpt lat="36.7869983" lon="10.1802299"><ele>9.0</ele><time>2026-04-24T08:14:25.175Z</time></trkpt><trkpt lat="36.7868996" lon="10.1802018"><ele>9.0</ele><time>2026-04-24T08:14:26.168Z</time></trkpt><trkpt lat="36.7867903" lon="10.1801721"><ele>9.0</ele><time>2026-04-24T08:14:27.162Z</time></trkpt><trkpt lat="36.7866937" lon="10.1801456"><ele>9.333333333333334</ele><time>2026-04-24T08:14:28.165Z</time></trkpt><trkpt lat="36.7866117" lon="10.1801282"><ele>9.666666666666666</ele><time>2026-04-24T08:14:29.156Z</time></trkpt><trkpt lat="36.7865275" lon="10.180104"><ele>10.0</ele><time>2026-04-24T08:14:30.148Z</time></trkpt><trkpt lat="36.7864459" lon="10.1800798"><ele>10.333333333333332</ele><time>2026-04-24T08:14:31.161Z</time></trkpt><trkpt lat="36.7863678" lon="10.1800621"><ele>10.666666666666666</ele><time>2026-04-24T08:14:32.108Z</time></trkpt><trkpt lat="36.7862871" lon="10.1800497"><ele>11.0</ele><time>2026-04-24T08:14:33.163Z</time></trkpt><trkpt lat="36.7862096" lon="10.1800351"><ele>11.0</ele><time>2026-04-24T08:14:34.16Z</time></trkpt><trkpt lat="36.7861309" lon="10.1800226"><ele>11.0</ele><time>2026-04-24T08:14:35.169Z</time></trkpt><trkpt lat="36.7860572" lon="10.18001"><ele>11.0</ele><time>2026-04-24T08:14:36.176Z</time></trkpt><trkpt lat="36.785982" lon="10.1800052"><ele>11.0</ele><time>2026-04-24T08:14:37.164Z</time></trkpt><trkpt lat="36.7859051" lon="10.1799931"><ele>11.0</ele><time>2026-04-24T08:14:38.171Z</time></trkpt><trkpt lat="36.7858306" lon="10.1799882"><ele>11.0</ele><time>2026-04-24T08:14:39.165Z</time></trkpt><trkpt lat="36.7857597" lon="10.1799854"><ele>11.166666666666666</ele><time>2026-04-24T08:14:40.172Z</time></trkpt><trkpt lat="36.7856895" lon="10.1799956"><ele>11.333333333333332</ele><time>2026-04-24T08:14:41.175Z</time></trkpt><trkpt lat="36.7856123" lon="10.1800065"><ele>11.5</ele><time>2026-04-24T08:14:42.146Z</time></trkpt><trkpt lat="36.7855326" lon="10.1800121"><ele>11.666666666666666</ele><time>2026-04-24T08:14:43.162Z</time></trkpt><trkpt lat="36.7854556" lon="10.1800216"><ele>11.833333333333334</ele><time>2026-04-24T08:14:44.161Z</time></trkpt><trkpt lat="36.7853753" lon="10.1800315"><ele>12.0</ele><time>2026-04-24T08:14:45.166Z</time></trkpt><trkpt lat="36.785298" lon="10.1800465"><ele>11.999999999999998</ele><time>2026-04-24T08:14:46.175Z</time></trkpt><trkpt lat="36.7852268" lon="10.1800526"><ele>12.0</ele><time>2026-04-24T08:14:47.172Z</time></trkpt><trkpt lat="36.785161" lon="10.1800627"><ele>12.0</ele><time>2026-04-24T08:14:48.163Z</time></trkpt><trkpt lat="36.7850929" lon="10.180077"><ele>12.0</ele><time>2026-04-24T08:14:49.146Z</time></trkpt><trkpt lat="36.7850254" lon="10.1800993"><ele>12.0</ele><time>2026-04-24T08:14:50.158Z</time></trkpt><trkpt lat="36.7849618" lon="10.1801149"><ele>11.999999999999998</ele><time>2026-04-24T08:14:51.164Z</time></trkpt><trkpt lat="36.7848969" lon="10.1801307"><ele>12.0</ele><time>2026-04-24T08:14:52.18Z</time></trkpt><trkpt lat="36.7848028" lon="10.1801579"><ele>12.333333333333334</ele><time>2026-04-24T08:14:54.17Z</time></trkpt><trkpt lat="36.7847142" lon="10.180174"><ele>12.666666666666668</ele><time>2026-04-24T08:14:56.17Z</time></trkpt><trkpt lat="36.784641" lon="10.1801926"><ele>13.0</ele><time>2026-04-24T08:14:59.172Z</time></trkpt><trkpt lat="36.784567" lon="10.1802158"><ele>13.333333333333334</ele><time>2026-04-24T08:15:36.179Z</time></trkpt><trkpt lat="36.7844612" lon="10.1802483"><ele>13.666666666666668</ele><time>2026-04-24T08:15:38.168Z</time></trkpt><trkpt lat="36.7843982" lon="10.1802692"><ele>14.0</ele><time>2026-04-24T08:15:39.153Z</time></trkpt><trkpt lat="36.7843351" lon="10.1802896"><ele>14.000000000000002</ele><time>2026-04-24T08:15:40.177Z</time></trkpt><trkpt lat="36.7842702" lon="10.1803076"><ele>14.0</ele><time>2026-04-24T08:15:41.158Z</time></trkpt><trkpt lat="36.7841996" lon="10.1803252"><ele>14.0</ele><time>2026-04-24T08:15:42.166Z</time></trkpt><trkpt lat="36.7841281" lon="10.1803511"><ele>14.0</ele><time>2026-04-24T08:15:43.18Z</time></trkpt><trkpt lat="36.7840475" lon="10.1803752"><ele>14.000000000000002</ele><time>2026-04-24T08:15:44.195Z</time></trkpt><trkpt lat="36.7839601" lon="10.1803998"><ele>14.0</ele><time>2026-04-24T08:15:45.179Z</time></trkpt><trkpt lat="36.7838716" lon="10.1804193"><ele>14.0</ele><time>2026-04-24T08:15:46.168Z</time></trkpt><trkpt lat="36.7837803" lon="10.1804437"><ele>13.999999999999998</ele><time>2026-04-24T08:15:47.169Z</time></trkpt><trkpt lat="36.7836832" lon="10.1804713"><ele>13.999999999999998</ele><time>2026-04-24T08:15:48.148Z</time></trkpt><trkpt lat="36.7835825" lon="10.1805008"><ele>14.0</ele><time>2026-04-24T08:15:49.178Z</time></trkpt><trkpt lat="36.7834811" lon="10.1805321"><ele>14.0</ele><time>2026-04-24T08:15:50.171Z</time></trkpt><trkpt lat="36.7833757" lon="10.180563"><ele>14.5</ele><time>2026-04-24T08:15:51.175Z</time></trkpt><trkpt lat="36.7832688" lon="10.1805974"><ele>15.0</ele><time>2026-04-24T08:15:52.165Z</time></trkpt><trkpt lat="36.7831537" lon="10.1806277"><ele>15.5</ele><time>2026-04-24T08:15:53.167Z</time></trkpt><trkpt lat="36.7830443" lon="10.1806618"><ele>16.0</ele><time>2026-04-24T08:15:54.178Z</time></trkpt><trkpt lat="36.7829304" lon="10.1806971"><ele>16.0</ele><time>2026-04-24T08:15:55.176Z</time></trkpt><trkpt lat="36.7828059" lon="10.1807282"><ele>16.0</ele><time>2026-04-24T08:15:56.176Z</time></trkpt><trkpt lat="36.7826814" lon="10.1807664"><ele>16.0</ele><time>2026-04-24T08:15:57.172Z</time></trkpt><trkpt lat="36.7825581" lon="10.1807997"><ele>16.0</ele><time>2026-04-24T08:15:58.139Z</time></trkpt><trkpt lat="36.7824314" lon="10.1808361"><ele>16.0</ele><time>2026-04-24T08:15:59.172Z</time></trkpt><trkpt lat="36.7823021" lon="10.1808759"><ele>16.0</ele><time>2026-04-24T08:16:00.144Z</time></trkpt><trkpt lat="36.7821716" lon="10.1809195"><ele>16.0</ele><time>2026-04-24T08:16:01.19Z</time></trkpt><trkpt lat="36.7820376" lon="10.1809578"><ele>16.0</ele><time>2026-04-24T08:16:02.158Z</time></trkpt><trkpt lat="36.7818932" lon="10.1810017"><ele>16.333333333333332</ele><time>2026-04-24T08:16:03.162Z</time></trkpt><trkpt lat="36.7817413" lon="10.1810421"><ele>16.666666666666668</ele><time>2026-04-24T08:16:04.183Z</time></trkpt><trkpt lat="36.7815907" lon="10.1810825"><ele>17.0</ele><time>2026-04-24T08:16:05.169Z</time></trkpt><trkpt lat="36.7814382" lon="10.181128"><ele>17.0</ele><time>2026-04-24T08:16:06.178Z</time></trkpt><trkpt lat="36.7812978" lon="10.181168"><ele>17.0</ele><time>2026-04-24T08:16:07.169Z</time></trkpt><trkpt lat="36.7811552" lon="10.1812114"><ele>17.0</ele><time>2026-04-24T08:16:08.174Z</time></trkpt><trkpt lat="36.7810033" lon="10.181253"><ele>17.0</ele><time>2026-04-24T08:16:09.119Z</time></trkpt><trkpt lat="36.7808483" lon="10.1812923"><ele>18.0</ele><time>2026-04-24T08:16:10.149Z</time></trkpt><trkpt lat="36.7806973" lon="10.1813301"><ele>19.0</ele><time>2026-04-24T08:16:11.171Z</time></trkpt><trkpt lat="36.7805479" lon="10.1813648"><ele>20.0</ele><time>2026-04-24T08:16:12.119Z</time></trkpt><trkpt lat="36.7804018" lon="10.1814003"><ele>20.0</ele><time>2026-04-24T08:16:13.172Z</time></trkpt><trkpt lat="36.780257" lon="10.1814361"><ele>20.0</ele><time>2026-04-24T08:16:14.172Z</time></trkpt><trkpt lat="36.7801199" lon="10.1814702"><ele>20.0</ele><time>2026-04-24T08:16:15.167Z</time></trkpt><trkpt lat="36.7799857" lon="10.1815078"><ele>20.0</ele><time>2026-04-24T08:16:16.181Z</time></trkpt><trkpt lat="36.7798528" lon="10.1815432"><ele>20.0</ele><time>2026-04-24T08:16:17.172Z</time></trkpt><trkpt lat="36.779722" lon="10.181574"><ele>20.0</ele><time>2026-04-24T08:16:18.148Z</time></trkpt><trkpt lat="36.7795884" lon="10.1816099"><ele>20.0</ele><time>2026-04-24T08:16:19.187Z</time></trkpt><trkpt lat="36.7794562" lon="10.1816475"><ele>20.0</ele><time>2026-04-24T08:16:20.161Z</time></trkpt><trkpt lat="36.7793266" lon="10.1816827"><ele>20.25</ele><time>2026-04-24T08:16:21.173Z</time></trkpt><trkpt lat="36.7791982" lon="10.1817206"><ele>20.5</ele><time>2026-04-24T08:16:22.174Z</time></trkpt><trkpt lat="36.7790638" lon="10.1817572"><ele>20.75</ele><time>2026-04-24T08:16:23.157Z</time></trkpt><trkpt lat="36.7789376" lon="10.181798"><ele>21.0</ele><time>2026-04-24T08:16:24.185Z</time></trkpt><trkpt lat="36.7788131" lon="10.1818305"><ele>21.0</ele><time>2026-04-24T08:16:25.163Z</time></trkpt><trkpt lat="36.7786858" lon="10.1818671"><ele>21.0</ele><time>2026-04-24T08:16:26.177Z</time></trkpt><trkpt lat="36.7785629" lon="10.181905"><ele>21.0</ele><time>2026-04-24T08:16:27.172Z</time></trkpt><trkpt lat="36.7784442" lon="10.1819464"><ele>21.0</ele><time>2026-04-24T08:16:28.153Z</time></trkpt><trkpt lat="36.7783255" lon="10.181988"><ele>21.75</ele><time>2026-04-24T08:16:29.136Z</time></trkpt><trkpt lat="36.778208" lon="10.182031"><ele>22.5</ele><time>2026-04-24T08:16:30.154Z</time></trkpt><trkpt lat="36.7780892" lon="10.1820814"><ele>23.25</ele><time>2026-04-24T08:16:31.161Z</time></trkpt><trkpt lat="36.7779763" lon="10.1821409"><ele>24.0</ele><time>2026-04-24T08:16:32.172Z</time></trkpt><trkpt lat="36.7778637" lon="10.1822037"><ele>24.0</ele><time>2026-04-24T08:16:33.115Z</time></trkpt><trkpt lat="36.7777542" lon="10.1822729"><ele>24.0</ele><time>2026-04-24T08:16:34.152Z</time></trkpt><trkpt lat="36.777651" lon="10.182344"><ele>24.0</ele><time>2026-04-24T08:16:35.156Z</time></trkpt><trkpt lat="36.7775472" lon="10.1824264"><ele>24.0</ele><time>2026-04-24T08:16:36.13Z</time></trkpt><trkpt lat="36.7774477" lon="10.18251"><ele>24.25</ele><time>2026-04-24T08:16:37.158Z</time></trkpt><trkpt lat="36.7773505" lon="10.1826048"><ele>24.5</ele><time>2026-04-24T08:16:38.135Z</time></trkpt><trkpt lat="36.7772545" lon="10.1827025"><ele>24.75</ele><time>2026-04-24T08:16:39.174Z</time></trkpt><trkpt lat="36.7771621" lon="10.1827988"><ele>25.0</ele><time>2026-04-24T08:16:40.181Z</time></trkpt><trkpt lat="36.7770749" lon="10.182896"><ele>25.0</ele><time>2026-04-24T08:16:41.17Z</time></trkpt><trkpt lat="36.7769907" lon="10.1829924"><ele>25.0</ele><time>2026-04-24T08:16:42.168Z</time></trkpt><trkpt lat="36.7769129" lon="10.1830882"><ele>25.0</ele><time>2026-04-24T08:16:43.159Z</time></trkpt><trkpt lat="36.7768319" lon="10.1831791"><ele>25.0</ele><time>2026-04-24T08:16:44.179Z</time></trkpt><trkpt lat="36.776755" lon="10.1832686"><ele>25.0</ele><time>2026-04-24T08:16:45.17Z</time></trkpt><trkpt lat="36.7766765" lon="10.1833643"><ele>24.75</ele><time>2026-04-24T08:16:46.147Z</time></trkpt><trkpt lat="36.7765943" lon="10.1834613"><ele>24.5</ele><time>2026-04-24T08:16:47.168Z</time></trkpt><trkpt lat="36.7765102" lon="10.1835558"><ele>24.25</ele><time>2026-04-24T08:16:48.168Z</time></trkpt><trkpt lat="36.7764266" lon="10.1836558"><ele>24.0</ele><time>2026-04-24T08:16:49.162Z</time></trkpt><trkpt lat="36.7763426" lon="10.1837537"><ele>24.0</ele><time>2026-04-24T08:16:50.112Z</time></trkpt><trkpt lat="36.776262" lon="10.1838497"><ele>24.0</ele><time>2026-04-24T08:16:51.158Z</time></trkpt><trkpt lat="36.7761715" lon="10.1839511"><ele>24.0</ele><time>2026-04-24T08:16:52.157Z</time></trkpt><trkpt lat="36.7760797" lon="10.1840583"><ele>24.0</ele><time>2026-04-24T08:16:53.163Z</time></trkpt><trkpt lat="36.7759872" lon="10.1841692"><ele>24.25</ele><time>2026-04-24T08:16:54.183Z</time></trkpt><trkpt lat="36.7758908" lon="10.1842791"><ele>24.5</ele><time>2026-04-24T08:16:55.163Z</time></trkpt><trkpt lat="36.7757915" lon="10.1843832"><ele>24.75</ele><time>2026-04-24T08:16:56.193Z</time></trkpt><trkpt lat="36.7756924" lon="10.1844892"><ele>25.0</ele><time>2026-04-24T08:16:57.142Z</time></trkpt><trkpt lat="36.7755937" lon="10.1845934"><ele>25.0</ele><time>2026-04-24T08:16:58.167Z</time></trkpt><trkpt lat="36.7754967" lon="10.184694"><ele>25.0</ele><time>2026-04-24T08:16:59.168Z</time></trkpt><trkpt lat="36.7753933" lon="10.1847914"><ele>25.0</ele><time>2026-04-24T08:17:00.135Z</time></trkpt><trkpt lat="36.7752933" lon="10.1848849"><ele>25.0</ele><time>2026-04-24T08:17:01.126Z</time></trkpt><trkpt lat="36.7751959" lon="10.1849816"><ele>24.5</ele><time>2026-04-24T08:17:02.163Z</time></trkpt><trkpt lat="36.7750936" lon="10.1850836"><ele>24.0</ele><time>2026-04-24T08:17:03.169Z</time></trkpt><trkpt lat="36.7749933" lon="10.1851811"><ele>23.5</ele><time>2026-04-24T08:17:04.148Z</time></trkpt><trkpt lat="36.7748933" lon="10.1852754"><ele>23.0</ele><time>2026-04-24T08:17:05.172Z</time></trkpt><trkpt lat="36.7747875" lon="10.1853721"><ele>23.0</ele><time>2026-04-24T08:17:06.177Z</time></trkpt><trkpt lat="36.7746832" lon="10.1854699"><ele>23.0</ele><time>2026-04-24T08:17:07.177Z</time></trkpt><trkpt lat="36.7745843" lon="10.1855648"><ele>23.0</ele><time>2026-04-24T08:17:08.156Z</time></trkpt><trkpt lat="36.7744838" lon="10.1856659"><ele>23.0</ele><time>2026-04-24T08:17:09.13Z</time></trkpt><trkpt lat="36.774386" lon="10.1857627"><ele>23.5</ele><time>2026-04-24T08:17:10.164Z</time></trkpt><trkpt lat="36.7742912" lon="10.1858594"><ele>24.0</ele><time>2026-04-24T08:17:11.178Z</time></trkpt><trkpt lat="36.7741975" lon="10.1859521"><ele>24.5</ele><time>2026-04-24T08:17:12.184Z</time></trkpt><trkpt lat="36.7741016" lon="10.1860424"><ele>25.0</ele><time>2026-04-24T08:17:13.131Z</time></trkpt><trkpt lat="36.7740076" lon="10.1861338"><ele>25.0</ele><time>2026-04-24T08:17:14.173Z</time></trkpt><trkpt lat="36.7739209" lon="10.1862289"><ele>25.0</ele><time>2026-04-24T08:17:15.153Z</time></trkpt><trkpt lat="36.7738273" lon="10.1863178"><ele>25.0</ele><time>2026-04-24T08:17:16.18Z</time></trkpt><trkpt lat="36.7737319" lon="10.1864079"><ele>25.0</ele><time>2026-04-24T08:17:17.181Z</time></trkpt><trkpt lat="36.7736292" lon="10.1865019"><ele>25.25</ele><time>2026-04-24T08:17:18.172Z</time></trkpt><trkpt lat="36.7735281" lon="10.1865978"><ele>25.5</ele><time>2026-04-24T08:17:19.162Z</time></trkpt><trkpt lat="36.7734262" lon="10.1866895"><ele>25.75</ele><time>2026-04-24T08:17:20.176Z</time></trkpt><trkpt lat="36.7733356" lon="10.1867822"><ele>26.0</ele><time>2026-04-24T08:17:21.183Z</time></trkpt><trkpt lat="36.7732384" lon="10.1868712"><ele>26.0</ele><time>2026-04-24T08:17:22.18Z</time></trkpt><trkpt lat="36.7731436" lon="10.1869635"><ele>26.0</ele><time>2026-04-24T08:17:23.175Z</time></trkpt><trkpt lat="36.7730476" lon="10.187059"><ele>26.0</ele><time>2026-04-24T08:17:24.18Z</time></trkpt><trkpt lat="36.7729511" lon="10.1871544"><ele>26.0</ele><time>2026-04-24T08:17:25.18Z</time></trkpt><trkpt lat="36.7728568" lon="10.187252"><ele>26.0</ele><time>2026-04-24T08:17:26.173Z</time></trkpt><trkpt lat="36.7727574" lon="10.1873427"><ele>26.0</ele><time>2026-04-24T08:17:27.17Z</time></trkpt><trkpt lat="36.7726569" lon="10.1874292"><ele>26.0</ele><time>2026-04-24T08:17:28.167Z</time></trkpt><trkpt lat="36.7725613" lon="10.1875121"><ele>26.0</ele><time>2026-04-24T08:17:29.175Z</time></trkpt><trkpt lat="36.7724663" lon="10.1875983"><ele>26.75</ele><time>2026-04-24T08:17:30.176Z</time></trkpt><trkpt lat="36.7723684" lon="10.1876833"><ele>27.5</ele><time>2026-04-24T08:17:31.174Z</time></trkpt><trkpt lat="36.7722718" lon="10.1877647"><ele>28.25</ele><time>2026-04-24T08:17:32.173Z</time></trkpt><trkpt lat="36.7721737" lon="10.1878505"><ele>29.0</ele><time>2026-04-24T08:17:33.175Z</time></trkpt><trkpt lat="36.7720766" lon="10.1879361"><ele>29.0</ele><time>2026-04-24T08:17:34.176Z</time></trkpt><trkpt lat="36.7719776" lon="10.1880197"><ele>29.0</ele><time>2026-04-24T08:17:35.166Z</time></trkpt><trkpt lat="36.7718768" lon="10.1881031"><ele>29.0</ele><time>2026-04-24T08:17:36.173Z</time></trkpt><trkpt lat="36.7717758" lon="10.1881938"><ele>29.0</ele><time>2026-04-24T08:17:37.17Z</time></trkpt><trkpt lat="36.7716713" lon="10.1882762"><ele>30.0</ele><time>2026-04-24T08:17:38.179Z</time></trkpt><trkpt lat="36.7715675" lon="10.1883625"><ele>31.0</ele><time>2026-04-24T08:17:39.182Z</time></trkpt><trkpt lat="36.771462" lon="10.1884499"><ele>32.0</ele><time>2026-04-24T08:17:40.143Z</time></trkpt><trkpt lat="36.7713504" lon="10.1885373"><ele>33.0</ele><time>2026-04-24T08:17:41.164Z</time></trkpt><trkpt lat="36.7712358" lon="10.188626"><ele>33.0</ele><time>2026-04-24T08:17:42.15Z</time></trkpt><trkpt lat="36.7711355" lon="10.1887149"><ele>33.0</ele><time>2026-04-24T08:17:43.137Z</time></trkpt><trkpt lat="36.7710265" lon="10.1888103"><ele>33.0</ele><time>2026-04-24T08:17:44.142Z</time></trkpt><trkpt lat="36.7709112" lon="10.1889081"><ele>33.0</ele><time>2026-04-24T08:17:45.179Z</time></trkpt><trkpt lat="36.7707856" lon="10.1890095"><ele>34.666666666666664</ele><time>2026-04-24T08:17:46.175Z</time></trkpt><trkpt lat="36.7706579" lon="10.1891117"><ele>36.33333333333333</ele><time>2026-04-24T08:17:47.14Z</time></trkpt><trkpt lat="36.7705258" lon="10.1892186"><ele>38.0</ele><time>2026-04-24T08:17:48.184Z</time></trkpt><trkpt lat="36.7704021" lon="10.1893206"><ele>38.0</ele><time>2026-04-24T08:17:49.177Z</time></trkpt><trkpt lat="36.7702847" lon="10.1894183"><ele>38.0</ele><time>2026-04-24T08:17:50.17Z</time></trkpt><trkpt lat="36.7701683" lon="10.1895198"><ele>38.0</ele><time>2026-04-24T08:17:51.154Z</time></trkpt><trkpt lat="36.7700514" lon="10.1896201"><ele>38.0</ele><time>2026-04-24T08:17:52.143Z</time></trkpt><trkpt lat="36.7699376" lon="10.189721"><ele>38.25</ele><time>2026-04-24T08:17:53.182Z</time></trkpt><trkpt lat="36.7698326" lon="10.1898204"><ele>38.5</ele><time>2026-04-24T08:17:54.181Z</time></trkpt><trkpt lat="36.7697254" lon="10.1899258"><ele>38.75</ele><time>2026-04-24T08:17:55.181Z</time></trkpt><trkpt lat="36.7696203" lon="10.1900315"><ele>39.0</ele><time>2026-04-24T08:17:56.169Z</time></trkpt><trkpt lat="36.769518" lon="10.1901416"><ele>39.25</ele><time>2026-04-24T08:17:57.181Z</time></trkpt><trkpt lat="36.7694175" lon="10.190258"><ele>39.5</ele><time>2026-04-24T08:17:58.178Z</time></trkpt><trkpt lat="36.7693194" lon="10.1903761"><ele>39.75</ele><time>2026-04-24T08:17:59.178Z</time></trkpt><trkpt lat="36.7692255" lon="10.1904901"><ele>40.0</ele><time>2026-04-24T08:18:00.165Z</time></trkpt><trkpt lat="36.7691305" lon="10.1906019"><ele>39.75</ele><time>2026-04-24T08:18:01.187Z</time></trkpt><trkpt lat="36.7690371" lon="10.1907153"><ele>39.5</ele><time>2026-04-24T08:18:02.177Z</time></trkpt><trkpt lat="36.7689447" lon="10.1908278"><ele>39.25</ele><time>2026-04-24T08:18:03.175Z</time></trkpt><trkpt lat="36.7688505" lon="10.1909391"><ele>39.0</ele><time>2026-04-24T08:18:04.172Z</time></trkpt><trkpt lat="36.7687628" lon="10.1910529"><ele>39.0</ele><time>2026-04-24T08:18:05.175Z</time></trkpt><trkpt lat="36.7686722" lon="10.191166"><ele>39.0</ele><time>2026-04-24T08:18:06.154Z</time></trkpt><trkpt lat="36.7685807" lon="10.191282"><ele>39.0</ele><time>2026-04-24T08:18:07.174Z</time></trkpt><trkpt lat="36.7684784" lon="10.1914043"><ele>39.0</ele><time>2026-04-24T08:18:08.171Z</time></trkpt><trkpt lat="36.7683786" lon="10.1915281"><ele>38.5</ele><time>2026-04-24T08:18:09.153Z</time></trkpt><trkpt lat="36.7682792" lon="10.1916525"><ele>38.0</ele><time>2026-04-24T08:18:10.173Z</time></trkpt><trkpt lat="36.7681845" lon="10.1917803"><ele>37.5</ele><time>2026-04-24T08:18:11.175Z</time></trkpt><trkpt lat="36.7680827" lon="10.1919039"><ele>37.0</ele><time>2026-04-24T08:18:12.179Z</time></trkpt><trkpt lat="36.7679827" lon="10.1920298"><ele>37.0</ele><time>2026-04-24T08:18:13.159Z</time></trkpt><trkpt lat="36.7678895" lon="10.1921477"><ele>37.0</ele><time>2026-04-24T08:18:14.183Z</time></trkpt><trkpt lat="36.7678006" lon="10.1922603"><ele>37.0</ele><time>2026-04-24T08:18:15.175Z</time></trkpt><trkpt lat="36.7677106" lon="10.1923774"><ele>37.0</ele><time>2026-04-24T08:18:16.174Z</time></trkpt><trkpt lat="36.7676182" lon="10.1924926"><ele>37.0</ele><time>2026-04-24T08:18:17.167Z</time></trkpt><trkpt lat="36.7675311" lon="10.1926076"><ele>37.0</ele><time>2026-04-24T08:18:18.174Z</time></trkpt><trkpt lat="36.7674393" lon="10.1927246"><ele>37.0</ele><time>2026-04-24T08:18:19.172Z</time></trkpt><trkpt lat="36.7673497" lon="10.1928423"><ele>37.0</ele><time>2026-04-24T08:18:20.15Z</time></trkpt><trkpt lat="36.7672556" lon="10.1929549"><ele>37.0</ele><time>2026-04-24T08:18:21.135Z</time></trkpt><trkpt lat="36.7671615" lon="10.1930733"><ele>37.0</ele><time>2026-04-24T08:18:22.131Z</time></trkpt><trkpt lat="36.7670648" lon="10.1931936"><ele>37.0</ele><time>2026-04-24T08:18:23.128Z</time></trkpt><trkpt lat="36.7669655" lon="10.1933107"><ele>37.0</ele><time>2026-04-24T08:18:24.163Z</time></trkpt><trkpt lat="36.766865" lon="10.1934238"><ele>36.75</ele><time>2026-04-24T08:18:25.177Z</time></trkpt><trkpt lat="36.766769" lon="10.1935372"><ele>36.5</ele><time>2026-04-24T08:18:26.17Z</time></trkpt><trkpt lat="36.7666714" lon="10.1936492"><ele>36.25</ele><time>2026-04-24T08:18:27.15Z</time></trkpt><trkpt lat="36.7665709" lon="10.1937691"><ele>36.0</ele><time>2026-04-24T08:18:28.176Z</time></trkpt><trkpt lat="36.7664712" lon="10.1938905"><ele>34.5</ele><time>2026-04-24T08:18:29.166Z</time></trkpt><trkpt lat="36.7663692" lon="10.1940113"><ele>33.0</ele><time>2026-04-24T08:18:30.17Z</time></trkpt><trkpt lat="36.7662637" lon="10.1941278"><ele>31.5</ele><time>2026-04-24T08:18:31.169Z</time></trkpt><trkpt lat="36.7661633" lon="10.194241"><ele>30.0</ele><time>2026-04-24T08:18:32.188Z</time></trkpt><trkpt lat="36.7660572" lon="10.1943527"><ele>31.25</ele><time>2026-04-24T08:18:33.165Z</time></trkpt><trkpt lat="36.7659561" lon="10.194463"><ele>32.5</ele><time>2026-04-24T08:18:34.171Z</time></trkpt><trkpt lat="36.7658493" lon="10.1945706"><ele>33.75</ele><time>2026-04-24T08:18:35.146Z</time></trkpt><trkpt lat="36.7657487" lon="10.1946735"><ele>35.0</ele><time>2026-04-24T08:18:36.155Z</time></trkpt><trkpt lat="36.7656464" lon="10.1947842"><ele>33.75</ele><time>2026-04-24T08:18:37.165Z</time></trkpt><trkpt lat="36.7655437" lon="10.1948848"><ele>32.5</ele><time>2026-04-24T08:18:38.18Z</time></trkpt><trkpt lat="36.7654421" lon="10.1949839"><ele>31.25</ele><time>2026-04-24T08:18:39.166Z</time></trkpt><trkpt lat="36.7653353" lon="10.195089"><ele>30.0</ele><time>2026-04-24T08:18:40.181Z</time></trkpt><trkpt lat="36.7652273" lon="10.1951918"><ele>31.75</ele><time>2026-04-24T08:18:41.181Z</time></trkpt><trkpt lat="36.7651164" lon="10.1953003"><ele>33.5</ele><time>2026-04-24T08:18:42.172Z</time></trkpt><trkpt lat="36.7650042" lon="10.195407"><ele>35.25</ele><time>2026-04-24T08:18:43.177Z</time></trkpt><trkpt lat="36.7648914" lon="10.1955131"><ele>37.0</ele><time>2026-04-24T08:18:44.163Z</time></trkpt><trkpt lat="36.7647838" lon="10.1956181"><ele>36.25</ele><time>2026-04-24T08:18:45.121Z</time></trkpt><trkpt lat="36.7646747" lon="10.1957181"><ele>35.5</ele><time>2026-04-24T08:18:46.122Z</time></trkpt><trkpt lat="36.7645649" lon="10.1958191"><ele>34.75</ele><time>2026-04-24T08:18:47.169Z</time></trkpt><trkpt lat="36.7644508" lon="10.1959118"><ele>34.0</ele><time>2026-04-24T08:18:48.162Z</time></trkpt><trkpt lat="36.7643364" lon="10.1960032"><ele>34.0</ele><time>2026-04-24T08:18:49.155Z</time></trkpt><trkpt lat="36.7642182" lon="10.1960869"><ele>34.0</ele><time>2026-04-24T08:18:50.164Z</time></trkpt><trkpt lat="36.7640995" lon="10.1961799"><ele>34.0</ele><time>2026-04-24T08:18:51.144Z</time></trkpt><trkpt lat="36.7639765" lon="10.1962682"><ele>34.0</ele><time>2026-04-24T08:18:52.172Z</time></trkpt><trkpt lat="36.7638547" lon="10.1963577"><ele>34.0</ele><time>2026-04-24T08:18:53.182Z</time></trkpt><trkpt lat="36.7637317" lon="10.1964434"><ele>34.0</ele><time>2026-04-24T08:18:54.174Z</time></trkpt><trkpt lat="36.7635987" lon="10.1965332"><ele>34.0</ele><time>2026-04-24T08:18:55.218Z</time></trkpt><trkpt lat="36.763472" lon="10.1966123"><ele>34.0</ele><time>2026-04-24T08:18:56.177Z</time></trkpt><trkpt lat="36.7633435" lon="10.1966968"><ele>32.75</ele><time>2026-04-24T08:18:57.177Z</time></trkpt><trkpt lat="36.7632199" lon="10.1967803"><ele>31.5</ele><time>2026-04-24T08:18:58.156Z</time></trkpt><trkpt lat="36.763095" lon="10.1968552"><ele>30.25</ele><time>2026-04-24T08:18:59.167Z</time></trkpt><trkpt lat="36.7629734" lon="10.1969362"><ele>29.0</ele><time>2026-04-24T08:19:00.142Z</time></trkpt><trkpt lat="36.7628546" lon="10.1970118"><ele>29.0</ele><time>2026-04-24T08:19:01.174Z</time></trkpt><trkpt lat="36.7627362" lon="10.1970861"><ele>29.0</ele><time>2026-04-24T08:19:02.196Z</time></trkpt><trkpt lat="36.762614" lon="10.1971617"><ele>29.0</ele><time>2026-04-24T08:19:03.167Z</time></trkpt><trkpt lat="36.7624993" lon="10.1972368"><ele>29.0</ele><time>2026-04-24T08:19:04.19Z</time></trkpt><trkpt lat="36.7623894" lon="10.1973117"><ele>28.75</ele><time>2026-04-24T08:19:05.165Z</time></trkpt><trkpt lat="36.7622818" lon="10.1973866"><ele>28.5</ele><time>2026-04-24T08:19:06.177Z</time></trkpt><trkpt lat="36.7621699" lon="10.1974658"><ele>28.25</ele><time>2026-04-24T08:19:07.176Z</time></trkpt><trkpt lat="36.7620629" lon="10.19755"><ele>28.0</ele><time>2026-04-24T08:19:08.189Z</time></trkpt><trkpt lat="36.7619585" lon="10.1976289"><ele>28.25</ele><time>2026-04-24T08:19:09.159Z</time></trkpt><trkpt lat="36.7618569" lon="10.1977104"><ele>28.5</ele><time>2026-04-24T08:19:10.171Z</time></trkpt><trkpt lat="36.7617611" lon="10.1977924"><ele>28.75</ele><time>2026-04-24T08:19:11.171Z</time></trkpt><trkpt lat="36.7616629" lon="10.1978754"><ele>29.0</ele><time>2026-04-24T08:19:12.19Z</time></trkpt><trkpt lat="36.7615687" lon="10.1979513"><ele>29.0</ele><time>2026-04-24T08:19:13.163Z</time></trkpt><trkpt lat="36.7614663" lon="10.1980297"><ele>29.0</ele><time>2026-04-24T08:19:14.12Z</time></trkpt><trkpt lat="36.7613705" lon="10.1981043"><ele>29.0</ele><time>2026-04-24T08:19:15.169Z</time></trkpt><trkpt lat="36.761269" lon="10.1981824"><ele>29.0</ele><time>2026-04-24T08:19:16.181Z</time></trkpt><trkpt lat="36.7611651" lon="10.198259"><ele>28.0</ele><time>2026-04-24T08:19:17.167Z</time></trkpt><trkpt lat="36.7610565" lon="10.1983323"><ele>27.0</ele><time>2026-04-24T08:19:18.178Z</time></trkpt><trkpt lat="36.7609449" lon="10.1984069"><ele>26.0</ele><time>2026-04-24T08:19:19.136Z</time></trkpt><trkpt lat="36.7608283" lon="10.1984799"><ele>25.0</ele><time>2026-04-24T08:19:20.174Z</time></trkpt><trkpt lat="36.7607146" lon="10.1985542"><ele>25.0</ele><time>2026-04-24T08:19:21.173Z</time></trkpt><trkpt lat="36.7605959" lon="10.1986339"><ele>25.0</ele><time>2026-04-24T08:19:22.154Z</time></trkpt><trkpt lat="36.7604737" lon="10.1987108"><ele>25.0</ele><time>2026-04-24T08:19:23.144Z</time></trkpt><trkpt lat="36.7603567" lon="10.1987831"><ele>25.0</ele><time>2026-04-24T08:19:24.182Z</time></trkpt><trkpt lat="36.7602383" lon="10.1988601"><ele>25.0</ele><time>2026-04-24T08:19:25.153Z</time></trkpt><trkpt lat="36.7601244" lon="10.1989336"><ele>25.0</ele><time>2026-04-24T08:19:26.17Z</time></trkpt><trkpt lat="36.7600118" lon="10.1989984"><ele>25.0</ele><time>2026-04-24T08:19:27.173Z</time></trkpt><trkpt lat="36.759897" lon="10.1990655"><ele>25.0</ele><time>2026-04-24T08:19:28.125Z</time></trkpt><trkpt lat="36.759778" lon="10.1991342"><ele>25.0</ele><time>2026-04-24T08:19:29.117Z</time></trkpt><trkpt lat="36.759652" lon="10.1992056"><ele>25.0</ele><time>2026-04-24T08:19:30.124Z</time></trkpt><trkpt lat="36.7595245" lon="10.1992757"><ele>25.0</ele><time>2026-04-24T08:19:31.137Z</time></trkpt><trkpt lat="36.7593948" lon="10.1993465"><ele>25.0</ele><time>2026-04-24T08:19:32.15Z</time></trkpt><trkpt lat="36.7592695" lon="10.1994175"><ele>24.75</ele><time>2026-04-24T08:19:33.127Z</time></trkpt><trkpt lat="36.7591433" lon="10.1994935"><ele>24.5</ele><time>2026-04-24T08:19:34.171Z</time></trkpt><trkpt lat="36.759014" lon="10.1995682"><ele>24.25</ele><time>2026-04-24T08:19:35.146Z</time></trkpt><trkpt lat="36.7588829" lon="10.1996447"><ele>24.0</ele><time>2026-04-24T08:19:36.146Z</time></trkpt><trkpt lat="36.7587552" lon="10.1997237"><ele>24.0</ele><time>2026-04-24T08:19:37.174Z</time></trkpt><trkpt lat="36.7586258" lon="10.1998018"><ele>24.0</ele><time>2026-04-24T08:19:38.145Z</time></trkpt><trkpt lat="36.7584999" lon="10.1998776"><ele>24.0</ele><time>2026-04-24T08:19:39.154Z</time></trkpt><trkpt lat="36.7583729" lon="10.1999557"><ele>24.0</ele><time>2026-04-24T08:19:40.161Z</time></trkpt><trkpt lat="36.7582464" lon="10.2000329"><ele>25.25</ele><time>2026-04-24T08:19:41.167Z</time></trkpt><trkpt lat="36.7581149" lon="10.2001072"><ele>26.5</ele><time>2026-04-24T08:19:42.168Z</time></trkpt><trkpt lat="36.7579905" lon="10.2001813"><ele>27.75</ele><time>2026-04-24T08:19:43.16Z</time></trkpt><trkpt lat="36.7578648" lon="10.2002551"><ele>29.0</ele><time>2026-04-24T08:19:44.151Z</time></trkpt><trkpt lat="36.7577362" lon="10.2003295"><ele>28.5</ele><time>2026-04-24T08:19:45.176Z</time></trkpt><trkpt lat="36.7576066" lon="10.200402"><ele>28.0</ele><time>2026-04-24T08:19:46.175Z</time></trkpt><trkpt lat="36.7574826" lon="10.2004749"><ele>27.5</ele><time>2026-04-24T08:19:47.172Z</time></trkpt><trkpt lat="36.7573554" lon="10.2005496"><ele>27.0</ele><time>2026-04-24T08:19:48.176Z</time></trkpt><trkpt lat="36.7572119" lon="10.2006314"><ele>27.0</ele><time>2026-04-24T08:19:49.168Z</time></trkpt><trkpt lat="36.7570499" lon="10.2007226"><ele>27.0</ele><time>2026-04-24T08:19:50.139Z</time></trkpt><trkpt lat="36.7568866" lon="10.200818"><ele>27.0</ele><time>2026-04-24T08:19:51.173Z</time></trkpt><trkpt lat="36.7567328" lon="10.2009124"><ele>27.0</ele><time>2026-04-24T08:19:52.169Z</time></trkpt><trkpt lat="36.7565885" lon="10.2009994"><ele>27.0</ele><time>2026-04-24T08:19:53.161Z</time></trkpt><trkpt lat="36.7564563" lon="10.2010755"><ele>27.0</ele><time>2026-04-24T08:19:54.179Z</time></trkpt><trkpt lat="36.7563309" lon="10.2011525"><ele>27.0</ele><time>2026-04-24T08:19:55.171Z</time></trkpt><trkpt lat="36.7562055" lon="10.2012284"><ele>27.0</ele><time>2026-04-24T08:19:56.17Z</time></trkpt><trkpt lat="36.7560723" lon="10.2013117"><ele>27.0</ele><time>2026-04-24T08:19:57.165Z</time></trkpt><trkpt lat="36.7559375" lon="10.2013986"><ele>27.0</ele><time>2026-04-24T08:19:58.183Z</time></trkpt><trkpt lat="36.7558006" lon="10.2014873"><ele>28.666666666666664</ele><time>2026-04-24T08:19:59.167Z</time></trkpt><trkpt lat="36.755658" lon="10.2015825"><ele>30.333333333333332</ele><time>2026-04-24T08:20:00.141Z</time></trkpt><trkpt lat="36.7555138" lon="10.2016764"><ele>32.0</ele><time>2026-04-24T08:20:01.179Z</time></trkpt><trkpt lat="36.7553662" lon="10.2017745"><ele>32.0</ele><time>2026-04-24T08:20:02.146Z</time></trkpt><trkpt lat="36.7552189" lon="10.2018792"><ele>32.0</ele><time>2026-04-24T08:20:03.159Z</time></trkpt><trkpt lat="36.7550791" lon="10.2019779"><ele>32.0</ele><time>2026-04-24T08:20:04.176Z</time></trkpt><trkpt lat="36.7549402" lon="10.2020778"><ele>33.0</ele><time>2026-04-24T08:20:05.17Z</time></trkpt><trkpt lat="36.754803" lon="10.2021808"><ele>34.0</ele><time>2026-04-24T08:20:06.172Z</time></trkpt><trkpt lat="36.7546635" lon="10.2022838"><ele>35.0</ele><time>2026-04-24T08:20:07.178Z</time></trkpt><trkpt lat="36.7545259" lon="10.2023836"><ele>35.0</ele><time>2026-04-24T08:20:08.174Z</time></trkpt><trkpt lat="36.7543924" lon="10.2024846"><ele>35.0</ele><time>2026-04-24T08:20:09.182Z</time></trkpt><trkpt lat="36.7542612" lon="10.2025851"><ele>35.0</ele><time>2026-04-24T08:20:10.177Z</time></trkpt><trkpt lat="36.7541331" lon="10.2026858"><ele>35.33333333333333</ele><time>2026-04-24T08:20:11.164Z</time></trkpt><trkpt lat="36.7540004" lon="10.2027861"><ele>35.666666666666664</ele><time>2026-04-24T08:20:12.166Z</time></trkpt><trkpt lat="36.753862" lon="10.2029015"><ele>36.0</ele><time>2026-04-24T08:20:13.149Z</time></trkpt><trkpt lat="36.7537233" lon="10.2030154"><ele>36.0</ele><time>2026-04-24T08:20:14.178Z</time></trkpt><trkpt lat="36.7535869" lon="10.2031295"><ele>36.0</ele><time>2026-04-24T08:20:15.134Z</time></trkpt><trkpt lat="36.753449" lon="10.2032457"><ele>36.0</ele><time>2026-04-24T08:20:16.152Z</time></trkpt><trkpt lat="36.7533095" lon="10.2033595"><ele>36.333333333333336</ele><time>2026-04-24T08:20:17.152Z</time></trkpt><trkpt lat="36.7531691" lon="10.2034762"><ele>36.66666666666667</ele><time>2026-04-24T08:20:18.158Z</time></trkpt><trkpt lat="36.7530252" lon="10.203592"><ele>37.0</ele><time>2026-04-24T08:20:19.13Z</time></trkpt><trkpt lat="36.7528831" lon="10.2037196"><ele>37.0</ele><time>2026-04-24T08:20:20.169Z</time></trkpt><trkpt lat="36.752746" lon="10.2038436"><ele>37.0</ele><time>2026-04-24T08:20:21.167Z</time></trkpt><trkpt lat="36.752603" lon="10.2039693"><ele>37.0</ele><time>2026-04-24T08:20:22.177Z</time></trkpt><trkpt lat="36.7524615" lon="10.2040934"><ele>37.66666666666667</ele><time>2026-04-24T08:20:23.148Z</time></trkpt><trkpt lat="36.7523215" lon="10.2042237"><ele>38.333333333333336</ele><time>2026-04-24T08:20:24.18Z</time></trkpt><trkpt lat="36.7521841" lon="10.2043518"><ele>39.0</ele><time>2026-04-24T08:20:25.159Z</time></trkpt><trkpt lat="36.7520461" lon="10.2044822"><ele>39.0</ele><time>2026-04-24T08:20:26.176Z</time></trkpt><trkpt lat="36.7519037" lon="10.2046028"><ele>39.0</ele><time>2026-04-24T08:20:27.142Z</time></trkpt><trkpt lat="36.7517592" lon="10.2047144"><ele>39.0</ele><time>2026-04-24T08:20:28.15Z</time></trkpt><trkpt lat="36.7516169" lon="10.2048366"><ele>39.666666666666664</ele><time>2026-04-24T08:20:29.182Z</time></trkpt><trkpt lat="36.751473" lon="10.2049577"><ele>40.33333333333333</ele><time>2026-04-24T08:20:30.161Z</time></trkpt><trkpt lat="36.7513369" lon="10.2050836"><ele>41.0</ele><time>2026-04-24T08:20:31.164Z</time></trkpt><trkpt lat="36.7512001" lon="10.2052055"><ele>41.0</ele><time>2026-04-24T08:20:32.181Z</time></trkpt><trkpt lat="36.7510702" lon="10.2053211"><ele>41.0</ele><time>2026-04-24T08:20:33.175Z</time></trkpt><trkpt lat="36.7509422" lon="10.2054341"><ele>41.0</ele><time>2026-04-24T08:20:34.173Z</time></trkpt><trkpt lat="36.7508228" lon="10.2055509"><ele>41.666666666666664</ele><time>2026-04-24T08:20:35.155Z</time></trkpt><trkpt lat="36.750702" lon="10.205667"><ele>42.333333333333336</ele><time>2026-04-24T08:20:36.172Z</time></trkpt><trkpt lat="36.7505774" lon="10.205783"><ele>43.0</ele><time>2026-04-24T08:20:37.172Z</time></trkpt><trkpt lat="36.750452" lon="10.2058986"><ele>43.0</ele><time>2026-04-24T08:20:38.164Z</time></trkpt><trkpt lat="36.7503275" lon="10.2060166"><ele>43.0</ele><time>2026-04-24T08:20:39.147Z</time></trkpt><trkpt lat="36.7502022" lon="10.2061375"><ele>43.0</ele><time>2026-04-24T08:20:40.172Z</time></trkpt><trkpt lat="36.7500772" lon="10.2062529"><ele>42.66666666666667</ele><time>2026-04-24T08:20:41.17Z</time></trkpt><trkpt lat="36.7499526" lon="10.20637"><ele>42.333333333333336</ele><time>2026-04-24T08:20:42.186Z</time></trkpt><trkpt lat="36.7498306" lon="10.2064835"><ele>42.0</ele><time>2026-04-24T08:20:43.168Z</time></trkpt><trkpt lat="36.7497078" lon="10.2065951"><ele>42.0</ele><time>2026-04-24T08:20:44.143Z</time></trkpt><trkpt lat="36.7495867" lon="10.2067065"><ele>42.0</ele><time>2026-04-24T08:20:45.175Z</time></trkpt><trkpt lat="36.7494737" lon="10.206815"><ele>42.0</ele><time>2026-04-24T08:20:46.16Z</time></trkpt><trkpt lat="36.7493563" lon="10.2069245"><ele>42.0</ele><time>2026-04-24T08:20:47.167Z</time></trkpt><trkpt lat="36.7492415" lon="10.2070289"><ele>42.5</ele><time>2026-04-24T08:20:48.153Z</time></trkpt><trkpt lat="36.7491285" lon="10.2071332"><ele>43.0</ele><time>2026-04-24T08:20:49.166Z</time></trkpt><trkpt lat="36.7490204" lon="10.2072364"><ele>43.5</ele><time>2026-04-24T08:20:50.156Z</time></trkpt><trkpt lat="36.7489128" lon="10.2073413"><ele>44.0</ele><time>2026-04-24T08:20:51.161Z</time></trkpt><trkpt lat="36.748807" lon="10.2074372"><ele>44.25</ele><time>2026-04-24T08:20:52.162Z</time></trkpt><trkpt lat="36.7487068" lon="10.2075298"><ele>44.5</ele><time>2026-04-24T08:20:53.163Z</time></trkpt><trkpt lat="36.7486129" lon="10.2076198"><ele>44.75</ele><time>2026-04-24T08:20:54.198Z</time></trkpt><trkpt lat="36.7485228" lon="10.2077057"><ele>45.0</ele><time>2026-04-24T08:20:55.159Z</time></trkpt><trkpt lat="36.7484312" lon="10.2077995"><ele>45.0</ele><time>2026-04-24T08:20:56.177Z</time></trkpt><trkpt lat="36.7483385" lon="10.2078904"><ele>45.0</ele><time>2026-04-24T08:20:57.176Z</time></trkpt><trkpt lat="36.7482461" lon="10.2079786"><ele>45.0</ele><time>2026-04-24T08:20:58.172Z</time></trkpt><trkpt lat="36.7481522" lon="10.2080664"><ele>45.0</ele><time>2026-04-24T08:20:59.163Z</time></trkpt><trkpt lat="36.7480593" lon="10.2081547"><ele>45.25</ele><time>2026-04-24T08:21:00.139Z</time></trkpt><trkpt lat="36.7479646" lon="10.2082461"><ele>45.5</ele><time>2026-04-24T08:21:01.175Z</time></trkpt><trkpt lat="36.7478681" lon="10.2083382"><ele>45.75</ele><time>2026-04-24T08:21:02.173Z</time></trkpt><trkpt lat="36.7477614" lon="10.2084356"><ele>46.0</ele><time>2026-04-24T08:21:03.171Z</time></trkpt><trkpt lat="36.7476552" lon="10.208534"><ele>46.0</ele><time>2026-04-24T08:21:04.177Z</time></trkpt><trkpt lat="36.7475401" lon="10.2086389"><ele>46.0</ele><time>2026-04-24T08:21:05.183Z</time></trkpt><trkpt lat="36.7474285" lon="10.2087434"><ele>46.0</ele><time>2026-04-24T08:21:06.168Z</time></trkpt><trkpt lat="36.7473186" lon="10.2088488"><ele>46.0</ele><time>2026-04-24T08:21:07.179Z</time></trkpt><trkpt lat="36.7472064" lon="10.2089514"><ele>46.25</ele><time>2026-04-24T08:21:08.17Z</time></trkpt><trkpt lat="36.7470912" lon="10.2090573"><ele>46.5</ele><time>2026-04-24T08:21:09.17Z</time></trkpt><trkpt lat="36.7469769" lon="10.2091667"><ele>46.75</ele><time>2026-04-24T08:21:10.172Z</time></trkpt><trkpt lat="36.7468643" lon="10.2092791"><ele>47.0</ele><time>2026-04-24T08:21:11.184Z</time></trkpt><trkpt lat="36.7467507" lon="10.2093888"><ele>47.0</ele><time>2026-04-24T08:21:12.174Z</time></trkpt><trkpt lat="36.7466387" lon="10.2095014"><ele>47.0</ele><time>2026-04-24T08:21:13.175Z</time></trkpt><trkpt lat="36.7465295" lon="10.2096069"><ele>47.0</ele><time>2026-04-24T08:21:14.186Z</time></trkpt><trkpt lat="36.7464232" lon="10.2097031"><ele>47.0</ele><time>2026-04-24T08:21:15.155Z</time></trkpt><trkpt lat="36.7463086" lon="10.2098006"><ele>46.75</ele><time>2026-04-24T08:21:16.178Z</time></trkpt><trkpt lat="36.7461893" lon="10.2098995"><ele>46.5</ele><time>2026-04-24T08:21:17.163Z</time></trkpt><trkpt lat="36.7460738" lon="10.2100026"><ele>46.25</ele><time>2026-04-24T08:21:18.172Z</time></trkpt><trkpt lat="36.7459621" lon="10.2101049"><ele>46.0</ele><time>2026-04-24T08:21:19.18Z</time></trkpt><trkpt lat="36.7458478" lon="10.2102074"><ele>45.75</ele><time>2026-04-24T08:21:20.159Z</time></trkpt><trkpt lat="36.745734" lon="10.2103096"><ele>45.5</ele><time>2026-04-24T08:21:21.184Z</time></trkpt><trkpt lat="36.7456235" lon="10.2104102"><ele>45.25</ele><time>2026-04-24T08:21:22.165Z</time></trkpt><trkpt lat="36.7455139" lon="10.210514"><ele>45.0</ele><time>2026-04-24T08:21:23.175Z</time></trkpt><trkpt lat="36.7454089" lon="10.2106176"><ele>44.25</ele><time>2026-04-24T08:21:24.126Z</time></trkpt><trkpt lat="36.7453064" lon="10.2107184"><ele>43.5</ele><time>2026-04-24T08:21:25.131Z</time></trkpt><trkpt lat="36.7452011" lon="10.2108201"><ele>42.75</ele><time>2026-04-24T08:21:26.169Z</time></trkpt><trkpt lat="36.7450975" lon="10.2109217"><ele>42.0</ele><time>2026-04-24T08:21:27.168Z</time></trkpt><trkpt lat="36.7449973" lon="10.2110243"><ele>41.5</ele><time>2026-04-24T08:21:28.151Z</time></trkpt><trkpt lat="36.7448971" lon="10.2111199"><ele>41.0</ele><time>2026-04-24T08:21:29.154Z</time></trkpt><trkpt lat="36.7447966" lon="10.2112112"><ele>40.5</ele><time>2026-04-24T08:21:30.164Z</time></trkpt><trkpt lat="36.7446961" lon="10.2113073"><ele>40.0</ele><time>2026-04-24T08:21:31.159Z</time></trkpt><trkpt lat="36.7445951" lon="10.2114056"><ele>39.75</ele><time>2026-04-24T08:21:32.181Z</time></trkpt><trkpt lat="36.7444953" lon="10.2115006"><ele>39.5</ele><time>2026-04-24T08:21:33.164Z</time></trkpt><trkpt lat="36.744393" lon="10.2116024"><ele>39.25</ele><time>2026-04-24T08:21:34.147Z</time></trkpt><trkpt lat="36.7442832" lon="10.2117079"><ele>39.0</ele><time>2026-04-24T08:21:35.153Z</time></trkpt><trkpt lat="36.7441695" lon="10.21182"><ele>38.0</ele><time>2026-04-24T08:21:36.172Z</time></trkpt><trkpt lat="36.7440499" lon="10.2119355"><ele>37.0</ele><time>2026-04-24T08:21:37.181Z</time></trkpt><trkpt lat="36.7439271" lon="10.2120539"><ele>36.0</ele><time>2026-04-24T08:21:38.167Z</time></trkpt><trkpt lat="36.7437994" lon="10.2121721"><ele>36.0</ele><time>2026-04-24T08:21:39.167Z</time></trkpt><trkpt lat="36.7436697" lon="10.2122918"><ele>36.0</ele><time>2026-04-24T08:21:40.169Z</time></trkpt><trkpt lat="36.7435452" lon="10.2124105"><ele>36.0</ele><time>2026-04-24T08:21:41.133Z</time></trkpt><trkpt lat="36.7434205" lon="10.2125308"><ele>35.5</ele><time>2026-04-24T08:21:42.172Z</time></trkpt><trkpt lat="36.7433027" lon="10.2126442"><ele>35.0</ele><time>2026-04-24T08:21:43.165Z</time></trkpt><trkpt lat="36.7431884" lon="10.212757"><ele>34.5</ele><time>2026-04-24T08:21:44.166Z</time></trkpt><trkpt lat="36.7430722" lon="10.2128682"><ele>34.0</ele><time>2026-04-24T08:21:45.164Z</time></trkpt><trkpt lat="36.7429511" lon="10.2129794"><ele>34.0</ele><time>2026-04-24T08:21:46.185Z</time></trkpt><trkpt lat="36.7428309" lon="10.2130884"><ele>34.0</ele><time>2026-04-24T08:21:47.162Z</time></trkpt><trkpt lat="36.7427108" lon="10.2131974"><ele>34.0</ele><time>2026-04-24T08:21:48.166Z</time></trkpt><trkpt lat="36.7425953" lon="10.2133043"><ele>34.0</ele><time>2026-04-24T08:21:49.178Z</time></trkpt><trkpt lat="36.7424866" lon="10.2134073"><ele>33.5</ele><time>2026-04-24T08:21:50.152Z</time></trkpt><trkpt lat="36.7423734" lon="10.2135143"><ele>33.0</ele><time>2026-04-24T08:21:51.17Z</time></trkpt><trkpt lat="36.7422656" lon="10.2136148"><ele>32.5</ele><time>2026-04-24T08:21:52.18Z</time></trkpt><trkpt lat="36.7421598" lon="10.2137191"><ele>32.0</ele><time>2026-04-24T08:21:53.156Z</time></trkpt><trkpt lat="36.7420455" lon="10.2138301"><ele>32.0</ele><time>2026-04-24T08:21:54.18Z</time></trkpt><trkpt lat="36.7419322" lon="10.2139435"><ele>32.0</ele><time>2026-04-24T08:21:55.168Z</time></trkpt><trkpt lat="36.7418185" lon="10.2140549"><ele>32.0</ele><time>2026-04-24T08:21:56.173Z</time></trkpt><trkpt lat="36.7417046" lon="10.2141626"><ele>32.0</ele><time>2026-04-24T08:21:57.179Z</time></trkpt><trkpt lat="36.7415897" lon="10.2142667"><ele>31.25</ele><time>2026-04-24T08:21:58.162Z</time></trkpt><trkpt lat="36.7414743" lon="10.2143726"><ele>30.5</ele><time>2026-04-24T08:21:59.16Z</time></trkpt><trkpt lat="36.7413613" lon="10.2144786"><ele>29.75</ele><time>2026-04-24T08:22:00.14Z</time></trkpt><trkpt lat="36.7412393" lon="10.2145906"><ele>29.0</ele><time>2026-04-24T08:22:01.169Z</time></trkpt><trkpt lat="36.7411199" lon="10.2147042"><ele>28.75</ele><time>2026-04-24T08:22:02.17Z</time></trkpt><trkpt lat="36.7410005" lon="10.2148198"><ele>28.5</ele><time>2026-04-24T08:22:03.183Z</time></trkpt><trkpt lat="36.7408841" lon="10.2149331"><ele>28.25</ele><time>2026-04-24T08:22:04.185Z</time></trkpt><trkpt lat="36.7407707" lon="10.2150444"><ele>28.0</ele><time>2026-04-24T08:22:05.162Z</time></trkpt><trkpt lat="36.7406553" lon="10.2151543"><ele>27.75</ele><time>2026-04-24T08:22:06.178Z</time></trkpt><trkpt lat="36.7405434" lon="10.215265"><ele>27.5</ele><time>2026-04-24T08:22:07.183Z</time></trkpt><trkpt lat="36.7404291" lon="10.2153742"><ele>27.25</ele><time>2026-04-24T08:22:08.17Z</time></trkpt><trkpt lat="36.7403132" lon="10.2154857"><ele>27.0</ele><time>2026-04-24T08:22:09.171Z</time></trkpt><trkpt lat="36.740193" lon="10.2156003"><ele>27.333333333333336</ele><time>2026-04-24T08:22:10.173Z</time></trkpt><trkpt lat="36.7400746" lon="10.2157192"><ele>27.666666666666668</ele><time>2026-04-24T08:22:11.152Z</time></trkpt><trkpt lat="36.7399552" lon="10.2158383"><ele>28.0</ele><time>2026-04-24T08:22:12.185Z</time></trkpt><trkpt lat="36.7398356" lon="10.215955"><ele>28.0</ele><time>2026-04-24T08:22:13.176Z</time></trkpt><trkpt lat="36.7397145" lon="10.2160764"><ele>28.0</ele><time>2026-04-24T08:22:14.161Z</time></trkpt><trkpt lat="36.7395895" lon="10.2162023"><ele>28.0</ele><time>2026-04-24T08:22:15.176Z</time></trkpt><trkpt lat="36.7394684" lon="10.2163208"><ele>27.666666666666668</ele><time>2026-04-24T08:22:16.121Z</time></trkpt><trkpt lat="36.7393466" lon="10.216445"><ele>27.333333333333336</ele><time>2026-04-24T08:22:17.158Z</time></trkpt><trkpt lat="36.7392271" lon="10.2165705"><ele>27.0</ele><time>2026-04-24T08:22:18.17Z</time></trkpt><trkpt lat="36.7391084" lon="10.2166947"><ele>26.0</ele><time>2026-04-24T08:22:19.19Z</time></trkpt><trkpt lat="36.7389917" lon="10.2168176"><ele>25.0</ele><time>2026-04-24T08:22:20.19Z</time></trkpt><trkpt lat="36.7388745" lon="10.2169479"><ele>24.0</ele><time>2026-04-24T08:22:21.175Z</time></trkpt><trkpt lat="36.7387538" lon="10.2170811"><ele>24.0</ele><time>2026-04-24T08:22:22.183Z</time></trkpt><trkpt lat="36.7386368" lon="10.2172167"><ele>24.0</ele><time>2026-04-24T08:22:23.183Z</time></trkpt><trkpt lat="36.7385201" lon="10.2173479"><ele>24.0</ele><time>2026-04-24T08:22:24.178Z</time></trkpt><trkpt lat="36.7384061" lon="10.2174779"><ele>22.666666666666668</ele><time>2026-04-24T08:22:25.179Z</time></trkpt><trkpt lat="36.7382916" lon="10.2176077"><ele>21.333333333333336</ele><time>2026-04-24T08:22:26.181Z</time></trkpt><trkpt lat="36.7381735" lon="10.2177364"><ele>20.0</ele><time>2026-04-24T08:22:27.158Z</time></trkpt><trkpt lat="36.7380527" lon="10.2178706"><ele>20.0</ele><time>2026-04-24T08:22:28.189Z</time></trkpt><trkpt lat="36.7379389" lon="10.2180028"><ele>20.0</ele><time>2026-04-24T08:22:29.173Z</time></trkpt><trkpt lat="36.7378254" lon="10.2181443"><ele>20.0</ele><time>2026-04-24T08:22:30.189Z</time></trkpt><trkpt lat="36.7377166" lon="10.2182892"><ele>19.333333333333336</ele><time>2026-04-24T08:22:31.176Z</time></trkpt><trkpt lat="36.7376044" lon="10.218436"><ele>18.666666666666668</ele><time>2026-04-24T08:22:32.143Z</time></trkpt><trkpt lat="36.7374879" lon="10.218586"><ele>18.0</ele><time>2026-04-24T08:22:33.173Z</time></trkpt><trkpt lat="36.7373769" lon="10.2187315"><ele>18.0</ele><time>2026-04-24T08:22:34.176Z</time></trkpt><trkpt lat="36.7372707" lon="10.218871"><ele>18.0</ele><time>2026-04-24T08:22:35.151Z</time></trkpt><trkpt lat="36.7371661" lon="10.2190129"><ele>18.0</ele><time>2026-04-24T08:22:36.179Z</time></trkpt><trkpt lat="36.7370609" lon="10.2191487"><ele>17.666666666666668</ele><time>2026-04-24T08:22:37.182Z</time></trkpt><trkpt lat="36.736958" lon="10.2192845"><ele>17.333333333333336</ele><time>2026-04-24T08:22:38.181Z</time></trkpt><trkpt lat="36.7368544" lon="10.2194225"><ele>17.0</ele><time>2026-04-24T08:22:39.176Z</time></trkpt><trkpt lat="36.7367518" lon="10.2195613"><ele>16.75</ele><time>2026-04-24T08:22:40.175Z</time></trkpt><trkpt lat="36.7366531" lon="10.2197025"><ele>16.5</ele><time>2026-04-24T08:22:41.175Z</time></trkpt><trkpt lat="36.7365538" lon="10.2198393"><ele>16.25</ele><time>2026-04-24T08:22:42.172Z</time></trkpt><trkpt lat="36.7364561" lon="10.2199756"><ele>16.0</ele><time>2026-04-24T08:22:43.177Z</time></trkpt><trkpt lat="36.7363622" lon="10.2201109"><ele>16.25</ele><time>2026-04-24T08:22:44.177Z</time></trkpt><trkpt lat="36.7362683" lon="10.2202462"><ele>16.5</ele><time>2026-04-24T08:22:45.171Z</time></trkpt><trkpt lat="36.7361757" lon="10.2203832"><ele>16.75</ele><time>2026-04-24T08:22:46.16Z</time></trkpt><trkpt lat="36.7360854" lon="10.2205214"><ele>17.0</ele><time>2026-04-24T08:22:47.172Z</time></trkpt><trkpt lat="36.735994" lon="10.2206641"><ele>17.0</ele><time>2026-04-24T08:22:48.179Z</time></trkpt><trkpt lat="36.735902" lon="10.2208041"><ele>17.0</ele><time>2026-04-24T08:22:49.167Z</time></trkpt><trkpt lat="36.7358085" lon="10.2209497"><ele>17.0</ele><time>2026-04-24T08:22:50.178Z</time></trkpt><trkpt lat="36.7357161" lon="10.2210951"><ele>17.0</ele><time>2026-04-24T08:22:51.155Z</time></trkpt><trkpt lat="36.7356236" lon="10.2212444"><ele>17.0</ele><time>2026-04-24T08:22:52.167Z</time></trkpt><trkpt lat="36.735532" lon="10.2213936"><ele>17.0</ele><time>2026-04-24T08:22:53.167Z</time></trkpt><trkpt lat="36.7354438" lon="10.2215458"><ele>17.0</ele><time>2026-04-24T08:22:54.189Z</time></trkpt><trkpt lat="36.7353505" lon="10.2216974"><ele>16.333333333333336</ele><time>2026-04-24T08:22:55.167Z</time></trkpt><trkpt lat="36.7352553" lon="10.2218493"><ele>15.666666666666668</ele><time>2026-04-24T08:22:56.171Z</time></trkpt><trkpt lat="36.735163" lon="10.2220059"><ele>15.0</ele><time>2026-04-24T08:22:57.161Z</time></trkpt><trkpt lat="36.7350712" lon="10.222166"><ele>15.0</ele><time>2026-04-24T08:22:58.175Z</time></trkpt><trkpt lat="36.7349838" lon="10.2223258"><ele>15.0</ele><time>2026-04-24T08:22:59.158Z</time></trkpt><trkpt lat="36.7348953" lon="10.2224854"><ele>15.0</ele><time>2026-04-24T08:23:00.167Z</time></trkpt><trkpt lat="36.7348046" lon="10.2226436"><ele>15.0</ele><time>2026-04-24T08:23:01.146Z</time></trkpt><trkpt lat="36.7347104" lon="10.2228103"><ele>15.0</ele><time>2026-04-24T08:23:02.187Z</time></trkpt><trkpt lat="36.7346195" lon="10.2229752"><ele>15.0</ele><time>2026-04-24T08:23:03.153Z</time></trkpt><trkpt lat="36.7345325" lon="10.22314"><ele>14.666666666666668</ele><time>2026-04-24T08:23:04.18Z</time></trkpt><trkpt lat="36.7344467" lon="10.2233007"><ele>14.333333333333334</ele><time>2026-04-24T08:23:05.172Z</time></trkpt><trkpt lat="36.734361" lon="10.2234725"><ele>14.0</ele><time>2026-04-24T08:23:06.152Z</time></trkpt><trkpt lat="36.7342739" lon="10.2236494"><ele>14.0</ele><time>2026-04-24T08:23:07.173Z</time></trkpt><trkpt lat="36.73419" lon="10.2238203"><ele>14.0</ele><time>2026-04-24T08:23:08.182Z</time></trkpt><trkpt lat="36.7341058" lon="10.2239962"><ele>14.0</ele><time>2026-04-24T08:23:09.168Z</time></trkpt><trkpt lat="36.7340209" lon="10.224175"><ele>13.666666666666668</ele><time>2026-04-24T08:23:10.119Z</time></trkpt><trkpt lat="36.7339366" lon="10.2243603"><ele>13.333333333333332</ele><time>2026-04-24T08:23:11.117Z</time></trkpt><trkpt lat="36.7338532" lon="10.2245506"><ele>13.0</ele><time>2026-04-24T08:23:12.184Z</time></trkpt><trkpt lat="36.733774" lon="10.2247361"><ele>13.333333333333332</ele><time>2026-04-24T08:23:13.166Z</time></trkpt><trkpt lat="36.7336917" lon="10.2249292"><ele>13.666666666666668</ele><time>2026-04-24T08:23:14.175Z</time></trkpt><trkpt lat="36.7336087" lon="10.2251237"><ele>14.0</ele><time>2026-04-24T08:23:15.174Z</time></trkpt><trkpt lat="36.733525" lon="10.2253138"><ele>14.666666666666668</ele><time>2026-04-24T08:23:16.184Z</time></trkpt><trkpt lat="36.7334451" lon="10.2255001"><ele>15.333333333333332</ele><time>2026-04-24T08:23:17.129Z</time></trkpt><trkpt lat="36.7333663" lon="10.2256949"><ele>16.0</ele><time>2026-04-24T08:23:18.158Z</time></trkpt><trkpt lat="36.733291" lon="10.2258859"><ele>16.0</ele><time>2026-04-24T08:23:19.171Z</time></trkpt><trkpt lat="36.7332193" lon="10.2260761"><ele>16.0</ele><time>2026-04-24T08:23:20.169Z</time></trkpt><trkpt lat="36.7331493" lon="10.2262642"><ele>16.0</ele><time>2026-04-24T08:23:21.17Z</time></trkpt><trkpt lat="36.7330762" lon="10.2264524"><ele>16.333333333333332</ele><time>2026-04-24T08:23:22.167Z</time></trkpt><trkpt lat="36.7330091" lon="10.2266362"><ele>16.666666666666668</ele><time>2026-04-24T08:23:23.156Z</time></trkpt><trkpt lat="36.7329378" lon="10.2268218"><ele>17.0</ele><time>2026-04-24T08:23:24.174Z</time></trkpt><trkpt lat="36.7328687" lon="10.2270073"><ele>17.0</ele><time>2026-04-24T08:23:25.174Z</time></trkpt><trkpt lat="36.7328034" lon="10.2271932"><ele>17.0</ele><time>2026-04-24T08:23:26.171Z</time></trkpt><trkpt lat="36.7327399" lon="10.2273771"><ele>17.0</ele><time>2026-04-24T08:23:27.171Z</time></trkpt><trkpt lat="36.7326759" lon="10.2275628"><ele>17.0</ele><time>2026-04-24T08:23:28.175Z</time></trkpt><trkpt lat="36.7326116" lon="10.2277545"><ele>17.0</ele><time>2026-04-24T08:23:29.176Z</time></trkpt><trkpt lat="36.732547" lon="10.2279454"><ele>17.0</ele><time>2026-04-24T08:23:30.171Z</time></trkpt><trkpt lat="36.7324806" lon="10.2281399"><ele>16.0</ele><time>2026-04-24T08:23:31.145Z</time></trkpt><trkpt lat="36.7324134" lon="10.2283354"><ele>15.0</ele><time>2026-04-24T08:23:32.175Z</time></trkpt><trkpt lat="36.7323489" lon="10.2285255"><ele>14.0</ele><time>2026-04-24T08:23:33.158Z</time></trkpt><trkpt lat="36.7322841" lon="10.2287171"><ele>14.0</ele><time>2026-04-24T08:23:34.143Z</time></trkpt><trkpt lat="36.7322172" lon="10.2289107"><ele>14.0</ele><time>2026-04-24T08:23:35.162Z</time></trkpt><trkpt lat="36.7321522" lon="10.2291026"><ele>14.0</ele><time>2026-04-24T08:23:36.176Z</time></trkpt><trkpt lat="36.7320904" lon="10.2292888"><ele>13.666666666666668</ele><time>2026-04-24T08:23:37.132Z</time></trkpt><trkpt lat="36.7320249" lon="10.2294802"><ele>13.333333333333332</ele><time>2026-04-24T08:23:38.156Z</time></trkpt><trkpt lat="36.7319625" lon="10.2296698"><ele>13.0</ele><time>2026-04-24T08:23:39.172Z</time></trkpt><trkpt lat="36.731898" lon="10.2298618"><ele>13.666666666666666</ele><time>2026-04-24T08:23:40.185Z</time></trkpt><trkpt lat="36.7318356" lon="10.2300499"><ele>14.333333333333332</ele><time>2026-04-24T08:23:41.169Z</time></trkpt><trkpt lat="36.7317712" lon="10.23024"><ele>15.0</ele><time>2026-04-24T08:23:42.179Z</time></trkpt><trkpt lat="36.73171" lon="10.2304246"><ele>15.0</ele><time>2026-04-24T08:23:43.183Z</time></trkpt><trkpt lat="36.7316507" lon="10.2306101"><ele>15.0</ele><time>2026-04-24T08:23:44.14Z</time></trkpt><trkpt lat="36.7315904" lon="10.2307984"><ele>15.0</ele><time>2026-04-24T08:23:45.172Z</time></trkpt><trkpt lat="36.7315316" lon="10.2309782"><ele>15.0</ele><time>2026-04-24T08:23:46.141Z</time></trkpt><trkpt lat="36.7314688" lon="10.2311634"><ele>15.0</ele><time>2026-04-24T08:23:47.169Z</time></trkpt><trkpt lat="36.7314058" lon="10.2313445"><ele>15.0</ele><time>2026-04-24T08:23:48.167Z</time></trkpt><trkpt lat="36.7313416" lon="10.2315248"><ele>15.333333333333332</ele><time>2026-04-24T08:23:49.155Z</time></trkpt><trkpt lat="36.7312791" lon="10.2317107"><ele>15.666666666666666</ele><time>2026-04-24T08:23:50.177Z</time></trkpt><trkpt lat="36.7312173" lon="10.2318936"><ele>16.0</ele><time>2026-04-24T08:23:51.17Z</time></trkpt><trkpt lat="36.731157" lon="10.2320733"><ele>16.0</ele><time>2026-04-24T08:23:52.17Z</time></trkpt><trkpt lat="36.7310975" lon="10.2322507"><ele>16.0</ele><time>2026-04-24T08:23:53.181Z</time></trkpt><trkpt lat="36.7310377" lon="10.2324273"><ele>16.0</ele><time>2026-04-24T08:23:54.117Z</time></trkpt><trkpt lat="36.730975" lon="10.2326122"><ele>16.0</ele><time>2026-04-24T08:23:55.176Z</time></trkpt><trkpt lat="36.7309146" lon="10.2327919"><ele>16.0</ele><time>2026-04-24T08:23:56.18Z</time></trkpt><trkpt lat="36.7308525" lon="10.2329726"><ele>16.0</ele><time>2026-04-24T08:23:57.145Z</time></trkpt><trkpt lat="36.7307935" lon="10.2331534"><ele>15.666666666666666</ele><time>2026-04-24T08:23:58.181Z</time></trkpt><trkpt lat="36.7307309" lon="10.2333325"><ele>15.333333333333332</ele><time>2026-04-24T08:23:59.177Z</time></trkpt><trkpt lat="36.7306691" lon="10.2335145"><ele>15.0</ele><time>2026-04-24T08:24:00.151Z</time></trkpt><trkpt lat="36.7306079" lon="10.2336914"><ele>15.0</ele><time>2026-04-24T08:24:01.149Z</time></trkpt><trkpt lat="36.7305374" lon="10.2338691"><ele>15.0</ele><time>2026-04-24T08:24:02.167Z</time></trkpt><trkpt lat="36.7304733" lon="10.2340313"><ele>15.0</ele><time>2026-04-24T08:24:03.185Z</time></trkpt><trkpt lat="36.7304135" lon="10.234191"><ele>15.0</ele><time>2026-04-24T08:24:04.167Z</time></trkpt><trkpt lat="36.7303552" lon="10.2343422"><ele>14.5</ele><time>2026-04-24T08:24:05.17Z</time></trkpt><trkpt lat="36.7303022" lon="10.2344927"><ele>14.0</ele><time>2026-04-24T08:24:06.173Z</time></trkpt><trkpt lat="36.7302465" lon="10.2346557"><ele>13.5</ele><time>2026-04-24T08:24:07.167Z</time></trkpt><trkpt lat="36.730191" lon="10.2348312"><ele>13.0</ele><time>2026-04-24T08:24:08.154Z</time></trkpt><trkpt lat="36.7301321" lon="10.2350224"><ele>13.0</ele><time>2026-04-24T08:24:09.13Z</time></trkpt><trkpt lat="36.7300763" lon="10.2352255"><ele>13.0</ele><time>2026-04-24T08:24:10.152Z</time></trkpt><trkpt lat="36.7300244" lon="10.2354191"><ele>13.0</ele><time>2026-04-24T08:24:11.12Z</time></trkpt><trkpt lat="36.7299716" lon="10.2356102"><ele>12.666666666666666</ele><time>2026-04-24T08:24:12.167Z</time></trkpt><trkpt lat="36.7299204" lon="10.2358048"><ele>12.333333333333332</ele><time>2026-04-24T08:24:13.181Z</time></trkpt><trkpt lat="36.7298717" lon="10.2359974"><ele>12.0</ele><time>2026-04-24T08:24:14.165Z</time></trkpt><trkpt lat="36.7298274" lon="10.2361908"><ele>12.0</ele><time>2026-04-24T08:24:15.168Z</time></trkpt><trkpt lat="36.7297773" lon="10.2363887"><ele>12.0</ele><time>2026-04-24T08:24:16.19Z</time></trkpt><trkpt lat="36.7297307" lon="10.2365743"><ele>12.0</ele><time>2026-04-24T08:24:17.13Z</time></trkpt><trkpt lat="36.7296845" lon="10.2367633"><ele>11.333333333333334</ele><time>2026-04-24T08:24:18.162Z</time></trkpt><trkpt lat="36.7296393" lon="10.2369457"><ele>10.666666666666668</ele><time>2026-04-24T08:24:19.169Z</time></trkpt><trkpt lat="36.7295916" lon="10.2371349"><ele>10.0</ele><time>2026-04-24T08:24:20.158Z</time></trkpt><trkpt lat="36.7295515" lon="10.2373254"><ele>10.0</ele><time>2026-04-24T08:24:21.169Z</time></trkpt><trkpt lat="36.7295098" lon="10.2375243"><ele>10.0</ele><time>2026-04-24T08:24:22.159Z</time></trkpt><trkpt lat="36.7294692" lon="10.2377269"><ele>10.0</ele><time>2026-04-24T08:24:23.161Z</time></trkpt><trkpt lat="36.7294237" lon="10.23793"><ele>10.666666666666668</ele><time>2026-04-24T08:24:24.169Z</time></trkpt><trkpt lat="36.7293862" lon="10.2381351"><ele>11.333333333333334</ele><time>2026-04-24T08:24:25.131Z</time></trkpt><trkpt lat="36.7293475" lon="10.2383402"><ele>12.0</ele><time>2026-04-24T08:24:26.168Z</time></trkpt><trkpt lat="36.7293158" lon="10.2385422"><ele>12.0</ele><time>2026-04-24T08:24:27.17Z</time></trkpt><trkpt lat="36.7292842" lon="10.2387495"><ele>12.0</ele><time>2026-04-24T08:24:28.107Z</time></trkpt><trkpt lat="36.729251" lon="10.2389589"><ele>12.0</ele><time>2026-04-24T08:24:29.153Z</time></trkpt><trkpt lat="36.7292223" lon="10.2391741"><ele>12.0</ele><time>2026-04-24T08:24:30.169Z</time></trkpt><trkpt lat="36.7291882" lon="10.2393853"><ele>12.0</ele><time>2026-04-24T08:24:31.17Z</time></trkpt><trkpt lat="36.7291561" lon="10.2395995"><ele>12.0</ele><time>2026-04-24T08:24:32.17Z</time></trkpt><trkpt lat="36.7291211" lon="10.2398184"><ele>12.0</ele><time>2026-04-24T08:24:33.144Z</time></trkpt><trkpt lat="36.7290902" lon="10.2400299"><ele>12.0</ele><time>2026-04-24T08:24:34.176Z</time></trkpt><trkpt lat="36.7290569" lon="10.2402486"><ele>12.0</ele><time>2026-04-24T08:24:35.161Z</time></trkpt><trkpt lat="36.7290205" lon="10.2404615"><ele>12.0</ele><time>2026-04-24T08:24:36.139Z</time></trkpt><trkpt lat="36.72899" lon="10.2406749"><ele>12.0</ele><time>2026-04-24T08:24:37.128Z</time></trkpt><trkpt lat="36.7289524" lon="10.2408945"><ele>12.0</ele><time>2026-04-24T08:24:38.177Z</time></trkpt><trkpt lat="36.7289183" lon="10.2411163"><ele>12.0</ele><time>2026-04-24T08:24:39.162Z</time></trkpt><trkpt lat="36.7288869" lon="10.2413377"><ele>12.0</ele><time>2026-04-24T08:24:40.164Z</time></trkpt><trkpt lat="36.7288532" lon="10.241556"><ele>12.0</ele><time>2026-04-24T08:24:41.167Z</time></trkpt><trkpt lat="36.7288212" lon="10.2417761"><ele>11.666666666666666</ele><time>2026-04-24T08:24:42.156Z</time></trkpt><trkpt lat="36.7287899" lon="10.2419963"><ele>11.333333333333332</ele><time>2026-04-24T08:24:43.148Z</time></trkpt><trkpt lat="36.7287534" lon="10.2422169"><ele>11.0</ele><time>2026-04-24T08:24:44.169Z</time></trkpt><trkpt lat="36.7287226" lon="10.242436"><ele>11.0</ele><time>2026-04-24T08:24:45.183Z</time></trkpt><trkpt lat="36.7286835" lon="10.24265"><ele>11.0</ele><time>2026-04-24T08:24:46.184Z</time></trkpt><trkpt lat="36.7286478" lon="10.2428667"><ele>11.0</ele><time>2026-04-24T08:24:47.18Z</time></trkpt><trkpt lat="36.7286147" lon="10.2430862"><ele>11.0</ele><time>2026-04-24T08:24:48.167Z</time></trkpt><trkpt lat="36.7285771" lon="10.2433036"><ele>11.0</ele><time>2026-04-24T08:24:49.167Z</time></trkpt><trkpt lat="36.7285436" lon="10.2435245"><ele>11.0</ele><time>2026-04-24T08:24:50.156Z</time></trkpt><trkpt lat="36.728507" lon="10.2437461"><ele>11.0</ele><time>2026-04-24T08:24:51.166Z</time></trkpt><trkpt lat="36.7284681" lon="10.2439598"><ele>11.0</ele><time>2026-04-24T08:24:52.181Z</time></trkpt><trkpt lat="36.7284284" lon="10.2441751"><ele>11.0</ele><time>2026-04-24T08:24:53.154Z</time></trkpt><trkpt lat="36.7283906" lon="10.244386"><ele>11.0</ele><time>2026-04-24T08:24:54.162Z</time></trkpt><trkpt lat="36.7283532" lon="10.2446064"><ele>11.0</ele><time>2026-04-24T08:24:55.169Z</time></trkpt><trkpt lat="36.7283129" lon="10.2448206"><ele>11.0</ele><time>2026-04-24T08:24:56.177Z</time></trkpt><trkpt lat="36.7282735" lon="10.2450331"><ele>10.666666666666666</ele><time>2026-04-24T08:24:57.161Z</time></trkpt><trkpt lat="36.7282364" lon="10.2452534"><ele>10.333333333333334</ele><time>2026-04-24T08:24:58.17Z</time></trkpt><trkpt lat="36.7281974" lon="10.2454845"><ele>10.0</ele><time>2026-04-24T08:24:59.163Z</time></trkpt><trkpt lat="36.7281523" lon="10.2457173"><ele>10.666666666666668</ele><time>2026-04-24T08:25:00.143Z</time></trkpt><trkpt lat="36.7281062" lon="10.2459594"><ele>11.333333333333334</ele><time>2026-04-24T08:25:01.178Z</time></trkpt><trkpt lat="36.7280697" lon="10.2461989"><ele>12.0</ele><time>2026-04-24T08:25:02.177Z</time></trkpt><trkpt lat="36.7280181" lon="10.2464282"><ele>13.0</ele><time>2026-04-24T08:25:03.172Z</time></trkpt><trkpt lat="36.7279735" lon="10.2466455"><ele>14.0</ele><time>2026-04-24T08:25:04.211Z</time></trkpt><trkpt lat="36.727922" lon="10.2468634"><ele>15.0</ele><time>2026-04-24T08:25:05.163Z</time></trkpt><trkpt lat="36.7278729" lon="10.247081"><ele>14.0</ele><time>2026-04-24T08:25:06.168Z</time></trkpt><trkpt lat="36.727822" lon="10.2473044"><ele>13.0</ele><time>2026-04-24T08:25:07.16Z</time></trkpt><trkpt lat="36.7277675" lon="10.2475186"><ele>12.0</ele><time>2026-04-24T08:25:08.137Z</time></trkpt><trkpt lat="36.7277097" lon="10.2477307"><ele>12.0</ele><time>2026-04-24T08:25:09.148Z</time></trkpt><trkpt lat="36.727662" lon="10.2479395"><ele>12.0</ele><time>2026-04-24T08:25:10.166Z</time></trkpt><trkpt lat="36.7276115" lon="10.2481486"><ele>12.0</ele><time>2026-04-24T08:25:11.176Z</time></trkpt><trkpt lat="36.7275599" lon="10.24836"><ele>12.333333333333332</ele><time>2026-04-24T08:25:12.161Z</time></trkpt><trkpt lat="36.7275041" lon="10.2485693"><ele>12.666666666666666</ele><time>2026-04-24T08:25:13.176Z</time></trkpt><trkpt lat="36.727446" lon="10.248778"><ele>13.0</ele><time>2026-04-24T08:25:14.122Z</time></trkpt><trkpt lat="36.7273882" lon="10.2489858"><ele>13.0</ele><time>2026-04-24T08:25:15.163Z</time></trkpt><trkpt lat="36.7273275" lon="10.2491977"><ele>13.0</ele><time>2026-04-24T08:25:16.167Z</time></trkpt><trkpt lat="36.7272671" lon="10.2494087"><ele>13.0</ele><time>2026-04-24T08:25:17.151Z</time></trkpt><trkpt lat="36.7272102" lon="10.2496214"><ele>12.666666666666666</ele><time>2026-04-24T08:25:18.126Z</time></trkpt><trkpt lat="36.7271477" lon="10.2498296"><ele>12.333333333333332</ele><time>2026-04-24T08:25:19.145Z</time></trkpt><trkpt lat="36.7270862" lon="10.2500355"><ele>12.0</ele><time>2026-04-24T08:25:20.172Z</time></trkpt><trkpt lat="36.7270301" lon="10.2502355"><ele>12.0</ele><time>2026-04-24T08:25:21.174Z</time></trkpt><trkpt lat="36.7269686" lon="10.2504256"><ele>12.0</ele><time>2026-04-24T08:25:22.153Z</time></trkpt><trkpt lat="36.726906" lon="10.2506155"><ele>12.0</ele><time>2026-04-24T08:25:23.159Z</time></trkpt><trkpt lat="36.7268436" lon="10.2508016"><ele>12.0</ele><time>2026-04-24T08:25:24.146Z</time></trkpt><trkpt lat="36.7267772" lon="10.2509868"><ele>12.0</ele><time>2026-04-24T08:25:25.162Z</time></trkpt><trkpt lat="36.726711" lon="10.2511673"><ele>12.0</ele><time>2026-04-24T08:25:26.161Z</time></trkpt><trkpt lat="36.7266502" lon="10.2513475"><ele>11.75</ele><time>2026-04-24T08:25:27.145Z</time></trkpt><trkpt lat="36.7265911" lon="10.2515208"><ele>11.5</ele><time>2026-04-24T08:25:28.172Z</time></trkpt><trkpt lat="36.7265334" lon="10.2516937"><ele>11.25</ele><time>2026-04-24T08:25:29.15Z</time></trkpt><trkpt lat="36.7264744" lon="10.2518612"><ele>11.0</ele><time>2026-04-24T08:25:30.166Z</time></trkpt><trkpt lat="36.7264108" lon="10.252034"><ele>11.0</ele><time>2026-04-24T08:25:31.165Z</time></trkpt><trkpt lat="36.7263443" lon="10.2522136"><ele>11.0</ele><time>2026-04-24T08:25:32.17Z</time></trkpt><trkpt lat="36.7262787" lon="10.252397"><ele>11.0</ele><time>2026-04-24T08:25:33.168Z</time></trkpt><trkpt lat="36.7262141" lon="10.252585"><ele>11.0</ele><time>2026-04-24T08:25:34.178Z</time></trkpt><trkpt lat="36.7261471" lon="10.252778"><ele>11.0</ele><time>2026-04-24T08:25:35.169Z</time></trkpt><trkpt lat="36.726078" lon="10.2529687"><ele>11.0</ele><time>2026-04-24T08:25:36.167Z</time></trkpt><trkpt lat="36.7260059" lon="10.2531514"><ele>10.333333333333332</ele><time>2026-04-24T08:25:37.166Z</time></trkpt><trkpt lat="36.7259362" lon="10.2533257"><ele>9.666666666666666</ele><time>2026-04-24T08:25:38.173Z</time></trkpt><trkpt lat="36.7258659" lon="10.2535029"><ele>9.0</ele><time>2026-04-24T08:25:39.121Z</time></trkpt><trkpt lat="36.7257922" lon="10.2536774"><ele>9.0</ele><time>2026-04-24T08:25:40.178Z</time></trkpt><trkpt lat="36.7257264" lon="10.2538588"><ele>9.0</ele><time>2026-04-24T08:25:41.162Z</time></trkpt><trkpt lat="36.7256544" lon="10.2540362"><ele>9.0</ele><time>2026-04-24T08:25:42.151Z</time></trkpt><trkpt lat="36.7255759" lon="10.254227"><ele>9.666666666666666</ele><time>2026-04-24T08:25:43.182Z</time></trkpt><trkpt lat="36.725496" lon="10.254418"><ele>10.333333333333332</ele><time>2026-04-24T08:25:44.17Z</time></trkpt><trkpt lat="36.7254175" lon="10.2546105"><ele>11.0</ele><time>2026-04-24T08:25:45.178Z</time></trkpt><trkpt lat="36.7253347" lon="10.2548072"><ele>11.0</ele><time>2026-04-24T08:25:46.181Z</time></trkpt><trkpt lat="36.7252469" lon="10.2549982"><ele>11.0</ele><time>2026-04-24T08:25:47.174Z</time></trkpt><trkpt lat="36.7251608" lon="10.2551901"><ele>11.0</ele><time>2026-04-24T08:25:48.176Z</time></trkpt><trkpt lat="36.7250743" lon="10.2553779"><ele>11.0</ele><time>2026-04-24T08:25:49.171Z</time></trkpt><trkpt lat="36.7249914" lon="10.2555687"><ele>11.0</ele><time>2026-04-24T08:25:50.17Z</time></trkpt><trkpt lat="36.7249068" lon="10.2557523"><ele>11.0</ele><time>2026-04-24T08:25:51.165Z</time></trkpt><trkpt lat="36.7248181" lon="10.2559459"><ele>11.0</ele><time>2026-04-24T08:25:52.173Z</time></trkpt><trkpt lat="36.7247315" lon="10.2561355"><ele>11.0</ele><time>2026-04-24T08:25:53.184Z</time></trkpt><trkpt lat="36.7246399" lon="10.2563204"><ele>11.0</ele><time>2026-04-24T08:25:54.173Z</time></trkpt><trkpt lat="36.7245519" lon="10.2565031"><ele>11.0</ele><time>2026-04-24T08:25:55.171Z</time></trkpt><trkpt lat="36.7244687" lon="10.2566837"><ele>11.0</ele><time>2026-04-24T08:25:56.178Z</time></trkpt><trkpt lat="36.724381" lon="10.2568615"><ele>11.0</ele><time>2026-04-24T08:25:57.174Z</time></trkpt><trkpt lat="36.7242917" lon="10.2570434"><ele>11.0</ele><time>2026-04-24T08:25:58.168Z</time></trkpt><trkpt lat="36.7242007" lon="10.2572193"><ele>11.0</ele><time>2026-04-24T08:25:59.157Z</time></trkpt><trkpt lat="36.7241113" lon="10.2573966"><ele>11.0</ele><time>2026-04-24T08:26:00.127Z</time></trkpt><trkpt lat="36.7240173" lon="10.2575818"><ele>11.0</ele><time>2026-04-24T08:26:01.166Z</time></trkpt><trkpt lat="36.7239273" lon="10.2577656"><ele>11.0</ele><time>2026-04-24T08:26:02.159Z</time></trkpt><trkpt lat="36.7238316" lon="10.2579486"><ele>11.0</ele><time>2026-04-24T08:26:03.123Z</time></trkpt><trkpt lat="36.7237328" lon="10.2581287"><ele>11.0</ele><time>2026-04-24T08:26:04.134Z</time></trkpt><trkpt lat="36.7236345" lon="10.2583098"><ele>11.0</ele><time>2026-04-24T08:26:05.113Z</time></trkpt><trkpt lat="36.7235342" lon="10.2584944"><ele>11.0</ele><time>2026-04-24T08:26:06.113Z</time></trkpt><trkpt lat="36.723429" lon="10.2586733"><ele>11.0</ele><time>2026-04-24T08:26:07.177Z</time></trkpt><trkpt lat="36.7233231" lon="10.2588557"><ele>11.0</ele><time>2026-04-24T08:26:08.174Z</time></trkpt><trkpt lat="36.7232182" lon="10.2590364"><ele>11.0</ele><time>2026-04-24T08:26:09.17Z</time></trkpt><trkpt lat="36.7231165" lon="10.2592119"><ele>10.333333333333332</ele><time>2026-04-24T08:26:10.175Z</time></trkpt><trkpt lat="36.7230116" lon="10.2593898"><ele>9.666666666666666</ele><time>2026-04-24T08:26:11.174Z</time></trkpt><trkpt lat="36.7229021" lon="10.2595645"><ele>9.0</ele><time>2026-04-24T08:26:12.151Z</time></trkpt><trkpt lat="36.7227961" lon="10.259742"><ele>10.0</ele><time>2026-04-24T08:26:13.176Z</time></trkpt><trkpt lat="36.7226882" lon="10.2599252"><ele>11.0</ele><time>2026-04-24T08:26:14.165Z</time></trkpt><trkpt lat="36.7225741" lon="10.260107"><ele>12.0</ele><time>2026-04-24T08:26:15.17Z</time></trkpt><trkpt lat="36.7224647" lon="10.2602886"><ele>12.0</ele><time>2026-04-24T08:26:16.174Z</time></trkpt><trkpt lat="36.7223572" lon="10.2604723"><ele>12.0</ele><time>2026-04-24T08:26:17.175Z</time></trkpt><trkpt lat="36.722247" lon="10.2606551"><ele>12.0</ele><time>2026-04-24T08:26:18.14Z</time></trkpt><trkpt lat="36.7221333" lon="10.2608383"><ele>11.666666666666666</ele><time>2026-04-24T08:26:19.154Z</time></trkpt><trkpt lat="36.722018" lon="10.2610175"><ele>11.333333333333332</ele><time>2026-04-24T08:26:20.175Z</time></trkpt><trkpt lat="36.7218997" lon="10.2611989"><ele>11.0</ele><time>2026-04-24T08:26:21.163Z</time></trkpt><trkpt lat="36.7217799" lon="10.2613846"><ele>11.0</ele><time>2026-04-24T08:26:22.165Z</time></trkpt><trkpt lat="36.7216625" lon="10.2615592"><ele>11.0</ele><time>2026-04-24T08:26:23.145Z</time></trkpt><trkpt lat="36.7215469" lon="10.2617366"><ele>11.0</ele><time>2026-04-24T08:26:24.169Z</time></trkpt><trkpt lat="36.721434" lon="10.2619153"><ele>11.0</ele><time>2026-04-24T08:26:25.186Z</time></trkpt><trkpt lat="36.7213164" lon="10.262101"><ele>11.0</ele><time>2026-04-24T08:26:26.168Z</time></trkpt><trkpt lat="36.7211906" lon="10.2622937"><ele>11.0</ele><time>2026-04-24T08:26:27.17Z</time></trkpt><trkpt lat="36.721063" lon="10.2624901"><ele>11.666666666666666</ele><time>2026-04-24T08:26:28.171Z</time></trkpt><trkpt lat="36.7209389" lon="10.2626801"><ele>12.333333333333332</ele><time>2026-04-24T08:26:29.169Z</time></trkpt><trkpt lat="36.7208168" lon="10.2628654"><ele>13.0</ele><time>2026-04-24T08:26:30.162Z</time></trkpt><trkpt lat="36.7207017" lon="10.2630378"><ele>13.333333333333332</ele><time>2026-04-24T08:26:31.186Z</time></trkpt><trkpt lat="36.7205899" lon="10.2632015"><ele>13.666666666666668</ele><time>2026-04-24T08:26:32.158Z</time></trkpt><trkpt lat="36.7204841" lon="10.2633701"><ele>14.0</ele><time>2026-04-24T08:26:33.159Z</time></trkpt><trkpt lat="36.7203737" lon="10.2635331"><ele>14.0</ele><time>2026-04-24T08:26:34.167Z</time></trkpt><trkpt lat="36.7202665" lon="10.2636968"><ele>14.0</ele><time>2026-04-24T08:26:35.164Z</time></trkpt><trkpt lat="36.7201604" lon="10.2638557"><ele>14.0</ele><time>2026-04-24T08:26:36.171Z</time></trkpt><trkpt lat="36.720052" lon="10.2640084"><ele>13.333333333333334</ele><time>2026-04-24T08:26:37.146Z</time></trkpt><trkpt lat="36.7199506" lon="10.2641563"><ele>12.666666666666668</ele><time>2026-04-24T08:26:38.133Z</time></trkpt><trkpt lat="36.7198546" lon="10.2643005"><ele>12.0</ele><time>2026-04-24T08:26:39.165Z</time></trkpt><trkpt lat="36.7197583" lon="10.264446"><ele>12.0</ele><time>2026-04-24T08:26:40.172Z</time></trkpt><trkpt lat="36.7196667" lon="10.2645884"><ele>12.0</ele><time>2026-04-24T08:26:41.164Z</time></trkpt><trkpt lat="36.7195738" lon="10.2647275"><ele>12.0</ele><time>2026-04-24T08:26:42.151Z</time></trkpt><trkpt lat="36.7194801" lon="10.2648675"><ele>12.0</ele><time>2026-04-24T08:26:43.166Z</time></trkpt><trkpt lat="36.7193934" lon="10.265003"><ele>11.75</ele><time>2026-04-24T08:26:44.121Z</time></trkpt><trkpt lat="36.7193068" lon="10.2651327"><ele>11.5</ele><time>2026-04-24T08:26:45.159Z</time></trkpt><trkpt lat="36.7192208" lon="10.2652643"><ele>11.25</ele><time>2026-04-24T08:26:46.156Z</time></trkpt><trkpt lat="36.7191385" lon="10.2653798"><ele>11.0</ele><time>2026-04-24T08:26:47.169Z</time></trkpt><trkpt lat="36.7190594" lon="10.2654968"><ele>11.200000000000001</ele><time>2026-04-24T08:26:48.164Z</time></trkpt><trkpt lat="36.7189832" lon="10.2656146"><ele>11.4</ele><time>2026-04-24T08:26:49.172Z</time></trkpt><trkpt lat="36.7189132" lon="10.265721"><ele>11.6</ele><time>2026-04-24T08:26:50.153Z</time></trkpt><trkpt lat="36.718846" lon="10.2658252"><ele>11.8</ele><time>2026-04-24T08:26:51.156Z</time></trkpt><trkpt lat="36.7187794" lon="10.2659243"><ele>12.0</ele><time>2026-04-24T08:26:52.144Z</time></trkpt><trkpt lat="36.7187186" lon="10.2660221"><ele>12.0</ele><time>2026-04-24T08:26:53.146Z</time></trkpt><trkpt lat="36.7186609" lon="10.26611"><ele>12.0</ele><time>2026-04-24T08:26:54.127Z</time></trkpt><trkpt lat="36.7186028" lon="10.2662003"><ele>12.0</ele><time>2026-04-24T08:26:55.142Z</time></trkpt><trkpt lat="36.7185523" lon="10.2662847"><ele>12.0</ele><time>2026-04-24T08:26:56.166Z</time></trkpt><trkpt lat="36.7185044" lon="10.2663635"><ele>12.0</ele><time>2026-04-24T08:26:57.153Z</time></trkpt><trkpt lat="36.7184485" lon="10.2664443"><ele>12.0</ele><time>2026-04-24T08:26:58.155Z</time></trkpt><trkpt lat="36.718394" lon="10.2665334"><ele>12.6</ele><time>2026-04-24T08:26:59.155Z</time></trkpt><trkpt lat="36.7183374" lon="10.2666245"><ele>13.2</ele><time>2026-04-24T08:27:00.155Z</time></trkpt><trkpt lat="36.7182797" lon="10.2667151"><ele>13.8</ele><time>2026-04-24T08:27:01.164Z</time></trkpt><trkpt lat="36.7182198" lon="10.2668128"><ele>14.4</ele><time>2026-04-24T08:27:02.177Z</time></trkpt><trkpt lat="36.7181652" lon="10.2669048"><ele>15.0</ele><time>2026-04-24T08:27:03.153Z</time></trkpt><trkpt lat="36.7181125" lon="10.2669953"><ele>15.0</ele><time>2026-04-24T08:27:04.17Z</time></trkpt><trkpt lat="36.7180593" lon="10.2670852"><ele>15.0</ele><time>2026-04-24T08:27:05.155Z</time></trkpt><trkpt lat="36.7180058" lon="10.2671786"><ele>15.0</ele><time>2026-04-24T08:27:06.174Z</time></trkpt><trkpt lat="36.7179573" lon="10.2672611"><ele>15.0</ele><time>2026-04-24T08:27:07.18Z</time></trkpt><trkpt lat="36.7178982" lon="10.267356"><ele>15.0</ele><time>2026-04-24T08:27:08.183Z</time></trkpt><trkpt lat="36.7178373" lon="10.2674549"><ele>15.0</ele><time>2026-04-24T08:27:09.17Z</time></trkpt><trkpt lat="36.7177705" lon="10.2675638"><ele>15.0</ele><time>2026-04-24T08:27:10.188Z</time></trkpt><trkpt lat="36.7177063" lon="10.2676635"><ele>15.0</ele><time>2026-04-24T08:27:11.182Z</time></trkpt><trkpt lat="36.7176527" lon="10.2677572"><ele>15.0</ele><time>2026-04-24T08:27:12.177Z</time></trkpt><trkpt lat="36.7176007" lon="10.2678471"><ele>15.0</ele><time>2026-04-24T08:27:13.17Z</time></trkpt><trkpt lat="36.7175511" lon="10.2679379"><ele>15.0</ele><time>2026-04-24T08:27:14.144Z</time></trkpt><trkpt lat="36.7174971" lon="10.2680383"><ele>15.0</ele><time>2026-04-24T08:27:15.166Z</time></trkpt><trkpt lat="36.7174388" lon="10.2681483"><ele>15.0</ele><time>2026-04-24T08:27:16.16Z</time></trkpt><trkpt lat="36.7173832" lon="10.2682529"><ele>15.0</ele><time>2026-04-24T08:27:17.167Z</time></trkpt><trkpt lat="36.7173247" lon="10.2683626"><ele>15.0</ele><time>2026-04-24T08:27:18.153Z</time></trkpt><trkpt lat="36.7172713" lon="10.2684661"><ele>14.8</ele><time>2026-04-24T08:27:19.134Z</time></trkpt><trkpt lat="36.7172154" lon="10.2685724"><ele>14.6</ele><time>2026-04-24T08:27:20.152Z</time></trkpt><trkpt lat="36.7171667" lon="10.268673"><ele>14.399999999999999</ele><time>2026-04-24T08:27:21.166Z</time></trkpt><trkpt lat="36.7171168" lon="10.2687781"><ele>14.2</ele><time>2026-04-24T08:27:22.166Z</time></trkpt><trkpt lat="36.7170644" lon="10.2688941"><ele>14.0</ele><time>2026-04-24T08:27:23.177Z</time></trkpt><trkpt lat="36.7170055" lon="10.2690169"><ele>14.0</ele><time>2026-04-24T08:27:24.161Z</time></trkpt><trkpt lat="36.7169439" lon="10.2691367"><ele>14.0</ele><time>2026-04-24T08:27:25.167Z</time></trkpt><trkpt lat="36.716878" lon="10.2692637"><ele>14.0</ele><time>2026-04-24T08:27:26.165Z</time></trkpt><trkpt lat="36.7168118" lon="10.2693907"><ele>14.0</ele><time>2026-04-24T08:27:27.166Z</time></trkpt><trkpt lat="36.7167486" lon="10.2695196"><ele>14.5</ele><time>2026-04-24T08:27:28.164Z</time></trkpt><trkpt lat="36.7166853" lon="10.2696525"><ele>15.0</ele><time>2026-04-24T08:27:29.14Z</time></trkpt><trkpt lat="36.7166249" lon="10.2697771"><ele>15.5</ele><time>2026-04-24T08:27:30.165Z</time></trkpt><trkpt lat="36.7165664" lon="10.2698983"><ele>16.0</ele><time>2026-04-24T08:27:31.17Z</time></trkpt><trkpt lat="36.7165127" lon="10.270013"><ele>16.0</ele><time>2026-04-24T08:27:32.141Z</time></trkpt><trkpt lat="36.7164601" lon="10.2701199"><ele>16.0</ele><time>2026-04-24T08:27:33.171Z</time></trkpt><trkpt lat="36.716414" lon="10.2702259"><ele>16.0</ele><time>2026-04-24T08:27:34.166Z</time></trkpt><trkpt lat="36.7163666" lon="10.2703278"><ele>16.0</ele><time>2026-04-24T08:27:35.17Z</time></trkpt><trkpt lat="36.7163207" lon="10.2704314"><ele>16.0</ele><time>2026-04-24T08:27:36.164Z</time></trkpt><trkpt lat="36.7162694" lon="10.2705371"><ele>16.0</ele><time>2026-04-24T08:27:37.174Z</time></trkpt><trkpt lat="36.7162271" lon="10.2706419"><ele>16.0</ele><time>2026-04-24T08:27:38.185Z</time></trkpt><trkpt lat="36.7161829" lon="10.2707484"><ele>16.0</ele><time>2026-04-24T08:27:39.134Z</time></trkpt><trkpt lat="36.7161338" lon="10.2708611"><ele>16.0</ele><time>2026-04-24T08:27:40.159Z</time></trkpt><trkpt lat="36.7160876" lon="10.2709738"><ele>16.0</ele><time>2026-04-24T08:27:41.18Z</time></trkpt><trkpt lat="36.7160431" lon="10.2710809"><ele>16.0</ele><time>2026-04-24T08:27:42.17Z</time></trkpt><trkpt lat="36.7159941" lon="10.2711892"><ele>16.0</ele><time>2026-04-24T08:27:43.166Z</time></trkpt><trkpt lat="36.7159494" lon="10.2712944"><ele>16.0</ele><time>2026-04-24T08:27:44.169Z</time></trkpt><trkpt lat="36.7159087" lon="10.2713971"><ele>16.0</ele><time>2026-04-24T08:27:45.164Z</time></trkpt><trkpt lat="36.7158606" lon="10.2715057"><ele>16.0</ele><time>2026-04-24T08:27:46.166Z</time></trkpt><trkpt lat="36.715815" lon="10.2716141"><ele>16.0</ele><time>2026-04-24T08:27:47.165Z</time></trkpt><trkpt lat="36.7157712" lon="10.2717207"><ele>16.0</ele><time>2026-04-24T08:27:48.169Z</time></trkpt><trkpt lat="36.7157265" lon="10.2718293"><ele>16.0</ele><time>2026-04-24T08:27:49.165Z</time></trkpt><trkpt lat="36.7156838" lon="10.271939"><ele>16.0</ele><time>2026-04-24T08:27:50.166Z</time></trkpt><trkpt lat="36.7156426" lon="10.2720471"><ele>16.0</ele><time>2026-04-24T08:27:51.173Z</time></trkpt><trkpt lat="36.7155973" lon="10.2721565"><ele>16.0</ele><time>2026-04-24T08:27:52.183Z</time></trkpt><trkpt lat="36.7155513" lon="10.2722776"><ele>16.0</ele><time>2026-04-24T08:27:53.164Z</time></trkpt><trkpt lat="36.7155014" lon="10.2723966"><ele>16.0</ele><time>2026-04-24T08:27:54.174Z</time></trkpt><trkpt lat="36.7154612" lon="10.2725181"><ele>16.0</ele><time>2026-04-24T08:27:55.154Z</time></trkpt><trkpt lat="36.7154221" lon="10.2726258"><ele>16.0</ele><time>2026-04-24T08:27:56.168Z</time></trkpt><trkpt lat="36.7153847" lon="10.2727343"><ele>15.999999999999998</ele><time>2026-04-24T08:27:57.152Z</time></trkpt><trkpt lat="36.7153461" lon="10.2728399"><ele>16.0</ele><time>2026-04-24T08:27:58.162Z</time></trkpt><trkpt lat="36.7153109" lon="10.2729416"><ele>16.0</ele><time>2026-04-24T08:27:59.155Z</time></trkpt><trkpt lat="36.7152793" lon="10.273041"><ele>16.0</ele><time>2026-04-24T08:28:00.158Z</time></trkpt><trkpt lat="36.7152404" lon="10.2731365"><ele>15.999999999999998</ele><time>2026-04-24T08:28:01.16Z</time></trkpt><trkpt lat="36.7152115" lon="10.2732399"><ele>16.0</ele><time>2026-04-24T08:28:02.165Z</time></trkpt><trkpt lat="36.7151745" lon="10.2733458"><ele>16.2</ele><time>2026-04-24T08:28:03.132Z</time></trkpt><trkpt lat="36.7151356" lon="10.273452"><ele>16.400000000000002</ele><time>2026-04-24T08:28:04.169Z</time></trkpt><trkpt lat="36.7151001" lon="10.273561"><ele>16.6</ele><time>2026-04-24T08:28:05.167Z</time></trkpt><trkpt lat="36.7150596" lon="10.2736687"><ele>16.8</ele><time>2026-04-24T08:28:06.167Z</time></trkpt><trkpt lat="36.7150253" lon="10.2737711"><ele>17.0</ele><time>2026-04-24T08:28:07.169Z</time></trkpt><trkpt lat="36.7149956" lon="10.273874"><ele>17.142857142857142</ele><time>2026-04-24T08:28:08.147Z</time></trkpt><trkpt lat="36.7149659" lon="10.2739606"><ele>17.285714285714285</ele><time>2026-04-24T08:28:09.164Z</time></trkpt><trkpt lat="36.7149384" lon="10.2740474"><ele>17.42857142857143</ele><time>2026-04-24T08:28:10.169Z</time></trkpt><trkpt lat="36.7149087" lon="10.2741322"><ele>17.57142857142857</ele><time>2026-04-24T08:28:11.178Z</time></trkpt><trkpt lat="36.7148836" lon="10.2742161"><ele>17.714285714285715</ele><time>2026-04-24T08:28:12.177Z</time></trkpt><trkpt lat="36.7148576" lon="10.2742985"><ele>17.857142857142858</ele><time>2026-04-24T08:28:13.156Z</time></trkpt><trkpt lat="36.7148361" lon="10.2743782"><ele>18.0</ele><time>2026-04-24T08:28:14.175Z</time></trkpt><trkpt lat="36.714809" lon="10.2744554"><ele>18.000000000000004</ele><time>2026-04-24T08:28:15.15Z</time></trkpt><trkpt lat="36.7147804" lon="10.2745365"><ele>18.0</ele><time>2026-04-24T08:28:16.155Z</time></trkpt><trkpt lat="36.7147577" lon="10.2746172"><ele>18.0</ele><time>2026-04-24T08:28:17.162Z</time></trkpt><trkpt lat="36.7147333" lon="10.2746962"><ele>18.0</ele><time>2026-04-24T08:28:18.167Z</time></trkpt><trkpt lat="36.7147077" lon="10.274782"><ele>18.0</ele><time>2026-04-24T08:28:19.167Z</time></trkpt><trkpt lat="36.7146836" lon="10.2748755"><ele>18.000000000000004</ele><time>2026-04-24T08:28:20.175Z</time></trkpt><trkpt lat="36.7146583" lon="10.2749662"><ele>18.0</ele><time>2026-04-24T08:28:21.179Z</time></trkpt><trkpt lat="36.7146296" lon="10.2750561"><ele>18.0</ele><time>2026-04-24T08:28:22.174Z</time></trkpt><trkpt lat="36.7146061" lon="10.2751381"><ele>18.0</ele><time>2026-04-24T08:28:23.163Z</time></trkpt><trkpt lat="36.7145821" lon="10.2752185"><ele>18.0</ele><time>2026-04-24T08:28:24.159Z</time></trkpt><trkpt lat="36.7145431" lon="10.27536"><ele>18.0</ele><time>2026-04-24T08:28:26.167Z</time></trkpt><trkpt lat="36.7144935" lon="10.2755084"><ele>18.0</ele><time>2026-04-24T08:28:28.173Z</time></trkpt><trkpt lat="36.7144704" lon="10.2755908"><ele>18.0</ele><time>2026-04-24T08:28:29.163Z</time></trkpt><trkpt lat="36.7144461" lon="10.2756773"><ele>18.0</ele><time>2026-04-24T08:28:30.176Z</time></trkpt><trkpt lat="36.7144181" lon="10.275771"><ele>18.0</ele><time>2026-04-24T08:28:31.167Z</time></trkpt><trkpt lat="36.7143865" lon="10.2758706"><ele>18.0</ele><time>2026-04-24T08:28:32.17Z</time></trkpt><trkpt lat="36.7143548" lon="10.2759665"><ele>18.0</ele><time>2026-04-24T08:28:33.158Z</time></trkpt><trkpt lat="36.7143216" lon="10.276065"><ele>18.0</ele><time>2026-04-24T08:28:34.163Z</time></trkpt><trkpt lat="36.7142946" lon="10.2761666"><ele>18.0</ele><time>2026-04-24T08:28:35.166Z</time></trkpt><trkpt lat="36.7142666" lon="10.2762647"><ele>18.0</ele><time>2026-04-24T08:28:36.148Z</time></trkpt><trkpt lat="36.7142405" lon="10.276362"><ele>18.0</ele><time>2026-04-24T08:28:37.124Z</time></trkpt><trkpt lat="36.7142147" lon="10.2764584"><ele>18.0</ele><time>2026-04-24T08:28:38.151Z</time></trkpt><trkpt lat="36.7141894" lon="10.27655"><ele>18.0</ele><time>2026-04-24T08:28:39.155Z</time></trkpt><trkpt lat="36.7141623" lon="10.276643"><ele>18.0</ele><time>2026-04-24T08:28:40.164Z</time></trkpt><trkpt lat="36.7141365" lon="10.2767394"><ele>17.8</ele><time>2026-04-24T08:28:41.166Z</time></trkpt><trkpt lat="36.7141002" lon="10.2768455"><ele>17.6</ele><time>2026-04-24T08:28:42.176Z</time></trkpt><trkpt lat="36.7140636" lon="10.276955"><ele>17.4</ele><time>2026-04-24T08:28:43.162Z</time></trkpt><trkpt lat="36.7140254" lon="10.2770576"><ele>17.2</ele><time>2026-04-24T08:28:44.152Z</time></trkpt><trkpt lat="36.7139922" lon="10.27717"><ele>17.0</ele><time>2026-04-24T08:28:45.165Z</time></trkpt><trkpt lat="36.7139571" lon="10.2772887"><ele>17.5</ele><time>2026-04-24T08:28:46.138Z</time></trkpt><trkpt lat="36.7139173" lon="10.2774162"><ele>18.0</ele><time>2026-04-24T08:28:47.141Z</time></trkpt><trkpt lat="36.7138778" lon="10.2775522"><ele>18.5</ele><time>2026-04-24T08:28:48.163Z</time></trkpt><trkpt lat="36.713836" lon="10.2776981"><ele>19.0</ele><time>2026-04-24T08:28:49.165Z</time></trkpt><trkpt lat="36.7137952" lon="10.2778421"><ele>19.0</ele><time>2026-04-24T08:28:50.165Z</time></trkpt><trkpt lat="36.7137535" lon="10.2779866"><ele>19.0</ele><time>2026-04-24T08:28:51.121Z</time></trkpt><trkpt lat="36.7137139" lon="10.2781316"><ele>19.0</ele><time>2026-04-24T08:28:52.172Z</time></trkpt><trkpt lat="36.7136731" lon="10.2782687"><ele>19.0</ele><time>2026-04-24T08:28:53.15Z</time></trkpt><trkpt lat="36.7136312" lon="10.2784067"><ele>19.0</ele><time>2026-04-24T08:28:54.154Z</time></trkpt><trkpt lat="36.7135879" lon="10.2785508"><ele>19.0</ele><time>2026-04-24T08:28:55.161Z</time></trkpt><trkpt lat="36.7135406" lon="10.2786911"><ele>19.0</ele><time>2026-04-24T08:28:56.138Z</time></trkpt><trkpt lat="36.7134939" lon="10.2788314"><ele>19.0</ele><time>2026-04-24T08:28:57.152Z</time></trkpt><trkpt lat="36.7134489" lon="10.2789727"><ele>18.75</ele><time>2026-04-24T08:28:58.164Z</time></trkpt><trkpt lat="36.7133981" lon="10.2791204"><ele>18.5</ele><time>2026-04-24T08:28:59.157Z</time></trkpt><trkpt lat="36.7133441" lon="10.2792718"><ele>18.25</ele><time>2026-04-24T08:29:00.143Z</time></trkpt><trkpt lat="36.7132858" lon="10.2794283"><ele>18.0</ele><time>2026-04-24T08:29:01.136Z</time></trkpt><trkpt lat="36.7132276" lon="10.2795878"><ele>18.0</ele><time>2026-04-24T08:29:02.159Z</time></trkpt><trkpt lat="36.713172" lon="10.2797447"><ele>18.0</ele><time>2026-04-24T08:29:03.155Z</time></trkpt><trkpt lat="36.7131115" lon="10.2799049"><ele>18.0</ele><time>2026-04-24T08:29:04.163Z</time></trkpt><trkpt lat="36.713049" lon="10.2800701"><ele>18.0</ele><time>2026-04-24T08:29:05.158Z</time></trkpt><trkpt lat="36.7129826" lon="10.2802421"><ele>17.666666666666668</ele><time>2026-04-24T08:29:06.171Z</time></trkpt><trkpt lat="36.7129107" lon="10.2804105"><ele>17.333333333333336</ele><time>2026-04-24T08:29:07.147Z</time></trkpt><trkpt lat="36.7128341" lon="10.2805854"><ele>17.0</ele><time>2026-04-24T08:29:08.117Z</time></trkpt><trkpt lat="36.7127595" lon="10.2807645"><ele>17.333333333333336</ele><time>2026-04-24T08:29:09.159Z</time></trkpt><trkpt lat="36.7126819" lon="10.2809428"><ele>17.666666666666668</ele><time>2026-04-24T08:29:10.165Z</time></trkpt><trkpt lat="36.7126015" lon="10.281123"><ele>18.0</ele><time>2026-04-24T08:29:11.165Z</time></trkpt><trkpt lat="36.7125192" lon="10.2813098"><ele>18.0</ele><time>2026-04-24T08:29:12.163Z</time></trkpt><trkpt lat="36.7124362" lon="10.2814904"><ele>18.0</ele><time>2026-04-24T08:29:13.129Z</time></trkpt><trkpt lat="36.7123527" lon="10.2816787"><ele>18.0</ele><time>2026-04-24T08:29:14.156Z</time></trkpt><trkpt lat="36.7122667" lon="10.2818531"><ele>18.0</ele><time>2026-04-24T08:29:15.199Z</time></trkpt><trkpt lat="36.712174" lon="10.2820313"><ele>18.0</ele><time>2026-04-24T08:29:16.158Z</time></trkpt><trkpt lat="36.7120839" lon="10.2822074"><ele>18.0</ele><time>2026-04-24T08:29:17.143Z</time></trkpt><trkpt lat="36.7119917" lon="10.2823798"><ele>18.333333333333332</ele><time>2026-04-24T08:29:18.154Z</time></trkpt><trkpt lat="36.7119013" lon="10.2825574"><ele>18.666666666666664</ele><time>2026-04-24T08:29:19.171Z</time></trkpt><trkpt lat="36.7118105" lon="10.2827306"><ele>19.0</ele><time>2026-04-24T08:29:20.131Z</time></trkpt><trkpt lat="36.7117126" lon="10.2829068"><ele>19.0</ele><time>2026-04-24T08:29:21.164Z</time></trkpt><trkpt lat="36.7116205" lon="10.2830852"><ele>19.0</ele><time>2026-04-24T08:29:22.162Z</time></trkpt><trkpt lat="36.7115208" lon="10.2832603"><ele>19.0</ele><time>2026-04-24T08:29:23.138Z</time></trkpt><trkpt lat="36.7114206" lon="10.283435"><ele>18.666666666666664</ele><time>2026-04-24T08:29:24.182Z</time></trkpt><trkpt lat="36.7113158" lon="10.2836089"><ele>18.333333333333332</ele><time>2026-04-24T08:29:25.167Z</time></trkpt><trkpt lat="36.7112118" lon="10.2837847"><ele>18.0</ele><time>2026-04-24T08:29:26.168Z</time></trkpt><trkpt lat="36.711108" lon="10.2839713"><ele>18.333333333333332</ele><time>2026-04-24T08:29:27.162Z</time></trkpt><trkpt lat="36.7109935" lon="10.2841624"><ele>18.666666666666664</ele><time>2026-04-24T08:29:28.173Z</time></trkpt><trkpt lat="36.7108735" lon="10.2843584"><ele>19.0</ele><time>2026-04-24T08:29:29.17Z</time></trkpt><trkpt lat="36.7107534" lon="10.2845603"><ele>19.0</ele><time>2026-04-24T08:29:30.173Z</time></trkpt><trkpt lat="36.7106336" lon="10.284758"><ele>19.0</ele><time>2026-04-24T08:29:31.152Z</time></trkpt><trkpt lat="36.7105057" lon="10.2849501"><ele>19.0</ele><time>2026-04-24T08:29:32.163Z</time></trkpt><trkpt lat="36.7103662" lon="10.2851535"><ele>18.5</ele><time>2026-04-24T08:29:33.177Z</time></trkpt><trkpt lat="36.7102121" lon="10.2853826"><ele>18.0</ele><time>2026-04-24T08:29:34.166Z</time></trkpt><trkpt lat="36.7100474" lon="10.2856197"><ele>19.0</ele><time>2026-04-24T08:29:35.156Z</time></trkpt><trkpt lat="36.7098703" lon="10.2858594"><ele>20.0</ele><time>2026-04-24T08:29:36.174Z</time></trkpt><trkpt lat="36.7096944" lon="10.286093"><ele>20.0</ele><time>2026-04-24T08:29:37.147Z</time></trkpt><trkpt lat="36.7095279" lon="10.2863066"><ele>20.0</ele><time>2026-04-24T08:29:38.168Z</time></trkpt><trkpt lat="36.7093657" lon="10.2865006"><ele>20.0</ele><time>2026-04-24T08:29:39.161Z</time></trkpt><trkpt lat="36.7092019" lon="10.2866977"><ele>20.0</ele><time>2026-04-24T08:29:40.166Z</time></trkpt><trkpt lat="36.7090331" lon="10.2868925"><ele>20.0</ele><time>2026-04-24T08:29:41.161Z</time></trkpt><trkpt lat="36.7088662" lon="10.2870896"><ele>20.0</ele><time>2026-04-24T08:29:42.119Z</time></trkpt><trkpt lat="36.7086963" lon="10.2872828"><ele>20.0</ele><time>2026-04-24T08:29:43.156Z</time></trkpt><trkpt lat="36.7085302" lon="10.2874709"><ele>20.0</ele><time>2026-04-24T08:29:44.156Z</time></trkpt><trkpt lat="36.7083596" lon="10.2876615"><ele>20.0</ele><time>2026-04-24T08:29:45.155Z</time></trkpt><trkpt lat="36.7081887" lon="10.2878472"><ele>20.0</ele><time>2026-04-24T08:29:46.16Z</time></trkpt><trkpt lat="36.7080174" lon="10.2880326"><ele>20.0</ele><time>2026-04-24T08:29:47.166Z</time></trkpt><trkpt lat="36.7078458" lon="10.2882173"><ele>20.0</ele><time>2026-04-24T08:29:48.156Z</time></trkpt><trkpt lat="36.7076775" lon="10.2883958"><ele>20.0</ele><time>2026-04-24T08:29:49.16Z</time></trkpt><trkpt lat="36.7075098" lon="10.2885749"><ele>20.333333333333336</ele><time>2026-04-24T08:29:50.172Z</time></trkpt><trkpt lat="36.7073453" lon="10.2887533"><ele>20.666666666666668</ele><time>2026-04-24T08:29:51.149Z</time></trkpt><trkpt lat="36.7071878" lon="10.2889371"><ele>21.0</ele><time>2026-04-24T08:29:52.136Z</time></trkpt><trkpt lat="36.7070262" lon="10.2891225"><ele>21.666666666666668</ele><time>2026-04-24T08:29:53.148Z</time></trkpt><trkpt lat="36.7068689" lon="10.2893082"><ele>22.333333333333336</ele><time>2026-04-24T08:29:54.161Z</time></trkpt><trkpt lat="36.7067167" lon="10.2894964"><ele>23.0</ele><time>2026-04-24T08:29:55.158Z</time></trkpt><trkpt lat="36.7065638" lon="10.2896856"><ele>22.666666666666668</ele><time>2026-04-24T08:29:56.171Z</time></trkpt><trkpt lat="36.7064145" lon="10.2898767"><ele>22.333333333333332</ele><time>2026-04-24T08:29:57.144Z</time></trkpt><trkpt lat="36.7062678" lon="10.2900669"><ele>22.0</ele><time>2026-04-24T08:29:58.152Z</time></trkpt><trkpt lat="36.7061245" lon="10.2902588"><ele>22.0</ele><time>2026-04-24T08:29:59.152Z</time></trkpt><trkpt lat="36.7059815" lon="10.2904528"><ele>22.0</ele><time>2026-04-24T08:30:00.123Z</time></trkpt><trkpt lat="36.7058451" lon="10.2906494"><ele>22.0</ele><time>2026-04-24T08:30:01.157Z</time></trkpt><trkpt lat="36.705706" lon="10.2908426"><ele>22.333333333333332</ele><time>2026-04-24T08:30:02.156Z</time></trkpt><trkpt lat="36.7055698" lon="10.291042"><ele>22.666666666666668</ele><time>2026-04-24T08:30:03.166Z</time></trkpt><trkpt lat="36.7054396" lon="10.2912398"><ele>23.0</ele><time>2026-04-24T08:30:04.168Z</time></trkpt><trkpt lat="36.7053074" lon="10.2914388"><ele>23.666666666666668</ele><time>2026-04-24T08:30:05.159Z</time></trkpt><trkpt lat="36.7051742" lon="10.2916383"><ele>24.333333333333336</ele><time>2026-04-24T08:30:06.172Z</time></trkpt><trkpt lat="36.705045" lon="10.2918438"><ele>25.0</ele><time>2026-04-24T08:30:07.154Z</time></trkpt><trkpt lat="36.7049178" lon="10.2920474"><ele>25.333333333333336</ele><time>2026-04-24T08:30:08.165Z</time></trkpt><trkpt lat="36.70479" lon="10.2922571"><ele>25.666666666666664</ele><time>2026-04-24T08:30:09.159Z</time></trkpt><trkpt lat="36.7046694" lon="10.2924584"><ele>26.0</ele><time>2026-04-24T08:30:10.157Z</time></trkpt><trkpt lat="36.7045448" lon="10.2926677"><ele>26.0</ele><time>2026-04-24T08:30:11.155Z</time></trkpt><trkpt lat="36.7044209" lon="10.2928816"><ele>26.0</ele><time>2026-04-24T08:30:12.161Z</time></trkpt><trkpt lat="36.7042905" lon="10.2930981"><ele>26.0</ele><time>2026-04-24T08:30:13.149Z</time></trkpt><trkpt lat="36.7041617" lon="10.2933117"><ele>26.0</ele><time>2026-04-24T08:30:14.146Z</time></trkpt><trkpt lat="36.7040315" lon="10.2935253"><ele>26.0</ele><time>2026-04-24T08:30:15.156Z</time></trkpt><trkpt lat="36.7039035" lon="10.2937414"><ele>26.0</ele><time>2026-04-24T08:30:16.162Z</time></trkpt><trkpt lat="36.7037699" lon="10.2939672"><ele>26.333333333333332</ele><time>2026-04-24T08:30:17.145Z</time></trkpt><trkpt lat="36.7036377" lon="10.2941883"><ele>26.666666666666664</ele><time>2026-04-24T08:30:18.146Z</time></trkpt><trkpt lat="36.7035076" lon="10.2944129"><ele>27.0</ele><time>2026-04-24T08:30:19.131Z</time></trkpt><trkpt lat="36.7033737" lon="10.2946339"><ele>27.333333333333336</ele><time>2026-04-24T08:30:20.167Z</time></trkpt><trkpt lat="36.7032434" lon="10.2948534"><ele>27.666666666666668</ele><time>2026-04-24T08:30:21.161Z</time></trkpt><trkpt lat="36.703118" lon="10.2950747"><ele>28.0</ele><time>2026-04-24T08:30:22.168Z</time></trkpt><trkpt lat="36.7029885" lon="10.295304"><ele>28.0</ele><time>2026-04-24T08:30:23.141Z</time></trkpt><trkpt lat="36.7028609" lon="10.2955285"><ele>28.0</ele><time>2026-04-24T08:30:24.139Z</time></trkpt><trkpt lat="36.7027308" lon="10.2957491"><ele>28.0</ele><time>2026-04-24T08:30:25.113Z</time></trkpt><trkpt lat="36.7025988" lon="10.2959729"><ele>28.333333333333336</ele><time>2026-04-24T08:30:26.179Z</time></trkpt><trkpt lat="36.7024634" lon="10.2961932"><ele>28.666666666666664</ele><time>2026-04-24T08:30:27.171Z</time></trkpt><trkpt lat="36.7023276" lon="10.2964129"><ele>29.0</ele><time>2026-04-24T08:30:28.162Z</time></trkpt><trkpt lat="36.7021896" lon="10.2966277"><ele>29.333333333333332</ele><time>2026-04-24T08:30:29.142Z</time></trkpt><trkpt lat="36.7020593" lon="10.2968406"><ele>29.666666666666664</ele><time>2026-04-24T08:30:30.154Z</time></trkpt><trkpt lat="36.7019214" lon="10.2970529"><ele>30.0</ele><time>2026-04-24T08:30:31.165Z</time></trkpt><trkpt lat="36.7017833" lon="10.297267"><ele>30.333333333333336</ele><time>2026-04-24T08:30:32.131Z</time></trkpt><trkpt lat="36.7016488" lon="10.2974727"><ele>30.666666666666668</ele><time>2026-04-24T08:30:33.158Z</time></trkpt><trkpt lat="36.70151" lon="10.2976806"><ele>31.0</ele><time>2026-04-24T08:30:34.162Z</time></trkpt><trkpt lat="36.7013628" lon="10.2978925"><ele>31.666666666666668</ele><time>2026-04-24T08:30:35.152Z</time></trkpt><trkpt lat="36.7012242" lon="10.2981053"><ele>32.333333333333336</ele><time>2026-04-24T08:30:36.175Z</time></trkpt><trkpt lat="36.7010756" lon="10.2983057"><ele>33.0</ele><time>2026-04-24T08:30:37.189Z</time></trkpt><trkpt lat="36.7009317" lon="10.2985043"><ele>33.0</ele><time>2026-04-24T08:30:38.159Z</time></trkpt><trkpt lat="36.7007862" lon="10.2987019"><ele>33.0</ele><time>2026-04-24T08:30:39.168Z</time></trkpt><trkpt lat="36.7006417" lon="10.2988997"><ele>33.0</ele><time>2026-04-24T08:30:40.168Z</time></trkpt><trkpt lat="36.7004852" lon="10.2991011"><ele>33.5</ele><time>2026-04-24T08:30:41.14Z</time></trkpt><trkpt lat="36.700323" lon="10.2993119"><ele>34.0</ele><time>2026-04-24T08:30:42.155Z</time></trkpt><trkpt lat="36.7001686" lon="10.2995102"><ele>34.0</ele><time>2026-04-24T08:30:43.174Z</time></trkpt><trkpt lat="36.7000185" lon="10.2997108"><ele>34.0</ele><time>2026-04-24T08:30:44.15Z</time></trkpt><trkpt lat="36.6998638" lon="10.2999067"><ele>34.0</ele><time>2026-04-24T08:30:45.174Z</time></trkpt><trkpt lat="36.6997114" lon="10.300097"><ele>35.0</ele><time>2026-04-24T08:30:46.156Z</time></trkpt><trkpt lat="36.6995585" lon="10.3002887"><ele>36.0</ele><time>2026-04-24T08:30:47.154Z</time></trkpt><trkpt lat="36.69941" lon="10.3004808"><ele>37.0</ele><time>2026-04-24T08:30:48.17Z</time></trkpt><trkpt lat="36.6992571" lon="10.3006704"><ele>37.66666666666667</ele><time>2026-04-24T08:30:49.176Z</time></trkpt><trkpt lat="36.6991027" lon="10.300861"><ele>38.333333333333336</ele><time>2026-04-24T08:30:50.147Z</time></trkpt><trkpt lat="36.6989456" lon="10.3010508"><ele>39.0</ele><time>2026-04-24T08:30:51.164Z</time></trkpt><trkpt lat="36.6987895" lon="10.3012414"><ele>39.333333333333336</ele><time>2026-04-24T08:30:52.17Z</time></trkpt><trkpt lat="36.6986327" lon="10.3014322"><ele>39.66666666666667</ele><time>2026-04-24T08:30:53.155Z</time></trkpt><trkpt lat="36.698471" lon="10.3016282"><ele>40.0</ele><time>2026-04-24T08:30:54.163Z</time></trkpt><trkpt lat="36.6983078" lon="10.3018155"><ele>40.5</ele><time>2026-04-24T08:30:55.163Z</time></trkpt><trkpt lat="36.6981414" lon="10.3020026"><ele>41.0</ele><time>2026-04-24T08:30:56.166Z</time></trkpt><trkpt lat="36.6979747" lon="10.3021927"><ele>41.5</ele><time>2026-04-24T08:30:57.167Z</time></trkpt><trkpt lat="36.6978058" lon="10.3023808"><ele>42.0</ele><time>2026-04-24T08:30:58.172Z</time></trkpt><trkpt lat="36.6976378" lon="10.3025683"><ele>42.0</ele><time>2026-04-24T08:30:59.162Z</time></trkpt><trkpt lat="36.6974676" lon="10.302754"><ele>42.0</ele><time>2026-04-24T08:31:00.134Z</time></trkpt><trkpt lat="36.6972938" lon="10.3029463"><ele>44.0</ele><time>2026-04-24T08:31:01.158Z</time></trkpt><trkpt lat="36.6971132" lon="10.3031464"><ele>46.0</ele><time>2026-04-24T08:31:02.158Z</time></trkpt><trkpt lat="36.6969337" lon="10.3033468"><ele>45.0</ele><time>2026-04-24T08:31:03.164Z</time></trkpt><trkpt lat="36.696754" lon="10.3035478"><ele>44.0</ele><time>2026-04-24T08:31:04.14Z</time></trkpt><trkpt lat="36.6965676" lon="10.3037443"><ele>45.5</ele><time>2026-04-24T08:31:05.166Z</time></trkpt><trkpt lat="36.6963795" lon="10.3039485"><ele>47.0</ele><time>2026-04-24T08:31:06.165Z</time></trkpt><trkpt lat="36.6961898" lon="10.3041542"><ele>47.0</ele><time>2026-04-24T08:31:07.17Z</time></trkpt><trkpt lat="36.6960018" lon="10.3043518"><ele>47.0</ele><time>2026-04-24T08:31:08.166Z</time></trkpt><trkpt lat="36.6958187" lon="10.3045462"><ele>47.0</ele><time>2026-04-24T08:31:09.137Z</time></trkpt><trkpt lat="36.6956395" lon="10.3047343"><ele>47.0</ele><time>2026-04-24T08:31:10.176Z</time></trkpt><trkpt lat="36.6954681" lon="10.3049194"><ele>47.666666666666664</ele><time>2026-04-24T08:31:11.17Z</time></trkpt><trkpt lat="36.6953019" lon="10.3050972"><ele>48.33333333333333</ele><time>2026-04-24T08:31:12.171Z</time></trkpt><trkpt lat="36.6951352" lon="10.305273"><ele>49.0</ele><time>2026-04-24T08:31:13.169Z</time></trkpt><trkpt lat="36.6949678" lon="10.3054535"><ele>49.666666666666664</ele><time>2026-04-24T08:31:14.165Z</time></trkpt><trkpt lat="36.6948077" lon="10.3056391"><ele>50.33333333333333</ele><time>2026-04-24T08:31:15.15Z</time></trkpt><trkpt lat="36.6946472" lon="10.3058349"><ele>51.0</ele><time>2026-04-24T08:31:16.163Z</time></trkpt><trkpt lat="36.6944829" lon="10.3060291"><ele>50.33333333333333</ele><time>2026-04-24T08:31:17.166Z</time></trkpt><trkpt lat="36.6943206" lon="10.3062223"><ele>49.666666666666664</ele><time>2026-04-24T08:31:18.144Z</time></trkpt><trkpt lat="36.6941643" lon="10.3064088"><ele>49.0</ele><time>2026-04-24T08:31:19.163Z</time></trkpt><trkpt lat="36.6940186" lon="10.3065879"><ele>50.33333333333333</ele><time>2026-04-24T08:31:20.17Z</time></trkpt><trkpt lat="36.6938792" lon="10.3067595"><ele>51.66666666666667</ele><time>2026-04-24T08:31:21.175Z</time></trkpt><trkpt lat="36.6937368" lon="10.306935"><ele>53.0</ele><time>2026-04-24T08:31:22.136Z</time></trkpt><trkpt lat="36.6935958" lon="10.3071132"><ele>53.333333333333336</ele><time>2026-04-24T08:31:23.18Z</time></trkpt><trkpt lat="36.6934537" lon="10.307291"><ele>53.66666666666667</ele><time>2026-04-24T08:31:24.165Z</time></trkpt><trkpt lat="36.6932987" lon="10.3074851"><ele>54.0</ele><time>2026-04-24T08:31:25.121Z</time></trkpt><trkpt lat="36.6931375" lon="10.3076992"><ele>54.0</ele><time>2026-04-24T08:31:26.131Z</time></trkpt><trkpt lat="36.692979" lon="10.3079085"><ele>54.0</ele><time>2026-04-24T08:31:27.136Z</time></trkpt><trkpt lat="36.6928305" lon="10.308109"><ele>54.66666666666667</ele><time>2026-04-24T08:31:28.161Z</time></trkpt><trkpt lat="36.6926908" lon="10.3082961"><ele>55.333333333333336</ele><time>2026-04-24T08:31:29.171Z</time></trkpt><trkpt lat="36.6925536" lon="10.3084851"><ele>56.0</ele><time>2026-04-24T08:31:30.174Z</time></trkpt><trkpt lat="36.6924189" lon="10.3086749"><ele>56.0</ele><time>2026-04-24T08:31:31.135Z</time></trkpt><trkpt lat="36.6922872" lon="10.308866"><ele>56.0</ele><time>2026-04-24T08:31:32.179Z</time></trkpt><trkpt lat="36.692152" lon="10.3090555"><ele>56.0</ele><time>2026-04-24T08:31:33.171Z</time></trkpt><trkpt lat="36.6920166" lon="10.3092395"><ele>56.333333333333336</ele><time>2026-04-24T08:31:34.167Z</time></trkpt><trkpt lat="36.6918813" lon="10.3094274"><ele>56.66666666666667</ele><time>2026-04-24T08:31:35.172Z</time></trkpt><trkpt lat="36.6917422" lon="10.3096091"><ele>57.0</ele><time>2026-04-24T08:31:36.163Z</time></trkpt><trkpt lat="36.6916045" lon="10.3097827"><ele>57.0</ele><time>2026-04-24T08:31:37.171Z</time></trkpt><trkpt lat="36.6914683" lon="10.3099643"><ele>57.0</ele><time>2026-04-24T08:31:38.161Z</time></trkpt><trkpt lat="36.6913373" lon="10.31014"><ele>57.0</ele><time>2026-04-24T08:31:39.152Z</time></trkpt><trkpt lat="36.6912084" lon="10.3103151"><ele>57.33333333333333</ele><time>2026-04-24T08:31:40.144Z</time></trkpt><trkpt lat="36.6910786" lon="10.3104876"><ele>57.666666666666664</ele><time>2026-04-24T08:31:41.147Z</time></trkpt><trkpt lat="36.6909541" lon="10.3106585"><ele>58.0</ele><time>2026-04-24T08:31:42.177Z</time></trkpt><trkpt lat="36.6908255" lon="10.31083"><ele>58.0</ele><time>2026-04-24T08:31:43.153Z</time></trkpt><trkpt lat="36.6906918" lon="10.3110123"><ele>58.0</ele><time>2026-04-24T08:31:44.118Z</time></trkpt><trkpt lat="36.6905592" lon="10.3111934"><ele>58.0</ele><time>2026-04-24T08:31:45.165Z</time></trkpt><trkpt lat="36.6904287" lon="10.3113825"><ele>59.33333333333333</ele><time>2026-04-24T08:31:46.174Z</time></trkpt><trkpt lat="36.6902952" lon="10.3115646"><ele>60.66666666666667</ele><time>2026-04-24T08:31:47.174Z</time></trkpt><trkpt lat="36.6901584" lon="10.3117465"><ele>62.0</ele><time>2026-04-24T08:31:48.152Z</time></trkpt><trkpt lat="36.6900212" lon="10.3119371"><ele>62.0</ele><time>2026-04-24T08:31:49.173Z</time></trkpt><trkpt lat="36.6898789" lon="10.3121254"><ele>62.0</ele><time>2026-04-24T08:31:50.158Z</time></trkpt><trkpt lat="36.6897375" lon="10.3123093"><ele>62.0</ele><time>2026-04-24T08:31:51.174Z</time></trkpt><trkpt lat="36.6895981" lon="10.3124885"><ele>62.66666666666667</ele><time>2026-04-24T08:31:52.157Z</time></trkpt><trkpt lat="36.689462" lon="10.3126697"><ele>63.33333333333333</ele><time>2026-04-24T08:31:53.144Z</time></trkpt><trkpt lat="36.6893283" lon="10.3128469"><ele>64.0</ele><time>2026-04-24T08:31:54.16Z</time></trkpt><trkpt lat="36.6891941" lon="10.3130274"><ele>65.0</ele><time>2026-04-24T08:31:55.167Z</time></trkpt><trkpt lat="36.6890592" lon="10.3131942"><ele>66.0</ele><time>2026-04-24T08:31:56.168Z</time></trkpt><trkpt lat="36.6889238" lon="10.3133618"><ele>67.0</ele><time>2026-04-24T08:31:57.157Z</time></trkpt><trkpt lat="36.6887914" lon="10.3135289"><ele>67.0</ele><time>2026-04-24T08:31:58.167Z</time></trkpt><trkpt lat="36.6886557" lon="10.3136931"><ele>67.0</ele><time>2026-04-24T08:31:59.15Z</time></trkpt><trkpt lat="36.6885146" lon="10.3138576"><ele>67.0</ele><time>2026-04-24T08:32:00.142Z</time></trkpt><trkpt lat="36.688371" lon="10.3140241"><ele>67.66666666666666</ele><time>2026-04-24T08:32:01.168Z</time></trkpt><trkpt lat="36.6882349" lon="10.3141904"><ele>68.33333333333333</ele><time>2026-04-24T08:32:02.153Z</time></trkpt><trkpt lat="36.6880991" lon="10.3143603"><ele>69.0</ele><time>2026-04-24T08:32:03.157Z</time></trkpt><trkpt lat="36.6879581" lon="10.314527"><ele>69.0</ele><time>2026-04-24T08:32:04.168Z</time></trkpt><trkpt lat="36.6878144" lon="10.3146958"><ele>69.0</ele><time>2026-04-24T08:32:05.135Z</time></trkpt><trkpt lat="36.6876728" lon="10.3148652"><ele>69.0</ele><time>2026-04-24T08:32:06.172Z</time></trkpt><trkpt lat="36.6875313" lon="10.3150415"><ele>69.66666666666667</ele><time>2026-04-24T08:32:07.116Z</time></trkpt><trkpt lat="36.687387" lon="10.315217"><ele>70.33333333333334</ele><time>2026-04-24T08:32:08.16Z</time></trkpt><trkpt lat="36.6872349" lon="10.3153908"><ele>71.0</ele><time>2026-04-24T08:32:09.164Z</time></trkpt><trkpt lat="36.6870824" lon="10.3155626"><ele>71.66666666666667</ele><time>2026-04-24T08:32:10.14Z</time></trkpt><trkpt lat="36.6869317" lon="10.3157329"><ele>72.33333333333333</ele><time>2026-04-24T08:32:11.164Z</time></trkpt><trkpt lat="36.6867825" lon="10.3158994"><ele>73.0</ele><time>2026-04-24T08:32:12.17Z</time></trkpt><trkpt lat="36.6866307" lon="10.3160609"><ele>73.0</ele><time>2026-04-24T08:32:13.157Z</time></trkpt><trkpt lat="36.6864769" lon="10.3162277"><ele>73.0</ele><time>2026-04-24T08:32:14.174Z</time></trkpt><trkpt lat="36.6863226" lon="10.316385"><ele>73.0</ele><time>2026-04-24T08:32:15.168Z</time></trkpt><trkpt lat="36.6861602" lon="10.3165344"><ele>73.66666666666666</ele><time>2026-04-24T08:32:16.159Z</time></trkpt><trkpt lat="36.6859984" lon="10.3166874"><ele>74.33333333333333</ele><time>2026-04-24T08:32:17.177Z</time></trkpt><trkpt lat="36.6858402" lon="10.3168479"><ele>75.0</ele><time>2026-04-24T08:32:18.162Z</time></trkpt><trkpt lat="36.6856817" lon="10.3170116"><ele>75.0</ele><time>2026-04-24T08:32:19.165Z</time></trkpt><trkpt lat="36.685521" lon="10.3171695"><ele>75.0</ele><time>2026-04-24T08:32:20.158Z</time></trkpt><trkpt lat="36.6853655" lon="10.3173258"><ele>75.0</ele><time>2026-04-24T08:32:21.169Z</time></trkpt><trkpt lat="36.68521" lon="10.3174866"><ele>76.33333333333333</ele><time>2026-04-24T08:32:22.128Z</time></trkpt><trkpt lat="36.6850549" lon="10.3176444"><ele>77.66666666666666</ele><time>2026-04-24T08:32:23.163Z</time></trkpt><trkpt lat="36.6848981" lon="10.3178053"><ele>79.0</ele><time>2026-04-24T08:32:24.143Z</time></trkpt><trkpt lat="36.6847436" lon="10.3179594"><ele>79.0</ele><time>2026-04-24T08:32:25.164Z</time></trkpt><trkpt lat="36.6845899" lon="10.3181084"><ele>79.0</ele><time>2026-04-24T08:32:26.151Z</time></trkpt><trkpt lat="36.6844388" lon="10.3182563"><ele>79.0</ele><time>2026-04-24T08:32:27.153Z</time></trkpt><trkpt lat="36.6842926" lon="10.3183994"><ele>79.0</ele><time>2026-04-24T08:32:28.168Z</time></trkpt><trkpt lat="36.6841401" lon="10.3185422"><ele>79.0</ele><time>2026-04-24T08:32:29.162Z</time></trkpt><trkpt lat="36.6839907" lon="10.3186865"><ele>79.0</ele><time>2026-04-24T08:32:30.16Z</time></trkpt><trkpt lat="36.68384" lon="10.3188295"><ele>79.66666666666666</ele><time>2026-04-24T08:32:31.142Z</time></trkpt><trkpt lat="36.6836873" lon="10.3189699"><ele>80.33333333333333</ele><time>2026-04-24T08:32:32.164Z</time></trkpt><trkpt lat="36.6835353" lon="10.3191152"><ele>81.0</ele><time>2026-04-24T08:32:33.17Z</time></trkpt><trkpt lat="36.6833844" lon="10.3192594"><ele>81.0</ele><time>2026-04-24T08:32:34.168Z</time></trkpt><trkpt lat="36.6832343" lon="10.3194017"><ele>81.0</ele><time>2026-04-24T08:32:35.126Z</time></trkpt><trkpt lat="36.6830865" lon="10.319549"><ele>81.0</ele><time>2026-04-24T08:32:36.162Z</time></trkpt><trkpt lat="36.6829382" lon="10.3196929"><ele>82.0</ele><time>2026-04-24T08:32:37.151Z</time></trkpt><trkpt lat="36.6827878" lon="10.31984"><ele>83.0</ele><time>2026-04-24T08:32:38.158Z</time></trkpt><trkpt lat="36.6826396" lon="10.3199838"><ele>84.0</ele><time>2026-04-24T08:32:39.165Z</time></trkpt><trkpt lat="36.6824917" lon="10.3201223"><ele>84.0</ele><time>2026-04-24T08:32:40.175Z</time></trkpt><trkpt lat="36.6823451" lon="10.3202578"><ele>84.0</ele><time>2026-04-24T08:32:41.165Z</time></trkpt><trkpt lat="36.6822001" lon="10.3203989"><ele>84.0</ele><time>2026-04-24T08:32:42.167Z</time></trkpt><trkpt lat="36.6820568" lon="10.3205318"><ele>84.0</ele><time>2026-04-24T08:32:43.167Z</time></trkpt><trkpt lat="36.6819187" lon="10.3206646"><ele>84.0</ele><time>2026-04-24T08:32:44.163Z</time></trkpt><trkpt lat="36.6817817" lon="10.3208008"><ele>84.0</ele><time>2026-04-24T08:32:45.16Z</time></trkpt><trkpt lat="36.6816444" lon="10.320931"><ele>84.0</ele><time>2026-04-24T08:32:46.159Z</time></trkpt><trkpt lat="36.6815102" lon="10.3210614"><ele>84.0</ele><time>2026-04-24T08:32:47.158Z</time></trkpt><trkpt lat="36.6813763" lon="10.3211936"><ele>84.0</ele><time>2026-04-24T08:32:48.164Z</time></trkpt><trkpt lat="36.6812382" lon="10.3213292"><ele>84.0</ele><time>2026-04-24T08:32:49.181Z</time></trkpt><trkpt lat="36.6811025" lon="10.3214574"><ele>84.0</ele><time>2026-04-24T08:32:50.177Z</time></trkpt><trkpt lat="36.6809626" lon="10.3215842"><ele>84.0</ele><time>2026-04-24T08:32:51.156Z</time></trkpt><trkpt lat="36.6808258" lon="10.3217178"><ele>84.0</ele><time>2026-04-24T08:32:52.168Z</time></trkpt><trkpt lat="36.6806923" lon="10.3218452"><ele>84.0</ele><time>2026-04-24T08:32:53.156Z</time></trkpt><trkpt lat="36.6805699" lon="10.3219719"><ele>84.0</ele><time>2026-04-24T08:32:54.174Z</time></trkpt><trkpt lat="36.6804509" lon="10.3220864"><ele>84.0</ele><time>2026-04-24T08:32:55.15Z</time></trkpt><trkpt lat="36.6803385" lon="10.3222001"><ele>84.0</ele><time>2026-04-24T08:32:56.167Z</time></trkpt><trkpt lat="36.6802328" lon="10.3223003"><ele>84.0</ele><time>2026-04-24T08:32:57.161Z</time></trkpt><trkpt lat="36.6801261" lon="10.3224031"><ele>84.0</ele><time>2026-04-24T08:32:58.134Z</time></trkpt><trkpt lat="36.6800222" lon="10.3225037"><ele>84.5</ele><time>2026-04-24T08:32:59.142Z</time></trkpt><trkpt lat="36.6799111" lon="10.3226009"><ele>85.0</ele><time>2026-04-24T08:33:00.14Z</time></trkpt><trkpt lat="36.6798027" lon="10.3227038"><ele>85.5</ele><time>2026-04-24T08:33:01.158Z</time></trkpt><trkpt lat="36.6796974" lon="10.3228082"><ele>86.0</ele><time>2026-04-24T08:33:02.174Z</time></trkpt><trkpt lat="36.6795887" lon="10.3229069"><ele>86.0</ele><time>2026-04-24T08:33:03.151Z</time></trkpt><trkpt lat="36.6794773" lon="10.3230123"><ele>86.0</ele><time>2026-04-24T08:33:04.17Z</time></trkpt><trkpt lat="36.6793664" lon="10.3231097"><ele>86.0</ele><time>2026-04-24T08:33:05.17Z</time></trkpt><trkpt lat="36.6792567" lon="10.3232"><ele>86.0</ele><time>2026-04-24T08:33:06.175Z</time></trkpt><trkpt lat="36.6791612" lon="10.3232806"><ele>85.5</ele><time>2026-04-24T08:33:07.193Z</time></trkpt><trkpt lat="36.6790757" lon="10.3233527"><ele>85.0</ele><time>2026-04-24T08:33:08.168Z</time></trkpt><trkpt lat="36.6790036" lon="10.323418"><ele>84.5</ele><time>2026-04-24T08:33:09.169Z</time></trkpt><trkpt lat="36.6789347" lon="10.3234774"><ele>84.0</ele><time>2026-04-24T08:33:10.157Z</time></trkpt><trkpt lat="36.6788745" lon="10.3235301"><ele>83.5</ele><time>2026-04-24T08:33:11.163Z</time></trkpt><trkpt lat="36.6788088" lon="10.3235813"><ele>83.0</ele><time>2026-04-24T08:33:12.175Z</time></trkpt><trkpt lat="36.6787441" lon="10.3236337"><ele>83.0</ele><time>2026-04-24T08:33:13.191Z</time></trkpt><trkpt lat="36.6786853" lon="10.3236814"><ele>83.0</ele><time>2026-04-24T08:33:14.168Z</time></trkpt><trkpt lat="36.6786237" lon="10.3237282"><ele>83.0</ele><time>2026-04-24T08:33:15.153Z</time></trkpt><trkpt lat="36.6785612" lon="10.3237823"><ele>83.0</ele><time>2026-04-24T08:33:16.158Z</time></trkpt><trkpt lat="36.6785016" lon="10.3238436"><ele>83.0</ele><time>2026-04-24T08:33:17.182Z</time></trkpt><trkpt lat="36.678441" lon="10.3239041"><ele>83.0</ele><time>2026-04-24T08:33:18.176Z</time></trkpt><trkpt lat="36.6783839" lon="10.3239603"><ele>83.0</ele><time>2026-04-24T08:33:19.171Z</time></trkpt><trkpt lat="36.6783322" lon="10.3240077"><ele>83.0</ele><time>2026-04-24T08:33:20.145Z</time></trkpt><trkpt lat="36.6782563" lon="10.3240884"><ele>83.0</ele><time>2026-04-24T08:33:22.159Z</time></trkpt><trkpt lat="36.678209" lon="10.3241484"><ele>83.0</ele><time>2026-04-24T08:33:24.168Z</time></trkpt><trkpt lat="36.6781483" lon="10.3242149"><ele>83.0</ele><time>2026-04-24T08:33:27.138Z</time></trkpt><trkpt lat="36.6781046" lon="10.324276"><ele>83.0</ele><time>2026-04-24T08:33:30.147Z</time></trkpt><trkpt lat="36.678055" lon="10.324325"><ele>83.0</ele><time>2026-04-24T08:33:34.148Z</time></trkpt><trkpt lat="36.6779961" lon="10.3243827"><ele>83.0</ele><time>2026-04-24T08:33:41.154Z</time></trkpt><trkpt lat="36.6779411" lon="10.3244362"><ele>83.0</ele><time>2026-04-24T08:34:16.155Z</time></trkpt><trkpt lat="36.6778953" lon="10.324492"><ele>83.0</ele><time>2026-04-24T08:34:24.138Z</time></trkpt><trkpt lat="36.6778529" lon="10.3245584"><ele>83.0</ele><time>2026-04-24T08:34:54.148Z</time></trkpt><trkpt lat="36.6778023" lon="10.32461"><ele>83.0</ele><time>2026-04-24T08:34:58.147Z</time></trkpt><trkpt lat="36.6777537" lon="10.3246614"><ele>83.0</ele><time>2026-04-24T08:35:15.132Z</time></trkpt><trkpt lat="36.6776962" lon="10.3247077"><ele>83.0</ele><time>2026-04-24T08:35:27.153Z</time></trkpt><trkpt lat="36.6776483" lon="10.3247776"><ele>83.14285714285714</ele><time>2026-04-24T08:35:52.141Z</time></trkpt><trkpt lat="36.6775997" lon="10.3248344"><ele>83.28571428571429</ele><time>2026-04-24T08:36:08.143Z</time></trkpt><trkpt lat="36.6775357" lon="10.3248885"><ele>83.42857142857143</ele><time>2026-04-24T08:36:57.117Z</time></trkpt><trkpt lat="36.6774838" lon="10.3249385"><ele>83.57142857142857</ele><time>2026-04-24T08:37:02.132Z</time></trkpt><trkpt lat="36.6774252" lon="10.3250074"><ele>83.71428571428572</ele><time>2026-04-24T08:37:28.153Z</time></trkpt><trkpt lat="36.6773808" lon="10.3250637"><ele>83.85714285714286</ele><time>2026-04-24T08:37:32.148Z</time></trkpt><trkpt lat="36.6773322" lon="10.3251446"><ele>84.0</ele><time>2026-04-24T08:39:17.114Z</time></trkpt><trkpt lat="36.6772787" lon="10.3251988"><ele>84.0</ele><time>2026-04-24T08:39:19.145Z</time></trkpt><trkpt lat="36.6771837" lon="10.3252849"><ele>84.0</ele><time>2026-04-24T08:39:21.139Z</time></trkpt><trkpt lat="36.6771364" lon="10.325341"><ele>84.0</ele><time>2026-04-24T08:39:22.141Z</time></trkpt><trkpt lat="36.6770866" lon="10.3253942"><ele>84.0</ele><time>2026-04-24T08:39:23.154Z</time></trkpt><trkpt lat="36.6770334" lon="10.3254524"><ele>84.0</ele><time>2026-04-24T08:39:24.141Z</time></trkpt><trkpt lat="36.6769771" lon="10.325513"><ele>84.0</ele><time>2026-04-24T08:39:25.152Z</time></trkpt><trkpt lat="36.6769048" lon="10.3255855"><ele>84.6</ele><time>2026-04-24T08:39:26.153Z</time></trkpt><trkpt lat="36.6768303" lon="10.3256599"><ele>85.2</ele><time>2026-04-24T08:39:27.129Z</time></trkpt><trkpt lat="36.67675" lon="10.3257394"><ele>85.8</ele><time>2026-04-24T08:39:28.147Z</time></trkpt><trkpt lat="36.6766727" lon="10.3258132"><ele>86.39999999999999</ele><time>2026-04-24T08:39:29.147Z</time></trkpt><trkpt lat="36.6765943" lon="10.3258927"><ele>87.0</ele><time>2026-04-24T08:39:30.158Z</time></trkpt><trkpt lat="36.6765223" lon="10.3259621"><ele>87.0</ele><time>2026-04-24T08:39:31.154Z</time></trkpt><trkpt lat="36.6764623" lon="10.3260282"><ele>87.0</ele><time>2026-04-24T08:39:32.16Z</time></trkpt><trkpt lat="36.6764111" lon="10.3260858"><ele>87.0</ele><time>2026-04-24T08:39:33.153Z</time></trkpt><trkpt lat="36.6763618" lon="10.3261366"><ele>87.0</ele><time>2026-04-24T08:39:34.171Z</time></trkpt><trkpt lat="36.6762704" lon="10.3262097"><ele>87.0</ele><time>2026-04-24T08:39:36.16Z</time></trkpt><trkpt lat="36.6761781" lon="10.3262575"><ele>87.0</ele><time>2026-04-24T08:39:38.154Z</time></trkpt><trkpt lat="36.6761094" lon="10.3262872"><ele>87.0</ele><time>2026-04-24T08:39:41.152Z</time></trkpt><trkpt lat="36.6760626" lon="10.3264187"><ele>87.0</ele><time>2026-04-24T08:40:13.137Z</time></trkpt><trkpt lat="36.6760282" lon="10.3264975"><ele>87.0</ele><time>2026-04-24T08:40:14.15Z</time></trkpt><trkpt lat="36.675987" lon="10.3265782"><ele>87.0</ele><time>2026-04-24T08:40:15.146Z</time></trkpt><trkpt lat="36.675937" lon="10.3266742"><ele>87.0</ele><time>2026-04-24T08:40:16.145Z</time></trkpt><trkpt lat="36.6758787" lon="10.326782"><ele>87.0</ele><time>2026-04-24T08:40:17.132Z</time></trkpt><trkpt lat="36.6758231" lon="10.3268807"><ele>87.0</ele><time>2026-04-24T08:40:18.14Z</time></trkpt><trkpt lat="36.6757742" lon="10.32697"><ele>87.0</ele><time>2026-04-24T08:40:19.161Z</time></trkpt><trkpt lat="36.6757164" lon="10.3270745"><ele>87.0</ele><time>2026-04-24T08:40:20.144Z</time></trkpt><trkpt lat="36.6756428" lon="10.3271975"><ele>87.0</ele><time>2026-04-24T08:40:21.139Z</time></trkpt><trkpt lat="36.6755593" lon="10.3273294"><ele>87.0</ele><time>2026-04-24T08:40:22.14Z</time></trkpt><trkpt lat="36.6754524" lon="10.3274862"><ele>87.0</ele><time>2026-04-24T08:40:23.153Z</time></trkpt><trkpt lat="36.6753274" lon="10.3276725"><ele>87.0</ele><time>2026-04-24T08:40:24.152Z</time></trkpt><trkpt lat="36.6751885" lon="10.3278756"><ele>88.33333333333333</ele><time>2026-04-24T08:40:25.155Z</time></trkpt><trkpt lat="36.6750424" lon="10.3280781"><ele>89.66666666666666</ele><time>2026-04-24T08:40:26.13Z</time></trkpt><trkpt lat="36.6748966" lon="10.3282831"><ele>91.0</ele><time>2026-04-24T08:40:27.206Z</time></trkpt><trkpt lat="36.674759" lon="10.3284701"><ele>91.0</ele><time>2026-04-24T08:40:28.139Z</time></trkpt><trkpt lat="36.6746214" lon="10.328647"><ele>91.0</ele><time>2026-04-24T08:40:29.144Z</time></trkpt><trkpt lat="36.6744816" lon="10.3288211"><ele>91.0</ele><time>2026-04-24T08:40:30.133Z</time></trkpt><trkpt lat="36.6743439" lon="10.3290065"><ele>90.66666666666666</ele><time>2026-04-24T08:40:31.138Z</time></trkpt><trkpt lat="36.6742089" lon="10.3291933"><ele>90.33333333333333</ele><time>2026-04-24T08:40:32.129Z</time></trkpt><trkpt lat="36.674072" lon="10.3293769"><ele>90.0</ele><time>2026-04-24T08:40:33.137Z</time></trkpt><trkpt lat="36.6739363" lon="10.329553"><ele>90.0</ele><time>2026-04-24T08:40:34.144Z</time></trkpt><trkpt lat="36.6738047" lon="10.3297235"><ele>90.0</ele><time>2026-04-24T08:40:35.149Z</time></trkpt><trkpt lat="36.6736704" lon="10.3298885"><ele>90.0</ele><time>2026-04-24T08:40:36.141Z</time></trkpt><trkpt lat="36.6735361" lon="10.3300538"><ele>90.66666666666667</ele><time>2026-04-24T08:40:37.147Z</time></trkpt><trkpt lat="36.6734013" lon="10.3302271"><ele>91.33333333333334</ele><time>2026-04-24T08:40:38.142Z</time></trkpt><trkpt lat="36.6732599" lon="10.3304136"><ele>92.0</ele><time>2026-04-24T08:40:39.143Z</time></trkpt><trkpt lat="36.6731201" lon="10.3306053"><ele>92.0</ele><time>2026-04-24T08:40:40.154Z</time></trkpt><trkpt lat="36.6729742" lon="10.330806"><ele>92.0</ele><time>2026-04-24T08:40:41.171Z</time></trkpt><trkpt lat="36.6728294" lon="10.3310054"><ele>92.0</ele><time>2026-04-24T08:40:42.141Z</time></trkpt><trkpt lat="36.6726849" lon="10.3311994"><ele>92.0</ele><time>2026-04-24T08:40:43.157Z</time></trkpt><trkpt lat="36.6725468" lon="10.3313882"><ele>92.0</ele><time>2026-04-24T08:40:44.149Z</time></trkpt><trkpt lat="36.6724123" lon="10.3315653"><ele>92.0</ele><time>2026-04-24T08:40:45.156Z</time></trkpt><trkpt lat="36.6722787" lon="10.331745"><ele>92.66666666666667</ele><time>2026-04-24T08:40:46.116Z</time></trkpt><trkpt lat="36.6721484" lon="10.3319286"><ele>93.33333333333333</ele><time>2026-04-24T08:40:47.111Z</time></trkpt><trkpt lat="36.6720152" lon="10.33211"><ele>94.0</ele><time>2026-04-24T08:40:48.146Z</time></trkpt><trkpt lat="36.6718862" lon="10.3322849"><ele>94.0</ele><time>2026-04-24T08:40:49.134Z</time></trkpt><trkpt lat="36.6717549" lon="10.3324572"><ele>94.0</ele><time>2026-04-24T08:40:50.131Z</time></trkpt><trkpt lat="36.671624" lon="10.3326384"><ele>94.0</ele><time>2026-04-24T08:40:51.126Z</time></trkpt><trkpt lat="36.6714942" lon="10.3328229"><ele>94.0</ele><time>2026-04-24T08:40:52.153Z</time></trkpt><trkpt lat="36.6713651" lon="10.3330058"><ele>94.0</ele><time>2026-04-24T08:40:53.127Z</time></trkpt><trkpt lat="36.6712288" lon="10.3331864"><ele>94.0</ele><time>2026-04-24T08:40:54.148Z</time></trkpt><trkpt lat="36.6710941" lon="10.3333666"><ele>94.66666666666666</ele><time>2026-04-24T08:40:55.142Z</time></trkpt><trkpt lat="36.6709605" lon="10.3335525"><ele>95.33333333333333</ele><time>2026-04-24T08:40:56.155Z</time></trkpt><trkpt lat="36.6708227" lon="10.3337463"><ele>96.0</ele><time>2026-04-24T08:40:57.148Z</time></trkpt><trkpt lat="36.6706803" lon="10.3339406"><ele>96.33333333333334</ele><time>2026-04-24T08:40:58.144Z</time></trkpt><trkpt lat="36.6705376" lon="10.3341418"><ele>96.66666666666667</ele><time>2026-04-24T08:40:59.148Z</time></trkpt><trkpt lat="36.6703963" lon="10.3343473"><ele>97.0</ele><time>2026-04-24T08:41:00.136Z</time></trkpt><trkpt lat="36.6702509" lon="10.334549"><ele>97.66666666666667</ele><time>2026-04-24T08:41:01.143Z</time></trkpt><trkpt lat="36.6701083" lon="10.334751"><ele>98.33333333333334</ele><time>2026-04-24T08:41:02.174Z</time></trkpt><trkpt lat="36.6699653" lon="10.334955"><ele>99.0</ele><time>2026-04-24T08:41:03.142Z</time></trkpt><trkpt lat="36.6698253" lon="10.3351525"><ele>99.0</ele><time>2026-04-24T08:41:04.164Z</time></trkpt><trkpt lat="36.6696818" lon="10.3353459"><ele>99.0</ele><time>2026-04-24T08:41:05.146Z</time></trkpt><trkpt lat="36.6695389" lon="10.3355461"><ele>99.0</ele><time>2026-04-24T08:41:06.146Z</time></trkpt><trkpt lat="36.6693887" lon="10.3357451"><ele>99.33333333333334</ele><time>2026-04-24T08:41:07.153Z</time></trkpt><trkpt lat="36.6692448" lon="10.3359359"><ele>99.66666666666667</ele><time>2026-04-24T08:41:08.11Z</time></trkpt><trkpt lat="36.6691015" lon="10.3361307"><ele>100.0</ele><time>2026-04-24T08:41:09.162Z</time></trkpt><trkpt lat="36.6689608" lon="10.33632"><ele>101.33333333333334</ele><time>2026-04-24T08:41:10.148Z</time></trkpt><trkpt lat="36.6688259" lon="10.3365088"><ele>102.66666666666666</ele><time>2026-04-24T08:41:11.136Z</time></trkpt><trkpt lat="36.6686881" lon="10.3366927"><ele>104.0</ele><time>2026-04-24T08:41:12.144Z</time></trkpt><trkpt lat="36.6685476" lon="10.3368771"><ele>104.0</ele><time>2026-04-24T08:41:13.145Z</time></trkpt><trkpt lat="36.6684108" lon="10.3370589"><ele>104.0</ele><time>2026-04-24T08:41:14.154Z</time></trkpt><trkpt lat="36.6682761" lon="10.3372387"><ele>104.0</ele><time>2026-04-24T08:41:15.15Z</time></trkpt><trkpt lat="36.668138" lon="10.3374179"><ele>105.0</ele><time>2026-04-24T08:41:16.144Z</time></trkpt><trkpt lat="36.6679989" lon="10.3375964"><ele>106.0</ele><time>2026-04-24T08:41:17.15Z</time></trkpt><trkpt lat="36.667859" lon="10.3377737"><ele>107.0</ele><time>2026-04-24T08:41:18.135Z</time></trkpt><trkpt lat="36.6677153" lon="10.3379643"><ele>108.33333333333333</ele><time>2026-04-24T08:41:19.149Z</time></trkpt><trkpt lat="36.6675672" lon="10.3381457"><ele>109.66666666666666</ele><time>2026-04-24T08:41:20.141Z</time></trkpt><trkpt lat="36.6674171" lon="10.3383335"><ele>111.0</ele><time>2026-04-24T08:41:21.137Z</time></trkpt><trkpt lat="36.6672654" lon="10.3385085"><ele>111.0</ele><time>2026-04-24T08:41:22.134Z</time></trkpt><trkpt lat="36.6671177" lon="10.3386894"><ele>111.0</ele><time>2026-04-24T08:41:23.172Z</time></trkpt><trkpt lat="36.6669659" lon="10.3388656"><ele>111.0</ele><time>2026-04-24T08:41:24.151Z</time></trkpt><trkpt lat="36.6668138" lon="10.3390396"><ele>113.0</ele><time>2026-04-24T08:41:25.156Z</time></trkpt><trkpt lat="36.6666625" lon="10.339214"><ele>115.0</ele><time>2026-04-24T08:41:26.161Z</time></trkpt><trkpt lat="36.6665035" lon="10.3393946"><ele>117.0</ele><time>2026-04-24T08:41:27.155Z</time></trkpt><trkpt lat="36.6663451" lon="10.3395765"><ele>117.66666666666666</ele><time>2026-04-24T08:41:28.147Z</time></trkpt><trkpt lat="36.6661797" lon="10.3397526"><ele>118.33333333333333</ele><time>2026-04-24T08:41:29.142Z</time></trkpt><trkpt lat="36.6660098" lon="10.3399327"><ele>119.0</ele><time>2026-04-24T08:41:30.143Z</time></trkpt><trkpt lat="36.6658394" lon="10.3401101"><ele>119.0</ele><time>2026-04-24T08:41:31.215Z</time></trkpt><trkpt lat="36.6656644" lon="10.3402905"><ele>119.0</ele><time>2026-04-24T08:41:32.201Z</time></trkpt><trkpt lat="36.6654933" lon="10.3404685"><ele>119.5</ele><time>2026-04-24T08:41:33.191Z</time></trkpt><trkpt lat="36.6653179" lon="10.3406454"><ele>120.0</ele><time>2026-04-24T08:41:34.161Z</time></trkpt><trkpt lat="36.6651395" lon="10.340824"><ele>121.0</ele><time>2026-04-24T08:41:35.158Z</time></trkpt><trkpt lat="36.6649618" lon="10.3409972"><ele>122.0</ele><time>2026-04-24T08:41:36.149Z</time></trkpt><trkpt lat="36.6647779" lon="10.3411765"><ele>122.0</ele><time>2026-04-24T08:41:37.151Z</time></trkpt><trkpt lat="36.6645981" lon="10.3413519"><ele>122.0</ele><time>2026-04-24T08:41:38.172Z</time></trkpt><trkpt lat="36.6644148" lon="10.3415241"><ele>122.0</ele><time>2026-04-24T08:41:39.203Z</time></trkpt><trkpt lat="36.6642297" lon="10.3416904"><ele>122.0</ele><time>2026-04-24T08:41:40.185Z</time></trkpt><trkpt lat="36.6640473" lon="10.3418651"><ele>122.0</ele><time>2026-04-24T08:41:41.189Z</time></trkpt><trkpt lat="36.6638687" lon="10.3420295"><ele>122.0</ele><time>2026-04-24T08:41:42.193Z</time></trkpt><trkpt lat="36.663684" lon="10.342194"><ele>122.0</ele><time>2026-04-24T08:41:43.186Z</time></trkpt><trkpt lat="36.663499" lon="10.3423603"><ele>123.0</ele><time>2026-04-24T08:41:44.175Z</time></trkpt><trkpt lat="36.6633157" lon="10.342522"><ele>124.0</ele><time>2026-04-24T08:41:45.191Z</time></trkpt><trkpt lat="36.6631317" lon="10.3426824"><ele>125.0</ele><time>2026-04-24T08:41:46.173Z</time></trkpt><trkpt lat="36.6629485" lon="10.3428393"><ele>125.5</ele><time>2026-04-24T08:41:47.196Z</time></trkpt><trkpt lat="36.6627616" lon="10.3430031"><ele>126.0</ele><time>2026-04-24T08:41:48.198Z</time></trkpt><trkpt lat="36.6625739" lon="10.3431656"><ele>126.0</ele><time>2026-04-24T08:41:49.196Z</time></trkpt><trkpt lat="36.6623854" lon="10.3433331"><ele>126.0</ele><time>2026-04-24T08:41:50.18Z</time></trkpt><trkpt lat="36.6622009" lon="10.3434897"><ele>126.0</ele><time>2026-04-24T08:41:51.191Z</time></trkpt><trkpt lat="36.6620143" lon="10.343642"><ele>126.0</ele><time>2026-04-24T08:41:52.194Z</time></trkpt><trkpt lat="36.6618239" lon="10.3437994"><ele>125.0</ele><time>2026-04-24T08:41:53.203Z</time></trkpt><trkpt lat="36.6616401" lon="10.3439552"><ele>124.0</ele><time>2026-04-24T08:41:54.204Z</time></trkpt><trkpt lat="36.6614494" lon="10.3441104"><ele>124.0</ele><time>2026-04-24T08:41:55.211Z</time></trkpt><trkpt lat="36.6612647" lon="10.3442626"><ele>124.0</ele><time>2026-04-24T08:41:56.204Z</time></trkpt><trkpt lat="36.6610806" lon="10.3444138"><ele>124.0</ele><time>2026-04-24T08:41:57.197Z</time></trkpt><trkpt lat="36.6609002" lon="10.3445677"><ele>124.0</ele><time>2026-04-24T08:41:58.205Z</time></trkpt><trkpt lat="36.6607201" lon="10.3447191"><ele>124.0</ele><time>2026-04-24T08:41:59.199Z</time></trkpt><trkpt lat="36.6605388" lon="10.3448711"><ele>124.0</ele><time>2026-04-24T08:42:00.176Z</time></trkpt><trkpt lat="36.6603571" lon="10.3450209"><ele>123.33333333333334</ele><time>2026-04-24T08:42:01.216Z</time></trkpt><trkpt lat="36.660177" lon="10.345167"><ele>122.66666666666666</ele><time>2026-04-24T08:42:02.231Z</time></trkpt><trkpt lat="36.6599944" lon="10.3453101"><ele>122.0</ele><time>2026-04-24T08:42:03.201Z</time></trkpt><trkpt lat="36.6598169" lon="10.3454523"><ele>122.66666666666666</ele><time>2026-04-24T08:42:04.207Z</time></trkpt><trkpt lat="36.6596339" lon="10.3456003"><ele>123.33333333333334</ele><time>2026-04-24T08:42:05.186Z</time></trkpt><trkpt lat="36.659451" lon="10.3457465"><ele>124.0</ele><time>2026-04-24T08:42:06.199Z</time></trkpt><trkpt lat="36.6592718" lon="10.3458977"><ele>124.0</ele><time>2026-04-24T08:42:07.199Z</time></trkpt><trkpt lat="36.6590927" lon="10.3460418"><ele>124.0</ele><time>2026-04-24T08:42:08.22Z</time></trkpt><trkpt lat="36.6589133" lon="10.3461886"><ele>124.0</ele><time>2026-04-24T08:42:09.202Z</time></trkpt><trkpt lat="36.6587333" lon="10.3463344"><ele>124.33333333333334</ele><time>2026-04-24T08:42:10.204Z</time></trkpt><trkpt lat="36.6585536" lon="10.3464805"><ele>124.66666666666666</ele><time>2026-04-24T08:42:11.217Z</time></trkpt><trkpt lat="36.6583683" lon="10.3466293"><ele>125.0</ele><time>2026-04-24T08:42:12.197Z</time></trkpt><trkpt lat="36.6581889" lon="10.346779"><ele>125.0</ele><time>2026-04-24T08:42:13.21Z</time></trkpt><trkpt lat="36.6580072" lon="10.3469325"><ele>125.0</ele><time>2026-04-24T08:42:14.214Z</time></trkpt><trkpt lat="36.6578177" lon="10.3470815"><ele>125.0</ele><time>2026-04-24T08:42:15.213Z</time></trkpt><trkpt lat="36.6576281" lon="10.3472372"><ele>126.5</ele><time>2026-04-24T08:42:16.19Z</time></trkpt><trkpt lat="36.6574345" lon="10.3473906"><ele>128.0</ele><time>2026-04-24T08:42:17.186Z</time></trkpt><trkpt lat="36.657244" lon="10.3475526"><ele>128.0</ele><time>2026-04-24T08:42:18.192Z</time></trkpt><trkpt lat="36.6570491" lon="10.347718"><ele>128.0</ele><time>2026-04-24T08:42:19.216Z</time></trkpt><trkpt lat="36.6568573" lon="10.3478752"><ele>128.0</ele><time>2026-04-24T08:42:20.212Z</time></trkpt><trkpt lat="36.6566651" lon="10.3480326"><ele>128.0</ele><time>2026-04-24T08:42:21.211Z</time></trkpt><trkpt lat="36.6564735" lon="10.3481879"><ele>128.0</ele><time>2026-04-24T08:42:22.194Z</time></trkpt><trkpt lat="36.6562784" lon="10.3483447"><ele>128.0</ele><time>2026-04-24T08:42:23.2Z</time></trkpt><trkpt lat="36.6560853" lon="10.3484978"><ele>127.0</ele><time>2026-04-24T08:42:24.182Z</time></trkpt><trkpt lat="36.655891" lon="10.3486556"><ele>126.0</ele><time>2026-04-24T08:42:25.201Z</time></trkpt><trkpt lat="36.6557014" lon="10.3488145"><ele>128.5</ele><time>2026-04-24T08:42:26.184Z</time></trkpt><trkpt lat="36.6555064" lon="10.348969"><ele>131.0</ele><time>2026-04-24T08:42:27.178Z</time></trkpt><trkpt lat="36.6553129" lon="10.349127"><ele>130.0</ele><time>2026-04-24T08:42:28.206Z</time></trkpt><trkpt lat="36.6551191" lon="10.3492849"><ele>129.0</ele><time>2026-04-24T08:42:29.183Z</time></trkpt><trkpt lat="36.6549252" lon="10.349445"><ele>129.0</ele><time>2026-04-24T08:42:30.187Z</time></trkpt><trkpt lat="36.6547309" lon="10.3496005"><ele>129.0</ele><time>2026-04-24T08:42:31.21Z</time></trkpt><trkpt lat="36.6545375" lon="10.3497592"><ele>130.0</ele><time>2026-04-24T08:42:32.209Z</time></trkpt><trkpt lat="36.6543472" lon="10.3499201"><ele>131.0</ele><time>2026-04-24T08:42:33.201Z</time></trkpt><trkpt lat="36.6541555" lon="10.3500757"><ele>131.0</ele><time>2026-04-24T08:42:34.208Z</time></trkpt><trkpt lat="36.6539665" lon="10.3502344"><ele>131.0</ele><time>2026-04-24T08:42:35.217Z</time></trkpt><trkpt lat="36.653777" lon="10.3503867"><ele>131.5</ele><time>2026-04-24T08:42:36.18Z</time></trkpt><trkpt lat="36.6535907" lon="10.3505433"><ele>132.0</ele><time>2026-04-24T08:42:37.209Z</time></trkpt><trkpt lat="36.6534051" lon="10.3507016"><ele>132.0</ele><time>2026-04-24T08:42:38.21Z</time></trkpt><trkpt lat="36.6532209" lon="10.350866"><ele>132.0</ele><time>2026-04-24T08:42:39.205Z</time></trkpt><trkpt lat="36.6530385" lon="10.351034"><ele>132.0</ele><time>2026-04-24T08:42:40.185Z</time></trkpt><trkpt lat="36.6528584" lon="10.3512024"><ele>132.0</ele><time>2026-04-24T08:42:41.23Z</time></trkpt><trkpt lat="36.6526794" lon="10.3513732"><ele>132.5</ele><time>2026-04-24T08:42:42.219Z</time></trkpt><trkpt lat="36.6524995" lon="10.3515469"><ele>133.0</ele><time>2026-04-24T08:42:43.196Z</time></trkpt><trkpt lat="36.6523171" lon="10.3517207"><ele>133.0</ele><time>2026-04-24T08:42:44.215Z</time></trkpt><trkpt lat="36.6521396" lon="10.3518967"><ele>133.0</ele><time>2026-04-24T08:42:45.203Z</time></trkpt><trkpt lat="36.6519621" lon="10.3520737"><ele>133.0</ele><time>2026-04-24T08:42:46.185Z</time></trkpt><trkpt lat="36.6517798" lon="10.3522548"><ele>133.0</ele><time>2026-04-24T08:42:47.199Z</time></trkpt><trkpt lat="36.6516" lon="10.3524329"><ele>133.0</ele><time>2026-04-24T08:42:48.191Z</time></trkpt><trkpt lat="36.6514294" lon="10.3526158"><ele>133.0</ele><time>2026-04-24T08:42:49.211Z</time></trkpt><trkpt lat="36.6512603" lon="10.3528087"><ele>132.33333333333334</ele><time>2026-04-24T08:42:50.21Z</time></trkpt><trkpt lat="36.6510962" lon="10.3530011"><ele>131.66666666666666</ele><time>2026-04-24T08:42:51.216Z</time></trkpt><trkpt lat="36.6509397" lon="10.3531975"><ele>131.0</ele><time>2026-04-24T08:42:52.202Z</time></trkpt><trkpt lat="36.6507877" lon="10.3534019"><ele>131.0</ele><time>2026-04-24T08:42:53.214Z</time></trkpt><trkpt lat="36.650636" lon="10.3536104"><ele>131.0</ele><time>2026-04-24T08:42:54.211Z</time></trkpt><trkpt lat="36.650489" lon="10.3538119"><ele>131.0</ele><time>2026-04-24T08:42:55.199Z</time></trkpt><trkpt lat="36.6503435" lon="10.3540202"><ele>131.66666666666666</ele><time>2026-04-24T08:42:56.18Z</time></trkpt><trkpt lat="36.6501981" lon="10.3542284"><ele>132.33333333333334</ele><time>2026-04-24T08:42:57.189Z</time></trkpt><trkpt lat="36.6500641" lon="10.3544399"><ele>133.0</ele><time>2026-04-24T08:42:58.209Z</time></trkpt><trkpt lat="36.6499281" lon="10.3546574"><ele>134.66666666666669</ele><time>2026-04-24T08:42:59.214Z</time></trkpt><trkpt lat="36.6497971" lon="10.3548801"><ele>136.33333333333334</ele><time>2026-04-24T08:43:00.187Z</time></trkpt><trkpt lat="36.6496725" lon="10.3551049"><ele>138.0</ele><time>2026-04-24T08:43:01.198Z</time></trkpt><trkpt lat="36.649549" lon="10.3553255"><ele>136.66666666666666</ele><time>2026-04-24T08:43:02.213Z</time></trkpt><trkpt lat="36.6494261" lon="10.3555518"><ele>135.33333333333331</ele><time>2026-04-24T08:43:03.222Z</time></trkpt><trkpt lat="36.6493068" lon="10.3557791"><ele>134.0</ele><time>2026-04-24T08:43:04.212Z</time></trkpt><trkpt lat="36.6491871" lon="10.356007"><ele>134.0</ele><time>2026-04-24T08:43:05.206Z</time></trkpt><trkpt lat="36.6490664" lon="10.3562377"><ele>134.0</ele><time>2026-04-24T08:43:06.206Z</time></trkpt><trkpt lat="36.6489482" lon="10.3564728"><ele>134.0</ele><time>2026-04-24T08:43:07.213Z</time></trkpt><trkpt lat="36.6488345" lon="10.3567045"><ele>134.0</ele><time>2026-04-24T08:43:08.21Z</time></trkpt><trkpt lat="36.6487214" lon="10.3569361"><ele>134.0</ele><time>2026-04-24T08:43:09.17Z</time></trkpt><trkpt lat="36.6486137" lon="10.3571759"><ele>134.0</ele><time>2026-04-24T08:43:10.202Z</time></trkpt><trkpt lat="36.6485083" lon="10.3574152"><ele>134.0</ele><time>2026-04-24T08:43:11.18Z</time></trkpt><trkpt lat="36.6484072" lon="10.3576561"><ele>134.0</ele><time>2026-04-24T08:43:12.224Z</time></trkpt><trkpt lat="36.6483026" lon="10.3578974"><ele>134.0</ele><time>2026-04-24T08:43:13.211Z</time></trkpt><trkpt lat="36.6481962" lon="10.3581373"><ele>135.0</ele><time>2026-04-24T08:43:14.206Z</time></trkpt><trkpt lat="36.6480899" lon="10.358377"><ele>136.0</ele><time>2026-04-24T08:43:15.206Z</time></trkpt><trkpt lat="36.647982" lon="10.3586105"><ele>137.0</ele><time>2026-04-24T08:43:16.201Z</time></trkpt><trkpt lat="36.6478801" lon="10.3588433"><ele>135.66666666666666</ele><time>2026-04-24T08:43:17.198Z</time></trkpt><trkpt lat="36.6477756" lon="10.3590784"><ele>134.33333333333334</ele><time>2026-04-24T08:43:18.191Z</time></trkpt><trkpt lat="36.6476701" lon="10.3593128"><ele>133.0</ele><time>2026-04-24T08:43:19.205Z</time></trkpt><trkpt lat="36.6475688" lon="10.359545"><ele>133.66666666666669</ele><time>2026-04-24T08:43:20.198Z</time></trkpt><trkpt lat="36.6474599" lon="10.3597769"><ele>134.33333333333334</ele><time>2026-04-24T08:43:21.216Z</time></trkpt><trkpt lat="36.6473612" lon="10.360008"><ele>135.0</ele><time>2026-04-24T08:43:22.22Z</time></trkpt><trkpt lat="36.6472605" lon="10.3602394"><ele>135.0</ele><time>2026-04-24T08:43:23.211Z</time></trkpt><trkpt lat="36.6471594" lon="10.360472"><ele>135.0</ele><time>2026-04-24T08:43:24.202Z</time></trkpt><trkpt lat="36.6470598" lon="10.3607039"><ele>135.0</ele><time>2026-04-24T08:43:25.218Z</time></trkpt><trkpt lat="36.6469634" lon="10.3609298"><ele>136.0</ele><time>2026-04-24T08:43:26.204Z</time></trkpt><trkpt lat="36.6468715" lon="10.3611619"><ele>137.0</ele><time>2026-04-24T08:43:27.207Z</time></trkpt><trkpt lat="36.6467828" lon="10.3613936"><ele>138.0</ele><time>2026-04-24T08:43:28.203Z</time></trkpt><trkpt lat="36.6466906" lon="10.3616339"><ele>138.0</ele><time>2026-04-24T08:43:29.206Z</time></trkpt><trkpt lat="36.6466077" lon="10.3618809"><ele>138.0</ele><time>2026-04-24T08:43:30.196Z</time></trkpt><trkpt lat="36.6465316" lon="10.3621248"><ele>138.0</ele><time>2026-04-24T08:43:31.2Z</time></trkpt><trkpt lat="36.6464569" lon="10.3623755"><ele>138.33333333333334</ele><time>2026-04-24T08:43:32.219Z</time></trkpt><trkpt lat="36.6463876" lon="10.3626315"><ele>138.66666666666669</ele><time>2026-04-24T08:43:33.192Z</time></trkpt><trkpt lat="36.6463227" lon="10.3628862"><ele>139.0</ele><time>2026-04-24T08:43:34.202Z</time></trkpt><trkpt lat="36.646264" lon="10.3631403"><ele>139.0</ele><time>2026-04-24T08:43:35.212Z</time></trkpt><trkpt lat="36.6462031" lon="10.3633982"><ele>139.0</ele><time>2026-04-24T08:43:36.211Z</time></trkpt><trkpt lat="36.6461459" lon="10.3636539"><ele>139.0</ele><time>2026-04-24T08:43:37.198Z</time></trkpt><trkpt lat="36.6460954" lon="10.3639172"><ele>139.33333333333334</ele><time>2026-04-24T08:43:38.21Z</time></trkpt><trkpt lat="36.6460514" lon="10.3641715"><ele>139.66666666666666</ele><time>2026-04-24T08:43:39.18Z</time></trkpt><trkpt lat="36.6460061" lon="10.3644263"><ele>140.0</ele><time>2026-04-24T08:43:40.18Z</time></trkpt><trkpt lat="36.645956" lon="10.3646811"><ele>141.33333333333331</ele><time>2026-04-24T08:43:41.184Z</time></trkpt><trkpt lat="36.6459068" lon="10.3649373"><ele>142.66666666666666</ele><time>2026-04-24T08:43:42.198Z</time></trkpt><trkpt lat="36.6458839" lon="10.3651873"><ele>144.0</ele><time>2026-04-24T08:43:43.193Z</time></trkpt><trkpt lat="36.645848" lon="10.3654397"><ele>145.33333333333334</ele><time>2026-04-24T08:43:44.21Z</time></trkpt><trkpt lat="36.6458144" lon="10.3656919"><ele>146.66666666666669</ele><time>2026-04-24T08:43:45.184Z</time></trkpt><trkpt lat="36.6457857" lon="10.3659467"><ele>148.0</ele><time>2026-04-24T08:43:46.193Z</time></trkpt><trkpt lat="36.6457559" lon="10.3661978"><ele>149.33333333333334</ele><time>2026-04-24T08:43:47.202Z</time></trkpt><trkpt lat="36.6457174" lon="10.3664479"><ele>150.66666666666666</ele><time>2026-04-24T08:43:48.198Z</time></trkpt><trkpt lat="36.6456777" lon="10.366701"><ele>152.0</ele><time>2026-04-24T08:43:49.218Z</time></trkpt><trkpt lat="36.6456353" lon="10.366957"><ele>153.33333333333331</ele><time>2026-04-24T08:43:50.208Z</time></trkpt><trkpt lat="36.6456027" lon="10.3672092"><ele>154.66666666666666</ele><time>2026-04-24T08:43:51.159Z</time></trkpt><trkpt lat="36.6455664" lon="10.367464"><ele>156.0</ele><time>2026-04-24T08:43:52.199Z</time></trkpt><trkpt lat="36.6455308" lon="10.3677101"><ele>156.0</ele><time>2026-04-24T08:43:53.212Z</time></trkpt><trkpt lat="36.6454917" lon="10.3679572"><ele>156.0</ele><time>2026-04-24T08:43:54.217Z</time></trkpt><trkpt lat="36.6454479" lon="10.3682041"><ele>156.0</ele><time>2026-04-24T08:43:55.193Z</time></trkpt><trkpt lat="36.6453934" lon="10.3684481"><ele>157.0</ele><time>2026-04-24T08:43:56.208Z</time></trkpt><trkpt lat="36.6453391" lon="10.3686876"><ele>158.0</ele><time>2026-04-24T08:43:57.191Z</time></trkpt><trkpt lat="36.6452829" lon="10.3689265"><ele>159.0</ele><time>2026-04-24T08:43:58.192Z</time></trkpt><trkpt lat="36.6452237" lon="10.3691657"><ele>160.66666666666666</ele><time>2026-04-24T08:43:59.169Z</time></trkpt><trkpt lat="36.645158" lon="10.3694035"><ele>162.33333333333331</ele><time>2026-04-24T08:44:00.203Z</time></trkpt><trkpt lat="36.6450886" lon="10.3696418"><ele>164.0</ele><time>2026-04-24T08:44:01.181Z</time></trkpt><trkpt lat="36.6450174" lon="10.3698731"><ele>166.0</ele><time>2026-04-24T08:44:02.2Z</time></trkpt><trkpt lat="36.6449394" lon="10.3701047"><ele>168.0</ele><time>2026-04-24T08:44:03.199Z</time></trkpt><trkpt lat="36.6448606" lon="10.37033"><ele>170.0</ele><time>2026-04-24T08:44:04.198Z</time></trkpt><trkpt lat="36.6447755" lon="10.3705566"><ele>171.33333333333331</ele><time>2026-04-24T08:44:05.194Z</time></trkpt><trkpt lat="36.6446908" lon="10.3707783"><ele>172.66666666666666</ele><time>2026-04-24T08:44:06.224Z</time></trkpt><trkpt lat="36.644596" lon="10.3709995"><ele>174.0</ele><time>2026-04-24T08:44:07.218Z</time></trkpt><trkpt lat="36.644503" lon="10.371215"><ele>175.0</ele><time>2026-04-24T08:44:08.216Z</time></trkpt><trkpt lat="36.6444009" lon="10.3714294"><ele>176.0</ele><time>2026-04-24T08:44:09.187Z</time></trkpt><trkpt lat="36.6443002" lon="10.3716366"><ele>177.0</ele><time>2026-04-24T08:44:10.199Z</time></trkpt><trkpt lat="36.6441907" lon="10.3718418"><ele>177.0</ele><time>2026-04-24T08:44:11.204Z</time></trkpt><trkpt lat="36.6440845" lon="10.3720437"><ele>177.0</ele><time>2026-04-24T08:44:12.186Z</time></trkpt><trkpt lat="36.6439675" lon="10.3722415"><ele>177.0</ele><time>2026-04-24T08:44:13.203Z</time></trkpt><trkpt lat="36.643854" lon="10.3724383"><ele>178.66666666666666</ele><time>2026-04-24T08:44:14.189Z</time></trkpt><trkpt lat="36.6437294" lon="10.372632"><ele>180.33333333333331</ele><time>2026-04-24T08:44:15.197Z</time></trkpt><trkpt lat="36.6436079" lon="10.3728244"><ele>182.0</ele><time>2026-04-24T08:44:16.19Z</time></trkpt><trkpt lat="36.6434742" lon="10.3730145"><ele>184.0</ele><time>2026-04-24T08:44:17.208Z</time></trkpt><trkpt lat="36.6433437" lon="10.3732007"><ele>186.0</ele><time>2026-04-24T08:44:18.212Z</time></trkpt><trkpt lat="36.6432038" lon="10.373388"><ele>188.0</ele><time>2026-04-24T08:44:19.161Z</time></trkpt><trkpt lat="36.6430648" lon="10.3735699"><ele>188.0</ele><time>2026-04-24T08:44:20.168Z</time></trkpt><trkpt lat="36.6429173" lon="10.3737481"><ele>188.0</ele><time>2026-04-24T08:44:21.181Z</time></trkpt><trkpt lat="36.6427694" lon="10.3739228"><ele>188.0</ele><time>2026-04-24T08:44:22.205Z</time></trkpt><trkpt lat="36.6426136" lon="10.3740884"><ele>190.0</ele><time>2026-04-24T08:44:23.178Z</time></trkpt><trkpt lat="36.6424573" lon="10.3742565"><ele>192.0</ele><time>2026-04-24T08:44:24.234Z</time></trkpt><trkpt lat="36.642291" lon="10.3744222"><ele>194.0</ele><time>2026-04-24T08:44:25.226Z</time></trkpt><trkpt lat="36.6421251" lon="10.3745882"><ele>194.66666666666669</ele><time>2026-04-24T08:44:26.228Z</time></trkpt><trkpt lat="36.6419546" lon="10.3747478"><ele>195.33333333333331</ele><time>2026-04-24T08:44:27.219Z</time></trkpt><trkpt lat="36.6417836" lon="10.3749019"><ele>196.0</ele><time>2026-04-24T08:44:28.238Z</time></trkpt><trkpt lat="36.6416056" lon="10.3750524"><ele>196.0</ele><time>2026-04-24T08:44:29.214Z</time></trkpt><trkpt lat="36.641432" lon="10.3752006"><ele>196.0</ele><time>2026-04-24T08:44:30.236Z</time></trkpt><trkpt lat="36.6412555" lon="10.3753443"><ele>196.0</ele><time>2026-04-24T08:44:31.241Z</time></trkpt><trkpt lat="36.6410835" lon="10.3754865"><ele>196.33333333333331</ele><time>2026-04-24T08:44:32.248Z</time></trkpt><trkpt lat="36.6409111" lon="10.3756237"><ele>196.66666666666669</ele><time>2026-04-24T08:44:33.244Z</time></trkpt><trkpt lat="36.6407403" lon="10.3757619"><ele>197.0</ele><time>2026-04-24T08:44:34.228Z</time></trkpt><trkpt lat="36.6405646" lon="10.3759078"><ele>197.0</ele><time>2026-04-24T08:44:35.203Z</time></trkpt><trkpt lat="36.6403991" lon="10.3760516"><ele>197.0</ele><time>2026-04-24T08:44:36.235Z</time></trkpt><trkpt lat="36.6402271" lon="10.3762052"><ele>197.0</ele><time>2026-04-24T08:44:37.234Z</time></trkpt><trkpt lat="36.6400591" lon="10.3763605"><ele>197.0</ele><time>2026-04-24T08:44:38.238Z</time></trkpt><trkpt lat="36.6398963" lon="10.3765182"><ele>197.0</ele><time>2026-04-24T08:44:39.18Z</time></trkpt><trkpt lat="36.6397324" lon="10.3766818"><ele>197.0</ele><time>2026-04-24T08:44:40.221Z</time></trkpt><trkpt lat="36.6395659" lon="10.3768471"><ele>197.0</ele><time>2026-04-24T08:44:41.237Z</time></trkpt><trkpt lat="36.6394019" lon="10.3770161"><ele>197.0</ele><time>2026-04-24T08:44:42.23Z</time></trkpt><trkpt lat="36.6392456" lon="10.3771957"><ele>197.0</ele><time>2026-04-24T08:44:43.219Z</time></trkpt><trkpt lat="36.6390919" lon="10.3773819"><ele>197.0</ele><time>2026-04-24T08:44:44.198Z</time></trkpt><trkpt lat="36.6389382" lon="10.3775764"><ele>197.0</ele><time>2026-04-24T08:44:45.168Z</time></trkpt><trkpt lat="36.638782" lon="10.3777795"><ele>197.0</ele><time>2026-04-24T08:44:46.189Z</time></trkpt><trkpt lat="36.6386283" lon="10.3779888"><ele>196.0</ele><time>2026-04-24T08:44:47.241Z</time></trkpt><trkpt lat="36.6384771" lon="10.3782085"><ele>195.0</ele><time>2026-04-24T08:44:48.249Z</time></trkpt><trkpt lat="36.6383304" lon="10.3784386"><ele>195.0</ele><time>2026-04-24T08:44:49.188Z</time></trkpt><trkpt lat="36.6381849" lon="10.3786761"><ele>195.0</ele><time>2026-04-24T08:44:50.239Z</time></trkpt><trkpt lat="36.6380466" lon="10.3789157"><ele>194.0</ele><time>2026-04-24T08:44:51.2Z</time></trkpt><trkpt lat="36.6379086" lon="10.3791648"><ele>193.0</ele><time>2026-04-24T08:44:52.226Z</time></trkpt><trkpt lat="36.6377753" lon="10.3794189"><ele>193.0</ele><time>2026-04-24T08:44:53.198Z</time></trkpt><trkpt lat="36.6376391" lon="10.3796773"><ele>193.0</ele><time>2026-04-24T08:44:54.223Z</time></trkpt><trkpt lat="36.6375034" lon="10.3799398"><ele>190.5</ele><time>2026-04-24T08:44:55.232Z</time></trkpt><trkpt lat="36.6373687" lon="10.3801998"><ele>188.0</ele><time>2026-04-24T08:44:56.228Z</time></trkpt><trkpt lat="36.6372311" lon="10.3804703"><ele>186.0</ele><time>2026-04-24T08:44:57.233Z</time></trkpt><trkpt lat="36.6370967" lon="10.3807325"><ele>184.0</ele><time>2026-04-24T08:44:58.229Z</time></trkpt><trkpt lat="36.6369569" lon="10.3810046"><ele>184.0</ele><time>2026-04-24T08:44:59.192Z</time></trkpt><trkpt lat="36.6368205" lon="10.38127"><ele>184.0</ele><time>2026-04-24T08:45:00.231Z</time></trkpt><trkpt lat="36.6366811" lon="10.3815445"><ele>182.5</ele><time>2026-04-24T08:45:01.24Z</time></trkpt><trkpt lat="36.6365449" lon="10.3818119"><ele>181.0</ele><time>2026-04-24T08:45:02.221Z</time></trkpt><trkpt lat="36.6364089" lon="10.3820782"><ele>179.5</ele><time>2026-04-24T08:45:03.208Z</time></trkpt><trkpt lat="36.6362692" lon="10.3823433"><ele>178.0</ele><time>2026-04-24T08:45:04.225Z</time></trkpt><trkpt lat="36.6361299" lon="10.3826031"><ele>177.5</ele><time>2026-04-24T08:45:05.191Z</time></trkpt><trkpt lat="36.6359881" lon="10.3828609"><ele>177.0</ele><time>2026-04-24T08:45:06.237Z</time></trkpt><trkpt lat="36.6358394" lon="10.3831197"><ele>175.5</ele><time>2026-04-24T08:45:07.237Z</time></trkpt><trkpt lat="36.6356843" lon="10.3833877"><ele>174.0</ele><time>2026-04-24T08:45:08.239Z</time></trkpt><trkpt lat="36.6355228" lon="10.3836716"><ele>173.5</ele><time>2026-04-24T08:45:09.227Z</time></trkpt><trkpt lat="36.635359" lon="10.3839673"><ele>173.0</ele><time>2026-04-24T08:45:10.195Z</time></trkpt><trkpt lat="36.6351928" lon="10.3842591"><ele>171.0</ele><time>2026-04-24T08:45:11.231Z</time></trkpt><trkpt lat="36.6350271" lon="10.3845529"><ele>169.0</ele><time>2026-04-24T08:45:12.231Z</time></trkpt><trkpt lat="36.6348601" lon="10.3848433"><ele>168.5</ele><time>2026-04-24T08:45:13.231Z</time></trkpt><trkpt lat="36.6346942" lon="10.3851323"><ele>168.0</ele><time>2026-04-24T08:45:14.23Z</time></trkpt><trkpt lat="36.6345322" lon="10.3854169"><ele>165.5</ele><time>2026-04-24T08:45:15.245Z</time></trkpt><trkpt lat="36.6343737" lon="10.3856987"><ele>163.0</ele><time>2026-04-24T08:45:16.218Z</time></trkpt><trkpt lat="36.6342154" lon="10.3859719"><ele>163.0</ele><time>2026-04-24T08:45:17.24Z</time></trkpt><trkpt lat="36.6340598" lon="10.3862399"><ele>163.0</ele><time>2026-04-24T08:45:18.235Z</time></trkpt><trkpt lat="36.6339064" lon="10.3865036"><ele>163.0</ele><time>2026-04-24T08:45:19.243Z</time></trkpt><trkpt lat="36.6337423" lon="10.386763"><ele>163.0</ele><time>2026-04-24T08:45:20.223Z</time></trkpt><trkpt lat="36.6335793" lon="10.3870145"><ele>161.5</ele><time>2026-04-24T08:45:21.226Z</time></trkpt><trkpt lat="36.6334096" lon="10.3872638"><ele>160.0</ele><time>2026-04-24T08:45:22.208Z</time></trkpt><trkpt lat="36.6332572" lon="10.3875136"><ele>160.0</ele><time>2026-04-24T08:45:23.199Z</time></trkpt><trkpt lat="36.6330828" lon="10.38775"><ele>160.0</ele><time>2026-04-24T08:45:24.244Z</time></trkpt><trkpt lat="36.6329129" lon="10.3879876"><ele>157.5</ele><time>2026-04-24T08:45:25.205Z</time></trkpt><trkpt lat="36.6327476" lon="10.3882297"><ele>155.0</ele><time>2026-04-24T08:45:26.225Z</time></trkpt><trkpt lat="36.6325896" lon="10.3884757"><ele>155.0</ele><time>2026-04-24T08:45:27.232Z</time></trkpt><trkpt lat="36.6324327" lon="10.3887123"><ele>155.0</ele><time>2026-04-24T08:45:28.24Z</time></trkpt><trkpt lat="36.6322729" lon="10.3889429"><ele>155.5</ele><time>2026-04-24T08:45:29.235Z</time></trkpt><trkpt lat="36.6321424" lon="10.389163"><ele>156.0</ele><time>2026-04-24T08:45:30.15Z</time></trkpt><trkpt lat="36.6319919" lon="10.3893937"><ele>155.0</ele><time>2026-04-24T08:45:31.163Z</time></trkpt><trkpt lat="36.6318315" lon="10.3896235"><ele>154.0</ele><time>2026-04-24T08:45:32.163Z</time></trkpt><trkpt lat="36.6316724" lon="10.3898514"><ele>154.0</ele><time>2026-04-24T08:45:33.163Z</time></trkpt><trkpt lat="36.6315093" lon="10.3900783"><ele>154.0</ele><time>2026-04-24T08:45:34.121Z</time></trkpt><trkpt lat="36.6313441" lon="10.3903094"><ele>153.5</ele><time>2026-04-24T08:45:35.164Z</time></trkpt><trkpt lat="36.6311691" lon="10.3905384"><ele>153.0</ele><time>2026-04-24T08:45:36.156Z</time></trkpt><trkpt lat="36.6310048" lon="10.3907692"><ele>153.0</ele><time>2026-04-24T08:45:37.177Z</time></trkpt><trkpt lat="36.6308446" lon="10.3910036"><ele>153.0</ele><time>2026-04-24T08:45:38.171Z</time></trkpt><trkpt lat="36.6306783" lon="10.3912355"><ele>153.5</ele><time>2026-04-24T08:45:39.168Z</time></trkpt><trkpt lat="36.630509" lon="10.3914778"><ele>154.0</ele><time>2026-04-24T08:45:40.171Z</time></trkpt><trkpt lat="36.630334" lon="10.3917147"><ele>152.0</ele><time>2026-04-24T08:45:41.162Z</time></trkpt><trkpt lat="36.6301628" lon="10.3919535"><ele>150.0</ele><time>2026-04-24T08:45:42.167Z</time></trkpt><trkpt lat="36.629991" lon="10.3921857"><ele>149.5</ele><time>2026-04-24T08:45:43.154Z</time></trkpt><trkpt lat="36.6298186" lon="10.3924171"><ele>149.0</ele><time>2026-04-24T08:45:44.151Z</time></trkpt><trkpt lat="36.6296529" lon="10.3926461"><ele>149.0</ele><time>2026-04-24T08:45:45.166Z</time></trkpt><trkpt lat="36.6294834" lon="10.3928752"><ele>149.0</ele><time>2026-04-24T08:45:46.161Z</time></trkpt><trkpt lat="36.6293138" lon="10.3931099"><ele>148.5</ele><time>2026-04-24T08:45:47.123Z</time></trkpt><trkpt lat="36.6291385" lon="10.3933586"><ele>148.0</ele><time>2026-04-24T08:45:48.166Z</time></trkpt><trkpt lat="36.6289693" lon="10.3936023"><ele>148.0</ele><time>2026-04-24T08:45:49.165Z</time></trkpt><trkpt lat="36.6287993" lon="10.393838"><ele>148.0</ele><time>2026-04-24T08:45:50.155Z</time></trkpt><trkpt lat="36.6286256" lon="10.3940653"><ele>146.5</ele><time>2026-04-24T08:45:51.17Z</time></trkpt><trkpt lat="36.6284552" lon="10.3942954"><ele>145.0</ele><time>2026-04-24T08:45:52.174Z</time></trkpt><trkpt lat="36.6282853" lon="10.394525"><ele>145.5</ele><time>2026-04-24T08:45:53.173Z</time></trkpt><trkpt lat="36.628114" lon="10.3947495"><ele>146.0</ele><time>2026-04-24T08:45:54.162Z</time></trkpt><trkpt lat="36.6279492" lon="10.3949734"><ele>144.0</ele><time>2026-04-24T08:45:55.155Z</time></trkpt><trkpt lat="36.6277837" lon="10.3951996"><ele>142.0</ele><time>2026-04-24T08:45:56.155Z</time></trkpt><trkpt lat="36.6276176" lon="10.3954233"><ele>143.0</ele><time>2026-04-24T08:45:57.139Z</time></trkpt><trkpt lat="36.6274575" lon="10.3956441"><ele>144.0</ele><time>2026-04-24T08:45:58.17Z</time></trkpt><trkpt lat="36.6272986" lon="10.3958616"><ele>144.0</ele><time>2026-04-24T08:45:59.168Z</time></trkpt><trkpt lat="36.6271407" lon="10.3960806"><ele>144.0</ele><time>2026-04-24T08:46:00.161Z</time></trkpt><trkpt lat="36.6269837" lon="10.396303"><ele>142.5</ele><time>2026-04-24T08:46:01.133Z</time></trkpt><trkpt lat="36.626827" lon="10.3965236"><ele>141.0</ele><time>2026-04-24T08:46:02.132Z</time></trkpt><trkpt lat="36.6266679" lon="10.3967439"><ele>141.0</ele><time>2026-04-24T08:46:03.165Z</time></trkpt><trkpt lat="36.6265133" lon="10.3969592"><ele>141.0</ele><time>2026-04-24T08:46:04.166Z</time></trkpt><trkpt lat="36.6263599" lon="10.3971728"><ele>140.5</ele><time>2026-04-24T08:46:05.166Z</time></trkpt><trkpt lat="36.6262035" lon="10.3973915"><ele>140.0</ele><time>2026-04-24T08:46:06.167Z</time></trkpt><trkpt lat="36.6260508" lon="10.3976078"><ele>139.5</ele><time>2026-04-24T08:46:07.158Z</time></trkpt><trkpt lat="36.6258968" lon="10.397827"><ele>139.0</ele><time>2026-04-24T08:46:08.151Z</time></trkpt><trkpt lat="36.6257402" lon="10.3980564"><ele>139.0</ele><time>2026-04-24T08:46:09.162Z</time></trkpt><trkpt lat="36.625574" lon="10.3982881"><ele>139.0</ele><time>2026-04-24T08:46:10.163Z</time></trkpt><trkpt lat="36.6254074" lon="10.3985229"><ele>138.0</ele><time>2026-04-24T08:46:11.121Z</time></trkpt><trkpt lat="36.6252442" lon="10.3987508"><ele>137.0</ele><time>2026-04-24T08:46:12.179Z</time></trkpt><trkpt lat="36.6250869" lon="10.3989769"><ele>137.0</ele><time>2026-04-24T08:46:13.177Z</time></trkpt><trkpt lat="36.6249384" lon="10.3991973"><ele>137.0</ele><time>2026-04-24T08:46:14.163Z</time></trkpt><trkpt lat="36.6247901" lon="10.3994196"><ele>137.0</ele><time>2026-04-24T08:46:15.159Z</time></trkpt><trkpt lat="36.6246394" lon="10.3996348"><ele>137.0</ele><time>2026-04-24T08:46:16.166Z</time></trkpt><trkpt lat="36.6244927" lon="10.399848"><ele>136.5</ele><time>2026-04-24T08:46:17.165Z</time></trkpt><trkpt lat="36.6243486" lon="10.4000646"><ele>136.0</ele><time>2026-04-24T08:46:18.163Z</time></trkpt><trkpt lat="36.6242073" lon="10.4002915"><ele>135.5</ele><time>2026-04-24T08:46:19.16Z</time></trkpt><trkpt lat="36.6240627" lon="10.4005149"><ele>135.0</ele><time>2026-04-24T08:46:20.165Z</time></trkpt><trkpt lat="36.623915" lon="10.4007454"><ele>135.0</ele><time>2026-04-24T08:46:21.164Z</time></trkpt><trkpt lat="36.6237747" lon="10.4009806"><ele>135.0</ele><time>2026-04-24T08:46:22.16Z</time></trkpt><trkpt lat="36.6236345" lon="10.4012115"><ele>134.0</ele><time>2026-04-24T08:46:23.161Z</time></trkpt><trkpt lat="36.6234923" lon="10.4014382"><ele>133.0</ele><time>2026-04-24T08:46:24.182Z</time></trkpt><trkpt lat="36.6233468" lon="10.4016685"><ele>133.0</ele><time>2026-04-24T08:46:25.165Z</time></trkpt><trkpt lat="36.623202" lon="10.4019044"><ele>133.0</ele><time>2026-04-24T08:46:26.136Z</time></trkpt><trkpt lat="36.6230612" lon="10.4021408"><ele>133.0</ele><time>2026-04-24T08:46:27.166Z</time></trkpt><trkpt lat="36.6229172" lon="10.4023771"><ele>133.0</ele><time>2026-04-24T08:46:28.137Z</time></trkpt><trkpt lat="36.6227818" lon="10.4026084"><ele>132.5</ele><time>2026-04-24T08:46:29.172Z</time></trkpt><trkpt lat="36.6226503" lon="10.4028437"><ele>132.0</ele><time>2026-04-24T08:46:30.173Z</time></trkpt><trkpt lat="36.6225153" lon="10.4030732"><ele>132.0</ele><time>2026-04-24T08:46:31.164Z</time></trkpt><trkpt lat="36.6223799" lon="10.4033"><ele>132.0</ele><time>2026-04-24T08:46:32.158Z</time></trkpt><trkpt lat="36.6222467" lon="10.4035269"><ele>132.0</ele><time>2026-04-24T08:46:33.164Z</time></trkpt><trkpt lat="36.6221182" lon="10.403756"><ele>132.0</ele><time>2026-04-24T08:46:34.163Z</time></trkpt><trkpt lat="36.6219939" lon="10.4039865"><ele>132.0</ele><time>2026-04-24T08:46:35.152Z</time></trkpt><trkpt lat="36.6218668" lon="10.404215"><ele>130.0</ele><time>2026-04-24T08:46:36.162Z</time></trkpt><trkpt lat="36.6217373" lon="10.4044439"><ele>128.0</ele><time>2026-04-24T08:46:37.176Z</time></trkpt><trkpt lat="36.6216033" lon="10.4046706"><ele>128.0</ele><time>2026-04-24T08:46:38.154Z</time></trkpt><trkpt lat="36.6214804" lon="10.4049003"><ele>128.0</ele><time>2026-04-24T08:46:39.165Z</time></trkpt><trkpt lat="36.6213571" lon="10.4051327"><ele>128.0</ele><time>2026-04-24T08:46:40.145Z</time></trkpt><trkpt lat="36.6212263" lon="10.4053718"><ele>127.0</ele><time>2026-04-24T08:46:41.159Z</time></trkpt><trkpt lat="36.6211003" lon="10.4056062"><ele>126.0</ele><time>2026-04-24T08:46:42.169Z</time></trkpt><trkpt lat="36.620975" lon="10.4058365"><ele>126.0</ele><time>2026-04-24T08:46:43.137Z</time></trkpt><trkpt lat="36.6208526" lon="10.4060693"><ele>126.0</ele><time>2026-04-24T08:46:44.168Z</time></trkpt><trkpt lat="36.6207297" lon="10.4063074"><ele>126.0</ele><time>2026-04-24T08:46:45.168Z</time></trkpt><trkpt lat="36.6206097" lon="10.4065333"><ele>126.0</ele><time>2026-04-24T08:46:46.157Z</time></trkpt><trkpt lat="36.6204921" lon="10.4067636"><ele>126.0</ele><time>2026-04-24T08:46:47.16Z</time></trkpt><trkpt lat="36.6203662" lon="10.4069979"><ele>125.5</ele><time>2026-04-24T08:46:48.173Z</time></trkpt><trkpt lat="36.6202395" lon="10.4072508"><ele>125.0</ele><time>2026-04-24T08:46:49.161Z</time></trkpt><trkpt lat="36.6201138" lon="10.407504"><ele>125.0</ele><time>2026-04-24T08:46:50.168Z</time></trkpt><trkpt lat="36.6199869" lon="10.4077531"><ele>125.0</ele><time>2026-04-24T08:46:51.174Z</time></trkpt><trkpt lat="36.6198612" lon="10.4079994"><ele>125.0</ele><time>2026-04-24T08:46:52.162Z</time></trkpt><trkpt lat="36.6197437" lon="10.4082477"><ele>125.0</ele><time>2026-04-24T08:46:53.144Z</time></trkpt><trkpt lat="36.6196257" lon="10.4084952"><ele>125.0</ele><time>2026-04-24T08:46:54.161Z</time></trkpt><trkpt lat="36.6195087" lon="10.4087372"><ele>125.0</ele><time>2026-04-24T08:46:55.171Z</time></trkpt><trkpt lat="36.6193973" lon="10.4089885"><ele>124.0</ele><time>2026-04-24T08:46:56.155Z</time></trkpt><trkpt lat="36.6192756" lon="10.4092398"><ele>123.0</ele><time>2026-04-24T08:46:57.15Z</time></trkpt><trkpt lat="36.619161" lon="10.4094898"><ele>122.0</ele><time>2026-04-24T08:46:58.149Z</time></trkpt><trkpt lat="36.6190473" lon="10.4097437"><ele>121.0</ele><time>2026-04-24T08:46:59.154Z</time></trkpt><trkpt lat="36.6189322" lon="10.409994"><ele>121.0</ele><time>2026-04-24T08:47:00.127Z</time></trkpt><trkpt lat="36.6188161" lon="10.4102487"><ele>121.0</ele><time>2026-04-24T08:47:01.161Z</time></trkpt><trkpt lat="36.6187004" lon="10.4105013"><ele>120.5</ele><time>2026-04-24T08:47:02.145Z</time></trkpt><trkpt lat="36.6185841" lon="10.4107543"><ele>120.0</ele><time>2026-04-24T08:47:03.153Z</time></trkpt><trkpt lat="36.6184697" lon="10.411007"><ele>120.0</ele><time>2026-04-24T08:47:04.167Z</time></trkpt><trkpt lat="36.6183537" lon="10.411261"><ele>120.0</ele><time>2026-04-24T08:47:05.15Z</time></trkpt><trkpt lat="36.6182446" lon="10.4115174"><ele>119.0</ele><time>2026-04-24T08:47:06.142Z</time></trkpt><trkpt lat="36.6181338" lon="10.4117696"><ele>118.0</ele><time>2026-04-24T08:47:07.165Z</time></trkpt><trkpt lat="36.6180258" lon="10.4120234"><ele>117.5</ele><time>2026-04-24T08:47:08.161Z</time></trkpt><trkpt lat="36.6179157" lon="10.4122797"><ele>117.0</ele><time>2026-04-24T08:47:09.163Z</time></trkpt><trkpt lat="36.6178052" lon="10.4125408"><ele>116.0</ele><time>2026-04-24T08:47:10.147Z</time></trkpt><trkpt lat="36.6176986" lon="10.4127967"><ele>115.0</ele><time>2026-04-24T08:47:11.164Z</time></trkpt><trkpt lat="36.6175968" lon="10.4130505"><ele>115.0</ele><time>2026-04-24T08:47:12.162Z</time></trkpt><trkpt lat="36.6174881" lon="10.413307"><ele>115.0</ele><time>2026-04-24T08:47:13.173Z</time></trkpt><trkpt lat="36.6173832" lon="10.4135657"><ele>114.5</ele><time>2026-04-24T08:47:14.169Z</time></trkpt><trkpt lat="36.617279" lon="10.4138296"><ele>114.0</ele><time>2026-04-24T08:47:15.169Z</time></trkpt><trkpt lat="36.6171737" lon="10.4140903"><ele>114.0</ele><time>2026-04-24T08:47:16.117Z</time></trkpt><trkpt lat="36.6170699" lon="10.4143455"><ele>114.0</ele><time>2026-04-24T08:47:17.157Z</time></trkpt><trkpt lat="36.6169636" lon="10.4146091"><ele>112.5</ele><time>2026-04-24T08:47:18.156Z</time></trkpt><trkpt lat="36.6168669" lon="10.4148708"><ele>111.0</ele><time>2026-04-24T08:47:19.169Z</time></trkpt><trkpt lat="36.6167668" lon="10.4151298"><ele>111.0</ele><time>2026-04-24T08:47:20.168Z</time></trkpt><trkpt lat="36.6166585" lon="10.4153926"><ele>111.0</ele><time>2026-04-24T08:47:21.17Z</time></trkpt><trkpt lat="36.6165508" lon="10.4156522"><ele>111.0</ele><time>2026-04-24T08:47:22.155Z</time></trkpt><trkpt lat="36.6164456" lon="10.4159121"><ele>111.0</ele><time>2026-04-24T08:47:23.159Z</time></trkpt><trkpt lat="36.6163448" lon="10.4161679"><ele>111.0</ele><time>2026-04-24T08:47:24.164Z</time></trkpt><trkpt lat="36.6162398" lon="10.4164279"><ele>111.0</ele><time>2026-04-24T08:47:25.166Z</time></trkpt><trkpt lat="36.616136" lon="10.4166857"><ele>110.0</ele><time>2026-04-24T08:47:26.162Z</time></trkpt><trkpt lat="36.6160316" lon="10.4169454"><ele>109.0</ele><time>2026-04-24T08:47:27.165Z</time></trkpt><trkpt lat="36.6159289" lon="10.417204"><ele>109.0</ele><time>2026-04-24T08:47:28.169Z</time></trkpt><trkpt lat="36.6158229" lon="10.4174583"><ele>109.0</ele><time>2026-04-24T08:47:29.158Z</time></trkpt><trkpt lat="36.6157191" lon="10.4177219"><ele>109.0</ele><time>2026-04-24T08:47:30.172Z</time></trkpt><trkpt lat="36.6156158" lon="10.417984"><ele>109.0</ele><time>2026-04-24T08:47:31.174Z</time></trkpt><trkpt lat="36.6155139" lon="10.4182406"><ele>109.0</ele><time>2026-04-24T08:47:32.169Z</time></trkpt><trkpt lat="36.6154094" lon="10.4185047"><ele>109.0</ele><time>2026-04-24T08:47:33.171Z</time></trkpt><trkpt lat="36.615309" lon="10.4187611"><ele>108.0</ele><time>2026-04-24T08:47:34.139Z</time></trkpt><trkpt lat="36.6152046" lon="10.4190229"><ele>107.0</ele><time>2026-04-24T08:47:35.159Z</time></trkpt><trkpt lat="36.6151018" lon="10.419279"><ele>107.0</ele><time>2026-04-24T08:47:36.169Z</time></trkpt><trkpt lat="36.6149909" lon="10.4195346"><ele>107.0</ele><time>2026-04-24T08:47:37.167Z</time></trkpt><trkpt lat="36.6148791" lon="10.4197946"><ele>107.5</ele><time>2026-04-24T08:47:38.162Z</time></trkpt><trkpt lat="36.6147677" lon="10.4200491"><ele>108.0</ele><time>2026-04-24T08:47:39.163Z</time></trkpt><trkpt lat="36.6146569" lon="10.4203011"><ele>108.5</ele><time>2026-04-24T08:47:40.175Z</time></trkpt><trkpt lat="36.6145466" lon="10.4205553"><ele>109.0</ele><time>2026-04-24T08:47:41.165Z</time></trkpt><trkpt lat="36.6144288" lon="10.4208112"><ele>108.0</ele><time>2026-04-24T08:47:42.157Z</time></trkpt><trkpt lat="36.614308" lon="10.4210625"><ele>107.0</ele><time>2026-04-24T08:47:43.165Z</time></trkpt><trkpt lat="36.6141863" lon="10.4213132"><ele>106.5</ele><time>2026-04-24T08:47:44.164Z</time></trkpt><trkpt lat="36.6140654" lon="10.4215693"><ele>106.0</ele><time>2026-04-24T08:47:45.157Z</time></trkpt><trkpt lat="36.6139392" lon="10.4218242"><ele>106.0</ele><time>2026-04-24T08:47:46.172Z</time></trkpt><trkpt lat="36.6138112" lon="10.4220739"><ele>106.0</ele><time>2026-04-24T08:47:47.163Z</time></trkpt><trkpt lat="36.6136846" lon="10.422324"><ele>105.0</ele><time>2026-04-24T08:47:48.156Z</time></trkpt><trkpt lat="36.6135543" lon="10.4225701"><ele>104.0</ele><time>2026-04-24T08:47:49.151Z</time></trkpt><trkpt lat="36.6134265" lon="10.4228218"><ele>104.0</ele><time>2026-04-24T08:47:50.173Z</time></trkpt><trkpt lat="36.613297" lon="10.4230781"><ele>104.0</ele><time>2026-04-24T08:47:51.153Z</time></trkpt><trkpt lat="36.6131609" lon="10.4233299"><ele>104.0</ele><time>2026-04-24T08:47:52.182Z</time></trkpt><trkpt lat="36.6130237" lon="10.4235827"><ele>104.0</ele><time>2026-04-24T08:47:53.185Z</time></trkpt><trkpt lat="36.6128902" lon="10.4238334"><ele>103.5</ele><time>2026-04-24T08:47:54.158Z</time></trkpt><trkpt lat="36.6127495" lon="10.4240851"><ele>103.0</ele><time>2026-04-24T08:47:55.159Z</time></trkpt><trkpt lat="36.6126137" lon="10.4243327"><ele>103.0</ele><time>2026-04-24T08:47:56.161Z</time></trkpt><trkpt lat="36.612475" lon="10.4245797"><ele>103.0</ele><time>2026-04-24T08:47:57.156Z</time></trkpt><trkpt lat="36.6123388" lon="10.4248264"><ele>104.5</ele><time>2026-04-24T08:47:58.146Z</time></trkpt><trkpt lat="36.6121968" lon="10.425074"><ele>106.0</ele><time>2026-04-24T08:47:59.17Z</time></trkpt><trkpt lat="36.6120562" lon="10.4253138"><ele>104.5</ele><time>2026-04-24T08:48:00.166Z</time></trkpt><trkpt lat="36.6119081" lon="10.4255501"><ele>103.0</ele><time>2026-04-24T08:48:01.137Z</time></trkpt><trkpt lat="36.6117549" lon="10.4257871"><ele>103.0</ele><time>2026-04-24T08:48:02.155Z</time></trkpt><trkpt lat="36.6116027" lon="10.4260242"><ele>103.0</ele><time>2026-04-24T08:48:03.177Z</time></trkpt><trkpt lat="36.6114526" lon="10.4262559"><ele>104.0</ele><time>2026-04-24T08:48:04.167Z</time></trkpt><trkpt lat="36.6113048" lon="10.4264894"><ele>105.0</ele><time>2026-04-24T08:48:05.152Z</time></trkpt><trkpt lat="36.6111565" lon="10.4267208"><ele>104.0</ele><time>2026-04-24T08:48:06.168Z</time></trkpt><trkpt lat="36.6110078" lon="10.4269475"><ele>103.0</ele><time>2026-04-24T08:48:07.166Z</time></trkpt><trkpt lat="36.6108591" lon="10.4271757"><ele>103.0</ele><time>2026-04-24T08:48:08.158Z</time></trkpt><trkpt lat="36.6107091" lon="10.4274004"><ele>103.0</ele><time>2026-04-24T08:48:09.16Z</time></trkpt><trkpt lat="36.610555" lon="10.4276218"><ele>103.0</ele><time>2026-04-24T08:48:10.141Z</time></trkpt><trkpt lat="36.6103991" lon="10.427841"><ele>103.0</ele><time>2026-04-24T08:48:11.159Z</time></trkpt><trkpt lat="36.61024" lon="10.4280697"><ele>101.5</ele><time>2026-04-24T08:48:12.122Z</time></trkpt><trkpt lat="36.6100847" lon="10.4282958"><ele>100.0</ele><time>2026-04-24T08:48:13.151Z</time></trkpt><trkpt lat="36.6099251" lon="10.4285176"><ele>100.0</ele><time>2026-04-24T08:48:14.169Z</time></trkpt><trkpt lat="36.6097651" lon="10.4287393"><ele>100.0</ele><time>2026-04-24T08:48:15.179Z</time></trkpt><trkpt lat="36.6096066" lon="10.4289538"><ele>99.0</ele><time>2026-04-24T08:48:16.149Z</time></trkpt><trkpt lat="36.609445" lon="10.4291752"><ele>98.0</ele><time>2026-04-24T08:48:17.166Z</time></trkpt><trkpt lat="36.6092927" lon="10.4293903"><ele>98.0</ele><time>2026-04-24T08:48:18.174Z</time></trkpt><trkpt lat="36.6091363" lon="10.4296109"><ele>98.0</ele><time>2026-04-24T08:48:19.157Z</time></trkpt><trkpt lat="36.6089814" lon="10.4298332"><ele>98.5</ele><time>2026-04-24T08:48:20.161Z</time></trkpt><trkpt lat="36.6088251" lon="10.4300527"><ele>99.0</ele><time>2026-04-24T08:48:21.175Z</time></trkpt><trkpt lat="36.6086685" lon="10.4302744"><ele>98.0</ele><time>2026-04-24T08:48:22.167Z</time></trkpt><trkpt lat="36.6085119" lon="10.4304968"><ele>97.0</ele><time>2026-04-24T08:48:23.166Z</time></trkpt><trkpt lat="36.6083536" lon="10.4307221"><ele>97.0</ele><time>2026-04-24T08:48:24.136Z</time></trkpt><trkpt lat="36.6082029" lon="10.4309482"><ele>97.0</ele><time>2026-04-24T08:48:25.117Z</time></trkpt><trkpt lat="36.608051" lon="10.4311787"><ele>98.5</ele><time>2026-04-24T08:48:26.153Z</time></trkpt><trkpt lat="36.6079013" lon="10.4314124"><ele>100.0</ele><time>2026-04-24T08:48:27.168Z</time></trkpt><trkpt lat="36.6077601" lon="10.4316454"><ele>95.5</ele><time>2026-04-24T08:48:28.173Z</time></trkpt><trkpt lat="36.6076194" lon="10.4318748"><ele>91.0</ele><time>2026-04-24T08:48:29.169Z</time></trkpt><trkpt lat="36.6074782" lon="10.4321071"><ele>92.5</ele><time>2026-04-24T08:48:30.169Z</time></trkpt><trkpt lat="36.6073429" lon="10.4323412"><ele>94.0</ele><time>2026-04-24T08:48:31.152Z</time></trkpt><trkpt lat="36.607207" lon="10.4325846"><ele>94.0</ele><time>2026-04-24T08:48:32.157Z</time></trkpt><trkpt lat="36.6070806" lon="10.4328327"><ele>94.0</ele><time>2026-04-24T08:48:33.169Z</time></trkpt><trkpt lat="36.6069539" lon="10.4330804"><ele>91.5</ele><time>2026-04-24T08:48:34.141Z</time></trkpt><trkpt lat="36.6068326" lon="10.4333321"><ele>89.0</ele><time>2026-04-24T08:48:35.142Z</time></trkpt><trkpt lat="36.6067144" lon="10.433587"><ele>89.5</ele><time>2026-04-24T08:48:36.162Z</time></trkpt><trkpt lat="36.6065991" lon="10.4338446"><ele>90.0</ele><time>2026-04-24T08:48:37.155Z</time></trkpt><trkpt lat="36.606488" lon="10.4340989"><ele>90.0</ele><time>2026-04-24T08:48:38.157Z</time></trkpt><trkpt lat="36.6063813" lon="10.4343599"><ele>90.0</ele><time>2026-04-24T08:48:39.17Z</time></trkpt><trkpt lat="36.606277" lon="10.4346211"><ele>89.0</ele><time>2026-04-24T08:48:40.165Z</time></trkpt><trkpt lat="36.6061755" lon="10.4348805"><ele>88.0</ele><time>2026-04-24T08:48:41.173Z</time></trkpt><trkpt lat="36.6060732" lon="10.4351461"><ele>85.5</ele><time>2026-04-24T08:48:42.16Z</time></trkpt><trkpt lat="36.6059814" lon="10.4354162"><ele>83.0</ele><time>2026-04-24T08:48:43.171Z</time></trkpt><trkpt lat="36.6058891" lon="10.4356834"><ele>82.5</ele><time>2026-04-24T08:48:44.141Z</time></trkpt><trkpt lat="36.6058033" lon="10.4359582"><ele>82.0</ele><time>2026-04-24T08:48:45.154Z</time></trkpt><trkpt lat="36.6057214" lon="10.4362317"><ele>81.5</ele><time>2026-04-24T08:48:46.136Z</time></trkpt><trkpt lat="36.6056435" lon="10.436507"><ele>81.0</ele><time>2026-04-24T08:48:47.165Z</time></trkpt><trkpt lat="36.6055698" lon="10.4367861"><ele>81.0</ele><time>2026-04-24T08:48:48.165Z</time></trkpt><trkpt lat="36.6055029" lon="10.4370651"><ele>81.0</ele><time>2026-04-24T08:48:49.133Z</time></trkpt><trkpt lat="36.6054345" lon="10.4373445"><ele>81.0</ele><time>2026-04-24T08:48:50.145Z</time></trkpt><trkpt lat="36.6053718" lon="10.4376204"><ele>81.0</ele><time>2026-04-24T08:48:51.159Z</time></trkpt><trkpt lat="36.6053172" lon="10.437891"><ele>80.0</ele><time>2026-04-24T08:48:52.167Z</time></trkpt><trkpt lat="36.6052631" lon="10.4381695"><ele>79.0</ele><time>2026-04-24T08:48:53.152Z</time></trkpt><trkpt lat="36.6052129" lon="10.4384466"><ele>79.0</ele><time>2026-04-24T08:48:54.168Z</time></trkpt><trkpt lat="36.6051623" lon="10.4387282"><ele>79.0</ele><time>2026-04-24T08:48:55.16Z</time></trkpt><trkpt lat="36.6051209" lon="10.4390049"><ele>78.66666666666666</ele><time>2026-04-24T08:48:56.167Z</time></trkpt><trkpt lat="36.6050752" lon="10.4392804"><ele>78.33333333333333</ele><time>2026-04-24T08:48:57.159Z</time></trkpt><trkpt lat="36.6050335" lon="10.439552"><ele>78.0</ele><time>2026-04-24T08:48:58.159Z</time></trkpt><trkpt lat="36.6049977" lon="10.4398275"><ele>79.0</ele><time>2026-04-24T08:48:59.129Z</time></trkpt><trkpt lat="36.6049554" lon="10.4401033"><ele>80.0</ele><time>2026-04-24T08:49:00.145Z</time></trkpt><trkpt lat="36.6049157" lon="10.4403784"><ele>80.33333333333334</ele><time>2026-04-24T08:49:01.154Z</time></trkpt><trkpt lat="36.6048714" lon="10.4406511"><ele>80.66666666666667</ele><time>2026-04-24T08:49:02.137Z</time></trkpt><trkpt lat="36.6048304" lon="10.4409232"><ele>81.0</ele><time>2026-04-24T08:49:03.14Z</time></trkpt><trkpt lat="36.6047915" lon="10.4411971"><ele>81.0</ele><time>2026-04-24T08:49:04.159Z</time></trkpt><trkpt lat="36.6047494" lon="10.4414745"><ele>81.0</ele><time>2026-04-24T08:49:05.167Z</time></trkpt><trkpt lat="36.6047114" lon="10.4417507"><ele>81.0</ele><time>2026-04-24T08:49:06.145Z</time></trkpt><trkpt lat="36.6046668" lon="10.4420308"><ele>81.0</ele><time>2026-04-24T08:49:07.163Z</time></trkpt><trkpt lat="36.6046246" lon="10.4423059"><ele>81.0</ele><time>2026-04-24T08:49:08.16Z</time></trkpt><trkpt lat="36.6045747" lon="10.4425818"><ele>81.0</ele><time>2026-04-24T08:49:09.166Z</time></trkpt><trkpt lat="36.6045206" lon="10.4428557"><ele>83.5</ele><time>2026-04-24T08:49:10.165Z</time></trkpt><trkpt lat="36.6044614" lon="10.4431279"><ele>86.0</ele><time>2026-04-24T08:49:11.165Z</time></trkpt><trkpt lat="36.6044009" lon="10.4433963"><ele>86.0</ele><time>2026-04-24T08:49:12.167Z</time></trkpt><trkpt lat="36.6043385" lon="10.4436658"><ele>86.0</ele><time>2026-04-24T08:49:13.164Z</time></trkpt><trkpt lat="36.6042756" lon="10.4439353"><ele>85.66666666666667</ele><time>2026-04-24T08:49:14.162Z</time></trkpt><trkpt lat="36.6042131" lon="10.4442052"><ele>85.33333333333333</ele><time>2026-04-24T08:49:15.147Z</time></trkpt><trkpt lat="36.6041435" lon="10.4444699"><ele>85.0</ele><time>2026-04-24T08:49:16.153Z</time></trkpt><trkpt lat="36.6040745" lon="10.4447337"><ele>86.0</ele><time>2026-04-24T08:49:17.166Z</time></trkpt><trkpt lat="36.6040008" lon="10.445003"><ele>87.0</ele><time>2026-04-24T08:49:18.188Z</time></trkpt><trkpt lat="36.6039229" lon="10.4452691"><ele>85.5</ele><time>2026-04-24T08:49:19.164Z</time></trkpt><trkpt lat="36.6038449" lon="10.4455333"><ele>84.0</ele><time>2026-04-24T08:49:20.141Z</time></trkpt><trkpt lat="36.603765" lon="10.4457965"><ele>84.0</ele><time>2026-04-24T08:49:21.15Z</time></trkpt><trkpt lat="36.6036777" lon="10.4460614"><ele>84.0</ele><time>2026-04-24T08:49:22.17Z</time></trkpt><trkpt lat="36.6035898" lon="10.4463202"><ele>85.0</ele><time>2026-04-24T08:49:23.162Z</time></trkpt><trkpt lat="36.6034922" lon="10.446583"><ele>86.0</ele><time>2026-04-24T08:49:24.16Z</time></trkpt><trkpt lat="36.6033893" lon="10.4468582"><ele>85.5</ele><time>2026-04-24T08:49:25.161Z</time></trkpt><trkpt lat="36.6032863" lon="10.4471388"><ele>85.0</ele><time>2026-04-24T08:49:26.165Z</time></trkpt><trkpt lat="36.6031807" lon="10.4474251"><ele>85.0</ele><time>2026-04-24T08:49:27.158Z</time></trkpt><trkpt lat="36.6030718" lon="10.447709"><ele>85.0</ele><time>2026-04-24T08:49:28.167Z</time></trkpt><trkpt lat="36.6029601" lon="10.4479914"><ele>84.5</ele><time>2026-04-24T08:49:29.162Z</time></trkpt><trkpt lat="36.6028461" lon="10.4482687"><ele>84.0</ele><time>2026-04-24T08:49:30.159Z</time></trkpt><trkpt lat="36.6027287" lon="10.4485495"><ele>83.0</ele><time>2026-04-24T08:49:31.141Z</time></trkpt><trkpt lat="36.6026093" lon="10.448824"><ele>82.0</ele><time>2026-04-24T08:49:32.121Z</time></trkpt><trkpt lat="36.6024805" lon="10.4490915"><ele>82.0</ele><time>2026-04-24T08:49:33.166Z</time></trkpt><trkpt lat="36.6023453" lon="10.4493565"><ele>82.0</ele><time>2026-04-24T08:49:34.144Z</time></trkpt><trkpt lat="36.6022116" lon="10.4496159"><ele>80.5</ele><time>2026-04-24T08:49:35.157Z</time></trkpt><trkpt lat="36.602075" lon="10.4498743"><ele>79.0</ele><time>2026-04-24T08:49:36.161Z</time></trkpt><trkpt lat="36.6019421" lon="10.4501364"><ele>79.0</ele><time>2026-04-24T08:49:37.164Z</time></trkpt><trkpt lat="36.6018017" lon="10.4503891"><ele>79.0</ele><time>2026-04-24T08:49:38.161Z</time></trkpt><trkpt lat="36.6016551" lon="10.4506374"><ele>78.0</ele><time>2026-04-24T08:49:39.161Z</time></trkpt><trkpt lat="36.6015106" lon="10.4508813"><ele>77.0</ele><time>2026-04-24T08:49:40.161Z</time></trkpt><trkpt lat="36.6013572" lon="10.4511206"><ele>76.5</ele><time>2026-04-24T08:49:41.153Z</time></trkpt><trkpt lat="36.6012154" lon="10.4513559"><ele>76.0</ele><time>2026-04-24T08:49:42.166Z</time></trkpt><trkpt lat="36.6010645" lon="10.4515909"><ele>76.0</ele><time>2026-04-24T08:49:43.16Z</time></trkpt><trkpt lat="36.6009126" lon="10.4518213"><ele>76.0</ele><time>2026-04-24T08:49:44.167Z</time></trkpt><trkpt lat="36.6007658" lon="10.452051"><ele>74.0</ele><time>2026-04-24T08:49:45.163Z</time></trkpt><trkpt lat="36.6006145" lon="10.4522708"><ele>72.0</ele><time>2026-04-24T08:49:46.162Z</time></trkpt><trkpt lat="36.6004629" lon="10.4524788"><ele>73.0</ele><time>2026-04-24T08:49:47.157Z</time></trkpt><trkpt lat="36.6003093" lon="10.4526895"><ele>74.0</ele><time>2026-04-24T08:49:48.16Z</time></trkpt><trkpt lat="36.6001585" lon="10.4528963"><ele>73.33333333333334</ele><time>2026-04-24T08:49:49.161Z</time></trkpt><trkpt lat="36.6000122" lon="10.4531092"><ele>72.66666666666667</ele><time>2026-04-24T08:49:50.17Z</time></trkpt><trkpt lat="36.5998713" lon="10.4533216"><ele>72.0</ele><time>2026-04-24T08:49:51.125Z</time></trkpt><trkpt lat="36.5997263" lon="10.4535375"><ele>72.0</ele><time>2026-04-24T08:49:52.156Z</time></trkpt><trkpt lat="36.5995797" lon="10.4537531"><ele>72.0</ele><time>2026-04-24T08:49:53.114Z</time></trkpt><trkpt lat="36.5994281" lon="10.4539689"><ele>71.5</ele><time>2026-04-24T08:49:54.111Z</time></trkpt><trkpt lat="36.5992807" lon="10.4541776"><ele>71.0</ele><time>2026-04-24T08:49:55.114Z</time></trkpt><trkpt lat="36.5991328" lon="10.454393"><ele>71.0</ele><time>2026-04-24T08:49:56.138Z</time></trkpt><trkpt lat="36.5989871" lon="10.4546068"><ele>71.0</ele><time>2026-04-24T08:49:57.124Z</time></trkpt><trkpt lat="36.5988431" lon="10.4548187"><ele>71.0</ele><time>2026-04-24T08:49:58.15Z</time></trkpt><trkpt lat="36.5987068" lon="10.4550316"><ele>71.5</ele><time>2026-04-24T08:49:59.158Z</time></trkpt><trkpt lat="36.5985621" lon="10.4552512"><ele>72.0</ele><time>2026-04-24T08:50:00.133Z</time></trkpt><trkpt lat="36.5984209" lon="10.4554745"><ele>72.0</ele><time>2026-04-24T08:50:01.136Z</time></trkpt><trkpt lat="36.5982795" lon="10.4556954"><ele>72.0</ele><time>2026-04-24T08:50:02.15Z</time></trkpt><trkpt lat="36.5981386" lon="10.4559137"><ele>72.0</ele><time>2026-04-24T08:50:03.153Z</time></trkpt><trkpt lat="36.5980023" lon="10.4561337"><ele>72.0</ele><time>2026-04-24T08:50:04.145Z</time></trkpt><trkpt lat="36.5978656" lon="10.456356"><ele>72.0</ele><time>2026-04-24T08:50:05.131Z</time></trkpt><trkpt lat="36.5977346" lon="10.4565762"><ele>71.0</ele><time>2026-04-24T08:50:06.131Z</time></trkpt><trkpt lat="36.5976029" lon="10.4568024"><ele>70.0</ele><time>2026-04-24T08:50:07.167Z</time></trkpt><trkpt lat="36.5974641" lon="10.4570319"><ele>70.5</ele><time>2026-04-24T08:50:08.157Z</time></trkpt><trkpt lat="36.5973322" lon="10.4572624"><ele>71.0</ele><time>2026-04-24T08:50:09.184Z</time></trkpt><trkpt lat="36.5972009" lon="10.4574959"><ele>71.0</ele><time>2026-04-24T08:50:10.158Z</time></trkpt><trkpt lat="36.5970695" lon="10.4577353"><ele>71.0</ele><time>2026-04-24T08:50:11.168Z</time></trkpt><trkpt lat="36.5969349" lon="10.4579905"><ele>71.0</ele><time>2026-04-24T08:50:12.174Z</time></trkpt><trkpt lat="36.5968029" lon="10.4582535"><ele>71.0</ele><time>2026-04-24T08:50:13.126Z</time></trkpt><trkpt lat="36.5966655" lon="10.4585198"><ele>71.0</ele><time>2026-04-24T08:50:14.154Z</time></trkpt><trkpt lat="36.5965334" lon="10.4587827"><ele>71.0</ele><time>2026-04-24T08:50:15.153Z</time></trkpt><trkpt lat="36.5964035" lon="10.4590353"><ele>71.0</ele><time>2026-04-24T08:50:16.166Z</time></trkpt><trkpt lat="36.5962747" lon="10.459286"><ele>71.0</ele><time>2026-04-24T08:50:17.161Z</time></trkpt><trkpt lat="36.5961488" lon="10.4595385"><ele>71.0</ele><time>2026-04-24T08:50:18.151Z</time></trkpt><trkpt lat="36.5960172" lon="10.4597914"><ele>71.0</ele><time>2026-04-24T08:50:19.153Z</time></trkpt><trkpt lat="36.5958863" lon="10.460053"><ele>71.0</ele><time>2026-04-24T08:50:20.154Z</time></trkpt><trkpt lat="36.5957589" lon="10.4603028"><ele>71.0</ele><time>2026-04-24T08:50:21.157Z</time></trkpt><trkpt lat="36.5956302" lon="10.4605574"><ele>70.5</ele><time>2026-04-24T08:50:22.152Z</time></trkpt><trkpt lat="36.5955093" lon="10.4608105"><ele>70.0</ele><time>2026-04-24T08:50:23.148Z</time></trkpt><trkpt lat="36.5953936" lon="10.4610594"><ele>70.5</ele><time>2026-04-24T08:50:24.145Z</time></trkpt><trkpt lat="36.5952766" lon="10.4613096"><ele>71.0</ele><time>2026-04-24T08:50:25.153Z</time></trkpt><trkpt lat="36.595166" lon="10.4615622"><ele>71.0</ele><time>2026-04-24T08:50:26.156Z</time></trkpt><trkpt lat="36.5950599" lon="10.4618151"><ele>71.0</ele><time>2026-04-24T08:50:27.155Z</time></trkpt><trkpt lat="36.5949549" lon="10.4620672"><ele>70.5</ele><time>2026-04-24T08:50:28.162Z</time></trkpt><trkpt lat="36.5948464" lon="10.4623178"><ele>70.0</ele><time>2026-04-24T08:50:29.163Z</time></trkpt><trkpt lat="36.5947465" lon="10.4625693"><ele>70.0</ele><time>2026-04-24T08:50:30.158Z</time></trkpt><trkpt lat="36.5946445" lon="10.4628231"><ele>70.0</ele><time>2026-04-24T08:50:31.154Z</time></trkpt><trkpt lat="36.5945469" lon="10.4630773"><ele>70.5</ele><time>2026-04-24T08:50:32.124Z</time></trkpt><trkpt lat="36.5944514" lon="10.4633353"><ele>71.0</ele><time>2026-04-24T08:50:33.103Z</time></trkpt><trkpt lat="36.5943574" lon="10.4635883"><ele>71.0</ele><time>2026-04-24T08:50:34.159Z</time></trkpt><trkpt lat="36.5942595" lon="10.463844"><ele>71.0</ele><time>2026-04-24T08:50:35.146Z</time></trkpt><trkpt lat="36.5941642" lon="10.4641004"><ele>71.0</ele><time>2026-04-24T08:50:36.123Z</time></trkpt><trkpt lat="36.5940702" lon="10.4643545"><ele>71.0</ele><time>2026-04-24T08:50:37.105Z</time></trkpt><trkpt lat="36.5939731" lon="10.4646109"><ele>69.5</ele><time>2026-04-24T08:50:38.15Z</time></trkpt><trkpt lat="36.5938807" lon="10.4648698"><ele>68.0</ele><time>2026-04-24T08:50:39.155Z</time></trkpt><trkpt lat="36.593792" lon="10.4651268"><ele>68.0</ele><time>2026-04-24T08:50:40.168Z</time></trkpt><trkpt lat="36.5936995" lon="10.4653876"><ele>68.0</ele><time>2026-04-24T08:50:41.161Z</time></trkpt><trkpt lat="36.5936077" lon="10.4656511"><ele>69.0</ele><time>2026-04-24T08:50:42.169Z</time></trkpt><trkpt lat="36.5935153" lon="10.4659145"><ele>70.0</ele><time>2026-04-24T08:50:43.159Z</time></trkpt><trkpt lat="36.5934217" lon="10.4661775"><ele>69.0</ele><time>2026-04-24T08:50:44.145Z</time></trkpt><trkpt lat="36.5933299" lon="10.4664392"><ele>68.0</ele><time>2026-04-24T08:50:45.156Z</time></trkpt><trkpt lat="36.5932353" lon="10.4666988"><ele>68.0</ele><time>2026-04-24T08:50:46.163Z</time></trkpt><trkpt lat="36.5931426" lon="10.4669626"><ele>68.0</ele><time>2026-04-24T08:50:47.131Z</time></trkpt><trkpt lat="36.5930537" lon="10.4672232"><ele>67.5</ele><time>2026-04-24T08:50:48.168Z</time></trkpt><trkpt lat="36.5929557" lon="10.4674837"><ele>67.0</ele><time>2026-04-24T08:50:49.13Z</time></trkpt><trkpt lat="36.5928591" lon="10.4677432"><ele>67.5</ele><time>2026-04-24T08:50:50.123Z</time></trkpt><trkpt lat="36.5927704" lon="10.4680006"><ele>68.0</ele><time>2026-04-24T08:50:51.158Z</time></trkpt><trkpt lat="36.5926755" lon="10.4682593"><ele>68.0</ele><time>2026-04-24T08:50:52.156Z</time></trkpt><trkpt lat="36.5925825" lon="10.4685156"><ele>68.0</ele><time>2026-04-24T08:50:53.142Z</time></trkpt><trkpt lat="36.5924891" lon="10.468783"><ele>68.5</ele><time>2026-04-24T08:50:54.151Z</time></trkpt><trkpt lat="36.5923989" lon="10.4690484"><ele>69.0</ele><time>2026-04-24T08:50:55.158Z</time></trkpt><trkpt lat="36.5922995" lon="10.4693136"><ele>69.0</ele><time>2026-04-24T08:50:56.159Z</time></trkpt><trkpt lat="36.592214" lon="10.4695741"><ele>69.0</ele><time>2026-04-24T08:50:57.176Z</time></trkpt><trkpt lat="36.5921237" lon="10.4698364"><ele>69.0</ele><time>2026-04-24T08:50:58.161Z</time></trkpt><trkpt lat="36.5920289" lon="10.4700988"><ele>69.0</ele><time>2026-04-24T08:50:59.166Z</time></trkpt><trkpt lat="36.5919395" lon="10.470363"><ele>68.5</ele><time>2026-04-24T08:51:00.146Z</time></trkpt><trkpt lat="36.5918432" lon="10.4706263"><ele>68.0</ele><time>2026-04-24T08:51:01.154Z</time></trkpt><trkpt lat="36.5917521" lon="10.4708846"><ele>68.0</ele><time>2026-04-24T08:51:02.155Z</time></trkpt><trkpt lat="36.5916565" lon="10.4711473"><ele>68.0</ele><time>2026-04-24T08:51:03.138Z</time></trkpt><trkpt lat="36.5915629" lon="10.4714038"><ele>68.0</ele><time>2026-04-24T08:51:04.147Z</time></trkpt><trkpt lat="36.5914706" lon="10.4716614"><ele>68.0</ele><time>2026-04-24T08:51:05.158Z</time></trkpt><trkpt lat="36.591369" lon="10.4719216"><ele>68.0</ele><time>2026-04-24T08:51:06.157Z</time></trkpt><trkpt lat="36.591275" lon="10.472176"><ele>68.0</ele><time>2026-04-24T08:51:07.166Z</time></trkpt><trkpt lat="36.5911786" lon="10.4724314"><ele>68.33333333333334</ele><time>2026-04-24T08:51:08.157Z</time></trkpt><trkpt lat="36.591083" lon="10.4726835"><ele>68.66666666666667</ele><time>2026-04-24T08:51:09.131Z</time></trkpt><trkpt lat="36.5909861" lon="10.4729354"><ele>69.0</ele><time>2026-04-24T08:51:10.169Z</time></trkpt><trkpt lat="36.5908897" lon="10.4731853"><ele>69.0</ele><time>2026-04-24T08:51:11.163Z</time></trkpt><trkpt lat="36.590791" lon="10.4734326"><ele>69.0</ele><time>2026-04-24T08:51:12.16Z</time></trkpt><trkpt lat="36.5906936" lon="10.4736825"><ele>69.0</ele><time>2026-04-24T08:51:13.165Z</time></trkpt><trkpt lat="36.5905957" lon="10.4739309"><ele>69.0</ele><time>2026-04-24T08:51:14.153Z</time></trkpt><trkpt lat="36.5904992" lon="10.4741829"><ele>69.0</ele><time>2026-04-24T08:51:15.159Z</time></trkpt><trkpt lat="36.5904031" lon="10.4744357"><ele>69.0</ele><time>2026-04-24T08:51:16.156Z</time></trkpt><trkpt lat="36.5903041" lon="10.4746835"><ele>70.5</ele><time>2026-04-24T08:51:17.158Z</time></trkpt><trkpt lat="36.5902045" lon="10.4749342"><ele>72.0</ele><time>2026-04-24T08:51:18.163Z</time></trkpt><trkpt lat="36.5901001" lon="10.4751868"><ele>71.5</ele><time>2026-04-24T08:51:19.189Z</time></trkpt><trkpt lat="36.5899944" lon="10.4754406"><ele>71.0</ele><time>2026-04-24T08:51:20.162Z</time></trkpt><trkpt lat="36.589893" lon="10.4756936"><ele>71.0</ele><time>2026-04-24T08:51:21.174Z</time></trkpt><trkpt lat="36.5897895" lon="10.4759444"><ele>71.0</ele><time>2026-04-24T08:51:22.167Z</time></trkpt><trkpt lat="36.5896854" lon="10.4761924"><ele>70.0</ele><time>2026-04-24T08:51:23.157Z</time></trkpt><trkpt lat="36.5895815" lon="10.4764431"><ele>69.0</ele><time>2026-04-24T08:51:24.157Z</time></trkpt><trkpt lat="36.58947" lon="10.4766915"><ele>69.0</ele><time>2026-04-24T08:51:25.16Z</time></trkpt><trkpt lat="36.5893611" lon="10.4769408"><ele>69.0</ele><time>2026-04-24T08:51:26.159Z</time></trkpt><trkpt lat="36.5892605" lon="10.4771962"><ele>69.0</ele><time>2026-04-24T08:51:27.148Z</time></trkpt><trkpt lat="36.5891563" lon="10.4774485"><ele>69.0</ele><time>2026-04-24T08:51:28.163Z</time></trkpt><trkpt lat="36.5890477" lon="10.4776969"><ele>68.0</ele><time>2026-04-24T08:51:29.165Z</time></trkpt><trkpt lat="36.5889437" lon="10.4779456"><ele>67.0</ele><time>2026-04-24T08:51:30.147Z</time></trkpt><trkpt lat="36.5888341" lon="10.4781927"><ele>67.0</ele><time>2026-04-24T08:51:31.153Z</time></trkpt><trkpt lat="36.5887241" lon="10.4784366"><ele>67.0</ele><time>2026-04-24T08:51:32.153Z</time></trkpt><trkpt lat="36.5886139" lon="10.478674"><ele>67.0</ele><time>2026-04-24T08:51:33.154Z</time></trkpt><trkpt lat="36.5885112" lon="10.4788949"><ele>67.33333333333333</ele><time>2026-04-24T08:51:34.159Z</time></trkpt><trkpt lat="36.5884104" lon="10.4791177"><ele>67.66666666666667</ele><time>2026-04-24T08:51:35.166Z</time></trkpt><trkpt lat="36.5883041" lon="10.4793541"><ele>68.0</ele><time>2026-04-24T08:51:36.171Z</time></trkpt><trkpt lat="36.5881942" lon="10.4795943"><ele>68.5</ele><time>2026-04-24T08:51:37.162Z</time></trkpt><trkpt lat="36.5880781" lon="10.4798427"><ele>69.0</ele><time>2026-04-24T08:51:38.169Z</time></trkpt><trkpt lat="36.5879645" lon="10.4800923"><ele>69.0</ele><time>2026-04-24T08:51:39.128Z</time></trkpt><trkpt lat="36.5878455" lon="10.4803412"><ele>69.0</ele><time>2026-04-24T08:51:40.145Z</time></trkpt><trkpt lat="36.5877227" lon="10.4805897"><ele>69.0</ele><time>2026-04-24T08:51:41.163Z</time></trkpt><trkpt lat="36.5875945" lon="10.4808399"><ele>69.0</ele><time>2026-04-24T08:51:42.156Z</time></trkpt><trkpt lat="36.5874663" lon="10.481086"><ele>69.5</ele><time>2026-04-24T08:51:43.14Z</time></trkpt><trkpt lat="36.5873333" lon="10.4813353"><ele>70.0</ele><time>2026-04-24T08:51:44.16Z</time></trkpt><trkpt lat="36.5871969" lon="10.4815898"><ele>70.0</ele><time>2026-04-24T08:51:45.168Z</time></trkpt><trkpt lat="36.5870638" lon="10.4818466"><ele>70.0</ele><time>2026-04-24T08:51:46.147Z</time></trkpt><trkpt lat="36.5869385" lon="10.4821031"><ele>69.0</ele><time>2026-04-24T08:51:47.166Z</time></trkpt><trkpt lat="36.5868128" lon="10.4823577"><ele>68.0</ele><time>2026-04-24T08:51:48.157Z</time></trkpt><trkpt lat="36.5866863" lon="10.4826077"><ele>68.0</ele><time>2026-04-24T08:51:49.156Z</time></trkpt><trkpt lat="36.5865517" lon="10.4828563"><ele>68.0</ele><time>2026-04-24T08:51:50.161Z</time></trkpt><trkpt lat="36.5864208" lon="10.4831093"><ele>68.0</ele><time>2026-04-24T08:51:51.158Z</time></trkpt><trkpt lat="36.5862872" lon="10.4833605"><ele>68.0</ele><time>2026-04-24T08:51:52.168Z</time></trkpt><trkpt lat="36.5861573" lon="10.4836068"><ele>69.5</ele><time>2026-04-24T08:51:53.153Z</time></trkpt><trkpt lat="36.5860283" lon="10.4838574"><ele>71.0</ele><time>2026-04-24T08:51:54.162Z</time></trkpt><trkpt lat="36.585897" lon="10.4841103"><ele>71.0</ele><time>2026-04-24T08:51:55.116Z</time></trkpt><trkpt lat="36.5857587" lon="10.4843551"><ele>71.0</ele><time>2026-04-24T08:51:56.146Z</time></trkpt><trkpt lat="36.5856216" lon="10.4846017"><ele>72.0</ele><time>2026-04-24T08:51:57.163Z</time></trkpt><trkpt lat="36.585492" lon="10.4848474"><ele>73.0</ele><time>2026-04-24T08:51:58.166Z</time></trkpt><trkpt lat="36.585357" lon="10.4850883"><ele>74.0</ele><time>2026-04-24T08:51:59.175Z</time></trkpt><trkpt lat="36.5852251" lon="10.4853348"><ele>75.0</ele><time>2026-04-24T08:52:00.148Z</time></trkpt><trkpt lat="36.5850922" lon="10.4855792"><ele>75.0</ele><time>2026-04-24T08:52:01.171Z</time></trkpt><trkpt lat="36.584959" lon="10.4858182"><ele>75.0</ele><time>2026-04-24T08:52:02.132Z</time></trkpt><trkpt lat="36.5848255" lon="10.4860491"><ele>73.0</ele><time>2026-04-24T08:52:03.164Z</time></trkpt><trkpt lat="36.584689" lon="10.486289"><ele>71.0</ele><time>2026-04-24T08:52:04.165Z</time></trkpt><trkpt lat="36.5845515" lon="10.486523"><ele>72.5</ele><time>2026-04-24T08:52:05.157Z</time></trkpt><trkpt lat="36.5844182" lon="10.486751"><ele>74.0</ele><time>2026-04-24T08:52:06.156Z</time></trkpt><trkpt lat="36.5842796" lon="10.4869886"><ele>73.5</ele><time>2026-04-24T08:52:07.16Z</time></trkpt><trkpt lat="36.5841469" lon="10.4872189"><ele>73.0</ele><time>2026-04-24T08:52:08.169Z</time></trkpt><trkpt lat="36.5840114" lon="10.4874516"><ele>73.0</ele><time>2026-04-24T08:52:09.161Z</time></trkpt><trkpt lat="36.5838773" lon="10.487682"><ele>73.0</ele><time>2026-04-24T08:52:10.158Z</time></trkpt><trkpt lat="36.5837403" lon="10.4879075"><ele>73.5</ele><time>2026-04-24T08:52:11.153Z</time></trkpt><trkpt lat="36.583605" lon="10.4881341"><ele>74.0</ele><time>2026-04-24T08:52:12.145Z</time></trkpt><trkpt lat="36.5834688" lon="10.4883621"><ele>74.0</ele><time>2026-04-24T08:52:13.16Z</time></trkpt><trkpt lat="36.5833335" lon="10.4885878"><ele>74.0</ele><time>2026-04-24T08:52:14.129Z</time></trkpt><trkpt lat="36.5831979" lon="10.4888048"><ele>74.0</ele><time>2026-04-24T08:52:15.161Z</time></trkpt><trkpt lat="36.5830676" lon="10.4890182"><ele>74.33333333333334</ele><time>2026-04-24T08:52:16.161Z</time></trkpt><trkpt lat="36.582942" lon="10.4892228"><ele>74.66666666666667</ele><time>2026-04-24T08:52:17.16Z</time></trkpt><trkpt lat="36.5828109" lon="10.4894343"><ele>75.0</ele><time>2026-04-24T08:52:18.143Z</time></trkpt><trkpt lat="36.5826768" lon="10.4896522"><ele>73.5</ele><time>2026-04-24T08:52:19.144Z</time></trkpt><trkpt lat="36.5825397" lon="10.4898781"><ele>72.0</ele><time>2026-04-24T08:52:20.154Z</time></trkpt><trkpt lat="36.5824042" lon="10.4901025"><ele>72.0</ele><time>2026-04-24T08:52:21.152Z</time></trkpt><trkpt lat="36.582269" lon="10.4903231"><ele>72.0</ele><time>2026-04-24T08:52:22.179Z</time></trkpt><trkpt lat="36.582129" lon="10.4905489"><ele>72.5</ele><time>2026-04-24T08:52:23.14Z</time></trkpt><trkpt lat="36.5819839" lon="10.4907758"><ele>73.0</ele><time>2026-04-24T08:52:24.171Z</time></trkpt><trkpt lat="36.5818423" lon="10.4909956"><ele>73.0</ele><time>2026-04-24T08:52:25.164Z</time></trkpt><trkpt lat="36.5816977" lon="10.4912099"><ele>73.0</ele><time>2026-04-24T08:52:26.152Z</time></trkpt><trkpt lat="36.5815501" lon="10.4914254"><ele>71.5</ele><time>2026-04-24T08:52:27.171Z</time></trkpt><trkpt lat="36.5814071" lon="10.4916397"><ele>70.0</ele><time>2026-04-24T08:52:28.172Z</time></trkpt><trkpt lat="36.5812623" lon="10.491858"><ele>70.66666666666666</ele><time>2026-04-24T08:52:29.16Z</time></trkpt><trkpt lat="36.5811203" lon="10.4920723"><ele>71.33333333333333</ele><time>2026-04-24T08:52:30.162Z</time></trkpt><trkpt lat="36.5809794" lon="10.49228"><ele>72.0</ele><time>2026-04-24T08:52:31.165Z</time></trkpt><trkpt lat="36.5808394" lon="10.492484"><ele>72.0</ele><time>2026-04-24T08:52:32.152Z</time></trkpt><trkpt lat="36.5806972" lon="10.492688"><ele>72.0</ele><time>2026-04-24T08:52:33.177Z</time></trkpt><trkpt lat="36.5805509" lon="10.4928944"><ele>72.0</ele><time>2026-04-24T08:52:34.163Z</time></trkpt><trkpt lat="36.5804105" lon="10.4930986"><ele>72.33333333333333</ele><time>2026-04-24T08:52:35.157Z</time></trkpt><trkpt lat="36.5802698" lon="10.4933061"><ele>72.66666666666666</ele><time>2026-04-24T08:52:36.138Z</time></trkpt><trkpt lat="36.5801328" lon="10.4935125"><ele>73.0</ele><time>2026-04-24T08:52:37.155Z</time></trkpt><trkpt lat="36.5799935" lon="10.4937149"><ele>72.66666666666666</ele><time>2026-04-24T08:52:38.159Z</time></trkpt><trkpt lat="36.5798522" lon="10.493923"><ele>72.33333333333333</ele><time>2026-04-24T08:52:39.141Z</time></trkpt><trkpt lat="36.579711" lon="10.4941275"><ele>72.0</ele><time>2026-04-24T08:52:40.142Z</time></trkpt><trkpt lat="36.5795684" lon="10.4943357"><ele>71.33333333333333</ele><time>2026-04-24T08:52:41.159Z</time></trkpt><trkpt lat="36.579426" lon="10.4945458"><ele>70.66666666666666</ele><time>2026-04-24T08:52:42.149Z</time></trkpt><trkpt lat="36.5792778" lon="10.4947567"><ele>70.0</ele><time>2026-04-24T08:52:43.157Z</time></trkpt><trkpt lat="36.5791273" lon="10.4949736"><ele>70.0</ele><time>2026-04-24T08:52:44.152Z</time></trkpt><trkpt lat="36.5789841" lon="10.4951899"><ele>70.0</ele><time>2026-04-24T08:52:45.165Z</time></trkpt><trkpt lat="36.5788398" lon="10.4954086"><ele>70.0</ele><time>2026-04-24T08:52:46.156Z</time></trkpt><trkpt lat="36.5786933" lon="10.4956243"><ele>70.0</ele><time>2026-04-24T08:52:47.132Z</time></trkpt><trkpt lat="36.5785502" lon="10.4958429"><ele>70.0</ele><time>2026-04-24T08:52:48.168Z</time></trkpt><trkpt lat="36.5784077" lon="10.4960648"><ele>70.0</ele><time>2026-04-24T08:52:49.158Z</time></trkpt><trkpt lat="36.5782585" lon="10.4962844"><ele>70.0</ele><time>2026-04-24T08:52:50.166Z</time></trkpt><trkpt lat="36.5781125" lon="10.4965081"><ele>70.0</ele><time>2026-04-24T08:52:51.157Z</time></trkpt><trkpt lat="36.5779631" lon="10.4967273"><ele>70.0</ele><time>2026-04-24T08:52:52.121Z</time></trkpt><trkpt lat="36.5778151" lon="10.4969576"><ele>70.0</ele><time>2026-04-24T08:52:53.16Z</time></trkpt><trkpt lat="36.5776708" lon="10.497187"><ele>70.0</ele><time>2026-04-24T08:52:54.158Z</time></trkpt><trkpt lat="36.5775317" lon="10.4974154"><ele>70.0</ele><time>2026-04-24T08:52:55.172Z</time></trkpt><trkpt lat="36.5773868" lon="10.4976488"><ele>70.0</ele><time>2026-04-24T08:52:56.173Z</time></trkpt><trkpt lat="36.5772448" lon="10.4978829"><ele>70.0</ele><time>2026-04-24T08:52:57.155Z</time></trkpt><trkpt lat="36.5771056" lon="10.4981172"><ele>69.5</ele><time>2026-04-24T08:52:58.171Z</time></trkpt><trkpt lat="36.5769684" lon="10.4983496"><ele>69.0</ele><time>2026-04-24T08:52:59.157Z</time></trkpt><trkpt lat="36.5768349" lon="10.4985805"><ele>67.5</ele><time>2026-04-24T08:53:00.141Z</time></trkpt><trkpt lat="36.5766954" lon="10.4988225"><ele>66.0</ele><time>2026-04-24T08:53:01.171Z</time></trkpt><trkpt lat="36.5765501" lon="10.4990633"><ele>66.0</ele><time>2026-04-24T08:53:02.149Z</time></trkpt><trkpt lat="36.5764106" lon="10.4993056"><ele>66.0</ele><time>2026-04-24T08:53:03.157Z</time></trkpt><trkpt lat="36.5762699" lon="10.4995449"><ele>66.5</ele><time>2026-04-24T08:53:04.162Z</time></trkpt><trkpt lat="36.5761356" lon="10.4997801"><ele>67.0</ele><time>2026-04-24T08:53:05.148Z</time></trkpt><trkpt lat="36.5760038" lon="10.5000168"><ele>67.0</ele><time>2026-04-24T08:53:06.167Z</time></trkpt><trkpt lat="36.5758725" lon="10.5002534"><ele>67.0</ele><time>2026-04-24T08:53:07.152Z</time></trkpt><trkpt lat="36.5757446" lon="10.5004912"><ele>66.5</ele><time>2026-04-24T08:53:08.149Z</time></trkpt><trkpt lat="36.5756185" lon="10.5007258"><ele>66.0</ele><time>2026-04-24T08:53:09.142Z</time></trkpt><trkpt lat="36.5754966" lon="10.5009603"><ele>66.0</ele><time>2026-04-24T08:53:10.162Z</time></trkpt><trkpt lat="36.575377" lon="10.5011942"><ele>66.0</ele><time>2026-04-24T08:53:11.152Z</time></trkpt><trkpt lat="36.5752551" lon="10.5014288"><ele>66.0</ele><time>2026-04-24T08:53:12.124Z</time></trkpt><trkpt lat="36.5751337" lon="10.5016656"><ele>65.66666666666667</ele><time>2026-04-24T08:53:13.164Z</time></trkpt><trkpt lat="36.5750144" lon="10.5019025"><ele>65.33333333333334</ele><time>2026-04-24T08:53:14.173Z</time></trkpt><trkpt lat="36.5748961" lon="10.5021358"><ele>65.0</ele><time>2026-04-24T08:53:15.152Z</time></trkpt><trkpt lat="36.5747781" lon="10.5023726"><ele>64.66666666666667</ele><time>2026-04-24T08:53:16.156Z</time></trkpt><trkpt lat="36.574662" lon="10.5026099"><ele>64.33333333333333</ele><time>2026-04-24T08:53:17.159Z</time></trkpt><trkpt lat="36.574543" lon="10.5028496"><ele>64.0</ele><time>2026-04-24T08:53:18.145Z</time></trkpt><trkpt lat="36.5744261" lon="10.5030916"><ele>63.0</ele><time>2026-04-24T08:53:19.167Z</time></trkpt><trkpt lat="36.5743101" lon="10.5033345"><ele>62.0</ele><time>2026-04-24T08:53:20.149Z</time></trkpt><trkpt lat="36.5741962" lon="10.5035748"><ele>62.0</ele><time>2026-04-24T08:53:21.163Z</time></trkpt><trkpt lat="36.5740822" lon="10.5038148"><ele>62.0</ele><time>2026-04-24T08:53:22.172Z</time></trkpt><trkpt lat="36.5739716" lon="10.504055"><ele>62.0</ele><time>2026-04-24T08:53:23.112Z</time></trkpt><trkpt lat="36.573861" lon="10.5042942"><ele>62.0</ele><time>2026-04-24T08:53:24.114Z</time></trkpt><trkpt lat="36.573752" lon="10.5045342"><ele>62.0</ele><time>2026-04-24T08:53:25.163Z</time></trkpt><trkpt lat="36.5736404" lon="10.5047841"><ele>62.0</ele><time>2026-04-24T08:53:26.168Z</time></trkpt><trkpt lat="36.5735318" lon="10.5050272"><ele>62.0</ele><time>2026-04-24T08:53:27.164Z</time></trkpt><trkpt lat="36.5734228" lon="10.5052679"><ele>62.0</ele><time>2026-04-24T08:53:28.171Z</time></trkpt><trkpt lat="36.5733111" lon="10.5055142"><ele>62.0</ele><time>2026-04-24T08:53:29.144Z</time></trkpt><trkpt lat="36.5732" lon="10.5057597"><ele>62.0</ele><time>2026-04-24T08:53:30.166Z</time></trkpt><trkpt lat="36.5730859" lon="10.5060101"><ele>61.5</ele><time>2026-04-24T08:53:31.127Z</time></trkpt><trkpt lat="36.5729673" lon="10.5062599"><ele>61.0</ele><time>2026-04-24T08:53:32.148Z</time></trkpt><trkpt lat="36.5728536" lon="10.5065163"><ele>62.0</ele><time>2026-04-24T08:53:33.152Z</time></trkpt><trkpt lat="36.5727365" lon="10.5067737"><ele>63.0</ele><time>2026-04-24T08:53:34.144Z</time></trkpt><trkpt lat="36.5726177" lon="10.507031"><ele>62.5</ele><time>2026-04-24T08:53:35.108Z</time></trkpt><trkpt lat="36.5725008" lon="10.5072853"><ele>62.0</ele><time>2026-04-24T08:53:36.11Z</time></trkpt><trkpt lat="36.5723896" lon="10.5075348"><ele>62.0</ele><time>2026-04-24T08:53:37.143Z</time></trkpt><trkpt lat="36.5722773" lon="10.5077769"><ele>62.0</ele><time>2026-04-24T08:53:38.131Z</time></trkpt><trkpt lat="36.5721592" lon="10.5080121"><ele>62.0</ele><time>2026-04-24T08:53:39.167Z</time></trkpt><trkpt lat="36.5720535" lon="10.5082375"><ele>62.0</ele><time>2026-04-24T08:53:40.168Z</time></trkpt><trkpt lat="36.5719488" lon="10.5084573"><ele>62.0</ele><time>2026-04-24T08:53:41.163Z</time></trkpt><trkpt lat="36.5718477" lon="10.5086715"><ele>62.0</ele><time>2026-04-24T08:53:42.162Z</time></trkpt><trkpt lat="36.5717414" lon="10.5088826"><ele>62.0</ele><time>2026-04-24T08:53:43.152Z</time></trkpt><trkpt lat="36.5716336" lon="10.5090961"><ele>62.0</ele><time>2026-04-24T08:53:44.158Z</time></trkpt><trkpt lat="36.5715241" lon="10.5093097"><ele>62.0</ele><time>2026-04-24T08:53:45.147Z</time></trkpt><trkpt lat="36.571416" lon="10.5095236"><ele>61.0</ele><time>2026-04-24T08:53:46.163Z</time></trkpt><trkpt lat="36.5713083" lon="10.5097416"><ele>60.0</ele><time>2026-04-24T08:53:47.137Z</time></trkpt><trkpt lat="36.5711981" lon="10.5099625"><ele>59.0</ele><time>2026-04-24T08:53:48.162Z</time></trkpt><trkpt lat="36.5710822" lon="10.5101923"><ele>58.66666666666667</ele><time>2026-04-24T08:53:49.144Z</time></trkpt><trkpt lat="36.5709605" lon="10.5104172"><ele>58.33333333333333</ele><time>2026-04-24T08:53:50.158Z</time></trkpt><trkpt lat="36.5708347" lon="10.510648"><ele>58.0</ele><time>2026-04-24T08:53:51.157Z</time></trkpt><trkpt lat="36.5707109" lon="10.5108759"><ele>58.0</ele><time>2026-04-24T08:53:52.123Z</time></trkpt><trkpt lat="36.5705811" lon="10.5111022"><ele>58.0</ele><time>2026-04-24T08:53:53.154Z</time></trkpt><trkpt lat="36.5704511" lon="10.5113262"><ele>58.0</ele><time>2026-04-24T08:53:54.167Z</time></trkpt><trkpt lat="36.5703208" lon="10.5115566"><ele>58.0</ele><time>2026-04-24T08:53:55.166Z</time></trkpt><trkpt lat="36.5701895" lon="10.5117811"><ele>58.0</ele><time>2026-04-24T08:53:56.16Z</time></trkpt><trkpt lat="36.5700561" lon="10.5120037"><ele>58.0</ele><time>2026-04-24T08:53:57.162Z</time></trkpt><trkpt lat="36.5699185" lon="10.5122258"><ele>58.0</ele><time>2026-04-24T08:53:58.13Z</time></trkpt><trkpt lat="36.5697825" lon="10.5124521"><ele>58.0</ele><time>2026-04-24T08:53:59.136Z</time></trkpt><trkpt lat="36.5696448" lon="10.5126771"><ele>57.33333333333333</ele><time>2026-04-24T08:54:00.132Z</time></trkpt><trkpt lat="36.569507" lon="10.5128901"><ele>56.66666666666667</ele><time>2026-04-24T08:54:01.161Z</time></trkpt><trkpt lat="36.5693676" lon="10.513107"><ele>56.0</ele><time>2026-04-24T08:54:02.149Z</time></trkpt><trkpt lat="36.5692302" lon="10.51332"><ele>56.0</ele><time>2026-04-24T08:54:03.149Z</time></trkpt><trkpt lat="36.5690904" lon="10.5135297"><ele>56.0</ele><time>2026-04-24T08:54:04.157Z</time></trkpt><trkpt lat="36.5689499" lon="10.5137395"><ele>56.0</ele><time>2026-04-24T08:54:05.162Z</time></trkpt><trkpt lat="36.5688074" lon="10.5139507"><ele>56.0</ele><time>2026-04-24T08:54:06.171Z</time></trkpt><trkpt lat="36.568664" lon="10.5141629"><ele>56.0</ele><time>2026-04-24T08:54:07.166Z</time></trkpt><trkpt lat="36.5685201" lon="10.5143633"><ele>56.0</ele><time>2026-04-24T08:54:08.129Z</time></trkpt><trkpt lat="36.5683773" lon="10.5145612"><ele>56.0</ele><time>2026-04-24T08:54:09.161Z</time></trkpt><trkpt lat="36.5682343" lon="10.5147607"><ele>56.0</ele><time>2026-04-24T08:54:10.155Z</time></trkpt><trkpt lat="36.5680933" lon="10.5149582"><ele>56.0</ele><time>2026-04-24T08:54:11.164Z</time></trkpt><trkpt lat="36.5679451" lon="10.5151617"><ele>56.66666666666667</ele><time>2026-04-24T08:54:12.168Z</time></trkpt><trkpt lat="36.5677949" lon="10.515359"><ele>57.33333333333333</ele><time>2026-04-24T08:54:13.149Z</time></trkpt><trkpt lat="36.5676428" lon="10.5155616"><ele>58.0</ele><time>2026-04-24T08:54:14.161Z</time></trkpt><trkpt lat="36.5674845" lon="10.5157662"><ele>58.0</ele><time>2026-04-24T08:54:15.141Z</time></trkpt><trkpt lat="36.5673281" lon="10.5159708"><ele>58.0</ele><time>2026-04-24T08:54:16.166Z</time></trkpt><trkpt lat="36.5671739" lon="10.5161718"><ele>57.5</ele><time>2026-04-24T08:54:17.166Z</time></trkpt><trkpt lat="36.5670098" lon="10.5163807"><ele>57.0</ele><time>2026-04-24T08:54:18.15Z</time></trkpt><trkpt lat="36.5668462" lon="10.51658"><ele>57.0</ele><time>2026-04-24T08:54:19.153Z</time></trkpt><trkpt lat="36.5666814" lon="10.5167768"><ele>57.0</ele><time>2026-04-24T08:54:20.172Z</time></trkpt><trkpt lat="36.5665131" lon="10.5169724"><ele>56.5</ele><time>2026-04-24T08:54:21.148Z</time></trkpt><trkpt lat="36.5663466" lon="10.5171677"><ele>56.0</ele><time>2026-04-24T08:54:22.162Z</time></trkpt><trkpt lat="36.5661825" lon="10.5173637"><ele>56.0</ele><time>2026-04-24T08:54:23.149Z</time></trkpt><trkpt lat="36.5660183" lon="10.5175506"><ele>56.0</ele><time>2026-04-24T08:54:24.15Z</time></trkpt><trkpt lat="36.5658508" lon="10.5177336"><ele>56.0</ele><time>2026-04-24T08:54:25.171Z</time></trkpt><trkpt lat="36.565685" lon="10.5179178"><ele>56.333333333333336</ele><time>2026-04-24T08:54:26.157Z</time></trkpt><trkpt lat="36.5655169" lon="10.5180996"><ele>56.66666666666667</ele><time>2026-04-24T08:54:27.174Z</time></trkpt><trkpt lat="36.565348" lon="10.5182808"><ele>57.0</ele><time>2026-04-24T08:54:28.157Z</time></trkpt><trkpt lat="36.5651823" lon="10.5184648"><ele>57.0</ele><time>2026-04-24T08:54:29.136Z</time></trkpt><trkpt lat="36.5650123" lon="10.5186462"><ele>57.0</ele><time>2026-04-24T08:54:30.115Z</time></trkpt><trkpt lat="36.5648422" lon="10.5188212"><ele>57.0</ele><time>2026-04-24T08:54:31.163Z</time></trkpt><trkpt lat="36.5646739" lon="10.5189922"><ele>57.66666666666667</ele><time>2026-04-24T08:54:32.152Z</time></trkpt><trkpt lat="36.5645041" lon="10.5191625"><ele>58.333333333333336</ele><time>2026-04-24T08:54:33.124Z</time></trkpt><trkpt lat="36.5643325" lon="10.5193293"><ele>59.0</ele><time>2026-04-24T08:54:34.166Z</time></trkpt><trkpt lat="36.5641597" lon="10.5194933"><ele>59.0</ele><time>2026-04-24T08:54:35.144Z</time></trkpt><trkpt lat="36.5639894" lon="10.5196587"><ele>59.0</ele><time>2026-04-24T08:54:36.163Z</time></trkpt><trkpt lat="36.563819" lon="10.5198211"><ele>59.0</ele><time>2026-04-24T08:54:37.153Z</time></trkpt><trkpt lat="36.5636434" lon="10.5199889"><ele>59.0</ele><time>2026-04-24T08:54:38.155Z</time></trkpt><trkpt lat="36.563463" lon="10.5201527"><ele>59.0</ele><time>2026-04-24T08:54:39.165Z</time></trkpt><trkpt lat="36.5632795" lon="10.5203159"><ele>59.0</ele><time>2026-04-24T08:54:40.134Z</time></trkpt><trkpt lat="36.5630996" lon="10.5204768"><ele>59.0</ele><time>2026-04-24T08:54:41.129Z</time></trkpt><trkpt lat="36.56292" lon="10.520639"><ele>59.0</ele><time>2026-04-24T08:54:42.167Z</time></trkpt><trkpt lat="36.5627355" lon="10.5208003"><ele>59.0</ele><time>2026-04-24T08:54:43.15Z</time></trkpt><trkpt lat="36.5625501" lon="10.5209606"><ele>59.0</ele><time>2026-04-24T08:54:44.158Z</time></trkpt><trkpt lat="36.5623668" lon="10.5211167"><ele>59.0</ele><time>2026-04-24T08:54:45.138Z</time></trkpt><trkpt lat="36.5621813" lon="10.5212752"><ele>59.0</ele><time>2026-04-24T08:54:46.164Z</time></trkpt><trkpt lat="36.5619936" lon="10.5214243"><ele>59.5</ele><time>2026-04-24T08:54:47.173Z</time></trkpt><trkpt lat="36.5618045" lon="10.5215735"><ele>60.0</ele><time>2026-04-24T08:54:48.17Z</time></trkpt><trkpt lat="36.5616127" lon="10.5217264"><ele>60.0</ele><time>2026-04-24T08:54:49.166Z</time></trkpt><trkpt lat="36.5614196" lon="10.5218774"><ele>60.0</ele><time>2026-04-24T08:54:50.154Z</time></trkpt><trkpt lat="36.5612273" lon="10.5220269"><ele>60.5</ele><time>2026-04-24T08:54:51.148Z</time></trkpt><trkpt lat="36.5610368" lon="10.5221775"><ele>61.0</ele><time>2026-04-24T08:54:52.153Z</time></trkpt><trkpt lat="36.5608425" lon="10.5223262"><ele>61.0</ele><time>2026-04-24T08:54:53.152Z</time></trkpt><trkpt lat="36.5606493" lon="10.5224796"><ele>61.0</ele><time>2026-04-24T08:54:54.177Z</time></trkpt><trkpt lat="36.5604544" lon="10.5226272"><ele>61.0</ele><time>2026-04-24T08:54:55.151Z</time></trkpt><trkpt lat="36.5602623" lon="10.522772"><ele>61.0</ele><time>2026-04-24T08:54:56.159Z</time></trkpt><trkpt lat="36.560069" lon="10.5229204"><ele>60.5</ele><time>2026-04-24T08:54:57.153Z</time></trkpt><trkpt lat="36.5598752" lon="10.5230664"><ele>60.0</ele><time>2026-04-24T08:54:58.15Z</time></trkpt><trkpt lat="36.5596833" lon="10.5232177"><ele>60.5</ele><time>2026-04-24T08:54:59.142Z</time></trkpt><trkpt lat="36.5594919" lon="10.5233674"><ele>61.0</ele><time>2026-04-24T08:55:00.137Z</time></trkpt><trkpt lat="36.559301" lon="10.5235131"><ele>61.0</ele><time>2026-04-24T08:55:01.159Z</time></trkpt><trkpt lat="36.5591114" lon="10.5236617"><ele>61.0</ele><time>2026-04-24T08:55:02.158Z</time></trkpt><trkpt lat="36.5589194" lon="10.5238059"><ele>61.0</ele><time>2026-04-24T08:55:03.156Z</time></trkpt><trkpt lat="36.5587314" lon="10.5239542"><ele>61.5</ele><time>2026-04-24T08:55:04.16Z</time></trkpt><trkpt lat="36.5585434" lon="10.5241056"><ele>62.0</ele><time>2026-04-24T08:55:05.13Z</time></trkpt><trkpt lat="36.5583515" lon="10.5242599"><ele>62.0</ele><time>2026-04-24T08:55:06.175Z</time></trkpt><trkpt lat="36.5581614" lon="10.5244185"><ele>62.0</ele><time>2026-04-24T08:55:07.162Z</time></trkpt><trkpt lat="36.5579706" lon="10.5245783"><ele>63.0</ele><time>2026-04-24T08:55:08.161Z</time></trkpt><trkpt lat="36.5577795" lon="10.5247397"><ele>64.0</ele><time>2026-04-24T08:55:09.156Z</time></trkpt><trkpt lat="36.5575901" lon="10.5249058"><ele>64.0</ele><time>2026-04-24T08:55:10.155Z</time></trkpt><trkpt lat="36.5574004" lon="10.5250753"><ele>64.0</ele><time>2026-04-24T08:55:11.163Z</time></trkpt><trkpt lat="36.557209" lon="10.5252426"><ele>64.0</ele><time>2026-04-24T08:55:12.156Z</time></trkpt><trkpt lat="36.5570181" lon="10.525409"><ele>64.0</ele><time>2026-04-24T08:55:13.156Z</time></trkpt><trkpt lat="36.5568253" lon="10.5255774"><ele>64.0</ele><time>2026-04-24T08:55:14.148Z</time></trkpt><trkpt lat="36.5566315" lon="10.525747"><ele>64.0</ele><time>2026-04-24T08:55:15.146Z</time></trkpt><trkpt lat="36.5564376" lon="10.525922"><ele>64.0</ele><time>2026-04-24T08:55:16.124Z</time></trkpt><trkpt lat="36.5562463" lon="10.5260906"><ele>64.0</ele><time>2026-04-24T08:55:17.156Z</time></trkpt><trkpt lat="36.5560556" lon="10.5262555"><ele>65.0</ele><time>2026-04-24T08:55:18.138Z</time></trkpt><trkpt lat="36.5558652" lon="10.5264255"><ele>66.0</ele><time>2026-04-24T08:55:19.144Z</time></trkpt><trkpt lat="36.5556787" lon="10.5265861"><ele>66.0</ele><time>2026-04-24T08:55:20.14Z</time></trkpt><trkpt lat="36.5554917" lon="10.5267456"><ele>66.0</ele><time>2026-04-24T08:55:21.142Z</time></trkpt><trkpt lat="36.5553005" lon="10.5269096"><ele>66.0</ele><time>2026-04-24T08:55:22.146Z</time></trkpt><trkpt lat="36.5551066" lon="10.5270794"><ele>66.0</ele><time>2026-04-24T08:55:23.133Z</time></trkpt><trkpt lat="36.5549121" lon="10.5272422"><ele>66.0</ele><time>2026-04-24T08:55:24.141Z</time></trkpt><trkpt lat="36.554719" lon="10.5273968"><ele>66.0</ele><time>2026-04-24T08:55:25.122Z</time></trkpt><trkpt lat="36.5545228" lon="10.5275511"><ele>66.0</ele><time>2026-04-24T08:55:26.158Z</time></trkpt><trkpt lat="36.5543247" lon="10.5277076"><ele>66.0</ele><time>2026-04-24T08:55:27.15Z</time></trkpt><trkpt lat="36.5541253" lon="10.5278639"><ele>66.33333333333333</ele><time>2026-04-24T08:55:28.155Z</time></trkpt><trkpt lat="36.5539297" lon="10.5280134"><ele>66.66666666666666</ele><time>2026-04-24T08:55:29.156Z</time></trkpt><trkpt lat="36.5537449" lon="10.5281544"><ele>67.0</ele><time>2026-04-24T08:55:30.156Z</time></trkpt><trkpt lat="36.553557" lon="10.528297"><ele>67.33333333333333</ele><time>2026-04-24T08:55:31.158Z</time></trkpt><trkpt lat="36.5533711" lon="10.5284338"><ele>67.66666666666667</ele><time>2026-04-24T08:55:32.165Z</time></trkpt><trkpt lat="36.5531845" lon="10.5285678"><ele>68.0</ele><time>2026-04-24T08:55:33.16Z</time></trkpt><trkpt lat="36.5529982" lon="10.5287001"><ele>68.0</ele><time>2026-04-24T08:55:34.164Z</time></trkpt><trkpt lat="36.5528114" lon="10.5288332"><ele>68.0</ele><time>2026-04-24T08:55:35.162Z</time></trkpt><trkpt lat="36.5526245" lon="10.5289645"><ele>68.0</ele><time>2026-04-24T08:55:36.166Z</time></trkpt><trkpt lat="36.5524405" lon="10.529093"><ele>68.0</ele><time>2026-04-24T08:55:37.161Z</time></trkpt><trkpt lat="36.5522595" lon="10.5292148"><ele>68.0</ele><time>2026-04-24T08:55:38.167Z</time></trkpt><trkpt lat="36.5520748" lon="10.5293303"><ele>68.0</ele><time>2026-04-24T08:55:39.164Z</time></trkpt><trkpt lat="36.5518861" lon="10.5294442"><ele>68.0</ele><time>2026-04-24T08:55:40.162Z</time></trkpt><trkpt lat="36.5516991" lon="10.5295586"><ele>68.0</ele><time>2026-04-24T08:55:41.159Z</time></trkpt><trkpt lat="36.5515119" lon="10.529672"><ele>68.0</ele><time>2026-04-24T08:55:42.18Z</time></trkpt><trkpt lat="36.5513197" lon="10.5297881"><ele>68.33333333333334</ele><time>2026-04-24T08:55:43.168Z</time></trkpt><trkpt lat="36.5511269" lon="10.5298983"><ele>68.66666666666667</ele><time>2026-04-24T08:55:44.154Z</time></trkpt><trkpt lat="36.5509308" lon="10.5300078"><ele>69.0</ele><time>2026-04-24T08:55:45.157Z</time></trkpt><trkpt lat="36.5507323" lon="10.5301134"><ele>69.0</ele><time>2026-04-24T08:55:46.188Z</time></trkpt><trkpt lat="36.5505355" lon="10.530212"><ele>69.0</ele><time>2026-04-24T08:55:47.154Z</time></trkpt><trkpt lat="36.5503402" lon="10.5303145"><ele>69.0</ele><time>2026-04-24T08:55:48.166Z</time></trkpt><trkpt lat="36.5501455" lon="10.5304152"><ele>68.66666666666667</ele><time>2026-04-24T08:55:49.116Z</time></trkpt><trkpt lat="36.5499517" lon="10.5305172"><ele>68.33333333333334</ele><time>2026-04-24T08:55:50.163Z</time></trkpt><trkpt lat="36.5497537" lon="10.5306175"><ele>68.0</ele><time>2026-04-24T08:55:51.157Z</time></trkpt><trkpt lat="36.5495549" lon="10.5307114"><ele>68.33333333333334</ele><time>2026-04-24T08:55:52.172Z</time></trkpt><trkpt lat="36.5493541" lon="10.5308039"><ele>68.66666666666667</ele><time>2026-04-24T08:55:53.122Z</time></trkpt><trkpt lat="36.5491511" lon="10.5309033"><ele>69.0</ele><time>2026-04-24T08:55:54.165Z</time></trkpt><trkpt lat="36.5489486" lon="10.5309995"><ele>69.0</ele><time>2026-04-24T08:55:55.178Z</time></trkpt><trkpt lat="36.5487388" lon="10.5311013"><ele>69.0</ele><time>2026-04-24T08:55:56.142Z</time></trkpt><trkpt lat="36.5485237" lon="10.5312005"><ele>68.0</ele><time>2026-04-24T08:55:57.161Z</time></trkpt><trkpt lat="36.5483122" lon="10.5312961"><ele>67.0</ele><time>2026-04-24T08:55:58.15Z</time></trkpt><trkpt lat="36.5480962" lon="10.5313943"><ele>67.0</ele><time>2026-04-24T08:55:59.159Z</time></trkpt><trkpt lat="36.5478851" lon="10.5314909"><ele>67.0</ele><time>2026-04-24T08:56:00.16Z</time></trkpt><trkpt lat="36.5476717" lon="10.5315864"><ele>66.5</ele><time>2026-04-24T08:56:01.149Z</time></trkpt><trkpt lat="36.5474589" lon="10.5316903"><ele>66.0</ele><time>2026-04-24T08:56:02.159Z</time></trkpt><trkpt lat="36.5472459" lon="10.5317985"><ele>65.5</ele><time>2026-04-24T08:56:03.158Z</time></trkpt><trkpt lat="36.5470292" lon="10.5319013"><ele>65.0</ele><time>2026-04-24T08:56:04.159Z</time></trkpt><trkpt lat="36.546813" lon="10.5320079"><ele>65.0</ele><time>2026-04-24T08:56:05.127Z</time></trkpt><trkpt lat="36.5465988" lon="10.5321131"><ele>65.0</ele><time>2026-04-24T08:56:06.162Z</time></trkpt><trkpt lat="36.5463863" lon="10.5322151"><ele>65.66666666666667</ele><time>2026-04-24T08:56:07.156Z</time></trkpt><trkpt lat="36.5461753" lon="10.5323172"><ele>66.33333333333333</ele><time>2026-04-24T08:56:08.16Z</time></trkpt><trkpt lat="36.5459719" lon="10.5324154"><ele>67.0</ele><time>2026-04-24T08:56:09.154Z</time></trkpt><trkpt lat="36.5457662" lon="10.5325067"><ele>67.0</ele><time>2026-04-24T08:56:10.162Z</time></trkpt><trkpt lat="36.5455656" lon="10.532598"><ele>67.0</ele><time>2026-04-24T08:56:11.159Z</time></trkpt><trkpt lat="36.5453643" lon="10.5326937"><ele>67.0</ele><time>2026-04-24T08:56:12.156Z</time></trkpt><trkpt lat="36.5451653" lon="10.5327881"><ele>67.0</ele><time>2026-04-24T08:56:13.163Z</time></trkpt><trkpt lat="36.5449632" lon="10.5328843"><ele>67.0</ele><time>2026-04-24T08:56:14.169Z</time></trkpt><trkpt lat="36.5447548" lon="10.5329781"><ele>67.0</ele><time>2026-04-24T08:56:15.151Z</time></trkpt><trkpt lat="36.5445501" lon="10.5330724"><ele>66.66666666666666</ele><time>2026-04-24T08:56:16.163Z</time></trkpt><trkpt lat="36.5443413" lon="10.5331604"><ele>66.33333333333333</ele><time>2026-04-24T08:56:17.159Z</time></trkpt><trkpt lat="36.5441305" lon="10.5332477"><ele>66.0</ele><time>2026-04-24T08:56:18.158Z</time></trkpt><trkpt lat="36.5439235" lon="10.5333422"><ele>66.0</ele><time>2026-04-24T08:56:19.172Z</time></trkpt><trkpt lat="36.5437216" lon="10.5334413"><ele>66.0</ele><time>2026-04-24T08:56:20.149Z</time></trkpt><trkpt lat="36.5435199" lon="10.5335432"><ele>66.0</ele><time>2026-04-24T08:56:21.16Z</time></trkpt><trkpt lat="36.5433248" lon="10.5336511"><ele>66.66666666666667</ele><time>2026-04-24T08:56:22.163Z</time></trkpt><trkpt lat="36.5431288" lon="10.5337594"><ele>67.33333333333334</ele><time>2026-04-24T08:56:23.146Z</time></trkpt><trkpt lat="36.542927" lon="10.5338678"><ele>68.0</ele><time>2026-04-24T08:56:24.165Z</time></trkpt><trkpt lat="36.5427277" lon="10.5339787"><ele>69.0</ele><time>2026-04-24T08:56:25.156Z</time></trkpt><trkpt lat="36.5425317" lon="10.5340988"><ele>70.0</ele><time>2026-04-24T08:56:26.129Z</time></trkpt><trkpt lat="36.542344" lon="10.5342138"><ele>71.0</ele><time>2026-04-24T08:56:27.171Z</time></trkpt><trkpt lat="36.542157" lon="10.5343321"><ele>71.0</ele><time>2026-04-24T08:56:28.171Z</time></trkpt><trkpt lat="36.5419679" lon="10.5344518"><ele>71.0</ele><time>2026-04-24T08:56:29.162Z</time></trkpt><trkpt lat="36.5417784" lon="10.5345785"><ele>71.0</ele><time>2026-04-24T08:56:30.174Z</time></trkpt><trkpt lat="36.5415907" lon="10.5347079"><ele>70.66666666666667</ele><time>2026-04-24T08:56:31.138Z</time></trkpt><trkpt lat="36.5414074" lon="10.5348374"><ele>70.33333333333333</ele><time>2026-04-24T08:56:32.161Z</time></trkpt><trkpt lat="36.5412256" lon="10.5349654"><ele>70.0</ele><time>2026-04-24T08:56:33.161Z</time></trkpt><trkpt lat="36.5410431" lon="10.5350988"><ele>70.66666666666666</ele><time>2026-04-24T08:56:34.156Z</time></trkpt><trkpt lat="36.5408623" lon="10.5352371"><ele>71.33333333333333</ele><time>2026-04-24T08:56:35.159Z</time></trkpt><trkpt lat="36.5406838" lon="10.5353763"><ele>72.0</ele><time>2026-04-24T08:56:36.155Z</time></trkpt><trkpt lat="36.5404986" lon="10.535522"><ele>73.0</ele><time>2026-04-24T08:56:37.159Z</time></trkpt><trkpt lat="36.5403156" lon="10.5356747"><ele>74.0</ele><time>2026-04-24T08:56:38.163Z</time></trkpt><trkpt lat="36.5401351" lon="10.5358368"><ele>75.0</ele><time>2026-04-24T08:56:39.135Z</time></trkpt><trkpt lat="36.5399489" lon="10.5359976"><ele>75.0</ele><time>2026-04-24T08:56:40.13Z</time></trkpt><trkpt lat="36.5397664" lon="10.5361554"><ele>75.0</ele><time>2026-04-24T08:56:41.157Z</time></trkpt><trkpt lat="36.539586" lon="10.5363203"><ele>75.0</ele><time>2026-04-24T08:56:42.167Z</time></trkpt><trkpt lat="36.5394071" lon="10.5364881"><ele>75.66666666666667</ele><time>2026-04-24T08:56:43.159Z</time></trkpt><trkpt lat="36.5392351" lon="10.5366581"><ele>76.33333333333334</ele><time>2026-04-24T08:56:44.132Z</time></trkpt><trkpt lat="36.5390567" lon="10.536831"><ele>77.0</ele><time>2026-04-24T08:56:45.151Z</time></trkpt><trkpt lat="36.5388887" lon="10.5370025"><ele>77.66666666666667</ele><time>2026-04-24T08:56:46.164Z</time></trkpt><trkpt lat="36.5387131" lon="10.537178"><ele>78.33333333333333</ele><time>2026-04-24T08:56:47.158Z</time></trkpt><trkpt lat="36.5385419" lon="10.5373514"><ele>79.0</ele><time>2026-04-24T08:56:48.147Z</time></trkpt><trkpt lat="36.5383685" lon="10.5375342"><ele>79.0</ele><time>2026-04-24T08:56:49.161Z</time></trkpt><trkpt lat="36.5382014" lon="10.5377146"><ele>79.0</ele><time>2026-04-24T08:56:50.178Z</time></trkpt><trkpt lat="36.5380339" lon="10.5378971"><ele>79.0</ele><time>2026-04-24T08:56:51.128Z</time></trkpt><trkpt lat="36.5378681" lon="10.5380747"><ele>79.33333333333333</ele><time>2026-04-24T08:56:52.154Z</time></trkpt><trkpt lat="36.5377016" lon="10.5382553"><ele>79.66666666666667</ele><time>2026-04-24T08:56:53.16Z</time></trkpt><trkpt lat="36.5375358" lon="10.5384322"><ele>80.0</ele><time>2026-04-24T08:56:54.161Z</time></trkpt><trkpt lat="36.5373601" lon="10.5386057"><ele>81.0</ele><time>2026-04-24T08:56:55.14Z</time></trkpt><trkpt lat="36.5371854" lon="10.5387855"><ele>82.0</ele><time>2026-04-24T08:56:56.171Z</time></trkpt><trkpt lat="36.537011" lon="10.5389695"><ele>82.0</ele><time>2026-04-24T08:56:57.157Z</time></trkpt><trkpt lat="36.5368339" lon="10.5391572"><ele>82.0</ele><time>2026-04-24T08:56:58.158Z</time></trkpt><trkpt lat="36.5366549" lon="10.5393414"><ele>82.0</ele><time>2026-04-24T08:56:59.153Z</time></trkpt><trkpt lat="36.5364722" lon="10.5395233"><ele>82.0</ele><time>2026-04-24T08:57:00.139Z</time></trkpt><trkpt lat="36.5362889" lon="10.5397024"><ele>82.0</ele><time>2026-04-24T08:57:01.168Z</time></trkpt><trkpt lat="36.5361006" lon="10.5398678"><ele>82.0</ele><time>2026-04-24T08:57:02.156Z</time></trkpt><trkpt lat="36.5359135" lon="10.5400355"><ele>82.0</ele><time>2026-04-24T08:57:03.155Z</time></trkpt><trkpt lat="36.5357294" lon="10.5402046"><ele>82.0</ele><time>2026-04-24T08:57:04.146Z</time></trkpt><trkpt lat="36.5355407" lon="10.5403701"><ele>82.0</ele><time>2026-04-24T08:57:05.149Z</time></trkpt><trkpt lat="36.5353484" lon="10.5405295"><ele>82.0</ele><time>2026-04-24T08:57:06.145Z</time></trkpt><trkpt lat="36.5351553" lon="10.5406846"><ele>82.0</ele><time>2026-04-24T08:57:07.159Z</time></trkpt><trkpt lat="36.5349624" lon="10.5408392"><ele>82.0</ele><time>2026-04-24T08:57:08.109Z</time></trkpt><trkpt lat="36.5347658" lon="10.5409937"><ele>82.0</ele><time>2026-04-24T08:57:09.107Z</time></trkpt><trkpt lat="36.5345711" lon="10.5411476"><ele>82.0</ele><time>2026-04-24T08:57:10.152Z</time></trkpt><trkpt lat="36.5343756" lon="10.5412949"><ele>81.0</ele><time>2026-04-24T08:57:11.154Z</time></trkpt><trkpt lat="36.5341761" lon="10.5414371"><ele>80.0</ele><time>2026-04-24T08:57:12.154Z</time></trkpt><trkpt lat="36.5339852" lon="10.5415746"><ele>80.0</ele><time>2026-04-24T08:57:13.145Z</time></trkpt><trkpt lat="36.5337924" lon="10.5417112"><ele>80.0</ele><time>2026-04-24T08:57:14.133Z</time></trkpt><trkpt lat="36.5335982" lon="10.5418439"><ele>80.0</ele><time>2026-04-24T08:57:15.15Z</time></trkpt><trkpt lat="36.533407" lon="10.5419728"><ele>80.0</ele><time>2026-04-24T08:57:16.109Z</time></trkpt><trkpt lat="36.5332151" lon="10.5421038"><ele>80.0</ele><time>2026-04-24T08:57:17.11Z</time></trkpt><trkpt lat="36.5330216" lon="10.5422388"><ele>80.0</ele><time>2026-04-24T08:57:18.136Z</time></trkpt><trkpt lat="36.5328288" lon="10.5423743"><ele>80.0</ele><time>2026-04-24T08:57:19.135Z</time></trkpt><trkpt lat="36.5326318" lon="10.5425054"><ele>80.0</ele><time>2026-04-24T08:57:20.141Z</time></trkpt><trkpt lat="36.53244" lon="10.5426359"><ele>80.0</ele><time>2026-04-24T08:57:21.122Z</time></trkpt><trkpt lat="36.5322433" lon="10.5427674"><ele>78.66666666666667</ele><time>2026-04-24T08:57:22.136Z</time></trkpt><trkpt lat="36.532051" lon="10.5429049"><ele>77.33333333333333</ele><time>2026-04-24T08:57:23.133Z</time></trkpt><trkpt lat="36.5318628" lon="10.5430435"><ele>76.0</ele><time>2026-04-24T08:57:24.126Z</time></trkpt><trkpt lat="36.5316689" lon="10.5431864"><ele>76.0</ele><time>2026-04-24T08:57:25.126Z</time></trkpt><trkpt lat="36.5314783" lon="10.5433257"><ele>76.0</ele><time>2026-04-24T08:57:26.129Z</time></trkpt><trkpt lat="36.5312862" lon="10.5434707"><ele>76.0</ele><time>2026-04-24T08:57:27.142Z</time></trkpt><trkpt lat="36.5310962" lon="10.5436172"><ele>76.66666666666666</ele><time>2026-04-24T08:57:28.141Z</time></trkpt><trkpt lat="36.5309063" lon="10.5437578"><ele>77.33333333333333</ele><time>2026-04-24T08:57:29.154Z</time></trkpt><trkpt lat="36.5307185" lon="10.5439018"><ele>78.0</ele><time>2026-04-24T08:57:30.136Z</time></trkpt><trkpt lat="36.5305266" lon="10.5440486"><ele>78.33333333333333</ele><time>2026-04-24T08:57:31.13Z</time></trkpt><trkpt lat="36.5303455" lon="10.5441915"><ele>78.66666666666666</ele><time>2026-04-24T08:57:32.158Z</time></trkpt><trkpt lat="36.5301616" lon="10.5443301"><ele>79.0</ele><time>2026-04-24T08:57:33.135Z</time></trkpt><trkpt lat="36.5299721" lon="10.5444836"><ele>79.0</ele><time>2026-04-24T08:57:34.138Z</time></trkpt><trkpt lat="36.5297815" lon="10.5446398"><ele>79.0</ele><time>2026-04-24T08:57:35.148Z</time></trkpt><trkpt lat="36.5295873" lon="10.5448052"><ele>79.0</ele><time>2026-04-24T08:57:36.119Z</time></trkpt><trkpt lat="36.5293992" lon="10.544964"><ele>79.0</ele><time>2026-04-24T08:57:37.104Z</time></trkpt><trkpt lat="36.5292022" lon="10.5451247"><ele>79.0</ele><time>2026-04-24T08:57:38.109Z</time></trkpt><trkpt lat="36.5290031" lon="10.5452889"><ele>79.0</ele><time>2026-04-24T08:57:39.121Z</time></trkpt><trkpt lat="36.5288006" lon="10.5454473"><ele>78.0</ele><time>2026-04-24T08:57:40.128Z</time></trkpt><trkpt lat="36.5286036" lon="10.5456064"><ele>77.0</ele><time>2026-04-24T08:57:41.113Z</time></trkpt><trkpt lat="36.5284048" lon="10.545766"><ele>77.0</ele><time>2026-04-24T08:57:42.151Z</time></trkpt><trkpt lat="36.528209" lon="10.5459191"><ele>77.0</ele><time>2026-04-24T08:57:43.128Z</time></trkpt><trkpt lat="36.5280135" lon="10.5460765"><ele>76.0</ele><time>2026-04-24T08:57:44.148Z</time></trkpt><trkpt lat="36.5278184" lon="10.5462328"><ele>75.0</ele><time>2026-04-24T08:57:45.117Z</time></trkpt><trkpt lat="36.5276156" lon="10.5463921"><ele>75.0</ele><time>2026-04-24T08:57:46.142Z</time></trkpt><trkpt lat="36.527416" lon="10.5465443"><ele>75.0</ele><time>2026-04-24T08:57:47.135Z</time></trkpt><trkpt lat="36.5272173" lon="10.546697"><ele>75.5</ele><time>2026-04-24T08:57:48.126Z</time></trkpt><trkpt lat="36.5270187" lon="10.5468483"><ele>76.0</ele><time>2026-04-24T08:57:49.147Z</time></trkpt><trkpt lat="36.5268162" lon="10.5469877"><ele>75.0</ele><time>2026-04-24T08:57:50.147Z</time></trkpt><trkpt lat="36.5266142" lon="10.5471258"><ele>74.0</ele><time>2026-04-24T08:57:51.144Z</time></trkpt><trkpt lat="36.5264175" lon="10.5472731"><ele>74.33333333333334</ele><time>2026-04-24T08:57:52.103Z</time></trkpt><trkpt lat="36.5262234" lon="10.5474234"><ele>74.66666666666667</ele><time>2026-04-24T08:57:53.13Z</time></trkpt><trkpt lat="36.5260379" lon="10.54756"><ele>75.0</ele><time>2026-04-24T08:57:54.15Z</time></trkpt><trkpt lat="36.5258491" lon="10.5476975"><ele>75.0</ele><time>2026-04-24T08:57:55.154Z</time></trkpt><trkpt lat="36.5256612" lon="10.5478269"><ele>75.0</ele><time>2026-04-24T08:57:56.142Z</time></trkpt><trkpt lat="36.5254781" lon="10.5479553"><ele>75.0</ele><time>2026-04-24T08:57:57.144Z</time></trkpt><trkpt lat="36.5252929" lon="10.548089"><ele>74.66666666666667</ele><time>2026-04-24T08:57:58.147Z</time></trkpt><trkpt lat="36.5251051" lon="10.5482219"><ele>74.33333333333334</ele><time>2026-04-24T08:57:59.154Z</time></trkpt><trkpt lat="36.5249182" lon="10.5483563"><ele>74.0</ele><time>2026-04-24T08:58:00.132Z</time></trkpt><trkpt lat="36.5247298" lon="10.5484868"><ele>73.66666666666667</ele><time>2026-04-24T08:58:01.113Z</time></trkpt><trkpt lat="36.5245404" lon="10.5486196"><ele>73.33333333333333</ele><time>2026-04-24T08:58:02.126Z</time></trkpt><trkpt lat="36.5243525" lon="10.5487518"><ele>73.0</ele><time>2026-04-24T08:58:03.158Z</time></trkpt><trkpt lat="36.5241609" lon="10.5488812"><ele>72.33333333333333</ele><time>2026-04-24T08:58:04.137Z</time></trkpt><trkpt lat="36.5239711" lon="10.5490126"><ele>71.66666666666667</ele><time>2026-04-24T08:58:05.148Z</time></trkpt><trkpt lat="36.5237805" lon="10.54914"><ele>71.0</ele><time>2026-04-24T08:58:06.139Z</time></trkpt><trkpt lat="36.5235871" lon="10.5492734"><ele>71.0</ele><time>2026-04-24T08:58:07.127Z</time></trkpt><trkpt lat="36.5233965" lon="10.5494068"><ele>71.0</ele><time>2026-04-24T08:58:08.135Z</time></trkpt><trkpt lat="36.5232052" lon="10.5495343"><ele>71.0</ele><time>2026-04-24T08:58:09.134Z</time></trkpt><trkpt lat="36.5230105" lon="10.5496627"><ele>70.33333333333334</ele><time>2026-04-24T08:58:10.166Z</time></trkpt><trkpt lat="36.522811" lon="10.5497908"><ele>69.66666666666667</ele><time>2026-04-24T08:58:11.144Z</time></trkpt><trkpt lat="36.5226107" lon="10.5499127"><ele>69.0</ele><time>2026-04-24T08:58:12.152Z</time></trkpt><trkpt lat="36.5224055" lon="10.5500404"><ele>69.0</ele><time>2026-04-24T08:58:13.127Z</time></trkpt><trkpt lat="36.5222036" lon="10.5501628"><ele>69.0</ele><time>2026-04-24T08:58:14.143Z</time></trkpt><trkpt lat="36.5220006" lon="10.5502885"><ele>69.5</ele><time>2026-04-24T08:58:15.144Z</time></trkpt><trkpt lat="36.5217986" lon="10.5504104"><ele>70.0</ele><time>2026-04-24T08:58:16.128Z</time></trkpt><trkpt lat="36.5215935" lon="10.5505331"><ele>70.0</ele><time>2026-04-24T08:58:17.135Z</time></trkpt><trkpt lat="36.5213875" lon="10.5506545"><ele>70.0</ele><time>2026-04-24T08:58:18.137Z</time></trkpt><trkpt lat="36.5211834" lon="10.5507712"><ele>71.0</ele><time>2026-04-24T08:58:19.136Z</time></trkpt><trkpt lat="36.5209871" lon="10.5508857"><ele>72.0</ele><time>2026-04-24T08:58:20.133Z</time></trkpt><trkpt lat="36.5207856" lon="10.550994"><ele>73.0</ele><time>2026-04-24T08:58:21.157Z</time></trkpt><trkpt lat="36.5205847" lon="10.5511065"><ele>73.33333333333333</ele><time>2026-04-24T08:58:22.137Z</time></trkpt><trkpt lat="36.5203834" lon="10.5512157"><ele>73.66666666666667</ele><time>2026-04-24T08:58:23.134Z</time></trkpt><trkpt lat="36.5201835" lon="10.5513258"><ele>74.0</ele><time>2026-04-24T08:58:24.129Z</time></trkpt><trkpt lat="36.5199849" lon="10.5514334"><ele>74.0</ele><time>2026-04-24T08:58:25.143Z</time></trkpt><trkpt lat="36.5197805" lon="10.5515376"><ele>74.0</ele><time>2026-04-24T08:58:26.151Z</time></trkpt><trkpt lat="36.5195804" lon="10.5516396"><ele>74.0</ele><time>2026-04-24T08:58:27.15Z</time></trkpt><trkpt lat="36.51938" lon="10.5517386"><ele>74.0</ele><time>2026-04-24T08:58:28.154Z</time></trkpt><trkpt lat="36.5191799" lon="10.5518405"><ele>74.0</ele><time>2026-04-24T08:58:29.141Z</time></trkpt><trkpt lat="36.5189796" lon="10.5519393"><ele>74.0</ele><time>2026-04-24T08:58:30.141Z</time></trkpt><trkpt lat="36.5187784" lon="10.5520434"><ele>75.33333333333334</ele><time>2026-04-24T08:58:31.149Z</time></trkpt><trkpt lat="36.5185797" lon="10.552142"><ele>76.66666666666667</ele><time>2026-04-24T08:58:32.16Z</time></trkpt><trkpt lat="36.5183844" lon="10.5522434"><ele>78.0</ele><time>2026-04-24T08:58:33.161Z</time></trkpt><trkpt lat="36.5181839" lon="10.5523477"><ele>78.0</ele><time>2026-04-24T08:58:34.137Z</time></trkpt><trkpt lat="36.5179788" lon="10.5524431"><ele>78.0</ele><time>2026-04-24T08:58:35.143Z</time></trkpt><trkpt lat="36.5177755" lon="10.5525404"><ele>78.0</ele><time>2026-04-24T08:58:36.137Z</time></trkpt><trkpt lat="36.5175754" lon="10.5526381"><ele>80.0</ele><time>2026-04-24T08:58:37.151Z</time></trkpt><trkpt lat="36.5173694" lon="10.552728"><ele>82.0</ele><time>2026-04-24T08:58:38.141Z</time></trkpt><trkpt lat="36.5171683" lon="10.5528177"><ele>84.0</ele><time>2026-04-24T08:58:39.136Z</time></trkpt><trkpt lat="36.516962" lon="10.5529147"><ele>84.66666666666667</ele><time>2026-04-24T08:58:40.113Z</time></trkpt><trkpt lat="36.5167641" lon="10.5530085"><ele>85.33333333333334</ele><time>2026-04-24T08:58:41.139Z</time></trkpt><trkpt lat="36.5165628" lon="10.5530961"><ele>86.0</ele><time>2026-04-24T08:58:42.146Z</time></trkpt><trkpt lat="36.5163623" lon="10.55318"><ele>87.0</ele><time>2026-04-24T08:58:43.14Z</time></trkpt><trkpt lat="36.5161609" lon="10.5532693"><ele>88.0</ele><time>2026-04-24T08:58:44.158Z</time></trkpt><trkpt lat="36.5159561" lon="10.5533575"><ele>89.0</ele><time>2026-04-24T08:58:45.129Z</time></trkpt><trkpt lat="36.5157542" lon="10.5534446"><ele>89.0</ele><time>2026-04-24T08:58:46.136Z</time></trkpt><trkpt lat="36.5155468" lon="10.5535415"><ele>89.0</ele><time>2026-04-24T08:58:47.131Z</time></trkpt><trkpt lat="36.5153402" lon="10.5536337"><ele>89.0</ele><time>2026-04-24T08:58:48.13Z</time></trkpt><trkpt lat="36.5151389" lon="10.5537195"><ele>88.0</ele><time>2026-04-24T08:58:49.145Z</time></trkpt><trkpt lat="36.5149436" lon="10.5538051"><ele>87.0</ele><time>2026-04-24T08:58:50.135Z</time></trkpt><trkpt lat="36.5147429" lon="10.5538851"><ele>86.0</ele><time>2026-04-24T08:58:51.134Z</time></trkpt><trkpt lat="36.5145413" lon="10.5539686"><ele>86.0</ele><time>2026-04-24T08:58:52.154Z</time></trkpt><trkpt lat="36.5143449" lon="10.5540508"><ele>86.0</ele><time>2026-04-24T08:58:53.14Z</time></trkpt><trkpt lat="36.5141494" lon="10.5541361"><ele>86.0</ele><time>2026-04-24T08:58:54.135Z</time></trkpt><trkpt lat="36.5139546" lon="10.5542188"><ele>86.0</ele><time>2026-04-24T08:58:55.137Z</time></trkpt><trkpt lat="36.5137542" lon="10.554304"><ele>86.0</ele><time>2026-04-24T08:58:56.146Z</time></trkpt><trkpt lat="36.5135532" lon="10.554388"><ele>86.0</ele><time>2026-04-24T08:58:57.132Z</time></trkpt><trkpt lat="36.5133507" lon="10.5544677"><ele>85.66666666666667</ele><time>2026-04-24T08:58:58.132Z</time></trkpt><trkpt lat="36.5131485" lon="10.5545534"><ele>85.33333333333333</ele><time>2026-04-24T08:58:59.154Z</time></trkpt><trkpt lat="36.5129446" lon="10.5546395"><ele>85.0</ele><time>2026-04-24T08:59:00.125Z</time></trkpt><trkpt lat="36.5127437" lon="10.5547283"><ele>85.0</ele><time>2026-04-24T08:59:01.136Z</time></trkpt><trkpt lat="36.5125417" lon="10.5548148"><ele>85.0</ele><time>2026-04-24T08:59:02.145Z</time></trkpt><trkpt lat="36.5123357" lon="10.5548946"><ele>85.0</ele><time>2026-04-24T08:59:03.149Z</time></trkpt><trkpt lat="36.5121316" lon="10.5549743"><ele>85.66666666666666</ele><time>2026-04-24T08:59:04.146Z</time></trkpt><trkpt lat="36.5119278" lon="10.5550531"><ele>86.33333333333333</ele><time>2026-04-24T08:59:05.167Z</time></trkpt><trkpt lat="36.5117231" lon="10.5551369"><ele>87.0</ele><time>2026-04-24T08:59:06.141Z</time></trkpt><trkpt lat="36.5115213" lon="10.5552226"><ele>87.0</ele><time>2026-04-24T08:59:07.148Z</time></trkpt><trkpt lat="36.5113188" lon="10.5553072"><ele>87.0</ele><time>2026-04-24T08:59:08.141Z</time></trkpt><trkpt lat="36.5111178" lon="10.5553939"><ele>87.0</ele><time>2026-04-24T08:59:09.122Z</time></trkpt><trkpt lat="36.510914" lon="10.5554862"><ele>87.0</ele><time>2026-04-24T08:59:10.138Z</time></trkpt><trkpt lat="36.5107144" lon="10.5555739"><ele>87.0</ele><time>2026-04-24T08:59:11.139Z</time></trkpt><trkpt lat="36.5105071" lon="10.5556587"><ele>87.0</ele><time>2026-04-24T08:59:12.147Z</time></trkpt><trkpt lat="36.5102974" lon="10.5557445"><ele>87.5</ele><time>2026-04-24T08:59:13.138Z</time></trkpt><trkpt lat="36.5100827" lon="10.5558359"><ele>88.0</ele><time>2026-04-24T08:59:14.126Z</time></trkpt><trkpt lat="36.5098638" lon="10.5559266"><ele>88.0</ele><time>2026-04-24T08:59:15.133Z</time></trkpt><trkpt lat="36.5096459" lon="10.5560193"><ele>88.0</ele><time>2026-04-24T08:59:16.137Z</time></trkpt><trkpt lat="36.5094296" lon="10.5561102"><ele>87.5</ele><time>2026-04-24T08:59:17.14Z</time></trkpt><trkpt lat="36.5092121" lon="10.5562026"><ele>87.0</ele><time>2026-04-24T08:59:18.11Z</time></trkpt><trkpt lat="36.5089974" lon="10.5562932"><ele>87.0</ele><time>2026-04-24T08:59:19.134Z</time></trkpt><trkpt lat="36.5087843" lon="10.5563854"><ele>87.0</ele><time>2026-04-24T08:59:20.141Z</time></trkpt><trkpt lat="36.5085703" lon="10.5564773"><ele>88.0</ele><time>2026-04-24T08:59:21.137Z</time></trkpt><trkpt lat="36.5083588" lon="10.5565683"><ele>89.0</ele><time>2026-04-24T08:59:22.147Z</time></trkpt><trkpt lat="36.5081454" lon="10.5566628"><ele>89.0</ele><time>2026-04-24T08:59:23.139Z</time></trkpt><trkpt lat="36.5079417" lon="10.5567577"><ele>89.0</ele><time>2026-04-24T08:59:24.146Z</time></trkpt><trkpt lat="36.5077339" lon="10.5568571"><ele>89.0</ele><time>2026-04-24T08:59:25.137Z</time></trkpt><trkpt lat="36.5075282" lon="10.5569586"><ele>89.33333333333334</ele><time>2026-04-24T08:59:26.127Z</time></trkpt><trkpt lat="36.5073171" lon="10.5570534"><ele>89.66666666666667</ele><time>2026-04-24T08:59:27.139Z</time></trkpt><trkpt lat="36.5071049" lon="10.5571457"><ele>90.0</ele><time>2026-04-24T08:59:28.154Z</time></trkpt><trkpt lat="36.5068909" lon="10.5572423"><ele>90.0</ele><time>2026-04-24T08:59:29.143Z</time></trkpt><trkpt lat="36.5066835" lon="10.5573383"><ele>90.0</ele><time>2026-04-24T08:59:30.15Z</time></trkpt><trkpt lat="36.506475" lon="10.5574364"><ele>90.0</ele><time>2026-04-24T08:59:31.156Z</time></trkpt><trkpt lat="36.5062636" lon="10.5575369"><ele>89.5</ele><time>2026-04-24T08:59:32.155Z</time></trkpt><trkpt lat="36.5060531" lon="10.5576391"><ele>89.0</ele><time>2026-04-24T08:59:33.144Z</time></trkpt><trkpt lat="36.5058377" lon="10.5577431"><ele>89.0</ele><time>2026-04-24T08:59:34.138Z</time></trkpt><trkpt lat="36.5056245" lon="10.5578519"><ele>89.0</ele><time>2026-04-24T08:59:35.144Z</time></trkpt><trkpt lat="36.5054078" lon="10.5579626"><ele>90.5</ele><time>2026-04-24T08:59:36.147Z</time></trkpt><trkpt lat="36.5051857" lon="10.5580788"><ele>92.0</ele><time>2026-04-24T08:59:37.15Z</time></trkpt><trkpt lat="36.5049592" lon="10.5582017"><ele>92.0</ele><time>2026-04-24T08:59:38.154Z</time></trkpt><trkpt lat="36.5047344" lon="10.5583156"><ele>92.0</ele><time>2026-04-24T08:59:39.148Z</time></trkpt><trkpt lat="36.5045108" lon="10.5584329"><ele>91.5</ele><time>2026-04-24T08:59:40.134Z</time></trkpt><trkpt lat="36.5042908" lon="10.5585512"><ele>91.0</ele><time>2026-04-24T08:59:41.116Z</time></trkpt><trkpt lat="36.5040734" lon="10.5586752"><ele>91.0</ele><time>2026-04-24T08:59:42.119Z</time></trkpt><trkpt lat="36.503855" lon="10.5588005"><ele>91.0</ele><time>2026-04-24T08:59:43.115Z</time></trkpt><trkpt lat="36.5036372" lon="10.5589284"><ele>91.0</ele><time>2026-04-24T08:59:44.125Z</time></trkpt><trkpt lat="36.5034215" lon="10.5590525"><ele>91.0</ele><time>2026-04-24T08:59:45.118Z</time></trkpt><trkpt lat="36.5032094" lon="10.5591792"><ele>91.0</ele><time>2026-04-24T08:59:46.11Z</time></trkpt><trkpt lat="36.5029957" lon="10.5593064"><ele>91.0</ele><time>2026-04-24T08:59:47.107Z</time></trkpt><trkpt lat="36.5027821" lon="10.5594373"><ele>92.0</ele><time>2026-04-24T08:59:48.137Z</time></trkpt><trkpt lat="36.5025708" lon="10.5595668"><ele>93.0</ele><time>2026-04-24T08:59:49.131Z</time></trkpt><trkpt lat="36.5023542" lon="10.5596936"><ele>93.0</ele><time>2026-04-24T08:59:50.141Z</time></trkpt><trkpt lat="36.5021413" lon="10.5598288"><ele>93.0</ele><time>2026-04-24T08:59:51.141Z</time></trkpt><trkpt lat="36.5019321" lon="10.5599631"><ele>94.0</ele><time>2026-04-24T08:59:52.108Z</time></trkpt><trkpt lat="36.5017217" lon="10.5600976"><ele>95.0</ele><time>2026-04-24T08:59:53.103Z</time></trkpt><trkpt lat="36.5015137" lon="10.5602334"><ele>95.0</ele><time>2026-04-24T08:59:54.104Z</time></trkpt><trkpt lat="36.5013011" lon="10.5603642"><ele>95.0</ele><time>2026-04-24T08:59:55.107Z</time></trkpt><trkpt lat="36.501084" lon="10.560493"><ele>96.0</ele><time>2026-04-24T08:59:56.12Z</time></trkpt><trkpt lat="36.5008692" lon="10.5606283"><ele>97.0</ele><time>2026-04-24T08:59:57.123Z</time></trkpt><trkpt lat="36.5006504" lon="10.5607708"><ele>97.0</ele><time>2026-04-24T08:59:58.15Z</time></trkpt><trkpt lat="36.5004375" lon="10.5609146"><ele>97.0</ele><time>2026-04-24T08:59:59.121Z</time></trkpt><trkpt lat="36.5002267" lon="10.5610515"><ele>98.0</ele><time>2026-04-24T09:00:00.119Z</time></trkpt><trkpt lat="36.5000179" lon="10.5611926"><ele>99.0</ele><time>2026-04-24T09:00:01.17Z</time></trkpt><trkpt lat="36.4998078" lon="10.5613266"><ele>99.0</ele><time>2026-04-24T09:00:02.133Z</time></trkpt><trkpt lat="36.4995978" lon="10.5614606"><ele>99.0</ele><time>2026-04-24T09:00:03.132Z</time></trkpt><trkpt lat="36.4993921" lon="10.5615961"><ele>101.0</ele><time>2026-04-24T09:00:04.108Z</time></trkpt><trkpt lat="36.4991862" lon="10.5617302"><ele>103.0</ele><time>2026-04-24T09:00:05.14Z</time></trkpt><trkpt lat="36.4989818" lon="10.561866"><ele>103.0</ele><time>2026-04-24T09:00:06.14Z</time></trkpt><trkpt lat="36.4987773" lon="10.5620058"><ele>103.0</ele><time>2026-04-24T09:00:07.141Z</time></trkpt><trkpt lat="36.4985698" lon="10.5621466"><ele>104.5</ele><time>2026-04-24T09:00:08.146Z</time></trkpt><trkpt lat="36.4983602" lon="10.5622846"><ele>106.0</ele><time>2026-04-24T09:00:09.124Z</time></trkpt><trkpt lat="36.4981536" lon="10.5624193"><ele>106.0</ele><time>2026-04-24T09:00:10.129Z</time></trkpt><trkpt lat="36.4979476" lon="10.562551"><ele>106.0</ele><time>2026-04-24T09:00:11.127Z</time></trkpt><trkpt lat="36.4977403" lon="10.5626911"><ele>107.0</ele><time>2026-04-24T09:00:12.136Z</time></trkpt><trkpt lat="36.4975348" lon="10.5628294"><ele>108.0</ele><time>2026-04-24T09:00:13.133Z</time></trkpt><trkpt lat="36.4973285" lon="10.5629613"><ele>108.0</ele><time>2026-04-24T09:00:14.147Z</time></trkpt><trkpt lat="36.4971201" lon="10.5631006"><ele>108.0</ele><time>2026-04-24T09:00:15.147Z</time></trkpt><trkpt lat="36.4969097" lon="10.5632377"><ele>108.5</ele><time>2026-04-24T09:00:16.158Z</time></trkpt><trkpt lat="36.4966987" lon="10.563377"><ele>109.0</ele><time>2026-04-24T09:00:17.137Z</time></trkpt><trkpt lat="36.4964882" lon="10.5635169"><ele>109.0</ele><time>2026-04-24T09:00:18.15Z</time></trkpt><trkpt lat="36.4962795" lon="10.56366"><ele>109.0</ele><time>2026-04-24T09:00:19.111Z</time></trkpt><trkpt lat="36.4960673" lon="10.563799"><ele>109.0</ele><time>2026-04-24T09:00:20.131Z</time></trkpt><trkpt lat="36.4958605" lon="10.5639357"><ele>109.0</ele><time>2026-04-24T09:00:21.142Z</time></trkpt><trkpt lat="36.4956555" lon="10.5640773"><ele>109.0</ele><time>2026-04-24T09:00:22.145Z</time></trkpt><trkpt lat="36.4954491" lon="10.5642158"><ele>109.0</ele><time>2026-04-24T09:00:23.137Z</time></trkpt><trkpt lat="36.4952429" lon="10.5643524"><ele>108.5</ele><time>2026-04-24T09:00:24.142Z</time></trkpt><trkpt lat="36.4950314" lon="10.5644886"><ele>108.0</ele><time>2026-04-24T09:00:25.145Z</time></trkpt><trkpt lat="36.4948211" lon="10.5646249"><ele>107.5</ele><time>2026-04-24T09:00:26.131Z</time></trkpt><trkpt lat="36.4946131" lon="10.5647595"><ele>107.0</ele><time>2026-04-24T09:00:27.152Z</time></trkpt><trkpt lat="36.4944042" lon="10.5649023"><ele>106.0</ele><time>2026-04-24T09:00:28.146Z</time></trkpt><trkpt lat="36.4941978" lon="10.5650408"><ele>105.0</ele><time>2026-04-24T09:00:29.139Z</time></trkpt><trkpt lat="36.49399" lon="10.5651791"><ele>105.0</ele><time>2026-04-24T09:00:30.149Z</time></trkpt><trkpt lat="36.4937842" lon="10.5653149"><ele>105.0</ele><time>2026-04-24T09:00:31.136Z</time></trkpt><trkpt lat="36.4935741" lon="10.5654558"><ele>104.0</ele><time>2026-04-24T09:00:32.14Z</time></trkpt><trkpt lat="36.4933663" lon="10.5655937"><ele>103.0</ele><time>2026-04-24T09:00:33.15Z</time></trkpt><trkpt lat="36.49316" lon="10.5657314"><ele>103.0</ele><time>2026-04-24T09:00:34.14Z</time></trkpt><trkpt lat="36.4929507" lon="10.565866"><ele>103.0</ele><time>2026-04-24T09:00:35.143Z</time></trkpt><trkpt lat="36.4927395" lon="10.5660017"><ele>102.5</ele><time>2026-04-24T09:00:36.154Z</time></trkpt><trkpt lat="36.4925317" lon="10.5661349"><ele>102.0</ele><time>2026-04-24T09:00:37.134Z</time></trkpt><trkpt lat="36.4923224" lon="10.5662716"><ele>101.0</ele><time>2026-04-24T09:00:38.127Z</time></trkpt><trkpt lat="36.4921151" lon="10.5664011"><ele>100.0</ele><time>2026-04-24T09:00:39.142Z</time></trkpt><trkpt lat="36.4918999" lon="10.5665342"><ele>100.0</ele><time>2026-04-24T09:00:40.137Z</time></trkpt><trkpt lat="36.4916892" lon="10.5666638"><ele>100.0</ele><time>2026-04-24T09:00:41.115Z</time></trkpt><trkpt lat="36.4914785" lon="10.5667956"><ele>100.0</ele><time>2026-04-24T09:00:42.129Z</time></trkpt><trkpt lat="36.4912675" lon="10.5669274"><ele>100.0</ele><time>2026-04-24T09:00:43.107Z</time></trkpt><trkpt lat="36.4910541" lon="10.5670538"><ele>99.0</ele><time>2026-04-24T09:00:44.13Z</time></trkpt><trkpt lat="36.4908409" lon="10.5671782"><ele>98.0</ele><time>2026-04-24T09:00:45.113Z</time></trkpt><trkpt lat="36.4906294" lon="10.5673026"><ele>97.5</ele><time>2026-04-24T09:00:46.119Z</time></trkpt><trkpt lat="36.4904148" lon="10.5674273"><ele>97.0</ele><time>2026-04-24T09:00:47.132Z</time></trkpt><trkpt lat="36.4901954" lon="10.5675454"><ele>97.0</ele><time>2026-04-24T09:00:48.124Z</time></trkpt><trkpt lat="36.4899782" lon="10.5676565"><ele>97.0</ele><time>2026-04-24T09:00:49.142Z</time></trkpt><trkpt lat="36.489759" lon="10.5677737"><ele>96.5</ele><time>2026-04-24T09:00:50.14Z</time></trkpt><trkpt lat="36.4895446" lon="10.5678825"><ele>96.0</ele><time>2026-04-24T09:00:51.136Z</time></trkpt><trkpt lat="36.4893271" lon="10.5679911"><ele>96.0</ele><time>2026-04-24T09:00:52.14Z</time></trkpt><trkpt lat="36.4891091" lon="10.5681079"><ele>96.0</ele><time>2026-04-24T09:00:53.149Z</time></trkpt><trkpt lat="36.48889" lon="10.5682046"><ele>96.0</ele><time>2026-04-24T09:00:54.144Z</time></trkpt><trkpt lat="36.4886717" lon="10.568304"><ele>96.0</ele><time>2026-04-24T09:00:55.151Z</time></trkpt><trkpt lat="36.4884529" lon="10.5684086"><ele>96.0</ele><time>2026-04-24T09:00:56.162Z</time></trkpt><trkpt lat="36.4882274" lon="10.5685021"><ele>96.0</ele><time>2026-04-24T09:00:57.144Z</time></trkpt><trkpt lat="36.4880054" lon="10.5686015"><ele>94.5</ele><time>2026-04-24T09:00:58.153Z</time></trkpt><trkpt lat="36.4877797" lon="10.568694"><ele>93.0</ele><time>2026-04-24T09:00:59.154Z</time></trkpt><trkpt lat="36.4875573" lon="10.5687736"><ele>93.0</ele><time>2026-04-24T09:01:00.133Z</time></trkpt><trkpt lat="36.4873326" lon="10.5688612"><ele>93.0</ele><time>2026-04-24T09:01:01.138Z</time></trkpt><trkpt lat="36.487106" lon="10.5689439"><ele>94.0</ele><time>2026-04-24T09:01:02.146Z</time></trkpt><trkpt lat="36.4868763" lon="10.5690177"><ele>95.0</ele><time>2026-04-24T09:01:03.139Z</time></trkpt><trkpt lat="36.4866536" lon="10.5691008"><ele>95.0</ele><time>2026-04-24T09:01:04.115Z</time></trkpt><trkpt lat="36.4864208" lon="10.569183"><ele>95.0</ele><time>2026-04-24T09:01:05.114Z</time></trkpt><trkpt lat="36.4861946" lon="10.5692609"><ele>95.5</ele><time>2026-04-24T09:01:06.113Z</time></trkpt><trkpt lat="36.4859706" lon="10.5693366"><ele>96.0</ele><time>2026-04-24T09:01:07.146Z</time></trkpt><trkpt lat="36.4857422" lon="10.5694066"><ele>96.0</ele><time>2026-04-24T09:01:08.113Z</time></trkpt><trkpt lat="36.4855129" lon="10.5694795"><ele>96.0</ele><time>2026-04-24T09:01:09.138Z</time></trkpt><trkpt lat="36.4852817" lon="10.5695475"><ele>95.0</ele><time>2026-04-24T09:01:10.124Z</time></trkpt><trkpt lat="36.4850496" lon="10.5696039"><ele>94.0</ele><time>2026-04-24T09:01:11.123Z</time></trkpt><trkpt lat="36.4848172" lon="10.5696558"><ele>94.5</ele><time>2026-04-24T09:01:12.114Z</time></trkpt><trkpt lat="36.4845878" lon="10.5697165"><ele>95.0</ele><time>2026-04-24T09:01:13.13Z</time></trkpt><trkpt lat="36.4843558" lon="10.5697697"><ele>95.0</ele><time>2026-04-24T09:01:14.108Z</time></trkpt><trkpt lat="36.4841282" lon="10.5698197"><ele>95.0</ele><time>2026-04-24T09:01:15.111Z</time></trkpt><trkpt lat="36.4838956" lon="10.5698735"><ele>95.5</ele><time>2026-04-24T09:01:16.108Z</time></trkpt><trkpt lat="36.4836653" lon="10.5699213"><ele>96.0</ele><time>2026-04-24T09:01:17.136Z</time></trkpt><trkpt lat="36.483434" lon="10.5699617"><ele>96.0</ele><time>2026-04-24T09:01:18.142Z</time></trkpt><trkpt lat="36.4832021" lon="10.5700059"><ele>96.0</ele><time>2026-04-24T09:01:19.138Z</time></trkpt><trkpt lat="36.4829696" lon="10.5700443"><ele>95.5</ele><time>2026-04-24T09:01:20.112Z</time></trkpt><trkpt lat="36.4827329" lon="10.5700813"><ele>95.0</ele><time>2026-04-24T09:01:21.144Z</time></trkpt><trkpt lat="36.4825055" lon="10.5701214"><ele>95.0</ele><time>2026-04-24T09:01:22.133Z</time></trkpt><trkpt lat="36.4822705" lon="10.5701509"><ele>95.0</ele><time>2026-04-24T09:01:23.13Z</time></trkpt><trkpt lat="36.4820373" lon="10.5701821"><ele>95.0</ele><time>2026-04-24T09:01:24.16Z</time></trkpt><trkpt lat="36.4818041" lon="10.5702079"><ele>95.0</ele><time>2026-04-24T09:01:25.119Z</time></trkpt><trkpt lat="36.4815684" lon="10.5702275"><ele>95.0</ele><time>2026-04-24T09:01:26.134Z</time></trkpt><trkpt lat="36.4813303" lon="10.570252"><ele>95.0</ele><time>2026-04-24T09:01:27.142Z</time></trkpt><trkpt lat="36.4810944" lon="10.5702779"><ele>95.0</ele><time>2026-04-24T09:01:28.141Z</time></trkpt><trkpt lat="36.4808591" lon="10.5702855"><ele>95.0</ele><time>2026-04-24T09:01:29.153Z</time></trkpt><trkpt lat="36.4806275" lon="10.5703027"><ele>91.5</ele><time>2026-04-24T09:01:30.144Z</time></trkpt><trkpt lat="36.4803939" lon="10.5703196"><ele>88.0</ele><time>2026-04-24T09:01:31.142Z</time></trkpt><trkpt lat="36.4801581" lon="10.5703233"><ele>88.0</ele><time>2026-04-24T09:01:32.149Z</time></trkpt><trkpt lat="36.4799192" lon="10.5703328"><ele>88.0</ele><time>2026-04-24T09:01:33.151Z</time></trkpt><trkpt lat="36.4796819" lon="10.5703356"><ele>87.5</ele><time>2026-04-24T09:01:34.155Z</time></trkpt><trkpt lat="36.4794446" lon="10.5703327"><ele>87.0</ele><time>2026-04-24T09:01:35.103Z</time></trkpt><trkpt lat="36.4792097" lon="10.5703346"><ele>87.0</ele><time>2026-04-24T09:01:36.113Z</time></trkpt><trkpt lat="36.4789779" lon="10.5703292"><ele>87.0</ele><time>2026-04-24T09:01:37.125Z</time></trkpt><trkpt lat="36.4787454" lon="10.5703202"><ele>88.5</ele><time>2026-04-24T09:01:38.112Z</time></trkpt><trkpt lat="36.4785108" lon="10.5703188"><ele>90.0</ele><time>2026-04-24T09:01:39.124Z</time></trkpt><trkpt lat="36.4782708" lon="10.5703065"><ele>90.0</ele><time>2026-04-24T09:01:40.137Z</time></trkpt><trkpt lat="36.4780361" lon="10.5702997"><ele>90.0</ele><time>2026-04-24T09:01:41.155Z</time></trkpt><trkpt lat="36.4778041" lon="10.5702859"><ele>90.0</ele><time>2026-04-24T09:01:42.137Z</time></trkpt><trkpt lat="36.4775681" lon="10.5702591"><ele>90.0</ele><time>2026-04-24T09:01:43.142Z</time></trkpt><trkpt lat="36.4773342" lon="10.5702314"><ele>88.5</ele><time>2026-04-24T09:01:44.146Z</time></trkpt><trkpt lat="36.4770969" lon="10.5702167"><ele>87.0</ele><time>2026-04-24T09:01:45.152Z</time></trkpt><trkpt lat="36.4768618" lon="10.5701777"><ele>87.0</ele><time>2026-04-24T09:01:46.139Z</time></trkpt><trkpt lat="36.4766286" lon="10.5701425"><ele>87.0</ele><time>2026-04-24T09:01:47.144Z</time></trkpt><trkpt lat="36.4763926" lon="10.5701179"><ele>86.5</ele><time>2026-04-24T09:01:48.159Z</time></trkpt><trkpt lat="36.4761576" lon="10.5700845"><ele>86.0</ele><time>2026-04-24T09:01:49.136Z</time></trkpt><trkpt lat="36.475926" lon="10.5700465"><ele>86.0</ele><time>2026-04-24T09:01:50.14Z</time></trkpt><trkpt lat="36.4756975" lon="10.5700083"><ele>86.0</ele><time>2026-04-24T09:01:51.136Z</time></trkpt><trkpt lat="36.4754697" lon="10.5699695"><ele>84.5</ele><time>2026-04-24T09:01:52.141Z</time></trkpt><trkpt lat="36.4752346" lon="10.5699213"><ele>83.0</ele><time>2026-04-24T09:01:53.139Z</time></trkpt><trkpt lat="36.4749953" lon="10.569886"><ele>83.0</ele><time>2026-04-24T09:01:54.132Z</time></trkpt><trkpt lat="36.4747641" lon="10.5698445"><ele>83.0</ele><time>2026-04-24T09:01:55.114Z</time></trkpt><trkpt lat="36.4745333" lon="10.5697843"><ele>81.0</ele><time>2026-04-24T09:01:56.131Z</time></trkpt><trkpt lat="36.4743009" lon="10.5697387"><ele>79.0</ele><time>2026-04-24T09:01:57.126Z</time></trkpt><trkpt lat="36.4740701" lon="10.5696818"><ele>79.0</ele><time>2026-04-24T09:01:58.148Z</time></trkpt><trkpt lat="36.473838" lon="10.5696151"><ele>79.0</ele><time>2026-04-24T09:01:59.162Z</time></trkpt><trkpt lat="36.4736119" lon="10.5695542"><ele>77.5</ele><time>2026-04-24T09:02:00.131Z</time></trkpt><trkpt lat="36.473381" lon="10.5694915"><ele>76.0</ele><time>2026-04-24T09:02:01.135Z</time></trkpt><trkpt lat="36.473152" lon="10.5694231"><ele>75.5</ele><time>2026-04-24T09:02:02.166Z</time></trkpt><trkpt lat="36.4729247" lon="10.5693571"><ele>75.0</ele><time>2026-04-24T09:02:03.149Z</time></trkpt><trkpt lat="36.472698" lon="10.5692932"><ele>75.0</ele><time>2026-04-24T09:02:04.145Z</time></trkpt><trkpt lat="36.4724669" lon="10.5692158"><ele>75.0</ele><time>2026-04-24T09:02:05.155Z</time></trkpt><trkpt lat="36.4722416" lon="10.5691466"><ele>74.0</ele><time>2026-04-24T09:02:06.147Z</time></trkpt><trkpt lat="36.4720123" lon="10.5690818"><ele>73.0</ele><time>2026-04-24T09:02:07.165Z</time></trkpt><trkpt lat="36.4717896" lon="10.5689961"><ele>73.0</ele><time>2026-04-24T09:02:08.144Z</time></trkpt><trkpt lat="36.4715555" lon="10.5689198"><ele>73.0</ele><time>2026-04-24T09:02:09.139Z</time></trkpt><trkpt lat="36.4713305" lon="10.5688362"><ele>73.0</ele><time>2026-04-24T09:02:10.145Z</time></trkpt><trkpt lat="36.4711081" lon="10.5687521"><ele>73.0</ele><time>2026-04-24T09:02:11.148Z</time></trkpt><trkpt lat="36.4708806" lon="10.5686747"><ele>73.0</ele><time>2026-04-24T09:02:12.133Z</time></trkpt><trkpt lat="36.4706579" lon="10.5685923"><ele>73.0</ele><time>2026-04-24T09:02:13.141Z</time></trkpt><trkpt lat="36.4704284" lon="10.568512"><ele>72.5</ele><time>2026-04-24T09:02:14.117Z</time></trkpt><trkpt lat="36.4702041" lon="10.5684426"><ele>72.0</ele><time>2026-04-24T09:02:15.15Z</time></trkpt><trkpt lat="36.4699801" lon="10.5683636"><ele>72.0</ele><time>2026-04-24T09:02:16.137Z</time></trkpt><trkpt lat="36.4697586" lon="10.568282"><ele>72.0</ele><time>2026-04-24T09:02:17.157Z</time></trkpt><trkpt lat="36.4695304" lon="10.5682011"><ele>72.0</ele><time>2026-04-24T09:02:18.164Z</time></trkpt><trkpt lat="36.469301" lon="10.568129"><ele>72.0</ele><time>2026-04-24T09:02:19.138Z</time></trkpt><trkpt lat="36.4690684" lon="10.5680686"><ele>72.0</ele><time>2026-04-24T09:02:20.132Z</time></trkpt><trkpt lat="36.4688397" lon="10.5679956"><ele>72.0</ele><time>2026-04-24T09:02:21.16Z</time></trkpt><trkpt lat="36.468613" lon="10.5679207"><ele>74.5</ele><time>2026-04-24T09:02:22.12Z</time></trkpt><trkpt lat="36.4683883" lon="10.5678562"><ele>77.0</ele><time>2026-04-24T09:02:23.137Z</time></trkpt><trkpt lat="36.4681562" lon="10.5677901"><ele>75.5</ele><time>2026-04-24T09:02:24.137Z</time></trkpt><trkpt lat="36.4679251" lon="10.5677355"><ele>74.0</ele><time>2026-04-24T09:02:25.146Z</time></trkpt><trkpt lat="36.4676935" lon="10.5676828"><ele>74.0</ele><time>2026-04-24T09:02:26.155Z</time></trkpt><trkpt lat="36.4674646" lon="10.567623"><ele>74.0</ele><time>2026-04-24T09:02:27.136Z</time></trkpt><trkpt lat="36.4672326" lon="10.5675781"><ele>72.5</ele><time>2026-04-24T09:02:28.107Z</time></trkpt><trkpt lat="36.4670005" lon="10.5675371"><ele>71.0</ele><time>2026-04-24T09:02:29.16Z</time></trkpt><trkpt lat="36.4667725" lon="10.5674919"><ele>71.0</ele><time>2026-04-24T09:02:30.108Z</time></trkpt><trkpt lat="36.4665452" lon="10.5674578"><ele>71.0</ele><time>2026-04-24T09:02:31.114Z</time></trkpt><trkpt lat="36.4663102" lon="10.5674248"><ele>70.0</ele><time>2026-04-24T09:02:32.145Z</time></trkpt><trkpt lat="36.4660702" lon="10.5673833"><ele>69.0</ele><time>2026-04-24T09:02:33.158Z</time></trkpt><trkpt lat="36.4658344" lon="10.5673601"><ele>69.0</ele><time>2026-04-24T09:02:34.151Z</time></trkpt><trkpt lat="36.4656012" lon="10.5673379"><ele>69.0</ele><time>2026-04-24T09:02:35.129Z</time></trkpt><trkpt lat="36.4653675" lon="10.5673137"><ele>68.0</ele><time>2026-04-24T09:02:36.137Z</time></trkpt><trkpt lat="36.4651337" lon="10.567304"><ele>67.0</ele><time>2026-04-24T09:02:37.134Z</time></trkpt><trkpt lat="36.4648958" lon="10.5672969"><ele>67.0</ele><time>2026-04-24T09:02:38.122Z</time></trkpt><trkpt lat="36.4646598" lon="10.5672853"><ele>67.0</ele><time>2026-04-24T09:02:39.137Z</time></trkpt><trkpt lat="36.4644301" lon="10.5672876"><ele>66.5</ele><time>2026-04-24T09:02:40.113Z</time></trkpt><trkpt lat="36.464194" lon="10.5672916"><ele>66.0</ele><time>2026-04-24T09:02:41.106Z</time></trkpt><trkpt lat="36.4639613" lon="10.5672872"><ele>65.5</ele><time>2026-04-24T09:02:42.136Z</time></trkpt><trkpt lat="36.4637199" lon="10.5673008"><ele>65.0</ele><time>2026-04-24T09:02:43.158Z</time></trkpt><trkpt lat="36.4634816" lon="10.5673113"><ele>65.0</ele><time>2026-04-24T09:02:44.156Z</time></trkpt><trkpt lat="36.4632507" lon="10.567314"><ele>65.0</ele><time>2026-04-24T09:02:45.13Z</time></trkpt><trkpt lat="36.4630195" lon="10.5673154"><ele>66.0</ele><time>2026-04-24T09:02:46.149Z</time></trkpt><trkpt lat="36.4627787" lon="10.5673348"><ele>67.0</ele><time>2026-04-24T09:02:47.129Z</time></trkpt><trkpt lat="36.4625469" lon="10.567339"><ele>67.0</ele><time>2026-04-24T09:02:48.148Z</time></trkpt><trkpt lat="36.4623167" lon="10.5673414"><ele>67.0</ele><time>2026-04-24T09:02:49.141Z</time></trkpt><trkpt lat="36.4620844" lon="10.5673532"><ele>66.5</ele><time>2026-04-24T09:02:50.129Z</time></trkpt><trkpt lat="36.4618535" lon="10.5673583"><ele>66.0</ele><time>2026-04-24T09:02:51.123Z</time></trkpt><trkpt lat="36.461616" lon="10.5673614"><ele>66.0</ele><time>2026-04-24T09:02:52.146Z</time></trkpt><trkpt lat="36.4613797" lon="10.567373"><ele>66.0</ele><time>2026-04-24T09:02:53.142Z</time></trkpt><trkpt lat="36.4611431" lon="10.5673738"><ele>68.0</ele><time>2026-04-24T09:02:54.149Z</time></trkpt><trkpt lat="36.4609078" lon="10.5673651"><ele>70.0</ele><time>2026-04-24T09:02:55.12Z</time></trkpt><trkpt lat="36.460674" lon="10.5673543"><ele>70.0</ele><time>2026-04-24T09:02:56.129Z</time></trkpt><trkpt lat="36.4604368" lon="10.5673474"><ele>70.0</ele><time>2026-04-24T09:02:57.152Z</time></trkpt><trkpt lat="36.4602011" lon="10.5673378"><ele>70.0</ele><time>2026-04-24T09:02:58.13Z</time></trkpt><trkpt lat="36.4599646" lon="10.5673257"><ele>70.0</ele><time>2026-04-24T09:02:59.14Z</time></trkpt><trkpt lat="36.4597298" lon="10.5673102"><ele>69.5</ele><time>2026-04-24T09:03:00.124Z</time></trkpt><trkpt lat="36.4594993" lon="10.5672795"><ele>69.0</ele><time>2026-04-24T09:03:01.139Z</time></trkpt><trkpt lat="36.4592648" lon="10.5672502"><ele>69.0</ele><time>2026-04-24T09:03:02.129Z</time></trkpt><trkpt lat="36.4590308" lon="10.5672299"><ele>69.0</ele><time>2026-04-24T09:03:03.114Z</time></trkpt><trkpt lat="36.4587972" lon="10.5671905"><ele>69.5</ele><time>2026-04-24T09:03:04.135Z</time></trkpt><trkpt lat="36.4585652" lon="10.5671418"><ele>70.0</ele><time>2026-04-24T09:03:05.124Z</time></trkpt><trkpt lat="36.4583337" lon="10.5671011"><ele>70.0</ele><time>2026-04-24T09:03:06.122Z</time></trkpt><trkpt lat="36.4581005" lon="10.5670694"><ele>70.0</ele><time>2026-04-24T09:03:07.121Z</time></trkpt><trkpt lat="36.4578671" lon="10.567019"><ele>72.0</ele><time>2026-04-24T09:03:08.139Z</time></trkpt><trkpt lat="36.4576364" lon="10.5669511"><ele>74.0</ele><time>2026-04-24T09:03:09.136Z</time></trkpt><trkpt lat="36.4574049" lon="10.5668853"><ele>74.0</ele><time>2026-04-24T09:03:10.119Z</time></trkpt><trkpt lat="36.457174" lon="10.5668327"><ele>74.0</ele><time>2026-04-24T09:03:11.128Z</time></trkpt><trkpt lat="36.4569433" lon="10.566777"><ele>72.0</ele><time>2026-04-24T09:03:12.143Z</time></trkpt><trkpt lat="36.4567168" lon="10.566708"><ele>70.0</ele><time>2026-04-24T09:03:13.135Z</time></trkpt><trkpt lat="36.4564832" lon="10.5666244"><ele>69.0</ele><time>2026-04-24T09:03:14.131Z</time></trkpt><trkpt lat="36.4562575" lon="10.5665484"><ele>68.0</ele><time>2026-04-24T09:03:15.129Z</time></trkpt><trkpt lat="36.4560289" lon="10.5664898"><ele>68.0</ele><time>2026-04-24T09:03:16.136Z</time></trkpt><trkpt lat="36.4557977" lon="10.566423"><ele>68.0</ele><time>2026-04-24T09:03:17.143Z</time></trkpt><trkpt lat="36.4555735" lon="10.5663455"><ele>68.5</ele><time>2026-04-24T09:03:18.136Z</time></trkpt><trkpt lat="36.4553453" lon="10.566264"><ele>69.0</ele><time>2026-04-24T09:03:19.144Z</time></trkpt><trkpt lat="36.4551173" lon="10.5661841"><ele>68.0</ele><time>2026-04-24T09:03:20.136Z</time></trkpt><trkpt lat="36.4548893" lon="10.5661086"><ele>67.0</ele><time>2026-04-24T09:03:21.112Z</time></trkpt><trkpt lat="36.4546581" lon="10.5660458"><ele>66.5</ele><time>2026-04-24T09:03:22.151Z</time></trkpt><trkpt lat="36.4544275" lon="10.5659786"><ele>66.0</ele><time>2026-04-24T09:03:23.143Z</time></trkpt><trkpt lat="36.4542063" lon="10.5658959"><ele>66.0</ele><time>2026-04-24T09:03:24.142Z</time></trkpt><trkpt lat="36.4539808" lon="10.5658069"><ele>66.0</ele><time>2026-04-24T09:03:25.138Z</time></trkpt><trkpt lat="36.4537546" lon="10.5657261"><ele>65.5</ele><time>2026-04-24T09:03:26.137Z</time></trkpt><trkpt lat="36.453526" lon="10.5656588"><ele>65.0</ele><time>2026-04-24T09:03:27.135Z</time></trkpt><trkpt lat="36.4532965" lon="10.5655982"><ele>65.0</ele><time>2026-04-24T09:03:28.131Z</time></trkpt><trkpt lat="36.4530656" lon="10.5655418"><ele>65.0</ele><time>2026-04-24T09:03:29.14Z</time></trkpt><trkpt lat="36.4528359" lon="10.5654827"><ele>64.0</ele><time>2026-04-24T09:03:30.141Z</time></trkpt><trkpt lat="36.4526066" lon="10.5654204"><ele>63.0</ele><time>2026-04-24T09:03:31.14Z</time></trkpt><trkpt lat="36.4523709" lon="10.5653703"><ele>64.5</ele><time>2026-04-24T09:03:32.137Z</time></trkpt><trkpt lat="36.4521327" lon="10.5653346"><ele>66.0</ele><time>2026-04-24T09:03:33.117Z</time></trkpt><trkpt lat="36.4518955" lon="10.5653101"><ele>66.0</ele><time>2026-04-24T09:03:34.138Z</time></trkpt><trkpt lat="36.4516612" lon="10.5652751"><ele>66.0</ele><time>2026-04-24T09:03:35.154Z</time></trkpt><trkpt lat="36.4514309" lon="10.5652409"><ele>67.0</ele><time>2026-04-24T09:03:36.148Z</time></trkpt><trkpt lat="36.4512019" lon="10.5652305"><ele>68.0</ele><time>2026-04-24T09:03:37.152Z</time></trkpt><trkpt lat="36.4509679" lon="10.5652276"><ele>68.0</ele><time>2026-04-24T09:03:38.141Z</time></trkpt><trkpt lat="36.4507324" lon="10.5652147"><ele>68.0</ele><time>2026-04-24T09:03:39.147Z</time></trkpt><trkpt lat="36.4504973" lon="10.5651972"><ele>68.5</ele><time>2026-04-24T09:03:40.13Z</time></trkpt><trkpt lat="36.4502588" lon="10.5652023"><ele>69.0</ele><time>2026-04-24T09:03:41.125Z</time></trkpt><trkpt lat="36.4500234" lon="10.5652241"><ele>69.0</ele><time>2026-04-24T09:03:42.14Z</time></trkpt><trkpt lat="36.4497905" lon="10.5652403"><ele>69.0</ele><time>2026-04-24T09:03:43.144Z</time></trkpt><trkpt lat="36.4495573" lon="10.565247"><ele>69.0</ele><time>2026-04-24T09:03:44.11Z</time></trkpt><trkpt lat="36.4493186" lon="10.5652628"><ele>69.0</ele><time>2026-04-24T09:03:45.135Z</time></trkpt><trkpt lat="36.4490813" lon="10.5653031"><ele>69.0</ele><time>2026-04-24T09:03:46.138Z</time></trkpt><trkpt lat="36.4488471" lon="10.5653506"><ele>69.0</ele><time>2026-04-24T09:03:47.131Z</time></trkpt><trkpt lat="36.4486208" lon="10.5653958"><ele>67.5</ele><time>2026-04-24T09:03:48.141Z</time></trkpt><trkpt lat="36.4483829" lon="10.5654318"><ele>66.0</ele><time>2026-04-24T09:03:49.141Z</time></trkpt><trkpt lat="36.4481475" lon="10.5654647"><ele>64.5</ele><time>2026-04-24T09:03:50.132Z</time></trkpt><trkpt lat="36.4479148" lon="10.5654992"><ele>63.0</ele><time>2026-04-24T09:03:51.151Z</time></trkpt><trkpt lat="36.447676" lon="10.5655425"><ele>63.0</ele><time>2026-04-24T09:03:52.146Z</time></trkpt><trkpt lat="36.4474423" lon="10.5655883"><ele>63.0</ele><time>2026-04-24T09:03:53.139Z</time></trkpt><trkpt lat="36.4472176" lon="10.5656341"><ele>61.5</ele><time>2026-04-24T09:03:54.149Z</time></trkpt><trkpt lat="36.4469866" lon="10.5656713"><ele>60.0</ele><time>2026-04-24T09:03:55.127Z</time></trkpt><trkpt lat="36.446752" lon="10.5657013"><ele>60.0</ele><time>2026-04-24T09:03:56.15Z</time></trkpt><trkpt lat="36.4465178" lon="10.5657382"><ele>60.0</ele><time>2026-04-24T09:03:57.162Z</time></trkpt><trkpt lat="36.4462817" lon="10.5657697"><ele>58.5</ele><time>2026-04-24T09:03:58.142Z</time></trkpt><trkpt lat="36.4460433" lon="10.565794"><ele>57.0</ele><time>2026-04-24T09:03:59.145Z</time></trkpt><trkpt lat="36.4458133" lon="10.5658097"><ele>57.0</ele><time>2026-04-24T09:04:00.132Z</time></trkpt><trkpt lat="36.4455914" lon="10.5658244"><ele>57.0</ele><time>2026-04-24T09:04:01.145Z</time></trkpt><trkpt lat="36.4453733" lon="10.5658292"><ele>57.0</ele><time>2026-04-24T09:04:02.14Z</time></trkpt><trkpt lat="36.445159" lon="10.5658328"><ele>57.66666666666667</ele><time>2026-04-24T09:04:03.138Z</time></trkpt><trkpt lat="36.4449562" lon="10.5658272"><ele>58.333333333333336</ele><time>2026-04-24T09:04:04.155Z</time></trkpt><trkpt lat="36.444753" lon="10.5658146"><ele>59.0</ele><time>2026-04-24T09:04:05.13Z</time></trkpt><trkpt lat="36.4445511" lon="10.5657957"><ele>59.333333333333336</ele><time>2026-04-24T09:04:06.158Z</time></trkpt><trkpt lat="36.4443525" lon="10.5657705"><ele>59.66666666666667</ele><time>2026-04-24T09:04:07.156Z</time></trkpt><trkpt lat="36.4441543" lon="10.5657335"><ele>60.0</ele><time>2026-04-24T09:04:08.147Z</time></trkpt><trkpt lat="36.4439511" lon="10.5656935"><ele>58.66666666666667</ele><time>2026-04-24T09:04:09.142Z</time></trkpt><trkpt lat="36.4437589" lon="10.5656617"><ele>57.333333333333336</ele><time>2026-04-24T09:04:10.14Z</time></trkpt><trkpt lat="36.443582" lon="10.5656259"><ele>56.0</ele><time>2026-04-24T09:04:11.143Z</time></trkpt><trkpt lat="36.4434173" lon="10.5655961"><ele>56.0</ele><time>2026-04-24T09:04:12.122Z</time></trkpt><trkpt lat="36.4432521" lon="10.5655568"><ele>56.0</ele><time>2026-04-24T09:04:13.138Z</time></trkpt><trkpt lat="36.4430913" lon="10.5655089"><ele>56.0</ele><time>2026-04-24T09:04:14.132Z</time></trkpt><trkpt lat="36.4429425" lon="10.5654441"><ele>56.75</ele><time>2026-04-24T09:04:15.147Z</time></trkpt><trkpt lat="36.4428042" lon="10.5653675"><ele>57.5</ele><time>2026-04-24T09:04:16.122Z</time></trkpt><trkpt lat="36.4426808" lon="10.5652808"><ele>58.25</ele><time>2026-04-24T09:04:17.108Z</time></trkpt><trkpt lat="36.4425633" lon="10.5651714"><ele>59.0</ele><time>2026-04-24T09:04:18.14Z</time></trkpt><trkpt lat="36.4424577" lon="10.5650442"><ele>59.0</ele><time>2026-04-24T09:04:19.135Z</time></trkpt><trkpt lat="36.4423659" lon="10.5649017"><ele>59.0</ele><time>2026-04-24T09:04:20.117Z</time></trkpt><trkpt lat="36.4422921" lon="10.5647492"><ele>59.0</ele><time>2026-04-24T09:04:21.137Z</time></trkpt><trkpt lat="36.4422225" lon="10.5645959"><ele>59.0</ele><time>2026-04-24T09:04:22.123Z</time></trkpt><trkpt lat="36.4421562" lon="10.5644356"><ele>59.25</ele><time>2026-04-24T09:04:23.142Z</time></trkpt><trkpt lat="36.4420992" lon="10.5642767"><ele>59.5</ele><time>2026-04-24T09:04:24.141Z</time></trkpt><trkpt lat="36.4420373" lon="10.5641202"><ele>59.75</ele><time>2026-04-24T09:04:25.144Z</time></trkpt><trkpt lat="36.441977" lon="10.5639848"><ele>60.0</ele><time>2026-04-24T09:04:26.151Z</time></trkpt><trkpt lat="36.4419024" lon="10.5638645"><ele>60.0</ele><time>2026-04-24T09:04:27.142Z</time></trkpt><trkpt lat="36.4418194" lon="10.5637631"><ele>60.0</ele><time>2026-04-24T09:04:28.123Z</time></trkpt><trkpt lat="36.441716" lon="10.5636827"><ele>60.0</ele><time>2026-04-24T09:04:29.143Z</time></trkpt><trkpt lat="36.4415972" lon="10.5636384"><ele>60.0</ele><time>2026-04-24T09:04:30.122Z</time></trkpt><trkpt lat="36.441468" lon="10.563623"><ele>59.75</ele><time>2026-04-24T09:04:31.146Z</time></trkpt><trkpt lat="36.4413488" lon="10.5636412"><ele>59.5</ele><time>2026-04-24T09:04:32.125Z</time></trkpt><trkpt lat="36.4412325" lon="10.563689"><ele>59.25</ele><time>2026-04-24T09:04:33.112Z</time></trkpt><trkpt lat="36.4411073" lon="10.5637814"><ele>59.0</ele><time>2026-04-24T09:04:34.131Z</time></trkpt><trkpt lat="36.4410191" lon="10.5639119"><ele>58.66666666666667</ele><time>2026-04-24T09:04:35.151Z</time></trkpt><trkpt lat="36.4409451" lon="10.5640665"><ele>58.33333333333333</ele><time>2026-04-24T09:04:36.13Z</time></trkpt><trkpt lat="36.4408884" lon="10.5642453"><ele>58.0</ele><time>2026-04-24T09:04:37.127Z</time></trkpt><trkpt lat="36.4408247" lon="10.5644418"><ele>57.666666666666664</ele><time>2026-04-24T09:04:38.138Z</time></trkpt><trkpt lat="36.4407555" lon="10.5646344"><ele>57.33333333333333</ele><time>2026-04-24T09:04:39.146Z</time></trkpt><trkpt lat="36.4406893" lon="10.5648148"><ele>57.0</ele><time>2026-04-24T09:04:40.123Z</time></trkpt><trkpt lat="36.4406257" lon="10.5649933"><ele>57.0</ele><time>2026-04-24T09:04:41.138Z</time></trkpt><trkpt lat="36.4405651" lon="10.5651687"><ele>57.0</ele><time>2026-04-24T09:04:42.15Z</time></trkpt><trkpt lat="36.4405052" lon="10.5653354"><ele>57.0</ele><time>2026-04-24T09:04:43.144Z</time></trkpt><trkpt lat="36.4404479" lon="10.5655101"><ele>55.66666666666667</ele><time>2026-04-24T09:04:44.142Z</time></trkpt><trkpt lat="36.4403977" lon="10.5656873"><ele>54.333333333333336</ele><time>2026-04-24T09:04:45.131Z</time></trkpt><trkpt lat="36.440353" lon="10.5658716"><ele>53.0</ele><time>2026-04-24T09:04:46.14Z</time></trkpt><trkpt lat="36.440316" lon="10.5660634"><ele>51.0</ele><time>2026-04-24T09:04:47.129Z</time></trkpt><trkpt lat="36.4402839" lon="10.5662622"><ele>49.0</ele><time>2026-04-24T09:04:48.156Z</time></trkpt><trkpt lat="36.4402624" lon="10.5664781"><ele>47.0</ele><time>2026-04-24T09:04:49.137Z</time></trkpt><trkpt lat="36.4402491" lon="10.5667134"><ele>47.0</ele><time>2026-04-24T09:04:50.142Z</time></trkpt><trkpt lat="36.440239" lon="10.5669505"><ele>47.0</ele><time>2026-04-24T09:04:51.141Z</time></trkpt><trkpt lat="36.4402307" lon="10.5671847"><ele>47.0</ele><time>2026-04-24T09:04:52.133Z</time></trkpt><trkpt lat="36.4402275" lon="10.5674191"><ele>46.33333333333333</ele><time>2026-04-24T09:04:53.147Z</time></trkpt><trkpt lat="36.4402274" lon="10.5676485"><ele>45.666666666666664</ele><time>2026-04-24T09:04:54.156Z</time></trkpt><trkpt lat="36.4402448" lon="10.5678757"><ele>45.0</ele><time>2026-04-24T09:04:55.155Z</time></trkpt><trkpt lat="36.4402718" lon="10.5681023"><ele>45.0</ele><time>2026-04-24T09:04:56.158Z</time></trkpt><trkpt lat="36.440307" lon="10.5683328"><ele>45.0</ele><time>2026-04-24T09:04:57.136Z</time></trkpt><trkpt lat="36.440353" lon="10.568557"><ele>45.0</ele><time>2026-04-24T09:04:58.143Z</time></trkpt><trkpt lat="36.4404067" lon="10.5687776"><ele>46.0</ele><time>2026-04-24T09:04:59.154Z</time></trkpt><trkpt lat="36.4404494" lon="10.5690096"><ele>47.0</ele><time>2026-04-24T09:05:00.124Z</time></trkpt><trkpt lat="36.44049" lon="10.5692419"><ele>48.0</ele><time>2026-04-24T09:05:01.138Z</time></trkpt><trkpt lat="36.4405388" lon="10.5694654"><ele>49.66666666666667</ele><time>2026-04-24T09:05:02.146Z</time></trkpt><trkpt lat="36.4405931" lon="10.569691"><ele>51.333333333333336</ele><time>2026-04-24T09:05:03.137Z</time></trkpt><trkpt lat="36.4406392" lon="10.5699173"><ele>53.0</ele><time>2026-04-24T09:05:04.148Z</time></trkpt><trkpt lat="36.4406936" lon="10.5701362"><ele>51.66666666666667</ele><time>2026-04-24T09:05:05.134Z</time></trkpt><trkpt lat="36.4407481" lon="10.5703617"><ele>50.33333333333333</ele><time>2026-04-24T09:05:06.147Z</time></trkpt><trkpt lat="36.4407883" lon="10.5705801"><ele>49.0</ele><time>2026-04-24T09:05:07.117Z</time></trkpt><trkpt lat="36.4408339" lon="10.5707983"><ele>49.0</ele><time>2026-04-24T09:05:08.133Z</time></trkpt><trkpt lat="36.4408842" lon="10.5710143"><ele>49.0</ele><time>2026-04-24T09:05:09.136Z</time></trkpt><trkpt lat="36.4409308" lon="10.5712219"><ele>49.0</ele><time>2026-04-24T09:05:10.136Z</time></trkpt><trkpt lat="36.4409692" lon="10.5714439"><ele>46.666666666666664</ele><time>2026-04-24T09:05:11.146Z</time></trkpt><trkpt lat="36.4410178" lon="10.5716681"><ele>44.33333333333333</ele><time>2026-04-24T09:05:12.144Z</time></trkpt><trkpt lat="36.4410691" lon="10.5718765"><ele>42.0</ele><time>2026-04-24T09:05:13.15Z</time></trkpt><trkpt lat="36.4411116" lon="10.5720861"><ele>40.666666666666664</ele><time>2026-04-24T09:05:14.109Z</time></trkpt><trkpt lat="36.4411546" lon="10.5723039"><ele>39.33333333333333</ele><time>2026-04-24T09:05:15.116Z</time></trkpt><trkpt lat="36.441199" lon="10.5725198"><ele>38.0</ele><time>2026-04-24T09:05:16.108Z</time></trkpt><trkpt lat="36.4412441" lon="10.5727326"><ele>37.666666666666664</ele><time>2026-04-24T09:05:17.103Z</time></trkpt><trkpt lat="36.4412922" lon="10.5729481"><ele>37.333333333333336</ele><time>2026-04-24T09:05:18.111Z</time></trkpt><trkpt lat="36.4413412" lon="10.5731612"><ele>37.0</ele><time>2026-04-24T09:05:19.098Z</time></trkpt><trkpt lat="36.4413856" lon="10.5733826"><ele>37.0</ele><time>2026-04-24T09:05:20.125Z</time></trkpt><trkpt lat="36.4414362" lon="10.5736002"><ele>37.0</ele><time>2026-04-24T09:05:21.143Z</time></trkpt><trkpt lat="36.4414806" lon="10.5738113"><ele>37.0</ele><time>2026-04-24T09:05:22.125Z</time></trkpt><trkpt lat="36.4415259" lon="10.5740262"><ele>37.66666666666667</ele><time>2026-04-24T09:05:23.118Z</time></trkpt><trkpt lat="36.441569" lon="10.5742376"><ele>38.333333333333336</ele><time>2026-04-24T09:05:24.116Z</time></trkpt><trkpt lat="36.4416181" lon="10.5744562"><ele>39.0</ele><time>2026-04-24T09:05:25.15Z</time></trkpt><trkpt lat="36.4416651" lon="10.5746732"><ele>40.666666666666664</ele><time>2026-04-24T09:05:26.135Z</time></trkpt><trkpt lat="36.4417076" lon="10.5748833"><ele>42.33333333333333</ele><time>2026-04-24T09:05:27.133Z</time></trkpt><trkpt lat="36.4417485" lon="10.575093"><ele>44.0</ele><time>2026-04-24T09:05:28.163Z</time></trkpt><trkpt lat="36.4417887" lon="10.5753016"><ele>45.33333333333333</ele><time>2026-04-24T09:05:29.139Z</time></trkpt><trkpt lat="36.4418333" lon="10.5755061"><ele>46.666666666666664</ele><time>2026-04-24T09:05:30.144Z</time></trkpt><trkpt lat="36.4418794" lon="10.5757047"><ele>48.0</ele><time>2026-04-24T09:05:31.158Z</time></trkpt><trkpt lat="36.4419259" lon="10.575903"><ele>48.0</ele><time>2026-04-24T09:05:32.148Z</time></trkpt><trkpt lat="36.4419656" lon="10.5761024"><ele>48.0</ele><time>2026-04-24T09:05:33.135Z</time></trkpt><trkpt lat="36.4420082" lon="10.5762995"><ele>48.0</ele><time>2026-04-24T09:05:34.124Z</time></trkpt><trkpt lat="36.4420497" lon="10.5765003"><ele>49.0</ele><time>2026-04-24T09:05:35.147Z</time></trkpt><trkpt lat="36.4420912" lon="10.5767043"><ele>50.0</ele><time>2026-04-24T09:05:36.137Z</time></trkpt><trkpt lat="36.4421364" lon="10.5769042"><ele>51.0</ele><time>2026-04-24T09:05:37.171Z</time></trkpt><trkpt lat="36.4421816" lon="10.577102"><ele>54.33333333333333</ele><time>2026-04-24T09:05:38.162Z</time></trkpt><trkpt lat="36.4422238" lon="10.577299"><ele>57.666666666666664</ele><time>2026-04-24T09:05:39.182Z</time></trkpt><trkpt lat="36.4422639" lon="10.577485"><ele>61.0</ele><time>2026-04-24T09:05:40.147Z</time></trkpt><trkpt lat="36.4422967" lon="10.5776574"><ele>61.0</ele><time>2026-04-24T09:05:41.173Z</time></trkpt><trkpt lat="36.4423323" lon="10.5778377"><ele>61.0</ele><time>2026-04-24T09:05:42.147Z</time></trkpt><trkpt lat="36.442374" lon="10.5780257"><ele>61.0</ele><time>2026-04-24T09:05:43.159Z</time></trkpt><trkpt lat="36.4424114" lon="10.5782204"><ele>61.33333333333333</ele><time>2026-04-24T09:05:44.117Z</time></trkpt><trkpt lat="36.4424561" lon="10.5784118"><ele>61.66666666666667</ele><time>2026-04-24T09:05:45.106Z</time></trkpt><trkpt lat="36.4424975" lon="10.5786018"><ele>62.0</ele><time>2026-04-24T09:05:46.121Z</time></trkpt><trkpt lat="36.4425403" lon="10.5788013"><ele>62.0</ele><time>2026-04-24T09:05:47.124Z</time></trkpt><trkpt lat="36.4425817" lon="10.5789935"><ele>62.0</ele><time>2026-04-24T09:05:48.145Z</time></trkpt><trkpt lat="36.4426207" lon="10.5791858"><ele>62.0</ele><time>2026-04-24T09:05:49.117Z</time></trkpt><trkpt lat="36.4426622" lon="10.5793804"><ele>62.0</ele><time>2026-04-24T09:05:50.135Z</time></trkpt><trkpt lat="36.4427023" lon="10.5795794"><ele>62.0</ele><time>2026-04-24T09:05:51.132Z</time></trkpt><trkpt lat="36.4427378" lon="10.5797721"><ele>62.0</ele><time>2026-04-24T09:05:52.128Z</time></trkpt><trkpt lat="36.4427648" lon="10.5799707"><ele>62.0</ele><time>2026-04-24T09:05:53.129Z</time></trkpt><trkpt lat="36.4427835" lon="10.5801684"><ele>62.0</ele><time>2026-04-24T09:05:54.158Z</time></trkpt><trkpt lat="36.4427949" lon="10.5803679"><ele>62.0</ele><time>2026-04-24T09:05:55.115Z</time></trkpt><trkpt lat="36.4428014" lon="10.5805674"><ele>60.66666666666667</ele><time>2026-04-24T09:05:56.129Z</time></trkpt><trkpt lat="36.4428029" lon="10.5807634"><ele>59.33333333333333</ele><time>2026-04-24T09:05:57.115Z</time></trkpt><trkpt lat="36.442798" lon="10.5809662"><ele>58.0</ele><time>2026-04-24T09:05:58.142Z</time></trkpt><trkpt lat="36.442791" lon="10.5811758"><ele>57.0</ele><time>2026-04-24T09:05:59.155Z</time></trkpt><trkpt lat="36.4427756" lon="10.5813838"><ele>56.0</ele><time>2026-04-24T09:06:00.129Z</time></trkpt><trkpt lat="36.4427523" lon="10.5815959"><ele>55.0</ele><time>2026-04-24T09:06:01.146Z</time></trkpt><trkpt lat="36.4427224" lon="10.581806"><ele>55.0</ele><time>2026-04-24T09:06:02.139Z</time></trkpt><trkpt lat="36.4426824" lon="10.5820109"><ele>55.0</ele><time>2026-04-24T09:06:03.137Z</time></trkpt><trkpt lat="36.442636" lon="10.5822158"><ele>55.0</ele><time>2026-04-24T09:06:04.133Z</time></trkpt><trkpt lat="36.4425826" lon="10.5824221"><ele>56.0</ele><time>2026-04-24T09:06:05.141Z</time></trkpt><trkpt lat="36.4425222" lon="10.5826326"><ele>57.0</ele><time>2026-04-24T09:06:06.153Z</time></trkpt><trkpt lat="36.4424549" lon="10.5828391"><ele>58.0</ele><time>2026-04-24T09:06:07.147Z</time></trkpt><trkpt lat="36.4423797" lon="10.5830443"><ele>60.0</ele><time>2026-04-24T09:06:08.154Z</time></trkpt><trkpt lat="36.4423029" lon="10.5832432"><ele>62.0</ele><time>2026-04-24T09:06:09.164Z</time></trkpt><trkpt lat="36.4422134" lon="10.5834399"><ele>64.0</ele><time>2026-04-24T09:06:10.126Z</time></trkpt><trkpt lat="36.4421235" lon="10.58363"><ele>64.66666666666666</ele><time>2026-04-24T09:06:11.138Z</time></trkpt><trkpt lat="36.4420285" lon="10.5838175"><ele>65.33333333333333</ele><time>2026-04-24T09:06:12.129Z</time></trkpt><trkpt lat="36.4419241" lon="10.5839946"><ele>66.0</ele><time>2026-04-24T09:06:13.151Z</time></trkpt><trkpt lat="36.4418152" lon="10.584171"><ele>66.0</ele><time>2026-04-24T09:06:14.139Z</time></trkpt><trkpt lat="36.4417043" lon="10.5843423"><ele>66.0</ele><time>2026-04-24T09:06:15.134Z</time></trkpt><trkpt lat="36.4415862" lon="10.5845082"><ele>66.0</ele><time>2026-04-24T09:06:16.148Z</time></trkpt><trkpt lat="36.4414614" lon="10.5846659"><ele>66.66666666666667</ele><time>2026-04-24T09:06:17.135Z</time></trkpt><trkpt lat="36.4413331" lon="10.5848182"><ele>67.33333333333334</ele><time>2026-04-24T09:06:18.125Z</time></trkpt><trkpt lat="36.4412052" lon="10.5849664"><ele>68.0</ele><time>2026-04-24T09:06:19.149Z</time></trkpt><trkpt lat="36.4410759" lon="10.5851099"><ele>66.66666666666667</ele><time>2026-04-24T09:06:20.142Z</time></trkpt><trkpt lat="36.4409472" lon="10.5852518"><ele>65.33333333333333</ele><time>2026-04-24T09:06:21.139Z</time></trkpt><trkpt lat="36.4408175" lon="10.5853986"><ele>64.0</ele><time>2026-04-24T09:06:22.127Z</time></trkpt><trkpt lat="36.4406916" lon="10.5855424"><ele>64.0</ele><time>2026-04-24T09:06:23.136Z</time></trkpt><trkpt lat="36.4405687" lon="10.5856855"><ele>64.0</ele><time>2026-04-24T09:06:24.147Z</time></trkpt><trkpt lat="36.4404418" lon="10.5858312"><ele>64.0</ele><time>2026-04-24T09:06:25.145Z</time></trkpt><trkpt lat="36.440318" lon="10.5859763"><ele>65.66666666666666</ele><time>2026-04-24T09:06:26.15Z</time></trkpt><trkpt lat="36.4401952" lon="10.5861231"><ele>67.33333333333333</ele><time>2026-04-24T09:06:27.127Z</time></trkpt><trkpt lat="36.4400652" lon="10.58627"><ele>69.0</ele><time>2026-04-24T09:06:28.14Z</time></trkpt><trkpt lat="36.439939" lon="10.5864174"><ele>69.0</ele><time>2026-04-24T09:06:29.143Z</time></trkpt><trkpt lat="36.4398112" lon="10.5865626"><ele>69.0</ele><time>2026-04-24T09:06:30.141Z</time></trkpt><trkpt lat="36.4396835" lon="10.5867094"><ele>69.0</ele><time>2026-04-24T09:06:31.153Z</time></trkpt><trkpt lat="36.4395512" lon="10.5868653"><ele>69.0</ele><time>2026-04-24T09:06:32.143Z</time></trkpt><trkpt lat="36.4394203" lon="10.5870175"><ele>69.0</ele><time>2026-04-24T09:06:33.14Z</time></trkpt><trkpt lat="36.4392858" lon="10.5871712"><ele>69.0</ele><time>2026-04-24T09:06:34.157Z</time></trkpt><trkpt lat="36.439156" lon="10.5873226"><ele>69.0</ele><time>2026-04-24T09:06:35.147Z</time></trkpt><trkpt lat="36.4390261" lon="10.5874698"><ele>69.0</ele><time>2026-04-24T09:06:36.131Z</time></trkpt><trkpt lat="36.4388926" lon="10.5876236"><ele>69.0</ele><time>2026-04-24T09:06:37.15Z</time></trkpt><trkpt lat="36.4387629" lon="10.5877726"><ele>67.33333333333333</ele><time>2026-04-24T09:06:38.139Z</time></trkpt><trkpt lat="36.4386326" lon="10.5879193"><ele>65.66666666666666</ele><time>2026-04-24T09:06:39.142Z</time></trkpt><trkpt lat="36.4385084" lon="10.5880606"><ele>64.0</ele><time>2026-04-24T09:06:40.166Z</time></trkpt><trkpt lat="36.4383854" lon="10.5881958"><ele>64.0</ele><time>2026-04-24T09:06:41.164Z</time></trkpt><trkpt lat="36.4382649" lon="10.5883306"><ele>64.0</ele><time>2026-04-24T09:06:42.164Z</time></trkpt><trkpt lat="36.4381447" lon="10.5884715"><ele>64.0</ele><time>2026-04-24T09:06:43.144Z</time></trkpt><trkpt lat="36.4380317" lon="10.5886077"><ele>65.0</ele><time>2026-04-24T09:06:44.148Z</time></trkpt><trkpt lat="36.4379133" lon="10.588738"><ele>66.0</ele><time>2026-04-24T09:06:45.14Z</time></trkpt><trkpt lat="36.4377977" lon="10.5888708"><ele>67.0</ele><time>2026-04-24T09:06:46.132Z</time></trkpt><trkpt lat="36.4376805" lon="10.5890038"><ele>67.0</ele><time>2026-04-24T09:06:47.149Z</time></trkpt><trkpt lat="36.4375581" lon="10.5891322"><ele>67.0</ele><time>2026-04-24T09:06:48.157Z</time></trkpt><trkpt lat="36.4374352" lon="10.589258"><ele>67.0</ele><time>2026-04-24T09:06:49.133Z</time></trkpt><trkpt lat="36.4373088" lon="10.589376"><ele>67.0</ele><time>2026-04-24T09:06:50.123Z</time></trkpt><trkpt lat="36.4371747" lon="10.5894816"><ele>67.0</ele><time>2026-04-24T09:06:51.142Z</time></trkpt><trkpt lat="36.4370411" lon="10.5895743"><ele>67.0</ele><time>2026-04-24T09:06:52.138Z</time></trkpt><trkpt lat="36.4369017" lon="10.5896631"><ele>69.0</ele><time>2026-04-24T09:06:53.118Z</time></trkpt><trkpt lat="36.4367578" lon="10.5897479"><ele>71.0</ele><time>2026-04-24T09:06:54.136Z</time></trkpt><trkpt lat="36.4366207" lon="10.589824"><ele>73.0</ele><time>2026-04-24T09:06:55.131Z</time></trkpt><trkpt lat="36.4364876" lon="10.5898871"><ele>73.0</ele><time>2026-04-24T09:06:56.121Z</time></trkpt><trkpt lat="36.4363471" lon="10.5899454"><ele>73.0</ele><time>2026-04-24T09:06:57.132Z</time></trkpt><trkpt lat="36.4362082" lon="10.5900028"><ele>73.0</ele><time>2026-04-24T09:06:58.147Z</time></trkpt><trkpt lat="36.4360679" lon="10.5900535"><ele>73.0</ele><time>2026-04-24T09:06:59.151Z</time></trkpt><trkpt lat="36.435926" lon="10.5900947"><ele>73.33333333333333</ele><time>2026-04-24T09:07:00.124Z</time></trkpt><trkpt lat="36.4357821" lon="10.5901267"><ele>73.66666666666667</ele><time>2026-04-24T09:07:01.133Z</time></trkpt><trkpt lat="36.4356266" lon="10.5901554"><ele>74.0</ele><time>2026-04-24T09:07:02.162Z</time></trkpt><trkpt lat="36.4354729" lon="10.5901783"><ele>73.33333333333334</ele><time>2026-04-24T09:07:03.146Z</time></trkpt><trkpt lat="36.4353191" lon="10.5901996"><ele>72.66666666666667</ele><time>2026-04-24T09:07:04.14Z</time></trkpt><trkpt lat="36.4351681" lon="10.5902113"><ele>72.0</ele><time>2026-04-24T09:07:05.141Z</time></trkpt><trkpt lat="36.4350131" lon="10.5902248"><ele>72.0</ele><time>2026-04-24T09:07:06.152Z</time></trkpt><trkpt lat="36.4348593" lon="10.5902431"><ele>72.0</ele><time>2026-04-24T09:07:07.13Z</time></trkpt><trkpt lat="36.4347005" lon="10.5902638"><ele>72.0</ele><time>2026-04-24T09:07:08.135Z</time></trkpt><trkpt lat="36.4345438" lon="10.5902793"><ele>70.0</ele><time>2026-04-24T09:07:09.117Z</time></trkpt><trkpt lat="36.434387" lon="10.5902952"><ele>68.0</ele><time>2026-04-24T09:07:10.146Z</time></trkpt><trkpt lat="36.4342314" lon="10.5903109"><ele>66.0</ele><time>2026-04-24T09:07:11.16Z</time></trkpt><trkpt lat="36.4340728" lon="10.590329"><ele>64.66666666666667</ele><time>2026-04-24T09:07:12.138Z</time></trkpt><trkpt lat="36.4339134" lon="10.5903484"><ele>63.333333333333336</ele><time>2026-04-24T09:07:13.148Z</time></trkpt><trkpt lat="36.4337513" lon="10.5903731"><ele>62.0</ele><time>2026-04-24T09:07:14.139Z</time></trkpt><trkpt lat="36.4335921" lon="10.5904151"><ele>60.0</ele><time>2026-04-24T09:07:15.152Z</time></trkpt><trkpt lat="36.4334338" lon="10.5904554"><ele>58.0</ele><time>2026-04-24T09:07:16.135Z</time></trkpt><trkpt lat="36.4332832" lon="10.5905122"><ele>56.0</ele><time>2026-04-24T09:07:17.135Z</time></trkpt><trkpt lat="36.433129" lon="10.5905737"><ele>56.0</ele><time>2026-04-24T09:07:18.133Z</time></trkpt><trkpt lat="36.4329735" lon="10.590653"><ele>56.0</ele><time>2026-04-24T09:07:19.147Z</time></trkpt><trkpt lat="36.4328183" lon="10.5907312"><ele>56.0</ele><time>2026-04-24T09:07:20.171Z</time></trkpt><trkpt lat="36.4326677" lon="10.5908143"><ele>54.333333333333336</ele><time>2026-04-24T09:07:21.137Z</time></trkpt><trkpt lat="36.4325168" lon="10.5909116"><ele>52.66666666666667</ele><time>2026-04-24T09:07:22.143Z</time></trkpt><trkpt lat="36.4323738" lon="10.5910222"><ele>51.0</ele><time>2026-04-24T09:07:23.138Z</time></trkpt><trkpt lat="36.4322223" lon="10.5911356"><ele>50.66666666666667</ele><time>2026-04-24T09:07:24.151Z</time></trkpt><trkpt lat="36.4320727" lon="10.5912547"><ele>50.333333333333336</ele><time>2026-04-24T09:07:25.145Z</time></trkpt><trkpt lat="36.4319268" lon="10.5913739"><ele>50.0</ele><time>2026-04-24T09:07:26.142Z</time></trkpt><trkpt lat="36.4317803" lon="10.5914846"><ele>50.0</ele><time>2026-04-24T09:07:27.157Z</time></trkpt><trkpt lat="36.4316365" lon="10.5915916"><ele>50.0</ele><time>2026-04-24T09:07:28.144Z</time></trkpt><trkpt lat="36.4314928" lon="10.5916957"><ele>50.0</ele><time>2026-04-24T09:07:29.144Z</time></trkpt><trkpt lat="36.4313447" lon="10.5917872"><ele>49.66666666666667</ele><time>2026-04-24T09:07:30.122Z</time></trkpt><trkpt lat="36.4312005" lon="10.5918714"><ele>49.33333333333333</ele><time>2026-04-24T09:07:31.137Z</time></trkpt><trkpt lat="36.43105" lon="10.5919468"><ele>49.0</ele><time>2026-04-24T09:07:32.113Z</time></trkpt><trkpt lat="36.4309041" lon="10.5920167"><ele>50.33333333333333</ele><time>2026-04-24T09:07:33.15Z</time></trkpt><trkpt lat="36.4307553" lon="10.5920747"><ele>51.66666666666667</ele><time>2026-04-24T09:07:34.125Z</time></trkpt><trkpt lat="36.430609" lon="10.5921314"><ele>53.0</ele><time>2026-04-24T09:07:35.134Z</time></trkpt><trkpt lat="36.4304587" lon="10.5921835"><ele>53.0</ele><time>2026-04-24T09:07:36.127Z</time></trkpt><trkpt lat="36.4303095" lon="10.5922287"><ele>53.0</ele><time>2026-04-24T09:07:37.126Z</time></trkpt><trkpt lat="36.4301686" lon="10.5922639"><ele>53.0</ele><time>2026-04-24T09:07:38.137Z</time></trkpt><trkpt lat="36.4300306" lon="10.5922948"><ele>53.0</ele><time>2026-04-24T09:07:39.139Z</time></trkpt><trkpt lat="36.4299038" lon="10.5923223"><ele>53.0</ele><time>2026-04-24T09:07:40.142Z</time></trkpt><trkpt lat="36.4297872" lon="10.5923465"><ele>53.0</ele><time>2026-04-24T09:07:41.142Z</time></trkpt><trkpt lat="36.4296812" lon="10.5923646"><ele>53.0</ele><time>2026-04-24T09:07:42.135Z</time></trkpt><trkpt lat="36.4295808" lon="10.5923793"><ele>53.0</ele><time>2026-04-24T09:07:43.151Z</time></trkpt><trkpt lat="36.4294827" lon="10.5923977"><ele>53.0</ele><time>2026-04-24T09:07:44.15Z</time></trkpt><trkpt lat="36.4293848" lon="10.5924118"><ele>52.8</ele><time>2026-04-24T09:07:45.151Z</time></trkpt><trkpt lat="36.4292825" lon="10.5924265"><ele>52.599999999999994</ele><time>2026-04-24T09:07:46.14Z</time></trkpt><trkpt lat="36.4291734" lon="10.5924451"><ele>52.400000000000006</ele><time>2026-04-24T09:07:47.144Z</time></trkpt><trkpt lat="36.4290637" lon="10.5924622"><ele>52.2</ele><time>2026-04-24T09:07:48.118Z</time></trkpt><trkpt lat="36.4289499" lon="10.5924793"><ele>52.0</ele><time>2026-04-24T09:07:49.152Z</time></trkpt><trkpt lat="36.42883" lon="10.5924974"><ele>51.75</ele><time>2026-04-24T09:07:50.151Z</time></trkpt><trkpt lat="36.4287118" lon="10.5925197"><ele>51.5</ele><time>2026-04-24T09:07:51.147Z</time></trkpt><trkpt lat="36.4285921" lon="10.5925364"><ele>51.25</ele><time>2026-04-24T09:07:52.168Z</time></trkpt><trkpt lat="36.4284672" lon="10.5925594"><ele>51.0</ele><time>2026-04-24T09:07:53.16Z</time></trkpt><trkpt lat="36.4283384" lon="10.5925814"><ele>51.0</ele><time>2026-04-24T09:07:54.14Z</time></trkpt><trkpt lat="36.4282085" lon="10.5925989"><ele>51.0</ele><time>2026-04-24T09:07:55.147Z</time></trkpt><trkpt lat="36.4280764" lon="10.5926172"><ele>51.0</ele><time>2026-04-24T09:07:56.151Z</time></trkpt><trkpt lat="36.4279397" lon="10.5926368"><ele>51.0</ele><time>2026-04-24T09:07:57.111Z</time></trkpt><trkpt lat="36.4278022" lon="10.5926623"><ele>50.5</ele><time>2026-04-24T09:07:58.135Z</time></trkpt><trkpt lat="36.4276657" lon="10.5926886"><ele>50.0</ele><time>2026-04-24T09:07:59.133Z</time></trkpt><trkpt lat="36.4275266" lon="10.5927143"><ele>49.5</ele><time>2026-04-24T09:08:00.124Z</time></trkpt><trkpt lat="36.4273893" lon="10.5927393"><ele>49.0</ele><time>2026-04-24T09:08:01.144Z</time></trkpt><trkpt lat="36.4272471" lon="10.5927662"><ele>48.75</ele><time>2026-04-24T09:08:02.146Z</time></trkpt><trkpt lat="36.4271055" lon="10.5927962"><ele>48.5</ele><time>2026-04-24T09:08:03.146Z</time></trkpt><trkpt lat="36.4269637" lon="10.5928386"><ele>48.25</ele><time>2026-04-24T09:08:04.154Z</time></trkpt><trkpt lat="36.4268225" lon="10.5928751"><ele>48.0</ele><time>2026-04-24T09:08:05.142Z</time></trkpt><trkpt lat="36.4266778" lon="10.5929165"><ele>47.666666666666664</ele><time>2026-04-24T09:08:06.146Z</time></trkpt><trkpt lat="36.4265324" lon="10.5929616"><ele>47.33333333333333</ele><time>2026-04-24T09:08:07.117Z</time></trkpt><trkpt lat="36.4263865" lon="10.5930058"><ele>47.0</ele><time>2026-04-24T09:08:08.136Z</time></trkpt><trkpt lat="36.4262378" lon="10.5930451"><ele>47.0</ele><time>2026-04-24T09:08:09.117Z</time></trkpt><trkpt lat="36.4260884" lon="10.5930878"><ele>47.0</ele><time>2026-04-24T09:08:10.132Z</time></trkpt><trkpt lat="36.4259363" lon="10.5931299"><ele>47.0</ele><time>2026-04-24T09:08:11.136Z</time></trkpt><trkpt lat="36.42579" lon="10.5931798"><ele>47.0</ele><time>2026-04-24T09:08:12.14Z</time></trkpt><trkpt lat="36.4256403" lon="10.5932237"><ele>47.0</ele><time>2026-04-24T09:08:13.147Z</time></trkpt><trkpt lat="36.4254956" lon="10.5932696"><ele>47.0</ele><time>2026-04-24T09:08:14.135Z</time></trkpt><trkpt lat="36.4253465" lon="10.5933142"><ele>46.33333333333333</ele><time>2026-04-24T09:08:15.142Z</time></trkpt><trkpt lat="36.425203" lon="10.5933567"><ele>45.666666666666664</ele><time>2026-04-24T09:08:16.145Z</time></trkpt><trkpt lat="36.4250538" lon="10.5934016"><ele>45.0</ele><time>2026-04-24T09:08:17.129Z</time></trkpt><trkpt lat="36.4249086" lon="10.5934521"><ele>45.0</ele><time>2026-04-24T09:08:18.161Z</time></trkpt><trkpt lat="36.4247601" lon="10.5935122"><ele>45.0</ele><time>2026-04-24T09:08:19.142Z</time></trkpt><trkpt lat="36.4246188" lon="10.5935827"><ele>45.0</ele><time>2026-04-24T09:08:20.129Z</time></trkpt><trkpt lat="36.4244792" lon="10.5936604"><ele>44.333333333333336</ele><time>2026-04-24T09:08:21.146Z</time></trkpt><trkpt lat="36.4243357" lon="10.5937412"><ele>43.66666666666667</ele><time>2026-04-24T09:08:22.133Z</time></trkpt><trkpt lat="36.4241954" lon="10.5938347"><ele>43.0</ele><time>2026-04-24T09:08:23.135Z</time></trkpt><trkpt lat="36.4240569" lon="10.5939358"><ele>43.0</ele><time>2026-04-24T09:08:24.15Z</time></trkpt><trkpt lat="36.4239286" lon="10.5940418"><ele>43.0</ele><time>2026-04-24T09:08:25.131Z</time></trkpt><trkpt lat="36.4237986" lon="10.5941488"><ele>43.0</ele><time>2026-04-24T09:08:26.127Z</time></trkpt><trkpt lat="36.4236775" lon="10.5942555"><ele>43.0</ele><time>2026-04-24T09:08:27.126Z</time></trkpt><trkpt lat="36.4235557" lon="10.5943736"><ele>43.0</ele><time>2026-04-24T09:08:28.131Z</time></trkpt><trkpt lat="36.4234382" lon="10.5944941"><ele>43.0</ele><time>2026-04-24T09:08:29.141Z</time></trkpt><trkpt lat="36.4233208" lon="10.5946216"><ele>43.0</ele><time>2026-04-24T09:08:30.151Z</time></trkpt><trkpt lat="36.423211" lon="10.5947507"><ele>43.0</ele><time>2026-04-24T09:08:31.143Z</time></trkpt><trkpt lat="36.4231038" lon="10.5948939"><ele>43.0</ele><time>2026-04-24T09:08:32.139Z</time></trkpt><trkpt lat="36.4230043" lon="10.5950406"><ele>43.0</ele><time>2026-04-24T09:08:33.134Z</time></trkpt><trkpt lat="36.4229129" lon="10.5951917"><ele>43.0</ele><time>2026-04-24T09:08:34.116Z</time></trkpt><trkpt lat="36.4228209" lon="10.5953453"><ele>43.0</ele><time>2026-04-24T09:08:35.151Z</time></trkpt><trkpt lat="36.4227346" lon="10.5955042"><ele>43.0</ele><time>2026-04-24T09:08:36.155Z</time></trkpt><trkpt lat="36.4226447" lon="10.5956687"><ele>43.0</ele><time>2026-04-24T09:08:37.15Z</time></trkpt><trkpt lat="36.4225473" lon="10.5958363"><ele>43.0</ele><time>2026-04-24T09:08:38.125Z</time></trkpt><trkpt lat="36.4224497" lon="10.5960266"><ele>43.333333333333336</ele><time>2026-04-24T09:08:39.141Z</time></trkpt><trkpt lat="36.4223463" lon="10.596214"><ele>43.666666666666664</ele><time>2026-04-24T09:08:40.147Z</time></trkpt><trkpt lat="36.4222362" lon="10.5963998"><ele>44.0</ele><time>2026-04-24T09:08:41.138Z</time></trkpt><trkpt lat="36.422128" lon="10.5965795"><ele>43.666666666666664</ele><time>2026-04-24T09:08:42.126Z</time></trkpt><trkpt lat="36.4220212" lon="10.5967594"><ele>43.333333333333336</ele><time>2026-04-24T09:08:43.145Z</time></trkpt><trkpt lat="36.421917" lon="10.5969354"><ele>43.0</ele><time>2026-04-24T09:08:44.148Z</time></trkpt><trkpt lat="36.4218108" lon="10.5971028"><ele>43.0</ele><time>2026-04-24T09:08:45.125Z</time></trkpt><trkpt lat="36.4217018" lon="10.5972688"><ele>43.0</ele><time>2026-04-24T09:08:46.137Z</time></trkpt><trkpt lat="36.4215912" lon="10.5974331"><ele>43.0</ele><time>2026-04-24T09:08:47.144Z</time></trkpt><trkpt lat="36.421478" lon="10.5975967"><ele>43.0</ele><time>2026-04-24T09:08:48.134Z</time></trkpt><trkpt lat="36.4213617" lon="10.5977569"><ele>43.0</ele><time>2026-04-24T09:08:49.143Z</time></trkpt><trkpt lat="36.4212388" lon="10.5979168"><ele>43.0</ele><time>2026-04-24T09:08:50.138Z</time></trkpt><trkpt lat="36.4211231" lon="10.5980702"><ele>42.66666666666667</ele><time>2026-04-24T09:08:51.129Z</time></trkpt><trkpt lat="36.4209986" lon="10.5982163"><ele>42.333333333333336</ele><time>2026-04-24T09:08:52.126Z</time></trkpt><trkpt lat="36.420877" lon="10.5983535"><ele>42.0</ele><time>2026-04-24T09:08:53.129Z</time></trkpt><trkpt lat="36.4207586" lon="10.5984868"><ele>42.0</ele><time>2026-04-24T09:08:54.146Z</time></trkpt><trkpt lat="36.4206511" lon="10.5986254"><ele>42.0</ele><time>2026-04-24T09:08:55.146Z</time></trkpt><trkpt lat="36.4205409" lon="10.5987542"><ele>42.0</ele><time>2026-04-24T09:08:56.148Z</time></trkpt><trkpt lat="36.4204319" lon="10.5988831"><ele>42.333333333333336</ele><time>2026-04-24T09:08:57.144Z</time></trkpt><trkpt lat="36.4203244" lon="10.5990173"><ele>42.66666666666667</ele><time>2026-04-24T09:08:58.132Z</time></trkpt><trkpt lat="36.420215" lon="10.5991445"><ele>43.0</ele><time>2026-04-24T09:08:59.147Z</time></trkpt><trkpt lat="36.4201034" lon="10.5992686"><ele>43.0</ele><time>2026-04-24T09:09:00.137Z</time></trkpt><trkpt lat="36.419991" lon="10.5993883"><ele>43.0</ele><time>2026-04-24T09:09:01.136Z</time></trkpt><trkpt lat="36.4198803" lon="10.5995079"><ele>43.0</ele><time>2026-04-24T09:09:02.12Z</time></trkpt><trkpt lat="36.419772" lon="10.5996247"><ele>43.0</ele><time>2026-04-24T09:09:03.151Z</time></trkpt><trkpt lat="36.4196631" lon="10.5997375"><ele>43.0</ele><time>2026-04-24T09:09:04.142Z</time></trkpt><trkpt lat="36.4195546" lon="10.5998454"><ele>43.0</ele><time>2026-04-24T09:09:05.148Z</time></trkpt><trkpt lat="36.419448" lon="10.5999542"><ele>43.0</ele><time>2026-04-24T09:09:06.121Z</time></trkpt><trkpt lat="36.4193462" lon="10.6000547"><ele>43.0</ele><time>2026-04-24T09:09:07.147Z</time></trkpt><trkpt lat="36.4192444" lon="10.6001521"><ele>43.0</ele><time>2026-04-24T09:09:08.144Z</time></trkpt><trkpt lat="36.4191471" lon="10.6002608"><ele>43.0</ele><time>2026-04-24T09:09:09.136Z</time></trkpt><trkpt lat="36.4190542" lon="10.6003701"><ele>43.0</ele><time>2026-04-24T09:09:10.134Z</time></trkpt><trkpt lat="36.4189591" lon="10.6004743"><ele>43.0</ele><time>2026-04-24T09:09:11.138Z</time></trkpt><trkpt lat="36.4188612" lon="10.6005896"><ele>42.75</ele><time>2026-04-24T09:09:12.119Z</time></trkpt><trkpt lat="36.4187638" lon="10.6007102"><ele>42.5</ele><time>2026-04-24T09:09:13.143Z</time></trkpt><trkpt lat="36.4186597" lon="10.600827"><ele>42.25</ele><time>2026-04-24T09:09:14.15Z</time></trkpt><trkpt lat="36.4185585" lon="10.6009465"><ele>42.0</ele><time>2026-04-24T09:09:15.148Z</time></trkpt><trkpt lat="36.4184538" lon="10.6010653"><ele>42.25</ele><time>2026-04-24T09:09:16.15Z</time></trkpt><trkpt lat="36.4183526" lon="10.6011907"><ele>42.5</ele><time>2026-04-24T09:09:17.134Z</time></trkpt><trkpt lat="36.4182624" lon="10.6013147"><ele>42.75</ele><time>2026-04-24T09:09:18.143Z</time></trkpt><trkpt lat="36.4181669" lon="10.6014397"><ele>43.0</ele><time>2026-04-24T09:09:19.143Z</time></trkpt><trkpt lat="36.4180717" lon="10.6015657"><ele>42.75</ele><time>2026-04-24T09:09:20.14Z</time></trkpt><trkpt lat="36.4179825" lon="10.6016885"><ele>42.5</ele><time>2026-04-24T09:09:21.139Z</time></trkpt><trkpt lat="36.4178922" lon="10.6018118"><ele>42.25</ele><time>2026-04-24T09:09:22.149Z</time></trkpt><trkpt lat="36.4178068" lon="10.6019314"><ele>42.0</ele><time>2026-04-24T09:09:23.136Z</time></trkpt><trkpt lat="36.417724" lon="10.6020609"><ele>42.0</ele><time>2026-04-24T09:09:24.142Z</time></trkpt><trkpt lat="36.4176439" lon="10.6021848"><ele>42.0</ele><time>2026-04-24T09:09:25.156Z</time></trkpt><trkpt lat="36.4175591" lon="10.6023111"><ele>42.0</ele><time>2026-04-24T09:09:26.146Z</time></trkpt><trkpt lat="36.4174744" lon="10.6024372"><ele>42.0</ele><time>2026-04-24T09:09:27.146Z</time></trkpt><trkpt lat="36.41739" lon="10.6025651"><ele>42.0</ele><time>2026-04-24T09:09:28.124Z</time></trkpt><trkpt lat="36.4173068" lon="10.6026959"><ele>42.0</ele><time>2026-04-24T09:09:29.115Z</time></trkpt><trkpt lat="36.4172268" lon="10.6028293"><ele>42.0</ele><time>2026-04-24T09:09:30.153Z</time></trkpt><trkpt lat="36.4171506" lon="10.6029616"><ele>42.0</ele><time>2026-04-24T09:09:31.143Z</time></trkpt><trkpt lat="36.4170713" lon="10.6030938"><ele>41.0</ele><time>2026-04-24T09:09:32.139Z</time></trkpt><trkpt lat="36.4169929" lon="10.6032297"><ele>40.0</ele><time>2026-04-24T09:09:33.137Z</time></trkpt><trkpt lat="36.4169149" lon="10.6033628"><ele>39.0</ele><time>2026-04-24T09:09:34.121Z</time></trkpt><trkpt lat="36.4168363" lon="10.603494"><ele>38.0</ele><time>2026-04-24T09:09:35.11Z</time></trkpt><trkpt lat="36.4167593" lon="10.6036248"><ele>38.4</ele><time>2026-04-24T09:09:36.122Z</time></trkpt><trkpt lat="36.4166908" lon="10.6037494"><ele>38.8</ele><time>2026-04-24T09:09:37.127Z</time></trkpt><trkpt lat="36.4166284" lon="10.6038688"><ele>39.2</ele><time>2026-04-24T09:09:38.124Z</time></trkpt><trkpt lat="36.41657" lon="10.6039818"><ele>39.6</ele><time>2026-04-24T09:09:39.137Z</time></trkpt><trkpt lat="36.4165061" lon="10.6040822"><ele>40.0</ele><time>2026-04-24T09:09:40.149Z</time></trkpt><trkpt lat="36.4164457" lon="10.6041785"><ele>40.0</ele><time>2026-04-24T09:09:41.147Z</time></trkpt><trkpt lat="36.4163951" lon="10.6042606"><ele>40.0</ele><time>2026-04-24T09:09:42.117Z</time></trkpt><trkpt lat="36.4163552" lon="10.6043332"><ele>40.0</ele><time>2026-04-24T09:09:43.151Z</time></trkpt><trkpt lat="36.4163111" lon="10.6043946"><ele>40.0</ele><time>2026-04-24T09:09:44.138Z</time></trkpt><trkpt lat="36.4162419" lon="10.6044972"><ele>40.0</ele><time>2026-04-24T09:09:46.142Z</time></trkpt><trkpt lat="36.4161673" lon="10.604605"><ele>40.0</ele><time>2026-04-24T09:09:48.137Z</time></trkpt><trkpt lat="36.4160889" lon="10.6047185"><ele>39.8</ele><time>2026-04-24T09:09:50.142Z</time></trkpt><trkpt lat="36.416006" lon="10.6048391"><ele>39.6</ele><time>2026-04-24T09:09:52.153Z</time></trkpt><trkpt lat="36.4159528" lon="10.6049058"><ele>39.4</ele><time>2026-04-24T09:09:53.137Z</time></trkpt><trkpt lat="36.415897" lon="10.6049773"><ele>39.2</ele><time>2026-04-24T09:09:54.15Z</time></trkpt><trkpt lat="36.4158253" lon="10.6050487"><ele>39.0</ele><time>2026-04-24T09:09:55.148Z</time></trkpt><trkpt lat="36.4157561" lon="10.6051286"><ele>39.0</ele><time>2026-04-24T09:09:56.136Z</time></trkpt><trkpt lat="36.4156854" lon="10.6052246"><ele>39.0</ele><time>2026-04-24T09:09:57.142Z</time></trkpt><trkpt lat="36.4156052" lon="10.6053113"><ele>39.0</ele><time>2026-04-24T09:09:58.107Z</time></trkpt><trkpt lat="36.4155141" lon="10.6054033"><ele>39.0</ele><time>2026-04-24T09:09:59.123Z</time></trkpt><trkpt lat="36.4154263" lon="10.6054946"><ele>39.0</ele><time>2026-04-24T09:10:00.132Z</time></trkpt><trkpt lat="36.4153303" lon="10.6055939"><ele>39.75</ele><time>2026-04-24T09:10:01.139Z</time></trkpt><trkpt lat="36.4152276" lon="10.605697"><ele>40.5</ele><time>2026-04-24T09:10:02.156Z</time></trkpt><trkpt lat="36.415125" lon="10.6058013"><ele>41.25</ele><time>2026-04-24T09:10:03.134Z</time></trkpt><trkpt lat="36.4150206" lon="10.6059004"><ele>42.0</ele><time>2026-04-24T09:10:04.137Z</time></trkpt><trkpt lat="36.414914" lon="10.6059999"><ele>42.0</ele><time>2026-04-24T09:10:05.138Z</time></trkpt><trkpt lat="36.4148049" lon="10.6061044"><ele>42.0</ele><time>2026-04-24T09:10:06.144Z</time></trkpt><trkpt lat="36.4146955" lon="10.6062029"><ele>42.0</ele><time>2026-04-24T09:10:07.129Z</time></trkpt><trkpt lat="36.4145855" lon="10.6063045"><ele>42.0</ele><time>2026-04-24T09:10:08.126Z</time></trkpt><trkpt lat="36.4144696" lon="10.6064059"><ele>42.0</ele><time>2026-04-24T09:10:09.124Z</time></trkpt><trkpt lat="36.414364" lon="10.6065124"><ele>42.0</ele><time>2026-04-24T09:10:10.162Z</time></trkpt><trkpt lat="36.4142528" lon="10.606619"><ele>42.0</ele><time>2026-04-24T09:10:11.127Z</time></trkpt><trkpt lat="36.414143" lon="10.6067268"><ele>42.0</ele><time>2026-04-24T09:10:12.123Z</time></trkpt><trkpt lat="36.414028" lon="10.606837"><ele>42.0</ele><time>2026-04-24T09:10:13.141Z</time></trkpt><trkpt lat="36.4139115" lon="10.6069494"><ele>42.0</ele><time>2026-04-24T09:10:14.137Z</time></trkpt><trkpt lat="36.4137944" lon="10.6070525"><ele>42.0</ele><time>2026-04-24T09:10:15.152Z</time></trkpt><trkpt lat="36.4136813" lon="10.6071591"><ele>42.0</ele><time>2026-04-24T09:10:16.14Z</time></trkpt><trkpt lat="36.4135633" lon="10.6072703"><ele>41.5</ele><time>2026-04-24T09:10:17.148Z</time></trkpt><trkpt lat="36.413447" lon="10.6073795"><ele>41.0</ele><time>2026-04-24T09:10:18.134Z</time></trkpt><trkpt lat="36.4133237" lon="10.6074771"><ele>40.5</ele><time>2026-04-24T09:10:19.133Z</time></trkpt><trkpt lat="36.4132" lon="10.6075649"><ele>40.0</ele><time>2026-04-24T09:10:20.132Z</time></trkpt><trkpt lat="36.4130725" lon="10.6076314"><ele>39.75</ele><time>2026-04-24T09:10:21.133Z</time></trkpt><trkpt lat="36.412947" lon="10.607694"><ele>39.5</ele><time>2026-04-24T09:10:22.132Z</time></trkpt><trkpt lat="36.4128231" lon="10.6077442"><ele>39.25</ele><time>2026-04-24T09:10:23.129Z</time></trkpt><trkpt lat="36.4126968" lon="10.6077975"><ele>39.0</ele><time>2026-04-24T09:10:24.113Z</time></trkpt><trkpt lat="36.4125751" lon="10.6078482"><ele>39.0</ele><time>2026-04-24T09:10:25.133Z</time></trkpt><trkpt lat="36.4124593" lon="10.6079013"><ele>39.0</ele><time>2026-04-24T09:10:26.136Z</time></trkpt><trkpt lat="36.4123523" lon="10.6079575"><ele>39.0</ele><time>2026-04-24T09:10:27.142Z</time></trkpt><trkpt lat="36.4122474" lon="10.608014"><ele>39.0</ele><time>2026-04-24T09:10:28.147Z</time></trkpt><trkpt lat="36.4121369" lon="10.6080665"><ele>38.25</ele><time>2026-04-24T09:10:29.132Z</time></trkpt><trkpt lat="36.4120218" lon="10.608117"><ele>37.5</ele><time>2026-04-24T09:10:30.148Z</time></trkpt><trkpt lat="36.4119086" lon="10.6081705"><ele>36.75</ele><time>2026-04-24T09:10:31.115Z</time></trkpt><trkpt lat="36.4117915" lon="10.6082313"><ele>36.0</ele><time>2026-04-24T09:10:32.123Z</time></trkpt><trkpt lat="36.4116744" lon="10.6082895"><ele>36.0</ele><time>2026-04-24T09:10:33.127Z</time></trkpt><trkpt lat="36.4115553" lon="10.6083473"><ele>36.0</ele><time>2026-04-24T09:10:34.147Z</time></trkpt><trkpt lat="36.4114368" lon="10.6083993"><ele>36.0</ele><time>2026-04-24T09:10:35.14Z</time></trkpt><trkpt lat="36.4113166" lon="10.6084523"><ele>36.0</ele><time>2026-04-24T09:10:36.151Z</time></trkpt><trkpt lat="36.411204" lon="10.6085019"><ele>35.8</ele><time>2026-04-24T09:10:37.14Z</time></trkpt><trkpt lat="36.4110906" lon="10.608554"><ele>35.6</ele><time>2026-04-24T09:10:38.115Z</time></trkpt><trkpt lat="36.4109831" lon="10.6086038"><ele>35.4</ele><time>2026-04-24T09:10:39.13Z</time></trkpt><trkpt lat="36.410882" lon="10.6086454"><ele>35.2</ele><time>2026-04-24T09:10:40.121Z</time></trkpt><trkpt lat="36.4107821" lon="10.6086869"><ele>35.0</ele><time>2026-04-24T09:10:41.133Z</time></trkpt><trkpt lat="36.4106847" lon="10.6087247"><ele>35.0</ele><time>2026-04-24T09:10:42.14Z</time></trkpt><trkpt lat="36.4105911" lon="10.6087619"><ele>35.0</ele><time>2026-04-24T09:10:43.154Z</time></trkpt><trkpt lat="36.4104988" lon="10.6087989"><ele>35.0</ele><time>2026-04-24T09:10:44.132Z</time></trkpt><trkpt lat="36.4104115" lon="10.6088328"><ele>35.0</ele><time>2026-04-24T09:10:45.126Z</time></trkpt><trkpt lat="36.4103289" lon="10.6088714"><ele>35.0</ele><time>2026-04-24T09:10:46.134Z</time></trkpt><trkpt lat="36.4102456" lon="10.6089113"><ele>34.714285714285715</ele><time>2026-04-24T09:10:47.13Z</time></trkpt><trkpt lat="36.4101719" lon="10.6089506"><ele>34.42857142857143</ele><time>2026-04-24T09:10:48.148Z</time></trkpt><trkpt lat="36.4100976" lon="10.6089886"><ele>34.14285714285714</ele><time>2026-04-24T09:10:49.143Z</time></trkpt><trkpt lat="36.4100262" lon="10.609022"><ele>33.85714285714286</ele><time>2026-04-24T09:10:50.16Z</time></trkpt><trkpt lat="36.4099606" lon="10.6090514"><ele>33.57142857142857</ele><time>2026-04-24T09:10:51.132Z</time></trkpt><trkpt lat="36.4098977" lon="10.6090846"><ele>33.285714285714285</ele><time>2026-04-24T09:10:52.143Z</time></trkpt><trkpt lat="36.4098356" lon="10.6091125"><ele>33.0</ele><time>2026-04-24T09:10:53.16Z</time></trkpt><trkpt lat="36.40976" lon="10.6091474"><ele>33.0</ele><time>2026-04-24T09:10:55.132Z</time></trkpt><trkpt lat="36.4096596" lon="10.6092156"><ele>33.0</ele><time>2026-04-24T09:10:58.121Z</time></trkpt><trkpt lat="36.4095433" lon="10.6092655"><ele>33.0</ele><time>2026-04-24T09:11:00.123Z</time></trkpt><trkpt lat="36.4094809" lon="10.6092955"><ele>33.0</ele><time>2026-04-24T09:11:01.118Z</time></trkpt><trkpt lat="36.4094179" lon="10.6093266"><ele>33.0</ele><time>2026-04-24T09:11:02.155Z</time></trkpt><trkpt lat="36.409357" lon="10.6093509"><ele>33.0</ele><time>2026-04-24T09:11:03.107Z</time></trkpt><trkpt lat="36.409244" lon="10.6094116"><ele>32.25</ele><time>2026-04-24T09:11:05.154Z</time></trkpt><trkpt lat="36.4091336" lon="10.6094722"><ele>31.5</ele><time>2026-04-24T09:11:07.153Z</time></trkpt><trkpt lat="36.4090291" lon="10.6095318"><ele>30.75</ele><time>2026-04-24T09:11:09.152Z</time></trkpt><trkpt lat="36.4089347" lon="10.6095892"><ele>30.0</ele><time>2026-04-24T09:11:11.166Z</time></trkpt><trkpt lat="36.4088292" lon="10.6096612"><ele>29.4</ele><time>2026-04-24T09:11:13.157Z</time></trkpt><trkpt lat="36.4087256" lon="10.6097133"><ele>28.8</ele><time>2026-04-24T09:11:15.168Z</time></trkpt><trkpt lat="36.4086303" lon="10.6097553"><ele>28.200000000000003</ele><time>2026-04-24T09:11:17.157Z</time></trkpt><trkpt lat="36.4085565" lon="10.6098029"><ele>27.6</ele><time>2026-04-24T09:11:19.168Z</time></trkpt><trkpt lat="36.4084855" lon="10.6098483"><ele>27.0</ele><time>2026-04-24T09:11:21.159Z</time></trkpt><trkpt lat="36.4084074" lon="10.6098834"><ele>27.0</ele><time>2026-04-24T09:11:24.159Z</time></trkpt><trkpt lat="36.4083418" lon="10.6099117"><ele>27.0</ele><time>2026-04-24T09:11:28.164Z</time></trkpt><trkpt lat="36.4082575" lon="10.6099654"><ele>27.0</ele><time>2026-04-24T09:11:32.157Z</time></trkpt><trkpt lat="36.4081907" lon="10.6099937"><ele>27.0</ele><time>2026-04-24T09:11:34.155Z</time></trkpt><trkpt lat="36.4081191" lon="10.610021"><ele>27.0</ele><time>2026-04-24T09:11:37.161Z</time></trkpt><trkpt lat="36.4080526" lon="10.610054"><ele>27.0</ele><time>2026-04-24T09:11:40.165Z</time></trkpt><trkpt lat="36.4079873" lon="10.6100859"><ele>26.8</ele><time>2026-04-24T09:11:44.12Z</time></trkpt><trkpt lat="36.4079203" lon="10.6101217"><ele>26.6</ele><time>2026-04-24T09:11:47.177Z</time></trkpt><trkpt lat="36.407831" lon="10.6101713"><ele>26.400000000000002</ele><time>2026-04-24T09:11:49.155Z</time></trkpt><trkpt lat="36.4077174" lon="10.6102242"><ele>26.200000000000003</ele><time>2026-04-24T09:11:51.155Z</time></trkpt><trkpt lat="36.4076588" lon="10.6102535"><ele>26.0</ele><time>2026-04-24T09:11:52.118Z</time></trkpt><trkpt lat="36.4075592" lon="10.6102971"><ele>25.857142857142858</ele><time>2026-04-24T09:11:54.139Z</time></trkpt><trkpt lat="36.4074905" lon="10.6103326"><ele>25.714285714285715</ele><time>2026-04-24T09:11:56.165Z</time></trkpt><trkpt lat="36.4074181" lon="10.6103729"><ele>25.571428571428573</ele><time>2026-04-24T09:12:00.122Z</time></trkpt><trkpt lat="36.4073472" lon="10.6104088"><ele>25.42857142857143</ele><time>2026-04-24T09:12:06.142Z</time></trkpt><trkpt lat="36.4072781" lon="10.6104395"><ele>25.285714285714285</ele><time>2026-04-24T09:12:11.134Z</time></trkpt><trkpt lat="36.4072131" lon="10.6104565"><ele>25.142857142857146</ele><time>2026-04-24T09:12:25.153Z</time></trkpt><trkpt lat="36.4071683" lon="10.6103964"><ele>25.0</ele><time>2026-04-24T09:12:28.16Z</time></trkpt><trkpt lat="36.407136" lon="10.6102855"><ele>25.000000000000004</ele><time>2026-04-24T09:12:31.155Z</time></trkpt><trkpt lat="36.4071014" lon="10.6101771"><ele>25.0</ele><time>2026-04-24T09:12:34.128Z</time></trkpt><trkpt lat="36.4070681" lon="10.610071"><ele>25.0</ele><time>2026-04-24T09:12:36.156Z</time></trkpt><trkpt lat="36.4070346" lon="10.6099637"><ele>25.0</ele><time>2026-04-24T09:12:38.144Z</time></trkpt><trkpt lat="36.4070065" lon="10.6098695"><ele>25.000000000000004</ele><time>2026-04-24T09:12:40.15Z</time></trkpt><trkpt lat="36.4070008" lon="10.6097732"><ele>25.0</ele><time>2026-04-24T09:12:43.153Z</time></trkpt><trkpt lat="36.4069856" lon="10.6096809"><ele>25.000000000000004</ele><time>2026-04-24T09:12:46.164Z</time></trkpt><trkpt lat="36.4069791" lon="10.6095989"><ele>25.0</ele><time>2026-04-24T09:12:48.166Z</time></trkpt><trkpt lat="36.4069906" lon="10.6095095"><ele>25.0</ele><time>2026-04-24T09:12:52.155Z</time></trkpt><trkpt lat="36.4070223" lon="10.6094337"><ele>25.0</ele><time>2026-04-24T09:13:12.153Z</time></trkpt><trkpt lat="36.4069583" lon="10.6094535"><ele>25.000000000000004</ele><time>2026-04-24T09:14:11.127Z</time></trkpt><trkpt lat="36.4069524" lon="10.6095734"><ele>25.0</ele><time>2026-04-24T09:14:13.124Z</time></trkpt><trkpt lat="36.4069553" lon="10.6096765"><ele>25.000000000000004</ele><time>2026-04-24T09:14:15.137Z</time></trkpt><trkpt lat="36.406961" lon="10.6097722"><ele>25.0</ele><time>2026-04-24T09:14:17.118Z</time></trkpt><trkpt lat="36.4069721" lon="10.6098752"><ele>25.0</ele><time>2026-04-24T09:14:19.151Z</time></trkpt><trkpt lat="36.4069838" lon="10.6099632"><ele>25.0</ele><time>2026-04-24T09:14:21.123Z</time></trkpt><trkpt lat="36.4070077" lon="10.6100521"><ele>25.000000000000004</ele><time>2026-04-24T09:14:23.14Z</time></trkpt><trkpt lat="36.4070337" lon="10.6101462"><ele>25.0</ele><time>2026-04-24T09:14:25.142Z</time></trkpt><trkpt lat="36.4070512" lon="10.6102303"><ele>25.333333333333336</ele><time>2026-04-24T09:14:28.131Z</time></trkpt><trkpt lat="36.4070666" lon="10.610331"><ele>25.666666666666668</ele><time>2026-04-24T09:14:33.118Z</time></trkpt><trkpt lat="36.4071006" lon="10.6104082"><ele>26.0</ele><time>2026-04-24T09:14:37.125Z</time></trkpt><trkpt lat="36.4071371" lon="10.6104909"><ele>26.333333333333336</ele><time>2026-04-24T09:14:43.137Z</time></trkpt><trkpt lat="36.4071883" lon="10.6106023"><ele>26.666666666666668</ele><time>2026-04-24T09:14:45.133Z</time></trkpt><trkpt lat="36.4072349" lon="10.6106963"><ele>27.0</ele><time>2026-04-24T09:14:47.144Z</time></trkpt><trkpt lat="36.4072644" lon="10.6107955"><ele>27.166666666666668</ele><time>2026-04-24T09:14:49.12Z</time></trkpt><trkpt lat="36.4072901" lon="10.6108897"><ele>27.333333333333336</ele><time>2026-04-24T09:14:51.161Z</time></trkpt><trkpt lat="36.4073268" lon="10.6109782"><ele>27.5</ele><time>2026-04-24T09:14:53.14Z</time></trkpt><trkpt lat="36.4073447" lon="10.6110702"><ele>27.666666666666668</ele><time>2026-04-24T09:14:55.138Z</time></trkpt><trkpt lat="36.4073597" lon="10.6111772"><ele>27.833333333333336</ele><time>2026-04-24T09:14:57.139Z</time></trkpt><trkpt lat="36.407393" lon="10.6112943"><ele>28.0</ele><time>2026-04-24T09:14:59.149Z</time></trkpt><trkpt lat="36.4074302" lon="10.6114221"><ele>28.4</ele><time>2026-04-24T09:15:01.136Z</time></trkpt><trkpt lat="36.4074596" lon="10.6115513"><ele>28.799999999999997</ele><time>2026-04-24T09:15:03.143Z</time></trkpt><trkpt lat="36.4074842" lon="10.6116742"><ele>29.2</ele><time>2026-04-24T09:15:05.161Z</time></trkpt><trkpt lat="36.4075039" lon="10.6117902"><ele>29.6</ele><time>2026-04-24T09:15:07.149Z</time></trkpt><trkpt lat="36.4074979" lon="10.6118865"><ele>30.0</ele><time>2026-04-24T09:15:09.117Z</time></trkpt><trkpt lat="36.4074451" lon="10.6119818"><ele>30.2</ele><time>2026-04-24T09:15:11.117Z</time></trkpt><trkpt lat="36.4073749" lon="10.6120357"><ele>30.4</ele><time>2026-04-24T09:15:13.128Z</time></trkpt><trkpt lat="36.407286" lon="10.612089"><ele>30.6</ele><time>2026-04-24T09:15:15.129Z</time></trkpt><trkpt lat="36.4071955" lon="10.6121348"><ele>30.8</ele><time>2026-04-24T09:15:17.101Z</time></trkpt><trkpt lat="36.4071073" lon="10.612171"><ele>31.0</ele><time>2026-04-24T09:15:19.148Z</time></trkpt><trkpt lat="36.4070261" lon="10.6122069"><ele>30.666666666666668</ele><time>2026-04-24T09:15:21.135Z</time></trkpt><trkpt lat="36.4069489" lon="10.6122406"><ele>30.333333333333336</ele><time>2026-04-24T09:15:23.132Z</time></trkpt><trkpt lat="36.4068633" lon="10.6122631"><ele>30.0</ele><time>2026-04-24T09:15:25.131Z</time></trkpt><trkpt lat="36.4067785" lon="10.6122868"><ele>29.666666666666664</ele><time>2026-04-24T09:15:27.143Z</time></trkpt><trkpt lat="36.4066909" lon="10.6123186"><ele>29.333333333333332</ele><time>2026-04-24T09:15:29.132Z</time></trkpt><trkpt lat="36.4066116" lon="10.6123526"><ele>29.0</ele><time>2026-04-24T09:15:31.135Z</time></trkpt><trkpt lat="36.4065265" lon="10.6123746"><ele>29.0</ele><time>2026-04-24T09:15:33.141Z</time></trkpt><trkpt lat="36.4064324" lon="10.6124071"><ele>29.0</ele><time>2026-04-24T09:15:35.136Z</time></trkpt><trkpt lat="36.406328" lon="10.6124527"><ele>29.0</ele><time>2026-04-24T09:15:37.139Z</time></trkpt><trkpt lat="36.4062125" lon="10.6124907"><ele>29.0</ele><time>2026-04-24T09:15:39.144Z</time></trkpt><trkpt lat="36.4060904" lon="10.6125238"><ele>28.666666666666664</ele><time>2026-04-24T09:15:41.122Z</time></trkpt><trkpt lat="36.4060281" lon="10.6125422"><ele>28.333333333333332</ele><time>2026-04-24T09:15:42.133Z</time></trkpt><trkpt lat="36.4059141" lon="10.6125681"><ele>28.0</ele><time>2026-04-24T09:15:44.119Z</time></trkpt><trkpt lat="36.4058015" lon="10.6125739"><ele>27.666666666666664</ele><time>2026-04-24T09:15:46.135Z</time></trkpt><trkpt lat="36.4057356" lon="10.6125661"><ele>27.333333333333332</ele><time>2026-04-24T09:15:48.13Z</time></trkpt><trkpt lat="36.4056569" lon="10.612541"><ele>27.0</ele><time>2026-04-24T09:16:01.123Z</time></trkpt><trkpt lat="36.4055867" lon="10.6125268"><ele>26.333333333333332</ele><time>2026-04-24T09:16:03.132Z</time></trkpt><trkpt lat="36.4054829" lon="10.6125309"><ele>25.666666666666668</ele><time>2026-04-24T09:16:05.132Z</time></trkpt><trkpt lat="36.4053709" lon="10.6125351"><ele>25.0</ele><time>2026-04-24T09:16:07.126Z</time></trkpt><trkpt lat="36.4053055" lon="10.6125328"><ele>24.333333333333336</ele><time>2026-04-24T09:16:08.14Z</time></trkpt><trkpt lat="36.4052366" lon="10.6125346"><ele>23.666666666666668</ele><time>2026-04-24T09:16:09.138Z</time></trkpt><trkpt lat="36.4051683" lon="10.6125227"><ele>23.0</ele><time>2026-04-24T09:16:10.13Z</time></trkpt><trkpt lat="36.4051034" lon="10.6125069"><ele>23.0</ele><time>2026-04-24T09:16:11.139Z</time></trkpt><trkpt lat="36.4050375" lon="10.6124887"><ele>23.0</ele><time>2026-04-24T09:16:12.137Z</time></trkpt><trkpt lat="36.4049758" lon="10.6124718"><ele>23.0</ele><time>2026-04-24T09:16:13.124Z</time></trkpt><trkpt lat="36.4049135" lon="10.6124511"><ele>23.0</ele><time>2026-04-24T09:16:14.129Z</time></trkpt><trkpt lat="36.4048479" lon="10.612433"><ele>23.0</ele><time>2026-04-24T09:16:15.135Z</time></trkpt><trkpt lat="36.4047194" lon="10.612401"><ele>23.0</ele><time>2026-04-24T09:16:17.1Z</time></trkpt><trkpt lat="36.4046543" lon="10.6123875"><ele>22.714285714285715</ele><time>2026-04-24T09:16:18.115Z</time></trkpt><trkpt lat="36.4045916" lon="10.6123651"><ele>22.428571428571427</ele><time>2026-04-24T09:16:19.154Z</time></trkpt><trkpt lat="36.4044835" lon="10.6123358"><ele>22.142857142857142</ele><time>2026-04-24T09:16:21.137Z</time></trkpt><trkpt lat="36.4044242" lon="10.6123064"><ele>21.857142857142858</ele><time>2026-04-24T09:16:22.134Z</time></trkpt><trkpt lat="36.4043637" lon="10.6122755"><ele>21.57142857142857</ele><time>2026-04-24T09:16:23.123Z</time></trkpt><trkpt lat="36.4043146" lon="10.6122265"><ele>21.285714285714285</ele><time>2026-04-24T09:16:24.128Z</time></trkpt><trkpt lat="36.4042571" lon="10.6121646"><ele>21.0</ele><time>2026-04-24T09:16:25.136Z</time></trkpt><trkpt lat="36.4042003" lon="10.6120981"><ele>21.0</ele><time>2026-04-24T09:16:26.143Z</time></trkpt><trkpt lat="36.4041411" lon="10.6120239"><ele>21.0</ele><time>2026-04-24T09:16:27.141Z</time></trkpt><trkpt lat="36.4040792" lon="10.6119507"><ele>21.0</ele><time>2026-04-24T09:16:28.155Z</time></trkpt><trkpt lat="36.404018" lon="10.6118794"><ele>21.0</ele><time>2026-04-24T09:16:29.132Z</time></trkpt><trkpt lat="36.403953" lon="10.6118154"><ele>21.0</ele><time>2026-04-24T09:16:30.146Z</time></trkpt><trkpt lat="36.403882" lon="10.6117417"><ele>21.0</ele><time>2026-04-24T09:16:31.143Z</time></trkpt><trkpt lat="36.4038164" lon="10.6116837"><ele>20.666666666666668</ele><time>2026-04-24T09:16:32.165Z</time></trkpt><trkpt lat="36.4037632" lon="10.611632"><ele>20.333333333333332</ele><time>2026-04-24T09:16:33.117Z</time></trkpt><trkpt lat="36.4036728" lon="10.6115751"><ele>20.0</ele><time>2026-04-24T09:16:35.148Z</time></trkpt><trkpt lat="36.4035548" lon="10.6115338"><ele>19.666666666666664</ele><time>2026-04-24T09:16:37.13Z</time></trkpt><trkpt lat="36.4034872" lon="10.6115114"><ele>19.333333333333332</ele><time>2026-04-24T09:16:38.125Z</time></trkpt><trkpt lat="36.4034213" lon="10.6114914"><ele>19.0</ele><time>2026-04-24T09:16:39.118Z</time></trkpt><trkpt lat="36.4033502" lon="10.6114716"><ele>19.0</ele><time>2026-04-24T09:16:40.108Z</time></trkpt><trkpt lat="36.4032866" lon="10.6114653"><ele>19.0</ele><time>2026-04-24T09:16:41.131Z</time></trkpt><trkpt lat="36.4031729" lon="10.6114762"><ele>19.0</ele><time>2026-04-24T09:16:43.14Z</time></trkpt><trkpt lat="36.403087" lon="10.6114863"><ele>19.0</ele><time>2026-04-24T09:16:45.123Z</time></trkpt><trkpt lat="36.403005" lon="10.6115007"><ele>19.0</ele><time>2026-04-24T09:16:47.139Z</time></trkpt><trkpt lat="36.4029242" lon="10.6114997"><ele>19.0</ele><time>2026-04-24T09:16:49.11Z</time></trkpt><trkpt lat="36.4028482" lon="10.6114965"><ele>18.5</ele><time>2026-04-24T09:16:52.126Z</time></trkpt><trkpt lat="36.402774" lon="10.6115058"><ele>18.0</ele><time>2026-04-24T09:16:56.131Z</time></trkpt><trkpt lat="36.4026821" lon="10.6115073"><ele>17.5</ele><time>2026-04-24T09:16:59.122Z</time></trkpt><trkpt lat="36.4025977" lon="10.6115146"><ele>17.0</ele><time>2026-04-24T09:17:02.141Z</time></trkpt><trkpt lat="36.4025019" lon="10.6115263"><ele>16.5</ele><time>2026-04-24T09:17:05.142Z</time></trkpt><trkpt lat="36.4024393" lon="10.6115346"><ele>16.0</ele><time>2026-04-24T09:17:12.142Z</time></trkpt><trkpt lat="36.4023738" lon="10.6115392"><ele>15.999999999999998</ele><time>2026-04-24T09:17:15.145Z</time></trkpt><trkpt lat="36.4023089" lon="10.6115384"><ele>16.0</ele><time>2026-04-24T09:17:18.142Z</time></trkpt><trkpt lat="36.4022251" lon="10.6115447"><ele>16.0</ele><time>2026-04-24T09:17:22.137Z</time></trkpt><trkpt lat="36.4021327" lon="10.6115592"><ele>16.0</ele><time>2026-04-24T09:17:25.137Z</time></trkpt><trkpt lat="36.4020249" lon="10.6115643"><ele>15.999999999999998</ele><time>2026-04-24T09:17:27.132Z</time></trkpt><trkpt lat="36.4019257" lon="10.6115669"><ele>16.0</ele><time>2026-04-24T09:17:29.124Z</time></trkpt><trkpt lat="36.4018354" lon="10.6115707"><ele>15.857142857142856</ele><time>2026-04-24T09:17:31.126Z</time></trkpt><trkpt lat="36.4017705" lon="10.6115958"><ele>15.714285714285712</ele><time>2026-04-24T09:17:33.141Z</time></trkpt><trkpt lat="36.4017046" lon="10.6116063"><ele>15.571428571428571</ele><time>2026-04-24T09:17:35.136Z</time></trkpt><trkpt lat="36.4016372" lon="10.6116035"><ele>15.428571428571427</ele><time>2026-04-24T09:17:38.141Z</time></trkpt><trkpt lat="36.4015589" lon="10.6116099"><ele>15.285714285714285</ele><time>2026-04-24T09:17:41.129Z</time></trkpt><trkpt lat="36.4014877" lon="10.6116098"><ele>15.142857142857142</ele><time>2026-04-24T09:17:44.133Z</time></trkpt><trkpt lat="36.4014216" lon="10.6116244"><ele>15.0</ele><time>2026-04-24T09:17:46.124Z</time></trkpt><trkpt lat="36.4013515" lon="10.6116352"><ele>14.714285714285715</ele><time>2026-04-24T09:17:48.147Z</time></trkpt><trkpt lat="36.4012712" lon="10.6116419"><ele>14.428571428571427</ele><time>2026-04-24T09:17:50.139Z</time></trkpt><trkpt lat="36.4011962" lon="10.6116477"><ele>14.142857142857142</ele><time>2026-04-24T09:17:52.121Z</time></trkpt><trkpt lat="36.4011248" lon="10.6116583"><ele>13.857142857142858</ele><time>2026-04-24T09:17:54.146Z</time></trkpt><trkpt lat="36.4010573" lon="10.611665"><ele>13.571428571428573</ele><time>2026-04-24T09:17:56.131Z</time></trkpt><trkpt lat="36.4009838" lon="10.6116759"><ele>13.285714285714285</ele><time>2026-04-24T09:17:58.117Z</time></trkpt><trkpt lat="36.4009049" lon="10.6116839"><ele>13.0</ele><time>2026-04-24T09:18:01.126Z</time></trkpt><trkpt lat="36.4008133" lon="10.6116969"><ele>12.999999999999998</ele><time>2026-04-24T09:18:04.141Z</time></trkpt><trkpt lat="36.4007378" lon="10.61171"><ele>13.0</ele><time>2026-04-24T09:18:08.139Z</time></trkpt><trkpt lat="36.4006654" lon="10.6117252"><ele>13.0</ele><time>2026-04-24T09:18:11.132Z</time></trkpt><trkpt lat="36.4005782" lon="10.6117405"><ele>13.0</ele><time>2026-04-24T09:18:14.13Z</time></trkpt><trkpt lat="36.4004945" lon="10.6117658"><ele>12.999999999999998</ele><time>2026-04-24T09:18:16.133Z</time></trkpt><trkpt lat="36.4003769" lon="10.6117675"><ele>13.0</ele><time>2026-04-24T09:18:18.145Z</time></trkpt><trkpt lat="36.4003116" lon="10.6117702"><ele>12.714285714285714</ele><time>2026-04-24T09:18:19.133Z</time></trkpt><trkpt lat="36.4002458" lon="10.6117731"><ele>12.428571428571429</ele><time>2026-04-24T09:18:20.146Z</time></trkpt><trkpt lat="36.4001805" lon="10.6117856"><ele>12.142857142857142</ele><time>2026-04-24T09:18:21.151Z</time></trkpt><trkpt lat="36.4001126" lon="10.611798"><ele>11.857142857142858</ele><time>2026-04-24T09:18:22.131Z</time></trkpt><trkpt lat="36.4000424" lon="10.611807"><ele>11.571428571428571</ele><time>2026-04-24T09:18:23.148Z</time></trkpt><trkpt lat="36.3999667" lon="10.6118133"><ele>11.285714285714286</ele><time>2026-04-24T09:18:24.161Z</time></trkpt><trkpt lat="36.3998932" lon="10.611821"><ele>11.0</ele><time>2026-04-24T09:18:25.127Z</time></trkpt><trkpt lat="36.3998154" lon="10.6118378"><ele>11.0</ele><time>2026-04-24T09:18:26.129Z</time></trkpt><trkpt lat="36.3997385" lon="10.6118481"><ele>11.0</ele><time>2026-04-24T09:18:27.131Z</time></trkpt><trkpt lat="36.3996623" lon="10.6118686"><ele>11.0</ele><time>2026-04-24T09:18:28.166Z</time></trkpt><trkpt lat="36.3995836" lon="10.6118876"><ele>11.0</ele><time>2026-04-24T09:18:29.152Z</time></trkpt><trkpt lat="36.3995026" lon="10.6119036"><ele>11.0</ele><time>2026-04-24T09:18:30.134Z</time></trkpt><trkpt lat="36.3994219" lon="10.6119183"><ele>11.0</ele><time>2026-04-24T09:18:31.145Z</time></trkpt><trkpt lat="36.3993388" lon="10.6119326"><ele>10.833333333333332</ele><time>2026-04-24T09:18:32.125Z</time></trkpt><trkpt lat="36.399258" lon="10.6119418"><ele>10.666666666666666</ele><time>2026-04-24T09:18:33.145Z</time></trkpt><trkpt lat="36.3991795" lon="10.6119547"><ele>10.5</ele><time>2026-04-24T09:18:34.119Z</time></trkpt><trkpt lat="36.3990976" lon="10.61197"><ele>10.333333333333334</ele><time>2026-04-24T09:18:35.13Z</time></trkpt><trkpt lat="36.3990154" lon="10.6119841"><ele>10.166666666666668</ele><time>2026-04-24T09:18:36.139Z</time></trkpt><trkpt lat="36.3989298" lon="10.6120009"><ele>10.0</ele><time>2026-04-24T09:18:37.12Z</time></trkpt><trkpt lat="36.3988528" lon="10.6120207"><ele>9.666666666666668</ele><time>2026-04-24T09:18:38.114Z</time></trkpt><trkpt lat="36.3987724" lon="10.6120396"><ele>9.333333333333334</ele><time>2026-04-24T09:18:39.135Z</time></trkpt><trkpt lat="36.3986918" lon="10.6120601"><ele>9.0</ele><time>2026-04-24T09:18:40.151Z</time></trkpt><trkpt lat="36.3986135" lon="10.6120828"><ele>8.666666666666666</ele><time>2026-04-24T09:18:41.138Z</time></trkpt><trkpt lat="36.3985373" lon="10.6121031"><ele>8.333333333333332</ele><time>2026-04-24T09:18:42.137Z</time></trkpt><trkpt lat="36.3984607" lon="10.6121198"><ele>8.0</ele><time>2026-04-24T09:18:43.149Z</time></trkpt><trkpt lat="36.3983878" lon="10.6121388"><ele>7.999999999999999</ele><time>2026-04-24T09:18:44.116Z</time></trkpt><trkpt lat="36.3983163" lon="10.6121569"><ele>8.0</ele><time>2026-04-24T09:18:45.135Z</time></trkpt><trkpt lat="36.3982483" lon="10.6121776"><ele>8.0</ele><time>2026-04-24T09:18:46.111Z</time></trkpt><trkpt lat="36.3981783" lon="10.6121917"><ele>8.0</ele><time>2026-04-24T09:18:47.114Z</time></trkpt><trkpt lat="36.3981103" lon="10.6122059"><ele>7.999999999999999</ele><time>2026-04-24T09:18:48.139Z</time></trkpt><trkpt lat="36.398043" lon="10.6122169"><ele>8.0</ele><time>2026-04-24T09:18:49.135Z</time></trkpt><trkpt lat="36.3979225" lon="10.612246"><ele>7.666666666666666</ele><time>2026-04-24T09:18:51.129Z</time></trkpt><trkpt lat="36.3978213" lon="10.6122719"><ele>7.333333333333333</ele><time>2026-04-24T09:18:53.144Z</time></trkpt><trkpt lat="36.3977299" lon="10.6122994"><ele>7.0</ele><time>2026-04-24T09:18:55.141Z</time></trkpt><trkpt lat="36.397641" lon="10.6123231"><ele>6.666666666666666</ele><time>2026-04-24T09:18:57.138Z</time></trkpt><trkpt lat="36.3975562" lon="10.6123504"><ele>6.333333333333333</ele><time>2026-04-24T09:18:59.137Z</time></trkpt><trkpt lat="36.3974923" lon="10.6123661"><ele>6.0</ele><time>2026-04-24T09:19:01.118Z</time></trkpt><trkpt lat="36.3974144" lon="10.6123864"><ele>5.999999999999999</ele><time>2026-04-24T09:19:04.131Z</time></trkpt><trkpt lat="36.3973462" lon="10.6124209"><ele>6.0</ele><time>2026-04-24T09:19:07.135Z</time></trkpt><trkpt lat="36.39728" lon="10.6124476"><ele>6.0</ele><time>2026-04-24T09:19:10.146Z</time></trkpt><trkpt lat="36.3972056" lon="10.6124689"><ele>6.0</ele><time>2026-04-24T09:19:15.121Z</time></trkpt><trkpt lat="36.3971385" lon="10.6124963"><ele>6.0</ele><time>2026-04-24T09:19:19.124Z</time></trkpt><trkpt lat="36.3970683" lon="10.6125065"><ele>5.999999999999999</ele><time>2026-04-24T09:19:23.115Z</time></trkpt><trkpt lat="36.3970007" lon="10.6125163"><ele>6.0</ele><time>2026-04-24T09:19:26.141Z</time></trkpt><trkpt lat="36.3969131" lon="10.6125199"><ele>5.5</ele><time>2026-04-24T09:19:29.135Z</time></trkpt><trkpt lat="36.3968227" lon="10.6125075"><ele>5.0</ele><time>2026-04-24T09:19:32.134Z</time></trkpt><trkpt lat="36.3967566" lon="10.6125048"><ele>4.5</ele><time>2026-04-24T09:19:34.107Z</time></trkpt><trkpt lat="36.3966931" lon="10.6125035"><ele>4.0</ele><time>2026-04-24T09:19:36.134Z</time></trkpt><trkpt lat="36.3966242" lon="10.6125175"><ele>3.5</ele><time>2026-04-24T09:19:38.121Z</time></trkpt><trkpt lat="36.3965444" lon="10.6125323"><ele>3.0</ele><time>2026-04-24T09:19:40.151Z</time></trkpt><trkpt lat="36.3964649" lon="10.6125511"><ele>3.0</ele><time>2026-04-24T09:19:42.129Z</time></trkpt><trkpt lat="36.3963868" lon="10.6125672"><ele>3.0</ele><time>2026-04-24T09:19:44.133Z</time></trkpt><trkpt lat="36.3963086" lon="10.6125932"><ele>3.0</ele><time>2026-04-24T09:19:46.145Z</time></trkpt><trkpt lat="36.3962212" lon="10.6126122"><ele>3.0</ele><time>2026-04-24T09:19:48.115Z</time></trkpt><trkpt lat="36.3961398" lon="10.6126356"><ele>3.0</ele><time>2026-04-24T09:19:50.14Z</time></trkpt><trkpt lat="36.3960617" lon="10.6126575"><ele>3.0</ele><time>2026-04-24T09:19:52.143Z</time></trkpt><trkpt lat="36.3959935" lon="10.6126766"><ele>3.0</ele><time>2026-04-24T09:19:54.122Z</time></trkpt><trkpt lat="36.3959167" lon="10.6126946"><ele>3.0</ele><time>2026-04-24T09:19:56.143Z</time></trkpt><trkpt lat="36.3958289" lon="10.6127185"><ele>3.0</ele><time>2026-04-24T09:19:58.134Z</time></trkpt><trkpt lat="36.395736" lon="10.6127441"><ele>3.0</ele><time>2026-04-24T09:20:00.128Z</time></trkpt><trkpt lat="36.3956397" lon="10.6127477"><ele>3.0</ele><time>2026-04-24T09:20:02.155Z</time></trkpt><trkpt lat="36.3955534" lon="10.6127459"><ele>3.0</ele><time>2026-04-24T09:20:04.141Z</time></trkpt><trkpt lat="36.3954723" lon="10.6127329"><ele>3.0</ele><time>2026-04-24T09:20:06.142Z</time></trkpt><trkpt lat="36.3953846" lon="10.6127009"><ele>3.0</ele><time>2026-04-24T09:20:08.121Z</time></trkpt><trkpt lat="36.395312" lon="10.6126707"><ele>3.0</ele><time>2026-04-24T09:20:10.148Z</time></trkpt><trkpt lat="36.3952536" lon="10.6126219"><ele>3.0</ele><time>2026-04-24T09:20:12.134Z</time></trkpt><trkpt lat="36.3952001" lon="10.6125532"><ele>3.0</ele><time>2026-04-24T09:20:14.128Z</time></trkpt><trkpt lat="36.3951357" lon="10.6124686"><ele>3.0</ele><time>2026-04-24T09:20:16.132Z</time></trkpt><trkpt lat="36.3950759" lon="10.6123852"><ele>3.0</ele><time>2026-04-24T09:20:18.147Z</time></trkpt><trkpt lat="36.3950225" lon="10.6122859"><ele>3.0</ele><time>2026-04-24T09:20:20.115Z</time></trkpt><trkpt lat="36.394969" lon="10.6121971"><ele>3.0</ele><time>2026-04-24T09:20:22.119Z</time></trkpt><trkpt lat="36.3949215" lon="10.6121184"><ele>3.0</ele><time>2026-04-24T09:20:24.108Z</time></trkpt><trkpt lat="36.3948748" lon="10.6120289"><ele>3.0</ele><time>2026-04-24T09:20:27.133Z</time></trkpt><trkpt lat="36.3948309" lon="10.6119541"><ele>3.0</ele><time>2026-04-24T09:20:31.138Z</time></trkpt><trkpt lat="36.394766" lon="10.611961"><ele>1.0</ele><time>2026-04-24T09:24:12.138Z</time></trkpt><trkpt lat="36.3948168" lon="10.6119126"><ele>1.0</ele><time>2026-04-24T09:26:31.143Z</time></trkpt><trkpt lat="36.3947681" lon="10.6118532"><ele>1.0</ele><time>2026-04-24T09:26:37.154Z</time></trkpt><trkpt lat="36.3947158" lon="10.6118062"><ele>1.0</ele><time>2026-04-24T09:26:47.166Z</time></trkpt><trkpt lat="36.3946589" lon="10.6117685"><ele>1.0</ele><time>2026-04-24T09:26:53.163Z</time></trkpt><trkpt lat="36.3946121" lon="10.6117019"><ele>1.0</ele><time>2026-04-24T09:27:01.173Z</time></trkpt><trkpt lat="36.3945713" lon="10.6116371"><ele>1.0</ele><time>2026-04-24T09:27:09.111Z</time></trkpt></trkseg><trkseg><trkpt lat="36.3948031" lon="10.6119511"><ele>1.2857142857142856</ele><time>2026-04-24T10:28:55.18Z</time></trkpt><trkpt lat="36.3948403" lon="10.6120218"><ele>1.5714285714285712</ele><time>2026-04-24T10:32:40.106Z</time></trkpt><trkpt lat="36.3948555" lon="10.6121038"><ele>1.857142857142857</ele><time>2026-04-24T10:32:44.093Z</time></trkpt><trkpt lat="36.3948905" lon="10.6121915"><ele>2.142857142857143</ele><time>2026-04-24T10:32:49.098Z</time></trkpt><trkpt lat="36.394935" lon="10.6122694"><ele>2.4285714285714284</ele><time>2026-04-24T10:32:52.082Z</time></trkpt><trkpt lat="36.3949735" lon="10.6123569"><ele>2.714285714285714</ele><time>2026-04-24T10:32:56.108Z</time></trkpt><trkpt lat="36.3950179" lon="10.612427"><ele>3.0</ele><time>2026-04-24T10:32:59.108Z</time></trkpt><trkpt lat="36.395067" lon="10.612496"><ele>3.0</ele><time>2026-04-24T10:33:29.099Z</time></trkpt><trkpt lat="36.395139" lon="10.6125704"><ele>3.0</ele><time>2026-04-24T10:33:32.109Z</time></trkpt><trkpt lat="36.3952002" lon="10.6126527"><ele>3.0</ele><time>2026-04-24T10:33:35.095Z</time></trkpt><trkpt lat="36.3952441" lon="10.6127131"><ele>3.0</ele><time>2026-04-24T10:33:37.112Z</time></trkpt><trkpt lat="36.3952851" lon="10.612787"><ele>3.0</ele><time>2026-04-24T10:33:39.102Z</time></trkpt><trkpt lat="36.3953038" lon="10.6128846"><ele>3.0</ele><time>2026-04-24T10:33:42.112Z</time></trkpt><trkpt lat="36.3953251" lon="10.6129755"><ele>3.3333333333333335</ele><time>2026-04-24T10:33:45.118Z</time></trkpt><trkpt lat="36.3953511" lon="10.6130645"><ele>3.666666666666667</ele><time>2026-04-24T10:33:49.098Z</time></trkpt><trkpt lat="36.3953686" lon="10.6131789"><ele>4.0</ele><time>2026-04-24T10:33:52.105Z</time></trkpt><trkpt lat="36.3953801" lon="10.613273"><ele>4.333333333333334</ele><time>2026-04-24T10:33:54.104Z</time></trkpt><trkpt lat="36.3953933" lon="10.6133596"><ele>4.666666666666667</ele><time>2026-04-24T10:33:56.11Z</time></trkpt><trkpt lat="36.3954118" lon="10.6134507"><ele>5.0</ele><time>2026-04-24T10:33:58.107Z</time></trkpt><trkpt lat="36.3954503" lon="10.6135477"><ele>5.0</ele><time>2026-04-24T10:34:01.108Z</time></trkpt><trkpt lat="36.3954933" lon="10.6136067"><ele>5.0</ele><time>2026-04-24T10:34:03.107Z</time></trkpt><trkpt lat="36.3955431" lon="10.6136571"><ele>5.0</ele><time>2026-04-24T10:34:05.107Z</time></trkpt><trkpt lat="36.3955993" lon="10.6137002"><ele>5.0</ele><time>2026-04-24T10:34:07.102Z</time></trkpt><trkpt lat="36.3956686" lon="10.6137455"><ele>5.0</ele><time>2026-04-24T10:34:10.113Z</time></trkpt><trkpt lat="36.3957292" lon="10.6137995"><ele>5.0</ele><time>2026-04-24T10:34:12.102Z</time></trkpt><trkpt lat="36.395788" lon="10.6138543"><ele>5.0</ele><time>2026-04-24T10:34:14.109Z</time></trkpt><trkpt lat="36.3958417" lon="10.6138969"><ele>5.571428571428571</ele><time>2026-04-24T10:34:16.106Z</time></trkpt><trkpt lat="36.3959117" lon="10.6139353"><ele>6.142857142857143</ele><time>2026-04-24T10:34:20.104Z</time></trkpt><trkpt lat="36.3959722" lon="10.61397"><ele>6.714285714285715</ele><time>2026-04-24T10:34:23.106Z</time></trkpt><trkpt lat="36.3960454" lon="10.6140127"><ele>7.2857142857142865</ele><time>2026-04-24T10:34:27.103Z</time></trkpt><trkpt lat="36.3961033" lon="10.6140631"><ele>7.857142857142858</ele><time>2026-04-24T10:34:30.121Z</time></trkpt><trkpt lat="36.3961755" lon="10.614091"><ele>8.428571428571429</ele><time>2026-04-24T10:34:33.102Z</time></trkpt><trkpt lat="36.3962315" lon="10.614129"><ele>9.0</ele><time>2026-04-24T10:34:35.119Z</time></trkpt><trkpt lat="36.3963063" lon="10.6141701"><ele>8.666666666666666</ele><time>2026-04-24T10:34:38.115Z</time></trkpt><trkpt lat="36.3963737" lon="10.6142041"><ele>8.333333333333334</ele><time>2026-04-24T10:34:40.12Z</time></trkpt><trkpt lat="36.3964404" lon="10.614271"><ele>8.0</ele><time>2026-04-24T10:34:42.1Z</time></trkpt><trkpt lat="36.3964978" lon="10.614321"><ele>7.666666666666667</ele><time>2026-04-24T10:34:46.103Z</time></trkpt><trkpt lat="36.3965587" lon="10.6143554"><ele>7.333333333333334</ele><time>2026-04-24T10:34:51.126Z</time></trkpt><trkpt lat="36.3966294" lon="10.6143885"><ele>7.0</ele><time>2026-04-24T10:34:53.094Z</time></trkpt><trkpt lat="36.3967191" lon="10.6144271"><ele>7.0</ele><time>2026-04-24T10:34:55.103Z</time></trkpt><trkpt lat="36.3967783" lon="10.6144627"><ele>6.999999999999999</ele><time>2026-04-24T10:34:57.121Z</time></trkpt><trkpt lat="36.3968736" lon="10.6144973"><ele>6.999999999999999</ele><time>2026-04-24T10:35:01.104Z</time></trkpt><trkpt lat="36.3969737" lon="10.6145327"><ele>7.0</ele><time>2026-04-24T10:35:03.111Z</time></trkpt><trkpt lat="36.3970966" lon="10.6145486"><ele>7.0</ele><time>2026-04-24T10:35:05.105Z</time></trkpt><trkpt lat="36.3971682" lon="10.6145604"><ele>7.666666666666667</ele><time>2026-04-24T10:35:06.104Z</time></trkpt><trkpt lat="36.3972372" lon="10.6145813"><ele>8.333333333333334</ele><time>2026-04-24T10:35:07.119Z</time></trkpt><trkpt lat="36.3973323" lon="10.6146323"><ele>9.0</ele><time>2026-04-24T10:35:09.105Z</time></trkpt><trkpt lat="36.3974113" lon="10.6146747"><ele>9.666666666666666</ele><time>2026-04-24T10:35:12.107Z</time></trkpt><trkpt lat="36.3974905" lon="10.6147108"><ele>10.333333333333332</ele><time>2026-04-24T10:35:15.097Z</time></trkpt><trkpt lat="36.3975483" lon="10.6147599"><ele>11.0</ele><time>2026-04-24T10:35:18.111Z</time></trkpt><trkpt lat="36.3976487" lon="10.6148185"><ele>11.0</ele><time>2026-04-24T10:35:23.121Z</time></trkpt><trkpt lat="36.3977047" lon="10.6148712"><ele>11.0</ele><time>2026-04-24T10:35:24.1Z</time></trkpt><trkpt lat="36.3977757" lon="10.6149467"><ele>11.0</ele><time>2026-04-24T10:35:25.097Z</time></trkpt><trkpt lat="36.397842" lon="10.615021"><ele>11.0</ele><time>2026-04-24T10:35:26.121Z</time></trkpt><trkpt lat="36.3979113" lon="10.6151008"><ele>11.0</ele><time>2026-04-24T10:35:27.102Z</time></trkpt><trkpt lat="36.3979735" lon="10.615191"><ele>11.0</ele><time>2026-04-24T10:35:28.111Z</time></trkpt><trkpt lat="36.3980405" lon="10.6152733"><ele>11.0</ele><time>2026-04-24T10:35:29.1Z</time></trkpt><trkpt lat="36.3981038" lon="10.6153488"><ele>11.0</ele><time>2026-04-24T10:35:30.112Z</time></trkpt><trkpt lat="36.3981556" lon="10.6154219"><ele>11.0</ele><time>2026-04-24T10:35:31.108Z</time></trkpt><trkpt lat="36.3982093" lon="10.6155007"><ele>11.0</ele><time>2026-04-24T10:35:32.118Z</time></trkpt><trkpt lat="36.3982569" lon="10.6155704"><ele>11.0</ele><time>2026-04-24T10:35:33.112Z</time></trkpt><trkpt lat="36.3983012" lon="10.6156329"><ele>11.0</ele><time>2026-04-24T10:35:34.102Z</time></trkpt><trkpt lat="36.398382" lon="10.6157512"><ele>11.0</ele><time>2026-04-24T10:35:36.13Z</time></trkpt><trkpt lat="36.3984622" lon="10.6158483"><ele>11.0</ele><time>2026-04-24T10:35:38.102Z</time></trkpt><trkpt lat="36.3985322" lon="10.6159429"><ele>11.0</ele><time>2026-04-24T10:35:40.101Z</time></trkpt><trkpt lat="36.398603" lon="10.6160402"><ele>11.0</ele><time>2026-04-24T10:35:42.109Z</time></trkpt><trkpt lat="36.3986683" lon="10.6161326"><ele>11.0</ele><time>2026-04-24T10:35:44.104Z</time></trkpt><trkpt lat="36.3987335" lon="10.6162291"><ele>11.0</ele><time>2026-04-24T10:35:46.099Z</time></trkpt><trkpt lat="36.3987977" lon="10.616313"><ele>11.0</ele><time>2026-04-24T10:35:48.117Z</time></trkpt><trkpt lat="36.3988666" lon="10.6164107"><ele>11.0</ele><time>2026-04-24T10:35:50.11Z</time></trkpt><trkpt lat="36.398943" lon="10.6165092"><ele>11.0</ele><time>2026-04-24T10:35:52.107Z</time></trkpt><trkpt lat="36.3990208" lon="10.6166157"><ele>11.0</ele><time>2026-04-24T10:35:54.103Z</time></trkpt><trkpt lat="36.3990984" lon="10.6167227"><ele>11.200000000000001</ele><time>2026-04-24T10:35:56.112Z</time></trkpt><trkpt lat="36.3991734" lon="10.616821"><ele>11.4</ele><time>2026-04-24T10:35:58.106Z</time></trkpt><trkpt lat="36.3992445" lon="10.6169184"><ele>11.6</ele><time>2026-04-24T10:36:00.123Z</time></trkpt><trkpt lat="36.3993142" lon="10.6170169"><ele>11.8</ele><time>2026-04-24T10:36:02.107Z</time></trkpt><trkpt lat="36.3993839" lon="10.6171285"><ele>12.0</ele><time>2026-04-24T10:36:04.109Z</time></trkpt><trkpt lat="36.3994524" lon="10.6172513"><ele>12.142857142857142</ele><time>2026-04-24T10:36:06.113Z</time></trkpt><trkpt lat="36.3994886" lon="10.6173199"><ele>12.285714285714285</ele><time>2026-04-24T10:36:07.107Z</time></trkpt><trkpt lat="36.3995234" lon="10.6173863"><ele>12.428571428571427</ele><time>2026-04-24T10:36:08.095Z</time></trkpt><trkpt lat="36.3995563" lon="10.6174564"><ele>12.571428571428571</ele><time>2026-04-24T10:36:09.107Z</time></trkpt><trkpt lat="36.3995912" lon="10.6175224"><ele>12.714285714285715</ele><time>2026-04-24T10:36:10.13Z</time></trkpt><trkpt lat="36.3996282" lon="10.6175898"><ele>12.857142857142856</ele><time>2026-04-24T10:36:11.108Z</time></trkpt><trkpt lat="36.3996661" lon="10.6176537"><ele>13.0</ele><time>2026-04-24T10:36:12.1Z</time></trkpt><trkpt lat="36.3997388" lon="10.6177811"><ele>13.666666666666666</ele><time>2026-04-24T10:36:14.109Z</time></trkpt><trkpt lat="36.399791" lon="10.6179028"><ele>14.333333333333332</ele><time>2026-04-24T10:36:16.123Z</time></trkpt><trkpt lat="36.3998358" lon="10.6179801"><ele>15.0</ele><time>2026-04-24T10:36:18.115Z</time></trkpt><trkpt lat="36.3998755" lon="10.6180495"><ele>15.666666666666668</ele><time>2026-04-24T10:36:21.113Z</time></trkpt><trkpt lat="36.3999341" lon="10.6181369"><ele>16.333333333333336</ele><time>2026-04-24T10:36:25.11Z</time></trkpt><trkpt lat="36.3999725" lon="10.6182053"><ele>17.0</ele><time>2026-04-24T10:36:27.121Z</time></trkpt><trkpt lat="36.400009" lon="10.6182937"><ele>17.0</ele><time>2026-04-24T10:36:29.122Z</time></trkpt><trkpt lat="36.4000572" lon="10.6183678"><ele>17.0</ele><time>2026-04-24T10:36:33.107Z</time></trkpt><trkpt lat="36.4001086" lon="10.618439"><ele>17.0</ele><time>2026-04-24T10:36:35.11Z</time></trkpt><trkpt lat="36.4001719" lon="10.6185198"><ele>17.0</ele><time>2026-04-24T10:36:37.105Z</time></trkpt><trkpt lat="36.4002169" lon="10.6185833"><ele>17.0</ele><time>2026-04-24T10:36:38.12Z</time></trkpt><trkpt lat="36.4003052" lon="10.6186881"><ele>17.0</ele><time>2026-04-24T10:36:40.107Z</time></trkpt><trkpt lat="36.4003962" lon="10.6187694"><ele>16.833333333333336</ele><time>2026-04-24T10:36:42.112Z</time></trkpt><trkpt lat="36.4004666" lon="10.618848"><ele>16.666666666666668</ele><time>2026-04-24T10:36:44.103Z</time></trkpt><trkpt lat="36.4005154" lon="10.61891"><ele>16.5</ele><time>2026-04-24T10:36:46.105Z</time></trkpt><trkpt lat="36.4005653" lon="10.6189898"><ele>16.333333333333332</ele><time>2026-04-24T10:36:49.101Z</time></trkpt><trkpt lat="36.4006215" lon="10.619053"><ele>16.166666666666664</ele><time>2026-04-24T10:36:51.124Z</time></trkpt><trkpt lat="36.400697" lon="10.6190884"><ele>16.0</ele><time>2026-04-24T10:36:53.108Z</time></trkpt><trkpt lat="36.4007734" lon="10.6190614"><ele>15.999999999999998</ele><time>2026-04-24T10:36:55.117Z</time></trkpt><trkpt lat="36.4008074" lon="10.6189849"><ele>16.0</ele><time>2026-04-24T10:36:58.118Z</time></trkpt><trkpt lat="36.4008146" lon="10.6189006"><ele>16.0</ele><time>2026-04-24T10:37:00.104Z</time></trkpt><trkpt lat="36.4008533" lon="10.6188022"><ele>16.0</ele><time>2026-04-24T10:37:03.106Z</time></trkpt><trkpt lat="36.4009085" lon="10.6187339"><ele>15.999999999999998</ele><time>2026-04-24T10:37:05.111Z</time></trkpt><trkpt lat="36.4009979" lon="10.618676"><ele>16.0</ele><time>2026-04-24T10:37:07.105Z</time></trkpt><trkpt lat="36.4011015" lon="10.6186282"><ele>16.2</ele><time>2026-04-24T10:37:09.109Z</time></trkpt><trkpt lat="36.4012202" lon="10.6185922"><ele>16.400000000000002</ele><time>2026-04-24T10:37:11.118Z</time></trkpt><trkpt lat="36.4012992" lon="10.6185875"><ele>16.6</ele><time>2026-04-24T10:37:12.124Z</time></trkpt><trkpt lat="36.4013671" lon="10.6185695"><ele>16.8</ele><time>2026-04-24T10:37:13.113Z</time></trkpt><trkpt lat="36.4014914" lon="10.6185378"><ele>17.0</ele><time>2026-04-24T10:37:15.106Z</time></trkpt><trkpt lat="36.4015546" lon="10.6185129"><ele>17.2</ele><time>2026-04-24T10:37:16.107Z</time></trkpt><trkpt lat="36.4016592" lon="10.6184566"><ele>17.4</ele><time>2026-04-24T10:37:18.117Z</time></trkpt><trkpt lat="36.4017406" lon="10.6183435"><ele>17.6</ele><time>2026-04-24T10:37:20.119Z</time></trkpt><trkpt lat="36.4017676" lon="10.6182105"><ele>17.8</ele><time>2026-04-24T10:37:22.117Z</time></trkpt><trkpt lat="36.4017676" lon="10.6181307"><ele>18.0</ele><time>2026-04-24T10:37:23.105Z</time></trkpt><trkpt lat="36.4017612" lon="10.6180467"><ele>18.0</ele><time>2026-04-24T10:37:24.107Z</time></trkpt><trkpt lat="36.4017618" lon="10.6179683"><ele>18.0</ele><time>2026-04-24T10:37:25.105Z</time></trkpt><trkpt lat="36.4017965" lon="10.6178398"><ele>18.0</ele><time>2026-04-24T10:37:27.106Z</time></trkpt><trkpt lat="36.4018572" lon="10.6177544"><ele>18.0</ele><time>2026-04-24T10:37:29.119Z</time></trkpt><trkpt lat="36.401926" lon="10.6176976"><ele>18.0</ele><time>2026-04-24T10:37:31.103Z</time></trkpt><trkpt lat="36.4020202" lon="10.6176479"><ele>18.0</ele><time>2026-04-24T10:37:33.103Z</time></trkpt><trkpt lat="36.402112" lon="10.6176114"><ele>18.166666666666668</ele><time>2026-04-24T10:37:35.113Z</time></trkpt><trkpt lat="36.4022152" lon="10.6175662"><ele>18.333333333333332</ele><time>2026-04-24T10:37:37.109Z</time></trkpt><trkpt lat="36.4023304" lon="10.6175263"><ele>18.5</ele><time>2026-04-24T10:37:39.111Z</time></trkpt><trkpt lat="36.4024006" lon="10.6175065"><ele>18.666666666666664</ele><time>2026-04-24T10:37:40.112Z</time></trkpt><trkpt lat="36.4024706" lon="10.6174791"><ele>18.833333333333332</ele><time>2026-04-24T10:37:41.112Z</time></trkpt><trkpt lat="36.4025357" lon="10.617466"><ele>19.0</ele><time>2026-04-24T10:37:42.107Z</time></trkpt><trkpt lat="36.4026618" lon="10.61744"><ele>19.0</ele><time>2026-04-24T10:37:44.099Z</time></trkpt><trkpt lat="36.4027625" lon="10.6174111"><ele>19.0</ele><time>2026-04-24T10:37:46.116Z</time></trkpt><trkpt lat="36.4028338" lon="10.6173562"><ele>19.0</ele><time>2026-04-24T10:38:00.099Z</time></trkpt><trkpt lat="36.4028714" lon="10.6172578"><ele>19.0</ele><time>2026-04-24T10:38:02.095Z</time></trkpt><trkpt lat="36.4029537" lon="10.6172039"><ele>19.0</ele><time>2026-04-24T10:38:04.101Z</time></trkpt><trkpt lat="36.403053" lon="10.6171511"><ele>19.75</ele><time>2026-04-24T10:38:06.104Z</time></trkpt><trkpt lat="36.403165" lon="10.6170969"><ele>20.5</ele><time>2026-04-24T10:38:08.094Z</time></trkpt><trkpt lat="36.403286" lon="10.6170371"><ele>21.25</ele><time>2026-04-24T10:38:10.116Z</time></trkpt><trkpt lat="36.4033754" lon="10.6170011"><ele>22.0</ele><time>2026-04-24T10:38:11.091Z</time></trkpt><trkpt lat="36.4035178" lon="10.6169649"><ele>22.25</ele><time>2026-04-24T10:38:12.115Z</time></trkpt><trkpt lat="36.4036854" lon="10.6169323"><ele>22.5</ele><time>2026-04-24T10:38:13.103Z</time></trkpt><trkpt lat="36.4038278" lon="10.6168985"><ele>22.75</ele><time>2026-04-24T10:38:14.108Z</time></trkpt><trkpt lat="36.4039508" lon="10.6168755"><ele>23.0</ele><time>2026-04-24T10:38:15.123Z</time></trkpt><trkpt lat="36.4040588" lon="10.6168548"><ele>23.333333333333336</ele><time>2026-04-24T10:38:16.091Z</time></trkpt><trkpt lat="36.4041546" lon="10.6168372"><ele>23.666666666666668</ele><time>2026-04-24T10:38:17.102Z</time></trkpt><trkpt lat="36.4042323" lon="10.6168096"><ele>24.0</ele><time>2026-04-24T10:38:18.104Z</time></trkpt><trkpt lat="36.4043148" lon="10.6167952"><ele>24.333333333333336</ele><time>2026-04-24T10:38:19.095Z</time></trkpt><trkpt lat="36.4043812" lon="10.6167968"><ele>24.666666666666668</ele><time>2026-04-24T10:38:20.092Z</time></trkpt><trkpt lat="36.4044695" lon="10.61679"><ele>25.0</ele><time>2026-04-24T10:38:22.112Z</time></trkpt><trkpt lat="36.4045457" lon="10.6167577"><ele>25.000000000000004</ele><time>2026-04-24T10:38:24.101Z</time></trkpt><trkpt lat="36.4046253" lon="10.6167304"><ele>25.0</ele><time>2026-04-24T10:38:26.098Z</time></trkpt><trkpt lat="36.404694" lon="10.6166629"><ele>25.0</ele><time>2026-04-24T10:38:28.089Z</time></trkpt><trkpt lat="36.4047232" lon="10.6165659"><ele>25.0</ele><time>2026-04-24T10:38:30.099Z</time></trkpt><trkpt lat="36.4047789" lon="10.6164976"><ele>25.000000000000004</ele><time>2026-04-24T10:38:32.123Z</time></trkpt><trkpt lat="36.4048784" lon="10.6164759"><ele>25.0</ele><time>2026-04-24T10:38:34.102Z</time></trkpt><trkpt lat="36.4049864" lon="10.6164597"><ele>25.6</ele><time>2026-04-24T10:38:36.111Z</time></trkpt><trkpt lat="36.4051125" lon="10.6164439"><ele>26.2</ele><time>2026-04-24T10:38:38.114Z</time></trkpt><trkpt lat="36.4051756" lon="10.6164361"><ele>26.799999999999997</ele><time>2026-04-24T10:38:39.093Z</time></trkpt><trkpt lat="36.4052993" lon="10.6164415"><ele>27.4</ele><time>2026-04-24T10:38:41.109Z</time></trkpt><trkpt lat="36.4054275" lon="10.6164283"><ele>28.0</ele><time>2026-04-24T10:38:43.104Z</time></trkpt><trkpt lat="36.4054912" lon="10.6164254"><ele>28.500000000000004</ele><time>2026-04-24T10:38:44.111Z</time></trkpt><trkpt lat="36.4055542" lon="10.6164242"><ele>29.0</ele><time>2026-04-24T10:38:45.116Z</time></trkpt><trkpt lat="36.4056498" lon="10.6164134"><ele>29.5</ele><time>2026-04-24T10:38:47.107Z</time></trkpt><trkpt lat="36.4057222" lon="10.616429"><ele>30.0</ele><time>2026-04-24T10:38:50.106Z</time></trkpt><trkpt lat="36.4057898" lon="10.6164036"><ele>30.500000000000004</ele><time>2026-04-24T10:39:16.096Z</time></trkpt><trkpt lat="36.4058227" lon="10.6162945"><ele>31.0</ele><time>2026-04-24T10:39:20.11Z</time></trkpt><trkpt lat="36.4058188" lon="10.6161684"><ele>31.0</ele><time>2026-04-24T10:39:22.108Z</time></trkpt><trkpt lat="36.4058188" lon="10.616034"><ele>31.0</ele><time>2026-04-24T10:39:24.11Z</time></trkpt><trkpt lat="36.4058075" lon="10.6159122"><ele>31.0</ele><time>2026-04-24T10:39:26.112Z</time></trkpt><trkpt lat="36.4058056" lon="10.6157846"><ele>31.0</ele><time>2026-04-24T10:39:28.091Z</time></trkpt><trkpt lat="36.4058041" lon="10.6156544"><ele>31.0</ele><time>2026-04-24T10:39:30.115Z</time></trkpt><trkpt lat="36.4058051" lon="10.6155655"><ele>31.000000000000004</ele><time>2026-04-24T10:39:32.102Z</time></trkpt><trkpt lat="36.4057969" lon="10.6154841"><ele>31.0</ele><time>2026-04-24T10:39:34.098Z</time></trkpt><trkpt lat="36.405787" lon="10.6153858"><ele>31.0</ele><time>2026-04-24T10:39:36.107Z</time></trkpt><trkpt lat="36.4057924" lon="10.6152723"><ele>31.0</ele><time>2026-04-24T10:39:38.103Z</time></trkpt><trkpt lat="36.4057888" lon="10.615166"><ele>31.000000000000004</ele><time>2026-04-24T10:39:40.121Z</time></trkpt><trkpt lat="36.4057849" lon="10.6150667"><ele>31.0</ele><time>2026-04-24T10:39:42.107Z</time></trkpt><trkpt lat="36.405781" lon="10.6149423"><ele>30.6</ele><time>2026-04-24T10:39:44.092Z</time></trkpt><trkpt lat="36.4057786" lon="10.6148092"><ele>30.200000000000003</ele><time>2026-04-24T10:39:46.111Z</time></trkpt><trkpt lat="36.4057711" lon="10.6146723"><ele>29.799999999999997</ele><time>2026-04-24T10:39:48.106Z</time></trkpt><trkpt lat="36.4057659" lon="10.6145382"><ele>29.4</ele><time>2026-04-24T10:39:50.096Z</time></trkpt><trkpt lat="36.40576" lon="10.6144074"><ele>29.0</ele><time>2026-04-24T10:39:52.115Z</time></trkpt><trkpt lat="36.4057539" lon="10.6142802"><ele>28.6</ele><time>2026-04-24T10:39:54.108Z</time></trkpt><trkpt lat="36.4057344" lon="10.6141574"><ele>28.2</ele><time>2026-04-24T10:39:56.105Z</time></trkpt><trkpt lat="36.4057068" lon="10.6140301"><ele>27.800000000000004</ele><time>2026-04-24T10:39:58.108Z</time></trkpt><trkpt lat="36.4056874" lon="10.6139001"><ele>27.400000000000002</ele><time>2026-04-24T10:40:00.106Z</time></trkpt><trkpt lat="36.4056706" lon="10.613767"><ele>27.0</ele><time>2026-04-24T10:40:02.113Z</time></trkpt><trkpt lat="36.4056562" lon="10.6136373"><ele>27.0</ele><time>2026-04-24T10:40:04.101Z</time></trkpt><trkpt lat="36.4056448" lon="10.6135374"><ele>27.0</ele><time>2026-04-24T10:40:06.121Z</time></trkpt><trkpt lat="36.405623" lon="10.613447"><ele>27.0</ele><time>2026-04-24T10:40:08.104Z</time></trkpt><trkpt lat="36.4056003" lon="10.6133468"><ele>27.0</ele><time>2026-04-24T10:40:10.111Z</time></trkpt><trkpt lat="36.4055917" lon="10.6132532"><ele>27.0</ele><time>2026-04-24T10:40:12.105Z</time></trkpt><trkpt lat="36.4056202" lon="10.6131826"><ele>27.0</ele><time>2026-04-24T10:40:19.121Z</time></trkpt><trkpt lat="36.4056156" lon="10.6130877"><ele>27.0</ele><time>2026-04-24T10:40:24.113Z</time></trkpt><trkpt lat="36.4056227" lon="10.6129975"><ele>27.0</ele><time>2026-04-24T10:40:32.123Z</time></trkpt><trkpt lat="36.4056207" lon="10.6129164"><ele>27.0</ele><time>2026-04-24T10:40:38.103Z</time></trkpt><trkpt lat="36.4056467" lon="10.6128348"><ele>27.0</ele><time>2026-04-24T10:40:50.093Z</time></trkpt><trkpt lat="36.405696" lon="10.6127683"><ele>27.0</ele><time>2026-04-24T10:40:54.098Z</time></trkpt><trkpt lat="36.4057587" lon="10.6127182"><ele>27.0</ele><time>2026-04-24T10:40:56.12Z</time></trkpt><trkpt lat="36.4058196" lon="10.6126818"><ele>27.0</ele><time>2026-04-24T10:40:58.105Z</time></trkpt><trkpt lat="36.4058942" lon="10.6126321"><ele>27.0</ele><time>2026-04-24T10:41:00.097Z</time></trkpt><trkpt lat="36.4059643" lon="10.6126175"><ele>27.0</ele><time>2026-04-24T10:41:03.102Z</time></trkpt><trkpt lat="36.4060375" lon="10.6125898"><ele>27.0</ele><time>2026-04-24T10:41:06.127Z</time></trkpt><trkpt lat="36.4061013" lon="10.6125822"><ele>27.0</ele><time>2026-04-24T10:41:08.109Z</time></trkpt><trkpt lat="36.4062033" lon="10.6125603"><ele>27.0</ele><time>2026-04-24T10:41:11.101Z</time></trkpt><trkpt lat="36.4062863" lon="10.6125185"><ele>27.0</ele><time>2026-04-24T10:41:13.112Z</time></trkpt><trkpt lat="36.4063815" lon="10.6124773"><ele>27.400000000000002</ele><time>2026-04-24T10:41:15.098Z</time></trkpt><trkpt lat="36.4064712" lon="10.6124474"><ele>27.800000000000004</ele><time>2026-04-24T10:41:17.109Z</time></trkpt><trkpt lat="36.4065642" lon="10.6124173"><ele>28.2</ele><time>2026-04-24T10:41:19.103Z</time></trkpt><trkpt lat="36.4066525" lon="10.6123807"><ele>28.6</ele><time>2026-04-24T10:41:21.108Z</time></trkpt><trkpt lat="36.4067344" lon="10.6123332"><ele>29.0</ele><time>2026-04-24T10:41:23.114Z</time></trkpt><trkpt lat="36.4068303" lon="10.6123196"><ele>28.999999999999996</ele><time>2026-04-24T10:41:25.108Z</time></trkpt><trkpt lat="36.406915" lon="10.6122921"><ele>29.0</ele><time>2026-04-24T10:41:27.097Z</time></trkpt><trkpt lat="36.4070053" lon="10.6122637"><ele>29.0</ele><time>2026-04-24T10:41:29.106Z</time></trkpt><trkpt lat="36.4070826" lon="10.6122309"><ele>29.0</ele><time>2026-04-24T10:41:31.091Z</time></trkpt><trkpt lat="36.407174" lon="10.6121984"><ele>28.999999999999996</ele><time>2026-04-24T10:41:33.097Z</time></trkpt><trkpt lat="36.4072531" lon="10.6121671"><ele>29.0</ele><time>2026-04-24T10:41:35.103Z</time></trkpt><trkpt lat="36.4073224" lon="10.6121341"><ele>29.166666666666664</ele><time>2026-04-24T10:41:37.11Z</time></trkpt><trkpt lat="36.4073829" lon="10.6121083"><ele>29.333333333333332</ele><time>2026-04-24T10:41:39.104Z</time></trkpt><trkpt lat="36.4074432" lon="10.6120568"><ele>29.5</ele><time>2026-04-24T10:41:41.112Z</time></trkpt><trkpt lat="36.4075088" lon="10.612"><ele>29.666666666666664</ele><time>2026-04-24T10:41:43.11Z</time></trkpt><trkpt lat="36.4075515" lon="10.6118915"><ele>29.833333333333332</ele><time>2026-04-24T10:41:45.115Z</time></trkpt><trkpt lat="36.4075484" lon="10.6117574"><ele>30.0</ele><time>2026-04-24T10:41:47.129Z</time></trkpt><trkpt lat="36.4075241" lon="10.6116328"><ele>30.0</ele><time>2026-04-24T10:41:49.099Z</time></trkpt><trkpt lat="36.4074961" lon="10.6115137"><ele>30.0</ele><time>2026-04-24T10:41:51.124Z</time></trkpt><trkpt lat="36.4074661" lon="10.6113934"><ele>30.0</ele><time>2026-04-24T10:41:53.126Z</time></trkpt><trkpt lat="36.407437" lon="10.6112761"><ele>30.0</ele><time>2026-04-24T10:41:55.118Z</time></trkpt><trkpt lat="36.4074068" lon="10.6111658"><ele>30.0</ele><time>2026-04-24T10:41:57.112Z</time></trkpt><trkpt lat="36.407377" lon="10.6110678"><ele>29.714285714285715</ele><time>2026-04-24T10:41:59.112Z</time></trkpt><trkpt lat="36.4073521" lon="10.6109774"><ele>29.428571428571427</ele><time>2026-04-24T10:42:01.099Z</time></trkpt><trkpt lat="36.4073307" lon="10.6108916"><ele>29.142857142857142</ele><time>2026-04-24T10:42:03.116Z</time></trkpt><trkpt lat="36.4072963" lon="10.6107995"><ele>28.857142857142858</ele><time>2026-04-24T10:42:05.109Z</time></trkpt><trkpt lat="36.4072718" lon="10.6107133"><ele>28.57142857142857</ele><time>2026-04-24T10:42:07.107Z</time></trkpt><trkpt lat="36.4072432" lon="10.6106297"><ele>28.285714285714285</ele><time>2026-04-24T10:42:10.102Z</time></trkpt><trkpt lat="36.4072111" lon="10.6105551"><ele>28.0</ele><time>2026-04-24T10:42:15.112Z</time></trkpt><trkpt lat="36.4071853" lon="10.6104695"><ele>28.000000000000004</ele><time>2026-04-24T10:42:17.111Z</time></trkpt><trkpt lat="36.4071636" lon="10.6103265"><ele>28.0</ele><time>2026-04-24T10:42:19.112Z</time></trkpt><trkpt lat="36.4071426" lon="10.6102444"><ele>28.0</ele><time>2026-04-24T10:42:20.109Z</time></trkpt><trkpt lat="36.407119" lon="10.6101623"><ele>28.0</ele><time>2026-04-24T10:42:21.105Z</time></trkpt><trkpt lat="36.4070987" lon="10.6100866"><ele>28.000000000000004</ele><time>2026-04-24T10:42:22.114Z</time></trkpt><trkpt lat="36.407054" lon="10.6099502"><ele>28.0</ele><time>2026-04-24T10:42:24.117Z</time></trkpt><trkpt lat="36.4070076" lon="10.6098073"><ele>27.500000000000004</ele><time>2026-04-24T10:42:26.118Z</time></trkpt><trkpt lat="36.4069866" lon="10.6096599"><ele>27.0</ele><time>2026-04-24T10:42:28.118Z</time></trkpt><trkpt lat="36.4069926" lon="10.6095736"><ele>26.5</ele><time>2026-04-24T10:42:29.11Z</time></trkpt><trkpt lat="36.406989" lon="10.6094954"><ele>26.0</ele><time>2026-04-24T10:42:30.107Z</time></trkpt><trkpt lat="36.4069985" lon="10.6093886"><ele>25.500000000000004</ele><time>2026-04-24T10:42:32.099Z</time></trkpt><trkpt lat="36.4070143" lon="10.6093107"><ele>25.0</ele><time>2026-04-24T10:42:36.108Z</time></trkpt><trkpt lat="36.4070185" lon="10.6091969"><ele>25.000000000000004</ele><time>2026-04-24T10:42:40.096Z</time></trkpt><trkpt lat="36.4070328" lon="10.6090993"><ele>25.0</ele><time>2026-04-24T10:42:42.098Z</time></trkpt><trkpt lat="36.4070531" lon="10.6089951"><ele>25.0</ele><time>2026-04-24T10:42:44.107Z</time></trkpt><trkpt lat="36.4070687" lon="10.608881"><ele>25.0</ele><time>2026-04-24T10:42:46.104Z</time></trkpt><trkpt lat="36.4070739" lon="10.6087945"><ele>25.000000000000004</ele><time>2026-04-24T10:42:48.106Z</time></trkpt><trkpt lat="36.4070628" lon="10.6087041"><ele>25.0</ele><time>2026-04-24T10:42:51.109Z</time></trkpt><trkpt lat="36.407037" lon="10.6086086"><ele>24.500000000000004</ele><time>2026-04-24T10:42:53.101Z</time></trkpt><trkpt lat="36.4070106" lon="10.6084777"><ele>24.0</ele><time>2026-04-24T10:42:55.14Z</time></trkpt><trkpt lat="36.4069713" lon="10.6083378"><ele>23.5</ele><time>2026-04-24T10:42:57.106Z</time></trkpt><trkpt lat="36.4069509" lon="10.6082622"><ele>23.0</ele><time>2026-04-24T10:42:58.108Z</time></trkpt><trkpt lat="36.4069305" lon="10.608183"><ele>22.5</ele><time>2026-04-24T10:42:59.105Z</time></trkpt><trkpt lat="36.4069069" lon="10.6081036"><ele>22.0</ele><time>2026-04-24T10:43:00.099Z</time></trkpt><trkpt lat="36.4068783" lon="10.608026"><ele>22.0</ele><time>2026-04-24T10:43:01.11Z</time></trkpt><trkpt lat="36.4068469" lon="10.6079457"><ele>22.0</ele><time>2026-04-24T10:43:02.109Z</time></trkpt><trkpt lat="36.4068194" lon="10.6078642"><ele>22.0</ele><time>2026-04-24T10:43:03.107Z</time></trkpt><trkpt lat="36.406792" lon="10.6077823"><ele>22.0</ele><time>2026-04-24T10:43:04.108Z</time></trkpt><trkpt lat="36.4067601" lon="10.6076981"><ele>22.0</ele><time>2026-04-24T10:43:05.095Z</time></trkpt><trkpt lat="36.4067328" lon="10.6076057"><ele>22.0</ele><time>2026-04-24T10:43:06.11Z</time></trkpt><trkpt lat="36.4067067" lon="10.6075114"><ele>22.0</ele><time>2026-04-24T10:43:07.099Z</time></trkpt><trkpt lat="36.4066792" lon="10.6074205"><ele>21.666666666666664</ele><time>2026-04-24T10:43:08.111Z</time></trkpt><trkpt lat="36.406652" lon="10.6073294"><ele>21.333333333333332</ele><time>2026-04-24T10:43:09.102Z</time></trkpt><trkpt lat="36.406627" lon="10.6072387"><ele>21.0</ele><time>2026-04-24T10:43:10.104Z</time></trkpt><trkpt lat="36.4065935" lon="10.6071444"><ele>20.666666666666668</ele><time>2026-04-24T10:43:11.094Z</time></trkpt><trkpt lat="36.4065617" lon="10.6070544"><ele>20.333333333333336</ele><time>2026-04-24T10:43:12.108Z</time></trkpt><trkpt lat="36.4065341" lon="10.6069664"><ele>20.0</ele><time>2026-04-24T10:43:13.11Z</time></trkpt><trkpt lat="36.4065027" lon="10.6068815"><ele>20.0</ele><time>2026-04-24T10:43:14.1Z</time></trkpt><trkpt lat="36.4064809" lon="10.6068054"><ele>20.0</ele><time>2026-04-24T10:43:15.097Z</time></trkpt><trkpt lat="36.4064478" lon="10.6066837"><ele>20.0</ele><time>2026-04-24T10:43:17.103Z</time></trkpt><trkpt lat="36.4064291" lon="10.6065984"><ele>20.0</ele><time>2026-04-24T10:43:19.113Z</time></trkpt><trkpt lat="36.4064031" lon="10.6065253"><ele>20.0</ele><time>2026-04-24T10:43:21.124Z</time></trkpt><trkpt lat="36.4063667" lon="10.6064189"><ele>20.0</ele><time>2026-04-24T10:43:24.117Z</time></trkpt><trkpt lat="36.4063477" lon="10.6063296"><ele>19.6</ele><time>2026-04-24T10:43:27.111Z</time></trkpt><trkpt lat="36.4063103" lon="10.606238"><ele>19.2</ele><time>2026-04-24T10:43:30.119Z</time></trkpt><trkpt lat="36.4062805" lon="10.6061436"><ele>18.8</ele><time>2026-04-24T10:43:33.105Z</time></trkpt><trkpt lat="36.4062539" lon="10.6060353"><ele>18.4</ele><time>2026-04-24T10:43:36.103Z</time></trkpt><trkpt lat="36.4062288" lon="10.6059268"><ele>18.0</ele><time>2026-04-24T10:43:38.109Z</time></trkpt><trkpt lat="36.4061949" lon="10.6058024"><ele>17.4</ele><time>2026-04-24T10:43:40.103Z</time></trkpt><trkpt lat="36.4061594" lon="10.6056666"><ele>16.8</ele><time>2026-04-24T10:43:42.115Z</time></trkpt><trkpt lat="36.40612" lon="10.6055197"><ele>16.2</ele><time>2026-04-24T10:43:44.105Z</time></trkpt><trkpt lat="36.4060991" lon="10.6054426"><ele>15.6</ele><time>2026-04-24T10:43:45.106Z</time></trkpt><trkpt lat="36.4060501" lon="10.6052929"><ele>15.0</ele><time>2026-04-24T10:43:47.114Z</time></trkpt><trkpt lat="36.4060083" lon="10.6051533"><ele>14.833333333333334</ele><time>2026-04-24T10:43:49.101Z</time></trkpt><trkpt lat="36.4059827" lon="10.605078"><ele>14.666666666666668</ele><time>2026-04-24T10:43:50.119Z</time></trkpt><trkpt lat="36.4059375" lon="10.6049406"><ele>14.5</ele><time>2026-04-24T10:43:52.105Z</time></trkpt><trkpt lat="36.4059007" lon="10.6048124"><ele>14.333333333333334</ele><time>2026-04-24T10:43:54.118Z</time></trkpt><trkpt lat="36.4058801" lon="10.6047316"><ele>14.166666666666668</ele><time>2026-04-24T10:43:57.113Z</time></trkpt><trkpt lat="36.4058632" lon="10.604653"><ele>14.0</ele><time>2026-04-24T10:44:00.097Z</time></trkpt><trkpt lat="36.4058358" lon="10.6045277"><ele>14.5</ele><time>2026-04-24T10:44:02.122Z</time></trkpt><trkpt lat="36.405813" lon="10.60438"><ele>15.0</ele><time>2026-04-24T10:44:04.103Z</time></trkpt><trkpt lat="36.4057897" lon="10.6042423"><ele>15.5</ele><time>2026-04-24T10:44:06.107Z</time></trkpt><trkpt lat="36.4057732" lon="10.6040938"><ele>16.0</ele><time>2026-04-24T10:44:08.119Z</time></trkpt><trkpt lat="36.4057567" lon="10.6039556"><ele>15.999999999999998</ele><time>2026-04-24T10:44:10.106Z</time></trkpt><trkpt lat="36.4057463" lon="10.6038329"><ele>16.0</ele><time>2026-04-24T10:44:12.098Z</time></trkpt><trkpt lat="36.4057371" lon="10.6037402"><ele>16.0</ele><time>2026-04-24T10:44:14.114Z</time></trkpt><trkpt lat="36.4057175" lon="10.6036502"><ele>16.0</ele><time>2026-04-24T10:44:21.103Z</time></trkpt><trkpt lat="36.4057015" lon="10.6035614"><ele>15.999999999999998</ele><time>2026-04-24T10:44:24.111Z</time></trkpt><trkpt lat="36.4056966" lon="10.6034823"><ele>16.0</ele><time>2026-04-24T10:44:26.107Z</time></trkpt><trkpt lat="36.4056971" lon="10.6033954"><ele>15.999999999999998</ele><time>2026-04-24T10:44:28.116Z</time></trkpt><trkpt lat="36.4056894" lon="10.6033035"><ele>16.0</ele><time>2026-04-24T10:44:30.103Z</time></trkpt><trkpt lat="36.4056864" lon="10.6031982"><ele>16.0</ele><time>2026-04-24T10:44:32.125Z</time></trkpt><trkpt lat="36.4056626" lon="10.6031016"><ele>16.0</ele><time>2026-04-24T10:44:34.11Z</time></trkpt><trkpt lat="36.4056487" lon="10.6029917"><ele>15.999999999999998</ele><time>2026-04-24T10:44:36.111Z</time></trkpt><trkpt lat="36.4056417" lon="10.6028545"><ele>16.0</ele><time>2026-04-24T10:44:38.106Z</time></trkpt><trkpt lat="36.4056289" lon="10.60271"><ele>16.0</ele><time>2026-04-24T10:44:40.142Z</time></trkpt><trkpt lat="36.4056149" lon="10.6025664"><ele>16.0</ele><time>2026-04-24T10:44:42.103Z</time></trkpt><trkpt lat="36.405601" lon="10.6024323"><ele>16.0</ele><time>2026-04-24T10:44:44.1Z</time></trkpt><trkpt lat="36.4055923" lon="10.6022987"><ele>16.0</ele><time>2026-04-24T10:44:46.105Z</time></trkpt><trkpt lat="36.4055832" lon="10.6021625"><ele>16.0</ele><time>2026-04-24T10:44:48.116Z</time></trkpt><trkpt lat="36.40558" lon="10.6020095"><ele>15.857142857142856</ele><time>2026-04-24T10:44:50.117Z</time></trkpt><trkpt lat="36.4055733" lon="10.6019231"><ele>15.714285714285712</ele><time>2026-04-24T10:44:51.141Z</time></trkpt><trkpt lat="36.4055658" lon="10.6018335"><ele>15.571428571428571</ele><time>2026-04-24T10:44:52.11Z</time></trkpt><trkpt lat="36.4055645" lon="10.6017517"><ele>15.428571428571427</ele><time>2026-04-24T10:44:53.108Z</time></trkpt><trkpt lat="36.4055607" lon="10.6016658"><ele>15.285714285714285</ele><time>2026-04-24T10:44:54.113Z</time></trkpt><trkpt lat="36.4055565" lon="10.6015787"><ele>15.142857142857142</ele><time>2026-04-24T10:44:55.103Z</time></trkpt><trkpt lat="36.4055544" lon="10.6014828"><ele>15.0</ele><time>2026-04-24T10:44:56.112Z</time></trkpt><trkpt lat="36.4055516" lon="10.6013768"><ele>15.0</ele><time>2026-04-24T10:44:57.11Z</time></trkpt><trkpt lat="36.4055526" lon="10.6012635"><ele>15.0</ele><time>2026-04-24T10:44:58.112Z</time></trkpt><trkpt lat="36.4055522" lon="10.6011539"><ele>15.0</ele><time>2026-04-24T10:44:59.114Z</time></trkpt><trkpt lat="36.4055463" lon="10.6010442"><ele>15.0</ele><time>2026-04-24T10:45:00.105Z</time></trkpt><trkpt lat="36.4055339" lon="10.6009331"><ele>15.0</ele><time>2026-04-24T10:45:01.103Z</time></trkpt><trkpt lat="36.4055297" lon="10.6008303"><ele>15.0</ele><time>2026-04-24T10:45:02.112Z</time></trkpt><trkpt lat="36.4055279" lon="10.6007274"><ele>14.571428571428571</ele><time>2026-04-24T10:45:03.105Z</time></trkpt><trkpt lat="36.4055218" lon="10.600633"><ele>14.142857142857142</ele><time>2026-04-24T10:45:04.111Z</time></trkpt><trkpt lat="36.4055138" lon="10.6005466"><ele>13.714285714285714</ele><time>2026-04-24T10:45:05.1Z</time></trkpt><trkpt lat="36.4055086" lon="10.6004653"><ele>13.285714285714285</ele><time>2026-04-24T10:45:06.12Z</time></trkpt><trkpt lat="36.4055039" lon="10.6003838"><ele>12.857142857142858</ele><time>2026-04-24T10:45:07.115Z</time></trkpt><trkpt lat="36.4055002" lon="10.6003024"><ele>12.428571428571427</ele><time>2026-04-24T10:45:08.101Z</time></trkpt><trkpt lat="36.405499" lon="10.6002158"><ele>12.0</ele><time>2026-04-24T10:45:09.098Z</time></trkpt><trkpt lat="36.4054919" lon="10.6001178"><ele>11.5</ele><time>2026-04-24T10:45:10.119Z</time></trkpt><trkpt lat="36.4054852" lon="10.6000163"><ele>11.0</ele><time>2026-04-24T10:45:11.13Z</time></trkpt><trkpt lat="36.4054765" lon="10.5999199"><ele>10.5</ele><time>2026-04-24T10:45:12.114Z</time></trkpt><trkpt lat="36.4054696" lon="10.5998175"><ele>10.0</ele><time>2026-04-24T10:45:13.101Z</time></trkpt><trkpt lat="36.4054644" lon="10.5997195"><ele>9.5</ele><time>2026-04-24T10:45:14.119Z</time></trkpt><trkpt lat="36.4054562" lon="10.5996204"><ele>9.0</ele><time>2026-04-24T10:45:15.119Z</time></trkpt><trkpt lat="36.4054543" lon="10.5995297"><ele>9.166666666666666</ele><time>2026-04-24T10:45:16.118Z</time></trkpt><trkpt lat="36.4054503" lon="10.59943"><ele>9.333333333333334</ele><time>2026-04-24T10:45:17.108Z</time></trkpt><trkpt lat="36.4054411" lon="10.5993284"><ele>9.5</ele><time>2026-04-24T10:45:18.106Z</time></trkpt><trkpt lat="36.4054352" lon="10.5992211"><ele>9.666666666666668</ele><time>2026-04-24T10:45:19.134Z</time></trkpt><trkpt lat="36.4054288" lon="10.5991172"><ele>9.833333333333334</ele><time>2026-04-24T10:45:20.113Z</time></trkpt><trkpt lat="36.4054223" lon="10.5990127"><ele>10.0</ele><time>2026-04-24T10:45:21.105Z</time></trkpt><trkpt lat="36.4054123" lon="10.5989048"><ele>10.0</ele><time>2026-04-24T10:45:22.113Z</time></trkpt><trkpt lat="36.4054032" lon="10.5988031"><ele>10.0</ele><time>2026-04-24T10:45:23.107Z</time></trkpt><trkpt lat="36.405393" lon="10.5987019"><ele>10.0</ele><time>2026-04-24T10:45:24.103Z</time></trkpt><trkpt lat="36.4053881" lon="10.5986043"><ele>10.0</ele><time>2026-04-24T10:45:25.105Z</time></trkpt><trkpt lat="36.4053845" lon="10.5985019"><ele>10.0</ele><time>2026-04-24T10:45:26.12Z</time></trkpt><trkpt lat="36.4053808" lon="10.5983946"><ele>10.0</ele><time>2026-04-24T10:45:27.105Z</time></trkpt><trkpt lat="36.4053767" lon="10.598294"><ele>10.0</ele><time>2026-04-24T10:45:28.123Z</time></trkpt><trkpt lat="36.4053736" lon="10.5981878"><ele>10.0</ele><time>2026-04-24T10:45:29.12Z</time></trkpt><trkpt lat="36.4053772" lon="10.5980926"><ele>10.0</ele><time>2026-04-24T10:45:30.124Z</time></trkpt><trkpt lat="36.4053883" lon="10.5979956"><ele>10.0</ele><time>2026-04-24T10:45:31.114Z</time></trkpt><trkpt lat="36.405392" lon="10.5978977"><ele>10.0</ele><time>2026-04-24T10:45:32.113Z</time></trkpt><trkpt lat="36.4054008" lon="10.5978008"><ele>10.0</ele><time>2026-04-24T10:45:33.098Z</time></trkpt><trkpt lat="36.4054023" lon="10.5977076"><ele>10.166666666666668</ele><time>2026-04-24T10:45:34.107Z</time></trkpt><trkpt lat="36.4054021" lon="10.5976098"><ele>10.333333333333334</ele><time>2026-04-24T10:45:35.093Z</time></trkpt><trkpt lat="36.405403" lon="10.5975179"><ele>10.5</ele><time>2026-04-24T10:45:36.103Z</time></trkpt><trkpt lat="36.4054052" lon="10.5974336"><ele>10.666666666666666</ele><time>2026-04-24T10:45:37.108Z</time></trkpt><trkpt lat="36.4054119" lon="10.5972789"><ele>10.833333333333332</ele><time>2026-04-24T10:45:39.103Z</time></trkpt><trkpt lat="36.4054168" lon="10.5971982"><ele>11.0</ele><time>2026-04-24T10:45:40.118Z</time></trkpt><trkpt lat="36.4054155" lon="10.5971029"><ele>11.0</ele><time>2026-04-24T10:45:41.102Z</time></trkpt><trkpt lat="36.405422" lon="10.597016"><ele>11.0</ele><time>2026-04-24T10:45:42.105Z</time></trkpt><trkpt lat="36.4054233" lon="10.5969112"><ele>11.0</ele><time>2026-04-24T10:45:43.104Z</time></trkpt><trkpt lat="36.4054249" lon="10.5968093"><ele>11.0</ele><time>2026-04-24T10:45:44.108Z</time></trkpt><trkpt lat="36.4054284" lon="10.5966992"><ele>11.0</ele><time>2026-04-24T10:45:45.116Z</time></trkpt><trkpt lat="36.4054282" lon="10.5965873"><ele>11.0</ele><time>2026-04-24T10:45:46.111Z</time></trkpt><trkpt lat="36.40543" lon="10.5964705"><ele>10.8</ele><time>2026-04-24T10:45:47.11Z</time></trkpt><trkpt lat="36.4054338" lon="10.5963501"><ele>10.600000000000001</ele><time>2026-04-24T10:45:48.121Z</time></trkpt><trkpt lat="36.4054314" lon="10.596225"><ele>10.4</ele><time>2026-04-24T10:45:49.109Z</time></trkpt><trkpt lat="36.4054303" lon="10.5961071"><ele>10.2</ele><time>2026-04-24T10:45:50.102Z</time></trkpt><trkpt lat="36.4054337" lon="10.5959888"><ele>10.0</ele><time>2026-04-24T10:45:51.117Z</time></trkpt><trkpt lat="36.4054372" lon="10.5958667"><ele>10.0</ele><time>2026-04-24T10:45:52.116Z</time></trkpt><trkpt lat="36.405443" lon="10.5957398"><ele>10.0</ele><time>2026-04-24T10:45:53.103Z</time></trkpt><trkpt lat="36.4054462" lon="10.5956146"><ele>10.0</ele><time>2026-04-24T10:45:54.101Z</time></trkpt><trkpt lat="36.405452" lon="10.5954823"><ele>10.0</ele><time>2026-04-24T10:45:55.101Z</time></trkpt><trkpt lat="36.4054562" lon="10.595353"><ele>10.0</ele><time>2026-04-24T10:45:56.107Z</time></trkpt><trkpt lat="36.4054576" lon="10.5952251"><ele>10.0</ele><time>2026-04-24T10:45:57.111Z</time></trkpt><trkpt lat="36.4054597" lon="10.595091"><ele>10.0</ele><time>2026-04-24T10:45:58.109Z</time></trkpt><trkpt lat="36.4054733" lon="10.5949559"><ele>10.0</ele><time>2026-04-24T10:45:59.107Z</time></trkpt><trkpt lat="36.4054878" lon="10.5948288"><ele>10.0</ele><time>2026-04-24T10:46:00.105Z</time></trkpt><trkpt lat="36.4054908" lon="10.5947033"><ele>10.0</ele><time>2026-04-24T10:46:01.103Z</time></trkpt><trkpt lat="36.4054977" lon="10.5945736"><ele>10.0</ele><time>2026-04-24T10:46:02.105Z</time></trkpt><trkpt lat="36.4055003" lon="10.5944477"><ele>10.0</ele><time>2026-04-24T10:46:03.108Z</time></trkpt><trkpt lat="36.4055095" lon="10.594325"><ele>10.0</ele><time>2026-04-24T10:46:04.108Z</time></trkpt><trkpt lat="36.4055271" lon="10.594201"><ele>10.0</ele><time>2026-04-24T10:46:05.117Z</time></trkpt><trkpt lat="36.4055421" lon="10.5940784"><ele>10.0</ele><time>2026-04-24T10:46:06.107Z</time></trkpt><trkpt lat="36.4055537" lon="10.5939444"><ele>10.0</ele><time>2026-04-24T10:46:07.114Z</time></trkpt><trkpt lat="36.4055665" lon="10.5938116"><ele>10.0</ele><time>2026-04-24T10:46:08.138Z</time></trkpt><trkpt lat="36.4055817" lon="10.593687"><ele>10.0</ele><time>2026-04-24T10:46:09.127Z</time></trkpt><trkpt lat="36.4055945" lon="10.593559"><ele>10.0</ele><time>2026-04-24T10:46:10.108Z</time></trkpt><trkpt lat="36.4056075" lon="10.5934255"><ele>10.0</ele><time>2026-04-24T10:46:11.116Z</time></trkpt><trkpt lat="36.4056185" lon="10.5932944"><ele>9.8</ele><time>2026-04-24T10:46:12.109Z</time></trkpt><trkpt lat="36.4056277" lon="10.5931643"><ele>9.6</ele><time>2026-04-24T10:46:13.112Z</time></trkpt><trkpt lat="36.405637" lon="10.5930302"><ele>9.4</ele><time>2026-04-24T10:46:14.113Z</time></trkpt><trkpt lat="36.4056452" lon="10.5928933"><ele>9.2</ele><time>2026-04-24T10:46:15.108Z</time></trkpt><trkpt lat="36.405648" lon="10.5927583"><ele>9.0</ele><time>2026-04-24T10:46:16.122Z</time></trkpt><trkpt lat="36.4056455" lon="10.592623"><ele>9.4</ele><time>2026-04-24T10:46:17.108Z</time></trkpt><trkpt lat="36.4056452" lon="10.5924908"><ele>9.8</ele><time>2026-04-24T10:46:18.144Z</time></trkpt><trkpt lat="36.4056431" lon="10.5923539"><ele>10.200000000000001</ele><time>2026-04-24T10:46:19.111Z</time></trkpt><trkpt lat="36.4056393" lon="10.5922193"><ele>10.600000000000001</ele><time>2026-04-24T10:46:20.114Z</time></trkpt><trkpt lat="36.4056357" lon="10.5920898"><ele>11.0</ele><time>2026-04-24T10:46:21.101Z</time></trkpt><trkpt lat="36.4056301" lon="10.5919636"><ele>11.0</ele><time>2026-04-24T10:46:22.112Z</time></trkpt><trkpt lat="36.4056218" lon="10.5918376"><ele>11.0</ele><time>2026-04-24T10:46:23.101Z</time></trkpt><trkpt lat="36.4056111" lon="10.5917129"><ele>11.0</ele><time>2026-04-24T10:46:24.101Z</time></trkpt><trkpt lat="36.4056" lon="10.5915888"><ele>11.0</ele><time>2026-04-24T10:46:25.106Z</time></trkpt><trkpt lat="36.4055925" lon="10.5914718"><ele>11.0</ele><time>2026-04-24T10:46:26.115Z</time></trkpt><trkpt lat="36.4055835" lon="10.5913714"><ele>11.0</ele><time>2026-04-24T10:46:27.12Z</time></trkpt><trkpt lat="36.4055759" lon="10.5912704"><ele>11.0</ele><time>2026-04-24T10:46:28.117Z</time></trkpt><trkpt lat="36.4055687" lon="10.5911736"><ele>11.0</ele><time>2026-04-24T10:46:29.105Z</time></trkpt><trkpt lat="36.405559" lon="10.5910827"><ele>11.0</ele><time>2026-04-24T10:46:30.123Z</time></trkpt><trkpt lat="36.4055446" lon="10.5909273"><ele>11.0</ele><time>2026-04-24T10:46:32.114Z</time></trkpt><trkpt lat="36.4055341" lon="10.5907851"><ele>11.166666666666666</ele><time>2026-04-24T10:46:34.111Z</time></trkpt><trkpt lat="36.4055283" lon="10.5906336"><ele>11.333333333333332</ele><time>2026-04-24T10:46:36.097Z</time></trkpt><trkpt lat="36.4055228" lon="10.5905493"><ele>11.5</ele><time>2026-04-24T10:46:37.107Z</time></trkpt><trkpt lat="36.4055178" lon="10.590463"><ele>11.666666666666666</ele><time>2026-04-24T10:46:38.114Z</time></trkpt><trkpt lat="36.405513" lon="10.5903711"><ele>11.833333333333334</ele><time>2026-04-24T10:46:39.099Z</time></trkpt><trkpt lat="36.4055064" lon="10.5902746"><ele>12.0</ele><time>2026-04-24T10:46:40.082Z</time></trkpt><trkpt lat="36.4054972" lon="10.5901835"><ele>12.666666666666666</ele><time>2026-04-24T10:46:41.118Z</time></trkpt><trkpt lat="36.4054887" lon="10.5900908"><ele>13.333333333333332</ele><time>2026-04-24T10:46:42.108Z</time></trkpt><trkpt lat="36.405476" lon="10.590001"><ele>14.0</ele><time>2026-04-24T10:46:43.101Z</time></trkpt><trkpt lat="36.4054609" lon="10.5899046"><ele>14.666666666666666</ele><time>2026-04-24T10:46:44.121Z</time></trkpt><trkpt lat="36.405447" lon="10.5898091"><ele>15.333333333333332</ele><time>2026-04-24T10:46:45.114Z</time></trkpt><trkpt lat="36.4054352" lon="10.5897127"><ele>16.0</ele><time>2026-04-24T10:46:46.108Z</time></trkpt><trkpt lat="36.4054244" lon="10.589613"><ele>15.999999999999998</ele><time>2026-04-24T10:46:47.106Z</time></trkpt><trkpt lat="36.4054217" lon="10.5895207"><ele>16.0</ele><time>2026-04-24T10:46:48.112Z</time></trkpt><trkpt lat="36.4054205" lon="10.5894274"><ele>16.0</ele><time>2026-04-24T10:46:49.105Z</time></trkpt><trkpt lat="36.4054146" lon="10.5893325"><ele>16.0</ele><time>2026-04-24T10:46:50.106Z</time></trkpt><trkpt lat="36.405405" lon="10.5892325"><ele>15.999999999999998</ele><time>2026-04-24T10:46:51.102Z</time></trkpt><trkpt lat="36.4053968" lon="10.5891403"><ele>16.0</ele><time>2026-04-24T10:46:52.103Z</time></trkpt><trkpt lat="36.4053885" lon="10.5890487"><ele>15.833333333333332</ele><time>2026-04-24T10:46:53.109Z</time></trkpt><trkpt lat="36.4053847" lon="10.5889589"><ele>15.666666666666666</ele><time>2026-04-24T10:46:54.102Z</time></trkpt><trkpt lat="36.4053785" lon="10.5888618"><ele>15.5</ele><time>2026-04-24T10:46:55.089Z</time></trkpt><trkpt lat="36.4053739" lon="10.5887633"><ele>15.333333333333332</ele><time>2026-04-24T10:46:56.112Z</time></trkpt><trkpt lat="36.4053721" lon="10.5886581"><ele>15.166666666666666</ele><time>2026-04-24T10:46:57.11Z</time></trkpt><trkpt lat="36.4053664" lon="10.588555"><ele>15.0</ele><time>2026-04-24T10:46:58.101Z</time></trkpt><trkpt lat="36.40537" lon="10.5884518"><ele>15.0</ele><time>2026-04-24T10:46:59.103Z</time></trkpt><trkpt lat="36.4053717" lon="10.5883428"><ele>15.0</ele><time>2026-04-24T10:47:00.107Z</time></trkpt><trkpt lat="36.4053743" lon="10.5882351"><ele>15.0</ele><time>2026-04-24T10:47:01.122Z</time></trkpt><trkpt lat="36.4053714" lon="10.588122"><ele>15.0</ele><time>2026-04-24T10:47:02.108Z</time></trkpt><trkpt lat="36.4053736" lon="10.5880135"><ele>15.0</ele><time>2026-04-24T10:47:03.111Z</time></trkpt><trkpt lat="36.4053787" lon="10.5879019"><ele>15.0</ele><time>2026-04-24T10:47:04.112Z</time></trkpt><trkpt lat="36.405383" lon="10.5877895"><ele>15.0</ele><time>2026-04-24T10:47:05.11Z</time></trkpt><trkpt lat="36.405388" lon="10.5876863"><ele>15.0</ele><time>2026-04-24T10:47:06.103Z</time></trkpt><trkpt lat="36.4053926" lon="10.5875849"><ele>15.0</ele><time>2026-04-24T10:47:07.111Z</time></trkpt><trkpt lat="36.4054041" lon="10.5874836"><ele>15.0</ele><time>2026-04-24T10:47:08.118Z</time></trkpt><trkpt lat="36.4054156" lon="10.5873874"><ele>15.0</ele><time>2026-04-24T10:47:09.101Z</time></trkpt><trkpt lat="36.4054275" lon="10.5872968"><ele>15.0</ele><time>2026-04-24T10:47:10.109Z</time></trkpt><trkpt lat="36.405438" lon="10.58721"><ele>15.0</ele><time>2026-04-24T10:47:11.112Z</time></trkpt><trkpt lat="36.4054477" lon="10.587129"><ele>15.0</ele><time>2026-04-24T10:47:12.111Z</time></trkpt><trkpt lat="36.4054711" lon="10.5869767"><ele>15.0</ele><time>2026-04-24T10:47:14.099Z</time></trkpt><trkpt lat="36.4054891" lon="10.5868357"><ele>15.0</ele><time>2026-04-24T10:47:16.097Z</time></trkpt><trkpt lat="36.4055089" lon="10.5866964"><ele>15.0</ele><time>2026-04-24T10:47:18.122Z</time></trkpt><trkpt lat="36.4055258" lon="10.5865507"><ele>14.2</ele><time>2026-04-24T10:47:20.111Z</time></trkpt><trkpt lat="36.4055404" lon="10.5864133"><ele>13.4</ele><time>2026-04-24T10:47:22.112Z</time></trkpt><trkpt lat="36.4055644" lon="10.5862913"><ele>12.600000000000001</ele><time>2026-04-24T10:47:24.104Z</time></trkpt><trkpt lat="36.4055855" lon="10.5861638"><ele>11.8</ele><time>2026-04-24T10:47:26.099Z</time></trkpt><trkpt lat="36.4056047" lon="10.5860296"><ele>11.0</ele><time>2026-04-24T10:47:28.096Z</time></trkpt><trkpt lat="36.4056179" lon="10.5858887"><ele>10.75</ele><time>2026-04-24T10:47:30.112Z</time></trkpt><trkpt lat="36.4056339" lon="10.5857436"><ele>10.5</ele><time>2026-04-24T10:47:32.096Z</time></trkpt><trkpt lat="36.4056591" lon="10.5856124"><ele>10.25</ele><time>2026-04-24T10:47:34.106Z</time></trkpt><trkpt lat="36.4056812" lon="10.5854616"><ele>10.0</ele><time>2026-04-24T10:47:36.111Z</time></trkpt><trkpt lat="36.4056998" lon="10.5853052"><ele>10.0</ele><time>2026-04-24T10:47:38.109Z</time></trkpt><trkpt lat="36.4057155" lon="10.5852217"><ele>10.0</ele><time>2026-04-24T10:47:39.105Z</time></trkpt><trkpt lat="36.4057296" lon="10.5851368"><ele>10.0</ele><time>2026-04-24T10:47:40.122Z</time></trkpt><trkpt lat="36.4057368" lon="10.5850552"><ele>10.0</ele><time>2026-04-24T10:47:41.111Z</time></trkpt><trkpt lat="36.4057412" lon="10.5849754"><ele>10.0</ele><time>2026-04-24T10:47:42.166Z</time></trkpt><trkpt lat="36.4057518" lon="10.5848227"><ele>10.0</ele><time>2026-04-24T10:47:44.103Z</time></trkpt><trkpt lat="36.4057659" lon="10.5846884"><ele>10.0</ele><time>2026-04-24T10:47:46.103Z</time></trkpt><trkpt lat="36.4057828" lon="10.5845683"><ele>10.0</ele><time>2026-04-24T10:47:48.116Z</time></trkpt><trkpt lat="36.4057882" lon="10.5844605"><ele>10.0</ele><time>2026-04-24T10:47:50.107Z</time></trkpt><trkpt lat="36.4058179" lon="10.5843279"><ele>10.0</ele><time>2026-04-24T10:47:52.101Z</time></trkpt><trkpt lat="36.4058494" lon="10.5841787"><ele>10.0</ele><time>2026-04-24T10:47:54.107Z</time></trkpt><trkpt lat="36.405869" lon="10.5840244"><ele>10.142857142857142</ele><time>2026-04-24T10:47:56.095Z</time></trkpt><trkpt lat="36.4058833" lon="10.5839359"><ele>10.285714285714286</ele><time>2026-04-24T10:47:57.115Z</time></trkpt><trkpt lat="36.4058926" lon="10.5838511"><ele>10.428571428571429</ele><time>2026-04-24T10:47:58.099Z</time></trkpt><trkpt lat="36.4059066" lon="10.5837643"><ele>10.571428571428571</ele><time>2026-04-24T10:47:59.121Z</time></trkpt><trkpt lat="36.4059233" lon="10.5836826"><ele>10.714285714285714</ele><time>2026-04-24T10:48:00.105Z</time></trkpt><trkpt lat="36.4059439" lon="10.5835961"><ele>10.857142857142858</ele><time>2026-04-24T10:48:01.111Z</time></trkpt><trkpt lat="36.4059628" lon="10.5835018"><ele>11.0</ele><time>2026-04-24T10:48:02.111Z</time></trkpt><trkpt lat="36.4059823" lon="10.5834007"><ele>11.0</ele><time>2026-04-24T10:48:03.11Z</time></trkpt><trkpt lat="36.4059975" lon="10.5833038"><ele>11.0</ele><time>2026-04-24T10:48:04.133Z</time></trkpt><trkpt lat="36.4060118" lon="10.5832067"><ele>11.0</ele><time>2026-04-24T10:48:05.105Z</time></trkpt><trkpt lat="36.406025" lon="10.5831018"><ele>11.0</ele><time>2026-04-24T10:48:06.118Z</time></trkpt><trkpt lat="36.4060331" lon="10.5829991"><ele>11.0</ele><time>2026-04-24T10:48:07.109Z</time></trkpt><trkpt lat="36.4060479" lon="10.5829012"><ele>11.0</ele><time>2026-04-24T10:48:08.108Z</time></trkpt><trkpt lat="36.4060605" lon="10.5828015"><ele>10.666666666666666</ele><time>2026-04-24T10:48:09.101Z</time></trkpt><trkpt lat="36.4060717" lon="10.5826999"><ele>10.333333333333332</ele><time>2026-04-24T10:48:10.092Z</time></trkpt><trkpt lat="36.4060816" lon="10.5826055"><ele>10.0</ele><time>2026-04-24T10:48:11.107Z</time></trkpt><trkpt lat="36.4060937" lon="10.5825118"><ele>9.666666666666666</ele><time>2026-04-24T10:48:12.104Z</time></trkpt><trkpt lat="36.4061068" lon="10.5824199"><ele>9.333333333333334</ele><time>2026-04-24T10:48:13.104Z</time></trkpt><trkpt lat="36.4061212" lon="10.5823244"><ele>9.0</ele><time>2026-04-24T10:48:14.107Z</time></trkpt><trkpt lat="36.4061356" lon="10.5822337"><ele>9.000000000000002</ele><time>2026-04-24T10:48:15.113Z</time></trkpt><trkpt lat="36.40615" lon="10.5821521"><ele>9.0</ele><time>2026-04-24T10:48:16.11Z</time></trkpt><trkpt lat="36.4061553" lon="10.5820719"><ele>9.0</ele><time>2026-04-24T10:48:17.106Z</time></trkpt><trkpt lat="36.4061673" lon="10.5819878"><ele>9.0</ele><time>2026-04-24T10:48:18.121Z</time></trkpt><trkpt lat="36.406178" lon="10.5819033"><ele>9.0</ele><time>2026-04-24T10:48:19.106Z</time></trkpt><trkpt lat="36.4061778" lon="10.5818134"><ele>9.000000000000002</ele><time>2026-04-24T10:48:20.116Z</time></trkpt><trkpt lat="36.4061836" lon="10.5817238"><ele>9.0</ele><time>2026-04-24T10:48:21.102Z</time></trkpt><trkpt lat="36.4061884" lon="10.5816384"><ele>9.0</ele><time>2026-04-24T10:48:22.099Z</time></trkpt><trkpt lat="36.4062066" lon="10.5814839"><ele>9.0</ele><time>2026-04-24T10:48:24.111Z</time></trkpt><trkpt lat="36.4062145" lon="10.5814015"><ele>9.0</ele><time>2026-04-24T10:48:25.105Z</time></trkpt><trkpt lat="36.406213" lon="10.581312"><ele>9.0</ele><time>2026-04-24T10:48:26.106Z</time></trkpt><trkpt lat="36.4062169" lon="10.581222"><ele>9.0</ele><time>2026-04-24T10:48:27.112Z</time></trkpt><trkpt lat="36.4062186" lon="10.5811362"><ele>9.0</ele><time>2026-04-24T10:48:28.108Z</time></trkpt><trkpt lat="36.4062174" lon="10.581042"><ele>8.833333333333334</ele><time>2026-04-24T10:48:29.106Z</time></trkpt><trkpt lat="36.4062196" lon="10.5809444"><ele>8.666666666666666</ele><time>2026-04-24T10:48:30.103Z</time></trkpt><trkpt lat="36.4062196" lon="10.5808523"><ele>8.5</ele><time>2026-04-24T10:48:31.102Z</time></trkpt><trkpt lat="36.4062174" lon="10.5807581"><ele>8.333333333333332</ele><time>2026-04-24T10:48:32.113Z</time></trkpt><trkpt lat="36.4062131" lon="10.5806588"><ele>8.166666666666666</ele><time>2026-04-24T10:48:33.122Z</time></trkpt><trkpt lat="36.4062119" lon="10.5805576"><ele>8.0</ele><time>2026-04-24T10:48:34.114Z</time></trkpt><trkpt lat="36.4062029" lon="10.5804555"><ele>7.999999999999999</ele><time>2026-04-24T10:48:35.119Z</time></trkpt><trkpt lat="36.4062008" lon="10.5803516"><ele>8.0</ele><time>2026-04-24T10:48:36.107Z</time></trkpt><trkpt lat="36.4062004" lon="10.5802476"><ele>8.0</ele><time>2026-04-24T10:48:37.111Z</time></trkpt><trkpt lat="36.4061962" lon="10.5801447"><ele>8.0</ele><time>2026-04-24T10:48:38.101Z</time></trkpt><trkpt lat="36.406191" lon="10.5800402"><ele>7.999999999999999</ele><time>2026-04-24T10:48:39.119Z</time></trkpt><trkpt lat="36.406185" lon="10.579931"><ele>8.0</ele><time>2026-04-24T10:48:40.105Z</time></trkpt><trkpt lat="36.4061788" lon="10.5798186"><ele>8.0</ele><time>2026-04-24T10:48:41.115Z</time></trkpt><trkpt lat="36.4061704" lon="10.5796991"><ele>8.0</ele><time>2026-04-24T10:48:42.102Z</time></trkpt><trkpt lat="36.4061627" lon="10.5795768"><ele>8.0</ele><time>2026-04-24T10:48:43.125Z</time></trkpt><trkpt lat="36.4061523" lon="10.5794573"><ele>8.0</ele><time>2026-04-24T10:48:44.109Z</time></trkpt><trkpt lat="36.406136" lon="10.5793364"><ele>8.0</ele><time>2026-04-24T10:48:45.108Z</time></trkpt><trkpt lat="36.4061214" lon="10.5792184"><ele>7.999999999999999</ele><time>2026-04-24T10:48:46.101Z</time></trkpt><trkpt lat="36.4061026" lon="10.579102"><ele>8.0</ele><time>2026-04-24T10:48:47.11Z</time></trkpt><trkpt lat="36.4060822" lon="10.5789869"><ele>8.0</ele><time>2026-04-24T10:48:48.111Z</time></trkpt><trkpt lat="36.4060655" lon="10.5788795"><ele>8.0</ele><time>2026-04-24T10:48:49.109Z</time></trkpt><trkpt lat="36.4060511" lon="10.5787788"><ele>7.999999999999999</ele><time>2026-04-24T10:48:50.123Z</time></trkpt><trkpt lat="36.406036" lon="10.5786759"><ele>8.0</ele><time>2026-04-24T10:48:51.107Z</time></trkpt><trkpt lat="36.4060228" lon="10.5785832"><ele>7.999999999999999</ele><time>2026-04-24T10:48:52.123Z</time></trkpt><trkpt lat="36.4060058" lon="10.5785008"><ele>8.0</ele><time>2026-04-24T10:48:53.1Z</time></trkpt><trkpt lat="36.4059905" lon="10.5784164"><ele>8.0</ele><time>2026-04-24T10:48:54.103Z</time></trkpt><trkpt lat="36.4059752" lon="10.5783354"><ele>8.0</ele><time>2026-04-24T10:48:55.104Z</time></trkpt><trkpt lat="36.4059609" lon="10.5782562"><ele>7.999999999999999</ele><time>2026-04-24T10:48:56.108Z</time></trkpt><trkpt lat="36.4059286" lon="10.5781117"><ele>8.0</ele><time>2026-04-24T10:48:58.116Z</time></trkpt><trkpt lat="36.4058905" lon="10.5779695"><ele>7.800000000000001</ele><time>2026-04-24T10:49:00.09Z</time></trkpt><trkpt lat="36.4058679" lon="10.577843"><ele>7.6000000000000005</ele><time>2026-04-24T10:49:02.107Z</time></trkpt><trkpt lat="36.4058478" lon="10.5777041"><ele>7.3999999999999995</ele><time>2026-04-24T10:49:04.101Z</time></trkpt><trkpt lat="36.4058332" lon="10.5776205"><ele>7.199999999999999</ele><time>2026-04-24T10:49:05.113Z</time></trkpt><trkpt lat="36.405817" lon="10.5774783"><ele>7.0</ele><time>2026-04-24T10:49:07.091Z</time></trkpt><trkpt lat="36.4057913" lon="10.5773341"><ele>7.0</ele><time>2026-04-24T10:49:09.103Z</time></trkpt><trkpt lat="36.4057687" lon="10.5771911"><ele>6.999999999999999</ele><time>2026-04-24T10:49:11.1Z</time></trkpt><trkpt lat="36.4057532" lon="10.5771108"><ele>6.999999999999999</ele><time>2026-04-24T10:49:12.109Z</time></trkpt><trkpt lat="36.4057427" lon="10.5770336"><ele>7.0</ele><time>2026-04-24T10:49:13.102Z</time></trkpt><trkpt lat="36.4057181" lon="10.5768918"><ele>7.0</ele><time>2026-04-24T10:49:15.095Z</time></trkpt><trkpt lat="36.4056893" lon="10.576751"><ele>6.833333333333334</ele><time>2026-04-24T10:49:17.097Z</time></trkpt><trkpt lat="36.4056598" lon="10.576595"><ele>6.666666666666667</ele><time>2026-04-24T10:49:19.104Z</time></trkpt><trkpt lat="36.4056416" lon="10.5765066"><ele>6.5</ele><time>2026-04-24T10:49:20.107Z</time></trkpt><trkpt lat="36.4056245" lon="10.5764252"><ele>6.333333333333334</ele><time>2026-04-24T10:49:21.105Z</time></trkpt><trkpt lat="36.4056165" lon="10.5763367"><ele>6.166666666666667</ele><time>2026-04-24T10:49:22.119Z</time></trkpt><trkpt lat="36.4056032" lon="10.5762522"><ele>6.0</ele><time>2026-04-24T10:49:23.118Z</time></trkpt><trkpt lat="36.4055912" lon="10.5761627"><ele>6.0</ele><time>2026-04-24T10:49:24.114Z</time></trkpt><trkpt lat="36.4055764" lon="10.5760661"><ele>6.0</ele><time>2026-04-24T10:49:25.105Z</time></trkpt><trkpt lat="36.4055571" lon="10.5759652"><ele>6.0</ele><time>2026-04-24T10:49:26.105Z</time></trkpt><trkpt lat="36.4055381" lon="10.5758598"><ele>6.0</ele><time>2026-04-24T10:49:27.108Z</time></trkpt><trkpt lat="36.4055212" lon="10.5757459"><ele>6.0</ele><time>2026-04-24T10:49:28.108Z</time></trkpt><trkpt lat="36.4055131" lon="10.5756279"><ele>6.0</ele><time>2026-04-24T10:49:29.112Z</time></trkpt><trkpt lat="36.4055041" lon="10.5754969"><ele>6.0</ele><time>2026-04-24T10:49:30.105Z</time></trkpt><trkpt lat="36.4054872" lon="10.5753487"><ele>6.0</ele><time>2026-04-24T10:49:31.104Z</time></trkpt><trkpt lat="36.4054686" lon="10.5751866"><ele>6.0</ele><time>2026-04-24T10:49:32.101Z</time></trkpt><trkpt lat="36.4054501" lon="10.5750133"><ele>6.0</ele><time>2026-04-24T10:49:33.116Z</time></trkpt><trkpt lat="36.4054307" lon="10.5748483"><ele>6.0</ele><time>2026-04-24T10:49:34.11Z</time></trkpt><trkpt lat="36.4054129" lon="10.5746948"><ele>6.0</ele><time>2026-04-24T10:49:35.113Z</time></trkpt><trkpt lat="36.4054016" lon="10.5745484"><ele>6.0</ele><time>2026-04-24T10:49:36.114Z</time></trkpt><trkpt lat="36.4053909" lon="10.5744148"><ele>6.0</ele><time>2026-04-24T10:49:37.096Z</time></trkpt><trkpt lat="36.4053811" lon="10.574282"><ele>6.0</ele><time>2026-04-24T10:49:38.113Z</time></trkpt><trkpt lat="36.4053658" lon="10.5741459"><ele>6.0</ele><time>2026-04-24T10:49:39.104Z</time></trkpt><trkpt lat="36.4053526" lon="10.5740221"><ele>6.0</ele><time>2026-04-24T10:49:40.105Z</time></trkpt><trkpt lat="36.4053427" lon="10.5738945"><ele>6.0</ele><time>2026-04-24T10:49:41.113Z</time></trkpt><trkpt lat="36.4053329" lon="10.5737733"><ele>6.0</ele><time>2026-04-24T10:49:42.114Z</time></trkpt><trkpt lat="36.4053216" lon="10.5736629"><ele>6.0</ele><time>2026-04-24T10:49:43.128Z</time></trkpt><trkpt lat="36.4053119" lon="10.5735554"><ele>6.0</ele><time>2026-04-24T10:49:44.115Z</time></trkpt><trkpt lat="36.4053045" lon="10.5734502"><ele>6.0</ele><time>2026-04-24T10:49:45.118Z</time></trkpt><trkpt lat="36.4052972" lon="10.5733468"><ele>6.0</ele><time>2026-04-24T10:49:46.11Z</time></trkpt><trkpt lat="36.405287" lon="10.5732392"><ele>6.0</ele><time>2026-04-24T10:49:47.106Z</time></trkpt><trkpt lat="36.4052808" lon="10.5731532"><ele>6.0</ele><time>2026-04-24T10:49:48.097Z</time></trkpt><trkpt lat="36.4052722" lon="10.5730692"><ele>6.0</ele><time>2026-04-24T10:49:49.112Z</time></trkpt><trkpt lat="36.405263" lon="10.5729232"><ele>6.0</ele><time>2026-04-24T10:49:51.114Z</time></trkpt><trkpt lat="36.4052651" lon="10.5728379"><ele>6.0</ele><time>2026-04-24T10:49:52.105Z</time></trkpt><trkpt lat="36.4052763" lon="10.572737"><ele>6.0</ele><time>2026-04-24T10:49:53.104Z</time></trkpt><trkpt lat="36.4052964" lon="10.5726396"><ele>6.0</ele><time>2026-04-24T10:49:54.113Z</time></trkpt><trkpt lat="36.4053166" lon="10.5725403"><ele>6.0</ele><time>2026-04-24T10:49:55.11Z</time></trkpt><trkpt lat="36.4053403" lon="10.5724367"><ele>6.0</ele><time>2026-04-24T10:49:56.13Z</time></trkpt><trkpt lat="36.4053749" lon="10.5723328"><ele>6.0</ele><time>2026-04-24T10:49:57.13Z</time></trkpt><trkpt lat="36.4054122" lon="10.5722284"><ele>6.0</ele><time>2026-04-24T10:49:58.124Z</time></trkpt><trkpt lat="36.4054425" lon="10.5721239"><ele>6.0</ele><time>2026-04-24T10:49:59.108Z</time></trkpt><trkpt lat="36.40547" lon="10.5720199"><ele>6.0</ele><time>2026-04-24T10:50:00.091Z</time></trkpt><trkpt lat="36.4055124" lon="10.5719174"><ele>6.199999999999999</ele><time>2026-04-24T10:50:01.105Z</time></trkpt><trkpt lat="36.4055523" lon="10.5718112"><ele>6.3999999999999995</ele><time>2026-04-24T10:50:02.111Z</time></trkpt><trkpt lat="36.4055937" lon="10.5716989"><ele>6.6</ele><time>2026-04-24T10:50:03.11Z</time></trkpt><trkpt lat="36.4056335" lon="10.5715826"><ele>6.8</ele><time>2026-04-24T10:50:04.107Z</time></trkpt><trkpt lat="36.4056766" lon="10.5714628"><ele>7.0</ele><time>2026-04-24T10:50:05.112Z</time></trkpt><trkpt lat="36.405717" lon="10.5713387"><ele>7.0</ele><time>2026-04-24T10:50:06.109Z</time></trkpt><trkpt lat="36.4057557" lon="10.5712077"><ele>7.0</ele><time>2026-04-24T10:50:07.125Z</time></trkpt><trkpt lat="36.4057959" lon="10.5710749"><ele>7.0</ele><time>2026-04-24T10:50:08.092Z</time></trkpt><trkpt lat="36.4058314" lon="10.5709312"><ele>7.0</ele><time>2026-04-24T10:50:09.1Z</time></trkpt><trkpt lat="36.405865" lon="10.5707918"><ele>7.0</ele><time>2026-04-24T10:50:10.097Z</time></trkpt><trkpt lat="36.4058991" lon="10.5706451"><ele>7.0</ele><time>2026-04-24T10:50:11.106Z</time></trkpt><trkpt lat="36.4059294" lon="10.570501"><ele>7.0</ele><time>2026-04-24T10:50:12.115Z</time></trkpt><trkpt lat="36.4059545" lon="10.5703554"><ele>7.0</ele><time>2026-04-24T10:50:13.103Z</time></trkpt><trkpt lat="36.4059757" lon="10.5702054"><ele>7.25</ele><time>2026-04-24T10:50:14.107Z</time></trkpt><trkpt lat="36.4059825" lon="10.5700549"><ele>7.5</ele><time>2026-04-24T10:50:15.108Z</time></trkpt><trkpt lat="36.4059936" lon="10.5699025"><ele>7.75</ele><time>2026-04-24T10:50:16.112Z</time></trkpt><trkpt lat="36.4060008" lon="10.569747"><ele>8.0</ele><time>2026-04-24T10:50:17.103Z</time></trkpt><trkpt lat="36.4060035" lon="10.5695933"><ele>8.0</ele><time>2026-04-24T10:50:18.097Z</time></trkpt><trkpt lat="36.4060006" lon="10.5694468"><ele>8.0</ele><time>2026-04-24T10:50:19.119Z</time></trkpt><trkpt lat="36.4059964" lon="10.569299"><ele>8.0</ele><time>2026-04-24T10:50:20.096Z</time></trkpt><trkpt lat="36.4059843" lon="10.5691549"><ele>8.0</ele><time>2026-04-24T10:50:21.107Z</time></trkpt><trkpt lat="36.4059749" lon="10.5690181"><ele>8.0</ele><time>2026-04-24T10:50:22.11Z</time></trkpt><trkpt lat="36.4059618" lon="10.5688791"><ele>8.0</ele><time>2026-04-24T10:50:23.126Z</time></trkpt><trkpt lat="36.40595" lon="10.5687367"><ele>8.0</ele><time>2026-04-24T10:50:24.109Z</time></trkpt><trkpt lat="36.4059376" lon="10.5686028"><ele>8.0</ele><time>2026-04-24T10:50:25.107Z</time></trkpt><trkpt lat="36.4059232" lon="10.5684829"><ele>8.0</ele><time>2026-04-24T10:50:26.121Z</time></trkpt><trkpt lat="36.4059092" lon="10.5683641"><ele>8.5</ele><time>2026-04-24T10:50:27.1Z</time></trkpt><trkpt lat="36.405893" lon="10.5682572"><ele>9.0</ele><time>2026-04-24T10:50:28.124Z</time></trkpt><trkpt lat="36.4058815" lon="10.5681546"><ele>9.5</ele><time>2026-04-24T10:50:29.112Z</time></trkpt><trkpt lat="36.4058737" lon="10.5680591"><ele>10.0</ele><time>2026-04-24T10:50:30.13Z</time></trkpt><trkpt lat="36.4058659" lon="10.5679592"><ele>10.5</ele><time>2026-04-24T10:50:31.171Z</time></trkpt><trkpt lat="36.405852" lon="10.5678422"><ele>11.0</ele><time>2026-04-24T10:50:32.113Z</time></trkpt><trkpt lat="36.4058374" lon="10.5677112"><ele>11.5</ele><time>2026-04-24T10:50:33.114Z</time></trkpt><trkpt lat="36.4058139" lon="10.5675722"><ele>12.0</ele><time>2026-04-24T10:50:34.12Z</time></trkpt><trkpt lat="36.4057906" lon="10.5674224"><ele>12.5</ele><time>2026-04-24T10:50:35.116Z</time></trkpt><trkpt lat="36.4057777" lon="10.567276"><ele>13.0</ele><time>2026-04-24T10:50:36.105Z</time></trkpt><trkpt lat="36.40576" lon="10.5671391"><ele>13.600000000000001</ele><time>2026-04-24T10:50:37.102Z</time></trkpt><trkpt lat="36.4057402" lon="10.5670072"><ele>14.200000000000001</ele><time>2026-04-24T10:50:38.109Z</time></trkpt><trkpt lat="36.405724" lon="10.5668861"><ele>14.8</ele><time>2026-04-24T10:50:39.124Z</time></trkpt><trkpt lat="36.4057121" lon="10.5667615"><ele>15.4</ele><time>2026-04-24T10:50:40.103Z</time></trkpt><trkpt lat="36.4056949" lon="10.5666434"><ele>16.0</ele><time>2026-04-24T10:50:41.108Z</time></trkpt><trkpt lat="36.4056806" lon="10.5665363"><ele>15.999999999999998</ele><time>2026-04-24T10:50:42.108Z</time></trkpt><trkpt lat="36.405663" lon="10.5664239"><ele>16.0</ele><time>2026-04-24T10:50:43.107Z</time></trkpt><trkpt lat="36.4056492" lon="10.5663197"><ele>16.0</ele><time>2026-04-24T10:50:44.103Z</time></trkpt><trkpt lat="36.4056336" lon="10.5662152"><ele>16.0</ele><time>2026-04-24T10:50:45.104Z</time></trkpt><trkpt lat="36.4056173" lon="10.5661092"><ele>15.999999999999998</ele><time>2026-04-24T10:50:46.109Z</time></trkpt><trkpt lat="36.4055982" lon="10.566009"><ele>16.0</ele><time>2026-04-24T10:50:47.125Z</time></trkpt><trkpt lat="36.4055782" lon="10.5659079"><ele>15.999999999999998</ele><time>2026-04-24T10:50:48.124Z</time></trkpt><trkpt lat="36.4055577" lon="10.5658127"><ele>16.0</ele><time>2026-04-24T10:50:49.11Z</time></trkpt><trkpt lat="36.4055376" lon="10.5657178"><ele>16.0</ele><time>2026-04-24T10:50:50.114Z</time></trkpt><trkpt lat="36.4055234" lon="10.5656192"><ele>16.0</ele><time>2026-04-24T10:50:51.102Z</time></trkpt><trkpt lat="36.4055083" lon="10.5655169"><ele>15.999999999999998</ele><time>2026-04-24T10:50:52.105Z</time></trkpt><trkpt lat="36.4054907" lon="10.5654157"><ele>16.0</ele><time>2026-04-24T10:50:53.108Z</time></trkpt><trkpt lat="36.4054733" lon="10.5653124"><ele>15.999999999999998</ele><time>2026-04-24T10:50:54.112Z</time></trkpt><trkpt lat="36.4054575" lon="10.5652088"><ele>16.0</ele><time>2026-04-24T10:50:55.107Z</time></trkpt><trkpt lat="36.4054393" lon="10.5650991"><ele>16.0</ele><time>2026-04-24T10:50:56.112Z</time></trkpt><trkpt lat="36.4054219" lon="10.5649887"><ele>16.0</ele><time>2026-04-24T10:50:57.109Z</time></trkpt><trkpt lat="36.4054092" lon="10.5648841"><ele>15.999999999999998</ele><time>2026-04-24T10:50:58.108Z</time></trkpt><trkpt lat="36.4053926" lon="10.5647828"><ele>16.0</ele><time>2026-04-24T10:50:59.117Z</time></trkpt><trkpt lat="36.4053746" lon="10.5646805"><ele>16.0</ele><time>2026-04-24T10:51:00.107Z</time></trkpt><trkpt lat="36.405361" lon="10.5645853"><ele>15.999999999999998</ele><time>2026-04-24T10:51:01.103Z</time></trkpt><trkpt lat="36.4053466" lon="10.5644875"><ele>16.0</ele><time>2026-04-24T10:51:02.116Z</time></trkpt><trkpt lat="36.4053278" lon="10.5643968"><ele>16.0</ele><time>2026-04-24T10:51:03.097Z</time></trkpt><trkpt lat="36.4053122" lon="10.5643016"><ele>15.999999999999998</ele><time>2026-04-24T10:51:04.107Z</time></trkpt><trkpt lat="36.4052995" lon="10.5642189"><ele>16.0</ele><time>2026-04-24T10:51:05.112Z</time></trkpt><trkpt lat="36.4052865" lon="10.5641417"><ele>16.0</ele><time>2026-04-24T10:51:06.12Z</time></trkpt><trkpt lat="36.4052653" lon="10.5640038"><ele>16.333333333333332</ele><time>2026-04-24T10:51:08.118Z</time></trkpt><trkpt lat="36.405247" lon="10.5638809"><ele>16.666666666666664</ele><time>2026-04-24T10:51:10.091Z</time></trkpt><trkpt lat="36.4052273" lon="10.5637718"><ele>17.0</ele><time>2026-04-24T10:51:12.1Z</time></trkpt><trkpt lat="36.4052159" lon="10.5636688"><ele>17.333333333333332</ele><time>2026-04-24T10:51:14.117Z</time></trkpt><trkpt lat="36.4051964" lon="10.5635756"><ele>17.666666666666668</ele><time>2026-04-24T10:51:17.107Z</time></trkpt><trkpt lat="36.4051926" lon="10.5634975"><ele>18.0</ele><time>2026-04-24T10:51:21.115Z</time></trkpt><trkpt lat="36.405166" lon="10.5633778"><ele>18.2</ele><time>2026-04-24T10:51:26.103Z</time></trkpt><trkpt lat="36.4051449" lon="10.5632811"><ele>18.4</ele><time>2026-04-24T10:51:28.101Z</time></trkpt><trkpt lat="36.4051233" lon="10.5631677"><ele>18.599999999999998</ele><time>2026-04-24T10:51:30.1Z</time></trkpt><trkpt lat="36.4051112" lon="10.5630467"><ele>18.8</ele><time>2026-04-24T10:51:32.115Z</time></trkpt><trkpt lat="36.4050941" lon="10.5629256"><ele>19.0</ele><time>2026-04-24T10:51:34.112Z</time></trkpt><trkpt lat="36.4050736" lon="10.5628046"><ele>19.0</ele><time>2026-04-24T10:51:36.098Z</time></trkpt><trkpt lat="36.4050511" lon="10.5626775"><ele>19.0</ele><time>2026-04-24T10:51:38.108Z</time></trkpt><trkpt lat="36.4050289" lon="10.5625559"><ele>19.0</ele><time>2026-04-24T10:51:40.091Z</time></trkpt><trkpt lat="36.4050115" lon="10.562415"><ele>19.0</ele><time>2026-04-24T10:51:42.11Z</time></trkpt><trkpt lat="36.404987" lon="10.5622546"><ele>19.0</ele><time>2026-04-24T10:51:44.092Z</time></trkpt><trkpt lat="36.4049748" lon="10.5621731"><ele>19.0</ele><time>2026-04-24T10:51:45.099Z</time></trkpt><trkpt lat="36.4049572" lon="10.5620917"><ele>19.0</ele><time>2026-04-24T10:51:46.099Z</time></trkpt><trkpt lat="36.4049488" lon="10.5620092"><ele>19.0</ele><time>2026-04-24T10:51:47.094Z</time></trkpt><trkpt lat="36.4049373" lon="10.5619233"><ele>19.0</ele><time>2026-04-24T10:51:48.099Z</time></trkpt><trkpt lat="36.4049298" lon="10.5618401"><ele>19.0</ele><time>2026-04-24T10:51:49.107Z</time></trkpt><trkpt lat="36.4049232" lon="10.5617544"><ele>19.0</ele><time>2026-04-24T10:51:50.122Z</time></trkpt><trkpt lat="36.4049167" lon="10.5616712"><ele>19.0</ele><time>2026-04-24T10:51:51.103Z</time></trkpt><trkpt lat="36.4049026" lon="10.56159"><ele>19.0</ele><time>2026-04-24T10:51:52.097Z</time></trkpt><trkpt lat="36.404892" lon="10.5615076"><ele>19.0</ele><time>2026-04-24T10:51:53.101Z</time></trkpt><trkpt lat="36.4048825" lon="10.5613662"><ele>19.0</ele><time>2026-04-24T10:51:55.105Z</time></trkpt><trkpt lat="36.4048681" lon="10.5612499"><ele>19.0</ele><time>2026-04-24T10:51:57.117Z</time></trkpt><trkpt lat="36.4048561" lon="10.5611609"><ele>19.0</ele><time>2026-04-24T10:51:59.093Z</time></trkpt><trkpt lat="36.4048594" lon="10.5610796"><ele>18.71428571428571</ele><time>2026-04-24T10:52:02.099Z</time></trkpt><trkpt lat="36.4048538" lon="10.5609802"><ele>18.42857142857143</ele><time>2026-04-24T10:52:06.111Z</time></trkpt><trkpt lat="36.4048535" lon="10.5608917"><ele>18.142857142857142</ele><time>2026-04-24T10:52:08.099Z</time></trkpt><trkpt lat="36.4048509" lon="10.5608049"><ele>17.857142857142854</ele><time>2026-04-24T10:52:10.117Z</time></trkpt><trkpt lat="36.4048398" lon="10.5607279"><ele>17.57142857142857</ele><time>2026-04-24T10:52:12.105Z</time></trkpt><trkpt lat="36.4048281" lon="10.5606498"><ele>17.285714285714285</ele><time>2026-04-24T10:52:14.126Z</time></trkpt><trkpt lat="36.4048415" lon="10.5605611"><ele>17.0</ele><time>2026-04-24T10:52:17.099Z</time></trkpt><trkpt lat="36.4048604" lon="10.5604846"><ele>17.0</ele><time>2026-04-24T10:52:25.106Z</time></trkpt><trkpt lat="36.4048903" lon="10.5604093"><ele>17.0</ele><time>2026-04-24T10:52:30.107Z</time></trkpt><trkpt lat="36.4049235" lon="10.5602992"><ele>17.0</ele><time>2026-04-24T10:52:34.135Z</time></trkpt><trkpt lat="36.4049206" lon="10.5601991"><ele>17.0</ele><time>2026-04-24T10:52:36.134Z</time></trkpt><trkpt lat="36.4048774" lon="10.5601055"><ele>17.0</ele><time>2026-04-24T10:52:38.107Z</time></trkpt><trkpt lat="36.404854" lon="10.5599791"><ele>17.0</ele><time>2026-04-24T10:52:40.098Z</time></trkpt><trkpt lat="36.4048423" lon="10.5598147"><ele>16.833333333333336</ele><time>2026-04-24T10:52:42.123Z</time></trkpt><trkpt lat="36.4048418" lon="10.5597273"><ele>16.666666666666668</ele><time>2026-04-24T10:52:43.101Z</time></trkpt><trkpt lat="36.4048413" lon="10.5596311"><ele>16.5</ele><time>2026-04-24T10:52:44.102Z</time></trkpt><trkpt lat="36.404842" lon="10.5595392"><ele>16.333333333333332</ele><time>2026-04-24T10:52:45.115Z</time></trkpt><trkpt lat="36.4048386" lon="10.5594398"><ele>16.166666666666664</ele><time>2026-04-24T10:52:46.095Z</time></trkpt><trkpt lat="36.4048376" lon="10.5593402"><ele>16.0</ele><time>2026-04-24T10:52:47.092Z</time></trkpt><trkpt lat="36.404836" lon="10.5592359"><ele>15.999999999999998</ele><time>2026-04-24T10:52:48.151Z</time></trkpt><trkpt lat="36.404839" lon="10.5591352"><ele>16.0</ele><time>2026-04-24T10:52:49.091Z</time></trkpt><trkpt lat="36.40484" lon="10.5590291"><ele>16.0</ele><time>2026-04-24T10:52:50.096Z</time></trkpt><trkpt lat="36.4048456" lon="10.558914"><ele>16.0</ele><time>2026-04-24T10:52:51.108Z</time></trkpt><trkpt lat="36.4048499" lon="10.5587999"><ele>15.999999999999998</ele><time>2026-04-24T10:52:52.1Z</time></trkpt><trkpt lat="36.4048514" lon="10.5586895"><ele>16.0</ele><time>2026-04-24T10:52:53.097Z</time></trkpt><trkpt lat="36.4048575" lon="10.5585813"><ele>15.499999999999998</ele><time>2026-04-24T10:52:54.113Z</time></trkpt><trkpt lat="36.4048664" lon="10.5584746"><ele>15.0</ele><time>2026-04-24T10:52:55.107Z</time></trkpt><trkpt lat="36.4048689" lon="10.5583661"><ele>14.5</ele><time>2026-04-24T10:52:56.108Z</time></trkpt><trkpt lat="36.4048711" lon="10.5582579"><ele>14.0</ele><time>2026-04-24T10:52:57.097Z</time></trkpt><trkpt lat="36.40487" lon="10.558156"><ele>13.499999999999998</ele><time>2026-04-24T10:52:58.105Z</time></trkpt><trkpt lat="36.4048746" lon="10.5580477"><ele>13.0</ele><time>2026-04-24T10:52:59.115Z</time></trkpt><trkpt lat="36.4048744" lon="10.5579399"><ele>13.0</ele><time>2026-04-24T10:53:00.095Z</time></trkpt><trkpt lat="36.4048762" lon="10.5578294"><ele>13.0</ele><time>2026-04-24T10:53:01.106Z</time></trkpt><trkpt lat="36.4048741" lon="10.5577146"><ele>13.0</ele><time>2026-04-24T10:53:02.115Z</time></trkpt><trkpt lat="36.4048724" lon="10.5576005"><ele>13.0</ele><time>2026-04-24T10:53:03.104Z</time></trkpt><trkpt lat="36.404875" lon="10.5574751"><ele>13.0</ele><time>2026-04-24T10:53:04.111Z</time></trkpt><trkpt lat="36.4048744" lon="10.5573593"><ele>12.999999999999998</ele><time>2026-04-24T10:53:05.111Z</time></trkpt><trkpt lat="36.4048749" lon="10.5572552"><ele>13.0</ele><time>2026-04-24T10:53:06.12Z</time></trkpt><trkpt lat="36.4048813" lon="10.5571627"><ele>13.0</ele><time>2026-04-24T10:53:07.104Z</time></trkpt><trkpt lat="36.4048926" lon="10.5570756"><ele>13.0</ele><time>2026-04-24T10:53:08.121Z</time></trkpt><trkpt lat="36.4049032" lon="10.5569819"><ele>12.999999999999998</ele><time>2026-04-24T10:53:09.107Z</time></trkpt><trkpt lat="36.4049152" lon="10.5568643"><ele>13.0</ele><time>2026-04-24T10:53:10.112Z</time></trkpt><trkpt lat="36.4049285" lon="10.5567299"><ele>13.0</ele><time>2026-04-24T10:53:11.136Z</time></trkpt><trkpt lat="36.4049468" lon="10.5565771"><ele>13.0</ele><time>2026-04-24T10:53:12.116Z</time></trkpt><trkpt lat="36.4049674" lon="10.5564153"><ele>13.0</ele><time>2026-04-24T10:53:13.103Z</time></trkpt><trkpt lat="36.4049928" lon="10.5562492"><ele>13.0</ele><time>2026-04-24T10:53:14.115Z</time></trkpt><trkpt lat="36.4050212" lon="10.5560839"><ele>13.25</ele><time>2026-04-24T10:53:15.107Z</time></trkpt><trkpt lat="36.4050475" lon="10.5559174"><ele>13.5</ele><time>2026-04-24T10:53:16.101Z</time></trkpt><trkpt lat="36.4050753" lon="10.5557493"><ele>13.75</ele><time>2026-04-24T10:53:17.12Z</time></trkpt><trkpt lat="36.4051055" lon="10.5555937"><ele>14.0</ele><time>2026-04-24T10:53:18.11Z</time></trkpt><trkpt lat="36.4051352" lon="10.5554516"><ele>13.75</ele><time>2026-04-24T10:53:19.112Z</time></trkpt><trkpt lat="36.4051677" lon="10.5552994"><ele>13.5</ele><time>2026-04-24T10:53:20.13Z</time></trkpt><trkpt lat="36.4052034" lon="10.5551564"><ele>13.25</ele><time>2026-04-24T10:53:21.1Z</time></trkpt><trkpt lat="36.4052384" lon="10.5550203"><ele>13.0</ele><time>2026-04-24T10:53:22.111Z</time></trkpt><trkpt lat="36.4052711" lon="10.5548874"><ele>13.0</ele><time>2026-04-24T10:53:23.113Z</time></trkpt><trkpt lat="36.4053082" lon="10.5547536"><ele>13.0</ele><time>2026-04-24T10:53:24.108Z</time></trkpt><trkpt lat="36.4053383" lon="10.5546216"><ele>13.0</ele><time>2026-04-24T10:53:25.106Z</time></trkpt><trkpt lat="36.4053666" lon="10.5545016"><ele>13.0</ele><time>2026-04-24T10:53:26.115Z</time></trkpt><trkpt lat="36.4053918" lon="10.5543913"><ele>13.0</ele><time>2026-04-24T10:53:27.132Z</time></trkpt><trkpt lat="36.405423" lon="10.5542895"><ele>13.0</ele><time>2026-04-24T10:53:28.117Z</time></trkpt><trkpt lat="36.4054513" lon="10.5541865"><ele>13.0</ele><time>2026-04-24T10:53:29.118Z</time></trkpt><trkpt lat="36.4054831" lon="10.5540805"><ele>13.0</ele><time>2026-04-24T10:53:30.108Z</time></trkpt><trkpt lat="36.4055168" lon="10.5539767"><ele>13.0</ele><time>2026-04-24T10:53:31.109Z</time></trkpt><trkpt lat="36.4055551" lon="10.5538648"><ele>13.0</ele><time>2026-04-24T10:53:32.127Z</time></trkpt><trkpt lat="36.4056103" lon="10.5537611"><ele>13.2</ele><time>2026-04-24T10:53:33.122Z</time></trkpt><trkpt lat="36.4056727" lon="10.5536636"><ele>13.4</ele><time>2026-04-24T10:53:34.118Z</time></trkpt><trkpt lat="36.4057424" lon="10.5535812"><ele>13.599999999999998</ele><time>2026-04-24T10:53:35.112Z</time></trkpt><trkpt lat="36.4058159" lon="10.5535057"><ele>13.799999999999999</ele><time>2026-04-24T10:53:36.106Z</time></trkpt><trkpt lat="36.4058841" lon="10.5534435"><ele>14.0</ele><time>2026-04-24T10:53:37.105Z</time></trkpt><trkpt lat="36.4059468" lon="10.5533934"><ele>14.0</ele><time>2026-04-24T10:53:38.111Z</time></trkpt><trkpt lat="36.4060256" lon="10.5533013"><ele>13.999999999999998</ele><time>2026-04-24T10:53:40.129Z</time></trkpt><trkpt lat="36.4060768" lon="10.553239"><ele>13.999999999999998</ele><time>2026-04-24T10:53:42.131Z</time></trkpt><trkpt lat="36.4061327" lon="10.5531517"><ele>14.0</ele><time>2026-04-24T10:53:48.109Z</time></trkpt><trkpt lat="36.4061665" lon="10.5530798"><ele>14.0</ele><time>2026-04-24T10:53:49.11Z</time></trkpt><trkpt lat="36.4061996" lon="10.552944"><ele>14.2</ele><time>2026-04-24T10:53:51.107Z</time></trkpt><trkpt lat="36.4061353" lon="10.5528438"><ele>14.399999999999999</ele><time>2026-04-24T10:53:53.104Z</time></trkpt><trkpt lat="36.4060652" lon="10.5528194"><ele>14.6</ele><time>2026-04-24T10:53:54.109Z</time></trkpt><trkpt lat="36.4059747" lon="10.5528133"><ele>14.8</ele><time>2026-04-24T10:53:55.117Z</time></trkpt><trkpt lat="36.4058722" lon="10.5528115"><ele>15.0</ele><time>2026-04-24T10:53:56.109Z</time></trkpt><trkpt lat="36.405748" lon="10.5528199"><ele>15.0</ele><time>2026-04-24T10:53:57.104Z</time></trkpt><trkpt lat="36.4056185" lon="10.5528288"><ele>15.0</ele><time>2026-04-24T10:53:58.118Z</time></trkpt><trkpt lat="36.4055023" lon="10.5528325"><ele>15.0</ele><time>2026-04-24T10:53:59.101Z</time></trkpt><trkpt lat="36.4053949" lon="10.5528055"><ele>15.0</ele><time>2026-04-24T10:54:00.104Z</time></trkpt><trkpt lat="36.4052965" lon="10.552757"><ele>14.8</ele><time>2026-04-24T10:54:01.116Z</time></trkpt><trkpt lat="36.4052241" lon="10.552697"><ele>14.6</ele><time>2026-04-24T10:54:02.116Z</time></trkpt><trkpt lat="36.4051528" lon="10.5526063"><ele>14.399999999999999</ele><time>2026-04-24T10:54:03.107Z</time></trkpt><trkpt lat="36.4050897" lon="10.5525229"><ele>14.2</ele><time>2026-04-24T10:54:04.115Z</time></trkpt><trkpt lat="36.4050362" lon="10.5524218"><ele>14.0</ele><time>2026-04-24T10:54:05.114Z</time></trkpt><trkpt lat="36.4050023" lon="10.5523118"><ele>14.0</ele><time>2026-04-24T10:54:06.122Z</time></trkpt><trkpt lat="36.4049915" lon="10.5521937"><ele>13.999999999999998</ele><time>2026-04-24T10:54:07.105Z</time></trkpt><trkpt lat="36.4049871" lon="10.5520754"><ele>13.999999999999998</ele><time>2026-04-24T10:54:08.099Z</time></trkpt><trkpt lat="36.4049876" lon="10.5519576"><ele>14.0</ele><time>2026-04-24T10:54:09.103Z</time></trkpt><trkpt lat="36.4049928" lon="10.5518481"><ele>14.0</ele><time>2026-04-24T10:54:10.105Z</time></trkpt><trkpt lat="36.404991" lon="10.5517398"><ele>14.000000000000002</ele><time>2026-04-24T10:54:11.114Z</time></trkpt><trkpt lat="36.4049853" lon="10.5516375"><ele>14.0</ele><time>2026-04-24T10:54:12.112Z</time></trkpt><trkpt lat="36.4049826" lon="10.5515323"><ele>14.0</ele><time>2026-04-24T10:54:13.098Z</time></trkpt><trkpt lat="36.4049822" lon="10.5514343"><ele>14.0</ele><time>2026-04-24T10:54:14.112Z</time></trkpt><trkpt lat="36.4049871" lon="10.5513331"><ele>14.000000000000002</ele><time>2026-04-24T10:54:15.101Z</time></trkpt><trkpt lat="36.404997" lon="10.5512383"><ele>14.0</ele><time>2026-04-24T10:54:16.11Z</time></trkpt><trkpt lat="36.405006" lon="10.5511331"><ele>14.000000000000002</ele><time>2026-04-24T10:54:17.114Z</time></trkpt><trkpt lat="36.4050175" lon="10.5510338"><ele>14.0</ele><time>2026-04-24T10:54:18.1Z</time></trkpt><trkpt lat="36.4050303" lon="10.5509334"><ele>14.0</ele><time>2026-04-24T10:54:19.091Z</time></trkpt><trkpt lat="36.4050493" lon="10.5508346"><ele>14.0</ele><time>2026-04-24T10:54:20.165Z</time></trkpt><trkpt lat="36.4050662" lon="10.5507329"><ele>14.000000000000002</ele><time>2026-04-24T10:54:21.103Z</time></trkpt><trkpt lat="36.405085" lon="10.5506345"><ele>14.0</ele><time>2026-04-24T10:54:22.103Z</time></trkpt><trkpt lat="36.4051071" lon="10.5505443"><ele>14.000000000000002</ele><time>2026-04-24T10:54:23.106Z</time></trkpt><trkpt lat="36.4051273" lon="10.5504584"><ele>14.0</ele><time>2026-04-24T10:54:24.107Z</time></trkpt><trkpt lat="36.4051508" lon="10.5503606"><ele>14.0</ele><time>2026-04-24T10:54:25.102Z</time></trkpt><trkpt lat="36.4051737" lon="10.5502567"><ele>14.0</ele><time>2026-04-24T10:54:26.129Z</time></trkpt><trkpt lat="36.4051921" lon="10.5501476"><ele>14.000000000000002</ele><time>2026-04-24T10:54:27.113Z</time></trkpt><trkpt lat="36.4052175" lon="10.5500466"><ele>14.0</ele><time>2026-04-24T10:54:28.106Z</time></trkpt><trkpt lat="36.4052415" lon="10.5499481"><ele>14.000000000000002</ele><time>2026-04-24T10:54:29.106Z</time></trkpt><trkpt lat="36.405265" lon="10.5498503"><ele>14.0</ele><time>2026-04-24T10:54:30.108Z</time></trkpt><trkpt lat="36.4052863" lon="10.5497483"><ele>14.0</ele><time>2026-04-24T10:54:31.11Z</time></trkpt><trkpt lat="36.4053075" lon="10.5496589"><ele>14.0</ele><time>2026-04-24T10:54:32.116Z</time></trkpt><trkpt lat="36.4053333" lon="10.5495682"><ele>14.000000000000002</ele><time>2026-04-24T10:54:33.113Z</time></trkpt><trkpt lat="36.4053574" lon="10.5494818"><ele>14.0</ele><time>2026-04-24T10:54:34.107Z</time></trkpt><trkpt lat="36.4053785" lon="10.5493871"><ele>14.0</ele><time>2026-04-24T10:54:35.12Z</time></trkpt><trkpt lat="36.4054021" lon="10.5492903"><ele>13.999999999999998</ele><time>2026-04-24T10:54:36.112Z</time></trkpt><trkpt lat="36.4054319" lon="10.5491807"><ele>13.999999999999998</ele><time>2026-04-24T10:54:37.107Z</time></trkpt><trkpt lat="36.4054643" lon="10.5490671"><ele>14.0</ele><time>2026-04-24T10:54:38.111Z</time></trkpt><trkpt lat="36.4054946" lon="10.5489362"><ele>14.0</ele><time>2026-04-24T10:54:39.101Z</time></trkpt><trkpt lat="36.4055285" lon="10.5488011"><ele>14.0</ele><time>2026-04-24T10:54:40.103Z</time></trkpt><trkpt lat="36.4055603" lon="10.548667"><ele>13.999999999999998</ele><time>2026-04-24T10:54:41.099Z</time></trkpt><trkpt lat="36.4055936" lon="10.5485376"><ele>13.999999999999998</ele><time>2026-04-24T10:54:42.101Z</time></trkpt><trkpt lat="36.4056237" lon="10.5484143"><ele>14.0</ele><time>2026-04-24T10:54:43.112Z</time></trkpt><trkpt lat="36.405654" lon="10.5482973"><ele>14.0</ele><time>2026-04-24T10:54:44.112Z</time></trkpt><trkpt lat="36.4056807" lon="10.5481823"><ele>14.0</ele><time>2026-04-24T10:54:45.108Z</time></trkpt><trkpt lat="36.4057071" lon="10.5480672"><ele>13.999999999999998</ele><time>2026-04-24T10:54:46.113Z</time></trkpt><trkpt lat="36.4057349" lon="10.5479565"><ele>13.999999999999998</ele><time>2026-04-24T10:54:47.099Z</time></trkpt><trkpt lat="36.405766" lon="10.5478519"><ele>14.0</ele><time>2026-04-24T10:54:48.108Z</time></trkpt><trkpt lat="36.4057975" lon="10.5477465"><ele>14.0</ele><time>2026-04-24T10:54:49.101Z</time></trkpt><trkpt lat="36.4058313" lon="10.5476405"><ele>14.2</ele><time>2026-04-24T10:54:50.103Z</time></trkpt><trkpt lat="36.4058576" lon="10.5475286"><ele>14.399999999999999</ele><time>2026-04-24T10:54:51.116Z</time></trkpt><trkpt lat="36.4058853" lon="10.5474189"><ele>14.6</ele><time>2026-04-24T10:54:52.103Z</time></trkpt><trkpt lat="36.4059144" lon="10.5472979"><ele>14.8</ele><time>2026-04-24T10:54:53.105Z</time></trkpt><trkpt lat="36.4059475" lon="10.5471644"><ele>15.0</ele><time>2026-04-24T10:54:54.12Z</time></trkpt><trkpt lat="36.4059846" lon="10.5470285"><ele>15.75</ele><time>2026-04-24T10:54:55.106Z</time></trkpt><trkpt lat="36.4060228" lon="10.5468788"><ele>16.5</ele><time>2026-04-24T10:54:56.101Z</time></trkpt><trkpt lat="36.4060616" lon="10.5467236"><ele>17.25</ele><time>2026-04-24T10:54:57.094Z</time></trkpt><trkpt lat="36.406105" lon="10.5465593"><ele>18.0</ele><time>2026-04-24T10:54:58.113Z</time></trkpt><trkpt lat="36.4061441" lon="10.5463961"><ele>18.0</ele><time>2026-04-24T10:54:59.114Z</time></trkpt><trkpt lat="36.4061792" lon="10.5462358"><ele>18.0</ele><time>2026-04-24T10:55:00.1Z</time></trkpt><trkpt lat="36.4062197" lon="10.5460728"><ele>18.0</ele><time>2026-04-24T10:55:01.104Z</time></trkpt><trkpt lat="36.4062599" lon="10.5459122"><ele>18.0</ele><time>2026-04-24T10:55:02.115Z</time></trkpt><trkpt lat="36.4062921" lon="10.5457596"><ele>17.5</ele><time>2026-04-24T10:55:03.102Z</time></trkpt><trkpt lat="36.4063296" lon="10.5456047"><ele>17.0</ele><time>2026-04-24T10:55:04.105Z</time></trkpt><trkpt lat="36.406362" lon="10.5454585"><ele>16.5</ele><time>2026-04-24T10:55:05.101Z</time></trkpt><trkpt lat="36.4063983" lon="10.5453158"><ele>16.0</ele><time>2026-04-24T10:55:06.117Z</time></trkpt><trkpt lat="36.4064327" lon="10.5451759"><ele>16.0</ele><time>2026-04-24T10:55:07.108Z</time></trkpt><trkpt lat="36.4064719" lon="10.5450368"><ele>16.0</ele><time>2026-04-24T10:55:08.113Z</time></trkpt><trkpt lat="36.4065053" lon="10.5448979"><ele>16.0</ele><time>2026-04-24T10:55:09.102Z</time></trkpt><trkpt lat="36.4065471" lon="10.5447618"><ele>16.0</ele><time>2026-04-24T10:55:10.107Z</time></trkpt><trkpt lat="36.40659" lon="10.5446235"><ele>16.0</ele><time>2026-04-24T10:55:11.094Z</time></trkpt><trkpt lat="36.406632" lon="10.5444868"><ele>16.0</ele><time>2026-04-24T10:55:12.11Z</time></trkpt><trkpt lat="36.4066691" lon="10.5443483"><ele>16.0</ele><time>2026-04-24T10:55:13.11Z</time></trkpt><trkpt lat="36.4067062" lon="10.5442105"><ele>16.0</ele><time>2026-04-24T10:55:14.102Z</time></trkpt><trkpt lat="36.4067497" lon="10.5440728"><ele>16.0</ele><time>2026-04-24T10:55:15.085Z</time></trkpt><trkpt lat="36.4067991" lon="10.5439402"><ele>16.0</ele><time>2026-04-24T10:55:16.111Z</time></trkpt><trkpt lat="36.4068503" lon="10.5438079"><ele>16.0</ele><time>2026-04-24T10:55:17.095Z</time></trkpt><trkpt lat="36.4068996" lon="10.5436776"><ele>16.0</ele><time>2026-04-24T10:55:18.111Z</time></trkpt><trkpt lat="36.4069463" lon="10.5435524"><ele>16.2</ele><time>2026-04-24T10:55:19.092Z</time></trkpt><trkpt lat="36.4069989" lon="10.5434283"><ele>16.400000000000002</ele><time>2026-04-24T10:55:20.107Z</time></trkpt><trkpt lat="36.4070517" lon="10.5433118"><ele>16.6</ele><time>2026-04-24T10:55:21.106Z</time></trkpt><trkpt lat="36.4071061" lon="10.5431951"><ele>16.8</ele><time>2026-04-24T10:55:22.105Z</time></trkpt><trkpt lat="36.407162" lon="10.5430849"><ele>17.0</ele><time>2026-04-24T10:55:23.112Z</time></trkpt><trkpt lat="36.4072191" lon="10.542983"><ele>17.0</ele><time>2026-04-24T10:55:24.117Z</time></trkpt><trkpt lat="36.4072752" lon="10.5428917"><ele>17.0</ele><time>2026-04-24T10:55:25.106Z</time></trkpt><trkpt lat="36.4073348" lon="10.5428082"><ele>17.0</ele><time>2026-04-24T10:55:26.113Z</time></trkpt><trkpt lat="36.4073898" lon="10.5427301"><ele>17.0</ele><time>2026-04-24T10:55:27.118Z</time></trkpt><trkpt lat="36.4074398" lon="10.5426605"><ele>17.0</ele><time>2026-04-24T10:55:28.111Z</time></trkpt><trkpt lat="36.4074812" lon="10.5425966"><ele>17.0</ele><time>2026-04-24T10:55:29.104Z</time></trkpt><trkpt lat="36.4075192" lon="10.5425333"><ele>17.0</ele><time>2026-04-24T10:55:30.115Z</time></trkpt><trkpt lat="36.4075552" lon="10.5424629"><ele>17.0</ele><time>2026-04-24T10:55:31.092Z</time></trkpt><trkpt lat="36.4075969" lon="10.5423713"><ele>17.0</ele><time>2026-04-24T10:55:32.115Z</time></trkpt><trkpt lat="36.4076443" lon="10.5422828"><ele>17.0</ele><time>2026-04-24T10:55:33.096Z</time></trkpt><trkpt lat="36.4076909" lon="10.5421862"><ele>17.0</ele><time>2026-04-24T10:55:34.115Z</time></trkpt><trkpt lat="36.4077363" lon="10.5420873"><ele>17.0</ele><time>2026-04-24T10:55:35.138Z</time></trkpt><trkpt lat="36.4077764" lon="10.5419828"><ele>17.0</ele><time>2026-04-24T10:55:36.103Z</time></trkpt><trkpt lat="36.4078285" lon="10.5418686"><ele>17.0</ele><time>2026-04-24T10:55:37.119Z</time></trkpt><trkpt lat="36.40788" lon="10.5417546"><ele>17.0</ele><time>2026-04-24T10:55:38.104Z</time></trkpt><trkpt lat="36.4079285" lon="10.541632"><ele>17.0</ele><time>2026-04-24T10:55:39.087Z</time></trkpt><trkpt lat="36.4079743" lon="10.5415067"><ele>17.0</ele><time>2026-04-24T10:55:40.128Z</time></trkpt><trkpt lat="36.4080162" lon="10.5413812"><ele>17.0</ele><time>2026-04-24T10:55:41.11Z</time></trkpt><trkpt lat="36.4080663" lon="10.5412583"><ele>17.0</ele><time>2026-04-24T10:55:42.107Z</time></trkpt><trkpt lat="36.4081036" lon="10.5411404"><ele>17.0</ele><time>2026-04-24T10:55:43.103Z</time></trkpt><trkpt lat="36.4081405" lon="10.5410203"><ele>17.0</ele><time>2026-04-24T10:55:44.108Z</time></trkpt><trkpt lat="36.4081656" lon="10.5409002"><ele>17.0</ele><time>2026-04-24T10:55:45.1Z</time></trkpt><trkpt lat="36.4081917" lon="10.5407809"><ele>17.0</ele><time>2026-04-24T10:55:46.126Z</time></trkpt><trkpt lat="36.4082218" lon="10.5406603"><ele>17.0</ele><time>2026-04-24T10:55:47.101Z</time></trkpt><trkpt lat="36.4082574" lon="10.5405409"><ele>17.0</ele><time>2026-04-24T10:55:48.108Z</time></trkpt><trkpt lat="36.4082938" lon="10.5404141"><ele>17.0</ele><time>2026-04-24T10:55:49.096Z</time></trkpt><trkpt lat="36.4083253" lon="10.5402881"><ele>17.0</ele><time>2026-04-24T10:55:50.115Z</time></trkpt><trkpt lat="36.4083553" lon="10.5401645"><ele>17.4</ele><time>2026-04-24T10:55:51.102Z</time></trkpt><trkpt lat="36.4083797" lon="10.5400368"><ele>17.799999999999997</ele><time>2026-04-24T10:55:52.104Z</time></trkpt><trkpt lat="36.4084107" lon="10.5399092"><ele>18.2</ele><time>2026-04-24T10:55:53.106Z</time></trkpt><trkpt lat="36.4084444" lon="10.5397856"><ele>18.599999999999998</ele><time>2026-04-24T10:55:54.105Z</time></trkpt><trkpt lat="36.4084761" lon="10.5396605"><ele>19.0</ele><time>2026-04-24T10:55:55.101Z</time></trkpt><trkpt lat="36.4085073" lon="10.5395368"><ele>19.2</ele><time>2026-04-24T10:55:56.099Z</time></trkpt><trkpt lat="36.4085367" lon="10.5394128"><ele>19.4</ele><time>2026-04-24T10:55:57.119Z</time></trkpt><trkpt lat="36.4085667" lon="10.5392948"><ele>19.6</ele><time>2026-04-24T10:55:58.109Z</time></trkpt><trkpt lat="36.4085973" lon="10.5391716"><ele>19.8</ele><time>2026-04-24T10:55:59.094Z</time></trkpt><trkpt lat="36.4086249" lon="10.5390426"><ele>20.0</ele><time>2026-04-24T10:56:00.087Z</time></trkpt><trkpt lat="36.4086574" lon="10.5389082"><ele>20.0</ele><time>2026-04-24T10:56:01.091Z</time></trkpt><trkpt lat="36.4086877" lon="10.5387832"><ele>20.0</ele><time>2026-04-24T10:56:02.107Z</time></trkpt><trkpt lat="36.4087191" lon="10.5386548"><ele>20.0</ele><time>2026-04-24T10:56:03.111Z</time></trkpt><trkpt lat="36.4087474" lon="10.5385379"><ele>20.0</ele><time>2026-04-24T10:56:04.095Z</time></trkpt><trkpt lat="36.4087751" lon="10.5384282"><ele>20.0</ele><time>2026-04-24T10:56:05.121Z</time></trkpt><trkpt lat="36.4087971" lon="10.5383143"><ele>20.0</ele><time>2026-04-24T10:56:06.138Z</time></trkpt><trkpt lat="36.4088249" lon="10.5381997"><ele>20.0</ele><time>2026-04-24T10:56:07.111Z</time></trkpt><trkpt lat="36.4088545" lon="10.5380865"><ele>20.0</ele><time>2026-04-24T10:56:08.118Z</time></trkpt><trkpt lat="36.4088875" lon="10.5379731"><ele>20.0</ele><time>2026-04-24T10:56:09.111Z</time></trkpt><trkpt lat="36.4089161" lon="10.5378577"><ele>20.0</ele><time>2026-04-24T10:56:10.112Z</time></trkpt><trkpt lat="36.4089404" lon="10.5377395"><ele>20.8</ele><time>2026-04-24T10:56:11.114Z</time></trkpt><trkpt lat="36.4089662" lon="10.5376188"><ele>21.6</ele><time>2026-04-24T10:56:12.114Z</time></trkpt><trkpt lat="36.4089915" lon="10.5374981"><ele>22.4</ele><time>2026-04-24T10:56:13.098Z</time></trkpt><trkpt lat="36.4090194" lon="10.5373801"><ele>23.2</ele><time>2026-04-24T10:56:14.098Z</time></trkpt><trkpt lat="36.4090502" lon="10.5372616"><ele>24.0</ele><time>2026-04-24T10:56:15.099Z</time></trkpt><trkpt lat="36.4090766" lon="10.5371422"><ele>23.2</ele><time>2026-04-24T10:56:16.124Z</time></trkpt><trkpt lat="36.4091065" lon="10.5370271"><ele>22.4</ele><time>2026-04-24T10:56:17.107Z</time></trkpt><trkpt lat="36.409136" lon="10.536908"><ele>21.6</ele><time>2026-04-24T10:56:18.112Z</time></trkpt><trkpt lat="36.409166" lon="10.536788"><ele>20.8</ele><time>2026-04-24T10:56:19.103Z</time></trkpt><trkpt lat="36.4091983" lon="10.5366703"><ele>20.0</ele><time>2026-04-24T10:56:20.108Z</time></trkpt><trkpt lat="36.4092302" lon="10.5365487"><ele>20.0</ele><time>2026-04-24T10:56:21.109Z</time></trkpt><trkpt lat="36.4092612" lon="10.5364287"><ele>20.0</ele><time>2026-04-24T10:56:22.109Z</time></trkpt><trkpt lat="36.4092895" lon="10.536314"><ele>20.0</ele><time>2026-04-24T10:56:23.107Z</time></trkpt><trkpt lat="36.4093205" lon="10.5361926"><ele>20.0</ele><time>2026-04-24T10:56:24.111Z</time></trkpt><trkpt lat="36.4093502" lon="10.5360742"><ele>20.0</ele><time>2026-04-24T10:56:25.108Z</time></trkpt><trkpt lat="36.4093778" lon="10.5359527"><ele>20.0</ele><time>2026-04-24T10:56:26.112Z</time></trkpt><trkpt lat="36.4094084" lon="10.5358392"><ele>20.0</ele><time>2026-04-24T10:56:27.105Z</time></trkpt><trkpt lat="36.409442" lon="10.5357175"><ele>20.0</ele><time>2026-04-24T10:56:28.101Z</time></trkpt><trkpt lat="36.4094745" lon="10.5355866"><ele>20.0</ele><time>2026-04-24T10:56:29.113Z</time></trkpt><trkpt lat="36.4095031" lon="10.5354473"><ele>20.0</ele><time>2026-04-24T10:56:30.107Z</time></trkpt><trkpt lat="36.4095324" lon="10.5353045"><ele>20.5</ele><time>2026-04-24T10:56:31.109Z</time></trkpt><trkpt lat="36.4095638" lon="10.5351588"><ele>21.0</ele><time>2026-04-24T10:56:32.108Z</time></trkpt><trkpt lat="36.4096" lon="10.5350078"><ele>21.5</ele><time>2026-04-24T10:56:33.111Z</time></trkpt><trkpt lat="36.4096398" lon="10.5348518"><ele>22.0</ele><time>2026-04-24T10:56:34.104Z</time></trkpt><trkpt lat="36.4096824" lon="10.5346912"><ele>22.5</ele><time>2026-04-24T10:56:35.124Z</time></trkpt><trkpt lat="36.4097272" lon="10.5345208"><ele>23.0</ele><time>2026-04-24T10:56:36.105Z</time></trkpt><trkpt lat="36.4097675" lon="10.5343514"><ele>23.5</ele><time>2026-04-24T10:56:37.1Z</time></trkpt><trkpt lat="36.4098071" lon="10.5341824"><ele>24.0</ele><time>2026-04-24T10:56:38.108Z</time></trkpt><trkpt lat="36.409842" lon="10.5340169"><ele>24.0</ele><time>2026-04-24T10:56:39.115Z</time></trkpt><trkpt lat="36.4098781" lon="10.5338607"><ele>24.0</ele><time>2026-04-24T10:56:40.109Z</time></trkpt><trkpt lat="36.4099149" lon="10.5337053"><ele>24.0</ele><time>2026-04-24T10:56:41.106Z</time></trkpt><trkpt lat="36.4099531" lon="10.5335454"><ele>24.0</ele><time>2026-04-24T10:56:42.125Z</time></trkpt><trkpt lat="36.4099885" lon="10.5333872"><ele>24.0</ele><time>2026-04-24T10:56:43.114Z</time></trkpt><trkpt lat="36.4100307" lon="10.5332293"><ele>24.0</ele><time>2026-04-24T10:56:44.104Z</time></trkpt><trkpt lat="36.4100725" lon="10.5330672"><ele>24.0</ele><time>2026-04-24T10:56:45.108Z</time></trkpt><trkpt lat="36.4101157" lon="10.5329058"><ele>24.0</ele><time>2026-04-24T10:56:46.104Z</time></trkpt><trkpt lat="36.4101616" lon="10.532755"><ele>24.0</ele><time>2026-04-24T10:56:47.097Z</time></trkpt><trkpt lat="36.4102064" lon="10.5325994"><ele>24.0</ele><time>2026-04-24T10:56:48.119Z</time></trkpt><trkpt lat="36.4102488" lon="10.5324505"><ele>24.0</ele><time>2026-04-24T10:56:49.094Z</time></trkpt><trkpt lat="36.4102895" lon="10.5322971"><ele>24.0</ele><time>2026-04-24T10:56:50.123Z</time></trkpt><trkpt lat="36.4103327" lon="10.5321468"><ele>24.25</ele><time>2026-04-24T10:56:51.111Z</time></trkpt><trkpt lat="36.4103766" lon="10.5319948"><ele>24.5</ele><time>2026-04-24T10:56:52.097Z</time></trkpt><trkpt lat="36.4104224" lon="10.5318361"><ele>24.75</ele><time>2026-04-24T10:56:53.096Z</time></trkpt><trkpt lat="36.4104683" lon="10.5316791"><ele>25.0</ele><time>2026-04-24T10:56:54.126Z</time></trkpt><trkpt lat="36.4105163" lon="10.5315261"><ele>25.0</ele><time>2026-04-24T10:56:55.115Z</time></trkpt><trkpt lat="36.4105635" lon="10.5313769"><ele>25.0</ele><time>2026-04-24T10:56:56.114Z</time></trkpt><trkpt lat="36.4106043" lon="10.5312337"><ele>25.0</ele><time>2026-04-24T10:56:57.12Z</time></trkpt><trkpt lat="36.4106458" lon="10.5310872"><ele>25.0</ele><time>2026-04-24T10:56:58.103Z</time></trkpt><trkpt lat="36.4106899" lon="10.5309407"><ele>25.25</ele><time>2026-04-24T10:56:59.103Z</time></trkpt><trkpt lat="36.4107336" lon="10.5307987"><ele>25.5</ele><time>2026-04-24T10:57:00.112Z</time></trkpt><trkpt lat="36.4107786" lon="10.5306517"><ele>25.75</ele><time>2026-04-24T10:57:01.105Z</time></trkpt><trkpt lat="36.4108211" lon="10.530503"><ele>26.0</ele><time>2026-04-24T10:57:02.107Z</time></trkpt><trkpt lat="36.4108629" lon="10.5303523"><ele>26.0</ele><time>2026-04-24T10:57:03.103Z</time></trkpt><trkpt lat="36.4109057" lon="10.5302033"><ele>26.0</ele><time>2026-04-24T10:57:04.11Z</time></trkpt><trkpt lat="36.4109513" lon="10.5300591"><ele>26.0</ele><time>2026-04-24T10:57:05.107Z</time></trkpt><trkpt lat="36.4109932" lon="10.5299329"><ele>26.0</ele><time>2026-04-24T10:57:06.12Z</time></trkpt><trkpt lat="36.411025" lon="10.5298301"><ele>26.0</ele><time>2026-04-24T10:57:07.109Z</time></trkpt><trkpt lat="36.4110647" lon="10.5297121"><ele>26.0</ele><time>2026-04-24T10:57:08.111Z</time></trkpt><trkpt lat="36.4111076" lon="10.5295885"><ele>26.0</ele><time>2026-04-24T10:57:09.111Z</time></trkpt><trkpt lat="36.4111529" lon="10.5294489"><ele>26.0</ele><time>2026-04-24T10:57:10.116Z</time></trkpt><trkpt lat="36.4112026" lon="10.5293131"><ele>26.25</ele><time>2026-04-24T10:57:11.123Z</time></trkpt><trkpt lat="36.4112534" lon="10.5291784"><ele>26.5</ele><time>2026-04-24T10:57:12.113Z</time></trkpt><trkpt lat="36.411304" lon="10.5290526"><ele>26.75</ele><time>2026-04-24T10:57:13.103Z</time></trkpt><trkpt lat="36.4113561" lon="10.528925"><ele>27.0</ele><time>2026-04-24T10:57:14.105Z</time></trkpt><trkpt lat="36.4114091" lon="10.5287995"><ele>27.0</ele><time>2026-04-24T10:57:15.109Z</time></trkpt><trkpt lat="36.4114534" lon="10.5286859"><ele>27.000000000000004</ele><time>2026-04-24T10:57:16.114Z</time></trkpt><trkpt lat="36.4114949" lon="10.5285838"><ele>27.000000000000004</ele><time>2026-04-24T10:57:17.109Z</time></trkpt><trkpt lat="36.4115293" lon="10.5284945"><ele>27.0</ele><time>2026-04-24T10:57:18.111Z</time></trkpt><trkpt lat="36.4115614" lon="10.5283976"><ele>27.0</ele><time>2026-04-24T10:57:19.113Z</time></trkpt><trkpt lat="36.4116025" lon="10.5282757"><ele>27.0</ele><time>2026-04-24T10:57:20.108Z</time></trkpt><trkpt lat="36.4116584" lon="10.5281174"><ele>27.0</ele><time>2026-04-24T10:57:21.109Z</time></trkpt><trkpt lat="36.411721" lon="10.5279433"><ele>27.0</ele><time>2026-04-24T10:57:22.112Z</time></trkpt><trkpt lat="36.4117875" lon="10.5277613"><ele>27.0</ele><time>2026-04-24T10:57:23.12Z</time></trkpt><trkpt lat="36.4118489" lon="10.5275814"><ele>27.0</ele><time>2026-04-24T10:57:24.098Z</time></trkpt><trkpt lat="36.411906" lon="10.5273962"><ele>27.0</ele><time>2026-04-24T10:57:25.107Z</time></trkpt><trkpt lat="36.4119541" lon="10.5272264"><ele>27.0</ele><time>2026-04-24T10:57:26.093Z</time></trkpt><trkpt lat="36.4119932" lon="10.5270603"><ele>27.0</ele><time>2026-04-24T10:57:27.102Z</time></trkpt><trkpt lat="36.4120235" lon="10.5269055"><ele>27.0</ele><time>2026-04-24T10:57:28.102Z</time></trkpt><trkpt lat="36.4120551" lon="10.5267633"><ele>27.0</ele><time>2026-04-24T10:57:29.111Z</time></trkpt><trkpt lat="36.412088" lon="10.5266159"><ele>27.0</ele><time>2026-04-24T10:57:30.114Z</time></trkpt><trkpt lat="36.4121232" lon="10.5264788"><ele>27.000000000000004</ele><time>2026-04-24T10:57:31.106Z</time></trkpt><trkpt lat="36.4121549" lon="10.526348"><ele>27.000000000000004</ele><time>2026-04-24T10:57:32.113Z</time></trkpt><trkpt lat="36.4121904" lon="10.5262176"><ele>27.0</ele><time>2026-04-24T10:57:33.109Z</time></trkpt><trkpt lat="36.4122251" lon="10.5260973"><ele>27.0</ele><time>2026-04-24T10:57:34.106Z</time></trkpt><trkpt lat="36.412261" lon="10.5259694"><ele>27.0</ele><time>2026-04-24T10:57:35.108Z</time></trkpt><trkpt lat="36.4122979" lon="10.5258431"><ele>27.000000000000004</ele><time>2026-04-24T10:57:36.114Z</time></trkpt><trkpt lat="36.4123402" lon="10.5257149"><ele>27.000000000000004</ele><time>2026-04-24T10:57:37.114Z</time></trkpt><trkpt lat="36.4123793" lon="10.5255907"><ele>27.0</ele><time>2026-04-24T10:57:38.117Z</time></trkpt><trkpt lat="36.4124232" lon="10.5254721"><ele>27.0</ele><time>2026-04-24T10:57:39.108Z</time></trkpt><trkpt lat="36.4124754" lon="10.5253509"><ele>27.0</ele><time>2026-04-24T10:57:40.11Z</time></trkpt><trkpt lat="36.4125299" lon="10.5252317"><ele>27.000000000000004</ele><time>2026-04-24T10:57:41.107Z</time></trkpt><trkpt lat="36.4125869" lon="10.5251162"><ele>27.000000000000004</ele><time>2026-04-24T10:57:42.104Z</time></trkpt><trkpt lat="36.4126439" lon="10.5249929"><ele>27.0</ele><time>2026-04-24T10:57:43.094Z</time></trkpt><trkpt lat="36.4127026" lon="10.5248699"><ele>27.0</ele><time>2026-04-24T10:57:44.106Z</time></trkpt><trkpt lat="36.4127574" lon="10.5247553"><ele>27.0</ele><time>2026-04-24T10:57:45.124Z</time></trkpt><trkpt lat="36.4128104" lon="10.5246439"><ele>27.000000000000004</ele><time>2026-04-24T10:57:46.109Z</time></trkpt><trkpt lat="36.4128675" lon="10.524529"><ele>27.000000000000004</ele><time>2026-04-24T10:57:47.11Z</time></trkpt><trkpt lat="36.4129302" lon="10.5244133"><ele>27.0</ele><time>2026-04-24T10:57:48.103Z</time></trkpt><trkpt lat="36.4129995" lon="10.524298"><ele>27.0</ele><time>2026-04-24T10:57:49.097Z</time></trkpt><trkpt lat="36.4130603" lon="10.5241802"><ele>27.75</ele><time>2026-04-24T10:57:50.105Z</time></trkpt><trkpt lat="36.4131191" lon="10.5240603"><ele>28.5</ele><time>2026-04-24T10:57:51.102Z</time></trkpt><trkpt lat="36.4131822" lon="10.523938"><ele>29.25</ele><time>2026-04-24T10:57:52.104Z</time></trkpt><trkpt lat="36.4132474" lon="10.5238176"><ele>30.0</ele><time>2026-04-24T10:57:53.108Z</time></trkpt><trkpt lat="36.4133124" lon="10.5237017"><ele>30.25</ele><time>2026-04-24T10:57:54.115Z</time></trkpt><trkpt lat="36.4133761" lon="10.5235845"><ele>30.5</ele><time>2026-04-24T10:57:55.107Z</time></trkpt><trkpt lat="36.4134357" lon="10.523465"><ele>30.75</ele><time>2026-04-24T10:57:56.111Z</time></trkpt><trkpt lat="36.4134997" lon="10.5233456"><ele>31.0</ele><time>2026-04-24T10:57:57.119Z</time></trkpt><trkpt lat="36.4135624" lon="10.5232246"><ele>31.0</ele><time>2026-04-24T10:57:58.103Z</time></trkpt><trkpt lat="36.4136263" lon="10.523109"><ele>31.0</ele><time>2026-04-24T10:57:59.095Z</time></trkpt><trkpt lat="36.4136824" lon="10.5229926"><ele>31.0</ele><time>2026-04-24T10:58:00.107Z</time></trkpt><trkpt lat="36.413743" lon="10.5228774"><ele>31.0</ele><time>2026-04-24T10:58:01.115Z</time></trkpt><trkpt lat="36.413803" lon="10.5227683"><ele>31.0</ele><time>2026-04-24T10:58:02.103Z</time></trkpt><trkpt lat="36.413862" lon="10.5226559"><ele>31.200000000000003</ele><time>2026-04-24T10:58:03.105Z</time></trkpt><trkpt lat="36.4139167" lon="10.5225415"><ele>31.400000000000002</ele><time>2026-04-24T10:58:04.104Z</time></trkpt><trkpt lat="36.4139759" lon="10.5224294"><ele>31.6</ele><time>2026-04-24T10:58:05.108Z</time></trkpt><trkpt lat="36.4140355" lon="10.5223209"><ele>31.8</ele><time>2026-04-24T10:58:06.119Z</time></trkpt><trkpt lat="36.4140951" lon="10.5222084"><ele>32.0</ele><time>2026-04-24T10:58:07.114Z</time></trkpt><trkpt lat="36.414157" lon="10.5220988"><ele>32.0</ele><time>2026-04-24T10:58:08.118Z</time></trkpt><trkpt lat="36.4142219" lon="10.5219835"><ele>32.0</ele><time>2026-04-24T10:58:09.108Z</time></trkpt><trkpt lat="36.4142826" lon="10.5218642"><ele>32.0</ele><time>2026-04-24T10:58:10.107Z</time></trkpt><trkpt lat="36.4143429" lon="10.5217428"><ele>32.0</ele><time>2026-04-24T10:58:11.104Z</time></trkpt><trkpt lat="36.4144004" lon="10.5216192"><ele>32.0</ele><time>2026-04-24T10:58:12.109Z</time></trkpt><trkpt lat="36.414461" lon="10.5214982"><ele>32.0</ele><time>2026-04-24T10:58:13.105Z</time></trkpt><trkpt lat="36.414519" lon="10.5213747"><ele>32.0</ele><time>2026-04-24T10:58:14.103Z</time></trkpt><trkpt lat="36.414576" lon="10.5212509"><ele>32.0</ele><time>2026-04-24T10:58:15.112Z</time></trkpt><trkpt lat="36.4146318" lon="10.5211309"><ele>32.4</ele><time>2026-04-24T10:58:16.093Z</time></trkpt><trkpt lat="36.4146826" lon="10.5210114"><ele>32.800000000000004</ele><time>2026-04-24T10:58:17.109Z</time></trkpt><trkpt lat="36.4147349" lon="10.5208855"><ele>33.2</ele><time>2026-04-24T10:58:18.112Z</time></trkpt><trkpt lat="36.414785" lon="10.5207623"><ele>33.6</ele><time>2026-04-24T10:58:19.142Z</time></trkpt><trkpt lat="36.4148329" lon="10.5206409"><ele>34.0</ele><time>2026-04-24T10:58:20.098Z</time></trkpt><trkpt lat="36.4148806" lon="10.5205163"><ele>34.0</ele><time>2026-04-24T10:58:21.096Z</time></trkpt><trkpt lat="36.4149298" lon="10.5203889"><ele>34.0</ele><time>2026-04-24T10:58:22.109Z</time></trkpt><trkpt lat="36.4149802" lon="10.5202588"><ele>34.0</ele><time>2026-04-24T10:58:23.097Z</time></trkpt><trkpt lat="36.4150299" lon="10.5201332"><ele>34.0</ele><time>2026-04-24T10:58:24.115Z</time></trkpt><trkpt lat="36.4150754" lon="10.5200087"><ele>34.0</ele><time>2026-04-24T10:58:25.113Z</time></trkpt><trkpt lat="36.4151201" lon="10.5198843"><ele>34.0</ele><time>2026-04-24T10:58:26.098Z</time></trkpt><trkpt lat="36.4151659" lon="10.5197667"><ele>34.0</ele><time>2026-04-24T10:58:27.09Z</time></trkpt><trkpt lat="36.4152088" lon="10.5196424"><ele>34.0</ele><time>2026-04-24T10:58:28.1Z</time></trkpt><trkpt lat="36.4152505" lon="10.5195183"><ele>34.0</ele><time>2026-04-24T10:58:29.095Z</time></trkpt><trkpt lat="36.4152976" lon="10.5193988"><ele>34.0</ele><time>2026-04-24T10:58:30.12Z</time></trkpt><trkpt lat="36.4153484" lon="10.5192752"><ele>34.0</ele><time>2026-04-24T10:58:31.109Z</time></trkpt><trkpt lat="36.4153965" lon="10.5191531"><ele>34.0</ele><time>2026-04-24T10:58:32.106Z</time></trkpt><trkpt lat="36.4154461" lon="10.5190317"><ele>34.0</ele><time>2026-04-24T10:58:33.105Z</time></trkpt><trkpt lat="36.4154991" lon="10.5189109"><ele>34.0</ele><time>2026-04-24T10:58:34.102Z</time></trkpt><trkpt lat="36.415552" lon="10.5187947"><ele>34.6</ele><time>2026-04-24T10:58:35.109Z</time></trkpt><trkpt lat="36.4156009" lon="10.5186777"><ele>35.2</ele><time>2026-04-24T10:58:36.113Z</time></trkpt><trkpt lat="36.4156485" lon="10.5185546"><ele>35.800000000000004</ele><time>2026-04-24T10:58:37.117Z</time></trkpt><trkpt lat="36.4156997" lon="10.5184212"><ele>36.4</ele><time>2026-04-24T10:58:38.111Z</time></trkpt><trkpt lat="36.4157447" lon="10.5182949"><ele>37.0</ele><time>2026-04-24T10:58:39.113Z</time></trkpt><trkpt lat="36.4157926" lon="10.5181635"><ele>37.0</ele><time>2026-04-24T10:58:40.095Z</time></trkpt><trkpt lat="36.4158439" lon="10.518039"><ele>37.0</ele><time>2026-04-24T10:58:41.105Z</time></trkpt><trkpt lat="36.4158916" lon="10.5179078"><ele>37.0</ele><time>2026-04-24T10:58:42.115Z</time></trkpt><trkpt lat="36.4159372" lon="10.5177767"><ele>37.0</ele><time>2026-04-24T10:58:43.093Z</time></trkpt><trkpt lat="36.4159858" lon="10.5176445"><ele>36.75</ele><time>2026-04-24T10:58:44.104Z</time></trkpt><trkpt lat="36.4160317" lon="10.5175093"><ele>36.5</ele><time>2026-04-24T10:58:45.105Z</time></trkpt><trkpt lat="36.4160781" lon="10.517382"><ele>36.25</ele><time>2026-04-24T10:58:46.103Z</time></trkpt><trkpt lat="36.4161252" lon="10.5172565"><ele>36.0</ele><time>2026-04-24T10:58:47.11Z</time></trkpt><trkpt lat="36.4161738" lon="10.5171348"><ele>36.2</ele><time>2026-04-24T10:58:48.111Z</time></trkpt><trkpt lat="36.4162199" lon="10.517013"><ele>36.400000000000006</ele><time>2026-04-24T10:58:49.107Z</time></trkpt><trkpt lat="36.4162691" lon="10.5168878"><ele>36.6</ele><time>2026-04-24T10:58:50.115Z</time></trkpt><trkpt lat="36.4163127" lon="10.5167681"><ele>36.800000000000004</ele><time>2026-04-24T10:58:51.099Z</time></trkpt><trkpt lat="36.4163561" lon="10.5166483"><ele>37.0</ele><time>2026-04-24T10:58:52.102Z</time></trkpt><trkpt lat="36.4164014" lon="10.5165327"><ele>37.333333333333336</ele><time>2026-04-24T10:58:53.111Z</time></trkpt><trkpt lat="36.4164427" lon="10.5164274"><ele>37.66666666666667</ele><time>2026-04-24T10:58:54.103Z</time></trkpt><trkpt lat="36.4164813" lon="10.5163393"><ele>38.0</ele><time>2026-04-24T10:58:55.107Z</time></trkpt><trkpt lat="36.4165124" lon="10.5162502"><ele>38.333333333333336</ele><time>2026-04-24T10:58:56.112Z</time></trkpt><trkpt lat="36.4165423" lon="10.5161706"><ele>38.666666666666664</ele><time>2026-04-24T10:58:57.106Z</time></trkpt><trkpt lat="36.4165723" lon="10.5160885"><ele>39.0</ele><time>2026-04-24T10:58:58.13Z</time></trkpt><trkpt lat="36.4166017" lon="10.5160095"><ele>39.0</ele><time>2026-04-24T10:58:59.094Z</time></trkpt><trkpt lat="36.4166312" lon="10.515931"><ele>39.0</ele><time>2026-04-24T10:59:00.095Z</time></trkpt><trkpt lat="36.4166591" lon="10.5158553"><ele>39.0</ele><time>2026-04-24T10:59:01.096Z</time></trkpt><trkpt lat="36.4166877" lon="10.5157717"><ele>39.0</ele><time>2026-04-24T10:59:02.108Z</time></trkpt><trkpt lat="36.4167121" lon="10.5156925"><ele>39.0</ele><time>2026-04-24T10:59:03.108Z</time></trkpt><trkpt lat="36.4167386" lon="10.5156213"><ele>39.0</ele><time>2026-04-24T10:59:04.095Z</time></trkpt><trkpt lat="36.416758" lon="10.5155448"><ele>39.0</ele><time>2026-04-24T10:59:05.112Z</time></trkpt><trkpt lat="36.4167959" lon="10.5154195"><ele>38.8</ele><time>2026-04-24T10:59:07.102Z</time></trkpt><trkpt lat="36.416808" lon="10.515301"><ele>38.599999999999994</ele><time>2026-04-24T10:59:09.108Z</time></trkpt><trkpt lat="36.4168226" lon="10.515187"><ele>38.4</ele><time>2026-04-24T10:59:11.121Z</time></trkpt><trkpt lat="36.416839" lon="10.5150518"><ele>38.199999999999996</ele><time>2026-04-24T10:59:13.125Z</time></trkpt><trkpt lat="36.4168526" lon="10.5149141"><ele>38.0</ele><time>2026-04-24T10:59:15.097Z</time></trkpt><trkpt lat="36.4168551" lon="10.51478"><ele>38.0</ele><time>2026-04-24T10:59:17.104Z</time></trkpt><trkpt lat="36.4168551" lon="10.5146892"><ele>38.0</ele><time>2026-04-24T10:59:18.105Z</time></trkpt><trkpt lat="36.4168546" lon="10.5145888"><ele>38.0</ele><time>2026-04-24T10:59:19.107Z</time></trkpt><trkpt lat="36.4168533" lon="10.5144872"><ele>38.0</ele><time>2026-04-24T10:59:20.093Z</time></trkpt><trkpt lat="36.4168392" lon="10.5143858"><ele>38.0</ele><time>2026-04-24T10:59:21.106Z</time></trkpt><trkpt lat="36.4168173" lon="10.5142845"><ele>38.0</ele><time>2026-04-24T10:59:22.111Z</time></trkpt><trkpt lat="36.416796" lon="10.5141852"><ele>37.83333333333333</ele><time>2026-04-24T10:59:23.104Z</time></trkpt><trkpt lat="36.416774" lon="10.5140954"><ele>37.666666666666664</ele><time>2026-04-24T10:59:24.102Z</time></trkpt><trkpt lat="36.4167436" lon="10.5140112"><ele>37.5</ele><time>2026-04-24T10:59:25.108Z</time></trkpt><trkpt lat="36.4166985" lon="10.5138895"><ele>37.333333333333336</ele><time>2026-04-24T10:59:27.1Z</time></trkpt><trkpt lat="36.4166623" lon="10.5137949"><ele>37.16666666666667</ele><time>2026-04-24T10:59:29.11Z</time></trkpt><trkpt lat="36.4166187" lon="10.5136928"><ele>37.0</ele><time>2026-04-24T10:59:31.094Z</time></trkpt><trkpt lat="36.4165546" lon="10.5135634"><ele>37.0</ele><time>2026-04-24T10:59:33.097Z</time></trkpt><trkpt lat="36.4165234" lon="10.5134824"><ele>37.0</ele><time>2026-04-24T10:59:34.096Z</time></trkpt><trkpt lat="36.4164875" lon="10.5134066"><ele>37.0</ele><time>2026-04-24T10:59:35.103Z</time></trkpt><trkpt lat="36.4164477" lon="10.5133266"><ele>37.0</ele><time>2026-04-24T10:59:36.107Z</time></trkpt><trkpt lat="36.416399" lon="10.5132417"><ele>37.0</ele><time>2026-04-24T10:59:37.105Z</time></trkpt><trkpt lat="36.4163461" lon="10.5131584"><ele>37.0</ele><time>2026-04-24T10:59:38.098Z</time></trkpt><trkpt lat="36.4162897" lon="10.513073"><ele>36.800000000000004</ele><time>2026-04-24T10:59:39.101Z</time></trkpt><trkpt lat="36.416229" lon="10.5129862"><ele>36.6</ele><time>2026-04-24T10:59:40.114Z</time></trkpt><trkpt lat="36.4161583" lon="10.5128969"><ele>36.400000000000006</ele><time>2026-04-24T10:59:41.098Z</time></trkpt><trkpt lat="36.4160941" lon="10.5128143"><ele>36.2</ele><time>2026-04-24T10:59:42.128Z</time></trkpt><trkpt lat="36.4160264" lon="10.51273"><ele>36.0</ele><time>2026-04-24T10:59:43.101Z</time></trkpt><trkpt lat="36.4159524" lon="10.5126428"><ele>36.75</ele><time>2026-04-24T10:59:44.106Z</time></trkpt><trkpt lat="36.4158768" lon="10.5125515"><ele>37.5</ele><time>2026-04-24T10:59:45.099Z</time></trkpt><trkpt lat="36.4158007" lon="10.5124507"><ele>38.25</ele><time>2026-04-24T10:59:46.096Z</time></trkpt><trkpt lat="36.4157209" lon="10.5123439"><ele>39.0</ele><time>2026-04-24T10:59:47.098Z</time></trkpt><trkpt lat="36.4156392" lon="10.5122322"><ele>39.0</ele><time>2026-04-24T10:59:48.102Z</time></trkpt><trkpt lat="36.4155562" lon="10.5121221"><ele>39.0</ele><time>2026-04-24T10:59:49.098Z</time></trkpt><trkpt lat="36.4154771" lon="10.5120082"><ele>39.0</ele><time>2026-04-24T10:59:50.111Z</time></trkpt><trkpt lat="36.4153996" lon="10.5118811"><ele>39.0</ele><time>2026-04-24T10:59:51.092Z</time></trkpt><trkpt lat="36.4153283" lon="10.5117427"><ele>38.75</ele><time>2026-04-24T10:59:52.1Z</time></trkpt><trkpt lat="36.4152699" lon="10.5116093"><ele>38.5</ele><time>2026-04-24T10:59:53.093Z</time></trkpt><trkpt lat="36.4152165" lon="10.5114724"><ele>38.25</ele><time>2026-04-24T10:59:54.129Z</time></trkpt><trkpt lat="36.4151697" lon="10.5113341"><ele>38.0</ele><time>2026-04-24T10:59:55.088Z</time></trkpt><trkpt lat="36.4151359" lon="10.5111813"><ele>38.5</ele><time>2026-04-24T10:59:56.106Z</time></trkpt><trkpt lat="36.4151109" lon="10.5110296"><ele>39.0</ele><time>2026-04-24T10:59:57.096Z</time></trkpt><trkpt lat="36.4150935" lon="10.5108778"><ele>39.5</ele><time>2026-04-24T10:59:58.109Z</time></trkpt><trkpt lat="36.4150782" lon="10.510723"><ele>40.0</ele><time>2026-04-24T10:59:59.094Z</time></trkpt><trkpt lat="36.4150714" lon="10.5105737"><ele>40.0</ele><time>2026-04-24T11:00:00.113Z</time></trkpt><trkpt lat="36.4150704" lon="10.5104223"><ele>40.0</ele><time>2026-04-24T11:00:01.102Z</time></trkpt><trkpt lat="36.4150705" lon="10.5102751"><ele>40.0</ele><time>2026-04-24T11:00:02.1Z</time></trkpt><trkpt lat="36.4150756" lon="10.5101298"><ele>40.0</ele><time>2026-04-24T11:00:03.113Z</time></trkpt><trkpt lat="36.4150845" lon="10.5099831"><ele>40.5</ele><time>2026-04-24T11:00:04.115Z</time></trkpt><trkpt lat="36.4150938" lon="10.5098322"><ele>41.0</ele><time>2026-04-24T11:00:05.104Z</time></trkpt><trkpt lat="36.4151059" lon="10.50968"><ele>41.5</ele><time>2026-04-24T11:00:06.111Z</time></trkpt><trkpt lat="36.4151144" lon="10.5095242"><ele>42.0</ele><time>2026-04-24T11:00:07.114Z</time></trkpt><trkpt lat="36.4151187" lon="10.5093698"><ele>42.5</ele><time>2026-04-24T11:00:08.112Z</time></trkpt><trkpt lat="36.4151268" lon="10.5092102"><ele>43.0</ele><time>2026-04-24T11:00:09.113Z</time></trkpt><trkpt lat="36.4151309" lon="10.5090569"><ele>43.5</ele><time>2026-04-24T11:00:10.109Z</time></trkpt><trkpt lat="36.4151364" lon="10.5089067"><ele>44.0</ele><time>2026-04-24T11:00:11.102Z</time></trkpt><trkpt lat="36.415145" lon="10.5087535"><ele>44.75</ele><time>2026-04-24T11:00:12.109Z</time></trkpt><trkpt lat="36.4151579" lon="10.5085954"><ele>45.5</ele><time>2026-04-24T11:00:13.111Z</time></trkpt><trkpt lat="36.4151719" lon="10.5084368"><ele>46.25</ele><time>2026-04-24T11:00:14.115Z</time></trkpt><trkpt lat="36.4151795" lon="10.508284"><ele>47.0</ele><time>2026-04-24T11:00:15.107Z</time></trkpt><trkpt lat="36.4151869" lon="10.5081219"><ele>47.0</ele><time>2026-04-24T11:00:16.097Z</time></trkpt><trkpt lat="36.4151908" lon="10.5079706"><ele>47.0</ele><time>2026-04-24T11:00:17.107Z</time></trkpt><trkpt lat="36.4151986" lon="10.5078172"><ele>47.0</ele><time>2026-04-24T11:00:18.121Z</time></trkpt><trkpt lat="36.4152085" lon="10.50766"><ele>47.0</ele><time>2026-04-24T11:00:19.108Z</time></trkpt><trkpt lat="36.4152225" lon="10.5075052"><ele>47.5</ele><time>2026-04-24T11:00:20.114Z</time></trkpt><trkpt lat="36.4152375" lon="10.5073495"><ele>48.0</ele><time>2026-04-24T11:00:21.099Z</time></trkpt><trkpt lat="36.4152483" lon="10.5071976"><ele>48.5</ele><time>2026-04-24T11:00:22.096Z</time></trkpt><trkpt lat="36.4152627" lon="10.5070467"><ele>49.0</ele><time>2026-04-24T11:00:23.117Z</time></trkpt><trkpt lat="36.4152782" lon="10.5068905"><ele>49.5</ele><time>2026-04-24T11:00:24.103Z</time></trkpt><trkpt lat="36.4152943" lon="10.5067262"><ele>50.0</ele><time>2026-04-24T11:00:25.097Z</time></trkpt><trkpt lat="36.4153126" lon="10.5065634"><ele>50.5</ele><time>2026-04-24T11:00:26.101Z</time></trkpt><trkpt lat="36.415334" lon="10.5063977"><ele>51.0</ele><time>2026-04-24T11:00:27.105Z</time></trkpt><trkpt lat="36.4153569" lon="10.5062374"><ele>51.5</ele><time>2026-04-24T11:00:28.098Z</time></trkpt><trkpt lat="36.4153783" lon="10.5060795"><ele>52.0</ele><time>2026-04-24T11:00:29.108Z</time></trkpt><trkpt lat="36.4154031" lon="10.5059174"><ele>52.5</ele><time>2026-04-24T11:00:30.1Z</time></trkpt><trkpt lat="36.4154311" lon="10.5057518"><ele>53.0</ele><time>2026-04-24T11:00:31.104Z</time></trkpt><trkpt lat="36.415465" lon="10.5055883"><ele>53.0</ele><time>2026-04-24T11:00:32.101Z</time></trkpt><trkpt lat="36.4154974" lon="10.5054184"><ele>53.0</ele><time>2026-04-24T11:00:33.103Z</time></trkpt><trkpt lat="36.4155315" lon="10.5052386"><ele>53.0</ele><time>2026-04-24T11:00:34.102Z</time></trkpt><trkpt lat="36.4155652" lon="10.5050479"><ele>53.0</ele><time>2026-04-24T11:00:35.113Z</time></trkpt><trkpt lat="36.4155983" lon="10.5048429"><ele>54.0</ele><time>2026-04-24T11:00:36.1Z</time></trkpt><trkpt lat="36.4156227" lon="10.5046269"><ele>55.0</ele><time>2026-04-24T11:00:37.103Z</time></trkpt><trkpt lat="36.4156403" lon="10.5044021"><ele>56.0</ele><time>2026-04-24T11:00:38.12Z</time></trkpt><trkpt lat="36.4156486" lon="10.5041762"><ele>56.333333333333336</ele><time>2026-04-24T11:00:39.105Z</time></trkpt><trkpt lat="36.415648" lon="10.5039514"><ele>56.66666666666667</ele><time>2026-04-24T11:00:40.129Z</time></trkpt><trkpt lat="36.4156384" lon="10.5037314"><ele>57.0</ele><time>2026-04-24T11:00:41.119Z</time></trkpt><trkpt lat="36.4156195" lon="10.5035059"><ele>57.66666666666667</ele><time>2026-04-24T11:00:42.111Z</time></trkpt><trkpt lat="36.415587" lon="10.5032873"><ele>58.333333333333336</ele><time>2026-04-24T11:00:43.105Z</time></trkpt><trkpt lat="36.4155569" lon="10.503078"><ele>59.0</ele><time>2026-04-24T11:00:44.104Z</time></trkpt><trkpt lat="36.4155178" lon="10.5028775"><ele>60.333333333333336</ele><time>2026-04-24T11:00:45.103Z</time></trkpt><trkpt lat="36.4154727" lon="10.5026726"><ele>61.66666666666667</ele><time>2026-04-24T11:00:46.099Z</time></trkpt><trkpt lat="36.4154274" lon="10.5024759"><ele>63.0</ele><time>2026-04-24T11:00:47.105Z</time></trkpt><trkpt lat="36.4153889" lon="10.5022885"><ele>63.0</ele><time>2026-04-24T11:00:48.11Z</time></trkpt><trkpt lat="36.4153584" lon="10.5021073"><ele>63.0</ele><time>2026-04-24T11:00:49.106Z</time></trkpt><trkpt lat="36.4153226" lon="10.5019344"><ele>63.0</ele><time>2026-04-24T11:00:50.104Z</time></trkpt><trkpt lat="36.4152955" lon="10.5017531"><ele>63.0</ele><time>2026-04-24T11:00:51.111Z</time></trkpt><trkpt lat="36.4152712" lon="10.5015718"><ele>64.66666666666667</ele><time>2026-04-24T11:00:52.105Z</time></trkpt><trkpt lat="36.4152487" lon="10.5013825"><ele>66.33333333333334</ele><time>2026-04-24T11:00:53.087Z</time></trkpt><trkpt lat="36.4152318" lon="10.5011903"><ele>68.0</ele><time>2026-04-24T11:00:54.105Z</time></trkpt><trkpt lat="36.4152218" lon="10.5009905"><ele>69.33333333333334</ele><time>2026-04-24T11:00:55.101Z</time></trkpt><trkpt lat="36.4152134" lon="10.500782"><ele>70.66666666666667</ele><time>2026-04-24T11:00:56.097Z</time></trkpt><trkpt lat="36.4152217" lon="10.500577"><ele>72.0</ele><time>2026-04-24T11:00:57.109Z</time></trkpt><trkpt lat="36.4152337" lon="10.5003753"><ele>72.66666666666667</ele><time>2026-04-24T11:00:58.146Z</time></trkpt><trkpt lat="36.41526" lon="10.5001772"><ele>73.33333333333334</ele><time>2026-04-24T11:00:59.102Z</time></trkpt><trkpt lat="36.4152866" lon="10.4999776"><ele>74.0</ele><time>2026-04-24T11:01:00.093Z</time></trkpt><trkpt lat="36.4153179" lon="10.4997768"><ele>74.66666666666667</ele><time>2026-04-24T11:01:01.108Z</time></trkpt><trkpt lat="36.4153453" lon="10.4995747"><ele>75.33333333333333</ele><time>2026-04-24T11:01:02.097Z</time></trkpt><trkpt lat="36.415374" lon="10.4993677"><ele>76.0</ele><time>2026-04-24T11:01:03.102Z</time></trkpt><trkpt lat="36.4154055" lon="10.4991731"><ele>76.0</ele><time>2026-04-24T11:01:04.114Z</time></trkpt><trkpt lat="36.4154396" lon="10.4989689"><ele>76.0</ele><time>2026-04-24T11:01:05.105Z</time></trkpt><trkpt lat="36.4154704" lon="10.4987615"><ele>76.0</ele><time>2026-04-24T11:01:06.114Z</time></trkpt><trkpt lat="36.4155064" lon="10.4985593"><ele>77.0</ele><time>2026-04-24T11:01:07.101Z</time></trkpt><trkpt lat="36.4155389" lon="10.4983607"><ele>78.0</ele><time>2026-04-24T11:01:08.114Z</time></trkpt><trkpt lat="36.4155752" lon="10.4981637"><ele>79.0</ele><time>2026-04-24T11:01:09.113Z</time></trkpt><trkpt lat="36.4156129" lon="10.4979708"><ele>80.66666666666666</ele><time>2026-04-24T11:01:10.105Z</time></trkpt><trkpt lat="36.4156471" lon="10.4977798"><ele>82.33333333333333</ele><time>2026-04-24T11:01:11.105Z</time></trkpt><trkpt lat="36.4156876" lon="10.4975921"><ele>84.0</ele><time>2026-04-24T11:01:12.115Z</time></trkpt><trkpt lat="36.4157346" lon="10.4974008"><ele>84.0</ele><time>2026-04-24T11:01:13.11Z</time></trkpt><trkpt lat="36.4157816" lon="10.4972116"><ele>84.0</ele><time>2026-04-24T11:01:14.108Z</time></trkpt><trkpt lat="36.4158295" lon="10.4970246"><ele>84.0</ele><time>2026-04-24T11:01:15.103Z</time></trkpt><trkpt lat="36.4158777" lon="10.4968486"><ele>83.75</ele><time>2026-04-24T11:01:16.1Z</time></trkpt><trkpt lat="36.4159231" lon="10.496679"><ele>83.5</ele><time>2026-04-24T11:01:17.118Z</time></trkpt><trkpt lat="36.4159701" lon="10.4965235"><ele>83.25</ele><time>2026-04-24T11:01:18.125Z</time></trkpt><trkpt lat="36.4160139" lon="10.4963596"><ele>83.0</ele><time>2026-04-24T11:01:19.109Z</time></trkpt><trkpt lat="36.4160592" lon="10.4961947"><ele>82.0</ele><time>2026-04-24T11:01:20.11Z</time></trkpt><trkpt lat="36.4161042" lon="10.4960301"><ele>81.0</ele><time>2026-04-24T11:01:21.091Z</time></trkpt><trkpt lat="36.4161456" lon="10.4958664"><ele>80.0</ele><time>2026-04-24T11:01:22.078Z</time></trkpt><trkpt lat="36.4161873" lon="10.4956984"><ele>79.0</ele><time>2026-04-24T11:01:23.115Z</time></trkpt><trkpt lat="36.4162326" lon="10.4955353"><ele>79.0</ele><time>2026-04-24T11:01:24.106Z</time></trkpt><trkpt lat="36.4162748" lon="10.4953757"><ele>79.0</ele><time>2026-04-24T11:01:25.096Z</time></trkpt><trkpt lat="36.4163194" lon="10.4952141"><ele>79.0</ele><time>2026-04-24T11:01:26.112Z</time></trkpt><trkpt lat="36.4163606" lon="10.4950603"><ele>79.0</ele><time>2026-04-24T11:01:27.11Z</time></trkpt><trkpt lat="36.416393" lon="10.4949024"><ele>80.0</ele><time>2026-04-24T11:01:28.09Z</time></trkpt><trkpt lat="36.4164308" lon="10.4947467"><ele>81.0</ele><time>2026-04-24T11:01:29.11Z</time></trkpt><trkpt lat="36.4164617" lon="10.4945933"><ele>82.0</ele><time>2026-04-24T11:01:30.099Z</time></trkpt><trkpt lat="36.4164887" lon="10.4944369"><ele>83.0</ele><time>2026-04-24T11:01:31.098Z</time></trkpt><trkpt lat="36.4165071" lon="10.4942805"><ele>83.25</ele><time>2026-04-24T11:01:32.114Z</time></trkpt><trkpt lat="36.4165248" lon="10.4941219"><ele>83.5</ele><time>2026-04-24T11:01:33.102Z</time></trkpt><trkpt lat="36.416542" lon="10.4939583"><ele>83.75</ele><time>2026-04-24T11:01:34.1Z</time></trkpt><trkpt lat="36.4165547" lon="10.4937993"><ele>84.0</ele><time>2026-04-24T11:01:35.095Z</time></trkpt><trkpt lat="36.4165564" lon="10.4936376"><ele>84.25</ele><time>2026-04-24T11:01:36.101Z</time></trkpt><trkpt lat="36.4165635" lon="10.4934748"><ele>84.5</ele><time>2026-04-24T11:01:37.106Z</time></trkpt><trkpt lat="36.416568" lon="10.4933162"><ele>84.75</ele><time>2026-04-24T11:01:38.098Z</time></trkpt><trkpt lat="36.4165714" lon="10.4931541"><ele>85.0</ele><time>2026-04-24T11:01:39.103Z</time></trkpt><trkpt lat="36.4165696" lon="10.4930044"><ele>85.0</ele><time>2026-04-24T11:01:40.101Z</time></trkpt><trkpt lat="36.4165629" lon="10.492866"><ele>85.0</ele><time>2026-04-24T11:01:41.089Z</time></trkpt><trkpt lat="36.4165636" lon="10.4927237"><ele>85.0</ele><time>2026-04-24T11:01:42.11Z</time></trkpt><trkpt lat="36.4165639" lon="10.4925798"><ele>85.0</ele><time>2026-04-24T11:01:43.094Z</time></trkpt><trkpt lat="36.4165594" lon="10.4924364"><ele>85.0</ele><time>2026-04-24T11:01:44.107Z</time></trkpt><trkpt lat="36.4165586" lon="10.4922993"><ele>85.0</ele><time>2026-04-24T11:01:45.1Z</time></trkpt><trkpt lat="36.4165543" lon="10.4921533"><ele>85.0</ele><time>2026-04-24T11:01:46.115Z</time></trkpt><trkpt lat="36.4165507" lon="10.4920004"><ele>85.0</ele><time>2026-04-24T11:01:47.107Z</time></trkpt><trkpt lat="36.4165422" lon="10.4918542"><ele>84.75</ele><time>2026-04-24T11:01:48.094Z</time></trkpt><trkpt lat="36.4165422" lon="10.4916944"><ele>84.5</ele><time>2026-04-24T11:01:49.098Z</time></trkpt><trkpt lat="36.4165328" lon="10.4915385"><ele>84.25</ele><time>2026-04-24T11:01:50.093Z</time></trkpt><trkpt lat="36.4165258" lon="10.4913789"><ele>84.0</ele><time>2026-04-24T11:01:51.093Z</time></trkpt><trkpt lat="36.4165217" lon="10.491218"><ele>83.75</ele><time>2026-04-24T11:01:52.115Z</time></trkpt><trkpt lat="36.4165152" lon="10.4910588"><ele>83.5</ele><time>2026-04-24T11:01:53.1Z</time></trkpt><trkpt lat="36.416513" lon="10.4908965"><ele>83.25</ele><time>2026-04-24T11:01:54.101Z</time></trkpt><trkpt lat="36.4165058" lon="10.4907392"><ele>83.0</ele><time>2026-04-24T11:01:55.09Z</time></trkpt><trkpt lat="36.4164936" lon="10.4905824"><ele>83.0</ele><time>2026-04-24T11:01:56.099Z</time></trkpt><trkpt lat="36.4164907" lon="10.490428"><ele>83.0</ele><time>2026-04-24T11:01:57.1Z</time></trkpt><trkpt lat="36.4164848" lon="10.4902716"><ele>83.0</ele><time>2026-04-24T11:01:58.109Z</time></trkpt><trkpt lat="36.4164805" lon="10.490111"><ele>83.0</ele><time>2026-04-24T11:01:59.112Z</time></trkpt><trkpt lat="36.4164735" lon="10.4899506"><ele>82.25</ele><time>2026-04-24T11:02:00.098Z</time></trkpt><trkpt lat="36.4164724" lon="10.4897927"><ele>81.5</ele><time>2026-04-24T11:02:01.111Z</time></trkpt><trkpt lat="36.4164734" lon="10.4896368"><ele>80.75</ele><time>2026-04-24T11:02:02.097Z</time></trkpt><trkpt lat="36.416471" lon="10.4894782"><ele>80.0</ele><time>2026-04-24T11:02:03.095Z</time></trkpt><trkpt lat="36.4164691" lon="10.4893217"><ele>79.25</ele><time>2026-04-24T11:02:04.108Z</time></trkpt><trkpt lat="36.4164642" lon="10.4891627"><ele>78.5</ele><time>2026-04-24T11:02:05.101Z</time></trkpt><trkpt lat="36.4164618" lon="10.4889975"><ele>77.75</ele><time>2026-04-24T11:02:06.102Z</time></trkpt><trkpt lat="36.4164561" lon="10.4888319"><ele>77.0</ele><time>2026-04-24T11:02:07.103Z</time></trkpt><trkpt lat="36.4164514" lon="10.4886648"><ele>76.75</ele><time>2026-04-24T11:02:08.112Z</time></trkpt><trkpt lat="36.4164481" lon="10.4884935"><ele>76.5</ele><time>2026-04-24T11:02:09.098Z</time></trkpt><trkpt lat="36.4164431" lon="10.488314"><ele>76.25</ele><time>2026-04-24T11:02:10.084Z</time></trkpt><trkpt lat="36.4164363" lon="10.4881401"><ele>76.0</ele><time>2026-04-24T11:02:11.086Z</time></trkpt><trkpt lat="36.4164294" lon="10.4879739"><ele>76.0</ele><time>2026-04-24T11:02:12.098Z</time></trkpt><trkpt lat="36.4164279" lon="10.4877996"><ele>76.0</ele><time>2026-04-24T11:02:13.129Z</time></trkpt><trkpt lat="36.4164213" lon="10.4876254"><ele>76.0</ele><time>2026-04-24T11:02:14.096Z</time></trkpt><trkpt lat="36.4164139" lon="10.4874409"><ele>76.0</ele><time>2026-04-24T11:02:15.091Z</time></trkpt><trkpt lat="36.4164051" lon="10.4872524"><ele>75.33333333333333</ele><time>2026-04-24T11:02:16.105Z</time></trkpt><trkpt lat="36.4164001" lon="10.4870606"><ele>74.66666666666667</ele><time>2026-04-24T11:02:17.107Z</time></trkpt><trkpt lat="36.4164003" lon="10.4868662"><ele>74.0</ele><time>2026-04-24T11:02:18.101Z</time></trkpt><trkpt lat="36.4163971" lon="10.4866769"><ele>74.0</ele><time>2026-04-24T11:02:19.101Z</time></trkpt><trkpt lat="36.4163873" lon="10.4864846"><ele>74.0</ele><time>2026-04-24T11:02:20.11Z</time></trkpt><trkpt lat="36.4163836" lon="10.4862924"><ele>74.0</ele><time>2026-04-24T11:02:21.116Z</time></trkpt><trkpt lat="36.4163771" lon="10.4861049"><ele>73.75</ele><time>2026-04-24T11:02:22.102Z</time></trkpt><trkpt lat="36.4163722" lon="10.4859198"><ele>73.5</ele><time>2026-04-24T11:02:23.105Z</time></trkpt><trkpt lat="36.4163651" lon="10.4857321"><ele>73.25</ele><time>2026-04-24T11:02:24.101Z</time></trkpt><trkpt lat="36.4163582" lon="10.4855485"><ele>73.0</ele><time>2026-04-24T11:02:25.115Z</time></trkpt><trkpt lat="36.4163575" lon="10.4853626"><ele>72.33333333333333</ele><time>2026-04-24T11:02:26.089Z</time></trkpt><trkpt lat="36.4163555" lon="10.4851721"><ele>71.66666666666667</ele><time>2026-04-24T11:02:27.099Z</time></trkpt><trkpt lat="36.4163544" lon="10.4849812"><ele>71.0</ele><time>2026-04-24T11:02:28.11Z</time></trkpt><trkpt lat="36.4163478" lon="10.4847946"><ele>71.0</ele><time>2026-04-24T11:02:29.11Z</time></trkpt><trkpt lat="36.4163423" lon="10.4846069"><ele>71.0</ele><time>2026-04-24T11:02:30.101Z</time></trkpt><trkpt lat="36.4163366" lon="10.4844176"><ele>71.0</ele><time>2026-04-24T11:02:31.097Z</time></trkpt><trkpt lat="36.4163332" lon="10.4842241"><ele>70.33333333333334</ele><time>2026-04-24T11:02:32.097Z</time></trkpt><trkpt lat="36.4163246" lon="10.4840317"><ele>69.66666666666667</ele><time>2026-04-24T11:02:33.106Z</time></trkpt><trkpt lat="36.416319" lon="10.4838385"><ele>69.0</ele><time>2026-04-24T11:02:34.096Z</time></trkpt><trkpt lat="36.4163129" lon="10.4836411"><ele>67.66666666666667</ele><time>2026-04-24T11:02:35.1Z</time></trkpt><trkpt lat="36.4163071" lon="10.4834447"><ele>66.33333333333334</ele><time>2026-04-24T11:02:36.098Z</time></trkpt><trkpt lat="36.4163009" lon="10.483254"><ele>65.0</ele><time>2026-04-24T11:02:37.102Z</time></trkpt><trkpt lat="36.4162957" lon="10.4830633"><ele>64.33333333333334</ele><time>2026-04-24T11:02:38.098Z</time></trkpt><trkpt lat="36.4162927" lon="10.4828668"><ele>63.66666666666667</ele><time>2026-04-24T11:02:39.113Z</time></trkpt><trkpt lat="36.4162886" lon="10.4826784"><ele>63.0</ele><time>2026-04-24T11:02:40.099Z</time></trkpt><trkpt lat="36.4162824" lon="10.4824856"><ele>63.0</ele><time>2026-04-24T11:02:41.091Z</time></trkpt><trkpt lat="36.416275" lon="10.4822894"><ele>63.0</ele><time>2026-04-24T11:02:42.096Z</time></trkpt><trkpt lat="36.4162711" lon="10.4820889"><ele>63.0</ele><time>2026-04-24T11:02:43.099Z</time></trkpt><trkpt lat="36.4162664" lon="10.481879"><ele>62.66666666666667</ele><time>2026-04-24T11:02:44.107Z</time></trkpt><trkpt lat="36.4162653" lon="10.4816733"><ele>62.333333333333336</ele><time>2026-04-24T11:02:45.098Z</time></trkpt><trkpt lat="36.4162611" lon="10.4814699"><ele>62.0</ele><time>2026-04-24T11:02:46.107Z</time></trkpt><trkpt lat="36.4162556" lon="10.4812642"><ele>61.66666666666667</ele><time>2026-04-24T11:02:47.111Z</time></trkpt><trkpt lat="36.4162465" lon="10.4810643"><ele>61.33333333333333</ele><time>2026-04-24T11:02:48.099Z</time></trkpt><trkpt lat="36.4162379" lon="10.480861"><ele>61.0</ele><time>2026-04-24T11:02:49.089Z</time></trkpt><trkpt lat="36.416232" lon="10.4806757"><ele>61.0</ele><time>2026-04-24T11:02:50.1Z</time></trkpt><trkpt lat="36.4162252" lon="10.4804945"><ele>61.0</ele><time>2026-04-24T11:02:51.104Z</time></trkpt><trkpt lat="36.4162216" lon="10.4803137"><ele>61.0</ele><time>2026-04-24T11:02:52.102Z</time></trkpt><trkpt lat="36.4162211" lon="10.4801312"><ele>61.0</ele><time>2026-04-24T11:02:53.101Z</time></trkpt><trkpt lat="36.4162166" lon="10.4799485"><ele>60.666666666666664</ele><time>2026-04-24T11:02:54.105Z</time></trkpt><trkpt lat="36.4162114" lon="10.4797596"><ele>60.33333333333333</ele><time>2026-04-24T11:02:55.106Z</time></trkpt><trkpt lat="36.4162057" lon="10.4795661"><ele>60.0</ele><time>2026-04-24T11:02:56.097Z</time></trkpt><trkpt lat="36.4162008" lon="10.4793699"><ele>59.66666666666667</ele><time>2026-04-24T11:02:57.1Z</time></trkpt><trkpt lat="36.4161933" lon="10.4791763"><ele>59.333333333333336</ele><time>2026-04-24T11:02:58.111Z</time></trkpt><trkpt lat="36.4161834" lon="10.4789835"><ele>59.0</ele><time>2026-04-24T11:02:59.105Z</time></trkpt><trkpt lat="36.4161775" lon="10.4787771"><ele>58.333333333333336</ele><time>2026-04-24T11:03:00.089Z</time></trkpt><trkpt lat="36.4161677" lon="10.4785653"><ele>57.66666666666667</ele><time>2026-04-24T11:03:01.101Z</time></trkpt><trkpt lat="36.4161583" lon="10.4783483"><ele>57.0</ele><time>2026-04-24T11:03:02.104Z</time></trkpt><trkpt lat="36.4161481" lon="10.4781374"><ele>57.33333333333333</ele><time>2026-04-24T11:03:03.098Z</time></trkpt><trkpt lat="36.4161329" lon="10.477924"><ele>57.666666666666664</ele><time>2026-04-24T11:03:04.097Z</time></trkpt><trkpt lat="36.416123" lon="10.4777089"><ele>58.0</ele><time>2026-04-24T11:03:05.096Z</time></trkpt><trkpt lat="36.4161161" lon="10.4774951"><ele>58.0</ele><time>2026-04-24T11:03:06.112Z</time></trkpt><trkpt lat="36.4161106" lon="10.47728"><ele>58.0</ele><time>2026-04-24T11:03:07.11Z</time></trkpt><trkpt lat="36.4161101" lon="10.4770713"><ele>58.0</ele><time>2026-04-24T11:03:08.103Z</time></trkpt><trkpt lat="36.4161136" lon="10.4768584"><ele>58.0</ele><time>2026-04-24T11:03:09.086Z</time></trkpt><trkpt lat="36.4161202" lon="10.4766492"><ele>58.0</ele><time>2026-04-24T11:03:10.108Z</time></trkpt><trkpt lat="36.4161323" lon="10.476442"><ele>58.0</ele><time>2026-04-24T11:03:11.108Z</time></trkpt><trkpt lat="36.4161379" lon="10.4762419"><ele>58.0</ele><time>2026-04-24T11:03:12.093Z</time></trkpt><trkpt lat="36.4161477" lon="10.4760383"><ele>58.0</ele><time>2026-04-24T11:03:13.104Z</time></trkpt><trkpt lat="36.4161546" lon="10.4758385"><ele>58.0</ele><time>2026-04-24T11:03:14.084Z</time></trkpt><trkpt lat="36.4161608" lon="10.4756395"><ele>57.666666666666664</ele><time>2026-04-24T11:03:15.095Z</time></trkpt><trkpt lat="36.4161627" lon="10.4754317"><ele>57.33333333333333</ele><time>2026-04-24T11:03:16.115Z</time></trkpt><trkpt lat="36.4161684" lon="10.4752215"><ele>57.0</ele><time>2026-04-24T11:03:17.104Z</time></trkpt><trkpt lat="36.4161819" lon="10.4750185"><ele>57.0</ele><time>2026-04-24T11:03:18.115Z</time></trkpt><trkpt lat="36.4161907" lon="10.4748144"><ele>57.0</ele><time>2026-04-24T11:03:19.096Z</time></trkpt><trkpt lat="36.4161942" lon="10.4746069"><ele>57.0</ele><time>2026-04-24T11:03:20.096Z</time></trkpt><trkpt lat="36.4161913" lon="10.4744067"><ele>56.66666666666667</ele><time>2026-04-24T11:03:21.105Z</time></trkpt><trkpt lat="36.4161972" lon="10.4742094"><ele>56.333333333333336</ele><time>2026-04-24T11:03:22.094Z</time></trkpt><trkpt lat="36.4162034" lon="10.4740032"><ele>56.0</ele><time>2026-04-24T11:03:23.103Z</time></trkpt><trkpt lat="36.4162092" lon="10.4738057"><ele>56.333333333333336</ele><time>2026-04-24T11:03:24.099Z</time></trkpt><trkpt lat="36.4162178" lon="10.4736048"><ele>56.66666666666667</ele><time>2026-04-24T11:03:25.097Z</time></trkpt><trkpt lat="36.4162293" lon="10.4734017"><ele>57.0</ele><time>2026-04-24T11:03:26.107Z</time></trkpt><trkpt lat="36.4162394" lon="10.473197"><ele>57.0</ele><time>2026-04-24T11:03:27.098Z</time></trkpt><trkpt lat="36.4162531" lon="10.4729893"><ele>57.0</ele><time>2026-04-24T11:03:28.103Z</time></trkpt><trkpt lat="36.416258" lon="10.4727751"><ele>57.0</ele><time>2026-04-24T11:03:29.089Z</time></trkpt><trkpt lat="36.4162661" lon="10.4725538"><ele>58.0</ele><time>2026-04-24T11:03:30.117Z</time></trkpt><trkpt lat="36.4162736" lon="10.472334"><ele>59.0</ele><time>2026-04-24T11:03:31.097Z</time></trkpt><trkpt lat="36.4162823" lon="10.472115"><ele>60.0</ele><time>2026-04-24T11:03:32.098Z</time></trkpt><trkpt lat="36.4162884" lon="10.4718928"><ele>61.0</ele><time>2026-04-24T11:03:33.102Z</time></trkpt><trkpt lat="36.4162953" lon="10.4716682"><ele>62.0</ele><time>2026-04-24T11:03:34.098Z</time></trkpt><trkpt lat="36.4163" lon="10.4714488"><ele>63.0</ele><time>2026-04-24T11:03:35.107Z</time></trkpt><trkpt lat="36.4163102" lon="10.4712261"><ele>64.33333333333333</ele><time>2026-04-24T11:03:36.102Z</time></trkpt><trkpt lat="36.4163244" lon="10.4710013"><ele>65.66666666666666</ele><time>2026-04-24T11:03:37.092Z</time></trkpt><trkpt lat="36.4163343" lon="10.4707694"><ele>67.0</ele><time>2026-04-24T11:03:38.109Z</time></trkpt><trkpt lat="36.4163388" lon="10.470545"><ele>68.0</ele><time>2026-04-24T11:03:39.09Z</time></trkpt><trkpt lat="36.4163418" lon="10.4703116"><ele>69.0</ele><time>2026-04-24T11:03:40.1Z</time></trkpt><trkpt lat="36.4163508" lon="10.4700728"><ele>70.0</ele><time>2026-04-24T11:03:41.106Z</time></trkpt><trkpt lat="36.4163658" lon="10.4698302"><ele>70.66666666666666</ele><time>2026-04-24T11:03:42.107Z</time></trkpt><trkpt lat="36.416381" lon="10.4695909"><ele>71.33333333333333</ele><time>2026-04-24T11:03:43.106Z</time></trkpt><trkpt lat="36.4163979" lon="10.469347"><ele>72.0</ele><time>2026-04-24T11:03:44.1Z</time></trkpt><trkpt lat="36.4164141" lon="10.4691072"><ele>72.0</ele><time>2026-04-24T11:03:45.093Z</time></trkpt><trkpt lat="36.41643" lon="10.4688718"><ele>72.0</ele><time>2026-04-24T11:03:46.085Z</time></trkpt><trkpt lat="36.4164431" lon="10.4686375"><ele>72.0</ele><time>2026-04-24T11:03:47.102Z</time></trkpt><trkpt lat="36.416458" lon="10.4684022"><ele>71.66666666666667</ele><time>2026-04-24T11:03:48.102Z</time></trkpt><trkpt lat="36.4164758" lon="10.4681699"><ele>71.33333333333334</ele><time>2026-04-24T11:03:49.103Z</time></trkpt><trkpt lat="36.4164946" lon="10.4679331"><ele>71.0</ele><time>2026-04-24T11:03:50.112Z</time></trkpt><trkpt lat="36.4165117" lon="10.4676993"><ele>70.66666666666667</ele><time>2026-04-24T11:03:51.101Z</time></trkpt><trkpt lat="36.4165329" lon="10.4674694"><ele>70.33333333333333</ele><time>2026-04-24T11:03:52.101Z</time></trkpt><trkpt lat="36.4165544" lon="10.4672403"><ele>70.0</ele><time>2026-04-24T11:03:53.097Z</time></trkpt><trkpt lat="36.4165709" lon="10.4670231"><ele>69.0</ele><time>2026-04-24T11:03:54.101Z</time></trkpt><trkpt lat="36.4165865" lon="10.4668065"><ele>68.0</ele><time>2026-04-24T11:03:55.112Z</time></trkpt><trkpt lat="36.4166008" lon="10.4665825"><ele>67.0</ele><time>2026-04-24T11:03:56.088Z</time></trkpt><trkpt lat="36.4166175" lon="10.4663625"><ele>66.0</ele><time>2026-04-24T11:03:57.095Z</time></trkpt><trkpt lat="36.4166351" lon="10.4661434"><ele>65.0</ele><time>2026-04-24T11:03:58.103Z</time></trkpt><trkpt lat="36.4166532" lon="10.4659173"><ele>64.0</ele><time>2026-04-24T11:03:59.105Z</time></trkpt><trkpt lat="36.4166666" lon="10.4657017"><ele>64.0</ele><time>2026-04-24T11:04:00.089Z</time></trkpt><trkpt lat="36.4166801" lon="10.4654951"><ele>64.0</ele><time>2026-04-24T11:04:01.111Z</time></trkpt><trkpt lat="36.4166983" lon="10.4652904"><ele>64.0</ele><time>2026-04-24T11:04:02.105Z</time></trkpt><trkpt lat="36.4167115" lon="10.4650952"><ele>63.666666666666664</ele><time>2026-04-24T11:04:03.104Z</time></trkpt><trkpt lat="36.416726" lon="10.4648931"><ele>63.33333333333333</ele><time>2026-04-24T11:04:04.099Z</time></trkpt><trkpt lat="36.416742" lon="10.4646997"><ele>63.0</ele><time>2026-04-24T11:04:05.088Z</time></trkpt><trkpt lat="36.4167534" lon="10.4645086"><ele>62.5</ele><time>2026-04-24T11:04:06.104Z</time></trkpt><trkpt lat="36.4167631" lon="10.4643236"><ele>62.0</ele><time>2026-04-24T11:04:07.097Z</time></trkpt><trkpt lat="36.4167705" lon="10.4641487"><ele>61.5</ele><time>2026-04-24T11:04:08.105Z</time></trkpt><trkpt lat="36.4167826" lon="10.4639782"><ele>61.0</ele><time>2026-04-24T11:04:09.106Z</time></trkpt><trkpt lat="36.4167977" lon="10.463803"><ele>60.5</ele><time>2026-04-24T11:04:10.101Z</time></trkpt><trkpt lat="36.4168138" lon="10.4636272"><ele>60.0</ele><time>2026-04-24T11:04:11.086Z</time></trkpt><trkpt lat="36.4168288" lon="10.4634474"><ele>59.5</ele><time>2026-04-24T11:04:12.105Z</time></trkpt><trkpt lat="36.4168442" lon="10.4632718"><ele>59.0</ele><time>2026-04-24T11:04:13.104Z</time></trkpt><trkpt lat="36.4168486" lon="10.4630926"><ele>59.25</ele><time>2026-04-24T11:04:14.104Z</time></trkpt><trkpt lat="36.416852" lon="10.4629173"><ele>59.5</ele><time>2026-04-24T11:04:15.097Z</time></trkpt><trkpt lat="36.4168471" lon="10.4627454"><ele>59.75</ele><time>2026-04-24T11:04:16.1Z</time></trkpt><trkpt lat="36.4168428" lon="10.4625715"><ele>60.0</ele><time>2026-04-24T11:04:17.101Z</time></trkpt><trkpt lat="36.4168277" lon="10.4624064"><ele>60.0</ele><time>2026-04-24T11:04:18.096Z</time></trkpt><trkpt lat="36.41681" lon="10.4622417"><ele>60.0</ele><time>2026-04-24T11:04:19.094Z</time></trkpt><trkpt lat="36.4167899" lon="10.4620926"><ele>60.0</ele><time>2026-04-24T11:04:20.123Z</time></trkpt><trkpt lat="36.416768" lon="10.4619541"><ele>60.0</ele><time>2026-04-24T11:04:21.093Z</time></trkpt><trkpt lat="36.4167501" lon="10.4618283"><ele>59.6</ele><time>2026-04-24T11:04:22.113Z</time></trkpt><trkpt lat="36.4167323" lon="10.4617058"><ele>59.2</ele><time>2026-04-24T11:04:23.101Z</time></trkpt><trkpt lat="36.4167155" lon="10.4615885"><ele>58.8</ele><time>2026-04-24T11:04:24.094Z</time></trkpt><trkpt lat="36.4166989" lon="10.461471"><ele>58.4</ele><time>2026-04-24T11:04:25.095Z</time></trkpt><trkpt lat="36.4166805" lon="10.4613493"><ele>58.0</ele><time>2026-04-24T11:04:26.086Z</time></trkpt><trkpt lat="36.4166595" lon="10.4612323"><ele>57.83333333333333</ele><time>2026-04-24T11:04:27.106Z</time></trkpt><trkpt lat="36.4166382" lon="10.461122"><ele>57.666666666666664</ele><time>2026-04-24T11:04:28.107Z</time></trkpt><trkpt lat="36.4166202" lon="10.4610018"><ele>57.5</ele><time>2026-04-24T11:04:29.101Z</time></trkpt><trkpt lat="36.416605" lon="10.4608982"><ele>57.33333333333333</ele><time>2026-04-24T11:04:30.086Z</time></trkpt><trkpt lat="36.4165863" lon="10.4607922"><ele>57.166666666666664</ele><time>2026-04-24T11:04:31.096Z</time></trkpt><trkpt lat="36.4165689" lon="10.4606929"><ele>57.0</ele><time>2026-04-24T11:04:32.1Z</time></trkpt><trkpt lat="36.4165499" lon="10.4606002"><ele>57.0</ele><time>2026-04-24T11:04:33.088Z</time></trkpt><trkpt lat="36.4165382" lon="10.4605111"><ele>57.0</ele><time>2026-04-24T11:04:34.101Z</time></trkpt><trkpt lat="36.4165092" lon="10.4603819"><ele>57.0</ele><time>2026-04-24T11:04:36.106Z</time></trkpt><trkpt lat="36.4164905" lon="10.4602593"><ele>57.0</ele><time>2026-04-24T11:04:38.086Z</time></trkpt><trkpt lat="36.416475" lon="10.4601816"><ele>57.0</ele><time>2026-04-24T11:04:39.09Z</time></trkpt><trkpt lat="36.4164597" lon="10.460092"><ele>57.0</ele><time>2026-04-24T11:04:40.103Z</time></trkpt><trkpt lat="36.416444" lon="10.4599926"><ele>56.833333333333336</ele><time>2026-04-24T11:04:41.111Z</time></trkpt><trkpt lat="36.4164299" lon="10.4598904"><ele>56.66666666666667</ele><time>2026-04-24T11:04:42.108Z</time></trkpt><trkpt lat="36.4164181" lon="10.4597928"><ele>56.5</ele><time>2026-04-24T11:04:43.105Z</time></trkpt><trkpt lat="36.4164025" lon="10.45969"><ele>56.333333333333336</ele><time>2026-04-24T11:04:44.107Z</time></trkpt><trkpt lat="36.4163877" lon="10.4595891"><ele>56.16666666666667</ele><time>2026-04-24T11:04:45.108Z</time></trkpt><trkpt lat="36.4163783" lon="10.4594905"><ele>56.0</ele><time>2026-04-24T11:04:46.086Z</time></trkpt><trkpt lat="36.4163659" lon="10.459406"><ele>56.0</ele><time>2026-04-24T11:04:47.086Z</time></trkpt><trkpt lat="36.4163542" lon="10.4593198"><ele>56.0</ele><time>2026-04-24T11:04:48.109Z</time></trkpt><trkpt lat="36.4163433" lon="10.4592328"><ele>56.0</ele><time>2026-04-24T11:04:49.102Z</time></trkpt><trkpt lat="36.4163375" lon="10.4591513"><ele>56.0</ele><time>2026-04-24T11:04:50.106Z</time></trkpt><trkpt lat="36.4163241" lon="10.4590609"><ele>56.0</ele><time>2026-04-24T11:04:51.095Z</time></trkpt><trkpt lat="36.4163131" lon="10.4589663"><ele>56.0</ele><time>2026-04-24T11:04:52.093Z</time></trkpt><trkpt lat="36.4162982" lon="10.4588664"><ele>56.0</ele><time>2026-04-24T11:04:53.096Z</time></trkpt><trkpt lat="36.4162804" lon="10.458768"><ele>55.50000000000001</ele><time>2026-04-24T11:04:54.096Z</time></trkpt><trkpt lat="36.4162616" lon="10.4586669"><ele>55.0</ele><time>2026-04-24T11:04:55.107Z</time></trkpt><trkpt lat="36.4162421" lon="10.4585643"><ele>54.5</ele><time>2026-04-24T11:04:56.096Z</time></trkpt><trkpt lat="36.4162239" lon="10.4584736"><ele>54.0</ele><time>2026-04-24T11:04:57.089Z</time></trkpt><trkpt lat="36.416208" lon="10.4583929"><ele>53.50000000000001</ele><time>2026-04-24T11:04:58.125Z</time></trkpt><trkpt lat="36.4162134" lon="10.4583018"><ele>53.0</ele><time>2026-04-24T11:05:06.096Z</time></trkpt><trkpt lat="36.4161961" lon="10.4582035"><ele>53.00000000000001</ele><time>2026-04-24T11:05:09.1Z</time></trkpt><trkpt lat="36.4161663" lon="10.4580707"><ele>53.0</ele><time>2026-04-24T11:05:11.087Z</time></trkpt><trkpt lat="36.4161542" lon="10.4579839"><ele>53.0</ele><time>2026-04-24T11:05:12.104Z</time></trkpt><trkpt lat="36.4161427" lon="10.457902"><ele>53.0</ele><time>2026-04-24T11:05:13.097Z</time></trkpt><trkpt lat="36.4161263" lon="10.457816"><ele>53.00000000000001</ele><time>2026-04-24T11:05:14.092Z</time></trkpt><trkpt lat="36.4161096" lon="10.4577326"><ele>53.0</ele><time>2026-04-24T11:05:15.097Z</time></trkpt><trkpt lat="36.4160947" lon="10.4576475"><ele>53.285714285714285</ele><time>2026-04-24T11:05:16.099Z</time></trkpt><trkpt lat="36.4160823" lon="10.4575576"><ele>53.57142857142857</ele><time>2026-04-24T11:05:17.102Z</time></trkpt><trkpt lat="36.4160734" lon="10.4574695"><ele>53.857142857142854</ele><time>2026-04-24T11:05:18.099Z</time></trkpt><trkpt lat="36.4160741" lon="10.457391"><ele>54.14285714285714</ele><time>2026-04-24T11:05:19.092Z</time></trkpt><trkpt lat="36.4160887" lon="10.4573108"><ele>54.42857142857143</ele><time>2026-04-24T11:05:20.102Z</time></trkpt><trkpt lat="36.4161171" lon="10.457235"><ele>54.71428571428571</ele><time>2026-04-24T11:05:21.102Z</time></trkpt><trkpt lat="36.4161607" lon="10.4571584"><ele>55.0</ele><time>2026-04-24T11:05:22.118Z</time></trkpt><trkpt lat="36.4162147" lon="10.4570888"><ele>55.49999999999999</ele><time>2026-04-24T11:05:23.095Z</time></trkpt><trkpt lat="36.416272" lon="10.4570207"><ele>56.0</ele><time>2026-04-24T11:05:24.094Z</time></trkpt><trkpt lat="36.4163254" lon="10.4569499"><ele>56.5</ele><time>2026-04-24T11:05:25.1Z</time></trkpt><trkpt lat="36.4163786" lon="10.4568835"><ele>57.0</ele><time>2026-04-24T11:05:26.096Z</time></trkpt><trkpt lat="36.4164358" lon="10.4568136"><ele>57.49999999999999</ele><time>2026-04-24T11:05:27.098Z</time></trkpt><trkpt lat="36.4164908" lon="10.4567451"><ele>58.0</ele><time>2026-04-24T11:05:28.103Z</time></trkpt><trkpt lat="36.4165444" lon="10.4566752"><ele>58.571428571428584</ele><time>2026-04-24T11:05:29.102Z</time></trkpt><trkpt lat="36.4165997" lon="10.4566128"><ele>59.142857142857146</ele><time>2026-04-24T11:05:30.108Z</time></trkpt><trkpt lat="36.4166507" lon="10.4565509"><ele>59.71428571428572</ele><time>2026-04-24T11:05:31.106Z</time></trkpt><trkpt lat="36.4166986" lon="10.4564887"><ele>60.28571428571429</ele><time>2026-04-24T11:05:32.087Z</time></trkpt><trkpt lat="36.4167522" lon="10.4564302"><ele>60.85714285714286</ele><time>2026-04-24T11:05:33.094Z</time></trkpt><trkpt lat="36.4168056" lon="10.4563641"><ele>61.42857142857143</ele><time>2026-04-24T11:05:34.103Z</time></trkpt><trkpt lat="36.4168579" lon="10.4562971"><ele>62.0</ele><time>2026-04-24T11:05:35.091Z</time></trkpt><trkpt lat="36.4169104" lon="10.4562354"><ele>63.333333333333336</ele><time>2026-04-24T11:05:36.118Z</time></trkpt><trkpt lat="36.4169655" lon="10.4561734"><ele>64.66666666666667</ele><time>2026-04-24T11:05:37.094Z</time></trkpt><trkpt lat="36.4170171" lon="10.4561105"><ele>66.0</ele><time>2026-04-24T11:05:38.099Z</time></trkpt><trkpt lat="36.4170646" lon="10.4560345"><ele>67.33333333333333</ele><time>2026-04-24T11:05:39.097Z</time></trkpt><trkpt lat="36.4170961" lon="10.4559438"><ele>68.66666666666666</ele><time>2026-04-24T11:05:40.096Z</time></trkpt><trkpt lat="36.4171028" lon="10.4558421"><ele>70.0</ele><time>2026-04-24T11:05:41.1Z</time></trkpt><trkpt lat="36.4170941" lon="10.4557428"><ele>70.0</ele><time>2026-04-24T11:05:42.088Z</time></trkpt><trkpt lat="36.4170792" lon="10.4556413"><ele>70.0</ele><time>2026-04-24T11:05:43.101Z</time></trkpt><trkpt lat="36.4170561" lon="10.4555382"><ele>70.0</ele><time>2026-04-24T11:05:44.1Z</time></trkpt><trkpt lat="36.4170315" lon="10.4554465"><ele>70.0</ele><time>2026-04-24T11:05:45.101Z</time></trkpt><trkpt lat="36.4170084" lon="10.4553465"><ele>70.0</ele><time>2026-04-24T11:05:46.087Z</time></trkpt><trkpt lat="36.4169927" lon="10.455251"><ele>70.0</ele><time>2026-04-24T11:05:47.083Z</time></trkpt><trkpt lat="36.4169794" lon="10.45516"><ele>71.0</ele><time>2026-04-24T11:05:48.093Z</time></trkpt><trkpt lat="36.4169854" lon="10.4550675"><ele>72.0</ele><time>2026-04-24T11:05:49.083Z</time></trkpt><trkpt lat="36.4170014" lon="10.4549775"><ele>73.0</ele><time>2026-04-24T11:05:50.091Z</time></trkpt><trkpt lat="36.4170143" lon="10.4548919"><ele>74.0</ele><time>2026-04-24T11:05:51.1Z</time></trkpt><trkpt lat="36.4170304" lon="10.4547985"><ele>75.0</ele><time>2026-04-24T11:05:52.099Z</time></trkpt><trkpt lat="36.4170493" lon="10.454708"><ele>76.0</ele><time>2026-04-24T11:05:53.096Z</time></trkpt><trkpt lat="36.4170719" lon="10.4546129"><ele>76.5</ele><time>2026-04-24T11:05:54.109Z</time></trkpt><trkpt lat="36.4171029" lon="10.4545208"><ele>77.0</ele><time>2026-04-24T11:05:55.093Z</time></trkpt><trkpt lat="36.4171421" lon="10.4544271"><ele>77.5</ele><time>2026-04-24T11:05:56.104Z</time></trkpt><trkpt lat="36.417183" lon="10.454338"><ele>78.0</ele><time>2026-04-24T11:05:57.088Z</time></trkpt><trkpt lat="36.4172295" lon="10.4542443"><ele>78.5</ele><time>2026-04-24T11:05:58.108Z</time></trkpt><trkpt lat="36.4172754" lon="10.4541511"><ele>79.0</ele><time>2026-04-24T11:05:59.106Z</time></trkpt><trkpt lat="36.4173313" lon="10.4540464"><ele>77.25</ele><time>2026-04-24T11:06:00.092Z</time></trkpt><trkpt lat="36.4173931" lon="10.4539282"><ele>75.5</ele><time>2026-04-24T11:06:01.093Z</time></trkpt><trkpt lat="36.4174548" lon="10.4537925"><ele>73.75</ele><time>2026-04-24T11:06:02.091Z</time></trkpt><trkpt lat="36.4175109" lon="10.4536564"><ele>72.0</ele><time>2026-04-24T11:06:03.1Z</time></trkpt><trkpt lat="36.4175578" lon="10.4535087"><ele>72.0</ele><time>2026-04-24T11:06:04.139Z</time></trkpt><trkpt lat="36.4175949" lon="10.4533584"><ele>72.0</ele><time>2026-04-24T11:06:05.099Z</time></trkpt><trkpt lat="36.4176341" lon="10.453206"><ele>72.0</ele><time>2026-04-24T11:06:06.086Z</time></trkpt><trkpt lat="36.4176719" lon="10.4530491"><ele>72.0</ele><time>2026-04-24T11:06:07.098Z</time></trkpt><trkpt lat="36.4177083" lon="10.4528921"><ele>72.25</ele><time>2026-04-24T11:06:08.101Z</time></trkpt><trkpt lat="36.4177477" lon="10.4527372"><ele>72.5</ele><time>2026-04-24T11:06:09.09Z</time></trkpt><trkpt lat="36.4177893" lon="10.4525824"><ele>72.75</ele><time>2026-04-24T11:06:10.095Z</time></trkpt><trkpt lat="36.4178325" lon="10.4524307"><ele>73.0</ele><time>2026-04-24T11:06:11.115Z</time></trkpt><trkpt lat="36.4178714" lon="10.4522892"><ele>73.0</ele><time>2026-04-24T11:06:12.093Z</time></trkpt><trkpt lat="36.417911" lon="10.4521525"><ele>73.0</ele><time>2026-04-24T11:06:13.1Z</time></trkpt><trkpt lat="36.4179453" lon="10.4520246"><ele>73.0</ele><time>2026-04-24T11:06:14.096Z</time></trkpt><trkpt lat="36.417975" lon="10.4519025"><ele>73.0</ele><time>2026-04-24T11:06:15.097Z</time></trkpt><trkpt lat="36.4180006" lon="10.4517883"><ele>73.0</ele><time>2026-04-24T11:06:16.098Z</time></trkpt><trkpt lat="36.4180248" lon="10.4516822"><ele>71.0</ele><time>2026-04-24T11:06:17.113Z</time></trkpt><trkpt lat="36.4180519" lon="10.4515722"><ele>69.0</ele><time>2026-04-24T11:06:18.099Z</time></trkpt><trkpt lat="36.4180743" lon="10.45146"><ele>67.0</ele><time>2026-04-24T11:06:19.104Z</time></trkpt><trkpt lat="36.4180988" lon="10.4513411"><ele>65.0</ele><time>2026-04-24T11:06:20.105Z</time></trkpt><trkpt lat="36.4181226" lon="10.451222"><ele>63.0</ele><time>2026-04-24T11:06:21.124Z</time></trkpt><trkpt lat="36.4181475" lon="10.4510946"><ele>63.0</ele><time>2026-04-24T11:06:22.096Z</time></trkpt><trkpt lat="36.4181742" lon="10.4509565"><ele>63.0</ele><time>2026-04-24T11:06:23.104Z</time></trkpt><trkpt lat="36.418199" lon="10.4508103"><ele>63.0</ele><time>2026-04-24T11:06:24.115Z</time></trkpt><trkpt lat="36.4182264" lon="10.4506534"><ele>63.0</ele><time>2026-04-24T11:06:25.115Z</time></trkpt><trkpt lat="36.4182545" lon="10.45048"><ele>63.33333333333333</ele><time>2026-04-24T11:06:26.095Z</time></trkpt><trkpt lat="36.4182832" lon="10.450292"><ele>63.666666666666664</ele><time>2026-04-24T11:06:27.109Z</time></trkpt><trkpt lat="36.418315" lon="10.4500983"><ele>64.0</ele><time>2026-04-24T11:06:28.107Z</time></trkpt><trkpt lat="36.4183501" lon="10.4498934"><ele>64.0</ele><time>2026-04-24T11:06:29.101Z</time></trkpt><trkpt lat="36.41838" lon="10.4496904"><ele>64.0</ele><time>2026-04-24T11:06:30.097Z</time></trkpt><trkpt lat="36.418412" lon="10.4494853"><ele>64.0</ele><time>2026-04-24T11:06:31.097Z</time></trkpt><trkpt lat="36.4184462" lon="10.4492754"><ele>64.0</ele><time>2026-04-24T11:06:32.103Z</time></trkpt><trkpt lat="36.4184792" lon="10.4490735"><ele>64.0</ele><time>2026-04-24T11:06:33.098Z</time></trkpt><trkpt lat="36.418512" lon="10.4488702"><ele>64.0</ele><time>2026-04-24T11:06:34.116Z</time></trkpt><trkpt lat="36.4185498" lon="10.4486625"><ele>64.33333333333333</ele><time>2026-04-24T11:06:35.099Z</time></trkpt><trkpt lat="36.4185818" lon="10.4484635"><ele>64.66666666666667</ele><time>2026-04-24T11:06:36.108Z</time></trkpt><trkpt lat="36.4186179" lon="10.4482542"><ele>65.0</ele><time>2026-04-24T11:06:37.118Z</time></trkpt><trkpt lat="36.4186527" lon="10.4480522"><ele>65.66666666666667</ele><time>2026-04-24T11:06:38.095Z</time></trkpt><trkpt lat="36.4186854" lon="10.4478566"><ele>66.33333333333333</ele><time>2026-04-24T11:06:39.101Z</time></trkpt><trkpt lat="36.4187176" lon="10.4476604"><ele>67.0</ele><time>2026-04-24T11:06:40.092Z</time></trkpt><trkpt lat="36.4187491" lon="10.4474641"><ele>67.0</ele><time>2026-04-24T11:06:41.104Z</time></trkpt><trkpt lat="36.4187836" lon="10.4472714"><ele>67.0</ele><time>2026-04-24T11:06:42.096Z</time></trkpt><trkpt lat="36.4188126" lon="10.447079"><ele>67.0</ele><time>2026-04-24T11:06:43.095Z</time></trkpt><trkpt lat="36.418839" lon="10.4468835"><ele>66.0</ele><time>2026-04-24T11:06:44.089Z</time></trkpt><trkpt lat="36.4188558" lon="10.4466835"><ele>65.0</ele><time>2026-04-24T11:06:45.097Z</time></trkpt><trkpt lat="36.4188657" lon="10.4464723"><ele>64.0</ele><time>2026-04-24T11:06:46.087Z</time></trkpt><trkpt lat="36.4188692" lon="10.4462582"><ele>64.0</ele><time>2026-04-24T11:06:47.087Z</time></trkpt><trkpt lat="36.4188659" lon="10.446044"><ele>64.0</ele><time>2026-04-24T11:06:48.099Z</time></trkpt><trkpt lat="36.4188658" lon="10.4458222"><ele>64.0</ele><time>2026-04-24T11:06:49.095Z</time></trkpt><trkpt lat="36.4188582" lon="10.4456012"><ele>64.0</ele><time>2026-04-24T11:06:50.116Z</time></trkpt><trkpt lat="36.4188522" lon="10.4453762"><ele>64.0</ele><time>2026-04-24T11:06:51.103Z</time></trkpt><trkpt lat="36.4188459" lon="10.4451533"><ele>64.0</ele><time>2026-04-24T11:06:52.097Z</time></trkpt><trkpt lat="36.4188337" lon="10.4449305"><ele>64.0</ele><time>2026-04-24T11:06:53.092Z</time></trkpt><trkpt lat="36.4188201" lon="10.4447056"><ele>64.0</ele><time>2026-04-24T11:06:54.097Z</time></trkpt><trkpt lat="36.4188169" lon="10.444481"><ele>64.0</ele><time>2026-04-24T11:06:55.093Z</time></trkpt><trkpt lat="36.4188161" lon="10.4442464"><ele>65.33333333333333</ele><time>2026-04-24T11:06:56.112Z</time></trkpt><trkpt lat="36.4188117" lon="10.4440027"><ele>66.66666666666667</ele><time>2026-04-24T11:06:57.1Z</time></trkpt><trkpt lat="36.4188028" lon="10.4437559"><ele>68.0</ele><time>2026-04-24T11:06:58.102Z</time></trkpt><trkpt lat="36.4187943" lon="10.4435121"><ele>68.33333333333334</ele><time>2026-04-24T11:06:59.095Z</time></trkpt><trkpt lat="36.4187813" lon="10.4432743"><ele>68.66666666666667</ele><time>2026-04-24T11:07:00.088Z</time></trkpt><trkpt lat="36.4187713" lon="10.4430394"><ele>69.0</ele><time>2026-04-24T11:07:01.085Z</time></trkpt><trkpt lat="36.4187641" lon="10.4428001"><ele>69.0</ele><time>2026-04-24T11:07:02.088Z</time></trkpt><trkpt lat="36.418759" lon="10.4425649"><ele>69.0</ele><time>2026-04-24T11:07:03.103Z</time></trkpt><trkpt lat="36.41875" lon="10.4423341"><ele>69.0</ele><time>2026-04-24T11:07:04.102Z</time></trkpt><trkpt lat="36.4187374" lon="10.4420999"><ele>70.0</ele><time>2026-04-24T11:07:05.093Z</time></trkpt><trkpt lat="36.4187194" lon="10.441859"><ele>71.0</ele><time>2026-04-24T11:07:06.095Z</time></trkpt><trkpt lat="36.4186911" lon="10.4416172"><ele>72.0</ele><time>2026-04-24T11:07:07.103Z</time></trkpt><trkpt lat="36.418653" lon="10.4413718"><ele>73.0</ele><time>2026-04-24T11:07:08.1Z</time></trkpt><trkpt lat="36.4186135" lon="10.4411292"><ele>74.0</ele><time>2026-04-24T11:07:09.097Z</time></trkpt><trkpt lat="36.4185715" lon="10.4408935"><ele>75.0</ele><time>2026-04-24T11:07:10.095Z</time></trkpt><trkpt lat="36.4185332" lon="10.4406604"><ele>76.66666666666667</ele><time>2026-04-24T11:07:11.107Z</time></trkpt><trkpt lat="36.4185018" lon="10.440428"><ele>78.33333333333334</ele><time>2026-04-24T11:07:12.103Z</time></trkpt><trkpt lat="36.4184652" lon="10.4401935"><ele>80.0</ele><time>2026-04-24T11:07:13.096Z</time></trkpt><trkpt lat="36.4184297" lon="10.4399703"><ele>80.0</ele><time>2026-04-24T11:07:14.099Z</time></trkpt><trkpt lat="36.418395" lon="10.4397573"><ele>80.0</ele><time>2026-04-24T11:07:15.096Z</time></trkpt><trkpt lat="36.4183523" lon="10.4395403"><ele>80.0</ele><time>2026-04-24T11:07:16.114Z</time></trkpt><trkpt lat="36.4183135" lon="10.4393324"><ele>80.0</ele><time>2026-04-24T11:07:17.093Z</time></trkpt><trkpt lat="36.4182696" lon="10.4391217"><ele>80.0</ele><time>2026-04-24T11:07:18.102Z</time></trkpt><trkpt lat="36.4182257" lon="10.4389225"><ele>80.0</ele><time>2026-04-24T11:07:19.098Z</time></trkpt><trkpt lat="36.4181768" lon="10.4387173"><ele>79.33333333333334</ele><time>2026-04-24T11:07:20.093Z</time></trkpt><trkpt lat="36.4181214" lon="10.4385176"><ele>78.66666666666667</ele><time>2026-04-24T11:07:21.097Z</time></trkpt><trkpt lat="36.4180611" lon="10.4383268"><ele>78.0</ele><time>2026-04-24T11:07:22.104Z</time></trkpt><trkpt lat="36.4179947" lon="10.4381362"><ele>80.0</ele><time>2026-04-24T11:07:23.102Z</time></trkpt><trkpt lat="36.4179279" lon="10.4379489"><ele>82.0</ele><time>2026-04-24T11:07:24.104Z</time></trkpt><trkpt lat="36.4178626" lon="10.4377513"><ele>84.0</ele><time>2026-04-24T11:07:25.093Z</time></trkpt><trkpt lat="36.4177995" lon="10.4375635"><ele>84.0</ele><time>2026-04-24T11:07:26.096Z</time></trkpt><trkpt lat="36.4177321" lon="10.4373629"><ele>84.0</ele><time>2026-04-24T11:07:27.097Z</time></trkpt><trkpt lat="36.4176661" lon="10.437167"><ele>84.0</ele><time>2026-04-24T11:07:28.101Z</time></trkpt><trkpt lat="36.4175971" lon="10.4369639"><ele>83.33333333333333</ele><time>2026-04-24T11:07:29.099Z</time></trkpt><trkpt lat="36.4175254" lon="10.4367572"><ele>82.66666666666666</ele><time>2026-04-24T11:07:30.107Z</time></trkpt><trkpt lat="36.4174525" lon="10.4365584"><ele>82.0</ele><time>2026-04-24T11:07:31.093Z</time></trkpt><trkpt lat="36.4173839" lon="10.4363578"><ele>82.66666666666666</ele><time>2026-04-24T11:07:32.1Z</time></trkpt><trkpt lat="36.417309" lon="10.4361624"><ele>83.33333333333333</ele><time>2026-04-24T11:07:33.098Z</time></trkpt><trkpt lat="36.4172441" lon="10.4359687"><ele>84.0</ele><time>2026-04-24T11:07:34.1Z</time></trkpt><trkpt lat="36.417179" lon="10.4357756"><ele>85.33333333333333</ele><time>2026-04-24T11:07:35.1Z</time></trkpt><trkpt lat="36.4171311" lon="10.4355766"><ele>86.66666666666666</ele><time>2026-04-24T11:07:36.11Z</time></trkpt><trkpt lat="36.4171013" lon="10.4353656"><ele>88.0</ele><time>2026-04-24T11:07:37.11Z</time></trkpt><trkpt lat="36.4170804" lon="10.4351518"><ele>90.33333333333333</ele><time>2026-04-24T11:07:38.101Z</time></trkpt><trkpt lat="36.417067" lon="10.4349323"><ele>92.66666666666667</ele><time>2026-04-24T11:07:39.108Z</time></trkpt><trkpt lat="36.4170783" lon="10.43471"><ele>95.0</ele><time>2026-04-24T11:07:40.103Z</time></trkpt><trkpt lat="36.4170978" lon="10.4344915"><ele>96.66666666666667</ele><time>2026-04-24T11:07:41.096Z</time></trkpt><trkpt lat="36.4171334" lon="10.4342698"><ele>98.33333333333334</ele><time>2026-04-24T11:07:42.098Z</time></trkpt><trkpt lat="36.4171855" lon="10.4340539"><ele>100.0</ele><time>2026-04-24T11:07:43.116Z</time></trkpt><trkpt lat="36.417241" lon="10.4338423"><ele>100.66666666666667</ele><time>2026-04-24T11:07:44.101Z</time></trkpt><trkpt lat="36.4173081" lon="10.4336325"><ele>101.33333333333334</ele><time>2026-04-24T11:07:45.094Z</time></trkpt><trkpt lat="36.4173782" lon="10.4334288"><ele>102.0</ele><time>2026-04-24T11:07:46.1Z</time></trkpt><trkpt lat="36.4174417" lon="10.4332233"><ele>102.0</ele><time>2026-04-24T11:07:47.107Z</time></trkpt><trkpt lat="36.4175055" lon="10.4330164"><ele>102.0</ele><time>2026-04-24T11:07:48.116Z</time></trkpt><trkpt lat="36.4175702" lon="10.4328029"><ele>102.0</ele><time>2026-04-24T11:07:49.086Z</time></trkpt><trkpt lat="36.4176411" lon="10.4325929"><ele>101.33333333333334</ele><time>2026-04-24T11:07:50.106Z</time></trkpt><trkpt lat="36.4177163" lon="10.4323834"><ele>100.66666666666667</ele><time>2026-04-24T11:07:51.104Z</time></trkpt><trkpt lat="36.4177907" lon="10.4321578"><ele>100.0</ele><time>2026-04-24T11:07:52.096Z</time></trkpt><trkpt lat="36.4178749" lon="10.4319149"><ele>99.33333333333334</ele><time>2026-04-24T11:07:53.098Z</time></trkpt><trkpt lat="36.4179577" lon="10.4316635"><ele>98.66666666666666</ele><time>2026-04-24T11:07:54.121Z</time></trkpt><trkpt lat="36.4180369" lon="10.431415"><ele>98.0</ele><time>2026-04-24T11:07:55.103Z</time></trkpt><trkpt lat="36.4181133" lon="10.4311627"><ele>97.0</ele><time>2026-04-24T11:07:56.096Z</time></trkpt><trkpt lat="36.4181908" lon="10.4309268"><ele>96.0</ele><time>2026-04-24T11:07:57.102Z</time></trkpt><trkpt lat="36.4182662" lon="10.4306921"><ele>95.0</ele><time>2026-04-24T11:07:58.099Z</time></trkpt><trkpt lat="36.4183397" lon="10.4304628"><ele>94.0</ele><time>2026-04-24T11:07:59.091Z</time></trkpt><trkpt lat="36.4184142" lon="10.4302314"><ele>93.0</ele><time>2026-04-24T11:08:00.095Z</time></trkpt><trkpt lat="36.4184878" lon="10.4300058"><ele>92.0</ele><time>2026-04-24T11:08:01.094Z</time></trkpt><trkpt lat="36.4185623" lon="10.4297744"><ele>92.0</ele><time>2026-04-24T11:08:02.099Z</time></trkpt><trkpt lat="36.4186378" lon="10.429546"><ele>92.0</ele><time>2026-04-24T11:08:03.104Z</time></trkpt><trkpt lat="36.4187197" lon="10.4293251"><ele>92.0</ele><time>2026-04-24T11:08:04.102Z</time></trkpt><trkpt lat="36.4188087" lon="10.4291121"><ele>90.66666666666667</ele><time>2026-04-24T11:08:05.101Z</time></trkpt><trkpt lat="36.4189025" lon="10.4289063"><ele>89.33333333333333</ele><time>2026-04-24T11:08:06.098Z</time></trkpt><trkpt lat="36.4190041" lon="10.428707"><ele>88.0</ele><time>2026-04-24T11:08:07.1Z</time></trkpt><trkpt lat="36.419112" lon="10.4285135"><ele>88.0</ele><time>2026-04-24T11:08:08.095Z</time></trkpt><trkpt lat="36.419228" lon="10.428323"><ele>88.0</ele><time>2026-04-24T11:08:09.106Z</time></trkpt><trkpt lat="36.4193443" lon="10.4281429"><ele>88.0</ele><time>2026-04-24T11:08:10.101Z</time></trkpt><trkpt lat="36.4194671" lon="10.4279607"><ele>88.0</ele><time>2026-04-24T11:08:11.106Z</time></trkpt><trkpt lat="36.4195931" lon="10.4277801"><ele>88.0</ele><time>2026-04-24T11:08:12.1Z</time></trkpt><trkpt lat="36.4197201" lon="10.4276014"><ele>88.0</ele><time>2026-04-24T11:08:13.122Z</time></trkpt><trkpt lat="36.4198538" lon="10.4274262"><ele>86.33333333333333</ele><time>2026-04-24T11:08:14.095Z</time></trkpt><trkpt lat="36.4199861" lon="10.4272486"><ele>84.66666666666667</ele><time>2026-04-24T11:08:15.103Z</time></trkpt><trkpt lat="36.4201182" lon="10.4270788"><ele>83.0</ele><time>2026-04-24T11:08:16.091Z</time></trkpt><trkpt lat="36.4202462" lon="10.426911"><ele>83.0</ele><time>2026-04-24T11:08:17.116Z</time></trkpt><trkpt lat="36.4203726" lon="10.4267427"><ele>83.0</ele><time>2026-04-24T11:08:18.089Z</time></trkpt><trkpt lat="36.4204998" lon="10.42657"><ele>83.0</ele><time>2026-04-24T11:08:19.091Z</time></trkpt><trkpt lat="36.4206205" lon="10.4264143"><ele>84.0</ele><time>2026-04-24T11:08:20.1Z</time></trkpt><trkpt lat="36.4207212" lon="10.4262515"><ele>85.0</ele><time>2026-04-24T11:08:21.106Z</time></trkpt><trkpt lat="36.4208015" lon="10.4260774"><ele>86.0</ele><time>2026-04-24T11:08:22.097Z</time></trkpt><trkpt lat="36.420867" lon="10.4259031"><ele>86.0</ele><time>2026-04-24T11:08:23.101Z</time></trkpt><trkpt lat="36.4209091" lon="10.4257208"><ele>86.0</ele><time>2026-04-24T11:08:24.104Z</time></trkpt><trkpt lat="36.4209335" lon="10.4255306"><ele>86.0</ele><time>2026-04-24T11:08:25.104Z</time></trkpt><trkpt lat="36.4209282" lon="10.425341"><ele>87.33333333333334</ele><time>2026-04-24T11:08:26.108Z</time></trkpt><trkpt lat="36.4209088" lon="10.4251484"><ele>88.66666666666667</ele><time>2026-04-24T11:08:27.092Z</time></trkpt><trkpt lat="36.4208696" lon="10.4249684"><ele>90.0</ele><time>2026-04-24T11:08:28.094Z</time></trkpt><trkpt lat="36.4208136" lon="10.4247979"><ele>90.66666666666667</ele><time>2026-04-24T11:08:29.107Z</time></trkpt><trkpt lat="36.4207418" lon="10.4246282"><ele>91.33333333333334</ele><time>2026-04-24T11:08:30.1Z</time></trkpt><trkpt lat="36.4206433" lon="10.4244783"><ele>92.0</ele><time>2026-04-24T11:08:31.092Z</time></trkpt><trkpt lat="36.4205274" lon="10.4243493"><ele>91.0</ele><time>2026-04-24T11:08:32.098Z</time></trkpt><trkpt lat="36.4203992" lon="10.4242209"><ele>90.0</ele><time>2026-04-24T11:08:33.1Z</time></trkpt><trkpt lat="36.4202739" lon="10.4241081"><ele>89.0</ele><time>2026-04-24T11:08:34.099Z</time></trkpt><trkpt lat="36.4201445" lon="10.4239976"><ele>89.0</ele><time>2026-04-24T11:08:35.106Z</time></trkpt><trkpt lat="36.4200162" lon="10.4238899"><ele>89.0</ele><time>2026-04-24T11:08:36.095Z</time></trkpt><trkpt lat="36.41989" lon="10.4237787"><ele>89.0</ele><time>2026-04-24T11:08:37.103Z</time></trkpt><trkpt lat="36.4197648" lon="10.4236648"><ele>89.0</ele><time>2026-04-24T11:08:38.096Z</time></trkpt><trkpt lat="36.4196421" lon="10.4235516"><ele>89.0</ele><time>2026-04-24T11:08:39.112Z</time></trkpt><trkpt lat="36.4195299" lon="10.4234492"><ele>89.0</ele><time>2026-04-24T11:08:40.093Z</time></trkpt><trkpt lat="36.4194249" lon="10.4233381"><ele>89.0</ele><time>2026-04-24T11:08:41.09Z</time></trkpt><trkpt lat="36.4193246" lon="10.4232082"><ele>89.0</ele><time>2026-04-24T11:08:42.09Z</time></trkpt><trkpt lat="36.4192344" lon="10.4230664"><ele>89.0</ele><time>2026-04-24T11:08:43.096Z</time></trkpt><trkpt lat="36.4191505" lon="10.4229149"><ele>89.0</ele><time>2026-04-24T11:08:44.103Z</time></trkpt><trkpt lat="36.4190783" lon="10.4227565"><ele>89.0</ele><time>2026-04-24T11:08:45.099Z</time></trkpt><trkpt lat="36.4190211" lon="10.4225844"><ele>89.5</ele><time>2026-04-24T11:08:46.097Z</time></trkpt><trkpt lat="36.4189843" lon="10.422414"><ele>90.0</ele><time>2026-04-24T11:08:47.107Z</time></trkpt><trkpt lat="36.4189508" lon="10.4222364"><ele>90.5</ele><time>2026-04-24T11:08:48.106Z</time></trkpt><trkpt lat="36.4189323" lon="10.42206"><ele>91.0</ele><time>2026-04-24T11:08:49.09Z</time></trkpt><trkpt lat="36.4189162" lon="10.4218719"><ele>91.0</ele><time>2026-04-24T11:08:50.078Z</time></trkpt><trkpt lat="36.4189001" lon="10.4216961"><ele>91.0</ele><time>2026-04-24T11:08:51.108Z</time></trkpt><trkpt lat="36.4188922" lon="10.4215281"><ele>91.0</ele><time>2026-04-24T11:08:52.109Z</time></trkpt><trkpt lat="36.4188914" lon="10.4213747"><ele>91.0</ele><time>2026-04-24T11:08:53.114Z</time></trkpt><trkpt lat="36.4188921" lon="10.4212081"><ele>91.75</ele><time>2026-04-24T11:08:54.11Z</time></trkpt><trkpt lat="36.4188965" lon="10.421032"><ele>92.5</ele><time>2026-04-24T11:08:55.106Z</time></trkpt><trkpt lat="36.4189084" lon="10.4208533"><ele>93.25</ele><time>2026-04-24T11:08:56.095Z</time></trkpt><trkpt lat="36.4189188" lon="10.4206668"><ele>94.0</ele><time>2026-04-24T11:08:57.098Z</time></trkpt><trkpt lat="36.4189249" lon="10.4204772"><ele>94.0</ele><time>2026-04-24T11:08:58.11Z</time></trkpt><trkpt lat="36.4189296" lon="10.4202797"><ele>94.0</ele><time>2026-04-24T11:08:59.094Z</time></trkpt><trkpt lat="36.4189369" lon="10.4200762"><ele>94.0</ele><time>2026-04-24T11:09:00.105Z</time></trkpt><trkpt lat="36.4189395" lon="10.4198703"><ele>94.0</ele><time>2026-04-24T11:09:01.094Z</time></trkpt><trkpt lat="36.4189356" lon="10.4196638"><ele>94.0</ele><time>2026-04-24T11:09:02.09Z</time></trkpt><trkpt lat="36.418938" lon="10.4194557"><ele>94.0</ele><time>2026-04-24T11:09:03.096Z</time></trkpt><trkpt lat="36.4189426" lon="10.4192513"><ele>95.0</ele><time>2026-04-24T11:09:04.109Z</time></trkpt><trkpt lat="36.4189444" lon="10.4190487"><ele>96.0</ele><time>2026-04-24T11:09:05.086Z</time></trkpt><trkpt lat="36.4189429" lon="10.4188538"><ele>97.0</ele><time>2026-04-24T11:09:06.108Z</time></trkpt><trkpt lat="36.4189346" lon="10.418658"><ele>98.33333333333334</ele><time>2026-04-24T11:09:07.107Z</time></trkpt><trkpt lat="36.4189234" lon="10.4184649"><ele>99.66666666666666</ele><time>2026-04-24T11:09:08.109Z</time></trkpt><trkpt lat="36.4189098" lon="10.4182754"><ele>101.0</ele><time>2026-04-24T11:09:09.096Z</time></trkpt><trkpt lat="36.4188955" lon="10.4180861"><ele>100.66666666666666</ele><time>2026-04-24T11:09:10.098Z</time></trkpt><trkpt lat="36.4188737" lon="10.417894"><ele>100.33333333333334</ele><time>2026-04-24T11:09:11.093Z</time></trkpt><trkpt lat="36.418839" lon="10.4177086"><ele>100.0</ele><time>2026-04-24T11:09:12.093Z</time></trkpt><trkpt lat="36.418796" lon="10.4175235"><ele>100.0</ele><time>2026-04-24T11:09:13.084Z</time></trkpt><trkpt lat="36.4187481" lon="10.4173456"><ele>100.0</ele><time>2026-04-24T11:09:14.099Z</time></trkpt><trkpt lat="36.4186989" lon="10.4171712"><ele>100.0</ele><time>2026-04-24T11:09:15.109Z</time></trkpt><trkpt lat="36.4186398" lon="10.4169945"><ele>101.66666666666667</ele><time>2026-04-24T11:09:16.096Z</time></trkpt><trkpt lat="36.418574" lon="10.4168192"><ele>103.33333333333334</ele><time>2026-04-24T11:09:17.1Z</time></trkpt><trkpt lat="36.4185027" lon="10.4166564"><ele>105.0</ele><time>2026-04-24T11:09:18.106Z</time></trkpt><trkpt lat="36.4184259" lon="10.4164905"><ele>105.0</ele><time>2026-04-24T11:09:19.098Z</time></trkpt><trkpt lat="36.4183463" lon="10.4163289"><ele>105.0</ele><time>2026-04-24T11:09:20.107Z</time></trkpt><trkpt lat="36.4182565" lon="10.4161667"><ele>105.0</ele><time>2026-04-24T11:09:21.111Z</time></trkpt><trkpt lat="36.4181646" lon="10.4160125"><ele>105.66666666666666</ele><time>2026-04-24T11:09:22.103Z</time></trkpt><trkpt lat="36.4180681" lon="10.415853"><ele>106.33333333333333</ele><time>2026-04-24T11:09:23.103Z</time></trkpt><trkpt lat="36.4179737" lon="10.4156911"><ele>107.0</ele><time>2026-04-24T11:09:24.091Z</time></trkpt><trkpt lat="36.4178802" lon="10.4155309"><ele>107.66666666666666</ele><time>2026-04-24T11:09:25.099Z</time></trkpt><trkpt lat="36.4177841" lon="10.4153701"><ele>108.33333333333334</ele><time>2026-04-24T11:09:26.113Z</time></trkpt><trkpt lat="36.4176856" lon="10.4152129"><ele>109.0</ele><time>2026-04-24T11:09:27.096Z</time></trkpt><trkpt lat="36.4175973" lon="10.4150592"><ele>109.0</ele><time>2026-04-24T11:09:28.099Z</time></trkpt><trkpt lat="36.417502" lon="10.4149096"><ele>109.0</ele><time>2026-04-24T11:09:29.106Z</time></trkpt><trkpt lat="36.4174161" lon="10.4147531"><ele>109.0</ele><time>2026-04-24T11:09:30.09Z</time></trkpt><trkpt lat="36.4173263" lon="10.4146007"><ele>109.0</ele><time>2026-04-24T11:09:31.102Z</time></trkpt><trkpt lat="36.4172394" lon="10.414446"><ele>109.0</ele><time>2026-04-24T11:09:32.102Z</time></trkpt><trkpt lat="36.417154" lon="10.4142927"><ele>109.0</ele><time>2026-04-24T11:09:33.115Z</time></trkpt><trkpt lat="36.4170656" lon="10.4141365"><ele>109.0</ele><time>2026-04-24T11:09:34.099Z</time></trkpt><trkpt lat="36.4169788" lon="10.4139837"><ele>109.0</ele><time>2026-04-24T11:09:35.092Z</time></trkpt><trkpt lat="36.4168901" lon="10.4138253"><ele>109.0</ele><time>2026-04-24T11:09:36.104Z</time></trkpt><trkpt lat="36.4167989" lon="10.4136666"><ele>109.0</ele><time>2026-04-24T11:09:37.097Z</time></trkpt><trkpt lat="36.4167044" lon="10.413512"><ele>109.0</ele><time>2026-04-24T11:09:38.096Z</time></trkpt><trkpt lat="36.4166091" lon="10.4133553"><ele>109.0</ele><time>2026-04-24T11:09:39.09Z</time></trkpt><trkpt lat="36.416515" lon="10.4131919"><ele>109.0</ele><time>2026-04-24T11:09:40.097Z</time></trkpt><trkpt lat="36.416423" lon="10.4130261"><ele>109.0</ele><time>2026-04-24T11:09:41.103Z</time></trkpt><trkpt lat="36.4163274" lon="10.41286"><ele>109.0</ele><time>2026-04-24T11:09:42.099Z</time></trkpt><trkpt lat="36.4162308" lon="10.4126967"><ele>107.66666666666667</ele><time>2026-04-24T11:09:43.1Z</time></trkpt><trkpt lat="36.4161321" lon="10.4125272"><ele>106.33333333333334</ele><time>2026-04-24T11:09:44.099Z</time></trkpt><trkpt lat="36.4160293" lon="10.4123585"><ele>105.0</ele><time>2026-04-24T11:09:45.081Z</time></trkpt><trkpt lat="36.4159179" lon="10.4121898"><ele>106.0</ele><time>2026-04-24T11:09:46.112Z</time></trkpt><trkpt lat="36.4158112" lon="10.412024"><ele>107.0</ele><time>2026-04-24T11:09:47.1Z</time></trkpt><trkpt lat="36.4157009" lon="10.4118653"><ele>108.0</ele><time>2026-04-24T11:09:48.099Z</time></trkpt><trkpt lat="36.4155857" lon="10.4117046"><ele>108.0</ele><time>2026-04-24T11:09:49.107Z</time></trkpt><trkpt lat="36.415474" lon="10.4115504"><ele>108.0</ele><time>2026-04-24T11:09:50.098Z</time></trkpt><trkpt lat="36.4153603" lon="10.4113965"><ele>108.0</ele><time>2026-04-24T11:09:51.105Z</time></trkpt><trkpt lat="36.4152459" lon="10.4112449"><ele>108.66666666666666</ele><time>2026-04-24T11:09:52.099Z</time></trkpt><trkpt lat="36.4151313" lon="10.4110881"><ele>109.33333333333333</ele><time>2026-04-24T11:09:53.092Z</time></trkpt><trkpt lat="36.415013" lon="10.4109363"><ele>110.0</ele><time>2026-04-24T11:09:54.106Z</time></trkpt><trkpt lat="36.4148923" lon="10.4107776"><ele>110.0</ele><time>2026-04-24T11:09:55.102Z</time></trkpt><trkpt lat="36.4147633" lon="10.4106143"><ele>110.0</ele><time>2026-04-24T11:09:56.095Z</time></trkpt><trkpt lat="36.414633" lon="10.4104503"><ele>110.0</ele><time>2026-04-24T11:09:57.105Z</time></trkpt><trkpt lat="36.4145043" lon="10.4102916"><ele>109.33333333333333</ele><time>2026-04-24T11:09:58.09Z</time></trkpt><trkpt lat="36.414373" lon="10.4101282"><ele>108.66666666666666</ele><time>2026-04-24T11:09:59.099Z</time></trkpt><trkpt lat="36.414247" lon="10.40996"><ele>108.0</ele><time>2026-04-24T11:10:00.101Z</time></trkpt><trkpt lat="36.4141224" lon="10.4097919"><ele>107.66666666666666</ele><time>2026-04-24T11:10:01.096Z</time></trkpt><trkpt lat="36.4139954" lon="10.4096273"><ele>107.33333333333333</ele><time>2026-04-24T11:10:02.088Z</time></trkpt><trkpt lat="36.4138689" lon="10.409465"><ele>107.0</ele><time>2026-04-24T11:10:03.1Z</time></trkpt><trkpt lat="36.4137462" lon="10.4093094"><ele>107.0</ele><time>2026-04-24T11:10:04.11Z</time></trkpt><trkpt lat="36.4136199" lon="10.4091494"><ele>107.0</ele><time>2026-04-24T11:10:05.096Z</time></trkpt><trkpt lat="36.4134939" lon="10.4089851"><ele>107.0</ele><time>2026-04-24T11:10:06.105Z</time></trkpt><trkpt lat="36.413363" lon="10.4088209"><ele>107.0</ele><time>2026-04-24T11:10:07.096Z</time></trkpt><trkpt lat="36.413239" lon="10.4086548"><ele>107.0</ele><time>2026-04-24T11:10:08.095Z</time></trkpt><trkpt lat="36.4131147" lon="10.4084897"><ele>107.0</ele><time>2026-04-24T11:10:09.089Z</time></trkpt><trkpt lat="36.4129879" lon="10.40832"><ele>107.0</ele><time>2026-04-24T11:10:10.09Z</time></trkpt><trkpt lat="36.4128659" lon="10.4081605"><ele>107.0</ele><time>2026-04-24T11:10:11.121Z</time></trkpt><trkpt lat="36.4127423" lon="10.4079886"><ele>107.0</ele><time>2026-04-24T11:10:12.109Z</time></trkpt><trkpt lat="36.4126145" lon="10.4078286"><ele>108.33333333333333</ele><time>2026-04-24T11:10:13.096Z</time></trkpt><trkpt lat="36.412481" lon="10.4076652"><ele>109.66666666666666</ele><time>2026-04-24T11:10:14.103Z</time></trkpt><trkpt lat="36.4123507" lon="10.4075047"><ele>111.0</ele><time>2026-04-24T11:10:15.097Z</time></trkpt><trkpt lat="36.4122243" lon="10.407341"><ele>110.66666666666666</ele><time>2026-04-24T11:10:16.099Z</time></trkpt><trkpt lat="36.412104" lon="10.4071818"><ele>110.33333333333333</ele><time>2026-04-24T11:10:17.1Z</time></trkpt><trkpt lat="36.4119798" lon="10.4070146"><ele>110.0</ele><time>2026-04-24T11:10:18.103Z</time></trkpt><trkpt lat="36.4118548" lon="10.4068485"><ele>110.66666666666666</ele><time>2026-04-24T11:10:19.1Z</time></trkpt><trkpt lat="36.4117297" lon="10.4066861"><ele>111.33333333333334</ele><time>2026-04-24T11:10:20.091Z</time></trkpt><trkpt lat="36.4116027" lon="10.4065198"><ele>112.0</ele><time>2026-04-24T11:10:21.098Z</time></trkpt><trkpt lat="36.4114773" lon="10.4063557"><ele>112.66666666666667</ele><time>2026-04-24T11:10:22.086Z</time></trkpt><trkpt lat="36.4113475" lon="10.4061963"><ele>113.33333333333334</ele><time>2026-04-24T11:10:23.101Z</time></trkpt><trkpt lat="36.4112216" lon="10.4060313"><ele>114.0</ele><time>2026-04-24T11:10:24.092Z</time></trkpt><trkpt lat="36.4110973" lon="10.4058652"><ele>114.0</ele><time>2026-04-24T11:10:25.084Z</time></trkpt><trkpt lat="36.4109752" lon="10.4056962"><ele>114.0</ele><time>2026-04-24T11:10:26.103Z</time></trkpt><trkpt lat="36.4108463" lon="10.4055284"><ele>114.0</ele><time>2026-04-24T11:10:27.093Z</time></trkpt><trkpt lat="36.4107196" lon="10.4053687"><ele>113.66666666666666</ele><time>2026-04-24T11:10:28.112Z</time></trkpt><trkpt lat="36.4105924" lon="10.4052068"><ele>113.33333333333333</ele><time>2026-04-24T11:10:29.097Z</time></trkpt><trkpt lat="36.4104641" lon="10.4050429"><ele>113.0</ele><time>2026-04-24T11:10:30.081Z</time></trkpt><trkpt lat="36.4103378" lon="10.4048774"><ele>113.0</ele><time>2026-04-24T11:10:31.088Z</time></trkpt><trkpt lat="36.4102149" lon="10.4047118"><ele>113.0</ele><time>2026-04-24T11:10:32.085Z</time></trkpt><trkpt lat="36.4100911" lon="10.404545"><ele>113.0</ele><time>2026-04-24T11:10:33.105Z</time></trkpt><trkpt lat="36.4099634" lon="10.4043802"><ele>114.66666666666666</ele><time>2026-04-24T11:10:34.086Z</time></trkpt><trkpt lat="36.4098329" lon="10.4042181"><ele>116.33333333333334</ele><time>2026-04-24T11:10:35.102Z</time></trkpt><trkpt lat="36.4097008" lon="10.4040537"><ele>118.0</ele><time>2026-04-24T11:10:36.092Z</time></trkpt><trkpt lat="36.4095796" lon="10.4038907"><ele>118.66666666666667</ele><time>2026-04-24T11:10:37.102Z</time></trkpt><trkpt lat="36.4094577" lon="10.4037302"><ele>119.33333333333334</ele><time>2026-04-24T11:10:38.1Z</time></trkpt><trkpt lat="36.4093336" lon="10.403569"><ele>120.0</ele><time>2026-04-24T11:10:39.116Z</time></trkpt><trkpt lat="36.4092044" lon="10.403407"><ele>120.0</ele><time>2026-04-24T11:10:40.097Z</time></trkpt><trkpt lat="36.4090776" lon="10.4032441"><ele>120.0</ele><time>2026-04-24T11:10:41.106Z</time></trkpt><trkpt lat="36.4089488" lon="10.40308"><ele>120.0</ele><time>2026-04-24T11:10:42.094Z</time></trkpt><trkpt lat="36.4088245" lon="10.402911"><ele>121.0</ele><time>2026-04-24T11:10:43.094Z</time></trkpt><trkpt lat="36.4087028" lon="10.4027432"><ele>122.0</ele><time>2026-04-24T11:10:44.101Z</time></trkpt><trkpt lat="36.4085797" lon="10.4025774"><ele>123.0</ele><time>2026-04-24T11:10:45.097Z</time></trkpt><trkpt lat="36.4084526" lon="10.4024115"><ele>123.0</ele><time>2026-04-24T11:10:46.111Z</time></trkpt><trkpt lat="36.4083268" lon="10.4022489"><ele>123.0</ele><time>2026-04-24T11:10:47.089Z</time></trkpt><trkpt lat="36.4082005" lon="10.4020812"><ele>123.0</ele><time>2026-04-24T11:10:48.084Z</time></trkpt><trkpt lat="36.4080737" lon="10.4019167"><ele>121.66666666666666</ele><time>2026-04-24T11:10:49.086Z</time></trkpt><trkpt lat="36.4079479" lon="10.4017471"><ele>120.33333333333333</ele><time>2026-04-24T11:10:50.094Z</time></trkpt><trkpt lat="36.4078337" lon="10.4015737"><ele>119.0</ele><time>2026-04-24T11:10:51.099Z</time></trkpt><trkpt lat="36.4077177" lon="10.4013913"><ele>118.0</ele><time>2026-04-24T11:10:52.085Z</time></trkpt><trkpt lat="36.4076073" lon="10.4012109"><ele>117.0</ele><time>2026-04-24T11:10:53.098Z</time></trkpt><trkpt lat="36.4075042" lon="10.4010198"><ele>116.0</ele><time>2026-04-24T11:10:54.103Z</time></trkpt><trkpt lat="36.4074112" lon="10.4008198"><ele>116.0</ele><time>2026-04-24T11:10:55.107Z</time></trkpt><trkpt lat="36.4073358" lon="10.4006105"><ele>116.0</ele><time>2026-04-24T11:10:56.109Z</time></trkpt><trkpt lat="36.4072671" lon="10.4003975"><ele>116.0</ele><time>2026-04-24T11:10:57.097Z</time></trkpt><trkpt lat="36.4072007" lon="10.4001796"><ele>115.0</ele><time>2026-04-24T11:10:58.102Z</time></trkpt><trkpt lat="36.4071363" lon="10.3999666"><ele>114.0</ele><time>2026-04-24T11:10:59.096Z</time></trkpt><trkpt lat="36.4070759" lon="10.3997537"><ele>113.0</ele><time>2026-04-24T11:11:00.091Z</time></trkpt><trkpt lat="36.4070183" lon="10.3995355"><ele>111.0</ele><time>2026-04-24T11:11:01.098Z</time></trkpt><trkpt lat="36.4069645" lon="10.3993186"><ele>109.0</ele><time>2026-04-24T11:11:02.095Z</time></trkpt><trkpt lat="36.4069" lon="10.3991067"><ele>107.0</ele><time>2026-04-24T11:11:03.106Z</time></trkpt><trkpt lat="36.4068319" lon="10.3988941"><ele>107.0</ele><time>2026-04-24T11:11:04.093Z</time></trkpt><trkpt lat="36.4067589" lon="10.3986841"><ele>107.0</ele><time>2026-04-24T11:11:05.096Z</time></trkpt><trkpt lat="36.4066764" lon="10.3984789"><ele>107.0</ele><time>2026-04-24T11:11:06.097Z</time></trkpt><trkpt lat="36.4065928" lon="10.398279"><ele>107.0</ele><time>2026-04-24T11:11:07.099Z</time></trkpt><trkpt lat="36.4064934" lon="10.3980779"><ele>107.0</ele><time>2026-04-24T11:11:08.102Z</time></trkpt><trkpt lat="36.4063931" lon="10.397893"><ele>107.0</ele><time>2026-04-24T11:11:09.102Z</time></trkpt><trkpt lat="36.406279" lon="10.3977075"><ele>106.33333333333333</ele><time>2026-04-24T11:11:10.109Z</time></trkpt><trkpt lat="36.4061636" lon="10.3975342"><ele>105.66666666666666</ele><time>2026-04-24T11:11:11.105Z</time></trkpt><trkpt lat="36.4060514" lon="10.39736"><ele>105.0</ele><time>2026-04-24T11:11:12.097Z</time></trkpt><trkpt lat="36.4059427" lon="10.3971877"><ele>105.66666666666666</ele><time>2026-04-24T11:11:13.092Z</time></trkpt><trkpt lat="36.405834" lon="10.3970086"><ele>106.33333333333333</ele><time>2026-04-24T11:11:14.107Z</time></trkpt><trkpt lat="36.4057212" lon="10.3968302"><ele>107.0</ele><time>2026-04-24T11:11:15.099Z</time></trkpt><trkpt lat="36.4056049" lon="10.396653"><ele>106.0</ele><time>2026-04-24T11:11:16.097Z</time></trkpt><trkpt lat="36.4054889" lon="10.3964698"><ele>105.0</ele><time>2026-04-24T11:11:17.092Z</time></trkpt><trkpt lat="36.4053734" lon="10.3962903"><ele>104.0</ele><time>2026-04-24T11:11:18.101Z</time></trkpt><trkpt lat="36.4052569" lon="10.3961187"><ele>103.66666666666666</ele><time>2026-04-24T11:11:19.104Z</time></trkpt><trkpt lat="36.4051427" lon="10.395947"><ele>103.33333333333334</ele><time>2026-04-24T11:11:20.1Z</time></trkpt><trkpt lat="36.4050296" lon="10.395768"><ele>103.0</ele><time>2026-04-24T11:11:21.103Z</time></trkpt><trkpt lat="36.4049205" lon="10.3955911"><ele>104.0</ele><time>2026-04-24T11:11:22.101Z</time></trkpt><trkpt lat="36.4048084" lon="10.3954057"><ele>105.0</ele><time>2026-04-24T11:11:23.103Z</time></trkpt><trkpt lat="36.4047028" lon="10.39522"><ele>106.0</ele><time>2026-04-24T11:11:24.098Z</time></trkpt><trkpt lat="36.4046015" lon="10.3950226"><ele>103.66666666666667</ele><time>2026-04-24T11:11:25.09Z</time></trkpt><trkpt lat="36.4045049" lon="10.3948243"><ele>101.33333333333334</ele><time>2026-04-24T11:11:26.102Z</time></trkpt><trkpt lat="36.4044176" lon="10.394628"><ele>99.0</ele><time>2026-04-24T11:11:27.096Z</time></trkpt><trkpt lat="36.4043346" lon="10.3944297"><ele>99.0</ele><time>2026-04-24T11:11:28.1Z</time></trkpt><trkpt lat="36.4042581" lon="10.3942223"><ele>99.0</ele><time>2026-04-24T11:11:29.093Z</time></trkpt><trkpt lat="36.4041844" lon="10.3940122"><ele>99.0</ele><time>2026-04-24T11:11:30.123Z</time></trkpt><trkpt lat="36.4041182" lon="10.3937999"><ele>99.66666666666666</ele><time>2026-04-24T11:11:31.088Z</time></trkpt><trkpt lat="36.4040523" lon="10.3935854"><ele>100.33333333333333</ele><time>2026-04-24T11:11:32.101Z</time></trkpt><trkpt lat="36.4039879" lon="10.3933703"><ele>101.0</ele><time>2026-04-24T11:11:33.096Z</time></trkpt><trkpt lat="36.4039208" lon="10.3931582"><ele>100.66666666666666</ele><time>2026-04-24T11:11:34.097Z</time></trkpt><trkpt lat="36.4038523" lon="10.3929411"><ele>100.33333333333334</ele><time>2026-04-24T11:11:35.098Z</time></trkpt><trkpt lat="36.4037858" lon="10.3927243"><ele>100.0</ele><time>2026-04-24T11:11:36.103Z</time></trkpt><trkpt lat="36.4037194" lon="10.3925132"><ele>98.0</ele><time>2026-04-24T11:11:37.085Z</time></trkpt><trkpt lat="36.4036588" lon="10.3922927"><ele>96.0</ele><time>2026-04-24T11:11:38.086Z</time></trkpt><trkpt lat="36.4035999" lon="10.3920751"><ele>94.0</ele><time>2026-04-24T11:11:39.09Z</time></trkpt><trkpt lat="36.4035345" lon="10.3918603"><ele>94.0</ele><time>2026-04-24T11:11:40.082Z</time></trkpt><trkpt lat="36.4034705" lon="10.3916474"><ele>94.0</ele><time>2026-04-24T11:11:41.092Z</time></trkpt><trkpt lat="36.4034041" lon="10.3914359"><ele>94.0</ele><time>2026-04-24T11:11:42.099Z</time></trkpt><trkpt lat="36.4033395" lon="10.3912203"><ele>94.0</ele><time>2026-04-24T11:11:43.088Z</time></trkpt><trkpt lat="36.4032731" lon="10.3910061"><ele>94.0</ele><time>2026-04-24T11:11:44.1Z</time></trkpt><trkpt lat="36.4032097" lon="10.3907915"><ele>94.0</ele><time>2026-04-24T11:11:45.092Z</time></trkpt><trkpt lat="36.403151" lon="10.3905752"><ele>93.33333333333333</ele><time>2026-04-24T11:11:46.088Z</time></trkpt><trkpt lat="36.4030995" lon="10.3903528"><ele>92.66666666666667</ele><time>2026-04-24T11:11:47.095Z</time></trkpt><trkpt lat="36.4030615" lon="10.3901359"><ele>92.0</ele><time>2026-04-24T11:11:48.103Z</time></trkpt><trkpt lat="36.4030332" lon="10.3899128"><ele>92.0</ele><time>2026-04-24T11:11:49.101Z</time></trkpt><trkpt lat="36.4030186" lon="10.3896825"><ele>92.0</ele><time>2026-04-24T11:11:50.097Z</time></trkpt><trkpt lat="36.4030143" lon="10.3894616"><ele>92.0</ele><time>2026-04-24T11:11:51.1Z</time></trkpt><trkpt lat="36.4030293" lon="10.3892314"><ele>91.66666666666667</ele><time>2026-04-24T11:11:52.1Z</time></trkpt><trkpt lat="36.4030453" lon="10.389007"><ele>91.33333333333333</ele><time>2026-04-24T11:11:53.088Z</time></trkpt><trkpt lat="36.4030649" lon="10.3887808"><ele>91.0</ele><time>2026-04-24T11:11:54.093Z</time></trkpt><trkpt lat="36.4030829" lon="10.3885559"><ele>90.33333333333333</ele><time>2026-04-24T11:11:55.097Z</time></trkpt><trkpt lat="36.4030998" lon="10.3883278"><ele>89.66666666666667</ele><time>2026-04-24T11:11:56.096Z</time></trkpt><trkpt lat="36.4031159" lon="10.3881006"><ele>89.0</ele><time>2026-04-24T11:11:57.088Z</time></trkpt><trkpt lat="36.4031226" lon="10.3878724"><ele>88.66666666666667</ele><time>2026-04-24T11:11:58.095Z</time></trkpt><trkpt lat="36.4031226" lon="10.3876471"><ele>88.33333333333333</ele><time>2026-04-24T11:11:59.094Z</time></trkpt><trkpt lat="36.4031139" lon="10.3874216"><ele>88.0</ele><time>2026-04-24T11:12:00.085Z</time></trkpt><trkpt lat="36.4030893" lon="10.3871972"><ele>87.33333333333333</ele><time>2026-04-24T11:12:01.092Z</time></trkpt><trkpt lat="36.4030563" lon="10.3869696"><ele>86.66666666666667</ele><time>2026-04-24T11:12:02.083Z</time></trkpt><trkpt lat="36.4030136" lon="10.3867435"><ele>86.0</ele><time>2026-04-24T11:12:03.097Z</time></trkpt><trkpt lat="36.4029586" lon="10.3865251"><ele>86.66666666666667</ele><time>2026-04-24T11:12:04.092Z</time></trkpt><trkpt lat="36.4028959" lon="10.3863168"><ele>87.33333333333333</ele><time>2026-04-24T11:12:05.075Z</time></trkpt><trkpt lat="36.4028274" lon="10.3861093"><ele>88.0</ele><time>2026-04-24T11:12:06.084Z</time></trkpt><trkpt lat="36.4027402" lon="10.3859106"><ele>88.0</ele><time>2026-04-24T11:12:07.077Z</time></trkpt><trkpt lat="36.4026429" lon="10.3857176"><ele>88.0</ele><time>2026-04-24T11:12:08.079Z</time></trkpt><trkpt lat="36.4025359" lon="10.3855348"><ele>88.0</ele><time>2026-04-24T11:12:09.093Z</time></trkpt><trkpt lat="36.4024199" lon="10.3853593"><ele>86.66666666666666</ele><time>2026-04-24T11:12:10.101Z</time></trkpt><trkpt lat="36.4023013" lon="10.3851882"><ele>85.33333333333333</ele><time>2026-04-24T11:12:11.1Z</time></trkpt><trkpt lat="36.4021754" lon="10.3850244"><ele>84.0</ele><time>2026-04-24T11:12:12.101Z</time></trkpt><trkpt lat="36.4020492" lon="10.3848646"><ele>84.0</ele><time>2026-04-24T11:12:13.095Z</time></trkpt><trkpt lat="36.4019186" lon="10.3847039"><ele>84.0</ele><time>2026-04-24T11:12:14.094Z</time></trkpt><trkpt lat="36.4017893" lon="10.3845445"><ele>84.0</ele><time>2026-04-24T11:12:15.106Z</time></trkpt><trkpt lat="36.4016589" lon="10.3843856"><ele>83.66666666666667</ele><time>2026-04-24T11:12:16.105Z</time></trkpt><trkpt lat="36.4015296" lon="10.3842239"><ele>83.33333333333334</ele><time>2026-04-24T11:12:17.089Z</time></trkpt><trkpt lat="36.4013998" lon="10.3840594"><ele>83.0</ele><time>2026-04-24T11:12:18.092Z</time></trkpt><trkpt lat="36.4012703" lon="10.3838944"><ele>81.33333333333334</ele><time>2026-04-24T11:12:19.098Z</time></trkpt><trkpt lat="36.4011407" lon="10.3837349"><ele>79.66666666666667</ele><time>2026-04-24T11:12:20.092Z</time></trkpt><trkpt lat="36.4010087" lon="10.3835783"><ele>78.0</ele><time>2026-04-24T11:12:21.089Z</time></trkpt><trkpt lat="36.4008701" lon="10.3834296"><ele>78.0</ele><time>2026-04-24T11:12:22.111Z</time></trkpt><trkpt lat="36.400729" lon="10.3832925"><ele>78.0</ele><time>2026-04-24T11:12:23.087Z</time></trkpt><trkpt lat="36.4005765" lon="10.3831712"><ele>78.0</ele><time>2026-04-24T11:12:24.096Z</time></trkpt><trkpt lat="36.4004149" lon="10.3830623"><ele>77.0</ele><time>2026-04-24T11:12:25.109Z</time></trkpt><trkpt lat="36.4002483" lon="10.3829765"><ele>76.0</ele><time>2026-04-24T11:12:26.097Z</time></trkpt><trkpt lat="36.4000783" lon="10.3829107"><ele>75.0</ele><time>2026-04-24T11:12:27.093Z</time></trkpt><trkpt lat="36.3998993" lon="10.3828558"><ele>75.0</ele><time>2026-04-24T11:12:28.081Z</time></trkpt><trkpt lat="36.3997114" lon="10.3828303"><ele>75.0</ele><time>2026-04-24T11:12:29.096Z</time></trkpt><trkpt lat="36.3995289" lon="10.3828212"><ele>75.0</ele><time>2026-04-24T11:12:30.09Z</time></trkpt><trkpt lat="36.3993434" lon="10.3828354"><ele>75.0</ele><time>2026-04-24T11:12:31.102Z</time></trkpt><trkpt lat="36.3991575" lon="10.3828618"><ele>75.0</ele><time>2026-04-24T11:12:32.105Z</time></trkpt><trkpt lat="36.3989729" lon="10.3829028"><ele>75.0</ele><time>2026-04-24T11:12:33.092Z</time></trkpt><trkpt lat="36.3987937" lon="10.3829537"><ele>75.66666666666667</ele><time>2026-04-24T11:12:34.095Z</time></trkpt><trkpt lat="36.3986175" lon="10.3830107"><ele>76.33333333333334</ele><time>2026-04-24T11:12:35.091Z</time></trkpt><trkpt lat="36.3984389" lon="10.3830564"><ele>77.0</ele><time>2026-04-24T11:12:36.107Z</time></trkpt><trkpt lat="36.3982565" lon="10.3830922"><ele>78.0</ele><time>2026-04-24T11:12:37.107Z</time></trkpt><trkpt lat="36.3980706" lon="10.3831098"><ele>79.0</ele><time>2026-04-24T11:12:38.088Z</time></trkpt><trkpt lat="36.3978847" lon="10.383111"><ele>80.0</ele><time>2026-04-24T11:12:39.085Z</time></trkpt><trkpt lat="36.3977022" lon="10.3831003"><ele>80.66666666666667</ele><time>2026-04-24T11:12:40.096Z</time></trkpt><trkpt lat="36.397521" lon="10.3830715"><ele>81.33333333333333</ele><time>2026-04-24T11:12:41.094Z</time></trkpt><trkpt lat="36.3973426" lon="10.3830257"><ele>82.0</ele><time>2026-04-24T11:12:42.097Z</time></trkpt><trkpt lat="36.3971636" lon="10.3829709"><ele>82.0</ele><time>2026-04-24T11:12:43.099Z</time></trkpt><trkpt lat="36.3969874" lon="10.3829034"><ele>82.0</ele><time>2026-04-24T11:12:44.111Z</time></trkpt><trkpt lat="36.396821" lon="10.3828111"><ele>82.0</ele><time>2026-04-24T11:12:45.099Z</time></trkpt><trkpt lat="36.3966604" lon="10.3827067"><ele>82.0</ele><time>2026-04-24T11:12:46.094Z</time></trkpt><trkpt lat="36.3965032" lon="10.3825842"><ele>82.0</ele><time>2026-04-24T11:12:47.103Z</time></trkpt><trkpt lat="36.3963502" lon="10.382456"><ele>82.0</ele><time>2026-04-24T11:12:48.101Z</time></trkpt><trkpt lat="36.3962027" lon="10.3823171"><ele>83.66666666666666</ele><time>2026-04-24T11:12:49.085Z</time></trkpt><trkpt lat="36.3960704" lon="10.3821645"><ele>85.33333333333333</ele><time>2026-04-24T11:12:50.091Z</time></trkpt><trkpt lat="36.3959487" lon="10.3820046"><ele>87.0</ele><time>2026-04-24T11:12:51.096Z</time></trkpt><trkpt lat="36.3958341" lon="10.3818455"><ele>87.0</ele><time>2026-04-24T11:12:52.11Z</time></trkpt><trkpt lat="36.395723" lon="10.3816969"><ele>87.0</ele><time>2026-04-24T11:12:53.1Z</time></trkpt><trkpt lat="36.395616" lon="10.3815525"><ele>87.0</ele><time>2026-04-24T11:12:54.094Z</time></trkpt><trkpt lat="36.3955035" lon="10.3814118"><ele>87.33333333333333</ele><time>2026-04-24T11:12:55.102Z</time></trkpt><trkpt lat="36.3953886" lon="10.381275"><ele>87.66666666666666</ele><time>2026-04-24T11:12:56.102Z</time></trkpt><trkpt lat="36.395275" lon="10.3811482"><ele>88.0</ele><time>2026-04-24T11:12:57.1Z</time></trkpt><trkpt lat="36.39517" lon="10.3810209"><ele>88.0</ele><time>2026-04-24T11:12:58.09Z</time></trkpt><trkpt lat="36.3950672" lon="10.3808929"><ele>88.0</ele><time>2026-04-24T11:12:59.1Z</time></trkpt><trkpt lat="36.394888" lon="10.3806455"><ele>88.0</ele><time>2026-04-24T11:13:01.105Z</time></trkpt><trkpt lat="36.3948241" lon="10.38052"><ele>87.2</ele><time>2026-04-24T11:13:02.089Z</time></trkpt><trkpt lat="36.3947658" lon="10.3803881"><ele>86.4</ele><time>2026-04-24T11:13:03.086Z</time></trkpt><trkpt lat="36.3947269" lon="10.3802573"><ele>85.60000000000001</ele><time>2026-04-24T11:13:04.103Z</time></trkpt><trkpt lat="36.394702" lon="10.3801232"><ele>84.80000000000001</ele><time>2026-04-24T11:13:05.106Z</time></trkpt><trkpt lat="36.3946913" lon="10.3799937"><ele>84.0</ele><time>2026-04-24T11:13:06.091Z</time></trkpt><trkpt lat="36.3946868" lon="10.3798617"><ele>84.0</ele><time>2026-04-24T11:13:07.108Z</time></trkpt><trkpt lat="36.3946929" lon="10.3797387"><ele>84.0</ele><time>2026-04-24T11:13:08.097Z</time></trkpt><trkpt lat="36.3947055" lon="10.3796226"><ele>84.0</ele><time>2026-04-24T11:13:09.107Z</time></trkpt><trkpt lat="36.3947214" lon="10.3795058"><ele>84.0</ele><time>2026-04-24T11:13:10.109Z</time></trkpt><trkpt lat="36.3947375" lon="10.3793857"><ele>84.0</ele><time>2026-04-24T11:13:11.097Z</time></trkpt><trkpt lat="36.3947559" lon="10.3792575"><ele>83.6</ele><time>2026-04-24T11:13:12.1Z</time></trkpt><trkpt lat="36.3947751" lon="10.379132"><ele>83.2</ele><time>2026-04-24T11:13:13.102Z</time></trkpt><trkpt lat="36.3947926" lon="10.3790028"><ele>82.8</ele><time>2026-04-24T11:13:14.093Z</time></trkpt><trkpt lat="36.3948088" lon="10.3788719"><ele>82.39999999999999</ele><time>2026-04-24T11:13:15.092Z</time></trkpt><trkpt lat="36.394823" lon="10.3787385"><ele>82.0</ele><time>2026-04-24T11:13:16.103Z</time></trkpt><trkpt lat="36.3948385" lon="10.3786002"><ele>81.75</ele><time>2026-04-24T11:13:17.1Z</time></trkpt><trkpt lat="36.3948567" lon="10.3784557"><ele>81.5</ele><time>2026-04-24T11:13:18.092Z</time></trkpt><trkpt lat="36.3948743" lon="10.3783103"><ele>81.25</ele><time>2026-04-24T11:13:19.093Z</time></trkpt><trkpt lat="36.3948968" lon="10.37815"><ele>81.0</ele><time>2026-04-24T11:13:20.099Z</time></trkpt><trkpt lat="36.3949156" lon="10.3779893"><ele>80.25</ele><time>2026-04-24T11:13:21.095Z</time></trkpt><trkpt lat="36.3949385" lon="10.3778276"><ele>79.5</ele><time>2026-04-24T11:13:22.105Z</time></trkpt><trkpt lat="36.3949566" lon="10.3776629"><ele>78.75</ele><time>2026-04-24T11:13:23.09Z</time></trkpt><trkpt lat="36.3949733" lon="10.3774954"><ele>78.0</ele><time>2026-04-24T11:13:24.098Z</time></trkpt><trkpt lat="36.3949969" lon="10.377326"><ele>77.25</ele><time>2026-04-24T11:13:25.089Z</time></trkpt><trkpt lat="36.3950171" lon="10.3771427"><ele>76.5</ele><time>2026-04-24T11:13:26.09Z</time></trkpt><trkpt lat="36.3950354" lon="10.3769592"><ele>75.75</ele><time>2026-04-24T11:13:27.1Z</time></trkpt><trkpt lat="36.3950439" lon="10.3767889"><ele>75.0</ele><time>2026-04-24T11:13:28.11Z</time></trkpt><trkpt lat="36.3950466" lon="10.3766065"><ele>75.0</ele><time>2026-04-24T11:13:29.097Z</time></trkpt><trkpt lat="36.3950463" lon="10.3764182"><ele>75.0</ele><time>2026-04-24T11:13:30.102Z</time></trkpt><trkpt lat="36.3950412" lon="10.376228"><ele>75.0</ele><time>2026-04-24T11:13:31.096Z</time></trkpt><trkpt lat="36.3950332" lon="10.3760309"><ele>75.0</ele><time>2026-04-24T11:13:32.1Z</time></trkpt><trkpt lat="36.3950284" lon="10.3758294"><ele>75.0</ele><time>2026-04-24T11:13:33.098Z</time></trkpt><trkpt lat="36.3950199" lon="10.3756099"><ele>75.0</ele><time>2026-04-24T11:13:34.09Z</time></trkpt><trkpt lat="36.3950088" lon="10.3753783"><ele>74.33333333333333</ele><time>2026-04-24T11:13:35.105Z</time></trkpt><trkpt lat="36.3949958" lon="10.3751498"><ele>73.66666666666666</ele><time>2026-04-24T11:13:36.096Z</time></trkpt><trkpt lat="36.394985" lon="10.3749145"><ele>73.0</ele><time>2026-04-24T11:13:37.097Z</time></trkpt><trkpt lat="36.3949789" lon="10.374682"><ele>72.33333333333333</ele><time>2026-04-24T11:13:38.096Z</time></trkpt><trkpt lat="36.3949706" lon="10.374444"><ele>71.66666666666667</ele><time>2026-04-24T11:13:39.096Z</time></trkpt><trkpt lat="36.3949641" lon="10.3742118"><ele>71.0</ele><time>2026-04-24T11:13:40.085Z</time></trkpt><trkpt lat="36.3949669" lon="10.3739894"><ele>70.0</ele><time>2026-04-24T11:13:41.106Z</time></trkpt><trkpt lat="36.3949731" lon="10.373768"><ele>69.0</ele><time>2026-04-24T11:13:42.101Z</time></trkpt><trkpt lat="36.3949842" lon="10.3735435"><ele>68.0</ele><time>2026-04-24T11:13:43.119Z</time></trkpt><trkpt lat="36.3949968" lon="10.3733227"><ele>68.0</ele><time>2026-04-24T11:13:44.102Z</time></trkpt><trkpt lat="36.3950148" lon="10.3730973"><ele>68.0</ele><time>2026-04-24T11:13:45.091Z</time></trkpt><trkpt lat="36.3950398" lon="10.3728679"><ele>68.0</ele><time>2026-04-24T11:13:46.1Z</time></trkpt><trkpt lat="36.3950629" lon="10.372642"><ele>67.0</ele><time>2026-04-24T11:13:47.09Z</time></trkpt><trkpt lat="36.395097" lon="10.3724148"><ele>66.0</ele><time>2026-04-24T11:13:48.096Z</time></trkpt><trkpt lat="36.3951351" lon="10.372193"><ele>65.0</ele><time>2026-04-24T11:13:49.089Z</time></trkpt><trkpt lat="36.3951789" lon="10.3719692"><ele>64.66666666666667</ele><time>2026-04-24T11:13:50.087Z</time></trkpt><trkpt lat="36.3952258" lon="10.3717514"><ele>64.33333333333333</ele><time>2026-04-24T11:13:51.099Z</time></trkpt><trkpt lat="36.3952749" lon="10.3715341"><ele>64.0</ele><time>2026-04-24T11:13:52.105Z</time></trkpt><trkpt lat="36.3953213" lon="10.3713108"><ele>63.33333333333333</ele><time>2026-04-24T11:13:53.106Z</time></trkpt><trkpt lat="36.3953609" lon="10.3710994"><ele>62.66666666666667</ele><time>2026-04-24T11:13:54.093Z</time></trkpt><trkpt lat="36.3954045" lon="10.3708993"><ele>62.0</ele><time>2026-04-24T11:13:55.103Z</time></trkpt><trkpt lat="36.3954387" lon="10.3707109"><ele>62.0</ele><time>2026-04-24T11:13:56.091Z</time></trkpt><trkpt lat="36.3954651" lon="10.3705467"><ele>62.0</ele><time>2026-04-24T11:13:57.11Z</time></trkpt><trkpt lat="36.3954876" lon="10.3703779"><ele>62.0</ele><time>2026-04-24T11:13:58.097Z</time></trkpt><trkpt lat="36.3954942" lon="10.3702159"><ele>62.0</ele><time>2026-04-24T11:13:59.095Z</time></trkpt><trkpt lat="36.3955004" lon="10.3700588"><ele>61.0</ele><time>2026-04-24T11:14:00.092Z</time></trkpt><trkpt lat="36.3955074" lon="10.3699003"><ele>60.0</ele><time>2026-04-24T11:14:01.113Z</time></trkpt><trkpt lat="36.3955092" lon="10.369736"><ele>59.0</ele><time>2026-04-24T11:14:02.102Z</time></trkpt><trkpt lat="36.3955044" lon="10.3695665"><ele>58.0</ele><time>2026-04-24T11:14:03.09Z</time></trkpt><trkpt lat="36.3954971" lon="10.3693941"><ele>58.0</ele><time>2026-04-24T11:14:04.094Z</time></trkpt><trkpt lat="36.3954832" lon="10.3692288"><ele>58.0</ele><time>2026-04-24T11:14:05.091Z</time></trkpt><trkpt lat="36.3954678" lon="10.3690731"><ele>58.0</ele><time>2026-04-24T11:14:06.103Z</time></trkpt><trkpt lat="36.3954452" lon="10.3689131"><ele>58.0</ele><time>2026-04-24T11:14:07.109Z</time></trkpt><trkpt lat="36.3954172" lon="10.3687462"><ele>57.5</ele><time>2026-04-24T11:14:08.095Z</time></trkpt><trkpt lat="36.3953765" lon="10.3685754"><ele>57.0</ele><time>2026-04-24T11:14:09.116Z</time></trkpt><trkpt lat="36.395336" lon="10.368409"><ele>56.5</ele><time>2026-04-24T11:14:10.082Z</time></trkpt><trkpt lat="36.3953031" lon="10.368237"><ele>56.0</ele><time>2026-04-24T11:14:11.095Z</time></trkpt><trkpt lat="36.395273" lon="10.3680688"><ele>55.5</ele><time>2026-04-24T11:14:12.093Z</time></trkpt><trkpt lat="36.39524" lon="10.3678927"><ele>55.0</ele><time>2026-04-24T11:14:13.082Z</time></trkpt><trkpt lat="36.3952072" lon="10.3677155"><ele>54.5</ele><time>2026-04-24T11:14:14.098Z</time></trkpt><trkpt lat="36.3951722" lon="10.367535"><ele>54.0</ele><time>2026-04-24T11:14:15.096Z</time></trkpt><trkpt lat="36.3951344" lon="10.367345"><ele>54.0</ele><time>2026-04-24T11:14:16.092Z</time></trkpt><trkpt lat="36.3950976" lon="10.3671524"><ele>54.0</ele><time>2026-04-24T11:14:17.091Z</time></trkpt><trkpt lat="36.395066" lon="10.3669687"><ele>54.0</ele><time>2026-04-24T11:14:18.101Z</time></trkpt><trkpt lat="36.3950395" lon="10.3667813"><ele>54.0</ele><time>2026-04-24T11:14:19.09Z</time></trkpt><trkpt lat="36.3950186" lon="10.3665943"><ele>54.0</ele><time>2026-04-24T11:14:20.093Z</time></trkpt><trkpt lat="36.3950028" lon="10.3664032"><ele>54.0</ele><time>2026-04-24T11:14:21.092Z</time></trkpt><trkpt lat="36.3949882" lon="10.3662123"><ele>53.66666666666667</ele><time>2026-04-24T11:14:22.093Z</time></trkpt><trkpt lat="36.3949837" lon="10.36602"><ele>53.333333333333336</ele><time>2026-04-24T11:14:23.09Z</time></trkpt><trkpt lat="36.3949786" lon="10.3658295"><ele>53.0</ele><time>2026-04-24T11:14:24.089Z</time></trkpt><trkpt lat="36.3949766" lon="10.3656341"><ele>53.66666666666667</ele><time>2026-04-24T11:14:25.092Z</time></trkpt><trkpt lat="36.3949708" lon="10.365436"><ele>54.33333333333333</ele><time>2026-04-24T11:14:26.094Z</time></trkpt><trkpt lat="36.3949571" lon="10.3652324"><ele>55.0</ele><time>2026-04-24T11:14:27.095Z</time></trkpt><trkpt lat="36.3949326" lon="10.3650199"><ele>55.0</ele><time>2026-04-24T11:14:28.092Z</time></trkpt><trkpt lat="36.3949001" lon="10.3648033"><ele>55.0</ele><time>2026-04-24T11:14:29.095Z</time></trkpt><trkpt lat="36.3948471" lon="10.3645797"><ele>55.0</ele><time>2026-04-24T11:14:30.102Z</time></trkpt><trkpt lat="36.394779" lon="10.3643435"><ele>55.0</ele><time>2026-04-24T11:14:31.104Z</time></trkpt><trkpt lat="36.3947104" lon="10.3641128"><ele>55.0</ele><time>2026-04-24T11:14:32.094Z</time></trkpt><trkpt lat="36.3946431" lon="10.3638925"><ele>55.0</ele><time>2026-04-24T11:14:33.106Z</time></trkpt><trkpt lat="36.394585" lon="10.3636901"><ele>56.33333333333333</ele><time>2026-04-24T11:14:34.098Z</time></trkpt><trkpt lat="36.3945232" lon="10.3634885"><ele>57.66666666666667</ele><time>2026-04-24T11:14:35.103Z</time></trkpt><trkpt lat="36.394461" lon="10.3632868"><ele>59.0</ele><time>2026-04-24T11:14:36.093Z</time></trkpt><trkpt lat="36.3943985" lon="10.3630822"><ele>59.333333333333336</ele><time>2026-04-24T11:14:37.091Z</time></trkpt><trkpt lat="36.3943286" lon="10.3628722"><ele>59.66666666666667</ele><time>2026-04-24T11:14:38.103Z</time></trkpt><trkpt lat="36.3942566" lon="10.362657"><ele>60.0</ele><time>2026-04-24T11:14:39.096Z</time></trkpt><trkpt lat="36.3941929" lon="10.3624502"><ele>60.0</ele><time>2026-04-24T11:14:40.101Z</time></trkpt><trkpt lat="36.3941317" lon="10.3622623"><ele>60.0</ele><time>2026-04-24T11:14:41.093Z</time></trkpt><trkpt lat="36.3940722" lon="10.3620824"><ele>60.0</ele><time>2026-04-24T11:14:42.095Z</time></trkpt><trkpt lat="36.3940137" lon="10.3619109"><ele>59.75</ele><time>2026-04-24T11:14:43.09Z</time></trkpt><trkpt lat="36.393959" lon="10.3617475"><ele>59.5</ele><time>2026-04-24T11:14:44.097Z</time></trkpt><trkpt lat="36.3939063" lon="10.3615836"><ele>59.25</ele><time>2026-04-24T11:14:45.089Z</time></trkpt><trkpt lat="36.3938439" lon="10.3614085"><ele>59.0</ele><time>2026-04-24T11:14:46.093Z</time></trkpt><trkpt lat="36.3937811" lon="10.3612277"><ele>59.0</ele><time>2026-04-24T11:14:47.085Z</time></trkpt><trkpt lat="36.3937258" lon="10.3610499"><ele>59.0</ele><time>2026-04-24T11:14:48.101Z</time></trkpt><trkpt lat="36.3936759" lon="10.360872"><ele>59.0</ele><time>2026-04-24T11:14:49.096Z</time></trkpt><trkpt lat="36.3936295" lon="10.3606879"><ele>58.66666666666667</ele><time>2026-04-24T11:14:50.095Z</time></trkpt><trkpt lat="36.3935844" lon="10.360501"><ele>58.33333333333333</ele><time>2026-04-24T11:14:51.096Z</time></trkpt><trkpt lat="36.3935483" lon="10.3603093"><ele>58.0</ele><time>2026-04-24T11:14:52.103Z</time></trkpt><trkpt lat="36.393516" lon="10.36012"><ele>58.0</ele><time>2026-04-24T11:14:53.095Z</time></trkpt><trkpt lat="36.3934939" lon="10.3599218"><ele>58.0</ele><time>2026-04-24T11:14:54.096Z</time></trkpt><trkpt lat="36.3934754" lon="10.3597382"><ele>58.0</ele><time>2026-04-24T11:14:55.116Z</time></trkpt><trkpt lat="36.3934663" lon="10.3595554"><ele>57.666666666666664</ele><time>2026-04-24T11:14:56.096Z</time></trkpt><trkpt lat="36.3934545" lon="10.3593674"><ele>57.33333333333333</ele><time>2026-04-24T11:14:57.099Z</time></trkpt><trkpt lat="36.3934455" lon="10.3591794"><ele>57.0</ele><time>2026-04-24T11:14:58.105Z</time></trkpt><trkpt lat="36.393438" lon="10.3589856"><ele>57.0</ele><time>2026-04-24T11:14:59.095Z</time></trkpt><trkpt lat="36.3934291" lon="10.3587924"><ele>57.0</ele><time>2026-04-24T11:15:00.098Z</time></trkpt><trkpt lat="36.3934177" lon="10.3586015"><ele>57.0</ele><time>2026-04-24T11:15:01.1Z</time></trkpt><trkpt lat="36.393406" lon="10.3584056"><ele>57.0</ele><time>2026-04-24T11:15:02.106Z</time></trkpt><trkpt lat="36.3933978" lon="10.3582075"><ele>57.0</ele><time>2026-04-24T11:15:03.108Z</time></trkpt><trkpt lat="36.3933886" lon="10.3580169"><ele>57.0</ele><time>2026-04-24T11:15:04.109Z</time></trkpt><trkpt lat="36.3933918" lon="10.3578159"><ele>57.0</ele><time>2026-04-24T11:15:05.084Z</time></trkpt><trkpt lat="36.3934008" lon="10.3576192"><ele>57.0</ele><time>2026-04-24T11:15:06.085Z</time></trkpt><trkpt lat="36.3934208" lon="10.3574287"><ele>57.0</ele><time>2026-04-24T11:15:07.098Z</time></trkpt><trkpt lat="36.3934534" lon="10.3572342"><ele>56.33333333333333</ele><time>2026-04-24T11:15:08.11Z</time></trkpt><trkpt lat="36.3934974" lon="10.3570449"><ele>55.666666666666664</ele><time>2026-04-24T11:15:09.091Z</time></trkpt><trkpt lat="36.3935578" lon="10.3568512"><ele>55.0</ele><time>2026-04-24T11:15:10.089Z</time></trkpt><trkpt lat="36.3936171" lon="10.3566662"><ele>55.0</ele><time>2026-04-24T11:15:11.088Z</time></trkpt><trkpt lat="36.3936825" lon="10.3564751"><ele>55.0</ele><time>2026-04-24T11:15:12.108Z</time></trkpt><trkpt lat="36.3937589" lon="10.3562767"><ele>55.0</ele><time>2026-04-24T11:15:13.089Z</time></trkpt><trkpt lat="36.3938324" lon="10.3560692"><ele>55.0</ele><time>2026-04-24T11:15:14.09Z</time></trkpt><trkpt lat="36.3939059" lon="10.3558615"><ele>55.0</ele><time>2026-04-24T11:15:15.092Z</time></trkpt><trkpt lat="36.3939801" lon="10.3556528"><ele>55.0</ele><time>2026-04-24T11:15:16.106Z</time></trkpt><trkpt lat="36.3940535" lon="10.3554417"><ele>54.666666666666664</ele><time>2026-04-24T11:15:17.095Z</time></trkpt><trkpt lat="36.3941236" lon="10.3552297"><ele>54.33333333333333</ele><time>2026-04-24T11:15:18.121Z</time></trkpt><trkpt lat="36.394189" lon="10.3550108"><ele>54.0</ele><time>2026-04-24T11:15:19.097Z</time></trkpt><trkpt lat="36.3942387" lon="10.3547936"><ele>54.33333333333333</ele><time>2026-04-24T11:15:20.091Z</time></trkpt><trkpt lat="36.3942713" lon="10.3545681"><ele>54.666666666666664</ele><time>2026-04-24T11:15:21.09Z</time></trkpt><trkpt lat="36.3942993" lon="10.3543375"><ele>55.0</ele><time>2026-04-24T11:15:22.099Z</time></trkpt><trkpt lat="36.3943163" lon="10.3541098"><ele>55.0</ele><time>2026-04-24T11:15:23.1Z</time></trkpt><trkpt lat="36.3943284" lon="10.3538808"><ele>55.0</ele><time>2026-04-24T11:15:24.1Z</time></trkpt><trkpt lat="36.3943294" lon="10.3536543"><ele>55.0</ele><time>2026-04-24T11:15:25.102Z</time></trkpt><trkpt lat="36.3943141" lon="10.3534287"><ele>55.0</ele><time>2026-04-24T11:15:26.098Z</time></trkpt><trkpt lat="36.3942922" lon="10.353205"><ele>55.0</ele><time>2026-04-24T11:15:27.096Z</time></trkpt><trkpt lat="36.3942682" lon="10.3529805"><ele>55.0</ele><time>2026-04-24T11:15:28.087Z</time></trkpt><trkpt lat="36.3942482" lon="10.3527524"><ele>55.0</ele><time>2026-04-24T11:15:29.102Z</time></trkpt><trkpt lat="36.3942243" lon="10.3525205"><ele>55.0</ele><time>2026-04-24T11:15:30.093Z</time></trkpt><trkpt lat="36.3942014" lon="10.3523097"><ele>55.0</ele><time>2026-04-24T11:15:31.095Z</time></trkpt><trkpt lat="36.3941803" lon="10.3520981"><ele>55.0</ele><time>2026-04-24T11:15:32.09Z</time></trkpt><trkpt lat="36.3941546" lon="10.3519025"><ele>55.0</ele><time>2026-04-24T11:15:33.093Z</time></trkpt><trkpt lat="36.3941295" lon="10.3517171"><ele>55.0</ele><time>2026-04-24T11:15:34.111Z</time></trkpt><trkpt lat="36.3941073" lon="10.3515324"><ele>55.0</ele><time>2026-04-24T11:15:35.102Z</time></trkpt><trkpt lat="36.3940883" lon="10.3513551"><ele>55.0</ele><time>2026-04-24T11:15:36.088Z</time></trkpt><trkpt lat="36.3940651" lon="10.3511918"><ele>55.0</ele><time>2026-04-24T11:15:37.099Z</time></trkpt><trkpt lat="36.3940424" lon="10.351031"><ele>55.0</ele><time>2026-04-24T11:15:38.088Z</time></trkpt><trkpt lat="36.3940248" lon="10.3508757"><ele>55.0</ele><time>2026-04-24T11:15:39.106Z</time></trkpt><trkpt lat="36.3940056" lon="10.3507227"><ele>55.0</ele><time>2026-04-24T11:15:40.09Z</time></trkpt><trkpt lat="36.393982" lon="10.350565"><ele>55.0</ele><time>2026-04-24T11:15:41.101Z</time></trkpt><trkpt lat="36.3939537" lon="10.350403"><ele>55.0</ele><time>2026-04-24T11:15:42.102Z</time></trkpt><trkpt lat="36.3939337" lon="10.3502382"><ele>54.5</ele><time>2026-04-24T11:15:43.094Z</time></trkpt><trkpt lat="36.3939089" lon="10.3500703"><ele>54.0</ele><time>2026-04-24T11:15:44.095Z</time></trkpt><trkpt lat="36.3938827" lon="10.3499092"><ele>53.5</ele><time>2026-04-24T11:15:45.095Z</time></trkpt><trkpt lat="36.3938556" lon="10.3497498"><ele>53.0</ele><time>2026-04-24T11:15:46.095Z</time></trkpt><trkpt lat="36.3938205" lon="10.3495913"><ele>52.5</ele><time>2026-04-24T11:15:47.09Z</time></trkpt><trkpt lat="36.3937863" lon="10.3494441"><ele>52.0</ele><time>2026-04-24T11:15:48.108Z</time></trkpt><trkpt lat="36.3937416" lon="10.3492897"><ele>51.5</ele><time>2026-04-24T11:15:49.08Z</time></trkpt><trkpt lat="36.3936919" lon="10.3491325"><ele>51.0</ele><time>2026-04-24T11:15:50.094Z</time></trkpt><trkpt lat="36.3936452" lon="10.3489837"><ele>51.25</ele><time>2026-04-24T11:15:51.096Z</time></trkpt><trkpt lat="36.3935916" lon="10.3488319"><ele>51.5</ele><time>2026-04-24T11:15:52.083Z</time></trkpt><trkpt lat="36.3935261" lon="10.3486841"><ele>51.75</ele><time>2026-04-24T11:15:53.109Z</time></trkpt><trkpt lat="36.3934553" lon="10.3485357"><ele>52.0</ele><time>2026-04-24T11:15:54.093Z</time></trkpt><trkpt lat="36.3933733" lon="10.3483833"><ele>52.0</ele><time>2026-04-24T11:15:55.102Z</time></trkpt><trkpt lat="36.39329" lon="10.3482414"><ele>52.0</ele><time>2026-04-24T11:15:56.11Z</time></trkpt><trkpt lat="36.3932016" lon="10.3481074"><ele>52.0</ele><time>2026-04-24T11:15:57.096Z</time></trkpt><trkpt lat="36.3931138" lon="10.3479693"><ele>52.0</ele><time>2026-04-24T11:15:58.088Z</time></trkpt><trkpt lat="36.3930231" lon="10.3478328"><ele>52.5</ele><time>2026-04-24T11:15:59.099Z</time></trkpt><trkpt lat="36.3929347" lon="10.3476903"><ele>53.0</ele><time>2026-04-24T11:16:00.095Z</time></trkpt><trkpt lat="36.3928441" lon="10.3475522"><ele>53.5</ele><time>2026-04-24T11:16:01.092Z</time></trkpt><trkpt lat="36.3927527" lon="10.3474178"><ele>54.0</ele><time>2026-04-24T11:16:02.091Z</time></trkpt><trkpt lat="36.3926611" lon="10.3472849"><ele>54.25</ele><time>2026-04-24T11:16:03.106Z</time></trkpt><trkpt lat="36.3925806" lon="10.3471469"><ele>54.5</ele><time>2026-04-24T11:16:04.086Z</time></trkpt><trkpt lat="36.3924923" lon="10.3470078"><ele>54.75</ele><time>2026-04-24T11:16:05.09Z</time></trkpt><trkpt lat="36.3924056" lon="10.3468651"><ele>55.0</ele><time>2026-04-24T11:16:06.09Z</time></trkpt><trkpt lat="36.3923145" lon="10.3467305"><ele>55.0</ele><time>2026-04-24T11:16:07.102Z</time></trkpt><trkpt lat="36.3922289" lon="10.3465999"><ele>55.0</ele><time>2026-04-24T11:16:08.099Z</time></trkpt><trkpt lat="36.3921412" lon="10.3464658"><ele>55.0</ele><time>2026-04-24T11:16:09.098Z</time></trkpt><trkpt lat="36.3920546" lon="10.3463319"><ele>55.0</ele><time>2026-04-24T11:16:10.096Z</time></trkpt><trkpt lat="36.39197" lon="10.3462012"><ele>54.5</ele><time>2026-04-24T11:16:11.083Z</time></trkpt><trkpt lat="36.3918782" lon="10.3460676"><ele>54.0</ele><time>2026-04-24T11:16:12.104Z</time></trkpt><trkpt lat="36.3917842" lon="10.3459263"><ele>53.5</ele><time>2026-04-24T11:16:13.09Z</time></trkpt><trkpt lat="36.3916915" lon="10.3457889"><ele>53.0</ele><time>2026-04-24T11:16:14.083Z</time></trkpt><trkpt lat="36.3916001" lon="10.3456521"><ele>53.75</ele><time>2026-04-24T11:16:15.108Z</time></trkpt><trkpt lat="36.3915125" lon="10.3455218"><ele>54.5</ele><time>2026-04-24T11:16:16.087Z</time></trkpt><trkpt lat="36.3914243" lon="10.3453818"><ele>55.25</ele><time>2026-04-24T11:16:17.074Z</time></trkpt><trkpt lat="36.3913379" lon="10.3452423"><ele>56.0</ele><time>2026-04-24T11:16:18.07Z</time></trkpt><trkpt lat="36.3912548" lon="10.3451003"><ele>56.25</ele><time>2026-04-24T11:16:19.093Z</time></trkpt><trkpt lat="36.3911644" lon="10.3449624"><ele>56.5</ele><time>2026-04-24T11:16:20.134Z</time></trkpt><trkpt lat="36.3910792" lon="10.3448274"><ele>56.75</ele><time>2026-04-24T11:16:21.099Z</time></trkpt><trkpt lat="36.3909916" lon="10.3446958"><ele>57.0</ele><time>2026-04-24T11:16:22.079Z</time></trkpt><trkpt lat="36.3909047" lon="10.3445587"><ele>57.0</ele><time>2026-04-24T11:16:23.086Z</time></trkpt><trkpt lat="36.3908167" lon="10.3444164"><ele>57.0</ele><time>2026-04-24T11:16:24.098Z</time></trkpt><trkpt lat="36.3907283" lon="10.3442816"><ele>57.0</ele><time>2026-04-24T11:16:25.1Z</time></trkpt><trkpt lat="36.3906402" lon="10.3441445"><ele>57.0</ele><time>2026-04-24T11:16:26.085Z</time></trkpt><trkpt lat="36.3905539" lon="10.3440099"><ele>57.0</ele><time>2026-04-24T11:16:27.138Z</time></trkpt><trkpt lat="36.3904684" lon="10.3438711"><ele>57.0</ele><time>2026-04-24T11:16:28.088Z</time></trkpt><trkpt lat="36.3903809" lon="10.3437376"><ele>57.0</ele><time>2026-04-24T11:16:29.087Z</time></trkpt><trkpt lat="36.3902869" lon="10.3436024"><ele>57.0</ele><time>2026-04-24T11:16:30.092Z</time></trkpt><trkpt lat="36.3901918" lon="10.3434733"><ele>57.0</ele><time>2026-04-24T11:16:31.105Z</time></trkpt><trkpt lat="36.3900937" lon="10.3433458"><ele>57.0</ele><time>2026-04-24T11:16:32.078Z</time></trkpt><trkpt lat="36.3899961" lon="10.3432191"><ele>57.0</ele><time>2026-04-24T11:16:33.107Z</time></trkpt><trkpt lat="36.3898932" lon="10.3430992"><ele>57.0</ele><time>2026-04-24T11:16:34.1Z</time></trkpt><trkpt lat="36.389786" lon="10.3429912"><ele>57.75</ele><time>2026-04-24T11:16:35.088Z</time></trkpt><trkpt lat="36.3896694" lon="10.3428816"><ele>58.5</ele><time>2026-04-24T11:16:36.104Z</time></trkpt><trkpt lat="36.3895519" lon="10.3427782"><ele>59.25</ele><time>2026-04-24T11:16:37.099Z</time></trkpt><trkpt lat="36.3894405" lon="10.3426804"><ele>60.0</ele><time>2026-04-24T11:16:38.098Z</time></trkpt><trkpt lat="36.3893225" lon="10.3425831"><ele>60.0</ele><time>2026-04-24T11:16:39.091Z</time></trkpt><trkpt lat="36.3892052" lon="10.3424842"><ele>60.0</ele><time>2026-04-24T11:16:40.103Z</time></trkpt><trkpt lat="36.3890869" lon="10.3423892"><ele>60.0</ele><time>2026-04-24T11:16:41.098Z</time></trkpt><trkpt lat="36.3889681" lon="10.3422912"><ele>60.0</ele><time>2026-04-24T11:16:42.099Z</time></trkpt><trkpt lat="36.3888509" lon="10.3421921"><ele>60.25</ele><time>2026-04-24T11:16:43.101Z</time></trkpt><trkpt lat="36.3887329" lon="10.3420959"><ele>60.5</ele><time>2026-04-24T11:16:44.092Z</time></trkpt><trkpt lat="36.3886201" lon="10.3420016"><ele>60.75</ele><time>2026-04-24T11:16:45.096Z</time></trkpt><trkpt lat="36.3885065" lon="10.3419048"><ele>61.0</ele><time>2026-04-24T11:16:46.089Z</time></trkpt><trkpt lat="36.3883916" lon="10.3418106"><ele>61.0</ele><time>2026-04-24T11:16:47.083Z</time></trkpt><trkpt lat="36.3882728" lon="10.3417108"><ele>61.0</ele><time>2026-04-24T11:16:48.113Z</time></trkpt><trkpt lat="36.3881468" lon="10.341612"><ele>61.0</ele><time>2026-04-24T11:16:49.09Z</time></trkpt><trkpt lat="36.3880228" lon="10.3415133"><ele>61.0</ele><time>2026-04-24T11:16:50.1Z</time></trkpt><trkpt lat="36.3878954" lon="10.3414123"><ele>61.666666666666664</ele><time>2026-04-24T11:16:51.109Z</time></trkpt><trkpt lat="36.3877699" lon="10.3413115"><ele>62.33333333333333</ele><time>2026-04-24T11:16:52.105Z</time></trkpt><trkpt lat="36.3876397" lon="10.3412069"><ele>63.0</ele><time>2026-04-24T11:16:53.088Z</time></trkpt><trkpt lat="36.3875159" lon="10.341101"><ele>63.0</ele><time>2026-04-24T11:16:54.098Z</time></trkpt><trkpt lat="36.3873904" lon="10.3409914"><ele>63.0</ele><time>2026-04-24T11:16:55.099Z</time></trkpt><trkpt lat="36.3872637" lon="10.3408808"><ele>63.0</ele><time>2026-04-24T11:16:56.099Z</time></trkpt><trkpt lat="36.3871373" lon="10.3407714"><ele>62.66666666666667</ele><time>2026-04-24T11:16:57.097Z</time></trkpt><trkpt lat="36.3870058" lon="10.3406685"><ele>62.333333333333336</ele><time>2026-04-24T11:16:58.095Z</time></trkpt><trkpt lat="36.3868801" lon="10.340567"><ele>62.0</ele><time>2026-04-24T11:16:59.093Z</time></trkpt><trkpt lat="36.3867534" lon="10.3404652"><ele>63.0</ele><time>2026-04-24T11:17:00.096Z</time></trkpt><trkpt lat="36.3866253" lon="10.3403585"><ele>64.0</ele><time>2026-04-24T11:17:01.092Z</time></trkpt><trkpt lat="36.386491" lon="10.3402587"><ele>65.0</ele><time>2026-04-24T11:17:02.101Z</time></trkpt><trkpt lat="36.3863615" lon="10.3401627"><ele>64.0</ele><time>2026-04-24T11:17:03.107Z</time></trkpt><trkpt lat="36.3862327" lon="10.3400705"><ele>63.0</ele><time>2026-04-24T11:17:04.095Z</time></trkpt><trkpt lat="36.3860992" lon="10.3399811"><ele>62.0</ele><time>2026-04-24T11:17:05.099Z</time></trkpt><trkpt lat="36.3859608" lon="10.3398978"><ele>62.0</ele><time>2026-04-24T11:17:06.093Z</time></trkpt><trkpt lat="36.3858258" lon="10.339825"><ele>62.0</ele><time>2026-04-24T11:17:07.1Z</time></trkpt><trkpt lat="36.3856892" lon="10.3397573"><ele>62.0</ele><time>2026-04-24T11:17:08.091Z</time></trkpt><trkpt lat="36.3855571" lon="10.339693"><ele>62.0</ele><time>2026-04-24T11:17:09.092Z</time></trkpt><trkpt lat="36.3854286" lon="10.3396333"><ele>63.0</ele><time>2026-04-24T11:17:10.102Z</time></trkpt><trkpt lat="36.3852976" lon="10.3395797"><ele>64.0</ele><time>2026-04-24T11:17:11.101Z</time></trkpt><trkpt lat="36.3851679" lon="10.3395169"><ele>65.0</ele><time>2026-04-24T11:17:12.115Z</time></trkpt><trkpt lat="36.3850398" lon="10.3394533"><ele>66.0</ele><time>2026-04-24T11:17:13.085Z</time></trkpt><trkpt lat="36.3849121" lon="10.3393929"><ele>66.0</ele><time>2026-04-24T11:17:14.109Z</time></trkpt><trkpt lat="36.3847839" lon="10.3393299"><ele>66.0</ele><time>2026-04-24T11:17:15.098Z</time></trkpt><trkpt lat="36.3846537" lon="10.3392615"><ele>66.0</ele><time>2026-04-24T11:17:16.092Z</time></trkpt><trkpt lat="36.3845146" lon="10.339194"><ele>66.0</ele><time>2026-04-24T11:17:17.084Z</time></trkpt><trkpt lat="36.3843736" lon="10.3391241"><ele>66.66666666666667</ele><time>2026-04-24T11:17:18.095Z</time></trkpt><trkpt lat="36.3842305" lon="10.3390592"><ele>67.33333333333334</ele><time>2026-04-24T11:17:19.095Z</time></trkpt><trkpt lat="36.3840889" lon="10.339002"><ele>68.0</ele><time>2026-04-24T11:17:20.101Z</time></trkpt><trkpt lat="36.3839461" lon="10.3389405"><ele>68.75</ele><time>2026-04-24T11:17:21.102Z</time></trkpt><trkpt lat="36.3838057" lon="10.3388813"><ele>69.5</ele><time>2026-04-24T11:17:22.096Z</time></trkpt><trkpt lat="36.3836643" lon="10.3388093"><ele>70.25</ele><time>2026-04-24T11:17:23.093Z</time></trkpt><trkpt lat="36.3835278" lon="10.3387404"><ele>71.0</ele><time>2026-04-24T11:17:24.096Z</time></trkpt><trkpt lat="36.3833895" lon="10.3386658"><ele>71.0</ele><time>2026-04-24T11:17:25.105Z</time></trkpt><trkpt lat="36.3832531" lon="10.3385875"><ele>71.0</ele><time>2026-04-24T11:17:26.094Z</time></trkpt><trkpt lat="36.3831106" lon="10.3385099"><ele>71.0</ele><time>2026-04-24T11:17:27.09Z</time></trkpt><trkpt lat="36.382969" lon="10.3384269"><ele>71.0</ele><time>2026-04-24T11:17:28.099Z</time></trkpt><trkpt lat="36.3828295" lon="10.3383374"><ele>71.0</ele><time>2026-04-24T11:17:29.086Z</time></trkpt><trkpt lat="36.3826889" lon="10.3382473"><ele>71.0</ele><time>2026-04-24T11:17:30.083Z</time></trkpt><trkpt lat="36.3825495" lon="10.3381564"><ele>71.0</ele><time>2026-04-24T11:17:31.105Z</time></trkpt><trkpt lat="36.3824146" lon="10.3380571"><ele>71.0</ele><time>2026-04-24T11:17:32.082Z</time></trkpt><trkpt lat="36.3822791" lon="10.3379515"><ele>71.0</ele><time>2026-04-24T11:17:33.094Z</time></trkpt><trkpt lat="36.3821486" lon="10.3378428"><ele>70.66666666666667</ele><time>2026-04-24T11:17:34.1Z</time></trkpt><trkpt lat="36.3820263" lon="10.3377306"><ele>70.33333333333333</ele><time>2026-04-24T11:17:35.087Z</time></trkpt><trkpt lat="36.3819027" lon="10.3376029"><ele>70.0</ele><time>2026-04-24T11:17:36.105Z</time></trkpt><trkpt lat="36.3817894" lon="10.3374713"><ele>70.0</ele><time>2026-04-24T11:17:37.09Z</time></trkpt><trkpt lat="36.3816785" lon="10.3373387"><ele>70.0</ele><time>2026-04-24T11:17:38.098Z</time></trkpt><trkpt lat="36.3815662" lon="10.3372014"><ele>70.0</ele><time>2026-04-24T11:17:39.103Z</time></trkpt><trkpt lat="36.3814574" lon="10.3370688"><ele>70.66666666666666</ele><time>2026-04-24T11:17:40.088Z</time></trkpt><trkpt lat="36.3813519" lon="10.3369354"><ele>71.33333333333333</ele><time>2026-04-24T11:17:41.091Z</time></trkpt><trkpt lat="36.381247" lon="10.3368005"><ele>72.0</ele><time>2026-04-24T11:17:42.093Z</time></trkpt><trkpt lat="36.3811415" lon="10.3366664"><ele>71.25</ele><time>2026-04-24T11:17:43.099Z</time></trkpt><trkpt lat="36.3810396" lon="10.3365326"><ele>70.5</ele><time>2026-04-24T11:17:44.102Z</time></trkpt><trkpt lat="36.3809391" lon="10.336399"><ele>69.75</ele><time>2026-04-24T11:17:45.096Z</time></trkpt><trkpt lat="36.3808377" lon="10.3362625"><ele>69.0</ele><time>2026-04-24T11:17:46.091Z</time></trkpt><trkpt lat="36.3807432" lon="10.3361258"><ele>69.0</ele><time>2026-04-24T11:17:47.094Z</time></trkpt><trkpt lat="36.3806535" lon="10.335983"><ele>69.0</ele><time>2026-04-24T11:17:48.102Z</time></trkpt><trkpt lat="36.3805666" lon="10.3358344"><ele>69.0</ele><time>2026-04-24T11:17:49.098Z</time></trkpt><trkpt lat="36.3804815" lon="10.3356834"><ele>69.0</ele><time>2026-04-24T11:17:50.103Z</time></trkpt><trkpt lat="36.3804016" lon="10.3355304"><ele>69.0</ele><time>2026-04-24T11:17:51.093Z</time></trkpt><trkpt lat="36.3803177" lon="10.3353769"><ele>69.0</ele><time>2026-04-24T11:17:52.093Z</time></trkpt><trkpt lat="36.3802328" lon="10.3352221"><ele>69.0</ele><time>2026-04-24T11:17:53.087Z</time></trkpt><trkpt lat="36.3801583" lon="10.3350664"><ele>69.0</ele><time>2026-04-24T11:17:54.083Z</time></trkpt><trkpt lat="36.3800853" lon="10.3349054"><ele>69.0</ele><time>2026-04-24T11:17:55.112Z</time></trkpt><trkpt lat="36.3800129" lon="10.3347486"><ele>69.0</ele><time>2026-04-24T11:17:56.102Z</time></trkpt><trkpt lat="36.379938" lon="10.3345805"><ele>69.0</ele><time>2026-04-24T11:17:57.102Z</time></trkpt><trkpt lat="36.3798669" lon="10.3344178"><ele>69.0</ele><time>2026-04-24T11:17:58.107Z</time></trkpt><trkpt lat="36.3797974" lon="10.3342486"><ele>68.66666666666667</ele><time>2026-04-24T11:17:59.095Z</time></trkpt><trkpt lat="36.3797328" lon="10.3340764"><ele>68.33333333333334</ele><time>2026-04-24T11:18:00.087Z</time></trkpt><trkpt lat="36.3796735" lon="10.3339048"><ele>68.0</ele><time>2026-04-24T11:18:01.088Z</time></trkpt><trkpt lat="36.3796197" lon="10.3337319"><ele>68.66666666666667</ele><time>2026-04-24T11:18:02.092Z</time></trkpt><trkpt lat="36.3795669" lon="10.3335537"><ele>69.33333333333333</ele><time>2026-04-24T11:18:03.09Z</time></trkpt><trkpt lat="36.37951" lon="10.3333744"><ele>70.0</ele><time>2026-04-24T11:18:04.099Z</time></trkpt><trkpt lat="36.3794543" lon="10.3331936"><ele>71.33333333333333</ele><time>2026-04-24T11:18:05.101Z</time></trkpt><trkpt lat="36.379399" lon="10.3330105"><ele>72.66666666666667</ele><time>2026-04-24T11:18:06.098Z</time></trkpt><trkpt lat="36.3793482" lon="10.3328248"><ele>74.0</ele><time>2026-04-24T11:18:07.093Z</time></trkpt><trkpt lat="36.3793019" lon="10.332638"><ele>74.0</ele><time>2026-04-24T11:18:08.088Z</time></trkpt><trkpt lat="36.3792697" lon="10.3324518"><ele>74.0</ele><time>2026-04-24T11:18:09.081Z</time></trkpt><trkpt lat="36.3792451" lon="10.3322615"><ele>74.0</ele><time>2026-04-24T11:18:10.104Z</time></trkpt><trkpt lat="36.379229" lon="10.3320703"><ele>75.0</ele><time>2026-04-24T11:18:11.092Z</time></trkpt><trkpt lat="36.3792173" lon="10.3318728"><ele>76.0</ele><time>2026-04-24T11:18:12.098Z</time></trkpt><trkpt lat="36.3792082" lon="10.3316711"><ele>77.0</ele><time>2026-04-24T11:18:13.097Z</time></trkpt><trkpt lat="36.3792007" lon="10.3314687"><ele>77.66666666666667</ele><time>2026-04-24T11:18:14.092Z</time></trkpt><trkpt lat="36.3791927" lon="10.3312668"><ele>78.33333333333333</ele><time>2026-04-24T11:18:15.101Z</time></trkpt><trkpt lat="36.3791861" lon="10.3310622"><ele>79.0</ele><time>2026-04-24T11:18:16.08Z</time></trkpt><trkpt lat="36.3791778" lon="10.3308576"><ele>79.0</ele><time>2026-04-24T11:18:17.091Z</time></trkpt><trkpt lat="36.3791729" lon="10.3306555"><ele>79.0</ele><time>2026-04-24T11:18:18.1Z</time></trkpt><trkpt lat="36.3791682" lon="10.3304499"><ele>79.0</ele><time>2026-04-24T11:18:19.097Z</time></trkpt><trkpt lat="36.3791654" lon="10.3302516"><ele>79.66666666666666</ele><time>2026-04-24T11:18:20.084Z</time></trkpt><trkpt lat="36.3791669" lon="10.3300559"><ele>80.33333333333333</ele><time>2026-04-24T11:18:21.083Z</time></trkpt><trkpt lat="36.3791709" lon="10.329849"><ele>81.0</ele><time>2026-04-24T11:18:22.101Z</time></trkpt><trkpt lat="36.3791781" lon="10.3296473"><ele>81.66666666666667</ele><time>2026-04-24T11:18:23.09Z</time></trkpt><trkpt lat="36.3791925" lon="10.3294426"><ele>82.33333333333334</ele><time>2026-04-24T11:18:24.116Z</time></trkpt><trkpt lat="36.3792123" lon="10.3292386"><ele>83.0</ele><time>2026-04-24T11:18:25.096Z</time></trkpt><trkpt lat="36.3792398" lon="10.3290391"><ele>81.66666666666667</ele><time>2026-04-24T11:18:26.086Z</time></trkpt><trkpt lat="36.3792692" lon="10.3288436"><ele>80.33333333333333</ele><time>2026-04-24T11:18:27.092Z</time></trkpt><trkpt lat="36.3792967" lon="10.3286436"><ele>79.0</ele><time>2026-04-24T11:18:28.107Z</time></trkpt><trkpt lat="36.3793323" lon="10.3284433"><ele>79.0</ele><time>2026-04-24T11:18:29.093Z</time></trkpt><trkpt lat="36.3793695" lon="10.3282424"><ele>79.0</ele><time>2026-04-24T11:18:30.082Z</time></trkpt><trkpt lat="36.3794057" lon="10.3280414"><ele>79.0</ele><time>2026-04-24T11:18:31.079Z</time></trkpt><trkpt lat="36.3794473" lon="10.3278443"><ele>77.66666666666666</ele><time>2026-04-24T11:18:32.098Z</time></trkpt><trkpt lat="36.3794943" lon="10.3276473"><ele>76.33333333333333</ele><time>2026-04-24T11:18:33.082Z</time></trkpt><trkpt lat="36.3795449" lon="10.3274569"><ele>75.0</ele><time>2026-04-24T11:18:34.09Z</time></trkpt><trkpt lat="36.3796026" lon="10.3272728"><ele>74.66666666666667</ele><time>2026-04-24T11:18:35.104Z</time></trkpt><trkpt lat="36.3796685" lon="10.3270857"><ele>74.33333333333334</ele><time>2026-04-24T11:18:36.098Z</time></trkpt><trkpt lat="36.3797416" lon="10.3269051"><ele>74.0</ele><time>2026-04-24T11:18:37.097Z</time></trkpt><trkpt lat="36.3798149" lon="10.3267215"><ele>74.0</ele><time>2026-04-24T11:18:38.09Z</time></trkpt><trkpt lat="36.3798926" lon="10.3265378"><ele>74.0</ele><time>2026-04-24T11:18:39.089Z</time></trkpt><trkpt lat="36.3799746" lon="10.32636"><ele>74.0</ele><time>2026-04-24T11:18:40.094Z</time></trkpt><trkpt lat="36.3800629" lon="10.3261795"><ele>74.0</ele><time>2026-04-24T11:18:41.097Z</time></trkpt><trkpt lat="36.3801506" lon="10.3260101"><ele>74.0</ele><time>2026-04-24T11:18:42.099Z</time></trkpt><trkpt lat="36.3802366" lon="10.3258423"><ele>74.0</ele><time>2026-04-24T11:18:43.086Z</time></trkpt><trkpt lat="36.380327" lon="10.3256684"><ele>73.33333333333334</ele><time>2026-04-24T11:18:44.099Z</time></trkpt><trkpt lat="36.3804129" lon="10.3254951"><ele>72.66666666666667</ele><time>2026-04-24T11:18:45.09Z</time></trkpt><trkpt lat="36.3805" lon="10.3253182"><ele>72.0</ele><time>2026-04-24T11:18:46.096Z</time></trkpt><trkpt lat="36.3805876" lon="10.3251401"><ele>72.33333333333333</ele><time>2026-04-24T11:18:47.1Z</time></trkpt><trkpt lat="36.3806725" lon="10.3249678"><ele>72.66666666666666</ele><time>2026-04-24T11:18:48.094Z</time></trkpt><trkpt lat="36.3807572" lon="10.3247983"><ele>73.0</ele><time>2026-04-24T11:18:49.091Z</time></trkpt><trkpt lat="36.3808389" lon="10.3246303"><ele>73.0</ele><time>2026-04-24T11:18:50.094Z</time></trkpt><trkpt lat="36.3809222" lon="10.3244591"><ele>73.0</ele><time>2026-04-24T11:18:51.095Z</time></trkpt><trkpt lat="36.3810085" lon="10.3242819"><ele>73.0</ele><time>2026-04-24T11:18:52.09Z</time></trkpt><trkpt lat="36.3810932" lon="10.3241069"><ele>73.0</ele><time>2026-04-24T11:18:53.092Z</time></trkpt><trkpt lat="36.3811833" lon="10.323933"><ele>73.0</ele><time>2026-04-24T11:18:54.1Z</time></trkpt><trkpt lat="36.38127" lon="10.323757"><ele>73.0</ele><time>2026-04-24T11:18:55.101Z</time></trkpt><trkpt lat="36.3813579" lon="10.3235841"><ele>73.25</ele><time>2026-04-24T11:18:56.099Z</time></trkpt><trkpt lat="36.3814356" lon="10.3234228"><ele>73.5</ele><time>2026-04-24T11:18:57.095Z</time></trkpt><trkpt lat="36.381504" lon="10.3232882"><ele>73.75</ele><time>2026-04-24T11:18:58.087Z</time></trkpt><trkpt lat="36.3815614" lon="10.3231654"><ele>74.0</ele><time>2026-04-24T11:18:59.09Z</time></trkpt><trkpt lat="36.3816046" lon="10.3230727"><ele>73.66666666666667</ele><time>2026-04-24T11:19:00.09Z</time></trkpt><trkpt lat="36.3816365" lon="10.3230027"><ele>73.33333333333334</ele><time>2026-04-24T11:19:01.088Z</time></trkpt><trkpt lat="36.3817022" lon="10.3228802"><ele>73.0</ele><time>2026-04-24T11:19:03.093Z</time></trkpt><trkpt lat="36.3817337" lon="10.3227963"><ele>72.66666666666667</ele><time>2026-04-24T11:19:04.098Z</time></trkpt><trkpt lat="36.3817825" lon="10.3226992"><ele>72.33333333333333</ele><time>2026-04-24T11:19:05.103Z</time></trkpt><trkpt lat="36.3818352" lon="10.3225964"><ele>72.0</ele><time>2026-04-24T11:19:06.099Z</time></trkpt><trkpt lat="36.3818893" lon="10.3224954"><ele>72.0</ele><time>2026-04-24T11:19:07.09Z</time></trkpt><trkpt lat="36.3819447" lon="10.3223814"><ele>72.0</ele><time>2026-04-24T11:19:08.097Z</time></trkpt><trkpt lat="36.3820049" lon="10.3222561"><ele>72.0</ele><time>2026-04-24T11:19:09.105Z</time></trkpt><trkpt lat="36.3820656" lon="10.3221337"><ele>72.0</ele><time>2026-04-24T11:19:10.087Z</time></trkpt><trkpt lat="36.3821295" lon="10.3220071"><ele>72.25</ele><time>2026-04-24T11:19:11.093Z</time></trkpt><trkpt lat="36.3821918" lon="10.321883"><ele>72.5</ele><time>2026-04-24T11:19:12.101Z</time></trkpt><trkpt lat="36.3822505" lon="10.3217537"><ele>72.75</ele><time>2026-04-24T11:19:13.097Z</time></trkpt><trkpt lat="36.382313" lon="10.3216211"><ele>73.0</ele><time>2026-04-24T11:19:14.088Z</time></trkpt><trkpt lat="36.3823729" lon="10.3214858"><ele>72.25</ele><time>2026-04-24T11:19:15.101Z</time></trkpt><trkpt lat="36.3824379" lon="10.3213532"><ele>71.5</ele><time>2026-04-24T11:19:16.087Z</time></trkpt><trkpt lat="36.3825016" lon="10.3212258"><ele>70.75</ele><time>2026-04-24T11:19:17.097Z</time></trkpt><trkpt lat="36.3825668" lon="10.3210979"><ele>70.0</ele><time>2026-04-24T11:19:18.089Z</time></trkpt><trkpt lat="36.3826267" lon="10.3209659"><ele>70.0</ele><time>2026-04-24T11:19:19.086Z</time></trkpt><trkpt lat="36.38269" lon="10.3208349"><ele>70.0</ele><time>2026-04-24T11:19:20.08Z</time></trkpt><trkpt lat="36.3827568" lon="10.3207046"><ele>70.0</ele><time>2026-04-24T11:19:21.09Z</time></trkpt><trkpt lat="36.3828191" lon="10.3205731"><ele>70.0</ele><time>2026-04-24T11:19:22.084Z</time></trkpt><trkpt lat="36.3828838" lon="10.3204433"><ele>70.0</ele><time>2026-04-24T11:19:23.085Z</time></trkpt><trkpt lat="36.3829548" lon="10.320308"><ele>70.0</ele><time>2026-04-24T11:19:24.088Z</time></trkpt><trkpt lat="36.3830234" lon="10.3201641"><ele>70.0</ele><time>2026-04-24T11:19:25.077Z</time></trkpt><trkpt lat="36.3830945" lon="10.3200273"><ele>70.0</ele><time>2026-04-24T11:19:26.085Z</time></trkpt><trkpt lat="36.3831698" lon="10.3198834"><ele>69.33333333333333</ele><time>2026-04-24T11:19:27.087Z</time></trkpt><trkpt lat="36.3832594" lon="10.3197243"><ele>68.66666666666667</ele><time>2026-04-24T11:19:28.086Z</time></trkpt><trkpt lat="36.3833541" lon="10.3195292"><ele>68.0</ele><time>2026-04-24T11:19:29.091Z</time></trkpt><trkpt lat="36.3834638" lon="10.3193201"><ele>68.0</ele><time>2026-04-24T11:19:30.097Z</time></trkpt><trkpt lat="36.3835778" lon="10.3191326"><ele>68.0</ele><time>2026-04-24T11:19:31.102Z</time></trkpt><trkpt lat="36.3836913" lon="10.3189493"><ele>68.0</ele><time>2026-04-24T11:19:32.093Z</time></trkpt><trkpt lat="36.3837968" lon="10.3187824"><ele>67.66666666666667</ele><time>2026-04-24T11:19:33.093Z</time></trkpt><trkpt lat="36.3838988" lon="10.3186186"><ele>67.33333333333333</ele><time>2026-04-24T11:19:34.094Z</time></trkpt><trkpt lat="36.3839963" lon="10.3184564"><ele>67.0</ele><time>2026-04-24T11:19:35.09Z</time></trkpt><trkpt lat="36.3840848" lon="10.3183075"><ele>67.0</ele><time>2026-04-24T11:19:36.098Z</time></trkpt><trkpt lat="36.3841792" lon="10.3181516"><ele>67.0</ele><time>2026-04-24T11:19:37.082Z</time></trkpt><trkpt lat="36.3842766" lon="10.3179975"><ele>67.0</ele><time>2026-04-24T11:19:38.093Z</time></trkpt><trkpt lat="36.384379" lon="10.3178424"><ele>66.66666666666666</ele><time>2026-04-24T11:19:39.094Z</time></trkpt><trkpt lat="36.3844822" lon="10.3176762"><ele>66.33333333333333</ele><time>2026-04-24T11:19:40.09Z</time></trkpt><trkpt lat="36.384586" lon="10.3175084"><ele>66.0</ele><time>2026-04-24T11:19:41.085Z</time></trkpt><trkpt lat="36.3846897" lon="10.3173367"><ele>66.0</ele><time>2026-04-24T11:19:42.099Z</time></trkpt><trkpt lat="36.3847899" lon="10.3171634"><ele>66.0</ele><time>2026-04-24T11:19:43.089Z</time></trkpt><trkpt lat="36.3848879" lon="10.3169831"><ele>66.0</ele><time>2026-04-24T11:19:44.1Z</time></trkpt><trkpt lat="36.3849835" lon="10.3167953"><ele>66.0</ele><time>2026-04-24T11:19:45.094Z</time></trkpt><trkpt lat="36.385079" lon="10.3166085"><ele>66.0</ele><time>2026-04-24T11:19:46.081Z</time></trkpt><trkpt lat="36.385166" lon="10.3164281"><ele>66.0</ele><time>2026-04-24T11:19:47.092Z</time></trkpt><trkpt lat="36.3852447" lon="10.3162567"><ele>65.66666666666667</ele><time>2026-04-24T11:19:48.09Z</time></trkpt><trkpt lat="36.3853196" lon="10.3160814"><ele>65.33333333333334</ele><time>2026-04-24T11:19:49.092Z</time></trkpt><trkpt lat="36.3853884" lon="10.3159009"><ele>65.0</ele><time>2026-04-24T11:19:50.093Z</time></trkpt><trkpt lat="36.3854696" lon="10.315692"><ele>64.33333333333334</ele><time>2026-04-24T11:19:51.085Z</time></trkpt><trkpt lat="36.3855654" lon="10.3154768"><ele>63.66666666666667</ele><time>2026-04-24T11:19:52.083Z</time></trkpt><trkpt lat="36.3856595" lon="10.3152524"><ele>63.0</ele><time>2026-04-24T11:19:53.087Z</time></trkpt><trkpt lat="36.3857537" lon="10.3150183"><ele>63.0</ele><time>2026-04-24T11:19:54.108Z</time></trkpt><trkpt lat="36.3858449" lon="10.3147858"><ele>63.0</ele><time>2026-04-24T11:19:55.092Z</time></trkpt><trkpt lat="36.3859391" lon="10.3145604"><ele>63.0</ele><time>2026-04-24T11:19:56.093Z</time></trkpt><trkpt lat="36.3860255" lon="10.3143457"><ele>63.0</ele><time>2026-04-24T11:19:57.107Z</time></trkpt><trkpt lat="36.3861137" lon="10.3141437"><ele>63.0</ele><time>2026-04-24T11:19:58.08Z</time></trkpt><trkpt lat="36.3861939" lon="10.3139426"><ele>63.0</ele><time>2026-04-24T11:19:59.082Z</time></trkpt><trkpt lat="36.3862747" lon="10.3137311"><ele>63.33333333333333</ele><time>2026-04-24T11:20:00.092Z</time></trkpt><trkpt lat="36.3863594" lon="10.313518"><ele>63.666666666666664</ele><time>2026-04-24T11:20:01.099Z</time></trkpt><trkpt lat="36.3864415" lon="10.3132993"><ele>64.0</ele><time>2026-04-24T11:20:02.094Z</time></trkpt><trkpt lat="36.3865228" lon="10.3130837"><ele>63.666666666666664</ele><time>2026-04-24T11:20:03.111Z</time></trkpt><trkpt lat="36.3866044" lon="10.312876"><ele>63.33333333333333</ele><time>2026-04-24T11:20:04.095Z</time></trkpt><trkpt lat="36.3866827" lon="10.312681"><ele>63.0</ele><time>2026-04-24T11:20:05.095Z</time></trkpt><trkpt lat="36.3867628" lon="10.3124886"><ele>63.0</ele><time>2026-04-24T11:20:06.092Z</time></trkpt><trkpt lat="36.3868405" lon="10.3123001"><ele>63.0</ele><time>2026-04-24T11:20:07.094Z</time></trkpt><trkpt lat="36.3869169" lon="10.312123"><ele>63.0</ele><time>2026-04-24T11:20:08.088Z</time></trkpt><trkpt lat="36.3869829" lon="10.3119545"><ele>62.75</ele><time>2026-04-24T11:20:09.09Z</time></trkpt><trkpt lat="36.38705" lon="10.3117941"><ele>62.5</ele><time>2026-04-24T11:20:10.097Z</time></trkpt><trkpt lat="36.3871146" lon="10.3116437"><ele>62.25</ele><time>2026-04-24T11:20:11.1Z</time></trkpt><trkpt lat="36.3871786" lon="10.3114936"><ele>62.0</ele><time>2026-04-24T11:20:12.095Z</time></trkpt><trkpt lat="36.3872434" lon="10.311341"><ele>62.5</ele><time>2026-04-24T11:20:13.102Z</time></trkpt><trkpt lat="36.3873061" lon="10.3111896"><ele>63.0</ele><time>2026-04-24T11:20:14.096Z</time></trkpt><trkpt lat="36.3873701" lon="10.3110436"><ele>63.5</ele><time>2026-04-24T11:20:15.084Z</time></trkpt><trkpt lat="36.3874362" lon="10.3108882"><ele>64.0</ele><time>2026-04-24T11:20:16.087Z</time></trkpt><trkpt lat="36.3874964" lon="10.3107221"><ele>64.0</ele><time>2026-04-24T11:20:17.09Z</time></trkpt><trkpt lat="36.3875644" lon="10.310557"><ele>64.0</ele><time>2026-04-24T11:20:18.097Z</time></trkpt><trkpt lat="36.3876267" lon="10.3103982"><ele>64.0</ele><time>2026-04-24T11:20:19.096Z</time></trkpt><trkpt lat="36.3876905" lon="10.3102341"><ele>64.0</ele><time>2026-04-24T11:20:20.095Z</time></trkpt><trkpt lat="36.3877594" lon="10.3100744"><ele>64.0</ele><time>2026-04-24T11:20:21.091Z</time></trkpt><trkpt lat="36.3878261" lon="10.3099111"><ele>64.0</ele><time>2026-04-24T11:20:22.088Z</time></trkpt><trkpt lat="36.3878907" lon="10.309753"><ele>64.0</ele><time>2026-04-24T11:20:23.09Z</time></trkpt><trkpt lat="36.3879537" lon="10.3096007"><ele>64.0</ele><time>2026-04-24T11:20:24.091Z</time></trkpt><trkpt lat="36.388019" lon="10.3094485"><ele>63.75</ele><time>2026-04-24T11:20:25.104Z</time></trkpt><trkpt lat="36.3880833" lon="10.3092889"><ele>63.5</ele><time>2026-04-24T11:20:26.1Z</time></trkpt><trkpt lat="36.3881483" lon="10.309126"><ele>63.25</ele><time>2026-04-24T11:20:27.086Z</time></trkpt><trkpt lat="36.3882128" lon="10.3089693"><ele>63.0</ele><time>2026-04-24T11:20:28.091Z</time></trkpt><trkpt lat="36.3882775" lon="10.3088207"><ele>63.0</ele><time>2026-04-24T11:20:29.093Z</time></trkpt><trkpt lat="36.3883343" lon="10.3086886"><ele>63.0</ele><time>2026-04-24T11:20:30.087Z</time></trkpt><trkpt lat="36.3883911" lon="10.3085377"><ele>63.0</ele><time>2026-04-24T11:20:31.093Z</time></trkpt><trkpt lat="36.3884839" lon="10.3083135"><ele>63.0</ele><time>2026-04-24T11:20:32.082Z</time></trkpt><trkpt lat="36.3885678" lon="10.3080909"><ele>63.0</ele><time>2026-04-24T11:20:33.088Z</time></trkpt><trkpt lat="36.3886592" lon="10.3078888"><ele>63.0</ele><time>2026-04-24T11:20:34.083Z</time></trkpt><trkpt lat="36.3887331" lon="10.3077085"><ele>63.0</ele><time>2026-04-24T11:20:35.082Z</time></trkpt><trkpt lat="36.388804" lon="10.3075348"><ele>63.0</ele><time>2026-04-24T11:20:36.1Z</time></trkpt><trkpt lat="36.3888689" lon="10.3073778"><ele>63.0</ele><time>2026-04-24T11:20:37.092Z</time></trkpt><trkpt lat="36.388933" lon="10.30722"><ele>63.0</ele><time>2026-04-24T11:20:38.08Z</time></trkpt><trkpt lat="36.3889953" lon="10.3070579"><ele>63.75</ele><time>2026-04-24T11:20:39.089Z</time></trkpt><trkpt lat="36.3890611" lon="10.3068969"><ele>64.5</ele><time>2026-04-24T11:20:40.098Z</time></trkpt><trkpt lat="36.3891265" lon="10.3067414"><ele>65.25</ele><time>2026-04-24T11:20:41.1Z</time></trkpt><trkpt lat="36.3891879" lon="10.3065839"><ele>66.0</ele><time>2026-04-24T11:20:42.093Z</time></trkpt><trkpt lat="36.3892547" lon="10.3064214"><ele>66.33333333333333</ele><time>2026-04-24T11:20:43.088Z</time></trkpt><trkpt lat="36.3893247" lon="10.3062561"><ele>66.66666666666666</ele><time>2026-04-24T11:20:44.088Z</time></trkpt><trkpt lat="36.3893886" lon="10.3060882"><ele>67.0</ele><time>2026-04-24T11:20:45.092Z</time></trkpt><trkpt lat="36.3894563" lon="10.3059221"><ele>67.0</ele><time>2026-04-24T11:20:46.079Z</time></trkpt><trkpt lat="36.3895219" lon="10.3057576"><ele>67.0</ele><time>2026-04-24T11:20:47.094Z</time></trkpt><trkpt lat="36.389589" lon="10.3055908"><ele>67.0</ele><time>2026-04-24T11:20:48.09Z</time></trkpt><trkpt lat="36.3896569" lon="10.3054313"><ele>67.0</ele><time>2026-04-24T11:20:49.087Z</time></trkpt><trkpt lat="36.3897234" lon="10.3052685"><ele>67.25</ele><time>2026-04-24T11:20:50.094Z</time></trkpt><trkpt lat="36.3897865" lon="10.3051058"><ele>67.5</ele><time>2026-04-24T11:20:51.085Z</time></trkpt><trkpt lat="36.3898511" lon="10.3049452"><ele>67.75</ele><time>2026-04-24T11:20:52.095Z</time></trkpt><trkpt lat="36.3899185" lon="10.3047785"><ele>68.0</ele><time>2026-04-24T11:20:53.086Z</time></trkpt><trkpt lat="36.3899859" lon="10.3046117"><ele>68.0</ele><time>2026-04-24T11:20:54.097Z</time></trkpt><trkpt lat="36.3900539" lon="10.3044486"><ele>68.0</ele><time>2026-04-24T11:20:55.092Z</time></trkpt><trkpt lat="36.3901215" lon="10.3042896"><ele>68.0</ele><time>2026-04-24T11:20:56.096Z</time></trkpt><trkpt lat="36.3901919" lon="10.3041267"><ele>68.0</ele><time>2026-04-24T11:20:57.081Z</time></trkpt><trkpt lat="36.3902638" lon="10.3039675"><ele>68.25</ele><time>2026-04-24T11:20:58.089Z</time></trkpt><trkpt lat="36.3903326" lon="10.3038083"><ele>68.5</ele><time>2026-04-24T11:20:59.097Z</time></trkpt><trkpt lat="36.3903956" lon="10.3036503"><ele>68.75</ele><time>2026-04-24T11:21:00.08Z</time></trkpt><trkpt lat="36.390453" lon="10.303491"><ele>69.0</ele><time>2026-04-24T11:21:01.077Z</time></trkpt><trkpt lat="36.3905109" lon="10.3033396"><ele>69.25</ele><time>2026-04-24T11:21:02.085Z</time></trkpt><trkpt lat="36.3905735" lon="10.3031898"><ele>69.5</ele><time>2026-04-24T11:21:03.09Z</time></trkpt><trkpt lat="36.3906349" lon="10.3030426"><ele>69.75</ele><time>2026-04-24T11:21:04.096Z</time></trkpt><trkpt lat="36.3906953" lon="10.3028954"><ele>70.0</ele><time>2026-04-24T11:21:05.079Z</time></trkpt><trkpt lat="36.3907564" lon="10.3027403"><ele>70.25</ele><time>2026-04-24T11:21:06.075Z</time></trkpt><trkpt lat="36.3908214" lon="10.3025815"><ele>70.5</ele><time>2026-04-24T11:21:07.095Z</time></trkpt><trkpt lat="36.390887" lon="10.3024272"><ele>70.75</ele><time>2026-04-24T11:21:08.096Z</time></trkpt><trkpt lat="36.3909482" lon="10.3022731"><ele>71.0</ele><time>2026-04-24T11:21:09.091Z</time></trkpt><trkpt lat="36.3910095" lon="10.3021201"><ele>71.25</ele><time>2026-04-24T11:21:10.105Z</time></trkpt><trkpt lat="36.3910719" lon="10.3019659"><ele>71.5</ele><time>2026-04-24T11:21:11.105Z</time></trkpt><trkpt lat="36.3911298" lon="10.3018104"><ele>71.75</ele><time>2026-04-24T11:21:12.092Z</time></trkpt><trkpt lat="36.3911913" lon="10.3016577"><ele>72.0</ele><time>2026-04-24T11:21:13.087Z</time></trkpt><trkpt lat="36.3912532" lon="10.3015109"><ele>72.25</ele><time>2026-04-24T11:21:14.078Z</time></trkpt><trkpt lat="36.3913143" lon="10.3013584"><ele>72.5</ele><time>2026-04-24T11:21:15.098Z</time></trkpt><trkpt lat="36.391377" lon="10.3012059"><ele>72.75</ele><time>2026-04-24T11:21:16.091Z</time></trkpt><trkpt lat="36.3914429" lon="10.3010497"><ele>73.0</ele><time>2026-04-24T11:21:17.091Z</time></trkpt><trkpt lat="36.3915032" lon="10.300902"><ele>73.25</ele><time>2026-04-24T11:21:18.085Z</time></trkpt><trkpt lat="36.3915638" lon="10.3007463"><ele>73.5</ele><time>2026-04-24T11:21:19.097Z</time></trkpt><trkpt lat="36.3916242" lon="10.3005923"><ele>73.75</ele><time>2026-04-24T11:21:20.087Z</time></trkpt><trkpt lat="36.3916856" lon="10.3004387"><ele>74.0</ele><time>2026-04-24T11:21:21.093Z</time></trkpt><trkpt lat="36.3917466" lon="10.3002892"><ele>74.0</ele><time>2026-04-24T11:21:22.099Z</time></trkpt><trkpt lat="36.3918101" lon="10.3001339"><ele>74.0</ele><time>2026-04-24T11:21:23.099Z</time></trkpt><trkpt lat="36.3918698" lon="10.2999816"><ele>74.0</ele><time>2026-04-24T11:21:24.109Z</time></trkpt><trkpt lat="36.3919325" lon="10.299827"><ele>74.0</ele><time>2026-04-24T11:21:25.104Z</time></trkpt><trkpt lat="36.3919981" lon="10.2996763"><ele>74.0</ele><time>2026-04-24T11:21:26.094Z</time></trkpt><trkpt lat="36.3920635" lon="10.2995255"><ele>74.0</ele><time>2026-04-24T11:21:27.095Z</time></trkpt><trkpt lat="36.392122" lon="10.2993751"><ele>74.0</ele><time>2026-04-24T11:21:28.096Z</time></trkpt><trkpt lat="36.3921843" lon="10.2992201"><ele>74.0</ele><time>2026-04-24T11:21:29.099Z</time></trkpt><trkpt lat="36.3922462" lon="10.2990644"><ele>75.0</ele><time>2026-04-24T11:21:30.087Z</time></trkpt><trkpt lat="36.3923109" lon="10.2989119"><ele>76.0</ele><time>2026-04-24T11:21:31.081Z</time></trkpt><trkpt lat="36.3923729" lon="10.2987599"><ele>77.0</ele><time>2026-04-24T11:21:32.091Z</time></trkpt><trkpt lat="36.3924369" lon="10.2986071"><ele>78.0</ele><time>2026-04-24T11:21:33.093Z</time></trkpt><trkpt lat="36.3924985" lon="10.2984516"><ele>78.0</ele><time>2026-04-24T11:21:34.092Z</time></trkpt><trkpt lat="36.3925625" lon="10.2982975"><ele>78.0</ele><time>2026-04-24T11:21:35.093Z</time></trkpt><trkpt lat="36.3926263" lon="10.2981461"><ele>78.0</ele><time>2026-04-24T11:21:36.107Z</time></trkpt><trkpt lat="36.3926914" lon="10.2979934"><ele>78.0</ele><time>2026-04-24T11:21:37.098Z</time></trkpt><trkpt lat="36.3927549" lon="10.2978452"><ele>77.75</ele><time>2026-04-24T11:21:38.1Z</time></trkpt><trkpt lat="36.3928184" lon="10.2976955"><ele>77.5</ele><time>2026-04-24T11:21:39.089Z</time></trkpt><trkpt lat="36.3928785" lon="10.297541"><ele>77.25</ele><time>2026-04-24T11:21:40.083Z</time></trkpt><trkpt lat="36.39294" lon="10.2973856"><ele>77.0</ele><time>2026-04-24T11:21:41.1Z</time></trkpt><trkpt lat="36.392997" lon="10.2972313"><ele>77.5</ele><time>2026-04-24T11:21:42.096Z</time></trkpt><trkpt lat="36.393062" lon="10.2970765"><ele>78.0</ele><time>2026-04-24T11:21:43.092Z</time></trkpt><trkpt lat="36.3931246" lon="10.2969193"><ele>78.5</ele><time>2026-04-24T11:21:44.083Z</time></trkpt><trkpt lat="36.3931855" lon="10.2967678"><ele>79.0</ele><time>2026-04-24T11:21:45.102Z</time></trkpt><trkpt lat="36.3932477" lon="10.2966159"><ele>79.0</ele><time>2026-04-24T11:21:46.082Z</time></trkpt><trkpt lat="36.3933115" lon="10.2964646"><ele>79.0</ele><time>2026-04-24T11:21:47.088Z</time></trkpt><trkpt lat="36.3933766" lon="10.2963098"><ele>79.0</ele><time>2026-04-24T11:21:48.104Z</time></trkpt><trkpt lat="36.3934394" lon="10.2961572"><ele>79.0</ele><time>2026-04-24T11:21:49.087Z</time></trkpt><trkpt lat="36.3935024" lon="10.2960067"><ele>79.75</ele><time>2026-04-24T11:21:50.088Z</time></trkpt><trkpt lat="36.393559" lon="10.2958558"><ele>80.5</ele><time>2026-04-24T11:21:51.093Z</time></trkpt><trkpt lat="36.3936212" lon="10.2957027"><ele>81.25</ele><time>2026-04-24T11:21:52.092Z</time></trkpt><trkpt lat="36.3936785" lon="10.2955509"><ele>82.0</ele><time>2026-04-24T11:21:53.086Z</time></trkpt><trkpt lat="36.393737" lon="10.2953987"><ele>82.25</ele><time>2026-04-24T11:21:54.081Z</time></trkpt><trkpt lat="36.3938021" lon="10.2952447"><ele>82.5</ele><time>2026-04-24T11:21:55.089Z</time></trkpt><trkpt lat="36.393868" lon="10.2950934"><ele>82.75</ele><time>2026-04-24T11:21:56.094Z</time></trkpt><trkpt lat="36.3939292" lon="10.2949395"><ele>83.0</ele><time>2026-04-24T11:21:57.08Z</time></trkpt><trkpt lat="36.3939883" lon="10.2947899"><ele>83.5</ele><time>2026-04-24T11:21:58.088Z</time></trkpt><trkpt lat="36.3940499" lon="10.2946404"><ele>84.0</ele><time>2026-04-24T11:21:59.1Z</time></trkpt><trkpt lat="36.3941124" lon="10.2944909"><ele>84.5</ele><time>2026-04-24T11:22:00.092Z</time></trkpt><trkpt lat="36.3941732" lon="10.2943327"><ele>85.0</ele><time>2026-04-24T11:22:01.094Z</time></trkpt><trkpt lat="36.3942345" lon="10.2941812"><ele>85.0</ele><time>2026-04-24T11:22:02.09Z</time></trkpt><trkpt lat="36.3942924" lon="10.2940257"><ele>85.0</ele><time>2026-04-24T11:22:03.088Z</time></trkpt><trkpt lat="36.3943539" lon="10.2938714"><ele>85.0</ele><time>2026-04-24T11:22:04.081Z</time></trkpt><trkpt lat="36.3944177" lon="10.2937096"><ele>85.0</ele><time>2026-04-24T11:22:05.08Z</time></trkpt><trkpt lat="36.3944802" lon="10.2935613"><ele>85.25</ele><time>2026-04-24T11:22:06.093Z</time></trkpt><trkpt lat="36.3945415" lon="10.2934049"><ele>85.5</ele><time>2026-04-24T11:22:07.085Z</time></trkpt><trkpt lat="36.3946029" lon="10.2932493"><ele>85.75</ele><time>2026-04-24T11:22:08.089Z</time></trkpt><trkpt lat="36.3946633" lon="10.2930977"><ele>86.0</ele><time>2026-04-24T11:22:09.089Z</time></trkpt><trkpt lat="36.3947249" lon="10.292943"><ele>86.75</ele><time>2026-04-24T11:22:10.096Z</time></trkpt><trkpt lat="36.3947844" lon="10.29279"><ele>87.5</ele><time>2026-04-24T11:22:11.1Z</time></trkpt><trkpt lat="36.3948453" lon="10.2926357"><ele>88.25</ele><time>2026-04-24T11:22:12.09Z</time></trkpt><trkpt lat="36.3949086" lon="10.2924806"><ele>89.0</ele><time>2026-04-24T11:22:13.093Z</time></trkpt><trkpt lat="36.394969" lon="10.2923298"><ele>89.5</ele><time>2026-04-24T11:22:14.1Z</time></trkpt><trkpt lat="36.3950281" lon="10.2921714"><ele>90.0</ele><time>2026-04-24T11:22:15.101Z</time></trkpt><trkpt lat="36.3950882" lon="10.2920179"><ele>90.5</ele><time>2026-04-24T11:22:16.084Z</time></trkpt><trkpt lat="36.3951493" lon="10.2918695"><ele>91.0</ele><time>2026-04-24T11:22:17.076Z</time></trkpt><trkpt lat="36.3952118" lon="10.2917127"><ele>91.0</ele><time>2026-04-24T11:22:18.098Z</time></trkpt><trkpt lat="36.3952719" lon="10.2915567"><ele>91.0</ele><time>2026-04-24T11:22:19.09Z</time></trkpt><trkpt lat="36.3953377" lon="10.2914039"><ele>91.0</ele><time>2026-04-24T11:22:20.112Z</time></trkpt><trkpt lat="36.395396" lon="10.2912492"><ele>91.0</ele><time>2026-04-24T11:22:21.096Z</time></trkpt><trkpt lat="36.3954549" lon="10.2911088"><ele>92.19999999999999</ele><time>2026-04-24T11:22:22.084Z</time></trkpt><trkpt lat="36.3955107" lon="10.2909763"><ele>93.39999999999999</ele><time>2026-04-24T11:22:23.094Z</time></trkpt><trkpt lat="36.3955653" lon="10.2908508"><ele>94.6</ele><time>2026-04-24T11:22:24.089Z</time></trkpt><trkpt lat="36.3956109" lon="10.2907479"><ele>95.8</ele><time>2026-04-24T11:22:25.065Z</time></trkpt><trkpt lat="36.3956559" lon="10.2906538"><ele>97.0</ele><time>2026-04-24T11:22:26.098Z</time></trkpt><trkpt lat="36.3957035" lon="10.2905675"><ele>97.16666666666667</ele><time>2026-04-24T11:22:27.092Z</time></trkpt><trkpt lat="36.3957482" lon="10.2904989"><ele>97.33333333333334</ele><time>2026-04-24T11:22:28.113Z</time></trkpt><trkpt lat="36.3957942" lon="10.2904434"><ele>97.5</ele><time>2026-04-24T11:22:29.093Z</time></trkpt><trkpt lat="36.3958668" lon="10.2903366"><ele>97.66666666666666</ele><time>2026-04-24T11:22:31.097Z</time></trkpt><trkpt lat="36.3958831" lon="10.2901826"><ele>97.83333333333333</ele><time>2026-04-24T11:22:33.097Z</time></trkpt><trkpt lat="36.3958641" lon="10.2900965"><ele>98.0</ele><time>2026-04-24T11:22:34.094Z</time></trkpt><trkpt lat="36.3958366" lon="10.2900153"><ele>97.99999999999999</ele><time>2026-04-24T11:22:35.08Z</time></trkpt><trkpt lat="36.3958123" lon="10.2899252"><ele>98.0</ele><time>2026-04-24T11:22:36.097Z</time></trkpt><trkpt lat="36.3957915" lon="10.2898312"><ele>98.0</ele><time>2026-04-24T11:22:37.092Z</time></trkpt><trkpt lat="36.3957754" lon="10.2897349"><ele>98.0</ele><time>2026-04-24T11:22:38.082Z</time></trkpt><trkpt lat="36.3957699" lon="10.2896405"><ele>97.99999999999999</ele><time>2026-04-24T11:22:39.097Z</time></trkpt><trkpt lat="36.3957632" lon="10.2895452"><ele>98.0</ele><time>2026-04-24T11:22:40.101Z</time></trkpt><trkpt lat="36.3957548" lon="10.2894517"><ele>97.99999999999999</ele><time>2026-04-24T11:22:41.094Z</time></trkpt><trkpt lat="36.3957452" lon="10.2893501"><ele>98.0</ele><time>2026-04-24T11:22:42.093Z</time></trkpt><trkpt lat="36.3957342" lon="10.2892455"><ele>98.0</ele><time>2026-04-24T11:22:43.091Z</time></trkpt><trkpt lat="36.3957229" lon="10.2891399"><ele>98.0</ele><time>2026-04-24T11:22:44.106Z</time></trkpt><trkpt lat="36.3957094" lon="10.2890413"><ele>97.99999999999999</ele><time>2026-04-24T11:22:45.089Z</time></trkpt><trkpt lat="36.3956953" lon="10.2889434"><ele>98.0</ele><time>2026-04-24T11:22:46.082Z</time></trkpt><trkpt lat="36.3956873" lon="10.2888489"><ele>98.0</ele><time>2026-04-24T11:22:47.073Z</time></trkpt><trkpt lat="36.3956803" lon="10.2887441"><ele>98.0</ele><time>2026-04-24T11:22:48.102Z</time></trkpt><trkpt lat="36.3956712" lon="10.2886353"><ele>98.0</ele><time>2026-04-24T11:22:49.093Z</time></trkpt><trkpt lat="36.3956625" lon="10.2885154"><ele>98.0</ele><time>2026-04-24T11:22:50.088Z</time></trkpt><trkpt lat="36.3956585" lon="10.288391"><ele>98.0</ele><time>2026-04-24T11:22:51.095Z</time></trkpt><trkpt lat="36.39565" lon="10.2882601"><ele>98.0</ele><time>2026-04-24T11:22:52.093Z</time></trkpt><trkpt lat="36.3956426" lon="10.2881275"><ele>98.0</ele><time>2026-04-24T11:22:53.079Z</time></trkpt><trkpt lat="36.3956332" lon="10.2879948"><ele>98.0</ele><time>2026-04-24T11:22:54.088Z</time></trkpt><trkpt lat="36.3956248" lon="10.2878615"><ele>98.0</ele><time>2026-04-24T11:22:55.09Z</time></trkpt><trkpt lat="36.3956126" lon="10.2877263"><ele>98.0</ele><time>2026-04-24T11:22:56.092Z</time></trkpt><trkpt lat="36.3956008" lon="10.287596"><ele>98.25</ele><time>2026-04-24T11:22:57.089Z</time></trkpt><trkpt lat="36.3955894" lon="10.2874615"><ele>98.5</ele><time>2026-04-24T11:22:58.1Z</time></trkpt><trkpt lat="36.3955787" lon="10.2873173"><ele>98.75</ele><time>2026-04-24T11:22:59.09Z</time></trkpt><trkpt lat="36.3955648" lon="10.2871735"><ele>99.0</ele><time>2026-04-24T11:23:00.077Z</time></trkpt><trkpt lat="36.3955521" lon="10.2870257"><ele>98.5</ele><time>2026-04-24T11:23:01.096Z</time></trkpt><trkpt lat="36.3955359" lon="10.286871"><ele>98.0</ele><time>2026-04-24T11:23:02.083Z</time></trkpt><trkpt lat="36.3955147" lon="10.286713"><ele>97.5</ele><time>2026-04-24T11:23:03.092Z</time></trkpt><trkpt lat="36.3954953" lon="10.2865585"><ele>97.0</ele><time>2026-04-24T11:23:04.09Z</time></trkpt><trkpt lat="36.3954713" lon="10.286398"><ele>95.25</ele><time>2026-04-24T11:23:05.099Z</time></trkpt><trkpt lat="36.3954392" lon="10.2862443"><ele>93.5</ele><time>2026-04-24T11:23:06.095Z</time></trkpt><trkpt lat="36.3954063" lon="10.2860911"><ele>91.75</ele><time>2026-04-24T11:23:07.088Z</time></trkpt><trkpt lat="36.3953725" lon="10.2859315"><ele>90.0</ele><time>2026-04-24T11:23:08.08Z</time></trkpt><trkpt lat="36.3953321" lon="10.2857723"><ele>90.0</ele><time>2026-04-24T11:23:09.084Z</time></trkpt><trkpt lat="36.3952893" lon="10.2856105"><ele>90.0</ele><time>2026-04-24T11:23:10.079Z</time></trkpt><trkpt lat="36.395246" lon="10.2854508"><ele>90.0</ele><time>2026-04-24T11:23:11.085Z</time></trkpt><trkpt lat="36.3952042" lon="10.2852863"><ele>90.0</ele><time>2026-04-24T11:23:12.09Z</time></trkpt><trkpt lat="36.3951568" lon="10.285129"><ele>90.25</ele><time>2026-04-24T11:23:13.085Z</time></trkpt><trkpt lat="36.3951121" lon="10.2849688"><ele>90.5</ele><time>2026-04-24T11:23:14.08Z</time></trkpt><trkpt lat="36.3950663" lon="10.2848017"><ele>90.75</ele><time>2026-04-24T11:23:15.092Z</time></trkpt><trkpt lat="36.3950227" lon="10.2846359"><ele>91.0</ele><time>2026-04-24T11:23:16.101Z</time></trkpt><trkpt lat="36.3949786" lon="10.2844721"><ele>91.75</ele><time>2026-04-24T11:23:17.098Z</time></trkpt><trkpt lat="36.3949357" lon="10.2843115"><ele>92.5</ele><time>2026-04-24T11:23:18.095Z</time></trkpt><trkpt lat="36.3948951" lon="10.2841539"><ele>93.25</ele><time>2026-04-24T11:23:19.088Z</time></trkpt><trkpt lat="36.3948545" lon="10.2839956"><ele>94.0</ele><time>2026-04-24T11:23:20.097Z</time></trkpt><trkpt lat="36.3948164" lon="10.2838292"><ele>94.75</ele><time>2026-04-24T11:23:21.086Z</time></trkpt><trkpt lat="36.3947863" lon="10.2836579"><ele>95.5</ele><time>2026-04-24T11:23:22.079Z</time></trkpt><trkpt lat="36.3947461" lon="10.2834769"><ele>96.25</ele><time>2026-04-24T11:23:23.093Z</time></trkpt><trkpt lat="36.3947051" lon="10.2832911"><ele>97.0</ele><time>2026-04-24T11:23:24.076Z</time></trkpt><trkpt lat="36.3946713" lon="10.2830983"><ele>95.66666666666667</ele><time>2026-04-24T11:23:25.097Z</time></trkpt><trkpt lat="36.3946487" lon="10.2829029"><ele>94.33333333333334</ele><time>2026-04-24T11:23:26.093Z</time></trkpt><trkpt lat="36.3946249" lon="10.2827"><ele>93.0</ele><time>2026-04-24T11:23:27.081Z</time></trkpt><trkpt lat="36.3946006" lon="10.2824981"><ele>93.0</ele><time>2026-04-24T11:23:28.081Z</time></trkpt><trkpt lat="36.3945803" lon="10.2823007"><ele>93.0</ele><time>2026-04-24T11:23:29.092Z</time></trkpt><trkpt lat="36.3945563" lon="10.282097"><ele>93.0</ele><time>2026-04-24T11:23:30.092Z</time></trkpt><trkpt lat="36.3945359" lon="10.2818915"><ele>93.0</ele><time>2026-04-24T11:23:31.095Z</time></trkpt><trkpt lat="36.3945186" lon="10.2816846"><ele>93.0</ele><time>2026-04-24T11:23:32.093Z</time></trkpt><trkpt lat="36.394504" lon="10.2814827"><ele>93.0</ele><time>2026-04-24T11:23:33.082Z</time></trkpt><trkpt lat="36.3944957" lon="10.2812784"><ele>93.0</ele><time>2026-04-24T11:23:34.078Z</time></trkpt><trkpt lat="36.3944885" lon="10.2810792"><ele>93.0</ele><time>2026-04-24T11:23:35.082Z</time></trkpt><trkpt lat="36.3944841" lon="10.2808722"><ele>93.0</ele><time>2026-04-24T11:23:36.073Z</time></trkpt><trkpt lat="36.394485" lon="10.2806677"><ele>94.0</ele><time>2026-04-24T11:23:37.086Z</time></trkpt><trkpt lat="36.3944876" lon="10.280463"><ele>95.0</ele><time>2026-04-24T11:23:38.088Z</time></trkpt><trkpt lat="36.3944948" lon="10.2802593"><ele>96.0</ele><time>2026-04-24T11:23:39.101Z</time></trkpt><trkpt lat="36.3945121" lon="10.2800569"><ele>96.0</ele><time>2026-04-24T11:23:40.089Z</time></trkpt><trkpt lat="36.3945346" lon="10.2798589"><ele>96.0</ele><time>2026-04-24T11:23:41.081Z</time></trkpt><trkpt lat="36.3945583" lon="10.2796547"><ele>96.0</ele><time>2026-04-24T11:23:42.09Z</time></trkpt><trkpt lat="36.3945868" lon="10.2794536"><ele>96.66666666666666</ele><time>2026-04-24T11:23:43.088Z</time></trkpt><trkpt lat="36.3946174" lon="10.2792565"><ele>97.33333333333333</ele><time>2026-04-24T11:23:44.095Z</time></trkpt><trkpt lat="36.3946493" lon="10.2790537"><ele>98.0</ele><time>2026-04-24T11:23:45.093Z</time></trkpt><trkpt lat="36.3946816" lon="10.2788552"><ele>98.0</ele><time>2026-04-24T11:23:46.094Z</time></trkpt><trkpt lat="36.3947132" lon="10.2786528"><ele>98.0</ele><time>2026-04-24T11:23:47.09Z</time></trkpt><trkpt lat="36.3947456" lon="10.2784568"><ele>98.0</ele><time>2026-04-24T11:23:48.097Z</time></trkpt><trkpt lat="36.3947847" lon="10.2782603"><ele>98.0</ele><time>2026-04-24T11:23:49.097Z</time></trkpt><trkpt lat="36.3948232" lon="10.2780659"><ele>98.0</ele><time>2026-04-24T11:23:50.085Z</time></trkpt><trkpt lat="36.3948638" lon="10.2778668"><ele>98.0</ele><time>2026-04-24T11:23:51.125Z</time></trkpt><trkpt lat="36.3949116" lon="10.2776672"><ele>98.0</ele><time>2026-04-24T11:23:52.1Z</time></trkpt><trkpt lat="36.3949638" lon="10.2774733"><ele>98.0</ele><time>2026-04-24T11:23:53.102Z</time></trkpt><trkpt lat="36.3950258" lon="10.2772853"><ele>98.0</ele><time>2026-04-24T11:23:54.1Z</time></trkpt><trkpt lat="36.3950959" lon="10.2771019"><ele>97.66666666666666</ele><time>2026-04-24T11:23:55.099Z</time></trkpt><trkpt lat="36.3951694" lon="10.2769221"><ele>97.33333333333334</ele><time>2026-04-24T11:23:56.088Z</time></trkpt><trkpt lat="36.3952401" lon="10.2767421"><ele>97.0</ele><time>2026-04-24T11:23:57.084Z</time></trkpt><trkpt lat="36.3953139" lon="10.276559"><ele>97.0</ele><time>2026-04-24T11:23:58.091Z</time></trkpt><trkpt lat="36.3953873" lon="10.276381"><ele>97.0</ele><time>2026-04-24T11:23:59.09Z</time></trkpt><trkpt lat="36.3954671" lon="10.2762028"><ele>97.0</ele><time>2026-04-24T11:24:00.081Z</time></trkpt><trkpt lat="36.3955465" lon="10.2760227"><ele>97.66666666666667</ele><time>2026-04-24T11:24:01.083Z</time></trkpt><trkpt lat="36.3956266" lon="10.2758488"><ele>98.33333333333334</ele><time>2026-04-24T11:24:02.083Z</time></trkpt><trkpt lat="36.3957038" lon="10.2756678"><ele>99.0</ele><time>2026-04-24T11:24:03.085Z</time></trkpt><trkpt lat="36.3957819" lon="10.2754903"><ele>99.0</ele><time>2026-04-24T11:24:04.097Z</time></trkpt><trkpt lat="36.3958587" lon="10.2753091"><ele>99.0</ele><time>2026-04-24T11:24:05.09Z</time></trkpt><trkpt lat="36.3959378" lon="10.2751325"><ele>99.0</ele><time>2026-04-24T11:24:06.089Z</time></trkpt><trkpt lat="36.3960179" lon="10.2749549"><ele>99.0</ele><time>2026-04-24T11:24:07.105Z</time></trkpt><trkpt lat="36.3960925" lon="10.2747763"><ele>99.0</ele><time>2026-04-24T11:24:08.097Z</time></trkpt><trkpt lat="36.3961689" lon="10.2745922"><ele>99.0</ele><time>2026-04-24T11:24:09.091Z</time></trkpt><trkpt lat="36.3962477" lon="10.2744115"><ele>99.33333333333334</ele><time>2026-04-24T11:24:10.1Z</time></trkpt><trkpt lat="36.3963278" lon="10.2742316"><ele>99.66666666666667</ele><time>2026-04-24T11:24:11.102Z</time></trkpt><trkpt lat="36.3964106" lon="10.2740495"><ele>100.0</ele><time>2026-04-24T11:24:12.11Z</time></trkpt><trkpt lat="36.3964911" lon="10.2738681"><ele>100.66666666666667</ele><time>2026-04-24T11:24:13.084Z</time></trkpt><trkpt lat="36.3965695" lon="10.2736879"><ele>101.33333333333334</ele><time>2026-04-24T11:24:14.093Z</time></trkpt><trkpt lat="36.3966481" lon="10.2735134"><ele>102.0</ele><time>2026-04-24T11:24:15.106Z</time></trkpt><trkpt lat="36.3967266" lon="10.2733354"><ele>102.0</ele><time>2026-04-24T11:24:16.083Z</time></trkpt><trkpt lat="36.3968003" lon="10.2731495"><ele>102.0</ele><time>2026-04-24T11:24:17.104Z</time></trkpt><trkpt lat="36.3968767" lon="10.2729709"><ele>102.0</ele><time>2026-04-24T11:24:18.106Z</time></trkpt><trkpt lat="36.396952" lon="10.272786"><ele>102.0</ele><time>2026-04-24T11:24:19.089Z</time></trkpt><trkpt lat="36.3970278" lon="10.2726031"><ele>102.0</ele><time>2026-04-24T11:24:20.101Z</time></trkpt><trkpt lat="36.3971043" lon="10.2724251"><ele>102.0</ele><time>2026-04-24T11:24:21.085Z</time></trkpt><trkpt lat="36.3971784" lon="10.2722383"><ele>102.66666666666666</ele><time>2026-04-24T11:24:22.107Z</time></trkpt><trkpt lat="36.397256" lon="10.2720622"><ele>103.33333333333333</ele><time>2026-04-24T11:24:23.091Z</time></trkpt><trkpt lat="36.3973353" lon="10.2718845"><ele>104.0</ele><time>2026-04-24T11:24:24.087Z</time></trkpt><trkpt lat="36.3974144" lon="10.271704"><ele>104.0</ele><time>2026-04-24T11:24:25.083Z</time></trkpt><trkpt lat="36.3974945" lon="10.2715247"><ele>104.0</ele><time>2026-04-24T11:24:26.095Z</time></trkpt><trkpt lat="36.3975786" lon="10.2713445"><ele>104.0</ele><time>2026-04-24T11:24:27.093Z</time></trkpt><trkpt lat="36.3976535" lon="10.2711677"><ele>104.0</ele><time>2026-04-24T11:24:28.086Z</time></trkpt><trkpt lat="36.3977368" lon="10.2709876"><ele>104.0</ele><time>2026-04-24T11:24:29.101Z</time></trkpt><trkpt lat="36.3978237" lon="10.2708088"><ele>104.0</ele><time>2026-04-24T11:24:30.101Z</time></trkpt><trkpt lat="36.3979085" lon="10.2706295"><ele>103.66666666666666</ele><time>2026-04-24T11:24:31.091Z</time></trkpt><trkpt lat="36.398001" lon="10.270461"><ele>103.33333333333334</ele><time>2026-04-24T11:24:32.104Z</time></trkpt><trkpt lat="36.3980957" lon="10.2702933"><ele>103.0</ele><time>2026-04-24T11:24:33.1Z</time></trkpt><trkpt lat="36.3981894" lon="10.270129"><ele>102.0</ele><time>2026-04-24T11:24:34.11Z</time></trkpt><trkpt lat="36.3982828" lon="10.269964"><ele>101.0</ele><time>2026-04-24T11:24:35.102Z</time></trkpt><trkpt lat="36.3983792" lon="10.2697977"><ele>100.0</ele><time>2026-04-24T11:24:36.098Z</time></trkpt><trkpt lat="36.3984753" lon="10.2696353"><ele>99.66666666666667</ele><time>2026-04-24T11:24:37.083Z</time></trkpt><trkpt lat="36.3985692" lon="10.2694716"><ele>99.33333333333334</ele><time>2026-04-24T11:24:38.081Z</time></trkpt><trkpt lat="36.3986616" lon="10.2693043"><ele>99.0</ele><time>2026-04-24T11:24:39.089Z</time></trkpt><trkpt lat="36.3987529" lon="10.2691338"><ele>98.33333333333334</ele><time>2026-04-24T11:24:40.084Z</time></trkpt><trkpt lat="36.3988428" lon="10.2689724"><ele>97.66666666666667</ele><time>2026-04-24T11:24:41.094Z</time></trkpt><trkpt lat="36.3989308" lon="10.2687992"><ele>97.0</ele><time>2026-04-24T11:24:42.094Z</time></trkpt><trkpt lat="36.3990153" lon="10.2686243"><ele>96.33333333333334</ele><time>2026-04-24T11:24:43.08Z</time></trkpt><trkpt lat="36.3990957" lon="10.2684437"><ele>95.66666666666667</ele><time>2026-04-24T11:24:44.097Z</time></trkpt><trkpt lat="36.3991696" lon="10.2682584"><ele>95.0</ele><time>2026-04-24T11:24:45.089Z</time></trkpt><trkpt lat="36.3992378" lon="10.2680692"><ele>94.33333333333334</ele><time>2026-04-24T11:24:46.085Z</time></trkpt><trkpt lat="36.3992948" lon="10.2678746"><ele>93.66666666666667</ele><time>2026-04-24T11:24:47.092Z</time></trkpt><trkpt lat="36.399344" lon="10.2676787"><ele>93.0</ele><time>2026-04-24T11:24:48.074Z</time></trkpt><trkpt lat="36.3993904" lon="10.2674896"><ele>93.0</ele><time>2026-04-24T11:24:49.082Z</time></trkpt><trkpt lat="36.3994383" lon="10.2672935"><ele>93.0</ele><time>2026-04-24T11:24:50.084Z</time></trkpt><trkpt lat="36.3994856" lon="10.2670954"><ele>93.0</ele><time>2026-04-24T11:24:51.092Z</time></trkpt><trkpt lat="36.3995351" lon="10.2668939"><ele>91.66666666666667</ele><time>2026-04-24T11:24:52.088Z</time></trkpt><trkpt lat="36.3995881" lon="10.2667023"><ele>90.33333333333334</ele><time>2026-04-24T11:24:53.087Z</time></trkpt><trkpt lat="36.3996509" lon="10.2665165"><ele>89.0</ele><time>2026-04-24T11:24:54.087Z</time></trkpt><trkpt lat="36.3997128" lon="10.2663309"><ele>87.33333333333334</ele><time>2026-04-24T11:24:55.091Z</time></trkpt><trkpt lat="36.3997844" lon="10.2661504"><ele>85.66666666666667</ele><time>2026-04-24T11:24:56.092Z</time></trkpt><trkpt lat="36.3998604" lon="10.2659693"><ele>84.0</ele><time>2026-04-24T11:24:57.09Z</time></trkpt><trkpt lat="36.3999436" lon="10.2657885"><ele>84.0</ele><time>2026-04-24T11:24:58.087Z</time></trkpt><trkpt lat="36.4000294" lon="10.2656166"><ele>84.0</ele><time>2026-04-24T11:24:59.081Z</time></trkpt><trkpt lat="36.4001226" lon="10.2654444"><ele>84.0</ele><time>2026-04-24T11:25:00.082Z</time></trkpt><trkpt lat="36.4002163" lon="10.2652824"><ele>83.0</ele><time>2026-04-24T11:25:01.101Z</time></trkpt><trkpt lat="36.4003044" lon="10.2651156"><ele>82.0</ele><time>2026-04-24T11:25:02.098Z</time></trkpt><trkpt lat="36.4003916" lon="10.2649472"><ele>81.0</ele><time>2026-04-24T11:25:03.103Z</time></trkpt><trkpt lat="36.4004806" lon="10.2647735"><ele>81.33333333333333</ele><time>2026-04-24T11:25:04.094Z</time></trkpt><trkpt lat="36.4005708" lon="10.264608"><ele>81.66666666666666</ele><time>2026-04-24T11:25:05.088Z</time></trkpt><trkpt lat="36.4006605" lon="10.2644341"><ele>82.0</ele><time>2026-04-24T11:25:06.089Z</time></trkpt><trkpt lat="36.4007556" lon="10.264263"><ele>82.0</ele><time>2026-04-24T11:25:07.095Z</time></trkpt><trkpt lat="36.4008469" lon="10.2640917"><ele>82.0</ele><time>2026-04-24T11:25:08.09Z</time></trkpt><trkpt lat="36.4009393" lon="10.2639255"><ele>82.0</ele><time>2026-04-24T11:25:09.1Z</time></trkpt><trkpt lat="36.4010316" lon="10.2637617"><ele>82.0</ele><time>2026-04-24T11:25:10.082Z</time></trkpt><trkpt lat="36.4011259" lon="10.2635901"><ele>82.0</ele><time>2026-04-24T11:25:11.096Z</time></trkpt><trkpt lat="36.401213" lon="10.2634192"><ele>82.0</ele><time>2026-04-24T11:25:12.088Z</time></trkpt><trkpt lat="36.4013" lon="10.2632457"><ele>81.33333333333333</ele><time>2026-04-24T11:25:13.087Z</time></trkpt><trkpt lat="36.401391" lon="10.2630732"><ele>80.66666666666667</ele><time>2026-04-24T11:25:14.082Z</time></trkpt><trkpt lat="36.4014845" lon="10.2629029"><ele>80.0</ele><time>2026-04-24T11:25:15.102Z</time></trkpt><trkpt lat="36.4015755" lon="10.2627296"><ele>80.0</ele><time>2026-04-24T11:25:16.09Z</time></trkpt><trkpt lat="36.4016731" lon="10.2625619"><ele>80.0</ele><time>2026-04-24T11:25:17.105Z</time></trkpt><trkpt lat="36.4017667" lon="10.2623942"><ele>80.0</ele><time>2026-04-24T11:25:18.106Z</time></trkpt><trkpt lat="36.401862" lon="10.2622276"><ele>80.66666666666667</ele><time>2026-04-24T11:25:19.094Z</time></trkpt><trkpt lat="36.401958" lon="10.262059"><ele>81.33333333333333</ele><time>2026-04-24T11:25:20.089Z</time></trkpt><trkpt lat="36.4020508" lon="10.26189"><ele>82.0</ele><time>2026-04-24T11:25:21.092Z</time></trkpt><trkpt lat="36.4021418" lon="10.2617227"><ele>82.0</ele><time>2026-04-24T11:25:22.101Z</time></trkpt><trkpt lat="36.4022402" lon="10.2615645"><ele>82.0</ele><time>2026-04-24T11:25:23.108Z</time></trkpt><trkpt lat="36.4023444" lon="10.2614065"><ele>82.0</ele><time>2026-04-24T11:25:24.102Z</time></trkpt><trkpt lat="36.402453" lon="10.2612533"><ele>81.33333333333333</ele><time>2026-04-24T11:25:25.097Z</time></trkpt><trkpt lat="36.4025611" lon="10.2610977"><ele>80.66666666666667</ele><time>2026-04-24T11:25:26.097Z</time></trkpt><trkpt lat="36.4026688" lon="10.2609434"><ele>80.0</ele><time>2026-04-24T11:25:27.085Z</time></trkpt><trkpt lat="36.4027789" lon="10.2607928"><ele>80.0</ele><time>2026-04-24T11:25:28.085Z</time></trkpt><trkpt lat="36.4028875" lon="10.2606391"><ele>80.0</ele><time>2026-04-24T11:25:29.087Z</time></trkpt><trkpt lat="36.4029953" lon="10.260485"><ele>80.0</ele><time>2026-04-24T11:25:30.093Z</time></trkpt><trkpt lat="36.4031055" lon="10.2603406"><ele>80.25</ele><time>2026-04-24T11:25:31.105Z</time></trkpt><trkpt lat="36.4032126" lon="10.2601964"><ele>80.5</ele><time>2026-04-24T11:25:32.093Z</time></trkpt><trkpt lat="36.4033093" lon="10.2600612"><ele>80.75</ele><time>2026-04-24T11:25:33.09Z</time></trkpt><trkpt lat="36.4034057" lon="10.259927"><ele>81.0</ele><time>2026-04-24T11:25:34.078Z</time></trkpt><trkpt lat="36.4034952" lon="10.2598017"><ele>80.5</ele><time>2026-04-24T11:25:35.084Z</time></trkpt><trkpt lat="36.4035845" lon="10.25968"><ele>80.0</ele><time>2026-04-24T11:25:36.079Z</time></trkpt><trkpt lat="36.4036654" lon="10.2595677"><ele>79.5</ele><time>2026-04-24T11:25:37.09Z</time></trkpt><trkpt lat="36.4037417" lon="10.2594589"><ele>79.0</ele><time>2026-04-24T11:25:38.094Z</time></trkpt><trkpt lat="36.4038063" lon="10.2593709"><ele>79.16666666666666</ele><time>2026-04-24T11:25:39.1Z</time></trkpt><trkpt lat="36.4038552" lon="10.2593092"><ele>79.33333333333333</ele><time>2026-04-24T11:25:40.1Z</time></trkpt><trkpt lat="36.4039375" lon="10.2591841"><ele>79.5</ele><time>2026-04-24T11:25:42.091Z</time></trkpt><trkpt lat="36.4039865" lon="10.2591174"><ele>79.66666666666667</ele><time>2026-04-24T11:25:43.082Z</time></trkpt><trkpt lat="36.4040408" lon="10.2590457"><ele>79.83333333333334</ele><time>2026-04-24T11:25:44.098Z</time></trkpt><trkpt lat="36.4040894" lon="10.2589706"><ele>80.0</ele><time>2026-04-24T11:25:45.099Z</time></trkpt><trkpt lat="36.4041392" lon="10.2588926"><ele>79.66666666666667</ele><time>2026-04-24T11:25:46.078Z</time></trkpt><trkpt lat="36.4041928" lon="10.2588161"><ele>79.33333333333334</ele><time>2026-04-24T11:25:47.086Z</time></trkpt><trkpt lat="36.4042465" lon="10.2587348"><ele>79.0</ele><time>2026-04-24T11:25:48.092Z</time></trkpt><trkpt lat="36.4043018" lon="10.2586497"><ele>78.66666666666667</ele><time>2026-04-24T11:25:49.09Z</time></trkpt><trkpt lat="36.4043548" lon="10.2585589"><ele>78.33333333333333</ele><time>2026-04-24T11:25:50.095Z</time></trkpt><trkpt lat="36.4044076" lon="10.258458"><ele>78.0</ele><time>2026-04-24T11:25:51.074Z</time></trkpt><trkpt lat="36.4044572" lon="10.2583544"><ele>78.0</ele><time>2026-04-24T11:25:52.107Z</time></trkpt><trkpt lat="36.4044998" lon="10.2582469"><ele>78.0</ele><time>2026-04-24T11:25:53.106Z</time></trkpt><trkpt lat="36.4045421" lon="10.2581425"><ele>78.0</ele><time>2026-04-24T11:25:54.084Z</time></trkpt><trkpt lat="36.4045771" lon="10.2580377"><ele>78.0</ele><time>2026-04-24T11:25:55.095Z</time></trkpt><trkpt lat="36.4045976" lon="10.2579252"><ele>78.0</ele><time>2026-04-24T11:25:56.095Z</time></trkpt><trkpt lat="36.4046188" lon="10.2578168"><ele>78.2</ele><time>2026-04-24T11:25:57.091Z</time></trkpt><trkpt lat="36.4046373" lon="10.2577058"><ele>78.4</ele><time>2026-04-24T11:25:58.095Z</time></trkpt><trkpt lat="36.4046582" lon="10.2575881"><ele>78.60000000000001</ele><time>2026-04-24T11:25:59.097Z</time></trkpt><trkpt lat="36.404682" lon="10.2574671"><ele>78.8</ele><time>2026-04-24T11:26:00.097Z</time></trkpt><trkpt lat="36.4046988" lon="10.2573453"><ele>79.0</ele><time>2026-04-24T11:26:01.091Z</time></trkpt><trkpt lat="36.4047136" lon="10.2572232"><ele>79.4</ele><time>2026-04-24T11:26:02.079Z</time></trkpt><trkpt lat="36.4047287" lon="10.2571031"><ele>79.80000000000001</ele><time>2026-04-24T11:26:03.086Z</time></trkpt><trkpt lat="36.4047419" lon="10.2569809"><ele>80.19999999999999</ele><time>2026-04-24T11:26:04.094Z</time></trkpt><trkpt lat="36.4047556" lon="10.2568633"><ele>80.6</ele><time>2026-04-24T11:26:05.104Z</time></trkpt><trkpt lat="36.4047725" lon="10.2567386"><ele>81.0</ele><time>2026-04-24T11:26:06.091Z</time></trkpt><trkpt lat="36.4047888" lon="10.2566092"><ele>81.0</ele><time>2026-04-24T11:26:07.087Z</time></trkpt><trkpt lat="36.4048016" lon="10.2564792"><ele>81.0</ele><time>2026-04-24T11:26:08.088Z</time></trkpt><trkpt lat="36.4048089" lon="10.2563478"><ele>81.0</ele><time>2026-04-24T11:26:09.092Z</time></trkpt><trkpt lat="36.4048211" lon="10.2562109"><ele>81.0</ele><time>2026-04-24T11:26:10.088Z</time></trkpt><trkpt lat="36.4048381" lon="10.2560806"><ele>81.0</ele><time>2026-04-24T11:26:11.091Z</time></trkpt><trkpt lat="36.4048581" lon="10.2559495"><ele>80.8</ele><time>2026-04-24T11:26:12.097Z</time></trkpt><trkpt lat="36.4048766" lon="10.2558224"><ele>80.6</ele><time>2026-04-24T11:26:13.089Z</time></trkpt><trkpt lat="36.4048948" lon="10.2556902"><ele>80.4</ele><time>2026-04-24T11:26:14.094Z</time></trkpt><trkpt lat="36.4049076" lon="10.2555566"><ele>80.2</ele><time>2026-04-24T11:26:15.09Z</time></trkpt><trkpt lat="36.4049252" lon="10.2554263"><ele>80.0</ele><time>2026-04-24T11:26:16.09Z</time></trkpt><trkpt lat="36.4049372" lon="10.2552955"><ele>80.0</ele><time>2026-04-24T11:26:17.086Z</time></trkpt><trkpt lat="36.4049547" lon="10.25517"><ele>80.0</ele><time>2026-04-24T11:26:18.091Z</time></trkpt><trkpt lat="36.4049719" lon="10.2550445"><ele>80.0</ele><time>2026-04-24T11:26:19.101Z</time></trkpt><trkpt lat="36.4049892" lon="10.2549145"><ele>80.0</ele><time>2026-04-24T11:26:20.103Z</time></trkpt><trkpt lat="36.4050079" lon="10.2547876"><ele>80.0</ele><time>2026-04-24T11:26:21.092Z</time></trkpt><trkpt lat="36.4050226" lon="10.2546517"><ele>80.0</ele><time>2026-04-24T11:26:22.087Z</time></trkpt><trkpt lat="36.4050379" lon="10.2545125"><ele>80.0</ele><time>2026-04-24T11:26:23.095Z</time></trkpt><trkpt lat="36.4050542" lon="10.2543706"><ele>80.0</ele><time>2026-04-24T11:26:24.1Z</time></trkpt><trkpt lat="36.4050729" lon="10.2542275"><ele>80.0</ele><time>2026-04-24T11:26:25.086Z</time></trkpt><trkpt lat="36.40509" lon="10.2540889"><ele>80.0</ele><time>2026-04-24T11:26:26.088Z</time></trkpt><trkpt lat="36.4051068" lon="10.2539501"><ele>80.0</ele><time>2026-04-24T11:26:27.092Z</time></trkpt><trkpt lat="36.4051274" lon="10.2538133"><ele>80.0</ele><time>2026-04-24T11:26:28.097Z</time></trkpt><trkpt lat="36.4051442" lon="10.2536721"><ele>80.0</ele><time>2026-04-24T11:26:29.081Z</time></trkpt><trkpt lat="36.4051608" lon="10.2535355"><ele>80.0</ele><time>2026-04-24T11:26:30.095Z</time></trkpt><trkpt lat="36.4051769" lon="10.2533944"><ele>80.0</ele><time>2026-04-24T11:26:31.085Z</time></trkpt><trkpt lat="36.4051946" lon="10.2532526"><ele>80.0</ele><time>2026-04-24T11:26:32.105Z</time></trkpt><trkpt lat="36.4052062" lon="10.2531101"><ele>80.0</ele><time>2026-04-24T11:26:33.09Z</time></trkpt><trkpt lat="36.4052197" lon="10.2529673"><ele>79.75</ele><time>2026-04-24T11:26:34.09Z</time></trkpt><trkpt lat="36.4052417" lon="10.2528203"><ele>79.5</ele><time>2026-04-24T11:26:35.094Z</time></trkpt><trkpt lat="36.4052645" lon="10.2526694"><ele>79.25</ele><time>2026-04-24T11:26:36.089Z</time></trkpt><trkpt lat="36.4052844" lon="10.252521"><ele>79.0</ele><time>2026-04-24T11:26:37.093Z</time></trkpt><trkpt lat="36.4053046" lon="10.2523706"><ele>78.75</ele><time>2026-04-24T11:26:38.095Z</time></trkpt><trkpt lat="36.4053268" lon="10.2522125"><ele>78.5</ele><time>2026-04-24T11:26:39.098Z</time></trkpt><trkpt lat="36.4053433" lon="10.2520484"><ele>78.25</ele><time>2026-04-24T11:26:40.097Z</time></trkpt><trkpt lat="36.4053637" lon="10.2518799"><ele>78.0</ele><time>2026-04-24T11:26:41.099Z</time></trkpt><trkpt lat="36.4053852" lon="10.2517035"><ele>78.0</ele><time>2026-04-24T11:26:42.087Z</time></trkpt><trkpt lat="36.4054107" lon="10.2515332"><ele>78.0</ele><time>2026-04-24T11:26:43.097Z</time></trkpt><trkpt lat="36.4054339" lon="10.2513607"><ele>78.0</ele><time>2026-04-24T11:26:44.103Z</time></trkpt><trkpt lat="36.4054534" lon="10.2511822"><ele>78.0</ele><time>2026-04-24T11:26:45.086Z</time></trkpt><trkpt lat="36.4054792" lon="10.2509949"><ele>78.33333333333333</ele><time>2026-04-24T11:26:46.092Z</time></trkpt><trkpt lat="36.4054996" lon="10.2507965"><ele>78.66666666666666</ele><time>2026-04-24T11:26:47.089Z</time></trkpt><trkpt lat="36.4055224" lon="10.2505951"><ele>79.0</ele><time>2026-04-24T11:26:48.084Z</time></trkpt><trkpt lat="36.4055447" lon="10.2503855"><ele>80.33333333333333</ele><time>2026-04-24T11:26:49.082Z</time></trkpt><trkpt lat="36.4055671" lon="10.250178"><ele>81.66666666666667</ele><time>2026-04-24T11:26:50.083Z</time></trkpt><trkpt lat="36.4055885" lon="10.2499707"><ele>83.0</ele><time>2026-04-24T11:26:51.089Z</time></trkpt><trkpt lat="36.4056112" lon="10.2497668"><ele>83.33333333333334</ele><time>2026-04-24T11:26:52.088Z</time></trkpt><trkpt lat="36.4056391" lon="10.2495624"><ele>83.66666666666667</ele><time>2026-04-24T11:26:53.084Z</time></trkpt><trkpt lat="36.4056662" lon="10.2493639"><ele>84.0</ele><time>2026-04-24T11:26:54.082Z</time></trkpt><trkpt lat="36.4056939" lon="10.2491663"><ele>84.0</ele><time>2026-04-24T11:26:55.086Z</time></trkpt><trkpt lat="36.4057177" lon="10.2489696"><ele>84.0</ele><time>2026-04-24T11:26:56.099Z</time></trkpt><trkpt lat="36.4057399" lon="10.248769"><ele>84.0</ele><time>2026-04-24T11:26:57.09Z</time></trkpt><trkpt lat="36.4057634" lon="10.2485675"><ele>83.0</ele><time>2026-04-24T11:26:58.087Z</time></trkpt><trkpt lat="36.4057879" lon="10.2483625"><ele>82.0</ele><time>2026-04-24T11:26:59.072Z</time></trkpt><trkpt lat="36.4058123" lon="10.2481581"><ele>81.0</ele><time>2026-04-24T11:27:00.072Z</time></trkpt><trkpt lat="36.4058357" lon="10.2479571"><ele>80.66666666666667</ele><time>2026-04-24T11:27:01.086Z</time></trkpt><trkpt lat="36.405857" lon="10.2477556"><ele>80.33333333333334</ele><time>2026-04-24T11:27:02.076Z</time></trkpt><trkpt lat="36.4058786" lon="10.2475501"><ele>80.0</ele><time>2026-04-24T11:27:03.084Z</time></trkpt><trkpt lat="36.4059049" lon="10.2473489"><ele>80.0</ele><time>2026-04-24T11:27:04.092Z</time></trkpt><trkpt lat="36.4059303" lon="10.2471546"><ele>80.0</ele><time>2026-04-24T11:27:05.083Z</time></trkpt><trkpt lat="36.4059532" lon="10.246951"><ele>80.0</ele><time>2026-04-24T11:27:06.09Z</time></trkpt><trkpt lat="36.4059795" lon="10.2467489"><ele>80.0</ele><time>2026-04-24T11:27:07.085Z</time></trkpt><trkpt lat="36.4060037" lon="10.2465511"><ele>80.0</ele><time>2026-04-24T11:27:08.071Z</time></trkpt><trkpt lat="36.4060244" lon="10.2463501"><ele>80.0</ele><time>2026-04-24T11:27:09.077Z</time></trkpt><trkpt lat="36.4060484" lon="10.2461519"><ele>80.66666666666667</ele><time>2026-04-24T11:27:10.101Z</time></trkpt><trkpt lat="36.406069" lon="10.2459548"><ele>81.33333333333333</ele><time>2026-04-24T11:27:11.092Z</time></trkpt><trkpt lat="36.4060919" lon="10.2457513"><ele>82.0</ele><time>2026-04-24T11:27:12.076Z</time></trkpt><trkpt lat="36.4061139" lon="10.2455509"><ele>82.33333333333333</ele><time>2026-04-24T11:27:13.086Z</time></trkpt><trkpt lat="36.4061361" lon="10.2453564"><ele>82.66666666666667</ele><time>2026-04-24T11:27:14.087Z</time></trkpt><trkpt lat="36.4061605" lon="10.2451612"><ele>83.0</ele><time>2026-04-24T11:27:15.085Z</time></trkpt><trkpt lat="36.4061842" lon="10.2449559"><ele>82.66666666666667</ele><time>2026-04-24T11:27:16.09Z</time></trkpt><trkpt lat="36.4062117" lon="10.2447527"><ele>82.33333333333333</ele><time>2026-04-24T11:27:17.086Z</time></trkpt><trkpt lat="36.4062378" lon="10.2445496"><ele>82.0</ele><time>2026-04-24T11:27:18.101Z</time></trkpt><trkpt lat="36.4062653" lon="10.2443483"><ele>82.0</ele><time>2026-04-24T11:27:19.083Z</time></trkpt><trkpt lat="36.4062906" lon="10.2441491"><ele>82.0</ele><time>2026-04-24T11:27:20.091Z</time></trkpt><trkpt lat="36.406316" lon="10.2439513"><ele>82.0</ele><time>2026-04-24T11:27:21.077Z</time></trkpt><trkpt lat="36.4063355" lon="10.2437507"><ele>82.33333333333333</ele><time>2026-04-24T11:27:22.088Z</time></trkpt><trkpt lat="36.4063596" lon="10.2435476"><ele>82.66666666666667</ele><time>2026-04-24T11:27:23.087Z</time></trkpt><trkpt lat="36.4063879" lon="10.2433397"><ele>83.0</ele><time>2026-04-24T11:27:24.088Z</time></trkpt><trkpt lat="36.4064076" lon="10.2431349"><ele>83.0</ele><time>2026-04-24T11:27:25.091Z</time></trkpt><trkpt lat="36.4064245" lon="10.2429352"><ele>83.0</ele><time>2026-04-24T11:27:26.092Z</time></trkpt><trkpt lat="36.4064389" lon="10.2427327"><ele>83.0</ele><time>2026-04-24T11:27:27.101Z</time></trkpt><trkpt lat="36.4064519" lon="10.2425297"><ele>83.0</ele><time>2026-04-24T11:27:28.089Z</time></trkpt><trkpt lat="36.4064616" lon="10.2423252"><ele>83.0</ele><time>2026-04-24T11:27:29.087Z</time></trkpt><trkpt lat="36.406466" lon="10.2421244"><ele>83.0</ele><time>2026-04-24T11:27:30.087Z</time></trkpt><trkpt lat="36.4064674" lon="10.2419224"><ele>83.0</ele><time>2026-04-24T11:27:31.089Z</time></trkpt><trkpt lat="36.4064635" lon="10.2417179"><ele>83.0</ele><time>2026-04-24T11:27:32.09Z</time></trkpt><trkpt lat="36.4064523" lon="10.2415127"><ele>83.0</ele><time>2026-04-24T11:27:33.076Z</time></trkpt><trkpt lat="36.4064394" lon="10.2413126"><ele>83.0</ele><time>2026-04-24T11:27:34.088Z</time></trkpt><trkpt lat="36.4064162" lon="10.241112"><ele>83.0</ele><time>2026-04-24T11:27:35.091Z</time></trkpt><trkpt lat="36.4063915" lon="10.2409049"><ele>83.0</ele><time>2026-04-24T11:27:36.099Z</time></trkpt><trkpt lat="36.4063602" lon="10.2407049"><ele>83.33333333333334</ele><time>2026-04-24T11:27:37.089Z</time></trkpt><trkpt lat="36.4063228" lon="10.2405065"><ele>83.66666666666667</ele><time>2026-04-24T11:27:38.092Z</time></trkpt><trkpt lat="36.4062877" lon="10.2403063"><ele>84.0</ele><time>2026-04-24T11:27:39.072Z</time></trkpt><trkpt lat="36.4062508" lon="10.2401075"><ele>84.0</ele><time>2026-04-24T11:27:40.083Z</time></trkpt><trkpt lat="36.4062173" lon="10.2399108"><ele>84.0</ele><time>2026-04-24T11:27:41.091Z</time></trkpt><trkpt lat="36.4061855" lon="10.2397109"><ele>84.0</ele><time>2026-04-24T11:27:42.077Z</time></trkpt><trkpt lat="36.4061535" lon="10.2395144"><ele>84.33333333333333</ele><time>2026-04-24T11:27:43.097Z</time></trkpt><trkpt lat="36.4061174" lon="10.2393142"><ele>84.66666666666666</ele><time>2026-04-24T11:27:44.108Z</time></trkpt><trkpt lat="36.4060886" lon="10.2391136"><ele>85.0</ele><time>2026-04-24T11:27:45.087Z</time></trkpt><trkpt lat="36.4060607" lon="10.2389152"><ele>85.0</ele><time>2026-04-24T11:27:46.084Z</time></trkpt><trkpt lat="36.4060361" lon="10.2387173"><ele>85.0</ele><time>2026-04-24T11:27:47.073Z</time></trkpt><trkpt lat="36.4060149" lon="10.2385173"><ele>85.0</ele><time>2026-04-24T11:27:48.093Z</time></trkpt><trkpt lat="36.4059965" lon="10.2383115"><ele>85.33333333333333</ele><time>2026-04-24T11:27:49.086Z</time></trkpt><trkpt lat="36.4059822" lon="10.2381071"><ele>85.66666666666667</ele><time>2026-04-24T11:27:50.077Z</time></trkpt><trkpt lat="36.4059677" lon="10.237902"><ele>86.0</ele><time>2026-04-24T11:27:51.086Z</time></trkpt><trkpt lat="36.4059579" lon="10.2376972"><ele>86.0</ele><time>2026-04-24T11:27:52.082Z</time></trkpt><trkpt lat="36.4059491" lon="10.2374929"><ele>86.0</ele><time>2026-04-24T11:27:53.085Z</time></trkpt><trkpt lat="36.4059457" lon="10.2372902"><ele>86.0</ele><time>2026-04-24T11:27:54.095Z</time></trkpt><trkpt lat="36.405938" lon="10.2370903"><ele>86.33333333333334</ele><time>2026-04-24T11:27:55.098Z</time></trkpt><trkpt lat="36.4059276" lon="10.2368895"><ele>86.66666666666667</ele><time>2026-04-24T11:27:56.099Z</time></trkpt><trkpt lat="36.4059175" lon="10.2366859"><ele>87.0</ele><time>2026-04-24T11:27:57.102Z</time></trkpt><trkpt lat="36.4059067" lon="10.2364833"><ele>87.0</ele><time>2026-04-24T11:27:58.095Z</time></trkpt><trkpt lat="36.4058961" lon="10.2362804"><ele>87.0</ele><time>2026-04-24T11:27:59.088Z</time></trkpt><trkpt lat="36.4058873" lon="10.2360804"><ele>87.0</ele><time>2026-04-24T11:28:00.082Z</time></trkpt><trkpt lat="36.4058784" lon="10.2358719"><ele>87.0</ele><time>2026-04-24T11:28:01.086Z</time></trkpt><trkpt lat="36.4058652" lon="10.2356668"><ele>87.0</ele><time>2026-04-24T11:28:02.08Z</time></trkpt><trkpt lat="36.4058582" lon="10.2354658"><ele>87.0</ele><time>2026-04-24T11:28:03.094Z</time></trkpt><trkpt lat="36.4058475" lon="10.2352642"><ele>87.33333333333333</ele><time>2026-04-24T11:28:04.102Z</time></trkpt><trkpt lat="36.4058415" lon="10.2350619"><ele>87.66666666666666</ele><time>2026-04-24T11:28:05.086Z</time></trkpt><trkpt lat="36.4058343" lon="10.2348594"><ele>88.0</ele><time>2026-04-24T11:28:06.092Z</time></trkpt><trkpt lat="36.405827" lon="10.2346558"><ele>88.33333333333333</ele><time>2026-04-24T11:28:07.079Z</time></trkpt><trkpt lat="36.4058199" lon="10.2344503"><ele>88.66666666666667</ele><time>2026-04-24T11:28:08.08Z</time></trkpt><trkpt lat="36.4058109" lon="10.2342484"><ele>89.0</ele><time>2026-04-24T11:28:09.095Z</time></trkpt><trkpt lat="36.4058009" lon="10.2340434"><ele>89.33333333333334</ele><time>2026-04-24T11:28:10.09Z</time></trkpt><trkpt lat="36.4057929" lon="10.2338397"><ele>89.66666666666667</ele><time>2026-04-24T11:28:11.104Z</time></trkpt><trkpt lat="36.4057861" lon="10.2336396"><ele>90.0</ele><time>2026-04-24T11:28:12.086Z</time></trkpt><trkpt lat="36.4057791" lon="10.2334364"><ele>90.0</ele><time>2026-04-24T11:28:13.08Z</time></trkpt><trkpt lat="36.4057687" lon="10.2332306"><ele>90.0</ele><time>2026-04-24T11:28:14.091Z</time></trkpt><trkpt lat="36.4057574" lon="10.2330253"><ele>90.0</ele><time>2026-04-24T11:28:15.106Z</time></trkpt><trkpt lat="36.4057493" lon="10.2328224"><ele>90.33333333333333</ele><time>2026-04-24T11:28:16.098Z</time></trkpt><trkpt lat="36.4057387" lon="10.2326189"><ele>90.66666666666666</ele><time>2026-04-24T11:28:17.088Z</time></trkpt><trkpt lat="36.4057295" lon="10.2324147"><ele>91.0</ele><time>2026-04-24T11:28:18.088Z</time></trkpt><trkpt lat="36.4057185" lon="10.2322144"><ele>91.33333333333333</ele><time>2026-04-24T11:28:19.115Z</time></trkpt><trkpt lat="36.405709" lon="10.2320131"><ele>91.66666666666667</ele><time>2026-04-24T11:28:20.093Z</time></trkpt><trkpt lat="36.4057006" lon="10.2318125"><ele>92.0</ele><time>2026-04-24T11:28:21.086Z</time></trkpt><trkpt lat="36.4056914" lon="10.2316118"><ele>92.0</ele><time>2026-04-24T11:28:22.086Z</time></trkpt><trkpt lat="36.4056829" lon="10.2314099"><ele>92.0</ele><time>2026-04-24T11:28:23.092Z</time></trkpt><trkpt lat="36.4056753" lon="10.2312046"><ele>92.0</ele><time>2026-04-24T11:28:24.099Z</time></trkpt><trkpt lat="36.4056669" lon="10.2310031"><ele>92.0</ele><time>2026-04-24T11:28:25.078Z</time></trkpt><trkpt lat="36.4056629" lon="10.230796"><ele>92.0</ele><time>2026-04-24T11:28:26.086Z</time></trkpt><trkpt lat="36.4056623" lon="10.2305902"><ele>92.0</ele><time>2026-04-24T11:28:27.093Z</time></trkpt><trkpt lat="36.4056675" lon="10.2303888"><ele>91.33333333333334</ele><time>2026-04-24T11:28:28.086Z</time></trkpt><trkpt lat="36.4056721" lon="10.2301842"><ele>90.66666666666667</ele><time>2026-04-24T11:28:29.088Z</time></trkpt><trkpt lat="36.4056812" lon="10.2299783"><ele>90.0</ele><time>2026-04-24T11:28:30.1Z</time></trkpt><trkpt lat="36.4056876" lon="10.2297758"><ele>90.0</ele><time>2026-04-24T11:28:31.092Z</time></trkpt><trkpt lat="36.4056994" lon="10.2295706"><ele>90.0</ele><time>2026-04-24T11:28:32.079Z</time></trkpt><trkpt lat="36.4057093" lon="10.2293675"><ele>90.0</ele><time>2026-04-24T11:28:33.095Z</time></trkpt><trkpt lat="36.4057195" lon="10.2291676"><ele>90.0</ele><time>2026-04-24T11:28:34.099Z</time></trkpt><trkpt lat="36.4057278" lon="10.2289637"><ele>90.0</ele><time>2026-04-24T11:28:35.1Z</time></trkpt><trkpt lat="36.4057379" lon="10.2287587"><ele>90.0</ele><time>2026-04-24T11:28:36.084Z</time></trkpt><trkpt lat="36.4057462" lon="10.2285571"><ele>90.0</ele><time>2026-04-24T11:28:37.095Z</time></trkpt><trkpt lat="36.4057533" lon="10.2283541"><ele>90.0</ele><time>2026-04-24T11:28:38.087Z</time></trkpt><trkpt lat="36.4057611" lon="10.2281505"><ele>90.0</ele><time>2026-04-24T11:28:39.082Z</time></trkpt><trkpt lat="36.4057693" lon="10.2279494"><ele>90.0</ele><time>2026-04-24T11:28:40.092Z</time></trkpt><trkpt lat="36.4057803" lon="10.2277447"><ele>90.0</ele><time>2026-04-24T11:28:41.095Z</time></trkpt><trkpt lat="36.4057906" lon="10.2275413"><ele>90.0</ele><time>2026-04-24T11:28:42.089Z</time></trkpt><trkpt lat="36.4057991" lon="10.2273373"><ele>89.33333333333333</ele><time>2026-04-24T11:28:43.094Z</time></trkpt><trkpt lat="36.4058065" lon="10.2271336"><ele>88.66666666666666</ele><time>2026-04-24T11:28:44.085Z</time></trkpt><trkpt lat="36.4058179" lon="10.2269305"><ele>88.0</ele><time>2026-04-24T11:28:45.097Z</time></trkpt><trkpt lat="36.4058283" lon="10.2267272"><ele>88.0</ele><time>2026-04-24T11:28:46.078Z</time></trkpt><trkpt lat="36.4058365" lon="10.2265265"><ele>88.0</ele><time>2026-04-24T11:28:47.072Z</time></trkpt><trkpt lat="36.405845" lon="10.2263229"><ele>88.0</ele><time>2026-04-24T11:28:48.081Z</time></trkpt><trkpt lat="36.4058551" lon="10.2261196"><ele>88.0</ele><time>2026-04-24T11:28:49.08Z</time></trkpt><trkpt lat="36.4058646" lon="10.2259153"><ele>88.0</ele><time>2026-04-24T11:28:50.087Z</time></trkpt><trkpt lat="36.4058761" lon="10.2257081"><ele>88.0</ele><time>2026-04-24T11:28:51.081Z</time></trkpt><trkpt lat="36.4058891" lon="10.2255047"><ele>88.66666666666666</ele><time>2026-04-24T11:28:52.094Z</time></trkpt><trkpt lat="36.4058999" lon="10.2253005"><ele>89.33333333333333</ele><time>2026-04-24T11:28:53.1Z</time></trkpt><trkpt lat="36.4059066" lon="10.2250937"><ele>90.0</ele><time>2026-04-24T11:28:54.09Z</time></trkpt><trkpt lat="36.405917" lon="10.224887"><ele>89.66666666666667</ele><time>2026-04-24T11:28:55.092Z</time></trkpt><trkpt lat="36.4059236" lon="10.2246857"><ele>89.33333333333334</ele><time>2026-04-24T11:28:56.095Z</time></trkpt><trkpt lat="36.40593" lon="10.2244805"><ele>89.0</ele><time>2026-04-24T11:28:57.079Z</time></trkpt><trkpt lat="36.4059424" lon="10.2242763"><ele>89.0</ele><time>2026-04-24T11:28:58.078Z</time></trkpt><trkpt lat="36.4059535" lon="10.2240747"><ele>89.0</ele><time>2026-04-24T11:28:59.088Z</time></trkpt><trkpt lat="36.4059632" lon="10.2238732"><ele>89.0</ele><time>2026-04-24T11:29:00.076Z</time></trkpt><trkpt lat="36.4059684" lon="10.2236716"><ele>89.33333333333334</ele><time>2026-04-24T11:29:01.092Z</time></trkpt><trkpt lat="36.4059747" lon="10.2234696"><ele>89.66666666666667</ele><time>2026-04-24T11:29:02.09Z</time></trkpt><trkpt lat="36.4059799" lon="10.2232698"><ele>90.0</ele><time>2026-04-24T11:29:03.109Z</time></trkpt><trkpt lat="36.4059917" lon="10.2230677"><ele>90.0</ele><time>2026-04-24T11:29:04.091Z</time></trkpt><trkpt lat="36.4059956" lon="10.2228644"><ele>90.0</ele><time>2026-04-24T11:29:05.081Z</time></trkpt><trkpt lat="36.4060048" lon="10.2226612"><ele>90.0</ele><time>2026-04-24T11:29:06.092Z</time></trkpt><trkpt lat="36.4060131" lon="10.2224536"><ele>89.66666666666667</ele><time>2026-04-24T11:29:07.089Z</time></trkpt><trkpt lat="36.4060187" lon="10.2222505"><ele>89.33333333333334</ele><time>2026-04-24T11:29:08.098Z</time></trkpt><trkpt lat="36.4060232" lon="10.2220456"><ele>89.0</ele><time>2026-04-24T11:29:09.096Z</time></trkpt><trkpt lat="36.4060321" lon="10.2218425"><ele>89.0</ele><time>2026-04-24T11:29:10.098Z</time></trkpt><trkpt lat="36.4060435" lon="10.2216426"><ele>89.0</ele><time>2026-04-24T11:29:11.088Z</time></trkpt><trkpt lat="36.4060531" lon="10.2214358"><ele>89.0</ele><time>2026-04-24T11:29:12.087Z</time></trkpt><trkpt lat="36.4060615" lon="10.2212288"><ele>89.33333333333334</ele><time>2026-04-24T11:29:13.087Z</time></trkpt><trkpt lat="36.4060708" lon="10.2210245"><ele>89.66666666666667</ele><time>2026-04-24T11:29:14.095Z</time></trkpt><trkpt lat="36.4060789" lon="10.2208246"><ele>90.0</ele><time>2026-04-24T11:29:15.094Z</time></trkpt><trkpt lat="36.4060893" lon="10.2206225"><ele>90.33333333333333</ele><time>2026-04-24T11:29:16.091Z</time></trkpt><trkpt lat="36.4061017" lon="10.2204175"><ele>90.66666666666666</ele><time>2026-04-24T11:29:17.091Z</time></trkpt><trkpt lat="36.4061124" lon="10.2202117"><ele>91.0</ele><time>2026-04-24T11:29:18.093Z</time></trkpt><trkpt lat="36.4061232" lon="10.2200091"><ele>91.0</ele><time>2026-04-24T11:29:19.083Z</time></trkpt><trkpt lat="36.4061319" lon="10.2198121"><ele>91.0</ele><time>2026-04-24T11:29:20.078Z</time></trkpt><trkpt lat="36.4061381" lon="10.2196109"><ele>91.0</ele><time>2026-04-24T11:29:21.078Z</time></trkpt><trkpt lat="36.4061521" lon="10.2194095"><ele>91.0</ele><time>2026-04-24T11:29:22.099Z</time></trkpt><trkpt lat="36.4061636" lon="10.2192013"><ele>91.0</ele><time>2026-04-24T11:29:23.09Z</time></trkpt><trkpt lat="36.4061731" lon="10.2189955"><ele>91.0</ele><time>2026-04-24T11:29:24.088Z</time></trkpt><trkpt lat="36.4061827" lon="10.2187955"><ele>91.33333333333333</ele><time>2026-04-24T11:29:25.081Z</time></trkpt><trkpt lat="36.406194" lon="10.2185937"><ele>91.66666666666667</ele><time>2026-04-24T11:29:26.097Z</time></trkpt><trkpt lat="36.4062026" lon="10.2183874"><ele>92.0</ele><time>2026-04-24T11:29:27.089Z</time></trkpt><trkpt lat="36.4062088" lon="10.2181831"><ele>92.0</ele><time>2026-04-24T11:29:28.1Z</time></trkpt><trkpt lat="36.406219" lon="10.2179808"><ele>92.0</ele><time>2026-04-24T11:29:29.081Z</time></trkpt><trkpt lat="36.4062284" lon="10.2177771"><ele>92.0</ele><time>2026-04-24T11:29:30.091Z</time></trkpt><trkpt lat="36.4062381" lon="10.2175818"><ele>92.0</ele><time>2026-04-24T11:29:31.081Z</time></trkpt><trkpt lat="36.4062457" lon="10.2173759"><ele>92.0</ele><time>2026-04-24T11:29:32.093Z</time></trkpt><trkpt lat="36.4062515" lon="10.217173"><ele>92.0</ele><time>2026-04-24T11:29:33.091Z</time></trkpt><trkpt lat="36.4062534" lon="10.2169699"><ele>92.0</ele><time>2026-04-24T11:29:34.088Z</time></trkpt><trkpt lat="36.406264" lon="10.2167651"><ele>92.0</ele><time>2026-04-24T11:29:35.079Z</time></trkpt><trkpt lat="36.4062713" lon="10.2165615"><ele>92.0</ele><time>2026-04-24T11:29:36.084Z</time></trkpt><trkpt lat="36.4062835" lon="10.2163566"><ele>92.0</ele><time>2026-04-24T11:29:37.081Z</time></trkpt><trkpt lat="36.4062932" lon="10.216154"><ele>92.0</ele><time>2026-04-24T11:29:38.09Z</time></trkpt><trkpt lat="36.4062996" lon="10.2159537"><ele>92.0</ele><time>2026-04-24T11:29:39.083Z</time></trkpt><trkpt lat="36.4063074" lon="10.2157508"><ele>92.33333333333334</ele><time>2026-04-24T11:29:40.087Z</time></trkpt><trkpt lat="36.4063166" lon="10.215547"><ele>92.66666666666667</ele><time>2026-04-24T11:29:41.081Z</time></trkpt><trkpt lat="36.4063228" lon="10.2153431"><ele>93.0</ele><time>2026-04-24T11:29:42.097Z</time></trkpt><trkpt lat="36.4063313" lon="10.2151406"><ele>93.0</ele><time>2026-04-24T11:29:43.101Z</time></trkpt><trkpt lat="36.406336" lon="10.2149386"><ele>93.0</ele><time>2026-04-24T11:29:44.094Z</time></trkpt><trkpt lat="36.4063485" lon="10.2147376"><ele>93.0</ele><time>2026-04-24T11:29:45.091Z</time></trkpt><trkpt lat="36.4063603" lon="10.2145363"><ele>93.33333333333333</ele><time>2026-04-24T11:29:46.082Z</time></trkpt><trkpt lat="36.4063676" lon="10.2143362"><ele>93.66666666666666</ele><time>2026-04-24T11:29:47.091Z</time></trkpt><trkpt lat="36.4063763" lon="10.2141349"><ele>94.0</ele><time>2026-04-24T11:29:48.081Z</time></trkpt><trkpt lat="36.40639" lon="10.2139259"><ele>94.0</ele><time>2026-04-24T11:29:49.084Z</time></trkpt><trkpt lat="36.4063988" lon="10.2137214"><ele>94.0</ele><time>2026-04-24T11:29:50.084Z</time></trkpt><trkpt lat="36.4064085" lon="10.213516"><ele>94.0</ele><time>2026-04-24T11:29:51.092Z</time></trkpt><trkpt lat="36.406422" lon="10.2133103"><ele>94.0</ele><time>2026-04-24T11:29:52.089Z</time></trkpt><trkpt lat="36.4064305" lon="10.2131046"><ele>94.0</ele><time>2026-04-24T11:29:53.09Z</time></trkpt><trkpt lat="36.4064355" lon="10.2129049"><ele>94.0</ele><time>2026-04-24T11:29:54.099Z</time></trkpt><trkpt lat="36.4064351" lon="10.2127017"><ele>94.0</ele><time>2026-04-24T11:29:55.092Z</time></trkpt><trkpt lat="36.4064296" lon="10.2125027"><ele>94.0</ele><time>2026-04-24T11:29:56.09Z</time></trkpt><trkpt lat="36.4064039" lon="10.2122947"><ele>94.0</ele><time>2026-04-24T11:29:57.1Z</time></trkpt><trkpt lat="36.4063669" lon="10.2120951"><ele>93.66666666666666</ele><time>2026-04-24T11:29:58.086Z</time></trkpt><trkpt lat="36.4063152" lon="10.211907"><ele>93.33333333333333</ele><time>2026-04-24T11:29:59.092Z</time></trkpt><trkpt lat="36.4062459" lon="10.2117216"><ele>93.0</ele><time>2026-04-24T11:30:00.086Z</time></trkpt><trkpt lat="36.4061638" lon="10.2115524"><ele>92.75</ele><time>2026-04-24T11:30:01.1Z</time></trkpt><trkpt lat="36.4060818" lon="10.2113902"><ele>92.5</ele><time>2026-04-24T11:30:02.086Z</time></trkpt><trkpt lat="36.4059934" lon="10.2112565"><ele>92.25</ele><time>2026-04-24T11:30:03.097Z</time></trkpt><trkpt lat="36.405902" lon="10.2111312"><ele>92.0</ele><time>2026-04-24T11:30:04.08Z</time></trkpt><trkpt lat="36.4058282" lon="10.2110162"><ele>92.0</ele><time>2026-04-24T11:30:05.091Z</time></trkpt><trkpt lat="36.4057579" lon="10.2109045"><ele>92.0</ele><time>2026-04-24T11:30:06.091Z</time></trkpt><trkpt lat="36.4056959" lon="10.210809"><ele>92.0</ele><time>2026-04-24T11:30:07.092Z</time></trkpt><trkpt lat="36.4056342" lon="10.2107117"><ele>92.0</ele><time>2026-04-24T11:30:08.094Z</time></trkpt><trkpt lat="36.4055709" lon="10.2106179"><ele>92.0</ele><time>2026-04-24T11:30:09.089Z</time></trkpt><trkpt lat="36.4055089" lon="10.2105164"><ele>93.0</ele><time>2026-04-24T11:30:10.079Z</time></trkpt><trkpt lat="36.4054555" lon="10.2104203"><ele>94.0</ele><time>2026-04-24T11:30:11.098Z</time></trkpt><trkpt lat="36.4054122" lon="10.2103204"><ele>95.0</ele><time>2026-04-24T11:30:12.092Z</time></trkpt><trkpt lat="36.4053729" lon="10.2102086"><ele>96.0</ele><time>2026-04-24T11:30:13.083Z</time></trkpt><trkpt lat="36.4053418" lon="10.2100996"><ele>97.0</ele><time>2026-04-24T11:30:14.088Z</time></trkpt><trkpt lat="36.4053221" lon="10.2099796"><ele>97.0</ele><time>2026-04-24T11:30:15.095Z</time></trkpt><trkpt lat="36.4053028" lon="10.209856"><ele>97.0</ele><time>2026-04-24T11:30:16.09Z</time></trkpt><trkpt lat="36.4053035" lon="10.2097383"><ele>97.0</ele><time>2026-04-24T11:30:17.092Z</time></trkpt><trkpt lat="36.4053156" lon="10.209606"><ele>97.0</ele><time>2026-04-24T11:30:18.096Z</time></trkpt><trkpt lat="36.4053367" lon="10.2094804"><ele>97.0</ele><time>2026-04-24T11:30:19.093Z</time></trkpt><trkpt lat="36.4053856" lon="10.2093499"><ele>97.25</ele><time>2026-04-24T11:30:20.122Z</time></trkpt><trkpt lat="36.4054495" lon="10.2092156"><ele>97.5</ele><time>2026-04-24T11:30:21.097Z</time></trkpt><trkpt lat="36.4055191" lon="10.2090943"><ele>97.75</ele><time>2026-04-24T11:30:22.093Z</time></trkpt><trkpt lat="36.4055901" lon="10.2089644"><ele>98.0</ele><time>2026-04-24T11:30:23.11Z</time></trkpt><trkpt lat="36.4056627" lon="10.2088351"><ele>97.5</ele><time>2026-04-24T11:30:24.091Z</time></trkpt><trkpt lat="36.4057383" lon="10.2086998"><ele>97.0</ele><time>2026-04-24T11:30:25.084Z</time></trkpt><trkpt lat="36.4058176" lon="10.2085677"><ele>96.5</ele><time>2026-04-24T11:30:26.091Z</time></trkpt><trkpt lat="36.4059039" lon="10.2084402"><ele>96.0</ele><time>2026-04-24T11:30:27.084Z</time></trkpt><trkpt lat="36.405988" lon="10.2083127"><ele>96.0</ele><time>2026-04-24T11:30:28.089Z</time></trkpt><trkpt lat="36.4060719" lon="10.2081772"><ele>96.0</ele><time>2026-04-24T11:30:29.083Z</time></trkpt><trkpt lat="36.4061562" lon="10.2080441"><ele>96.0</ele><time>2026-04-24T11:30:30.108Z</time></trkpt><trkpt lat="36.4062415" lon="10.2079054"><ele>96.0</ele><time>2026-04-24T11:30:31.095Z</time></trkpt><trkpt lat="36.4063298" lon="10.2077659"><ele>96.0</ele><time>2026-04-24T11:30:32.103Z</time></trkpt><trkpt lat="36.4064182" lon="10.2076321"><ele>96.0</ele><time>2026-04-24T11:30:33.077Z</time></trkpt><trkpt lat="36.4065042" lon="10.207504"><ele>96.0</ele><time>2026-04-24T11:30:34.089Z</time></trkpt><trkpt lat="36.4065909" lon="10.207369"><ele>96.0</ele><time>2026-04-24T11:30:35.098Z</time></trkpt><trkpt lat="36.4066751" lon="10.2072287"><ele>96.25</ele><time>2026-04-24T11:30:36.098Z</time></trkpt><trkpt lat="36.4067606" lon="10.2070881"><ele>96.5</ele><time>2026-04-24T11:30:37.09Z</time></trkpt><trkpt lat="36.4068519" lon="10.2069481"><ele>96.75</ele><time>2026-04-24T11:30:38.094Z</time></trkpt><trkpt lat="36.4069398" lon="10.2068067"><ele>97.0</ele><time>2026-04-24T11:30:39.088Z</time></trkpt><trkpt lat="36.4070306" lon="10.2066679"><ele>97.0</ele><time>2026-04-24T11:30:40.079Z</time></trkpt><trkpt lat="36.4071179" lon="10.2065319"><ele>97.0</ele><time>2026-04-24T11:30:41.084Z</time></trkpt><trkpt lat="36.4072064" lon="10.2063956"><ele>97.0</ele><time>2026-04-24T11:30:42.087Z</time></trkpt><trkpt lat="36.4072935" lon="10.2062568"><ele>97.0</ele><time>2026-04-24T11:30:43.09Z</time></trkpt><trkpt lat="36.4073815" lon="10.2061195"><ele>96.75</ele><time>2026-04-24T11:30:44.105Z</time></trkpt><trkpt lat="36.4074635" lon="10.2059797"><ele>96.5</ele><time>2026-04-24T11:30:45.091Z</time></trkpt><trkpt lat="36.4075453" lon="10.2058372"><ele>96.25</ele><time>2026-04-24T11:30:46.089Z</time></trkpt><trkpt lat="36.4076222" lon="10.2056898"><ele>96.0</ele><time>2026-04-24T11:30:47.088Z</time></trkpt><trkpt lat="36.4076892" lon="10.2055467"><ele>97.0</ele><time>2026-04-24T11:30:48.085Z</time></trkpt><trkpt lat="36.4077549" lon="10.2053945"><ele>98.0</ele><time>2026-04-24T11:30:49.082Z</time></trkpt><trkpt lat="36.4078085" lon="10.2052281"><ele>99.0</ele><time>2026-04-24T11:30:50.083Z</time></trkpt><trkpt lat="36.4078536" lon="10.2050643"><ele>100.0</ele><time>2026-04-24T11:30:51.081Z</time></trkpt><trkpt lat="36.407889" lon="10.2048985"><ele>100.25</ele><time>2026-04-24T11:30:52.096Z</time></trkpt><trkpt lat="36.4079057" lon="10.2047297"><ele>100.5</ele><time>2026-04-24T11:30:53.096Z</time></trkpt><trkpt lat="36.4079184" lon="10.2045546"><ele>100.75</ele><time>2026-04-24T11:30:54.096Z</time></trkpt><trkpt lat="36.4079278" lon="10.2043796"><ele>101.0</ele><time>2026-04-24T11:30:55.084Z</time></trkpt><trkpt lat="36.4079316" lon="10.2042059"><ele>101.0</ele><time>2026-04-24T11:30:56.08Z</time></trkpt><trkpt lat="36.4079351" lon="10.2040259"><ele>101.0</ele><time>2026-04-24T11:30:57.092Z</time></trkpt><trkpt lat="36.4079351" lon="10.2038484"><ele>101.0</ele><time>2026-04-24T11:30:58.117Z</time></trkpt><trkpt lat="36.40793" lon="10.2036699"><ele>101.0</ele><time>2026-04-24T11:30:59.095Z</time></trkpt><trkpt lat="36.4079232" lon="10.2034904"><ele>101.5</ele><time>2026-04-24T11:31:00.128Z</time></trkpt><trkpt lat="36.407911" lon="10.2033219"><ele>102.0</ele><time>2026-04-24T11:31:01.092Z</time></trkpt><trkpt lat="36.4078949" lon="10.2031455"><ele>102.5</ele><time>2026-04-24T11:31:02.115Z</time></trkpt><trkpt lat="36.4078724" lon="10.2029753"><ele>103.0</ele><time>2026-04-24T11:31:03.091Z</time></trkpt><trkpt lat="36.4078496" lon="10.2028064"><ele>103.0</ele><time>2026-04-24T11:31:04.095Z</time></trkpt><trkpt lat="36.4078258" lon="10.2026407"><ele>103.0</ele><time>2026-04-24T11:31:05.093Z</time></trkpt><trkpt lat="36.4078016" lon="10.2024778"><ele>103.0</ele><time>2026-04-24T11:31:06.096Z</time></trkpt><trkpt lat="36.4077742" lon="10.2023097"><ele>103.0</ele><time>2026-04-24T11:31:07.062Z</time></trkpt><trkpt lat="36.4077491" lon="10.2021434"><ele>103.0</ele><time>2026-04-24T11:31:08.184Z</time></trkpt><trkpt lat="36.4077246" lon="10.2019747"><ele>103.0</ele><time>2026-04-24T11:31:09.127Z</time></trkpt><trkpt lat="36.4076995" lon="10.2018023"><ele>103.0</ele><time>2026-04-24T11:31:10.074Z</time></trkpt><trkpt lat="36.4076816" lon="10.2016271"><ele>103.0</ele><time>2026-04-24T11:31:11.086Z</time></trkpt><trkpt lat="36.4076654" lon="10.2014573"><ele>102.5</ele><time>2026-04-24T11:31:12.09Z</time></trkpt><trkpt lat="36.4076536" lon="10.2012825"><ele>102.0</ele><time>2026-04-24T11:31:13.09Z</time></trkpt><trkpt lat="36.4076448" lon="10.201108"><ele>101.5</ele><time>2026-04-24T11:31:14.06Z</time></trkpt><trkpt lat="36.4076399" lon="10.200929"><ele>101.0</ele><time>2026-04-24T11:31:15.122Z</time></trkpt><trkpt lat="36.4076359" lon="10.2007529"><ele>101.5</ele><time>2026-04-24T11:31:16.064Z</time></trkpt><trkpt lat="36.4076409" lon="10.2005793"><ele>102.0</ele><time>2026-04-24T11:31:17.102Z</time></trkpt><trkpt lat="36.4076507" lon="10.2004074"><ele>102.5</ele><time>2026-04-24T11:31:18.068Z</time></trkpt><trkpt lat="36.4076549" lon="10.2002252"><ele>103.0</ele><time>2026-04-24T11:31:19.079Z</time></trkpt><trkpt lat="36.4076633" lon="10.2000455"><ele>103.0</ele><time>2026-04-24T11:31:20.106Z</time></trkpt><trkpt lat="36.4076675" lon="10.1998725"><ele>103.0</ele><time>2026-04-24T11:31:21.104Z</time></trkpt><trkpt lat="36.4076742" lon="10.199699"><ele>103.0</ele><time>2026-04-24T11:31:22.08Z</time></trkpt><trkpt lat="36.4076832" lon="10.1995252"><ele>103.0</ele><time>2026-04-24T11:31:23.086Z</time></trkpt><trkpt lat="36.4076884" lon="10.1993538"><ele>103.25</ele><time>2026-04-24T11:31:24.076Z</time></trkpt><trkpt lat="36.4076966" lon="10.1991797"><ele>103.5</ele><time>2026-04-24T11:31:25.089Z</time></trkpt><trkpt lat="36.4077054" lon="10.1989996"><ele>103.75</ele><time>2026-04-24T11:31:26.08Z</time></trkpt><trkpt lat="36.4077084" lon="10.1988219"><ele>104.0</ele><time>2026-04-24T11:31:27.077Z</time></trkpt><trkpt lat="36.4077153" lon="10.1986425"><ele>104.0</ele><time>2026-04-24T11:31:28.093Z</time></trkpt><trkpt lat="36.4077187" lon="10.1984696"><ele>104.0</ele><time>2026-04-24T11:31:29.102Z</time></trkpt><trkpt lat="36.4077256" lon="10.1982929"><ele>104.0</ele><time>2026-04-24T11:31:30.084Z</time></trkpt><trkpt lat="36.407736" lon="10.1981272"><ele>104.0</ele><time>2026-04-24T11:31:31.099Z</time></trkpt><trkpt lat="36.4077439" lon="10.1979613"><ele>104.0</ele><time>2026-04-24T11:31:32.099Z</time></trkpt><trkpt lat="36.4077474" lon="10.197792"><ele>104.0</ele><time>2026-04-24T11:31:33.073Z</time></trkpt><trkpt lat="36.4077542" lon="10.1976183"><ele>104.0</ele><time>2026-04-24T11:31:34.095Z</time></trkpt><trkpt lat="36.4077617" lon="10.1974461"><ele>104.0</ele><time>2026-04-24T11:31:35.081Z</time></trkpt><trkpt lat="36.4077646" lon="10.1972748"><ele>104.25</ele><time>2026-04-24T11:31:36.11Z</time></trkpt><trkpt lat="36.407763" lon="10.1971013"><ele>104.5</ele><time>2026-04-24T11:31:37.074Z</time></trkpt><trkpt lat="36.4077527" lon="10.1969269"><ele>104.75</ele><time>2026-04-24T11:31:38.088Z</time></trkpt><trkpt lat="36.4077414" lon="10.1967554"><ele>105.0</ele><time>2026-04-24T11:31:39.096Z</time></trkpt><trkpt lat="36.4077225" lon="10.1965873"><ele>105.5</ele><time>2026-04-24T11:31:40.09Z</time></trkpt><trkpt lat="36.4076984" lon="10.1964192"><ele>106.0</ele><time>2026-04-24T11:31:41.091Z</time></trkpt><trkpt lat="36.4076659" lon="10.1962514"><ele>106.5</ele><time>2026-04-24T11:31:42.092Z</time></trkpt><trkpt lat="36.407631" lon="10.1960918"><ele>107.0</ele><time>2026-04-24T11:31:43.091Z</time></trkpt><trkpt lat="36.4075983" lon="10.1959355"><ele>107.0</ele><time>2026-04-24T11:31:44.076Z</time></trkpt><trkpt lat="36.4075657" lon="10.1957785"><ele>107.0</ele><time>2026-04-24T11:31:45.093Z</time></trkpt><trkpt lat="36.4075385" lon="10.1956272"><ele>107.0</ele><time>2026-04-24T11:31:46.061Z</time></trkpt><trkpt lat="36.4075093" lon="10.1954829"><ele>107.0</ele><time>2026-04-24T11:31:47.08Z</time></trkpt><trkpt lat="36.4074837" lon="10.1953557"><ele>107.16666666666666</ele><time>2026-04-24T11:31:48.09Z</time></trkpt><trkpt lat="36.4074532" lon="10.1952319"><ele>107.33333333333333</ele><time>2026-04-24T11:31:49.076Z</time></trkpt><trkpt lat="36.4074316" lon="10.195118"><ele>107.5</ele><time>2026-04-24T11:31:50.085Z</time></trkpt><trkpt lat="36.4074099" lon="10.1950161"><ele>107.66666666666666</ele><time>2026-04-24T11:31:51.084Z</time></trkpt><trkpt lat="36.4073933" lon="10.1949193"><ele>107.83333333333333</ele><time>2026-04-24T11:31:52.098Z</time></trkpt><trkpt lat="36.4073714" lon="10.1948343"><ele>108.0</ele><time>2026-04-24T11:31:53.088Z</time></trkpt><trkpt lat="36.4073539" lon="10.1947391"><ele>108.33333333333333</ele><time>2026-04-24T11:31:54.075Z</time></trkpt><trkpt lat="36.4073335" lon="10.1946422"><ele>108.66666666666666</ele><time>2026-04-24T11:31:55.083Z</time></trkpt><trkpt lat="36.4073139" lon="10.1945414"><ele>109.0</ele><time>2026-04-24T11:31:56.072Z</time></trkpt><trkpt lat="36.4072988" lon="10.1944394"><ele>109.33333333333333</ele><time>2026-04-24T11:31:57.089Z</time></trkpt><trkpt lat="36.4072738" lon="10.1943416"><ele>109.66666666666666</ele><time>2026-04-24T11:31:58.112Z</time></trkpt><trkpt lat="36.4072525" lon="10.1942505"><ele>110.0</ele><time>2026-04-24T11:31:59.058Z</time></trkpt><trkpt lat="36.4072316" lon="10.1941554"><ele>109.99999999999999</ele><time>2026-04-24T11:32:00.072Z</time></trkpt><trkpt lat="36.4072117" lon="10.194059"><ele>110.0</ele><time>2026-04-24T11:32:01.079Z</time></trkpt><trkpt lat="36.4071946" lon="10.1939668"><ele>110.0</ele><time>2026-04-24T11:32:02.074Z</time></trkpt><trkpt lat="36.4071815" lon="10.1938718"><ele>110.0</ele><time>2026-04-24T11:32:03.081Z</time></trkpt><trkpt lat="36.4071628" lon="10.1937771"><ele>109.99999999999999</ele><time>2026-04-24T11:32:04.088Z</time></trkpt><trkpt lat="36.407142" lon="10.1936815"><ele>110.0</ele><time>2026-04-24T11:32:05.084Z</time></trkpt><trkpt lat="36.4071313" lon="10.1935904"><ele>110.2</ele><time>2026-04-24T11:32:06.08Z</time></trkpt><trkpt lat="36.4071148" lon="10.1935134"><ele>110.4</ele><time>2026-04-24T11:32:07.077Z</time></trkpt><trkpt lat="36.40708" lon="10.1934032"><ele>110.6</ele><time>2026-04-24T11:32:09.08Z</time></trkpt><trkpt lat="36.4070496" lon="10.1932407"><ele>110.8</ele><time>2026-04-24T11:32:11.106Z</time></trkpt><trkpt lat="36.4070369" lon="10.1931468"><ele>111.0</ele><time>2026-04-24T11:32:12.091Z</time></trkpt><trkpt lat="36.4070197" lon="10.1930501"><ele>111.4</ele><time>2026-04-24T11:32:13.102Z</time></trkpt><trkpt lat="36.4070009" lon="10.1929477"><ele>111.8</ele><time>2026-04-24T11:32:14.081Z</time></trkpt><trkpt lat="36.40698" lon="10.1928421"><ele>112.20000000000002</ele><time>2026-04-24T11:32:15.088Z</time></trkpt><trkpt lat="36.4069579" lon="10.1927272"><ele>112.60000000000001</ele><time>2026-04-24T11:32:16.092Z</time></trkpt><trkpt lat="36.4069277" lon="10.1926086"><ele>113.0</ele><time>2026-04-24T11:32:17.089Z</time></trkpt><trkpt lat="36.4068979" lon="10.1924813"><ele>113.0</ele><time>2026-04-24T11:32:18.109Z</time></trkpt><trkpt lat="36.4068692" lon="10.1923519"><ele>113.00000000000001</ele><time>2026-04-24T11:32:19.095Z</time></trkpt><trkpt lat="36.4068485" lon="10.1922329"><ele>113.00000000000001</ele><time>2026-04-24T11:32:20.094Z</time></trkpt><trkpt lat="36.4068222" lon="10.1921306"><ele>113.0</ele><time>2026-04-24T11:32:21.094Z</time></trkpt><trkpt lat="36.4067941" lon="10.1920301"><ele>113.0</ele><time>2026-04-24T11:32:22.091Z</time></trkpt><trkpt lat="36.4067735" lon="10.1919173"><ele>113.0</ele><time>2026-04-24T11:32:23.099Z</time></trkpt><trkpt lat="36.4067526" lon="10.1918089"><ele>113.00000000000001</ele><time>2026-04-24T11:32:24.098Z</time></trkpt><trkpt lat="36.4067339" lon="10.1917005"><ele>113.00000000000001</ele><time>2026-04-24T11:32:25.095Z</time></trkpt><trkpt lat="36.4067154" lon="10.1915891"><ele>113.0</ele><time>2026-04-24T11:32:26.087Z</time></trkpt><trkpt lat="36.4066883" lon="10.1914763"><ele>113.0</ele><time>2026-04-24T11:32:27.092Z</time></trkpt><trkpt lat="36.406664" lon="10.1913715"><ele>113.0</ele><time>2026-04-24T11:32:28.09Z</time></trkpt><trkpt lat="36.4066496" lon="10.1912919"><ele>113.00000000000001</ele><time>2026-04-24T11:32:29.095Z</time></trkpt><trkpt lat="36.4066247" lon="10.1911428"><ele>113.00000000000001</ele><time>2026-04-24T11:32:31.082Z</time></trkpt><trkpt lat="36.4066054" lon="10.1910387"><ele>113.0</ele><time>2026-04-24T11:32:32.087Z</time></trkpt><trkpt lat="36.406574" lon="10.1909096"><ele>113.0</ele><time>2026-04-24T11:32:33.088Z</time></trkpt><trkpt lat="36.4065419" lon="10.1907665"><ele>113.25</ele><time>2026-04-24T11:32:34.083Z</time></trkpt><trkpt lat="36.4065019" lon="10.1906154"><ele>113.5</ele><time>2026-04-24T11:32:35.081Z</time></trkpt><trkpt lat="36.4064686" lon="10.1904536"><ele>113.75</ele><time>2026-04-24T11:32:36.072Z</time></trkpt><trkpt lat="36.4064384" lon="10.1902839"><ele>114.0</ele><time>2026-04-24T11:32:37.125Z</time></trkpt><trkpt lat="36.4064057" lon="10.1901145"><ele>114.0</ele><time>2026-04-24T11:32:38.074Z</time></trkpt><trkpt lat="36.4063702" lon="10.1899482"><ele>114.0</ele><time>2026-04-24T11:32:39.088Z</time></trkpt><trkpt lat="36.406336" lon="10.1897757"><ele>114.0</ele><time>2026-04-24T11:32:40.076Z</time></trkpt><trkpt lat="36.4063038" lon="10.1896058"><ele>114.0</ele><time>2026-04-24T11:32:41.086Z</time></trkpt><trkpt lat="36.4062745" lon="10.1894241"><ele>115.0</ele><time>2026-04-24T11:32:42.106Z</time></trkpt><trkpt lat="36.4062524" lon="10.1892407"><ele>116.0</ele><time>2026-04-24T11:32:43.098Z</time></trkpt><trkpt lat="36.4062357" lon="10.1890482"><ele>117.0</ele><time>2026-04-24T11:32:44.086Z</time></trkpt><trkpt lat="36.4062311" lon="10.1888515"><ele>117.66666666666666</ele><time>2026-04-24T11:32:45.087Z</time></trkpt><trkpt lat="36.4062394" lon="10.1886502"><ele>118.33333333333333</ele><time>2026-04-24T11:32:46.085Z</time></trkpt><trkpt lat="36.4062537" lon="10.1884471"><ele>119.0</ele><time>2026-04-24T11:32:47.076Z</time></trkpt><trkpt lat="36.406277" lon="10.1882439"><ele>119.33333333333333</ele><time>2026-04-24T11:32:48.096Z</time></trkpt><trkpt lat="36.406305" lon="10.1880404"><ele>119.66666666666666</ele><time>2026-04-24T11:32:49.078Z</time></trkpt><trkpt lat="36.4063433" lon="10.1878453"><ele>120.0</ele><time>2026-04-24T11:32:50.098Z</time></trkpt><trkpt lat="36.4063833" lon="10.1876524"><ele>120.0</ele><time>2026-04-24T11:32:51.093Z</time></trkpt><trkpt lat="36.4064273" lon="10.187455"><ele>120.0</ele><time>2026-04-24T11:32:52.087Z</time></trkpt><trkpt lat="36.4064709" lon="10.1872615"><ele>120.0</ele><time>2026-04-24T11:32:53.085Z</time></trkpt><trkpt lat="36.4065165" lon="10.1870702"><ele>120.33333333333334</ele><time>2026-04-24T11:32:54.088Z</time></trkpt><trkpt lat="36.4065636" lon="10.1868758"><ele>120.66666666666667</ele><time>2026-04-24T11:32:55.082Z</time></trkpt><trkpt lat="36.4066081" lon="10.1866756"><ele>121.0</ele><time>2026-04-24T11:32:56.092Z</time></trkpt><trkpt lat="36.4066435" lon="10.1864764"><ele>121.0</ele><time>2026-04-24T11:32:57.08Z</time></trkpt><trkpt lat="36.4066746" lon="10.1862763"><ele>121.0</ele><time>2026-04-24T11:32:58.078Z</time></trkpt><trkpt lat="36.4066972" lon="10.1860677"><ele>121.0</ele><time>2026-04-24T11:32:59.092Z</time></trkpt><trkpt lat="36.4067127" lon="10.1858625"><ele>121.0</ele><time>2026-04-24T11:33:00.094Z</time></trkpt><trkpt lat="36.4067297" lon="10.1856534"><ele>121.0</ele><time>2026-04-24T11:33:01.072Z</time></trkpt><trkpt lat="36.4067468" lon="10.1854511"><ele>121.0</ele><time>2026-04-24T11:33:02.084Z</time></trkpt><trkpt lat="36.4067593" lon="10.1852467"><ele>121.0</ele><time>2026-04-24T11:33:03.084Z</time></trkpt><trkpt lat="36.4067701" lon="10.1850431"><ele>121.0</ele><time>2026-04-24T11:33:04.098Z</time></trkpt><trkpt lat="36.4067758" lon="10.1848414"><ele>121.0</ele><time>2026-04-24T11:33:05.081Z</time></trkpt><trkpt lat="36.4067664" lon="10.1846376"><ele>121.0</ele><time>2026-04-24T11:33:06.083Z</time></trkpt><trkpt lat="36.4067409" lon="10.1844365"><ele>121.0</ele><time>2026-04-24T11:33:07.081Z</time></trkpt><trkpt lat="36.4066973" lon="10.1842481"><ele>121.0</ele><time>2026-04-24T11:33:08.101Z</time></trkpt><trkpt lat="36.4066411" lon="10.1840603"><ele>120.33333333333334</ele><time>2026-04-24T11:33:09.082Z</time></trkpt><trkpt lat="36.4065735" lon="10.1838673"><ele>119.66666666666666</ele><time>2026-04-24T11:33:10.1Z</time></trkpt><trkpt lat="36.4065076" lon="10.1836845"><ele>119.0</ele><time>2026-04-24T11:33:11.077Z</time></trkpt><trkpt lat="36.4064345" lon="10.1835039"><ele>119.0</ele><time>2026-04-24T11:33:12.083Z</time></trkpt><trkpt lat="36.4063569" lon="10.1833172"><ele>119.0</ele><time>2026-04-24T11:33:13.085Z</time></trkpt><trkpt lat="36.4062855" lon="10.1831337"><ele>119.0</ele><time>2026-04-24T11:33:14.076Z</time></trkpt><trkpt lat="36.4062181" lon="10.1829456"><ele>119.0</ele><time>2026-04-24T11:33:15.083Z</time></trkpt><trkpt lat="36.4061613" lon="10.1827536"><ele>119.0</ele><time>2026-04-24T11:33:16.097Z</time></trkpt><trkpt lat="36.4061268" lon="10.1825583"><ele>119.0</ele><time>2026-04-24T11:33:17.101Z</time></trkpt><trkpt lat="36.4060992" lon="10.182359"><ele>119.33333333333333</ele><time>2026-04-24T11:33:18.095Z</time></trkpt><trkpt lat="36.4060736" lon="10.1821536"><ele>119.66666666666666</ele><time>2026-04-24T11:33:19.083Z</time></trkpt><trkpt lat="36.4060637" lon="10.1819472"><ele>120.0</ele><time>2026-04-24T11:33:20.073Z</time></trkpt><trkpt lat="36.406062" lon="10.1817416"><ele>120.0</ele><time>2026-04-24T11:33:21.074Z</time></trkpt><trkpt lat="36.4060665" lon="10.1815361"><ele>120.0</ele><time>2026-04-24T11:33:22.1Z</time></trkpt><trkpt lat="36.406069" lon="10.1813411"><ele>120.0</ele><time>2026-04-24T11:33:23.093Z</time></trkpt><trkpt lat="36.4060708" lon="10.1811363"><ele>120.0</ele><time>2026-04-24T11:33:24.093Z</time></trkpt><trkpt lat="36.406073" lon="10.1809359"><ele>120.0</ele><time>2026-04-24T11:33:25.077Z</time></trkpt><trkpt lat="36.4060738" lon="10.1807385"><ele>120.0</ele><time>2026-04-24T11:33:26.095Z</time></trkpt><trkpt lat="36.4060777" lon="10.1805325"><ele>120.33333333333334</ele><time>2026-04-24T11:33:27.073Z</time></trkpt><trkpt lat="36.4060879" lon="10.1803309"><ele>120.66666666666667</ele><time>2026-04-24T11:33:28.088Z</time></trkpt><trkpt lat="36.4061167" lon="10.1801261"><ele>121.0</ele><time>2026-04-24T11:33:29.068Z</time></trkpt><trkpt lat="36.4061513" lon="10.1799266"><ele>121.25</ele><time>2026-04-24T11:33:30.092Z</time></trkpt><trkpt lat="36.4061912" lon="10.1797433"><ele>121.5</ele><time>2026-04-24T11:33:31.08Z</time></trkpt><trkpt lat="36.406236" lon="10.1795731"><ele>121.75</ele><time>2026-04-24T11:33:32.084Z</time></trkpt><trkpt lat="36.4062825" lon="10.179419"><ele>122.0</ele><time>2026-04-24T11:33:33.083Z</time></trkpt><trkpt lat="36.4063385" lon="10.1792661"><ele>122.0</ele><time>2026-04-24T11:33:34.094Z</time></trkpt><trkpt lat="36.4064003" lon="10.1791206"><ele>122.0</ele><time>2026-04-24T11:33:35.077Z</time></trkpt><trkpt lat="36.406461" lon="10.1789671"><ele>122.0</ele><time>2026-04-24T11:33:36.087Z</time></trkpt><trkpt lat="36.4065236" lon="10.1788183"><ele>122.0</ele><time>2026-04-24T11:33:37.086Z</time></trkpt><trkpt lat="36.4065865" lon="10.1786675"><ele>122.0</ele><time>2026-04-24T11:33:38.09Z</time></trkpt><trkpt lat="36.4066518" lon="10.1785147"><ele>122.0</ele><time>2026-04-24T11:33:39.101Z</time></trkpt><trkpt lat="36.4067161" lon="10.1783573"><ele>122.0</ele><time>2026-04-24T11:33:40.101Z</time></trkpt><trkpt lat="36.4067757" lon="10.1781962"><ele>122.0</ele><time>2026-04-24T11:33:41.078Z</time></trkpt><trkpt lat="36.40683" lon="10.1780266"><ele>122.25</ele><time>2026-04-24T11:33:42.08Z</time></trkpt><trkpt lat="36.4068805" lon="10.1778567"><ele>122.5</ele><time>2026-04-24T11:33:43.094Z</time></trkpt><trkpt lat="36.4069232" lon="10.1776908"><ele>122.75</ele><time>2026-04-24T11:33:44.095Z</time></trkpt><trkpt lat="36.4069423" lon="10.1775113"><ele>123.0</ele><time>2026-04-24T11:33:45.088Z</time></trkpt><trkpt lat="36.4069459" lon="10.1773363"><ele>123.0</ele><time>2026-04-24T11:33:46.078Z</time></trkpt><trkpt lat="36.4069369" lon="10.1771598"><ele>123.0</ele><time>2026-04-24T11:33:47.085Z</time></trkpt><trkpt lat="36.4069186" lon="10.1769799"><ele>123.0</ele><time>2026-04-24T11:33:48.088Z</time></trkpt><trkpt lat="36.4068925" lon="10.1767956"><ele>123.0</ele><time>2026-04-24T11:33:49.088Z</time></trkpt><trkpt lat="36.4068724" lon="10.1766256"><ele>123.25</ele><time>2026-04-24T11:33:50.076Z</time></trkpt><trkpt lat="36.4068533" lon="10.1764527"><ele>123.5</ele><time>2026-04-24T11:33:51.085Z</time></trkpt><trkpt lat="36.4068318" lon="10.1762725"><ele>123.75</ele><time>2026-04-24T11:33:52.089Z</time></trkpt><trkpt lat="36.4068058" lon="10.1760949"><ele>124.0</ele><time>2026-04-24T11:33:53.104Z</time></trkpt><trkpt lat="36.4067856" lon="10.1759173"><ele>124.0</ele><time>2026-04-24T11:33:54.085Z</time></trkpt><trkpt lat="36.4067657" lon="10.1757362"><ele>124.0</ele><time>2026-04-24T11:33:55.092Z</time></trkpt><trkpt lat="36.4067459" lon="10.1755541"><ele>124.0</ele><time>2026-04-24T11:33:56.093Z</time></trkpt><trkpt lat="36.4067245" lon="10.1753669"><ele>124.0</ele><time>2026-04-24T11:33:57.086Z</time></trkpt><trkpt lat="36.4067047" lon="10.1751871"><ele>124.75</ele><time>2026-04-24T11:33:58.073Z</time></trkpt><trkpt lat="36.4066863" lon="10.1750026"><ele>125.5</ele><time>2026-04-24T11:33:59.09Z</time></trkpt><trkpt lat="36.4066696" lon="10.1748215"><ele>126.25</ele><time>2026-04-24T11:34:00.078Z</time></trkpt><trkpt lat="36.4066481" lon="10.1746367"><ele>127.0</ele><time>2026-04-24T11:34:01.083Z</time></trkpt><trkpt lat="36.4066254" lon="10.1744504"><ele>127.33333333333334</ele><time>2026-04-24T11:34:02.083Z</time></trkpt><trkpt lat="36.4066066" lon="10.1742603"><ele>127.66666666666666</ele><time>2026-04-24T11:34:03.092Z</time></trkpt><trkpt lat="36.4065891" lon="10.1740656"><ele>128.0</ele><time>2026-04-24T11:34:04.089Z</time></trkpt><trkpt lat="36.4065682" lon="10.1738724"><ele>128.0</ele><time>2026-04-24T11:34:05.093Z</time></trkpt><trkpt lat="36.4065453" lon="10.1736769"><ele>128.0</ele><time>2026-04-24T11:34:06.097Z</time></trkpt><trkpt lat="36.4065218" lon="10.1734831"><ele>128.0</ele><time>2026-04-24T11:34:07.089Z</time></trkpt><trkpt lat="36.4065006" lon="10.1732798"><ele>128.33333333333331</ele><time>2026-04-24T11:34:08.091Z</time></trkpt><trkpt lat="36.4064777" lon="10.173079"><ele>128.66666666666666</ele><time>2026-04-24T11:34:09.086Z</time></trkpt><trkpt lat="36.4064516" lon="10.1728738"><ele>129.0</ele><time>2026-04-24T11:34:10.084Z</time></trkpt><trkpt lat="36.4064213" lon="10.1726705"><ele>129.0</ele><time>2026-04-24T11:34:11.083Z</time></trkpt><trkpt lat="36.4063827" lon="10.1724729"><ele>129.0</ele><time>2026-04-24T11:34:12.082Z</time></trkpt><trkpt lat="36.4063387" lon="10.1722768"><ele>129.0</ele><time>2026-04-24T11:34:13.081Z</time></trkpt><trkpt lat="36.4062762" lon="10.1720868"><ele>130.33333333333334</ele><time>2026-04-24T11:34:14.102Z</time></trkpt><trkpt lat="36.4062042" lon="10.1719074"><ele>131.66666666666669</ele><time>2026-04-24T11:34:15.095Z</time></trkpt><trkpt lat="36.4061288" lon="10.1717333"><ele>133.0</ele><time>2026-04-24T11:34:16.1Z</time></trkpt><trkpt lat="36.4060436" lon="10.1715558"><ele>133.33333333333334</ele><time>2026-04-24T11:34:17.092Z</time></trkpt><trkpt lat="36.4059512" lon="10.171389"><ele>133.66666666666666</ele><time>2026-04-24T11:34:18.093Z</time></trkpt><trkpt lat="36.4058509" lon="10.1712248"><ele>134.0</ele><time>2026-04-24T11:34:19.093Z</time></trkpt><trkpt lat="36.4057444" lon="10.1710668"><ele>134.0</ele><time>2026-04-24T11:34:20.097Z</time></trkpt><trkpt lat="36.4056362" lon="10.1709108"><ele>134.0</ele><time>2026-04-24T11:34:21.091Z</time></trkpt><trkpt lat="36.4055232" lon="10.1707593"><ele>134.0</ele><time>2026-04-24T11:34:22.088Z</time></trkpt><trkpt lat="36.4054094" lon="10.1706116"><ele>134.33333333333331</ele><time>2026-04-24T11:34:23.082Z</time></trkpt><trkpt lat="36.4052951" lon="10.1704625"><ele>134.66666666666666</ele><time>2026-04-24T11:34:24.084Z</time></trkpt><trkpt lat="36.4051844" lon="10.1703122"><ele>135.0</ele><time>2026-04-24T11:34:25.085Z</time></trkpt><trkpt lat="36.405072" lon="10.1701716"><ele>135.0</ele><time>2026-04-24T11:34:26.082Z</time></trkpt><trkpt lat="36.4049592" lon="10.170029"><ele>135.0</ele><time>2026-04-24T11:34:27.093Z</time></trkpt><trkpt lat="36.4048429" lon="10.1698805"><ele>135.0</ele><time>2026-04-24T11:34:28.087Z</time></trkpt><trkpt lat="36.4047337" lon="10.1697354"><ele>136.0</ele><time>2026-04-24T11:34:29.104Z</time></trkpt><trkpt lat="36.404629" lon="10.1695876"><ele>137.0</ele><time>2026-04-24T11:34:30.111Z</time></trkpt><trkpt lat="36.4045256" lon="10.1694495"><ele>138.0</ele><time>2026-04-24T11:34:31.085Z</time></trkpt><trkpt lat="36.404426" lon="10.1693156"><ele>138.0</ele><time>2026-04-24T11:34:32.098Z</time></trkpt><trkpt lat="36.4043328" lon="10.1691872"><ele>138.0</ele><time>2026-04-24T11:34:33.089Z</time></trkpt><trkpt lat="36.4042386" lon="10.1690641"><ele>138.0</ele><time>2026-04-24T11:34:34.095Z</time></trkpt><trkpt lat="36.4041479" lon="10.1689383"><ele>138.0</ele><time>2026-04-24T11:34:35.096Z</time></trkpt><trkpt lat="36.4040678" lon="10.1688056"><ele>138.5</ele><time>2026-04-24T11:34:36.102Z</time></trkpt><trkpt lat="36.4039848" lon="10.1686733"><ele>139.0</ele><time>2026-04-24T11:34:37.091Z</time></trkpt><trkpt lat="36.4039112" lon="10.1685396"><ele>139.5</ele><time>2026-04-24T11:34:38.087Z</time></trkpt><trkpt lat="36.4038359" lon="10.1683963"><ele>140.0</ele><time>2026-04-24T11:34:39.085Z</time></trkpt><trkpt lat="36.4037656" lon="10.1682481"><ele>140.75</ele><time>2026-04-24T11:34:40.077Z</time></trkpt><trkpt lat="36.4036943" lon="10.1680988"><ele>141.5</ele><time>2026-04-24T11:34:41.102Z</time></trkpt><trkpt lat="36.4036253" lon="10.16795"><ele>142.25</ele><time>2026-04-24T11:34:42.095Z</time></trkpt><trkpt lat="36.4035587" lon="10.1678007"><ele>143.0</ele><time>2026-04-24T11:34:43.085Z</time></trkpt><trkpt lat="36.4034939" lon="10.1676496"><ele>143.0</ele><time>2026-04-24T11:34:44.088Z</time></trkpt><trkpt lat="36.4034257" lon="10.1674975"><ele>143.0</ele><time>2026-04-24T11:34:45.093Z</time></trkpt><trkpt lat="36.4033616" lon="10.1673432"><ele>143.0</ele><time>2026-04-24T11:34:46.077Z</time></trkpt><trkpt lat="36.4032999" lon="10.1671817"><ele>143.0</ele><time>2026-04-24T11:34:47.088Z</time></trkpt><trkpt lat="36.4032461" lon="10.1670198"><ele>143.25</ele><time>2026-04-24T11:34:48.073Z</time></trkpt><trkpt lat="36.4032046" lon="10.166858"><ele>143.5</ele><time>2026-04-24T11:34:49.102Z</time></trkpt><trkpt lat="36.4031694" lon="10.1666886"><ele>143.75</ele><time>2026-04-24T11:34:50.092Z</time></trkpt><trkpt lat="36.4031455" lon="10.1665163"><ele>144.0</ele><time>2026-04-24T11:34:51.098Z</time></trkpt><trkpt lat="36.4031314" lon="10.1663446"><ele>144.25</ele><time>2026-04-24T11:34:52.081Z</time></trkpt><trkpt lat="36.4031289" lon="10.1661594"><ele>144.5</ele><time>2026-04-24T11:34:53.089Z</time></trkpt><trkpt lat="36.4031218" lon="10.1659794"><ele>144.75</ele><time>2026-04-24T11:34:54.096Z</time></trkpt><trkpt lat="36.4031167" lon="10.1657973"><ele>145.0</ele><time>2026-04-24T11:34:55.091Z</time></trkpt><trkpt lat="36.4031079" lon="10.1656173"><ele>145.75</ele><time>2026-04-24T11:34:56.089Z</time></trkpt><trkpt lat="36.4030894" lon="10.1654374"><ele>146.5</ele><time>2026-04-24T11:34:57.076Z</time></trkpt><trkpt lat="36.4030638" lon="10.1652578"><ele>147.25</ele><time>2026-04-24T11:34:58.088Z</time></trkpt><trkpt lat="36.4030283" lon="10.1650773"><ele>148.0</ele><time>2026-04-24T11:34:59.084Z</time></trkpt><trkpt lat="36.4029835" lon="10.1649066"><ele>148.75</ele><time>2026-04-24T11:35:00.078Z</time></trkpt><trkpt lat="36.4029234" lon="10.1647372"><ele>149.5</ele><time>2026-04-24T11:35:01.08Z</time></trkpt><trkpt lat="36.40285" lon="10.1645812"><ele>150.25</ele><time>2026-04-24T11:35:02.076Z</time></trkpt><trkpt lat="36.4027639" lon="10.1644379"><ele>151.0</ele><time>2026-04-24T11:35:03.09Z</time></trkpt><trkpt lat="36.402679" lon="10.1643012"><ele>151.0</ele><time>2026-04-24T11:35:04.087Z</time></trkpt><trkpt lat="36.4025886" lon="10.1641633"><ele>151.0</ele><time>2026-04-24T11:35:05.089Z</time></trkpt><trkpt lat="36.4024974" lon="10.1640229"><ele>151.0</ele><time>2026-04-24T11:35:06.088Z</time></trkpt><trkpt lat="36.4024044" lon="10.1638804"><ele>151.0</ele><time>2026-04-24T11:35:07.084Z</time></trkpt><trkpt lat="36.4023168" lon="10.1637423"><ele>152.25</ele><time>2026-04-24T11:35:08.078Z</time></trkpt><trkpt lat="36.4022324" lon="10.1635931"><ele>153.5</ele><time>2026-04-24T11:35:09.098Z</time></trkpt><trkpt lat="36.4021551" lon="10.1634528"><ele>154.75</ele><time>2026-04-24T11:35:10.082Z</time></trkpt><trkpt lat="36.4020832" lon="10.1633028"><ele>156.0</ele><time>2026-04-24T11:35:11.102Z</time></trkpt><trkpt lat="36.4020216" lon="10.1631445"><ele>157.25</ele><time>2026-04-24T11:35:12.088Z</time></trkpt><trkpt lat="36.4019709" lon="10.1629761"><ele>158.5</ele><time>2026-04-24T11:35:13.081Z</time></trkpt><trkpt lat="36.4019324" lon="10.1628024"><ele>159.75</ele><time>2026-04-24T11:35:14.082Z</time></trkpt><trkpt lat="36.4019102" lon="10.1626166"><ele>161.0</ele><time>2026-04-24T11:35:15.076Z</time></trkpt><trkpt lat="36.4018953" lon="10.1624349"><ele>161.5</ele><time>2026-04-24T11:35:16.092Z</time></trkpt><trkpt lat="36.4018852" lon="10.1622549"><ele>162.0</ele><time>2026-04-24T11:35:17.088Z</time></trkpt><trkpt lat="36.4018742" lon="10.1620798"><ele>162.5</ele><time>2026-04-24T11:35:18.082Z</time></trkpt><trkpt lat="36.4018591" lon="10.1619109"><ele>163.0</ele><time>2026-04-24T11:35:19.09Z</time></trkpt><trkpt lat="36.4018503" lon="10.1617524"><ele>163.0</ele><time>2026-04-24T11:35:20.099Z</time></trkpt><trkpt lat="36.4018463" lon="10.1616106"><ele>163.0</ele><time>2026-04-24T11:35:21.099Z</time></trkpt><trkpt lat="36.4018482" lon="10.1614862"><ele>163.0</ele><time>2026-04-24T11:35:22.106Z</time></trkpt><trkpt lat="36.4018597" lon="10.1613828"><ele>163.0</ele><time>2026-04-24T11:35:23.099Z</time></trkpt><trkpt lat="36.4018716" lon="10.1612953"><ele>163.0</ele><time>2026-04-24T11:35:24.096Z</time></trkpt><trkpt lat="36.4018889" lon="10.1612134"><ele>163.0</ele><time>2026-04-24T11:35:25.103Z</time></trkpt><trkpt lat="36.4019108" lon="10.1611314"><ele>163.5</ele><time>2026-04-24T11:35:26.1Z</time></trkpt><trkpt lat="36.4019409" lon="10.1610563"><ele>164.0</ele><time>2026-04-24T11:35:27.092Z</time></trkpt><trkpt lat="36.4019867" lon="10.1609142"><ele>164.5</ele><time>2026-04-24T11:35:29.082Z</time></trkpt><trkpt lat="36.401993" lon="10.1608277"><ele>165.0</ele><time>2026-04-24T11:35:30.092Z</time></trkpt><trkpt lat="36.4019757" lon="10.1607465"><ele>165.5</ele><time>2026-04-24T11:35:31.087Z</time></trkpt><trkpt lat="36.4019575" lon="10.1606633"><ele>166.0</ele><time>2026-04-24T11:35:32.079Z</time></trkpt><trkpt lat="36.4019391" lon="10.1605847"><ele>167.0</ele><time>2026-04-24T11:35:33.099Z</time></trkpt><trkpt lat="36.401923" lon="10.160494"><ele>168.0</ele><time>2026-04-24T11:35:34.088Z</time></trkpt><trkpt lat="36.4019141" lon="10.1603987"><ele>169.0</ele><time>2026-04-24T11:35:35.094Z</time></trkpt><trkpt lat="36.4019151" lon="10.1602911"><ele>170.0</ele><time>2026-04-24T11:35:36.084Z</time></trkpt><trkpt lat="36.4019263" lon="10.1601708"><ele>171.0</ele><time>2026-04-24T11:35:37.09Z</time></trkpt><trkpt lat="36.4019436" lon="10.1600534"><ele>172.0</ele><time>2026-04-24T11:35:38.092Z</time></trkpt><trkpt lat="36.4019528" lon="10.1599302"><ele>172.0</ele><time>2026-04-24T11:35:39.092Z</time></trkpt><trkpt lat="36.4019541" lon="10.1598058"><ele>172.0</ele><time>2026-04-24T11:35:40.078Z</time></trkpt><trkpt lat="36.4019547" lon="10.1596826"><ele>172.0</ele><time>2026-04-24T11:35:41.091Z</time></trkpt><trkpt lat="36.4019449" lon="10.1595617"><ele>172.0</ele><time>2026-04-24T11:35:42.095Z</time></trkpt><trkpt lat="36.4019195" lon="10.1594439"><ele>172.0</ele><time>2026-04-24T11:35:43.093Z</time></trkpt><trkpt lat="36.4018819" lon="10.1593331"><ele>172.0</ele><time>2026-04-24T11:35:44.078Z</time></trkpt><trkpt lat="36.4018316" lon="10.1592189"><ele>172.0</ele><time>2026-04-24T11:35:45.096Z</time></trkpt><trkpt lat="36.4017664" lon="10.159111"><ele>172.0</ele><time>2026-04-24T11:35:46.092Z</time></trkpt><trkpt lat="36.4016934" lon="10.1590132"><ele>172.0</ele><time>2026-04-24T11:35:47.088Z</time></trkpt><trkpt lat="36.4016061" lon="10.1589293"><ele>172.0</ele><time>2026-04-24T11:35:48.089Z</time></trkpt><trkpt lat="36.4015164" lon="10.1588532"><ele>172.2</ele><time>2026-04-24T11:35:49.084Z</time></trkpt><trkpt lat="36.4014256" lon="10.1587889"><ele>172.39999999999998</ele><time>2026-04-24T11:35:50.091Z</time></trkpt><trkpt lat="36.4013284" lon="10.1587335"><ele>172.60000000000002</ele><time>2026-04-24T11:35:51.084Z</time></trkpt><trkpt lat="36.4012333" lon="10.158688"><ele>172.8</ele><time>2026-04-24T11:35:52.079Z</time></trkpt><trkpt lat="36.4011428" lon="10.1586426"><ele>173.0</ele><time>2026-04-24T11:35:53.087Z</time></trkpt><trkpt lat="36.4010492" lon="10.1586014"><ele>173.0</ele><time>2026-04-24T11:35:54.08Z</time></trkpt><trkpt lat="36.4009642" lon="10.1585589"><ele>173.0</ele><time>2026-04-24T11:35:55.09Z</time></trkpt><trkpt lat="36.4008819" lon="10.158515"><ele>173.0</ele><time>2026-04-24T11:35:56.083Z</time></trkpt><trkpt lat="36.4008054" lon="10.1584624"><ele>173.0</ele><time>2026-04-24T11:35:57.086Z</time></trkpt><trkpt lat="36.4007414" lon="10.1584185"><ele>173.0</ele><time>2026-04-24T11:35:58.096Z</time></trkpt><trkpt lat="36.4006779" lon="10.1583791"><ele>173.0</ele><time>2026-04-24T11:35:59.093Z</time></trkpt><trkpt lat="36.4005754" lon="10.1583065"><ele>173.5</ele><time>2026-04-24T11:36:01.082Z</time></trkpt><trkpt lat="36.400483" lon="10.1582445"><ele>174.0</ele><time>2026-04-24T11:36:03.088Z</time></trkpt><trkpt lat="36.400418" lon="10.1582091"><ele>174.5</ele><time>2026-04-24T11:36:05.095Z</time></trkpt><trkpt lat="36.4003575" lon="10.158183"><ele>175.0</ele><time>2026-04-24T11:36:09.083Z</time></trkpt><trkpt lat="36.4002648" lon="10.1582037"><ele>175.5</ele><time>2026-04-24T11:40:11.092Z</time></trkpt><trkpt lat="36.4001888" lon="10.1582393"><ele>176.0</ele><time>2026-04-24T11:40:13.08Z</time></trkpt><trkpt lat="36.4000921" lon="10.1583093"><ele>176.0</ele><time>2026-04-24T11:40:15.115Z</time></trkpt><trkpt lat="36.4000276" lon="10.1583509"><ele>176.0</ele><time>2026-04-24T11:40:16.073Z</time></trkpt><trkpt lat="36.3999619" lon="10.1583936"><ele>176.0</ele><time>2026-04-24T11:40:17.064Z</time></trkpt><trkpt lat="36.3998965" lon="10.1584413"><ele>176.0</ele><time>2026-04-24T11:40:18.062Z</time></trkpt><trkpt lat="36.3998275" lon="10.1584968"><ele>176.0</ele><time>2026-04-24T11:40:19.1Z</time></trkpt><trkpt lat="36.3997538" lon="10.15855"><ele>176.0</ele><time>2026-04-24T11:40:20.077Z</time></trkpt><trkpt lat="36.3996739" lon="10.1585929"><ele>177.5</ele><time>2026-04-24T11:40:21.093Z</time></trkpt><trkpt lat="36.3993199" lon="10.1586143"><ele>179.0</ele><time>2026-04-24T11:40:25.075Z</time></trkpt><trkpt lat="36.3990644" lon="10.1584908"><ele>179.0</ele><time>2026-04-24T11:40:28.067Z</time></trkpt><trkpt lat="36.398918" lon="10.1583329"><ele>179.0</ele><time>2026-04-24T11:40:30.055Z</time></trkpt><trkpt lat="36.39886" lon="10.1582279"><ele>179.0</ele><time>2026-04-24T11:40:31.085Z</time></trkpt><trkpt lat="36.3988075" lon="10.1581067"><ele>179.0</ele><time>2026-04-24T11:40:32.119Z</time></trkpt><trkpt lat="36.3987508" lon="10.1580029"><ele>179.2</ele><time>2026-04-24T11:40:33.07Z</time></trkpt><trkpt lat="36.3986858" lon="10.1579092"><ele>179.39999999999998</ele><time>2026-04-24T11:40:34.094Z</time></trkpt><trkpt lat="36.3986145" lon="10.1578338"><ele>179.6</ele><time>2026-04-24T11:40:35.109Z</time></trkpt><trkpt lat="36.3985296" lon="10.1577596"><ele>179.8</ele><time>2026-04-24T11:40:36.077Z</time></trkpt><trkpt lat="36.3984278" lon="10.1576968"><ele>180.0</ele><time>2026-04-24T11:40:37.078Z</time></trkpt><trkpt lat="36.3983253" lon="10.1576354"><ele>180.0</ele><time>2026-04-24T11:40:38.076Z</time></trkpt><trkpt lat="36.3982249" lon="10.1575745"><ele>180.0</ele><time>2026-04-24T11:40:39.069Z</time></trkpt><trkpt lat="36.3981234" lon="10.1575034"><ele>180.0</ele><time>2026-04-24T11:40:40.065Z</time></trkpt><trkpt lat="36.3980206" lon="10.1574289"><ele>180.0</ele><time>2026-04-24T11:40:41.075Z</time></trkpt><trkpt lat="36.3979255" lon="10.1573385"><ele>181.0</ele><time>2026-04-24T11:40:42.075Z</time></trkpt><trkpt lat="36.3978425" lon="10.1572374"><ele>182.0</ele><time>2026-04-24T11:40:43.089Z</time></trkpt><trkpt lat="36.3977649" lon="10.1571135"><ele>183.0</ele><time>2026-04-24T11:40:44.068Z</time></trkpt><trkpt lat="36.3976993" lon="10.156991"><ele>184.0</ele><time>2026-04-24T11:40:45.077Z</time></trkpt><trkpt lat="36.3976428" lon="10.1568469"><ele>184.0</ele><time>2026-04-24T11:40:46.075Z</time></trkpt><trkpt lat="36.3976053" lon="10.1566982"><ele>184.0</ele><time>2026-04-24T11:40:47.094Z</time></trkpt><trkpt lat="36.3975822" lon="10.1565387"><ele>184.0</ele><time>2026-04-24T11:40:48.087Z</time></trkpt><trkpt lat="36.3975784" lon="10.1563718"><ele>184.0</ele><time>2026-04-24T11:40:49.079Z</time></trkpt><trkpt lat="36.3975781" lon="10.1562027"><ele>183.75</ele><time>2026-04-24T11:40:50.084Z</time></trkpt><trkpt lat="36.3975808" lon="10.1560327"><ele>183.5</ele><time>2026-04-24T11:40:51.094Z</time></trkpt><trkpt lat="36.3975847" lon="10.1558658"><ele>183.25</ele><time>2026-04-24T11:40:52.088Z</time></trkpt><trkpt lat="36.3975762" lon="10.1557123"><ele>183.0</ele><time>2026-04-24T11:40:53.077Z</time></trkpt><trkpt lat="36.3975699" lon="10.1555693"><ele>182.60000000000002</ele><time>2026-04-24T11:40:54.091Z</time></trkpt><trkpt lat="36.3975478" lon="10.1554475"><ele>182.20000000000002</ele><time>2026-04-24T11:40:55.092Z</time></trkpt><trkpt lat="36.3975034" lon="10.1553344"><ele>181.8</ele><time>2026-04-24T11:40:56.094Z</time></trkpt><trkpt lat="36.3974426" lon="10.1552294"><ele>181.4</ele><time>2026-04-24T11:40:57.086Z</time></trkpt><trkpt lat="36.3973528" lon="10.155146"><ele>181.0</ele><time>2026-04-24T11:40:58.083Z</time></trkpt><trkpt lat="36.3972397" lon="10.1550823"><ele>182.25</ele><time>2026-04-24T11:40:59.077Z</time></trkpt><trkpt lat="36.3971288" lon="10.1550395"><ele>183.5</ele><time>2026-04-24T11:41:00.081Z</time></trkpt><trkpt lat="36.3970124" lon="10.1550003"><ele>184.75</ele><time>2026-04-24T11:41:01.084Z</time></trkpt><trkpt lat="36.396903" lon="10.1549663"><ele>186.0</ele><time>2026-04-24T11:41:02.084Z</time></trkpt><trkpt lat="36.3968007" lon="10.1549369"><ele>186.0</ele><time>2026-04-24T11:41:03.084Z</time></trkpt><trkpt lat="36.3967158" lon="10.1549173"><ele>186.0</ele><time>2026-04-24T11:41:04.077Z</time></trkpt><trkpt lat="36.3966338" lon="10.1548971"><ele>186.0</ele><time>2026-04-24T11:41:05.115Z</time></trkpt><trkpt lat="36.3965533" lon="10.1548803"><ele>186.0</ele><time>2026-04-24T11:41:06.108Z</time></trkpt><trkpt lat="36.3964767" lon="10.1548624"><ele>186.0</ele><time>2026-04-24T11:41:07.097Z</time></trkpt><trkpt lat="36.3964122" lon="10.1548384"><ele>186.0</ele><time>2026-04-24T11:41:08.092Z</time></trkpt><trkpt lat="36.3963274" lon="10.1547872"><ele>185.83333333333334</ele><time>2026-04-24T11:41:10.096Z</time></trkpt><trkpt lat="36.3962824" lon="10.1547287"><ele>185.66666666666666</ele><time>2026-04-24T11:41:12.107Z</time></trkpt><trkpt lat="36.3962655" lon="10.1546031"><ele>185.5</ele><time>2026-04-24T11:41:14.09Z</time></trkpt><trkpt lat="36.3962905" lon="10.154447"><ele>185.33333333333331</ele><time>2026-04-24T11:41:16.08Z</time></trkpt><trkpt lat="36.3963169" lon="10.1543653"><ele>185.16666666666666</ele><time>2026-04-24T11:41:17.08Z</time></trkpt><trkpt lat="36.3963539" lon="10.154289"><ele>185.0</ele><time>2026-04-24T11:41:18.077Z</time></trkpt><trkpt lat="36.3963971" lon="10.1542211"><ele>185.0</ele><time>2026-04-24T11:41:19.096Z</time></trkpt><trkpt lat="36.3964431" lon="10.1541407"><ele>185.0</ele><time>2026-04-24T11:41:20.093Z</time></trkpt><trkpt lat="36.3964911" lon="10.1540605"><ele>185.0</ele><time>2026-04-24T11:41:21.098Z</time></trkpt><trkpt lat="36.3965499" lon="10.1539791"><ele>185.0</ele><time>2026-04-24T11:41:22.087Z</time></trkpt><trkpt lat="36.3966055" lon="10.1539034"><ele>185.0</ele><time>2026-04-24T11:41:23.081Z</time></trkpt><trkpt lat="36.3966583" lon="10.1538213"><ele>185.0</ele><time>2026-04-24T11:41:24.084Z</time></trkpt><trkpt lat="36.3967123" lon="10.1537339"><ele>185.33333333333331</ele><time>2026-04-24T11:41:25.106Z</time></trkpt><trkpt lat="36.3967656" lon="10.1536492"><ele>185.66666666666666</ele><time>2026-04-24T11:41:26.092Z</time></trkpt><trkpt lat="36.396818" lon="10.1535687"><ele>186.0</ele><time>2026-04-24T11:41:27.116Z</time></trkpt><trkpt lat="36.3968745" lon="10.1534819"><ele>186.33333333333334</ele><time>2026-04-24T11:41:28.087Z</time></trkpt><trkpt lat="36.3969261" lon="10.153398"><ele>186.66666666666669</ele><time>2026-04-24T11:41:29.104Z</time></trkpt><trkpt lat="36.396979" lon="10.153315"><ele>187.0</ele><time>2026-04-24T11:41:30.104Z</time></trkpt><trkpt lat="36.3970299" lon="10.1532305"><ele>186.33333333333334</ele><time>2026-04-24T11:41:31.092Z</time></trkpt><trkpt lat="36.397081" lon="10.1531457"><ele>185.66666666666669</ele><time>2026-04-24T11:41:32.082Z</time></trkpt><trkpt lat="36.3971269" lon="10.1530605"><ele>185.0</ele><time>2026-04-24T11:41:33.081Z</time></trkpt><trkpt lat="36.3971764" lon="10.1529819"><ele>184.33333333333334</ele><time>2026-04-24T11:41:34.099Z</time></trkpt><trkpt lat="36.3972261" lon="10.1529129"><ele>183.66666666666666</ele><time>2026-04-24T11:41:35.096Z</time></trkpt><trkpt lat="36.3972747" lon="10.1528373"><ele>183.0</ele><time>2026-04-24T11:41:36.096Z</time></trkpt><trkpt lat="36.3973171" lon="10.1527702"><ele>183.0</ele><time>2026-04-24T11:41:37.1Z</time></trkpt><trkpt lat="36.3973517" lon="10.1527014"><ele>183.0</ele><time>2026-04-24T11:41:38.109Z</time></trkpt><trkpt lat="36.3974161" lon="10.1525738"><ele>183.0</ele><time>2026-04-24T11:41:40.118Z</time></trkpt><trkpt lat="36.3974793" lon="10.152441"><ele>183.0</ele><time>2026-04-24T11:41:42.083Z</time></trkpt><trkpt lat="36.397512" lon="10.1523738"><ele>183.0</ele><time>2026-04-24T11:41:43.083Z</time></trkpt><trkpt lat="36.3975716" lon="10.1522429"><ele>183.5</ele><time>2026-04-24T11:41:45.086Z</time></trkpt><trkpt lat="36.3976232" lon="10.1521214"><ele>184.0</ele><time>2026-04-24T11:41:47.091Z</time></trkpt><trkpt lat="36.3976593" lon="10.1520566"><ele>184.5</ele><time>2026-04-24T11:41:48.094Z</time></trkpt><trkpt lat="36.3976916" lon="10.1519859"><ele>185.0</ele><time>2026-04-24T11:41:49.085Z</time></trkpt><trkpt lat="36.3977244" lon="10.1519174"><ele>185.5</ele><time>2026-04-24T11:41:50.091Z</time></trkpt><trkpt lat="36.3977909" lon="10.1517827"><ele>186.0</ele><time>2026-04-24T11:41:52.087Z</time></trkpt><trkpt lat="36.3978248" lon="10.1517098"><ele>186.0</ele><time>2026-04-24T11:41:53.077Z</time></trkpt><trkpt lat="36.3978612" lon="10.1516377"><ele>186.0</ele><time>2026-04-24T11:41:54.089Z</time></trkpt><trkpt lat="36.3978969" lon="10.1515646"><ele>186.0</ele><time>2026-04-24T11:41:55.094Z</time></trkpt><trkpt lat="36.3979285" lon="10.1514854"><ele>186.0</ele><time>2026-04-24T11:41:56.081Z</time></trkpt><trkpt lat="36.3979664" lon="10.151405"><ele>186.0</ele><time>2026-04-24T11:41:57.073Z</time></trkpt><trkpt lat="36.3980339" lon="10.1512645"><ele>186.0</ele><time>2026-04-24T11:41:59.086Z</time></trkpt><trkpt lat="36.3980942" lon="10.151142"><ele>185.60000000000002</ele><time>2026-04-24T11:42:01.081Z</time></trkpt><trkpt lat="36.3981554" lon="10.1510134"><ele>185.2</ele><time>2026-04-24T11:42:03.096Z</time></trkpt><trkpt lat="36.3981872" lon="10.1509458"><ele>184.8</ele><time>2026-04-24T11:42:04.093Z</time></trkpt><trkpt lat="36.3982544" lon="10.1508188"><ele>184.39999999999998</ele><time>2026-04-24T11:42:06.093Z</time></trkpt><trkpt lat="36.3982919" lon="10.1507549"><ele>184.0</ele><time>2026-04-24T11:42:07.08Z</time></trkpt><trkpt lat="36.3983608" lon="10.1506431"><ele>184.0</ele><time>2026-04-24T11:42:09.078Z</time></trkpt><trkpt lat="36.3984332" lon="10.1505559"><ele>184.0</ele><time>2026-04-24T11:42:11.07Z</time></trkpt><trkpt lat="36.3984815" lon="10.1504856"><ele>184.0</ele><time>2026-04-24T11:42:13.106Z</time></trkpt><trkpt lat="36.3985569" lon="10.1504202"><ele>184.0</ele><time>2026-04-24T11:42:15.079Z</time></trkpt><trkpt lat="36.3986353" lon="10.1503502"><ele>184.0</ele><time>2026-04-24T11:42:17.087Z</time></trkpt><trkpt lat="36.3987134" lon="10.1502811"><ele>184.0</ele><time>2026-04-24T11:42:19.099Z</time></trkpt><trkpt lat="36.3987904" lon="10.1502049"><ele>184.0</ele><time>2026-04-24T11:42:21.103Z</time></trkpt><trkpt lat="36.3988598" lon="10.1501249"><ele>184.0</ele><time>2026-04-24T11:42:23.093Z</time></trkpt><trkpt lat="36.3989342" lon="10.1500603"><ele>184.0</ele><time>2026-04-24T11:42:25.096Z</time></trkpt><trkpt lat="36.3990028" lon="10.1499782"><ele>184.0</ele><time>2026-04-24T11:42:27.078Z</time></trkpt><trkpt lat="36.399071" lon="10.1499067"><ele>186.0</ele><time>2026-04-24T11:42:29.084Z</time></trkpt><trkpt lat="36.3991417" lon="10.1498553"><ele>188.0</ele><time>2026-04-24T11:42:31.107Z</time></trkpt><trkpt lat="36.3991977" lon="10.1497995"><ele>190.0</ele><time>2026-04-24T11:42:33.085Z</time></trkpt><trkpt lat="36.3992553" lon="10.1497244"><ele>192.0</ele><time>2026-04-24T11:42:36.099Z</time></trkpt><trkpt lat="36.3993134" lon="10.149661"><ele>193.99999999999997</ele><time>2026-04-24T11:42:40.088Z</time></trkpt><trkpt lat="36.3993611" lon="10.1495855"><ele>196.0</ele><time>2026-04-24T11:42:43.078Z</time></trkpt><trkpt lat="36.3994229" lon="10.1495113"><ele>196.0</ele><time>2026-04-24T11:42:45.091Z</time></trkpt><trkpt lat="36.3994905" lon="10.1494269"><ele>196.0</ele><time>2026-04-24T11:42:47.082Z</time></trkpt><trkpt lat="36.3995544" lon="10.1493355"><ele>196.0</ele><time>2026-04-24T11:42:49.112Z</time></trkpt><trkpt lat="36.3996118" lon="10.1492467"><ele>196.0</ele><time>2026-04-24T11:42:51.081Z</time></trkpt><trkpt lat="36.3996761" lon="10.149174"><ele>196.0</ele><time>2026-04-24T11:42:53.095Z</time></trkpt><trkpt lat="36.3997453" lon="10.1490833"><ele>195.83333333333331</ele><time>2026-04-24T11:42:55.096Z</time></trkpt><trkpt lat="36.3998039" lon="10.1490045"><ele>195.66666666666666</ele><time>2026-04-24T11:42:57.087Z</time></trkpt><trkpt lat="36.3998605" lon="10.1489291"><ele>195.5</ele><time>2026-04-24T11:43:00.079Z</time></trkpt><trkpt lat="36.3999002" lon="10.1488597"><ele>195.33333333333331</ele><time>2026-04-24T11:43:03.095Z</time></trkpt><trkpt lat="36.3999456" lon="10.1487922"><ele>195.16666666666666</ele><time>2026-04-24T11:43:05.079Z</time></trkpt><trkpt lat="36.3999924" lon="10.148706"><ele>195.0</ele><time>2026-04-24T11:43:07.088Z</time></trkpt><trkpt lat="36.4000338" lon="10.1485994"><ele>195.0</ele><time>2026-04-24T11:43:09.09Z</time></trkpt><trkpt lat="36.4000847" lon="10.1485141"><ele>195.0</ele><time>2026-04-24T11:43:11.101Z</time></trkpt><trkpt lat="36.4001319" lon="10.1484112"><ele>195.0</ele><time>2026-04-24T11:43:13.085Z</time></trkpt><trkpt lat="36.4001562" lon="10.1483106"><ele>195.0</ele><time>2026-04-24T11:43:17.093Z</time></trkpt><trkpt lat="36.4001942" lon="10.1482202"><ele>195.0</ele><time>2026-04-24T11:43:19.085Z</time></trkpt><trkpt lat="36.4002106" lon="10.1480991"><ele>195.0</ele><time>2026-04-24T11:43:21.099Z</time></trkpt><trkpt lat="36.4002202" lon="10.147963"><ele>195.0</ele><time>2026-04-24T11:43:23.095Z</time></trkpt><trkpt lat="36.4002081" lon="10.1478306"><ele>195.0</ele><time>2026-04-24T11:43:25.104Z</time></trkpt><trkpt lat="36.400198" lon="10.1476949"><ele>195.0</ele><time>2026-04-24T11:43:27.082Z</time></trkpt><trkpt lat="36.4001921" lon="10.1475776"><ele>195.0</ele><time>2026-04-24T11:43:29.086Z</time></trkpt><trkpt lat="36.4001656" lon="10.1474692"><ele>195.0</ele><time>2026-04-24T11:43:31.084Z</time></trkpt><trkpt lat="36.4001225" lon="10.1473691"><ele>193.8</ele><time>2026-04-24T11:43:33.083Z</time></trkpt><trkpt lat="36.4000668" lon="10.1472579"><ele>192.6</ele><time>2026-04-24T11:43:35.098Z</time></trkpt><trkpt lat="36.4000177" lon="10.1471472"><ele>191.39999999999998</ele><time>2026-04-24T11:43:37.082Z</time></trkpt><trkpt lat="36.399978" lon="10.1470275"><ele>190.2</ele><time>2026-04-24T11:43:39.07Z</time></trkpt><trkpt lat="36.399938" lon="10.1468945"><ele>189.0</ele><time>2026-04-24T11:43:41.083Z</time></trkpt><trkpt lat="36.399924" lon="10.146754"><ele>189.0</ele><time>2026-04-24T11:43:43.078Z</time></trkpt><trkpt lat="36.3999034" lon="10.1465878"><ele>189.0</ele><time>2026-04-24T11:43:45.094Z</time></trkpt><trkpt lat="36.3998959" lon="10.146499"><ele>189.0</ele><time>2026-04-24T11:43:46.09Z</time></trkpt><trkpt lat="36.3998934" lon="10.1464131"><ele>189.0</ele><time>2026-04-24T11:43:47.08Z</time></trkpt><trkpt lat="36.3998862" lon="10.14632"><ele>189.0</ele><time>2026-04-24T11:43:48.081Z</time></trkpt><trkpt lat="36.3998788" lon="10.1462344"><ele>189.0</ele><time>2026-04-24T11:43:49.101Z</time></trkpt><trkpt lat="36.3998705" lon="10.146145"><ele>188.83333333333334</ele><time>2026-04-24T11:43:50.088Z</time></trkpt><trkpt lat="36.3998592" lon="10.1460586"><ele>188.66666666666666</ele><time>2026-04-24T11:43:51.096Z</time></trkpt><trkpt lat="36.3998503" lon="10.1459704"><ele>188.5</ele><time>2026-04-24T11:43:52.097Z</time></trkpt><trkpt lat="36.399839" lon="10.1458847"><ele>188.33333333333331</ele><time>2026-04-24T11:43:53.082Z</time></trkpt><trkpt lat="36.3998247" lon="10.1457993"><ele>188.16666666666666</ele><time>2026-04-24T11:43:54.09Z</time></trkpt><trkpt lat="36.3997917" lon="10.145657"><ele>188.0</ele><time>2026-04-24T11:43:56.093Z</time></trkpt><trkpt lat="36.3997505" lon="10.1455248"><ele>188.0</ele><time>2026-04-24T11:43:58.087Z</time></trkpt><trkpt lat="36.3997077" lon="10.145401"><ele>188.0</ele><time>2026-04-24T11:44:00.09Z</time></trkpt><trkpt lat="36.3996661" lon="10.1452754"><ele>188.0</ele><time>2026-04-24T11:44:02.088Z</time></trkpt><trkpt lat="36.3996276" lon="10.1451337"><ele>188.0</ele><time>2026-04-24T11:44:04.091Z</time></trkpt><trkpt lat="36.3996" lon="10.1450002"><ele>188.0</ele><time>2026-04-24T11:44:06.094Z</time></trkpt><trkpt lat="36.3995947" lon="10.144872"><ele>189.16666666666666</ele><time>2026-04-24T11:44:08.092Z</time></trkpt><trkpt lat="36.3995927" lon="10.1447602"><ele>190.33333333333331</ele><time>2026-04-24T11:44:10.086Z</time></trkpt><trkpt lat="36.3995895" lon="10.1446544"><ele>191.5</ele><time>2026-04-24T11:44:12.087Z</time></trkpt><trkpt lat="36.3995498" lon="10.1445595"><ele>192.66666666666666</ele><time>2026-04-24T11:44:14.084Z</time></trkpt><trkpt lat="36.3994825" lon="10.144553"><ele>193.83333333333334</ele><time>2026-04-24T11:44:16.065Z</time></trkpt><trkpt lat="36.3994279" lon="10.1446545"><ele>195.0</ele><time>2026-04-24T11:44:20.085Z</time></trkpt><trkpt lat="36.3994137" lon="10.1447383"><ele>195.0</ele><time>2026-04-24T11:44:22.093Z</time></trkpt><trkpt lat="36.3993956" lon="10.1448219"><ele>195.0</ele><time>2026-04-24T11:44:24.098Z</time></trkpt><trkpt lat="36.3993993" lon="10.1449101"><ele>195.0</ele><time>2026-04-24T11:44:26.088Z</time></trkpt><trkpt lat="36.3993955" lon="10.1449958"><ele>195.0</ele><time>2026-04-24T11:44:28.076Z</time></trkpt><trkpt lat="36.3993958" lon="10.1450743"><ele>195.0</ele><time>2026-04-24T11:44:30.089Z</time></trkpt><trkpt lat="36.3994266" lon="10.1451481"><ele>195.0</ele><time>2026-04-24T11:44:43.08Z</time></trkpt><trkpt lat="36.3994522" lon="10.1452352"><ele>195.0</ele><time>2026-04-24T11:44:45.084Z</time></trkpt><trkpt lat="36.3994715" lon="10.1453211"><ele>195.5</ele><time>2026-04-24T11:44:48.085Z</time></trkpt><trkpt lat="36.3994856" lon="10.1454005"><ele>196.0</ele><time>2026-04-24T11:44:51.1Z</time></trkpt><trkpt lat="36.3995096" lon="10.1454898"><ele>196.5</ele><time>2026-04-24T11:44:55.096Z</time></trkpt><trkpt lat="36.3995369" lon="10.1455931"><ele>197.0</ele><time>2026-04-24T11:45:08.085Z</time></trkpt><trkpt lat="36.3995631" lon="10.1457139"><ele>197.5</ele><time>2026-04-24T11:45:10.086Z</time></trkpt><trkpt lat="36.3995778" lon="10.1458181"><ele>198.0</ele><time>2026-04-24T11:45:12.091Z</time></trkpt><trkpt lat="36.3995428" lon="10.1459336"><ele>198.60000000000002</ele><time>2026-04-24T11:45:14.096Z</time></trkpt><trkpt lat="36.3995092" lon="10.1460583"><ele>199.20000000000002</ele><time>2026-04-24T11:45:16.066Z</time></trkpt><trkpt lat="36.399472" lon="10.1461905"><ele>199.8</ele><time>2026-04-24T11:45:18.085Z</time></trkpt><trkpt lat="36.3994453" lon="10.1463103"><ele>200.4</ele><time>2026-04-24T11:45:20.085Z</time></trkpt><trkpt lat="36.3994055" lon="10.1464359"><ele>201.0</ele><time>2026-04-24T11:45:22.08Z</time></trkpt><trkpt lat="36.3993574" lon="10.146545"><ele>202.0</ele><time>2026-04-24T11:45:24.09Z</time></trkpt><trkpt lat="36.3993012" lon="10.146638"><ele>203.0</ele><time>2026-04-24T11:45:26.097Z</time></trkpt><trkpt lat="36.3992281" lon="10.1467138"><ele>204.0</ele><time>2026-04-24T11:45:28.087Z</time></trkpt><trkpt lat="36.3991643" lon="10.1467578"><ele>205.0</ele><time>2026-04-24T11:45:31.095Z</time></trkpt><trkpt lat="36.3990968" lon="10.1468148"><ele>206.0</ele><time>2026-04-24T11:45:35.086Z</time></trkpt><trkpt lat="36.3990084" lon="10.1468729"><ele>207.0</ele><time>2026-04-24T11:45:38.159Z</time></trkpt><trkpt lat="36.3989482" lon="10.1469457"><ele>207.0</ele><time>2026-04-24T11:45:40.087Z</time></trkpt><trkpt lat="36.3988776" lon="10.1469935"><ele>207.0</ele><time>2026-04-24T11:45:42.097Z</time></trkpt><trkpt lat="36.3988088" lon="10.147048"><ele>207.0</ele><time>2026-04-24T11:45:44.092Z</time></trkpt><trkpt lat="36.3987407" lon="10.1470988"><ele>207.0</ele><time>2026-04-24T11:45:46.078Z</time></trkpt><trkpt lat="36.3986881" lon="10.1471502"><ele>207.0</ele><time>2026-04-24T11:45:49.087Z</time></trkpt><trkpt lat="36.3986177" lon="10.1471878"><ele>207.0</ele><time>2026-04-24T11:45:53.095Z</time></trkpt><trkpt lat="36.3985501" lon="10.1471223"><ele>208.16666666666666</ele><time>2026-04-24T11:45:56.099Z</time></trkpt><trkpt lat="36.3984944" lon="10.1470383"><ele>209.33333333333331</ele><time>2026-04-24T11:45:59.073Z</time></trkpt><trkpt lat="36.3984367" lon="10.1469385"><ele>210.5</ele><time>2026-04-24T11:46:02.079Z</time></trkpt><trkpt lat="36.3983877" lon="10.146862"><ele>211.66666666666666</ele><time>2026-04-24T11:46:05.095Z</time></trkpt><trkpt lat="36.3983369" lon="10.1467877"><ele>212.83333333333331</ele><time>2026-04-24T11:46:08.086Z</time></trkpt><trkpt lat="36.3982886" lon="10.1467226"><ele>214.0</ele><time>2026-04-24T11:46:11.117Z</time></trkpt><trkpt lat="36.3982424" lon="10.146653"><ele>213.99999999999997</ele><time>2026-04-24T11:46:14.084Z</time></trkpt><trkpt lat="36.398207" lon="10.1465856"><ele>214.0</ele><time>2026-04-24T11:46:18.079Z</time></trkpt><trkpt lat="36.3981522" lon="10.1465124"><ele>214.0</ele><time>2026-04-24T11:46:21.083Z</time></trkpt><trkpt lat="36.3980758" lon="10.1464384"><ele>214.0</ele><time>2026-04-24T11:46:23.086Z</time></trkpt><trkpt lat="36.3980183" lon="10.1463551"><ele>213.99999999999997</ele><time>2026-04-24T11:46:25.083Z</time></trkpt><trkpt lat="36.3979538" lon="10.1462597"><ele>214.0</ele><time>2026-04-24T11:46:27.089Z</time></trkpt><trkpt lat="36.397899" lon="10.1461647"><ele>215.99999999999997</ele><time>2026-04-24T11:46:29.093Z</time></trkpt><trkpt lat="36.3978401" lon="10.1460762"><ele>218.0</ele><time>2026-04-24T11:46:31.074Z</time></trkpt><trkpt lat="36.3977832" lon="10.1460003"><ele>220.0</ele><time>2026-04-24T11:46:33.081Z</time></trkpt><trkpt lat="36.3977258" lon="10.145917"><ele>222.0</ele><time>2026-04-24T11:46:35.072Z</time></trkpt><trkpt lat="36.3976761" lon="10.1458242"><ele>223.99999999999997</ele><time>2026-04-24T11:46:37.084Z</time></trkpt><trkpt lat="36.3976367" lon="10.1457278"><ele>226.0</ele><time>2026-04-24T11:46:39.071Z</time></trkpt><trkpt lat="36.397597" lon="10.1456323"><ele>226.20000000000002</ele><time>2026-04-24T11:46:41.079Z</time></trkpt><trkpt lat="36.3975578" lon="10.1455361"><ele>226.40000000000003</ele><time>2026-04-24T11:46:43.087Z</time></trkpt><trkpt lat="36.3975025" lon="10.1454428"><ele>226.6</ele><time>2026-04-24T11:46:45.088Z</time></trkpt><trkpt lat="36.3974443" lon="10.145346"><ele>226.8</ele><time>2026-04-24T11:46:47.092Z</time></trkpt><trkpt lat="36.3973789" lon="10.1452502"><ele>227.0</ele><time>2026-04-24T11:46:49.092Z</time></trkpt><trkpt lat="36.3972996" lon="10.14513"><ele>227.0</ele><time>2026-04-24T11:46:51.091Z</time></trkpt><trkpt lat="36.3972289" lon="10.1450368"><ele>227.0</ele><time>2026-04-24T11:46:53.08Z</time></trkpt><trkpt lat="36.3971509" lon="10.1449458"><ele>227.0</ele><time>2026-04-24T11:46:55.087Z</time></trkpt><trkpt lat="36.3970789" lon="10.1448416"><ele>227.0</ele><time>2026-04-24T11:46:57.099Z</time></trkpt><trkpt lat="36.3970179" lon="10.1447586"><ele>227.0</ele><time>2026-04-24T11:46:59.097Z</time></trkpt><trkpt lat="36.3969672" lon="10.1446962"><ele>227.33333333333334</ele><time>2026-04-24T11:47:01.083Z</time></trkpt><trkpt lat="36.3969017" lon="10.144657"><ele>227.66666666666669</ele><time>2026-04-24T11:47:03.091Z</time></trkpt><trkpt lat="36.3968433" lon="10.1446004"><ele>228.0</ele><time>2026-04-24T11:47:05.088Z</time></trkpt><trkpt lat="36.3968014" lon="10.1445235"><ele>228.33333333333331</ele><time>2026-04-24T11:47:07.084Z</time></trkpt><trkpt lat="36.3967635" lon="10.1444517"><ele>228.66666666666666</ele><time>2026-04-24T11:47:09.091Z</time></trkpt><trkpt lat="36.3967127" lon="10.1443672"><ele>229.0</ele><time>2026-04-24T11:47:11.098Z</time></trkpt><trkpt lat="36.3966737" lon="10.1442649"><ele>228.99999999999997</ele><time>2026-04-24T11:47:13.082Z</time></trkpt><trkpt lat="36.3966366" lon="10.1441705"><ele>229.0</ele><time>2026-04-24T11:47:15.087Z</time></trkpt><trkpt lat="36.3965874" lon="10.14404"><ele>229.0</ele><time>2026-04-24T11:47:18.083Z</time></trkpt><trkpt lat="36.3965629" lon="10.1439599"><ele>229.0</ele><time>2026-04-24T11:47:20.081Z</time></trkpt><trkpt lat="36.3965375" lon="10.1438517"><ele>228.99999999999997</ele><time>2026-04-24T11:47:23.092Z</time></trkpt><trkpt lat="36.3965016" lon="10.1437507"><ele>229.0</ele><time>2026-04-24T11:47:25.094Z</time></trkpt><trkpt lat="36.3964618" lon="10.1436307"><ele>229.2</ele><time>2026-04-24T11:47:27.104Z</time></trkpt><trkpt lat="36.396432" lon="10.1434952"><ele>229.39999999999998</ele><time>2026-04-24T11:47:29.087Z</time></trkpt><trkpt lat="36.3964095" lon="10.1433622"><ele>229.6</ele><time>2026-04-24T11:47:31.089Z</time></trkpt><trkpt lat="36.396419" lon="10.1432222"><ele>229.8</ele><time>2026-04-24T11:47:33.106Z</time></trkpt><trkpt lat="36.3964146" lon="10.1430936"><ele>230.0</ele><time>2026-04-24T11:47:35.102Z</time></trkpt><trkpt lat="36.3963844" lon="10.1429668"><ele>230.2</ele><time>2026-04-24T11:47:37.102Z</time></trkpt><trkpt lat="36.3963636" lon="10.142847"><ele>230.4</ele><time>2026-04-24T11:47:39.093Z</time></trkpt><trkpt lat="36.3963471" lon="10.142714"><ele>230.60000000000002</ele><time>2026-04-24T11:47:41.09Z</time></trkpt><trkpt lat="36.3963086" lon="10.1425716"><ele>230.8</ele><time>2026-04-24T11:47:43.096Z</time></trkpt><trkpt lat="36.3962877" lon="10.1424961"><ele>231.0</ele><time>2026-04-24T11:47:44.104Z</time></trkpt><trkpt lat="36.3962491" lon="10.1423451"><ele>232.0</ele><time>2026-04-24T11:47:46.094Z</time></trkpt><trkpt lat="36.3962343" lon="10.1422677"><ele>233.00000000000003</ele><time>2026-04-24T11:47:47.1Z</time></trkpt><trkpt lat="36.3962134" lon="10.1421923"><ele>234.00000000000003</ele><time>2026-04-24T11:47:48.085Z</time></trkpt><trkpt lat="36.3961717" lon="10.1420487"><ele>235.0</ele><time>2026-04-24T11:47:50.084Z</time></trkpt><trkpt lat="36.3961354" lon="10.1419076"><ele>236.0</ele><time>2026-04-24T11:47:52.095Z</time></trkpt><trkpt lat="36.3960971" lon="10.1417639"><ele>236.0</ele><time>2026-04-24T11:47:54.103Z</time></trkpt><trkpt lat="36.3960763" lon="10.1416116"><ele>236.00000000000003</ele><time>2026-04-24T11:47:56.091Z</time></trkpt><trkpt lat="36.3960842" lon="10.141533"><ele>236.00000000000003</ele><time>2026-04-24T11:47:57.088Z</time></trkpt><trkpt lat="36.3961102" lon="10.1414343"><ele>236.0</ele><time>2026-04-24T11:47:59.084Z</time></trkpt><trkpt lat="36.3961347" lon="10.1413032"><ele>236.0</ele><time>2026-04-24T11:48:01.091Z</time></trkpt><trkpt lat="36.3961074" lon="10.1411794"><ele>236.8</ele><time>2026-04-24T11:48:03.088Z</time></trkpt><trkpt lat="36.3960484" lon="10.1410807"><ele>237.60000000000002</ele><time>2026-04-24T11:48:05.103Z</time></trkpt><trkpt lat="36.3959838" lon="10.1409616"><ele>238.4</ele><time>2026-04-24T11:48:07.112Z</time></trkpt><trkpt lat="36.3959669" lon="10.1407959"><ele>239.2</ele><time>2026-04-24T11:48:09.077Z</time></trkpt><trkpt lat="36.3959669" lon="10.1406976"><ele>240.0</ele><time>2026-04-24T11:48:10.094Z</time></trkpt><trkpt lat="36.395965" lon="10.1405948"><ele>240.0</ele><time>2026-04-24T11:48:11.1Z</time></trkpt><trkpt lat="36.395965" lon="10.1404981"><ele>240.0</ele><time>2026-04-24T11:48:12.092Z</time></trkpt><trkpt lat="36.3959604" lon="10.140397"><ele>240.0</ele><time>2026-04-24T11:48:13.096Z</time></trkpt><trkpt lat="36.3959608" lon="10.1403007"><ele>240.0</ele><time>2026-04-24T11:48:14.081Z</time></trkpt><trkpt lat="36.3959679" lon="10.1401975"><ele>240.0</ele><time>2026-04-24T11:48:15.09Z</time></trkpt><trkpt lat="36.3959766" lon="10.1400988"><ele>240.0</ele><time>2026-04-24T11:48:16.088Z</time></trkpt><trkpt lat="36.3959915" lon="10.1399998"><ele>240.0</ele><time>2026-04-24T11:48:17.088Z</time></trkpt><trkpt lat="36.3960146" lon="10.1399019"><ele>240.0</ele><time>2026-04-24T11:48:18.087Z</time></trkpt><trkpt lat="36.3960378" lon="10.1398012"><ele>240.0</ele><time>2026-04-24T11:48:19.072Z</time></trkpt><trkpt lat="36.3960685" lon="10.1396996"><ele>240.0</ele><time>2026-04-24T11:48:20.098Z</time></trkpt><trkpt lat="36.3960981" lon="10.1396002"><ele>240.0</ele><time>2026-04-24T11:48:21.084Z</time></trkpt><trkpt lat="36.3961322" lon="10.1395011"><ele>240.0</ele><time>2026-04-24T11:48:22.079Z</time></trkpt><trkpt lat="36.3961591" lon="10.13941"><ele>240.0</ele><time>2026-04-24T11:48:23.097Z</time></trkpt><trkpt lat="36.3961845" lon="10.1393122"><ele>240.0</ele><time>2026-04-24T11:48:24.102Z</time></trkpt><trkpt lat="36.3961793" lon="10.1392226"><ele>240.0</ele><time>2026-04-24T11:48:25.101Z</time></trkpt><trkpt lat="36.3961456" lon="10.1391167"><ele>240.0</ele><time>2026-04-24T11:48:26.102Z</time></trkpt><trkpt lat="36.3961157" lon="10.1390346"><ele>240.0</ele><time>2026-04-24T11:48:27.089Z</time></trkpt><trkpt lat="36.3960818" lon="10.138948"><ele>240.0</ele><time>2026-04-24T11:48:28.08Z</time></trkpt><trkpt lat="36.3960532" lon="10.1388642"><ele>240.0</ele><time>2026-04-24T11:48:29.095Z</time></trkpt><trkpt lat="36.396025" lon="10.1387703"><ele>240.0</ele><time>2026-04-24T11:48:30.083Z</time></trkpt><trkpt lat="36.3960016" lon="10.1386839"><ele>240.0</ele><time>2026-04-24T11:48:31.105Z</time></trkpt><trkpt lat="36.3959703" lon="10.1385992"><ele>240.0</ele><time>2026-04-24T11:48:32.088Z</time></trkpt><trkpt lat="36.3959251" lon="10.1385171"><ele>240.0</ele><time>2026-04-24T11:48:33.08Z</time></trkpt><trkpt lat="36.3958788" lon="10.1384412"><ele>240.0</ele><time>2026-04-24T11:48:34.104Z</time></trkpt><trkpt lat="36.3958227" lon="10.1383674"><ele>240.0</ele><time>2026-04-24T11:48:35.086Z</time></trkpt><trkpt lat="36.3957623" lon="10.1383089"><ele>240.0</ele><time>2026-04-24T11:48:36.085Z</time></trkpt><trkpt lat="36.395698" lon="10.1382524"><ele>240.0</ele><time>2026-04-24T11:48:37.084Z</time></trkpt><trkpt lat="36.3956279" lon="10.1381905"><ele>240.0</ele><time>2026-04-24T11:48:38.089Z</time></trkpt><trkpt lat="36.3955557" lon="10.1381343"><ele>240.0</ele><time>2026-04-24T11:48:39.093Z</time></trkpt><trkpt lat="36.3954822" lon="10.1381007"><ele>240.0</ele><time>2026-04-24T11:48:40.103Z</time></trkpt><trkpt lat="36.3954097" lon="10.1380761"><ele>240.4</ele><time>2026-04-24T11:48:41.073Z</time></trkpt><trkpt lat="36.3953253" lon="10.1380576"><ele>240.8</ele><time>2026-04-24T11:48:42.093Z</time></trkpt><trkpt lat="36.3952354" lon="10.1380606"><ele>241.2</ele><time>2026-04-24T11:48:43.072Z</time></trkpt><trkpt lat="36.3951406" lon="10.1380691"><ele>241.6</ele><time>2026-04-24T11:48:44.1Z</time></trkpt><trkpt lat="36.3950489" lon="10.1380629"><ele>242.0</ele><time>2026-04-24T11:48:45.081Z</time></trkpt><trkpt lat="36.3949495" lon="10.1380465"><ele>242.0</ele><time>2026-04-24T11:48:46.085Z</time></trkpt><trkpt lat="36.3948545" lon="10.1380258"><ele>242.0</ele><time>2026-04-24T11:48:47.098Z</time></trkpt><trkpt lat="36.3947536" lon="10.1380003"><ele>242.0</ele><time>2026-04-24T11:48:48.1Z</time></trkpt><trkpt lat="36.3946547" lon="10.1379689"><ele>242.0</ele><time>2026-04-24T11:48:49.086Z</time></trkpt><trkpt lat="36.3945559" lon="10.1379394"><ele>242.0</ele><time>2026-04-24T11:48:50.096Z</time></trkpt><trkpt lat="36.3944573" lon="10.137912"><ele>242.83333333333334</ele><time>2026-04-24T11:48:51.106Z</time></trkpt><trkpt lat="36.394365" lon="10.1378846"><ele>243.66666666666669</ele><time>2026-04-24T11:48:52.088Z</time></trkpt><trkpt lat="36.3942783" lon="10.1378598"><ele>244.5</ele><time>2026-04-24T11:48:53.091Z</time></trkpt><trkpt lat="36.3941965" lon="10.1378444"><ele>245.33333333333331</ele><time>2026-04-24T11:48:54.079Z</time></trkpt><trkpt lat="36.3941106" lon="10.1378281"><ele>246.16666666666666</ele><time>2026-04-24T11:48:55.079Z</time></trkpt><trkpt lat="36.3940361" lon="10.137795"><ele>247.0</ele><time>2026-04-24T11:48:56.087Z</time></trkpt><trkpt lat="36.39396" lon="10.1377488"><ele>246.99999999999997</ele><time>2026-04-24T11:48:57.087Z</time></trkpt><trkpt lat="36.3938863" lon="10.1376948"><ele>247.0</ele><time>2026-04-24T11:48:58.085Z</time></trkpt><trkpt lat="36.3938177" lon="10.1376375"><ele>247.0</ele><time>2026-04-24T11:48:59.087Z</time></trkpt><trkpt lat="36.393744" lon="10.137578"><ele>247.0</ele><time>2026-04-24T11:49:00.092Z</time></trkpt><trkpt lat="36.3936776" lon="10.1375233"><ele>246.99999999999997</ele><time>2026-04-24T11:49:01.085Z</time></trkpt><trkpt lat="36.3936028" lon="10.1374692"><ele>247.0</ele><time>2026-04-24T11:49:02.08Z</time></trkpt><trkpt lat="36.3935233" lon="10.1374184"><ele>247.2</ele><time>2026-04-24T11:49:03.078Z</time></trkpt><trkpt lat="36.3934418" lon="10.1373811"><ele>247.39999999999998</ele><time>2026-04-24T11:49:04.081Z</time></trkpt><trkpt lat="36.3933586" lon="10.1373385"><ele>247.60000000000002</ele><time>2026-04-24T11:49:05.079Z</time></trkpt><trkpt lat="36.393269" lon="10.1373123"><ele>247.8</ele><time>2026-04-24T11:49:06.09Z</time></trkpt><trkpt lat="36.3931806" lon="10.1372993"><ele>248.0</ele><time>2026-04-24T11:49:07.088Z</time></trkpt><trkpt lat="36.3930882" lon="10.1372966"><ele>249.16666666666669</ele><time>2026-04-24T11:49:08.095Z</time></trkpt><trkpt lat="36.3929971" lon="10.1372806"><ele>250.33333333333334</ele><time>2026-04-24T11:49:09.094Z</time></trkpt><trkpt lat="36.3929094" lon="10.1372589"><ele>251.5</ele><time>2026-04-24T11:49:10.1Z</time></trkpt><trkpt lat="36.392828" lon="10.1372158"><ele>252.66666666666669</ele><time>2026-04-24T11:49:11.09Z</time></trkpt><trkpt lat="36.392752" lon="10.1371635"><ele>253.83333333333334</ele><time>2026-04-24T11:49:12.075Z</time></trkpt><trkpt lat="36.3926821" lon="10.1371095"><ele>255.0</ele><time>2026-04-24T11:49:13.091Z</time></trkpt><trkpt lat="36.3926194" lon="10.1370519"><ele>255.0</ele><time>2026-04-24T11:49:14.096Z</time></trkpt><trkpt lat="36.3925591" lon="10.1369876"><ele>255.0</ele><time>2026-04-24T11:49:15.09Z</time></trkpt><trkpt lat="36.392499" lon="10.1369232"><ele>255.0</ele><time>2026-04-24T11:49:16.096Z</time></trkpt><trkpt lat="36.3924422" lon="10.1368504"><ele>255.0</ele><time>2026-04-24T11:49:17.08Z</time></trkpt><trkpt lat="36.3923892" lon="10.136777"><ele>255.0</ele><time>2026-04-24T11:49:18.085Z</time></trkpt><trkpt lat="36.3923332" lon="10.1366992"><ele>255.0</ele><time>2026-04-24T11:49:19.078Z</time></trkpt><trkpt lat="36.3922751" lon="10.1366296"><ele>255.0</ele><time>2026-04-24T11:49:20.085Z</time></trkpt><trkpt lat="36.3922209" lon="10.1365602"><ele>255.0</ele><time>2026-04-24T11:49:21.098Z</time></trkpt><trkpt lat="36.3921668" lon="10.1365055"><ele>255.0</ele><time>2026-04-24T11:49:22.095Z</time></trkpt><trkpt lat="36.3921101" lon="10.1364653"><ele>255.0</ele><time>2026-04-24T11:49:23.102Z</time></trkpt><trkpt lat="36.3920067" lon="10.1363958"><ele>255.0</ele><time>2026-04-24T11:49:25.086Z</time></trkpt><trkpt lat="36.391981" lon="10.136288"><ele>255.0</ele><time>2026-04-24T11:49:27.086Z</time></trkpt><trkpt lat="36.3919727" lon="10.1361784"><ele>256.2</ele><time>2026-04-24T11:49:29.093Z</time></trkpt><trkpt lat="36.391945" lon="10.1360605"><ele>257.4</ele><time>2026-04-24T11:49:31.091Z</time></trkpt><trkpt lat="36.3919115" lon="10.135937"><ele>258.6</ele><time>2026-04-24T11:49:33.079Z</time></trkpt><trkpt lat="36.3918833" lon="10.1358147"><ele>259.8</ele><time>2026-04-24T11:49:35.095Z</time></trkpt><trkpt lat="36.391851" lon="10.1357047"><ele>261.0</ele><time>2026-04-24T11:49:37.087Z</time></trkpt><trkpt lat="36.3918295" lon="10.1356112"><ele>261.0</ele><time>2026-04-24T11:49:39.086Z</time></trkpt><trkpt lat="36.391817" lon="10.1355319"><ele>261.0</ele><time>2026-04-24T11:49:42.099Z</time></trkpt><trkpt lat="36.3917962" lon="10.1356162"><ele>261.0</ele><time>2026-04-24T11:49:46.081Z</time></trkpt><trkpt lat="36.391829" lon="10.1357376"><ele>261.0</ele><time>2026-04-24T11:49:48.079Z</time></trkpt><trkpt lat="36.3918678" lon="10.1358659"><ele>261.0</ele><time>2026-04-24T11:49:50.076Z</time></trkpt><trkpt lat="36.3919044" lon="10.1360029"><ele>261.8</ele><time>2026-04-24T11:49:52.109Z</time></trkpt><trkpt lat="36.391939" lon="10.1361358"><ele>262.6</ele><time>2026-04-24T11:49:54.092Z</time></trkpt><trkpt lat="36.391971" lon="10.136246"><ele>263.4</ele><time>2026-04-24T11:49:56.084Z</time></trkpt><trkpt lat="36.3919666" lon="10.1363392"><ele>264.2</ele><time>2026-04-24T11:49:58.084Z</time></trkpt><trkpt lat="36.3918884" lon="10.1364026"><ele>265.0</ele><time>2026-04-24T11:50:01.085Z</time></trkpt><trkpt lat="36.391794" lon="10.1363907"><ele>265.0</ele><time>2026-04-24T11:50:03.084Z</time></trkpt><trkpt lat="36.391702" lon="10.1363552"><ele>265.0</ele><time>2026-04-24T11:50:05.083Z</time></trkpt><trkpt lat="36.391595" lon="10.1363058"><ele>265.0</ele><time>2026-04-24T11:50:07.098Z</time></trkpt><trkpt lat="36.39151" lon="10.1362552"><ele>265.0</ele><time>2026-04-24T11:50:09.075Z</time></trkpt><trkpt lat="36.3914505" lon="10.1361671"><ele>265.0</ele><time>2026-04-24T11:50:11.085Z</time></trkpt><trkpt lat="36.3914036" lon="10.1360391"><ele>265.0</ele><time>2026-04-24T11:50:13.077Z</time></trkpt><trkpt lat="36.3913793" lon="10.1358856"><ele>265.0</ele><time>2026-04-24T11:50:15.085Z</time></trkpt><trkpt lat="36.3913519" lon="10.1358033"><ele>265.0</ele><time>2026-04-24T11:50:16.088Z</time></trkpt><trkpt lat="36.3913195" lon="10.1357162"><ele>265.0</ele><time>2026-04-24T11:50:17.084Z</time></trkpt><trkpt lat="36.3912674" lon="10.1356237"><ele>265.0</ele><time>2026-04-24T11:50:18.071Z</time></trkpt><trkpt lat="36.3912241" lon="10.1355333"><ele>266.4</ele><time>2026-04-24T11:50:19.085Z</time></trkpt><trkpt lat="36.3911788" lon="10.1354351"><ele>267.8</ele><time>2026-04-24T11:50:20.082Z</time></trkpt><trkpt lat="36.391134" lon="10.1353399"><ele>269.2</ele><time>2026-04-24T11:50:21.074Z</time></trkpt><trkpt lat="36.391086" lon="10.13524"><ele>270.6</ele><time>2026-04-24T11:50:22.083Z</time></trkpt><trkpt lat="36.3910382" lon="10.1351449"><ele>272.0</ele><time>2026-04-24T11:50:23.103Z</time></trkpt><trkpt lat="36.3909849" lon="10.1350563"><ele>272.0</ele><time>2026-04-24T11:50:24.067Z</time></trkpt><trkpt lat="36.3909333" lon="10.1349781"><ele>272.0</ele><time>2026-04-24T11:50:25.07Z</time></trkpt><trkpt lat="36.3908873" lon="10.1349119"><ele>272.0</ele><time>2026-04-24T11:50:26.087Z</time></trkpt><trkpt lat="36.3908379" lon="10.1348513"><ele>272.0</ele><time>2026-04-24T11:50:27.086Z</time></trkpt><trkpt lat="36.3907908" lon="10.1347911"><ele>272.0</ele><time>2026-04-24T11:50:28.091Z</time></trkpt><trkpt lat="36.3907061" lon="10.134686"><ele>272.0</ele><time>2026-04-24T11:50:30.076Z</time></trkpt><trkpt lat="36.3906194" lon="10.134587"><ele>272.4285714285714</ele><time>2026-04-24T11:50:32.086Z</time></trkpt><trkpt lat="36.390578" lon="10.1345177"><ele>272.85714285714283</ele><time>2026-04-24T11:50:33.079Z</time></trkpt><trkpt lat="36.3905327" lon="10.1344456"><ele>273.2857142857143</ele><time>2026-04-24T11:50:34.083Z</time></trkpt><trkpt lat="36.3904863" lon="10.13438"><ele>273.71428571428567</ele><time>2026-04-24T11:50:35.093Z</time></trkpt><trkpt lat="36.3904294" lon="10.1343171"><ele>274.1428571428571</ele><time>2026-04-24T11:50:36.096Z</time></trkpt><trkpt lat="36.3903637" lon="10.1342705"><ele>274.57142857142856</ele><time>2026-04-24T11:50:37.088Z</time></trkpt><trkpt lat="36.3903" lon="10.1342306"><ele>275.0</ele><time>2026-04-24T11:50:38.071Z</time></trkpt><trkpt lat="36.3902351" lon="10.1341967"><ele>275.0</ele><time>2026-04-24T11:50:39.081Z</time></trkpt><trkpt lat="36.3901719" lon="10.1341769"><ele>275.0</ele><time>2026-04-24T11:50:40.075Z</time></trkpt><trkpt lat="36.3900621" lon="10.1341187"><ele>275.0</ele><time>2026-04-24T11:50:42.068Z</time></trkpt><trkpt lat="36.3899848" lon="10.1340357"><ele>275.0</ele><time>2026-04-24T11:50:44.084Z</time></trkpt><trkpt lat="36.389913" lon="10.1339259"><ele>275.0</ele><time>2026-04-24T11:50:46.088Z</time></trkpt><trkpt lat="36.3898848" lon="10.1338495"><ele>276.33333333333337</ele><time>2026-04-24T11:50:47.082Z</time></trkpt><trkpt lat="36.3898562" lon="10.1337577"><ele>277.6666666666667</ele><time>2026-04-24T11:50:48.075Z</time></trkpt><trkpt lat="36.3898272" lon="10.1336651"><ele>279.0</ele><time>2026-04-24T11:50:49.087Z</time></trkpt><trkpt lat="36.3897977" lon="10.1335701"><ele>280.3333333333333</ele><time>2026-04-24T11:50:50.082Z</time></trkpt><trkpt lat="36.3897655" lon="10.1334821"><ele>281.66666666666663</ele><time>2026-04-24T11:50:51.085Z</time></trkpt><trkpt lat="36.3897182" lon="10.1334142"><ele>283.0</ele><time>2026-04-24T11:50:52.091Z</time></trkpt><trkpt lat="36.3896631" lon="10.1333507"><ele>283.0</ele><time>2026-04-24T11:50:53.087Z</time></trkpt><trkpt lat="36.3896042" lon="10.1332929"><ele>283.0</ele><time>2026-04-24T11:50:54.087Z</time></trkpt><trkpt lat="36.3895398" lon="10.1332374"><ele>283.0</ele><time>2026-04-24T11:50:55.07Z</time></trkpt><trkpt lat="36.3894794" lon="10.1331797"><ele>283.0</ele><time>2026-04-24T11:50:56.103Z</time></trkpt><trkpt lat="36.389416" lon="10.1331296"><ele>283.0</ele><time>2026-04-24T11:50:57.116Z</time></trkpt><trkpt lat="36.3893601" lon="10.1330768"><ele>283.0</ele><time>2026-04-24T11:50:58.078Z</time></trkpt><trkpt lat="36.3893089" lon="10.1330256"><ele>283.0</ele><time>2026-04-24T11:50:59.086Z</time></trkpt><trkpt lat="36.3892338" lon="10.1329116"><ele>281.66666666666663</ele><time>2026-04-24T11:51:01.08Z</time></trkpt><trkpt lat="36.3891941" lon="10.1327672"><ele>280.3333333333333</ele><time>2026-04-24T11:51:03.077Z</time></trkpt><trkpt lat="36.3891741" lon="10.1326879"><ele>279.0</ele><time>2026-04-24T11:51:04.096Z</time></trkpt><trkpt lat="36.3891493" lon="10.1326013"><ele>277.6666666666667</ele><time>2026-04-24T11:51:05.066Z</time></trkpt><trkpt lat="36.3891262" lon="10.1325187"><ele>276.33333333333337</ele><time>2026-04-24T11:51:06.082Z</time></trkpt><trkpt lat="36.389109" lon="10.1324296"><ele>275.0</ele><time>2026-04-24T11:51:07.079Z</time></trkpt><trkpt lat="36.3890815" lon="10.1323395"><ele>274.5</ele><time>2026-04-24T11:51:08.1Z</time></trkpt><trkpt lat="36.3890412" lon="10.132253"><ele>274.0</ele><time>2026-04-24T11:51:09.088Z</time></trkpt><trkpt lat="36.3889946" lon="10.1321672"><ele>273.5</ele><time>2026-04-24T11:51:10.077Z</time></trkpt><trkpt lat="36.3889422" lon="10.1320845"><ele>273.0</ele><time>2026-04-24T11:51:11.084Z</time></trkpt><trkpt lat="36.3888852" lon="10.1320021"><ele>272.5</ele><time>2026-04-24T11:51:12.085Z</time></trkpt><trkpt lat="36.3888277" lon="10.1319233"><ele>272.0</ele><time>2026-04-24T11:51:13.084Z</time></trkpt><trkpt lat="36.3887706" lon="10.1318535"><ele>273.33333333333337</ele><time>2026-04-24T11:51:14.083Z</time></trkpt><trkpt lat="36.3887076" lon="10.1317797"><ele>274.6666666666667</ele><time>2026-04-24T11:51:15.075Z</time></trkpt><trkpt lat="36.3886471" lon="10.1317117"><ele>276.0</ele><time>2026-04-24T11:51:16.09Z</time></trkpt><trkpt lat="36.3885965" lon="10.1316523"><ele>277.3333333333333</ele><time>2026-04-24T11:51:17.077Z</time></trkpt><trkpt lat="36.3885516" lon="10.1315915"><ele>278.66666666666663</ele><time>2026-04-24T11:51:18.096Z</time></trkpt><trkpt lat="36.3884719" lon="10.1314944"><ele>280.0</ele><time>2026-04-24T11:51:20.085Z</time></trkpt><trkpt lat="36.3883999" lon="10.1314033"><ele>280.0</ele><time>2026-04-24T11:51:22.084Z</time></trkpt><trkpt lat="36.3883621" lon="10.1313234"><ele>280.0</ele><time>2026-04-24T11:51:25.071Z</time></trkpt><trkpt lat="36.3883748" lon="10.1312405"><ele>280.0</ele><time>2026-04-24T11:51:28.089Z</time></trkpt><trkpt lat="36.3884588" lon="10.1312013"><ele>280.0</ele><time>2026-04-24T11:51:31.07Z</time></trkpt><trkpt lat="36.3885358" lon="10.1311832"><ele>280.0</ele><time>2026-04-24T11:51:33.079Z</time></trkpt><trkpt lat="36.3886268" lon="10.1311769"><ele>280.0</ele><time>2026-04-24T11:51:35.068Z</time></trkpt><trkpt lat="36.3887168" lon="10.1311961"><ele>280.0</ele><time>2026-04-24T11:51:37.086Z</time></trkpt><trkpt lat="36.3888014" lon="10.131201"><ele>280.0</ele><time>2026-04-24T11:51:39.072Z</time></trkpt><trkpt lat="36.3888707" lon="10.131122"><ele>280.0</ele><time>2026-04-24T11:51:42.087Z</time></trkpt><trkpt lat="36.3888919" lon="10.1310312"><ele>280.0</ele><time>2026-04-24T11:51:44.071Z</time></trkpt><trkpt lat="36.3889008" lon="10.1309343"><ele>280.0</ele><time>2026-04-24T11:51:46.079Z</time></trkpt><trkpt lat="36.3888728" lon="10.1308576"><ele>280.0</ele><time>2026-04-24T11:51:51.071Z</time></trkpt><trkpt lat="36.3888281" lon="10.1307955"><ele>279.0</ele><time>2026-04-24T11:51:55.081Z</time></trkpt><trkpt lat="36.3888108" lon="10.1306941"><ele>278.0</ele><time>2026-04-24T11:51:59.083Z</time></trkpt><trkpt lat="36.388779" lon="10.1305893"><ele>277.0</ele><time>2026-04-24T11:52:02.108Z</time></trkpt><trkpt lat="36.3887398" lon="10.1305013"><ele>276.0</ele><time>2026-04-24T11:52:04.087Z</time></trkpt><trkpt lat="36.388716" lon="10.1304003"><ele>275.0</ele><time>2026-04-24T11:52:06.081Z</time></trkpt><trkpt lat="36.38868" lon="10.1303025"><ele>274.0</ele><time>2026-04-24T11:52:08.069Z</time></trkpt><trkpt lat="36.3886324" lon="10.1302043"><ele>274.0</ele><time>2026-04-24T11:52:10.105Z</time></trkpt><trkpt lat="36.3885777" lon="10.130086"><ele>274.0</ele><time>2026-04-24T11:52:12.086Z</time></trkpt><trkpt lat="36.3885324" lon="10.1299725"><ele>274.0</ele><time>2026-04-24T11:52:14.077Z</time></trkpt><trkpt lat="36.3884897" lon="10.1298707"><ele>274.0</ele><time>2026-04-24T11:52:16.094Z</time></trkpt><trkpt lat="36.3884445" lon="10.1297715"><ele>274.0</ele><time>2026-04-24T11:52:18.088Z</time></trkpt><trkpt lat="36.3884122" lon="10.1296731"><ele>274.0</ele><time>2026-04-24T11:52:20.071Z</time></trkpt><trkpt lat="36.3883787" lon="10.1295825"><ele>274.0</ele><time>2026-04-24T11:52:22.078Z</time></trkpt><trkpt lat="36.3883492" lon="10.1294954"><ele>274.0</ele><time>2026-04-24T11:52:24.084Z</time></trkpt><trkpt lat="36.3883445" lon="10.1295864"><ele>274.0</ele><time>2026-04-24T11:52:55.079Z</time></trkpt><trkpt lat="36.3883916" lon="10.1296898"><ele>274.0</ele><time>2026-04-24T11:52:57.095Z</time></trkpt><trkpt lat="36.3884404" lon="10.1297896"><ele>274.0</ele><time>2026-04-24T11:52:59.088Z</time></trkpt><trkpt lat="36.3884886" lon="10.1298992"><ele>274.0</ele><time>2026-04-24T11:53:01.1Z</time></trkpt><trkpt lat="36.38853" lon="10.1300186"><ele>274.0</ele><time>2026-04-24T11:53:03.084Z</time></trkpt><trkpt lat="36.3885781" lon="10.1301449"><ele>274.0</ele><time>2026-04-24T11:53:05.092Z</time></trkpt><trkpt lat="36.3886305" lon="10.130274"><ele>274.0</ele><time>2026-04-24T11:53:07.09Z</time></trkpt><trkpt lat="36.3886755" lon="10.1304029"><ele>274.0</ele><time>2026-04-24T11:53:09.101Z</time></trkpt><trkpt lat="36.388711" lon="10.1305097"><ele>274.00000000000006</ele><time>2026-04-24T11:53:11.099Z</time></trkpt><trkpt lat="36.3887354" lon="10.1305944"><ele>274.0</ele><time>2026-04-24T11:53:13.09Z</time></trkpt><trkpt lat="36.3887161" lon="10.1306848"><ele>274.0</ele><time>2026-04-24T11:53:23.086Z</time></trkpt><trkpt lat="36.388648" lon="10.130674"><ele>274.0</ele><time>2026-04-24T12:01:22.1Z</time></trkpt><trkpt lat="36.3885901" lon="10.1306143"><ele>274.0</ele><time>2026-04-24T12:01:31.114Z</time></trkpt><trkpt lat="36.3885254" lon="10.1306417"><ele>274.00000000000006</ele><time>2026-04-24T12:01:39.072Z</time></trkpt><trkpt lat="36.3884564" lon="10.1306509"><ele>274.0</ele><time>2026-04-24T12:01:50.104Z</time></trkpt><trkpt lat="36.3883844" lon="10.1306739"><ele>274.00000000000006</ele><time>2026-04-24T12:01:57.109Z</time></trkpt><trkpt lat="36.3883146" lon="10.1306765"><ele>274.0</ele><time>2026-04-24T12:02:03.108Z</time></trkpt><trkpt lat="36.3882546" lon="10.1307024"><ele>274.0</ele><time>2026-04-24T12:02:09.121Z</time></trkpt><trkpt lat="36.3881899" lon="10.1306996"><ele>274.0</ele><time>2026-04-24T12:02:18.12Z</time></trkpt><trkpt lat="36.3881248" lon="10.1307165"><ele>274.0</ele><time>2026-04-24T12:02:25.098Z</time></trkpt><trkpt lat="36.3880656" lon="10.1307579"><ele>274.00000000000006</ele><time>2026-04-24T12:02:32.109Z</time></trkpt><trkpt lat="36.3880304" lon="10.1308348"><ele>274.0</ele><time>2026-04-24T12:02:38.062Z</time></trkpt><trkpt lat="36.3879842" lon="10.1308895"><ele>276.28571428571433</ele><time>2026-04-24T12:02:45.117Z</time></trkpt><trkpt lat="36.3879207" lon="10.1309073"><ele>278.57142857142856</ele><time>2026-04-24T12:02:54.046Z</time></trkpt><trkpt lat="36.3878453" lon="10.1309002"><ele>280.8571428571429</ele><time>2026-04-24T12:03:02.06Z</time></trkpt><trkpt lat="36.3877841" lon="10.1308761"><ele>283.14285714285717</ele><time>2026-04-24T12:03:08.088Z</time></trkpt><trkpt lat="36.3877178" lon="10.1308557"><ele>285.42857142857144</ele><time>2026-04-24T12:03:16.105Z</time></trkpt><trkpt lat="36.3876588" lon="10.1308232"><ele>287.7142857142857</ele><time>2026-04-24T12:03:38.093Z</time></trkpt><trkpt lat="36.3876092" lon="10.1307698"><ele>290.0</ele><time>2026-04-24T12:03:48.054Z</time></trkpt><trkpt lat="36.3875667" lon="10.1308304"><ele>290.0</ele><time>2026-04-24T12:04:40.091Z</time></trkpt><trkpt lat="36.3874947" lon="10.1308495"><ele>290.0</ele><time>2026-04-24T12:04:45.114Z</time></trkpt><trkpt lat="36.3874271" lon="10.1308447"><ele>290.0</ele><time>2026-04-24T12:04:52.088Z</time></trkpt><trkpt lat="36.3873658" lon="10.1308629"><ele>290.0</ele><time>2026-04-24T12:04:59.083Z</time></trkpt><trkpt lat="36.3873184" lon="10.1309149"><ele>290.0</ele><time>2026-04-24T12:05:10.084Z</time></trkpt><trkpt lat="36.3872566" lon="10.1309555"><ele>290.0</ele><time>2026-04-24T12:05:20.101Z</time></trkpt><trkpt lat="36.3871885" lon="10.1309757"><ele>290.0</ele><time>2026-04-24T12:05:37.097Z</time></trkpt><trkpt lat="36.3871369" lon="10.1310333"><ele>290.0</ele><time>2026-04-24T12:05:49.047Z</time></trkpt><trkpt lat="36.3870768" lon="10.1310767"><ele>290.0</ele><time>2026-04-24T12:05:55.097Z</time></trkpt><trkpt lat="36.3870267" lon="10.1311256"><ele>290.0</ele><time>2026-04-24T12:06:03.105Z</time></trkpt><trkpt lat="36.3869809" lon="10.1311855"><ele>290.0</ele><time>2026-04-24T12:06:20.111Z</time></trkpt><trkpt lat="36.3870407" lon="10.1312193"><ele>290.0</ele><time>2026-04-24T12:06:42.103Z</time></trkpt><trkpt lat="36.3871077" lon="10.1312154"><ele>290.0</ele><time>2026-04-24T12:06:49.098Z</time></trkpt><trkpt lat="36.3871654" lon="10.1311794"><ele>290.0</ele><time>2026-04-24T12:06:56.082Z</time></trkpt><trkpt lat="36.3871964" lon="10.1311025"><ele>290.0</ele><time>2026-04-24T12:07:06.059Z</time></trkpt><trkpt lat="36.3872358" lon="10.1311686"><ele>290.0</ele><time>2026-04-24T12:08:03.06Z</time></trkpt><trkpt lat="36.3872358" lon="10.1311686"><ele>290.0</ele><time>2026-04-24T12:08:03.06Z</time></trkpt><trkpt lat="36.3872358" lon="10.1311686"><ele>290.0</ele><time>2026-04-24T12:08:03.06Z</time></trkpt><trkpt lat="36.3872358" lon="10.1311686"><ele>290.0</ele><time>2026-04-24T12:08:03.06Z</time></trkpt></trkseg><trkseg><trkpt lat="36.3886636" lon="10.1306926"><ele>274.00000000000006</ele><time>2026-04-24T12:19:48.111Z</time></trkpt><trkpt lat="36.3887341" lon="10.1306805"><ele>274.0</ele><time>2026-04-24T12:19:53.086Z</time></trkpt><trkpt lat="36.3887825" lon="10.1307511"><ele>274.0</ele><time>2026-04-24T12:19:56.115Z</time></trkpt><trkpt lat="36.3888201" lon="10.1308346"><ele>274.0</ele><time>2026-04-24T12:19:59.076Z</time></trkpt><trkpt lat="36.3888475" lon="10.1309276"><ele>274.0</ele><time>2026-04-24T12:20:02.112Z</time></trkpt><trkpt lat="36.3888481" lon="10.1310228"><ele>274.00000000000006</ele><time>2026-04-24T12:20:05.087Z</time></trkpt><trkpt lat="36.3888466" lon="10.131109"><ele>274.0</ele><time>2026-04-24T12:20:08.109Z</time></trkpt><trkpt lat="36.3888679" lon="10.1311876"><ele>273.66666666666663</ele><time>2026-04-24T12:20:12.095Z</time></trkpt><trkpt lat="36.3889399" lon="10.1312218"><ele>273.3333333333333</ele><time>2026-04-24T12:20:15.114Z</time></trkpt><trkpt lat="36.3890173" lon="10.1312041"><ele>273.0</ele><time>2026-04-24T12:20:17.13Z</time></trkpt><trkpt lat="36.3891211" lon="10.1311579"><ele>272.6666666666667</ele><time>2026-04-24T12:20:19.05Z</time></trkpt><trkpt lat="36.3891806" lon="10.1311272"><ele>272.33333333333337</ele><time>2026-04-24T12:20:20.118Z</time></trkpt><trkpt lat="36.3892854" lon="10.1310664"><ele>272.0</ele><time>2026-04-24T12:20:22.125Z</time></trkpt><trkpt lat="36.3893779" lon="10.1310535"><ele>272.0</ele><time>2026-04-24T12:20:24.138Z</time></trkpt><trkpt lat="36.3894564" lon="10.1311336"><ele>272.0</ele><time>2026-04-24T12:20:26.105Z</time></trkpt><trkpt lat="36.3895276" lon="10.131237"><ele>272.0</ele><time>2026-04-24T12:20:28.098Z</time></trkpt><trkpt lat="36.3896123" lon="10.131352"><ele>272.0</ele><time>2026-04-24T12:20:30.111Z</time></trkpt><trkpt lat="36.3896848" lon="10.131468"><ele>270.6</ele><time>2026-04-24T12:20:32.103Z</time></trkpt><trkpt lat="36.3897488" lon="10.1315816"><ele>269.2</ele><time>2026-04-24T12:20:34.122Z</time></trkpt><trkpt lat="36.3898129" lon="10.1317024"><ele>267.8</ele><time>2026-04-24T12:20:36.102Z</time></trkpt><trkpt lat="36.3898817" lon="10.1318064"><ele>266.4</ele><time>2026-04-24T12:20:38.159Z</time></trkpt><trkpt lat="36.389946" lon="10.1319146"><ele>265.0</ele><time>2026-04-24T12:20:40.116Z</time></trkpt><trkpt lat="36.3900186" lon="10.1320363"><ele>265.0</ele><time>2026-04-24T12:20:42.116Z</time></trkpt><trkpt lat="36.3900847" lon="10.1321638"><ele>265.0</ele><time>2026-04-24T12:20:44.066Z</time></trkpt><trkpt lat="36.39012" lon="10.1322312"><ele>265.0</ele><time>2026-04-24T12:20:45.092Z</time></trkpt><trkpt lat="36.3901873" lon="10.1323623"><ele>265.0</ele><time>2026-04-24T12:20:47.098Z</time></trkpt><trkpt lat="36.3902205" lon="10.1324301"><ele>265.0</ele><time>2026-04-24T12:20:48.111Z</time></trkpt><trkpt lat="36.3902565" lon="10.1324991"><ele>265.0</ele><time>2026-04-24T12:20:49.122Z</time></trkpt><trkpt lat="36.3902962" lon="10.1325694"><ele>264.99999999999994</ele><time>2026-04-24T12:20:50.116Z</time></trkpt><trkpt lat="36.3903365" lon="10.1326398"><ele>265.0</ele><time>2026-04-24T12:20:51.101Z</time></trkpt><trkpt lat="36.3903768" lon="10.1327154"><ele>265.0</ele><time>2026-04-24T12:20:52.116Z</time></trkpt><trkpt lat="36.3904175" lon="10.132786"><ele>265.0</ele><time>2026-04-24T12:20:53.12Z</time></trkpt><trkpt lat="36.3904668" lon="10.1328563"><ele>265.0</ele><time>2026-04-24T12:20:54.114Z</time></trkpt><trkpt lat="36.3905128" lon="10.1329309"><ele>264.99999999999994</ele><time>2026-04-24T12:20:55.125Z</time></trkpt><trkpt lat="36.3905605" lon="10.1330004"><ele>265.0</ele><time>2026-04-24T12:20:56.125Z</time></trkpt><trkpt lat="36.3906014" lon="10.133076"><ele>263.8333333333333</ele><time>2026-04-24T12:20:57.124Z</time></trkpt><trkpt lat="36.3906709" lon="10.1332035"><ele>262.66666666666663</ele><time>2026-04-24T12:20:59.102Z</time></trkpt><trkpt lat="36.3907305" lon="10.1333334"><ele>261.5</ele><time>2026-04-24T12:21:01.192Z</time></trkpt><trkpt lat="36.3907632" lon="10.1334059"><ele>260.3333333333333</ele><time>2026-04-24T12:21:02.132Z</time></trkpt><trkpt lat="36.3908003" lon="10.1334723"><ele>259.1666666666667</ele><time>2026-04-24T12:21:03.075Z</time></trkpt><trkpt lat="36.3908413" lon="10.1335391"><ele>258.0</ele><time>2026-04-24T12:21:04.113Z</time></trkpt><trkpt lat="36.3908811" lon="10.1336104"><ele>257.99999999999994</ele><time>2026-04-24T12:21:05.11Z</time></trkpt><trkpt lat="36.3909214" lon="10.1336856"><ele>258.0</ele><time>2026-04-24T12:21:06.11Z</time></trkpt><trkpt lat="36.3909653" lon="10.1337577"><ele>258.0</ele><time>2026-04-24T12:21:07.118Z</time></trkpt><trkpt lat="36.391007" lon="10.1338265"><ele>258.0</ele><time>2026-04-24T12:21:08.109Z</time></trkpt><trkpt lat="36.3910555" lon="10.1338983"><ele>258.0</ele><time>2026-04-24T12:21:09.092Z</time></trkpt><trkpt lat="36.3910978" lon="10.1339804"><ele>257.99999999999994</ele><time>2026-04-24T12:21:10.118Z</time></trkpt><trkpt lat="36.3911437" lon="10.1340603"><ele>258.0</ele><time>2026-04-24T12:21:11.105Z</time></trkpt><trkpt lat="36.3911869" lon="10.1341425"><ele>257.6666666666667</ele><time>2026-04-24T12:21:12.114Z</time></trkpt><trkpt lat="36.3912372" lon="10.1342285"><ele>257.3333333333333</ele><time>2026-04-24T12:21:13.112Z</time></trkpt><trkpt lat="36.3912934" lon="10.1343072"><ele>257.0</ele><time>2026-04-24T12:21:14.121Z</time></trkpt><trkpt lat="36.3913473" lon="10.1343825"><ele>256.66666666666663</ele><time>2026-04-24T12:21:15.114Z</time></trkpt><trkpt lat="36.3913959" lon="10.1344639"><ele>256.3333333333333</ele><time>2026-04-24T12:21:16.098Z</time></trkpt><trkpt lat="36.3914412" lon="10.1345412"><ele>256.0</ele><time>2026-04-24T12:21:17.111Z</time></trkpt><trkpt lat="36.3914829" lon="10.1346286"><ele>255.99999999999997</ele><time>2026-04-24T12:21:18.115Z</time></trkpt><trkpt lat="36.3915246" lon="10.1347123"><ele>256.0</ele><time>2026-04-24T12:21:19.095Z</time></trkpt><trkpt lat="36.3915602" lon="10.1348"><ele>256.0</ele><time>2026-04-24T12:21:20.132Z</time></trkpt><trkpt lat="36.3915916" lon="10.1348929"><ele>256.0</ele><time>2026-04-24T12:21:21.136Z</time></trkpt><trkpt lat="36.3916249" lon="10.134994"><ele>255.99999999999997</ele><time>2026-04-24T12:21:22.129Z</time></trkpt><trkpt lat="36.3916567" lon="10.1350933"><ele>256.0</ele><time>2026-04-24T12:21:23.129Z</time></trkpt><trkpt lat="36.3916912" lon="10.1351907"><ele>256.8333333333333</ele><time>2026-04-24T12:21:24.149Z</time></trkpt><trkpt lat="36.3917138" lon="10.1352841"><ele>257.66666666666663</ele><time>2026-04-24T12:21:25.112Z</time></trkpt><trkpt lat="36.3917354" lon="10.1353693"><ele>258.5</ele><time>2026-04-24T12:21:26.138Z</time></trkpt><trkpt lat="36.3917572" lon="10.1354501"><ele>259.3333333333333</ele><time>2026-04-24T12:21:27.139Z</time></trkpt><trkpt lat="36.3917839" lon="10.1356019"><ele>260.1666666666667</ele><time>2026-04-24T12:21:29.126Z</time></trkpt><trkpt lat="36.3918159" lon="10.1357124"><ele>261.0</ele><time>2026-04-24T12:21:31.116Z</time></trkpt><trkpt lat="36.3918516" lon="10.1357803"><ele>261.6666666666667</ele><time>2026-04-24T12:21:34.128Z</time></trkpt><trkpt lat="36.391914" lon="10.1358095"><ele>262.3333333333333</ele><time>2026-04-24T12:21:36.125Z</time></trkpt><trkpt lat="36.391989" lon="10.1357961"><ele>263.0</ele><time>2026-04-24T12:21:38.136Z</time></trkpt><trkpt lat="36.3920826" lon="10.1357883"><ele>263.66666666666663</ele><time>2026-04-24T12:21:40.078Z</time></trkpt><trkpt lat="36.3922055" lon="10.1357652"><ele>264.3333333333333</ele><time>2026-04-24T12:21:42.168Z</time></trkpt><trkpt lat="36.392268" lon="10.1357534"><ele>265.0</ele><time>2026-04-24T12:21:43.117Z</time></trkpt><trkpt lat="36.3923327" lon="10.135734"><ele>263.2857142857143</ele><time>2026-04-24T12:21:44.131Z</time></trkpt><trkpt lat="36.3923991" lon="10.1357147"><ele>261.57142857142856</ele><time>2026-04-24T12:21:45.105Z</time></trkpt><trkpt lat="36.392466" lon="10.1356971"><ele>259.8571428571429</ele><time>2026-04-24T12:21:46.116Z</time></trkpt><trkpt lat="36.3925316" lon="10.13568"><ele>258.1428571428571</ele><time>2026-04-24T12:21:47.099Z</time></trkpt><trkpt lat="36.3925983" lon="10.1356562"><ele>256.42857142857144</ele><time>2026-04-24T12:21:48.083Z</time></trkpt><trkpt lat="36.3926718" lon="10.1356292"><ele>254.71428571428575</ele><time>2026-04-24T12:21:49.12Z</time></trkpt><trkpt lat="36.3927532" lon="10.1356173"><ele>253.00000000000003</ele><time>2026-04-24T12:21:50.123Z</time></trkpt><trkpt lat="36.3928344" lon="10.1355925"><ele>253.0</ele><time>2026-04-24T12:21:51.102Z</time></trkpt><trkpt lat="36.39292" lon="10.1355671"><ele>253.0</ele><time>2026-04-24T12:21:52.102Z</time></trkpt><trkpt lat="36.3930096" lon="10.1355419"><ele>253.0</ele><time>2026-04-24T12:21:53.114Z</time></trkpt><trkpt lat="36.3931031" lon="10.1355178"><ele>253.0</ele><time>2026-04-24T12:21:54.118Z</time></trkpt><trkpt lat="36.3931947" lon="10.1354962"><ele>253.0</ele><time>2026-04-24T12:21:55.132Z</time></trkpt><trkpt lat="36.3932864" lon="10.1354701"><ele>252.16666666666666</ele><time>2026-04-24T12:21:56.117Z</time></trkpt><trkpt lat="36.3933749" lon="10.1354398"><ele>251.33333333333331</ele><time>2026-04-24T12:21:57.128Z</time></trkpt><trkpt lat="36.3934612" lon="10.1354059"><ele>250.5</ele><time>2026-04-24T12:21:58.136Z</time></trkpt><trkpt lat="36.3935485" lon="10.1353744"><ele>249.66666666666669</ele><time>2026-04-24T12:21:59.128Z</time></trkpt><trkpt lat="36.3936322" lon="10.1353459"><ele>248.83333333333334</ele><time>2026-04-24T12:22:00.109Z</time></trkpt><trkpt lat="36.39371" lon="10.13532"><ele>248.0</ele><time>2026-04-24T12:22:01.114Z</time></trkpt><trkpt lat="36.3937828" lon="10.1352993"><ele>247.00000000000003</ele><time>2026-04-24T12:22:02.131Z</time></trkpt><trkpt lat="36.3938577" lon="10.1352862"><ele>246.0</ele><time>2026-04-24T12:22:03.133Z</time></trkpt><trkpt lat="36.3939329" lon="10.1352695"><ele>245.0</ele><time>2026-04-24T12:22:04.111Z</time></trkpt><trkpt lat="36.3940081" lon="10.1352497"><ele>244.0</ele><time>2026-04-24T12:22:05.131Z</time></trkpt><trkpt lat="36.3940838" lon="10.1352371"><ele>243.00000000000003</ele><time>2026-04-24T12:22:06.139Z</time></trkpt><trkpt lat="36.3941661" lon="10.1352236"><ele>242.0</ele><time>2026-04-24T12:22:07.135Z</time></trkpt><trkpt lat="36.3942504" lon="10.1352154"><ele>242.0</ele><time>2026-04-24T12:22:08.128Z</time></trkpt><trkpt lat="36.3943376" lon="10.1352028"><ele>242.0</ele><time>2026-04-24T12:22:09.135Z</time></trkpt><trkpt lat="36.394429" lon="10.1351915"><ele>242.0</ele><time>2026-04-24T12:22:10.115Z</time></trkpt><trkpt lat="36.3945206" lon="10.1351744"><ele>242.0</ele><time>2026-04-24T12:22:11.156Z</time></trkpt><trkpt lat="36.394607" lon="10.1351597"><ele>242.0</ele><time>2026-04-24T12:22:12.147Z</time></trkpt><trkpt lat="36.3946976" lon="10.1351467"><ele>241.16666666666669</ele><time>2026-04-24T12:22:13.111Z</time></trkpt><trkpt lat="36.3947856" lon="10.1351351"><ele>240.33333333333334</ele><time>2026-04-24T12:22:14.099Z</time></trkpt><trkpt lat="36.3948691" lon="10.1351191"><ele>239.5</ele><time>2026-04-24T12:22:15.081Z</time></trkpt><trkpt lat="36.3949543" lon="10.135106"><ele>238.66666666666669</ele><time>2026-04-24T12:22:16.106Z</time></trkpt><trkpt lat="36.3950365" lon="10.1350951"><ele>237.83333333333334</ele><time>2026-04-24T12:22:17.101Z</time></trkpt><trkpt lat="36.3951229" lon="10.1350884"><ele>237.0</ele><time>2026-04-24T12:22:18.121Z</time></trkpt><trkpt lat="36.395208" lon="10.1350811"><ele>237.0</ele><time>2026-04-24T12:22:19.134Z</time></trkpt><trkpt lat="36.3952912" lon="10.1350726"><ele>237.0</ele><time>2026-04-24T12:22:20.102Z</time></trkpt><trkpt lat="36.3953736" lon="10.1350588"><ele>237.0</ele><time>2026-04-24T12:22:21.118Z</time></trkpt><trkpt lat="36.3954617" lon="10.1350538"><ele>237.0</ele><time>2026-04-24T12:22:22.132Z</time></trkpt><trkpt lat="36.395545" lon="10.1350444"><ele>237.0</ele><time>2026-04-24T12:22:23.107Z</time></trkpt><trkpt lat="36.3956262" lon="10.1350351"><ele>237.0</ele><time>2026-04-24T12:22:24.119Z</time></trkpt><trkpt lat="36.395698" lon="10.1350262"><ele>236.16666666666666</ele><time>2026-04-24T12:22:25.109Z</time></trkpt><trkpt lat="36.3957655" lon="10.1350177"><ele>235.33333333333331</ele><time>2026-04-24T12:22:26.125Z</time></trkpt><trkpt lat="36.3958632" lon="10.1350087"><ele>234.5</ele><time>2026-04-24T12:22:28.074Z</time></trkpt><trkpt lat="36.3959654" lon="10.1349905"><ele>233.66666666666666</ele><time>2026-04-24T12:22:31.127Z</time></trkpt><trkpt lat="36.3960312" lon="10.1349685"><ele>232.83333333333331</ele><time>2026-04-24T12:22:32.129Z</time></trkpt><trkpt lat="36.3961196" lon="10.1349474"><ele>232.0</ele><time>2026-04-24T12:22:33.097Z</time></trkpt><trkpt lat="36.3962155" lon="10.1349482"><ele>231.99999999999997</ele><time>2026-04-24T12:22:34.099Z</time></trkpt><trkpt lat="36.3963054" lon="10.1349501"><ele>232.0</ele><time>2026-04-24T12:22:35.11Z</time></trkpt><trkpt lat="36.3963942" lon="10.134971"><ele>232.0</ele><time>2026-04-24T12:22:36.253Z</time></trkpt><trkpt lat="36.3964727" lon="10.1350142"><ele>232.0</ele><time>2026-04-24T12:22:37.185Z</time></trkpt><trkpt lat="36.396535" lon="10.1350795"><ele>231.99999999999997</ele><time>2026-04-24T12:22:38.169Z</time></trkpt><trkpt lat="36.3965881" lon="10.1351471"><ele>232.0</ele><time>2026-04-24T12:22:39.198Z</time></trkpt><trkpt lat="36.3966295" lon="10.1352127"><ele>231.71428571428575</ele><time>2026-04-24T12:22:40.183Z</time></trkpt><trkpt lat="36.3966679" lon="10.1352851"><ele>231.42857142857144</ele><time>2026-04-24T12:22:41.196Z</time></trkpt><trkpt lat="36.3966983" lon="10.1353652"><ele>231.14285714285714</ele><time>2026-04-24T12:22:42.19Z</time></trkpt><trkpt lat="36.3967254" lon="10.1354408"><ele>230.85714285714286</ele><time>2026-04-24T12:22:43.196Z</time></trkpt><trkpt lat="36.3967458" lon="10.1355349"><ele>230.57142857142856</ele><time>2026-04-24T12:22:44.183Z</time></trkpt><trkpt lat="36.3967595" lon="10.1356271"><ele>230.28571428571425</ele><time>2026-04-24T12:22:45.185Z</time></trkpt><trkpt lat="36.3967663" lon="10.1357219"><ele>229.99999999999997</ele><time>2026-04-24T12:22:46.195Z</time></trkpt><trkpt lat="36.3967762" lon="10.1358201"><ele>230.00000000000003</ele><time>2026-04-24T12:22:47.179Z</time></trkpt><trkpt lat="36.3967926" lon="10.1359274"><ele>230.0</ele><time>2026-04-24T12:22:48.141Z</time></trkpt><trkpt lat="36.3968077" lon="10.1360338"><ele>230.0</ele><time>2026-04-24T12:22:49.174Z</time></trkpt><trkpt lat="36.3968238" lon="10.1361369"><ele>230.0</ele><time>2026-04-24T12:22:50.206Z</time></trkpt><trkpt lat="36.3968432" lon="10.1362393"><ele>230.00000000000003</ele><time>2026-04-24T12:22:51.175Z</time></trkpt><trkpt lat="36.3968592" lon="10.1363501"><ele>230.0</ele><time>2026-04-24T12:22:52.201Z</time></trkpt><trkpt lat="36.3968709" lon="10.1364615"><ele>230.66666666666669</ele><time>2026-04-24T12:22:53.177Z</time></trkpt><trkpt lat="36.3968763" lon="10.1365672"><ele>231.33333333333334</ele><time>2026-04-24T12:22:54.197Z</time></trkpt><trkpt lat="36.3968806" lon="10.1366739"><ele>232.0</ele><time>2026-04-24T12:22:55.199Z</time></trkpt><trkpt lat="36.3968844" lon="10.1367802"><ele>232.66666666666669</ele><time>2026-04-24T12:22:56.211Z</time></trkpt><trkpt lat="36.3968867" lon="10.1368858"><ele>233.33333333333334</ele><time>2026-04-24T12:22:57.185Z</time></trkpt><trkpt lat="36.3968863" lon="10.1369911"><ele>234.0</ele><time>2026-04-24T12:22:58.198Z</time></trkpt><trkpt lat="36.3968859" lon="10.1370984"><ele>234.0</ele><time>2026-04-24T12:22:59.19Z</time></trkpt><trkpt lat="36.3968715" lon="10.1372024"><ele>234.0</ele><time>2026-04-24T12:23:00.187Z</time></trkpt><trkpt lat="36.3968653" lon="10.1373092"><ele>234.0</ele><time>2026-04-24T12:23:01.182Z</time></trkpt><trkpt lat="36.3968604" lon="10.1374151"><ele>234.0</ele><time>2026-04-24T12:23:02.192Z</time></trkpt><trkpt lat="36.3968526" lon="10.137521"><ele>234.0</ele><time>2026-04-24T12:23:03.17Z</time></trkpt><trkpt lat="36.3968427" lon="10.1376272"><ele>234.0</ele><time>2026-04-24T12:23:04.169Z</time></trkpt><trkpt lat="36.3968257" lon="10.1377312"><ele>234.5</ele><time>2026-04-24T12:23:05.175Z</time></trkpt><trkpt lat="36.3968063" lon="10.1378318"><ele>235.0</ele><time>2026-04-24T12:23:06.176Z</time></trkpt><trkpt lat="36.3967907" lon="10.1379298"><ele>235.5</ele><time>2026-04-24T12:23:07.163Z</time></trkpt><trkpt lat="36.3967737" lon="10.138025"><ele>236.0</ele><time>2026-04-24T12:23:08.174Z</time></trkpt><trkpt lat="36.3967583" lon="10.1381059"><ele>236.5</ele><time>2026-04-24T12:23:09.189Z</time></trkpt><trkpt lat="36.3967358" lon="10.1382353"><ele>237.0</ele><time>2026-04-24T12:23:11.202Z</time></trkpt><trkpt lat="36.396781" lon="10.1383393"><ele>238.0</ele><time>2026-04-24T12:23:13.178Z</time></trkpt><trkpt lat="36.3968927" lon="10.1384"><ele>239.0</ele><time>2026-04-24T12:23:15.135Z</time></trkpt><trkpt lat="36.396967" lon="10.1384146"><ele>240.0</ele><time>2026-04-24T12:23:16.206Z</time></trkpt><trkpt lat="36.3970482" lon="10.138428"><ele>241.0</ele><time>2026-04-24T12:23:17.166Z</time></trkpt><trkpt lat="36.3971332" lon="10.1384529"><ele>242.0</ele><time>2026-04-24T12:23:18.178Z</time></trkpt><trkpt lat="36.3972224" lon="10.1384822"><ele>242.16666666666669</ele><time>2026-04-24T12:23:19.16Z</time></trkpt><trkpt lat="36.3973131" lon="10.1385178"><ele>242.33333333333334</ele><time>2026-04-24T12:23:20.184Z</time></trkpt><trkpt lat="36.3973982" lon="10.1385486"><ele>242.5</ele><time>2026-04-24T12:23:21.199Z</time></trkpt><trkpt lat="36.3974782" lon="10.1385757"><ele>242.66666666666669</ele><time>2026-04-24T12:23:22.159Z</time></trkpt><trkpt lat="36.3975526" lon="10.1386089"><ele>242.83333333333334</ele><time>2026-04-24T12:23:23.168Z</time></trkpt><trkpt lat="36.3976262" lon="10.1386422"><ele>243.0</ele><time>2026-04-24T12:23:24.196Z</time></trkpt><trkpt lat="36.3976953" lon="10.1386726"><ele>243.0</ele><time>2026-04-24T12:23:25.183Z</time></trkpt><trkpt lat="36.3977627" lon="10.1387026"><ele>243.0</ele><time>2026-04-24T12:23:26.168Z</time></trkpt><trkpt lat="36.3978629" lon="10.1387539"><ele>243.0</ele><time>2026-04-24T12:23:28.189Z</time></trkpt><trkpt lat="36.397907" lon="10.1388326"><ele>243.0</ele><time>2026-04-24T12:23:30.177Z</time></trkpt><trkpt lat="36.3979206" lon="10.138931"><ele>243.0</ele><time>2026-04-24T12:23:32.111Z</time></trkpt><trkpt lat="36.3978864" lon="10.1390248"><ele>243.0</ele><time>2026-04-24T12:23:34.187Z</time></trkpt><trkpt lat="36.3978224" lon="10.1391492"><ele>244.0</ele><time>2026-04-24T12:23:36.2Z</time></trkpt><trkpt lat="36.397796" lon="10.1392228"><ele>245.0</ele><time>2026-04-24T12:23:37.183Z</time></trkpt><trkpt lat="36.3977643" lon="10.1392939"><ele>246.0</ele><time>2026-04-24T12:23:38.203Z</time></trkpt><trkpt lat="36.397732" lon="10.1393646"><ele>247.0</ele><time>2026-04-24T12:23:39.162Z</time></trkpt><trkpt lat="36.3976758" lon="10.1394994"><ele>248.0</ele><time>2026-04-24T12:23:41.186Z</time></trkpt><trkpt lat="36.3976247" lon="10.1396217"><ele>249.0</ele><time>2026-04-24T12:23:43.109Z</time></trkpt><trkpt lat="36.3975832" lon="10.1397392"><ele>249.0</ele><time>2026-04-24T12:23:45.145Z</time></trkpt><trkpt lat="36.3975487" lon="10.1398427"><ele>249.0</ele><time>2026-04-24T12:23:47.202Z</time></trkpt><trkpt lat="36.3975621" lon="10.1399377"><ele>249.0</ele><time>2026-04-24T12:23:50.188Z</time></trkpt><trkpt lat="36.3976262" lon="10.1399489"><ele>249.0</ele><time>2026-04-24T12:23:52.189Z</time></trkpt><trkpt lat="36.3977075" lon="10.1398498"><ele>249.0</ele><time>2026-04-24T12:23:54.208Z</time></trkpt><trkpt lat="36.3977505" lon="10.1397734"><ele>249.0</ele><time>2026-04-24T12:23:55.169Z</time></trkpt><trkpt lat="36.3978084" lon="10.1397008"><ele>249.0</ele><time>2026-04-24T12:23:56.172Z</time></trkpt><trkpt lat="36.39787" lon="10.1396557"><ele>249.0</ele><time>2026-04-24T12:23:57.177Z</time></trkpt><trkpt lat="36.3979401" lon="10.1396227"><ele>249.0</ele><time>2026-04-24T12:23:58.207Z</time></trkpt><trkpt lat="36.3980148" lon="10.1396053"><ele>249.0</ele><time>2026-04-24T12:23:59.17Z</time></trkpt><trkpt lat="36.3980918" lon="10.1396156"><ele>249.0</ele><time>2026-04-24T12:24:00.165Z</time></trkpt><trkpt lat="36.3981555" lon="10.1396539"><ele>249.0</ele><time>2026-04-24T12:24:01.205Z</time></trkpt><trkpt lat="36.398217" lon="10.1397239"><ele>248.5</ele><time>2026-04-24T12:24:02.214Z</time></trkpt><trkpt lat="36.3982587" lon="10.1398198"><ele>248.0</ele><time>2026-04-24T12:24:03.204Z</time></trkpt><trkpt lat="36.3982896" lon="10.1399494"><ele>247.5</ele><time>2026-04-24T12:24:04.197Z</time></trkpt><trkpt lat="36.3983317" lon="10.1401074"><ele>247.0</ele><time>2026-04-24T12:24:05.184Z</time></trkpt><trkpt lat="36.398384" lon="10.1402708"><ele>243.75</ele><time>2026-04-24T12:24:06.196Z</time></trkpt><trkpt lat="36.3984455" lon="10.1404261"><ele>240.5</ele><time>2026-04-24T12:24:07.194Z</time></trkpt><trkpt lat="36.3985089" lon="10.1405748"><ele>237.25</ele><time>2026-04-24T12:24:08.201Z</time></trkpt><trkpt lat="36.3985703" lon="10.140708"><ele>234.0</ele><time>2026-04-24T12:24:09.188Z</time></trkpt><trkpt lat="36.3986301" lon="10.1408357"><ele>231.75</ele><time>2026-04-24T12:24:10.191Z</time></trkpt><trkpt lat="36.3986865" lon="10.1409663"><ele>229.5</ele><time>2026-04-24T12:24:11.203Z</time></trkpt><trkpt lat="36.3987338" lon="10.1410974"><ele>227.25</ele><time>2026-04-24T12:24:12.201Z</time></trkpt><trkpt lat="36.3987759" lon="10.1412277"><ele>225.0</ele><time>2026-04-24T12:24:13.183Z</time></trkpt><trkpt lat="36.3988096" lon="10.1413522"><ele>225.2</ele><time>2026-04-24T12:24:14.193Z</time></trkpt><trkpt lat="36.3988389" lon="10.1414748"><ele>225.4</ele><time>2026-04-24T12:24:15.209Z</time></trkpt><trkpt lat="36.3988588" lon="10.141592"><ele>225.60000000000002</ele><time>2026-04-24T12:24:16.133Z</time></trkpt><trkpt lat="36.3988705" lon="10.1416983"><ele>225.8</ele><time>2026-04-24T12:24:17.142Z</time></trkpt><trkpt lat="36.3988859" lon="10.141808"><ele>226.0</ele><time>2026-04-24T12:24:18.179Z</time></trkpt><trkpt lat="36.3988995" lon="10.1419169"><ele>225.99999999999997</ele><time>2026-04-24T12:24:19.108Z</time></trkpt><trkpt lat="36.3989132" lon="10.1420189"><ele>226.0</ele><time>2026-04-24T12:24:20.179Z</time></trkpt><trkpt lat="36.3989261" lon="10.1421214"><ele>226.0</ele><time>2026-04-24T12:24:21.164Z</time></trkpt><trkpt lat="36.3989485" lon="10.1422242"><ele>226.0</ele><time>2026-04-24T12:24:22.184Z</time></trkpt><trkpt lat="36.3989785" lon="10.1423214"><ele>225.99999999999997</ele><time>2026-04-24T12:24:23.173Z</time></trkpt><trkpt lat="36.3990179" lon="10.1424177"><ele>226.0</ele><time>2026-04-24T12:24:24.181Z</time></trkpt><trkpt lat="36.3990626" lon="10.1425119"><ele>224.83333333333331</ele><time>2026-04-24T12:24:25.161Z</time></trkpt><trkpt lat="36.3991118" lon="10.1426051"><ele>223.66666666666666</ele><time>2026-04-24T12:24:26.183Z</time></trkpt><trkpt lat="36.3991595" lon="10.1427009"><ele>222.5</ele><time>2026-04-24T12:24:27.194Z</time></trkpt><trkpt lat="36.3992074" lon="10.1427904"><ele>221.33333333333331</ele><time>2026-04-24T12:24:28.184Z</time></trkpt><trkpt lat="36.3992539" lon="10.1428823"><ele>220.16666666666666</ele><time>2026-04-24T12:24:29.177Z</time></trkpt><trkpt lat="36.3993046" lon="10.1429742"><ele>219.0</ele><time>2026-04-24T12:24:30.199Z</time></trkpt><trkpt lat="36.3993521" lon="10.1430691"><ele>219.0</ele><time>2026-04-24T12:24:31.157Z</time></trkpt><trkpt lat="36.3994043" lon="10.1431617"><ele>219.0</ele><time>2026-04-24T12:24:32.201Z</time></trkpt><trkpt lat="36.3994464" lon="10.1432488"><ele>219.0</ele><time>2026-04-24T12:24:33.186Z</time></trkpt><trkpt lat="36.399486" lon="10.1433283"><ele>219.0</ele><time>2026-04-24T12:24:34.185Z</time></trkpt><trkpt lat="36.3995208" lon="10.1434043"><ele>219.0</ele><time>2026-04-24T12:24:35.149Z</time></trkpt><trkpt lat="36.3995727" lon="10.1435433"><ele>219.0</ele><time>2026-04-24T12:24:37.178Z</time></trkpt><trkpt lat="36.3996311" lon="10.143677"><ele>217.2857142857143</ele><time>2026-04-24T12:24:39.133Z</time></trkpt><trkpt lat="36.399681" lon="10.1437314"><ele>215.57142857142856</ele><time>2026-04-24T12:24:40.178Z</time></trkpt><trkpt lat="36.3997421" lon="10.1437698"><ele>213.85714285714286</ele><time>2026-04-24T12:24:41.161Z</time></trkpt><trkpt lat="36.3998084" lon="10.143793"><ele>212.14285714285717</ele><time>2026-04-24T12:24:42.183Z</time></trkpt><trkpt lat="36.3998785" lon="10.1437984"><ele>210.42857142857144</ele><time>2026-04-24T12:24:43.192Z</time></trkpt><trkpt lat="36.3999511" lon="10.1437879"><ele>208.71428571428572</ele><time>2026-04-24T12:24:44.184Z</time></trkpt><trkpt lat="36.4000229" lon="10.1437641"><ele>207.0</ele><time>2026-04-24T12:24:45.174Z</time></trkpt><trkpt lat="36.4000948" lon="10.1437309"><ele>207.0</ele><time>2026-04-24T12:24:46.176Z</time></trkpt><trkpt lat="36.4001678" lon="10.1436952"><ele>207.0</ele><time>2026-04-24T12:24:47.201Z</time></trkpt><trkpt lat="36.4002444" lon="10.1436589"><ele>207.0</ele><time>2026-04-24T12:24:48.164Z</time></trkpt><trkpt lat="36.4003179" lon="10.143619"><ele>207.0</ele><time>2026-04-24T12:24:49.189Z</time></trkpt><trkpt lat="36.400389" lon="10.1435786"><ele>207.0</ele><time>2026-04-24T12:24:50.163Z</time></trkpt><trkpt lat="36.4004549" lon="10.1435402"><ele>207.0</ele><time>2026-04-24T12:24:51.159Z</time></trkpt><trkpt lat="36.4005132" lon="10.1435031"><ele>205.0</ele><time>2026-04-24T12:24:52.185Z</time></trkpt><trkpt lat="36.4005998" lon="10.1434522"><ele>203.0</ele><time>2026-04-24T12:24:54.195Z</time></trkpt><trkpt lat="36.4006817" lon="10.1434497"><ele>201.0</ele><time>2026-04-24T12:24:57.184Z</time></trkpt><trkpt lat="36.4006804" lon="10.1435446"><ele>199.0</ele><time>2026-04-24T12:25:00.2Z</time></trkpt><trkpt lat="36.4006528" lon="10.1436155"><ele>197.0</ele><time>2026-04-24T12:25:01.12Z</time></trkpt><trkpt lat="36.4005895" lon="10.1436878"><ele>195.0</ele><time>2026-04-24T12:25:03.131Z</time></trkpt><trkpt lat="36.4005175" lon="10.1437519"><ele>195.0</ele><time>2026-04-24T12:25:05.114Z</time></trkpt><trkpt lat="36.4004552" lon="10.1438248"><ele>195.0</ele><time>2026-04-24T12:25:07.101Z</time></trkpt><trkpt lat="36.4004051" lon="10.1438832"><ele>195.0</ele><time>2026-04-24T12:25:09.08Z</time></trkpt><trkpt lat="36.4003551" lon="10.1439418"><ele>195.0</ele><time>2026-04-24T12:25:11.117Z</time></trkpt><trkpt lat="36.4002986" lon="10.1439898"><ele>195.0</ele><time>2026-04-24T12:25:13.111Z</time></trkpt><trkpt lat="36.4002438" lon="10.1440385"><ele>195.0</ele><time>2026-04-24T12:25:15.113Z</time></trkpt><trkpt lat="36.4001882" lon="10.14409"><ele>195.0</ele><time>2026-04-24T12:25:19.109Z</time></trkpt><trkpt lat="36.4001541" lon="10.1441733"><ele>195.0</ele><time>2026-04-24T12:25:33.083Z</time></trkpt><trkpt lat="36.4002084" lon="10.1442236"><ele>195.0</ele><time>2026-04-24T12:25:38.122Z</time></trkpt><trkpt lat="36.4002915" lon="10.1442051"><ele>195.0</ele><time>2026-04-24T12:25:45.129Z</time></trkpt><trkpt lat="36.4003706" lon="10.1441995"><ele>195.0</ele><time>2026-04-24T12:25:52.119Z</time></trkpt><trkpt lat="36.4004315" lon="10.1442256"><ele>195.0</ele><time>2026-04-24T12:31:21.072Z</time></trkpt></trkseg><trkseg><trkpt lat="36.4003643" lon="10.1441272"><ele>195.0</ele><time>2026-04-24T13:43:45.168Z</time></trkpt><trkpt lat="36.4004294" lon="10.1441169"><ele>195.0</ele><time>2026-04-24T13:44:57.134Z</time></trkpt><trkpt lat="36.4004976" lon="10.1440938"><ele>195.0</ele><time>2026-04-24T13:45:00.134Z</time></trkpt><trkpt lat="36.4005611" lon="10.1440656"><ele>195.0</ele><time>2026-04-24T13:45:47.136Z</time></trkpt><trkpt lat="36.4006317" lon="10.144059"><ele>195.0</ele><time>2026-04-24T13:45:50.139Z</time></trkpt><trkpt lat="36.4007048" lon="10.144022"><ele>195.0</ele><time>2026-04-24T13:45:53.143Z</time></trkpt><trkpt lat="36.4007774" lon="10.1439878"><ele>195.0</ele><time>2026-04-24T13:45:56.121Z</time></trkpt><trkpt lat="36.4008581" lon="10.143945"><ele>195.0</ele><time>2026-04-24T13:45:59.133Z</time></trkpt><trkpt lat="36.4009304" lon="10.143923"><ele>195.0</ele><time>2026-04-24T13:46:02.139Z</time></trkpt><trkpt lat="36.4009955" lon="10.1439082"><ele>195.0</ele><time>2026-04-24T13:46:05.146Z</time></trkpt><trkpt lat="36.4010656" lon="10.143875"><ele>195.0</ele><time>2026-04-24T13:46:08.158Z</time></trkpt><trkpt lat="36.4011344" lon="10.1438392"><ele>195.0</ele><time>2026-04-24T13:46:10.152Z</time></trkpt><trkpt lat="36.4012088" lon="10.1437974"><ele>195.0</ele><time>2026-04-24T13:46:12.155Z</time></trkpt><trkpt lat="36.4012829" lon="10.1437604"><ele>192.8</ele><time>2026-04-24T13:46:14.142Z</time></trkpt><trkpt lat="36.4013683" lon="10.1436988"><ele>190.6</ele><time>2026-04-24T13:46:16.151Z</time></trkpt><trkpt lat="36.4014588" lon="10.1436323"><ele>188.39999999999998</ele><time>2026-04-24T13:46:18.148Z</time></trkpt><trkpt lat="36.4015504" lon="10.1435571"><ele>186.2</ele><time>2026-04-24T13:46:20.148Z</time></trkpt><trkpt lat="36.4016252" lon="10.1434569"><ele>184.0</ele><time>2026-04-24T13:46:22.142Z</time></trkpt><trkpt lat="36.4017098" lon="10.1433579"><ele>184.0</ele><time>2026-04-24T13:46:24.146Z</time></trkpt><trkpt lat="36.4017931" lon="10.1432488"><ele>184.0</ele><time>2026-04-24T13:46:26.135Z</time></trkpt><trkpt lat="36.4018775" lon="10.1431347"><ele>184.0</ele><time>2026-04-24T13:46:28.142Z</time></trkpt><trkpt lat="36.4019179" lon="10.1430715"><ele>184.0</ele><time>2026-04-24T13:46:29.149Z</time></trkpt><trkpt lat="36.4019526" lon="10.1430049"><ele>184.0</ele><time>2026-04-24T13:46:30.142Z</time></trkpt><trkpt lat="36.4019933" lon="10.1429358"><ele>184.0</ele><time>2026-04-24T13:46:31.145Z</time></trkpt><trkpt lat="36.4020389" lon="10.1428749"><ele>184.2</ele><time>2026-04-24T13:46:32.149Z</time></trkpt><trkpt lat="36.4021235" lon="10.1427674"><ele>184.39999999999998</ele><time>2026-04-24T13:46:34.144Z</time></trkpt><trkpt lat="36.4022111" lon="10.1426613"><ele>184.6</ele><time>2026-04-24T13:46:36.161Z</time></trkpt><trkpt lat="36.4022541" lon="10.1425998"><ele>184.8</ele><time>2026-04-24T13:46:37.152Z</time></trkpt><trkpt lat="36.4023469" lon="10.1424924"><ele>185.0</ele><time>2026-04-24T13:46:39.144Z</time></trkpt><trkpt lat="36.4024009" lon="10.1424514"><ele>183.66666666666666</ele><time>2026-04-24T13:46:40.151Z</time></trkpt><trkpt lat="36.4024594" lon="10.1424062"><ele>182.33333333333331</ele><time>2026-04-24T13:46:41.152Z</time></trkpt><trkpt lat="36.4025228" lon="10.1423702"><ele>181.0</ele><time>2026-04-24T13:46:42.13Z</time></trkpt><trkpt lat="36.4025855" lon="10.1423317"><ele>179.66666666666666</ele><time>2026-04-24T13:46:43.139Z</time></trkpt><trkpt lat="36.402646" lon="10.1422976"><ele>178.33333333333334</ele><time>2026-04-24T13:46:44.146Z</time></trkpt><trkpt lat="36.4027053" lon="10.1422613"><ele>177.0</ele><time>2026-04-24T13:46:45.146Z</time></trkpt><trkpt lat="36.4028226" lon="10.142202"><ele>177.0</ele><time>2026-04-24T13:46:47.147Z</time></trkpt><trkpt lat="36.4028827" lon="10.142176"><ele>177.0</ele><time>2026-04-24T13:46:48.144Z</time></trkpt><trkpt lat="36.4030025" lon="10.14213"><ele>177.0</ele><time>2026-04-24T13:46:50.147Z</time></trkpt><trkpt lat="36.4030621" lon="10.142103"><ele>177.0</ele><time>2026-04-24T13:46:51.14Z</time></trkpt><trkpt lat="36.4031289" lon="10.1420796"><ele>177.0</ele><time>2026-04-24T13:46:52.133Z</time></trkpt><trkpt lat="36.4031964" lon="10.1420561"><ele>177.0</ele><time>2026-04-24T13:46:53.147Z</time></trkpt><trkpt lat="36.403264" lon="10.1420361"><ele>175.8</ele><time>2026-04-24T13:46:54.143Z</time></trkpt><trkpt lat="36.40333" lon="10.1420183"><ele>174.6</ele><time>2026-04-24T13:46:55.152Z</time></trkpt><trkpt lat="36.4033976" lon="10.141997"><ele>173.4</ele><time>2026-04-24T13:46:56.142Z</time></trkpt><trkpt lat="36.4034661" lon="10.1419744"><ele>172.20000000000002</ele><time>2026-04-24T13:46:57.147Z</time></trkpt><trkpt lat="36.4035854" lon="10.1419258"><ele>171.0</ele><time>2026-04-24T13:46:59.142Z</time></trkpt><trkpt lat="36.4037005" lon="10.1418778"><ele>170.99999999999997</ele><time>2026-04-24T13:47:01.139Z</time></trkpt><trkpt lat="36.4037642" lon="10.1418539"><ele>171.0</ele><time>2026-04-24T13:47:02.147Z</time></trkpt><trkpt lat="36.4038269" lon="10.1418272"><ele>171.0</ele><time>2026-04-24T13:47:03.133Z</time></trkpt><trkpt lat="36.4038916" lon="10.1417987"><ele>171.0</ele><time>2026-04-24T13:47:04.143Z</time></trkpt><trkpt lat="36.4039539" lon="10.1417707"><ele>171.0</ele><time>2026-04-24T13:47:05.15Z</time></trkpt><trkpt lat="36.4040191" lon="10.1417429"><ele>170.99999999999997</ele><time>2026-04-24T13:47:06.142Z</time></trkpt><trkpt lat="36.4040807" lon="10.1417143"><ele>171.0</ele><time>2026-04-24T13:47:07.134Z</time></trkpt><trkpt lat="36.4041961" lon="10.1416663"><ele>170.4</ele><time>2026-04-24T13:47:09.141Z</time></trkpt><trkpt lat="36.4043129" lon="10.1416154"><ele>169.8</ele><time>2026-04-24T13:47:11.143Z</time></trkpt><trkpt lat="36.4044212" lon="10.1415639"><ele>169.20000000000002</ele><time>2026-04-24T13:47:13.162Z</time></trkpt><trkpt lat="36.4045303" lon="10.1415123"><ele>168.60000000000002</ele><time>2026-04-24T13:47:15.138Z</time></trkpt><trkpt lat="36.4045896" lon="10.1414848"><ele>168.0</ele><time>2026-04-24T13:47:16.161Z</time></trkpt><trkpt lat="36.4047038" lon="10.1414371"><ele>166.8</ele><time>2026-04-24T13:47:18.157Z</time></trkpt><trkpt lat="36.4048165" lon="10.1413896"><ele>165.60000000000002</ele><time>2026-04-24T13:47:20.145Z</time></trkpt><trkpt lat="36.4049241" lon="10.1413346"><ele>164.39999999999998</ele><time>2026-04-24T13:47:22.162Z</time></trkpt><trkpt lat="36.4049833" lon="10.1413053"><ele>163.2</ele><time>2026-04-24T13:47:23.145Z</time></trkpt><trkpt lat="36.4050939" lon="10.1412593"><ele>162.0</ele><time>2026-04-24T13:47:25.139Z</time></trkpt><trkpt lat="36.4051997" lon="10.1412061"><ele>162.0</ele><time>2026-04-24T13:47:27.159Z</time></trkpt><trkpt lat="36.4052985" lon="10.1411591"><ele>162.0</ele><time>2026-04-24T13:47:29.146Z</time></trkpt><trkpt lat="36.4053814" lon="10.1411185"><ele>162.0</ele><time>2026-04-24T13:47:31.152Z</time></trkpt><trkpt lat="36.4054463" lon="10.1410789"><ele>162.0</ele><time>2026-04-24T13:47:33.144Z</time></trkpt><trkpt lat="36.4055047" lon="10.1410486"><ele>162.0</ele><time>2026-04-24T13:47:35.149Z</time></trkpt><trkpt lat="36.4055651" lon="10.1410064"><ele>162.0</ele><time>2026-04-24T13:47:41.135Z</time></trkpt><trkpt lat="36.4056296" lon="10.1409367"><ele>161.6</ele><time>2026-04-24T13:47:44.15Z</time></trkpt><trkpt lat="36.405705" lon="10.1408803"><ele>161.2</ele><time>2026-04-24T13:47:46.145Z</time></trkpt><trkpt lat="36.4057763" lon="10.1408392"><ele>160.8</ele><time>2026-04-24T13:47:48.161Z</time></trkpt><trkpt lat="36.4058658" lon="10.1407785"><ele>160.4</ele><time>2026-04-24T13:47:50.138Z</time></trkpt><trkpt lat="36.4059593" lon="10.1406913"><ele>160.0</ele><time>2026-04-24T13:47:52.136Z</time></trkpt><trkpt lat="36.4060571" lon="10.1406149"><ele>160.0</ele><time>2026-04-24T13:47:54.152Z</time></trkpt><trkpt lat="36.4061106" lon="10.1405736"><ele>160.0</ele><time>2026-04-24T13:47:55.178Z</time></trkpt><trkpt lat="36.4061712" lon="10.1405291"><ele>160.0</ele><time>2026-04-24T13:47:56.141Z</time></trkpt><trkpt lat="36.4062348" lon="10.140487"><ele>160.0</ele><time>2026-04-24T13:47:57.145Z</time></trkpt><trkpt lat="36.4063024" lon="10.1404461"><ele>160.0</ele><time>2026-04-24T13:47:58.15Z</time></trkpt><trkpt lat="36.4063729" lon="10.1404038"><ele>160.0</ele><time>2026-04-24T13:47:59.144Z</time></trkpt><trkpt lat="36.4064355" lon="10.1403612"><ele>160.0</ele><time>2026-04-24T13:48:00.139Z</time></trkpt><trkpt lat="36.4065056" lon="10.1403094"><ele>159.83333333333334</ele><time>2026-04-24T13:48:01.131Z</time></trkpt><trkpt lat="36.4065792" lon="10.1402528"><ele>159.66666666666669</ele><time>2026-04-24T13:48:02.153Z</time></trkpt><trkpt lat="36.4066544" lon="10.1402003"><ele>159.5</ele><time>2026-04-24T13:48:03.148Z</time></trkpt><trkpt lat="36.4067267" lon="10.1401491"><ele>159.33333333333334</ele><time>2026-04-24T13:48:04.152Z</time></trkpt><trkpt lat="36.4068067" lon="10.1401007"><ele>159.16666666666666</ele><time>2026-04-24T13:48:05.152Z</time></trkpt><trkpt lat="36.4068856" lon="10.1400572"><ele>159.0</ele><time>2026-04-24T13:48:06.144Z</time></trkpt><trkpt lat="36.4069634" lon="10.1400204"><ele>159.0</ele><time>2026-04-24T13:48:07.126Z</time></trkpt><trkpt lat="36.4070337" lon="10.1399871"><ele>159.0</ele><time>2026-04-24T13:48:08.14Z</time></trkpt><trkpt lat="36.4071001" lon="10.1399516"><ele>159.0</ele><time>2026-04-24T13:48:09.142Z</time></trkpt><trkpt lat="36.4071616" lon="10.1399141"><ele>159.0</ele><time>2026-04-24T13:48:10.141Z</time></trkpt><trkpt lat="36.4072519" lon="10.1398631"><ele>159.0</ele><time>2026-04-24T13:48:12.137Z</time></trkpt><trkpt lat="36.4073235" lon="10.1398226"><ele>159.0</ele><time>2026-04-24T13:48:17.16Z</time></trkpt><trkpt lat="36.4073953" lon="10.1397675"><ele>158.5</ele><time>2026-04-24T13:48:19.14Z</time></trkpt><trkpt lat="36.4075219" lon="10.1397127"><ele>158.0</ele><time>2026-04-24T13:48:21.137Z</time></trkpt><trkpt lat="36.4075928" lon="10.1396789"><ele>157.5</ele><time>2026-04-24T13:48:22.152Z</time></trkpt><trkpt lat="36.4076698" lon="10.1396468"><ele>157.0</ele><time>2026-04-24T13:48:23.139Z</time></trkpt><trkpt lat="36.4077442" lon="10.1396132"><ele>156.5</ele><time>2026-04-24T13:48:24.147Z</time></trkpt><trkpt lat="36.4078181" lon="10.1395898"><ele>156.0</ele><time>2026-04-24T13:48:25.147Z</time></trkpt><trkpt lat="36.4078921" lon="10.1395631"><ele>156.0</ele><time>2026-04-24T13:48:26.141Z</time></trkpt><trkpt lat="36.4079666" lon="10.1395347"><ele>156.0</ele><time>2026-04-24T13:48:27.15Z</time></trkpt><trkpt lat="36.4080403" lon="10.1394984"><ele>156.0</ele><time>2026-04-24T13:48:28.151Z</time></trkpt><trkpt lat="36.4081132" lon="10.1394644"><ele>156.0</ele><time>2026-04-24T13:48:29.143Z</time></trkpt><trkpt lat="36.4081891" lon="10.1394283"><ele>156.0</ele><time>2026-04-24T13:48:30.142Z</time></trkpt><trkpt lat="36.4082611" lon="10.1393946"><ele>156.0</ele><time>2026-04-24T13:48:31.138Z</time></trkpt><trkpt lat="36.4083328" lon="10.1393578"><ele>155.83333333333334</ele><time>2026-04-24T13:48:32.142Z</time></trkpt><trkpt lat="36.4084079" lon="10.1393256"><ele>155.66666666666666</ele><time>2026-04-24T13:48:33.147Z</time></trkpt><trkpt lat="36.4084791" lon="10.1392967"><ele>155.5</ele><time>2026-04-24T13:48:34.153Z</time></trkpt><trkpt lat="36.4085505" lon="10.1392694"><ele>155.33333333333331</ele><time>2026-04-24T13:48:35.132Z</time></trkpt><trkpt lat="36.4086264" lon="10.1392389"><ele>155.16666666666666</ele><time>2026-04-24T13:48:36.158Z</time></trkpt><trkpt lat="36.4087058" lon="10.139202"><ele>155.0</ele><time>2026-04-24T13:48:37.146Z</time></trkpt><trkpt lat="36.4087917" lon="10.1391612"><ele>155.0</ele><time>2026-04-24T13:48:38.123Z</time></trkpt><trkpt lat="36.4088769" lon="10.1391206"><ele>155.0</ele><time>2026-04-24T13:48:39.127Z</time></trkpt><trkpt lat="36.4089612" lon="10.1390737"><ele>155.0</ele><time>2026-04-24T13:48:40.143Z</time></trkpt><trkpt lat="36.4090474" lon="10.1390286"><ele>155.0</ele><time>2026-04-24T13:48:41.152Z</time></trkpt><trkpt lat="36.4091327" lon="10.1389844"><ele>155.0</ele><time>2026-04-24T13:48:42.164Z</time></trkpt><trkpt lat="36.4092048" lon="10.1389367"><ele>155.0</ele><time>2026-04-24T13:48:43.152Z</time></trkpt><trkpt lat="36.4092731" lon="10.1388919"><ele>155.0</ele><time>2026-04-24T13:48:44.157Z</time></trkpt><trkpt lat="36.4093405" lon="10.138846"><ele>155.0</ele><time>2026-04-24T13:48:45.133Z</time></trkpt><trkpt lat="36.4093998" lon="10.1388033"><ele>155.0</ele><time>2026-04-24T13:48:46.155Z</time></trkpt><trkpt lat="36.4094557" lon="10.1387608"><ele>155.0</ele><time>2026-04-24T13:48:47.141Z</time></trkpt><trkpt lat="36.4095487" lon="10.1386756"><ele>155.0</ele><time>2026-04-24T13:48:49.144Z</time></trkpt><trkpt lat="36.4096365" lon="10.1385971"><ele>154.6</ele><time>2026-04-24T13:48:51.141Z</time></trkpt><trkpt lat="36.4097171" lon="10.1385207"><ele>154.2</ele><time>2026-04-24T13:48:53.132Z</time></trkpt><trkpt lat="36.4097961" lon="10.1384228"><ele>153.8</ele><time>2026-04-24T13:48:55.146Z</time></trkpt><trkpt lat="36.4098776" lon="10.1383254"><ele>153.4</ele><time>2026-04-24T13:48:57.149Z</time></trkpt><trkpt lat="36.4099424" lon="10.1382266"><ele>153.0</ele><time>2026-04-24T13:48:59.15Z</time></trkpt><trkpt lat="36.4100087" lon="10.1381288"><ele>153.0</ele><time>2026-04-24T13:49:01.142Z</time></trkpt><trkpt lat="36.4100807" lon="10.1380401"><ele>153.0</ele><time>2026-04-24T13:49:03.142Z</time></trkpt><trkpt lat="36.4101473" lon="10.1379458"><ele>153.0</ele><time>2026-04-24T13:49:05.16Z</time></trkpt><trkpt lat="36.4102076" lon="10.1378726"><ele>153.0</ele><time>2026-04-24T13:49:07.144Z</time></trkpt><trkpt lat="36.4102849" lon="10.1377899"><ele>153.0</ele><time>2026-04-24T13:49:10.181Z</time></trkpt><trkpt lat="36.4103648" lon="10.137699"><ele>153.0</ele><time>2026-04-24T13:49:12.183Z</time></trkpt><trkpt lat="36.4104628" lon="10.137599"><ele>153.0</ele><time>2026-04-24T13:49:14.185Z</time></trkpt><trkpt lat="36.4105773" lon="10.1375089"><ele>153.0</ele><time>2026-04-24T13:49:16.196Z</time></trkpt><trkpt lat="36.4106473" lon="10.1374518"><ele>153.0</ele><time>2026-04-24T13:49:17.183Z</time></trkpt><trkpt lat="36.4107212" lon="10.1373939"><ele>153.0</ele><time>2026-04-24T13:49:18.186Z</time></trkpt><trkpt lat="36.4107963" lon="10.1373319"><ele>152.8</ele><time>2026-04-24T13:49:19.193Z</time></trkpt><trkpt lat="36.4108748" lon="10.1372609"><ele>152.60000000000002</ele><time>2026-04-24T13:49:20.192Z</time></trkpt><trkpt lat="36.4109579" lon="10.1371841"><ele>152.39999999999998</ele><time>2026-04-24T13:49:21.188Z</time></trkpt><trkpt lat="36.4110371" lon="10.1371126"><ele>152.2</ele><time>2026-04-24T13:49:22.205Z</time></trkpt><trkpt lat="36.4111251" lon="10.1370403"><ele>152.0</ele><time>2026-04-24T13:49:23.192Z</time></trkpt><trkpt lat="36.4112158" lon="10.1369638"><ele>152.0</ele><time>2026-04-24T13:49:24.194Z</time></trkpt><trkpt lat="36.4113019" lon="10.1368852"><ele>152.0</ele><time>2026-04-24T13:49:25.198Z</time></trkpt><trkpt lat="36.4113892" lon="10.1368089"><ele>152.0</ele><time>2026-04-24T13:49:26.204Z</time></trkpt><trkpt lat="36.411473" lon="10.1367361"><ele>152.0</ele><time>2026-04-24T13:49:27.193Z</time></trkpt><trkpt lat="36.4115488" lon="10.1366716"><ele>152.0</ele><time>2026-04-24T13:49:28.202Z</time></trkpt><trkpt lat="36.4116195" lon="10.1366203"><ele>151.83333333333331</ele><time>2026-04-24T13:49:29.189Z</time></trkpt><trkpt lat="36.4116883" lon="10.1365788"><ele>151.66666666666666</ele><time>2026-04-24T13:49:30.19Z</time></trkpt><trkpt lat="36.4117502" lon="10.1365498"><ele>151.5</ele><time>2026-04-24T13:49:31.189Z</time></trkpt><trkpt lat="36.4118128" lon="10.1365241"><ele>151.33333333333334</ele><time>2026-04-24T13:49:32.182Z</time></trkpt><trkpt lat="36.4118753" lon="10.136497"><ele>151.16666666666669</ele><time>2026-04-24T13:49:33.183Z</time></trkpt><trkpt lat="36.4119761" lon="10.1364598"><ele>151.0</ele><time>2026-04-24T13:49:35.18Z</time></trkpt><trkpt lat="36.4120734" lon="10.1364311"><ele>150.6</ele><time>2026-04-24T13:49:37.206Z</time></trkpt><trkpt lat="36.4121741" lon="10.1364085"><ele>150.2</ele><time>2026-04-24T13:49:39.179Z</time></trkpt><trkpt lat="36.4122729" lon="10.1363479"><ele>149.8</ele><time>2026-04-24T13:49:41.172Z</time></trkpt><trkpt lat="36.4123492" lon="10.1362399"><ele>149.4</ele><time>2026-04-24T13:49:43.214Z</time></trkpt><trkpt lat="36.4123838" lon="10.1361626"><ele>149.0</ele><time>2026-04-24T13:49:44.167Z</time></trkpt><trkpt lat="36.4124162" lon="10.136084"><ele>149.0</ele><time>2026-04-24T13:49:45.19Z</time></trkpt><trkpt lat="36.4124497" lon="10.1359855"><ele>149.0</ele><time>2026-04-24T13:49:46.209Z</time></trkpt><trkpt lat="36.4124923" lon="10.1358933"><ele>149.0</ele><time>2026-04-24T13:49:47.214Z</time></trkpt><trkpt lat="36.412543" lon="10.1357998"><ele>149.0</ele><time>2026-04-24T13:49:48.191Z</time></trkpt><trkpt lat="36.4126008" lon="10.1357068"><ele>149.0</ele><time>2026-04-24T13:49:49.201Z</time></trkpt><trkpt lat="36.412666" lon="10.1356158"><ele>149.2</ele><time>2026-04-24T13:49:50.184Z</time></trkpt><trkpt lat="36.4127346" lon="10.1355267"><ele>149.4</ele><time>2026-04-24T13:49:51.195Z</time></trkpt><trkpt lat="36.4128022" lon="10.1354457"><ele>149.6</ele><time>2026-04-24T13:49:52.218Z</time></trkpt><trkpt lat="36.4128709" lon="10.1353677"><ele>149.8</ele><time>2026-04-24T13:49:53.184Z</time></trkpt><trkpt lat="36.4129345" lon="10.1352911"><ele>150.0</ele><time>2026-04-24T13:49:54.219Z</time></trkpt><trkpt lat="36.4129992" lon="10.1352091"><ele>150.0</ele><time>2026-04-24T13:49:55.191Z</time></trkpt><trkpt lat="36.413061" lon="10.1351267"><ele>150.0</ele><time>2026-04-24T13:49:56.188Z</time></trkpt><trkpt lat="36.4131237" lon="10.1350427"><ele>150.0</ele><time>2026-04-24T13:49:57.188Z</time></trkpt><trkpt lat="36.4131853" lon="10.1349598"><ele>150.0</ele><time>2026-04-24T13:49:58.19Z</time></trkpt><trkpt lat="36.4132443" lon="10.1348796"><ele>150.0</ele><time>2026-04-24T13:49:59.191Z</time></trkpt><trkpt lat="36.4132993" lon="10.1347971"><ele>150.0</ele><time>2026-04-24T13:50:00.201Z</time></trkpt><trkpt lat="36.413352" lon="10.1347103"><ele>150.5</ele><time>2026-04-24T13:50:01.202Z</time></trkpt><trkpt lat="36.4134113" lon="10.1346168"><ele>151.0</ele><time>2026-04-24T13:50:02.205Z</time></trkpt><trkpt lat="36.4134787" lon="10.1345058"><ele>151.5</ele><time>2026-04-24T13:50:03.224Z</time></trkpt><trkpt lat="36.4135598" lon="10.1343781"><ele>152.0</ele><time>2026-04-24T13:50:04.202Z</time></trkpt><trkpt lat="36.4136504" lon="10.1342476"><ele>152.0</ele><time>2026-04-24T13:50:05.189Z</time></trkpt><trkpt lat="36.4137418" lon="10.1341166"><ele>152.0</ele><time>2026-04-24T13:50:06.199Z</time></trkpt><trkpt lat="36.413829" lon="10.1339887"><ele>152.0</ele><time>2026-04-24T13:50:07.197Z</time></trkpt><trkpt lat="36.413908" lon="10.1338687"><ele>152.0</ele><time>2026-04-24T13:50:08.21Z</time></trkpt><trkpt lat="36.4139824" lon="10.133757"><ele>151.5</ele><time>2026-04-24T13:50:09.205Z</time></trkpt><trkpt lat="36.4140548" lon="10.1336492"><ele>151.0</ele><time>2026-04-24T13:50:10.195Z</time></trkpt><trkpt lat="36.4141318" lon="10.1335375"><ele>150.5</ele><time>2026-04-24T13:50:11.184Z</time></trkpt><trkpt lat="36.4142102" lon="10.1334231"><ele>150.0</ele><time>2026-04-24T13:50:12.185Z</time></trkpt><trkpt lat="36.4142916" lon="10.1333053"><ele>150.25</ele><time>2026-04-24T13:50:13.194Z</time></trkpt><trkpt lat="36.4143768" lon="10.1331856"><ele>150.5</ele><time>2026-04-24T13:50:14.187Z</time></trkpt><trkpt lat="36.4144616" lon="10.1330726"><ele>150.75</ele><time>2026-04-24T13:50:15.202Z</time></trkpt><trkpt lat="36.4145437" lon="10.1329645"><ele>151.0</ele><time>2026-04-24T13:50:16.206Z</time></trkpt><trkpt lat="36.4146242" lon="10.1328631"><ele>150.5</ele><time>2026-04-24T13:50:17.206Z</time></trkpt><trkpt lat="36.4146995" lon="10.1327776"><ele>150.0</ele><time>2026-04-24T13:50:18.208Z</time></trkpt><trkpt lat="36.4147654" lon="10.1327028"><ele>149.5</ele><time>2026-04-24T13:50:19.199Z</time></trkpt><trkpt lat="36.4148295" lon="10.1326355"><ele>149.0</ele><time>2026-04-24T13:50:20.207Z</time></trkpt><trkpt lat="36.4148938" lon="10.1325823"><ele>148.5</ele><time>2026-04-24T13:50:21.183Z</time></trkpt><trkpt lat="36.4149596" lon="10.1325449"><ele>148.0</ele><time>2026-04-24T13:50:22.201Z</time></trkpt><trkpt lat="36.4150232" lon="10.1324996"><ele>148.0</ele><time>2026-04-24T13:50:23.179Z</time></trkpt><trkpt lat="36.4150744" lon="10.1324397"><ele>148.0</ele><time>2026-04-24T13:50:24.203Z</time></trkpt><trkpt lat="36.415119" lon="10.1323628"><ele>148.0</ele><time>2026-04-24T13:50:25.198Z</time></trkpt><trkpt lat="36.4151613" lon="10.1322728"><ele>148.0</ele><time>2026-04-24T13:50:26.245Z</time></trkpt><trkpt lat="36.4152064" lon="10.1321783"><ele>148.0</ele><time>2026-04-24T13:50:27.2Z</time></trkpt><trkpt lat="36.4152637" lon="10.1320876"><ele>148.0</ele><time>2026-04-24T13:50:28.213Z</time></trkpt><trkpt lat="36.4153324" lon="10.132001"><ele>147.8</ele><time>2026-04-24T13:50:29.195Z</time></trkpt><trkpt lat="36.4154043" lon="10.1319133"><ele>147.60000000000002</ele><time>2026-04-24T13:50:30.202Z</time></trkpt><trkpt lat="36.4154794" lon="10.1318249"><ele>147.39999999999998</ele><time>2026-04-24T13:50:31.202Z</time></trkpt><trkpt lat="36.4155556" lon="10.1317343"><ele>147.2</ele><time>2026-04-24T13:50:32.203Z</time></trkpt><trkpt lat="36.4156333" lon="10.1316395"><ele>147.0</ele><time>2026-04-24T13:50:33.198Z</time></trkpt><trkpt lat="36.4157138" lon="10.1315423"><ele>147.0</ele><time>2026-04-24T13:50:34.165Z</time></trkpt><trkpt lat="36.4157952" lon="10.1314447"><ele>147.0</ele><time>2026-04-24T13:50:35.168Z</time></trkpt><trkpt lat="36.4158765" lon="10.1313445"><ele>147.0</ele><time>2026-04-24T13:50:36.182Z</time></trkpt><trkpt lat="36.4159612" lon="10.1312433"><ele>147.0</ele><time>2026-04-24T13:50:37.207Z</time></trkpt><trkpt lat="36.4160486" lon="10.1311433"><ele>147.0</ele><time>2026-04-24T13:50:38.181Z</time></trkpt><trkpt lat="36.4161364" lon="10.1310432"><ele>147.0</ele><time>2026-04-24T13:50:39.185Z</time></trkpt><trkpt lat="36.4162248" lon="10.1309413"><ele>147.0</ele><time>2026-04-24T13:50:40.179Z</time></trkpt><trkpt lat="36.416316" lon="10.1308375"><ele>147.0</ele><time>2026-04-24T13:50:41.183Z</time></trkpt><trkpt lat="36.4164142" lon="10.1307346"><ele>147.0</ele><time>2026-04-24T13:50:42.198Z</time></trkpt><trkpt lat="36.4165141" lon="10.1306277"><ele>147.0</ele><time>2026-04-24T13:50:43.191Z</time></trkpt><trkpt lat="36.4166176" lon="10.130514"><ele>147.0</ele><time>2026-04-24T13:50:44.194Z</time></trkpt><trkpt lat="36.4167217" lon="10.1303981"><ele>147.0</ele><time>2026-04-24T13:50:45.196Z</time></trkpt><trkpt lat="36.4168295" lon="10.1302835"><ele>147.0</ele><time>2026-04-24T13:50:46.199Z</time></trkpt><trkpt lat="36.4169417" lon="10.1301668"><ele>147.0</ele><time>2026-04-24T13:50:47.206Z</time></trkpt><trkpt lat="36.4170542" lon="10.1300472"><ele>147.0</ele><time>2026-04-24T13:50:48.214Z</time></trkpt><trkpt lat="36.4171743" lon="10.1299208"><ele>146.33333333333334</ele><time>2026-04-24T13:50:49.192Z</time></trkpt><trkpt lat="36.4172977" lon="10.129793"><ele>145.66666666666669</ele><time>2026-04-24T13:50:50.203Z</time></trkpt><trkpt lat="36.4174212" lon="10.1296628"><ele>145.0</ele><time>2026-04-24T13:50:51.192Z</time></trkpt><trkpt lat="36.4175468" lon="10.1295295"><ele>145.0</ele><time>2026-04-24T13:50:52.195Z</time></trkpt><trkpt lat="36.4176686" lon="10.1293987"><ele>145.0</ele><time>2026-04-24T13:50:53.198Z</time></trkpt><trkpt lat="36.4177873" lon="10.1292721"><ele>145.0</ele><time>2026-04-24T13:50:54.203Z</time></trkpt><trkpt lat="36.4178992" lon="10.1291455"><ele>144.75</ele><time>2026-04-24T13:50:55.207Z</time></trkpt><trkpt lat="36.4180093" lon="10.1290181"><ele>144.5</ele><time>2026-04-24T13:50:56.208Z</time></trkpt><trkpt lat="36.4181098" lon="10.1288957"><ele>144.25</ele><time>2026-04-24T13:50:57.215Z</time></trkpt><trkpt lat="36.41821" lon="10.1287763"><ele>144.0</ele><time>2026-04-24T13:50:58.207Z</time></trkpt><trkpt lat="36.4183104" lon="10.1286567"><ele>144.0</ele><time>2026-04-24T13:50:59.207Z</time></trkpt><trkpt lat="36.4184108" lon="10.1285387"><ele>144.0</ele><time>2026-04-24T13:51:00.198Z</time></trkpt><trkpt lat="36.4185099" lon="10.1284221"><ele>144.0</ele><time>2026-04-24T13:51:01.19Z</time></trkpt><trkpt lat="36.4186074" lon="10.1283066"><ele>144.0</ele><time>2026-04-24T13:51:02.207Z</time></trkpt><trkpt lat="36.4187074" lon="10.1281914"><ele>144.25</ele><time>2026-04-24T13:51:03.192Z</time></trkpt><trkpt lat="36.4188058" lon="10.128073"><ele>144.5</ele><time>2026-04-24T13:51:04.195Z</time></trkpt><trkpt lat="36.4189045" lon="10.1279544"><ele>144.75</ele><time>2026-04-24T13:51:05.199Z</time></trkpt><trkpt lat="36.4190045" lon="10.1278368"><ele>145.0</ele><time>2026-04-24T13:51:06.191Z</time></trkpt><trkpt lat="36.4191071" lon="10.1277167"><ele>144.25</ele><time>2026-04-24T13:51:07.2Z</time></trkpt><trkpt lat="36.4192087" lon="10.1275956"><ele>143.5</ele><time>2026-04-24T13:51:08.203Z</time></trkpt><trkpt lat="36.4193116" lon="10.1274742"><ele>142.75</ele><time>2026-04-24T13:51:09.215Z</time></trkpt><trkpt lat="36.4194145" lon="10.1273535"><ele>142.0</ele><time>2026-04-24T13:51:10.219Z</time></trkpt><trkpt lat="36.419518" lon="10.1272319"><ele>142.0</ele><time>2026-04-24T13:51:11.201Z</time></trkpt><trkpt lat="36.4196222" lon="10.1271107"><ele>142.0</ele><time>2026-04-24T13:51:12.228Z</time></trkpt><trkpt lat="36.4197237" lon="10.1269898"><ele>142.0</ele><time>2026-04-24T13:51:13.214Z</time></trkpt><trkpt lat="36.4198266" lon="10.1268694"><ele>142.0</ele><time>2026-04-24T13:51:14.199Z</time></trkpt><trkpt lat="36.4199309" lon="10.1267483"><ele>142.0</ele><time>2026-04-24T13:51:15.191Z</time></trkpt><trkpt lat="36.4200349" lon="10.1266231"><ele>142.0</ele><time>2026-04-24T13:51:16.184Z</time></trkpt><trkpt lat="36.4201409" lon="10.126493"><ele>142.0</ele><time>2026-04-24T13:51:17.21Z</time></trkpt><trkpt lat="36.4202492" lon="10.1263636"><ele>142.0</ele><time>2026-04-24T13:51:18.201Z</time></trkpt><trkpt lat="36.4203573" lon="10.1262365"><ele>142.0</ele><time>2026-04-24T13:51:19.196Z</time></trkpt><trkpt lat="36.4204648" lon="10.1261091"><ele>142.0</ele><time>2026-04-24T13:51:20.193Z</time></trkpt><trkpt lat="36.4205721" lon="10.1259811"><ele>142.0</ele><time>2026-04-24T13:51:21.185Z</time></trkpt><trkpt lat="36.4206816" lon="10.1258539"><ele>142.0</ele><time>2026-04-24T13:51:22.2Z</time></trkpt><trkpt lat="36.4207942" lon="10.1257245"><ele>141.33333333333334</ele><time>2026-04-24T13:51:23.199Z</time></trkpt><trkpt lat="36.4209093" lon="10.1255992"><ele>140.66666666666666</ele><time>2026-04-24T13:51:24.203Z</time></trkpt><trkpt lat="36.4210247" lon="10.1254804"><ele>140.0</ele><time>2026-04-24T13:51:25.185Z</time></trkpt><trkpt lat="36.4211486" lon="10.1253677"><ele>140.0</ele><time>2026-04-24T13:51:26.205Z</time></trkpt><trkpt lat="36.421278" lon="10.1252646"><ele>140.0</ele><time>2026-04-24T13:51:27.202Z</time></trkpt><trkpt lat="36.4214135" lon="10.1251692"><ele>140.0</ele><time>2026-04-24T13:51:28.199Z</time></trkpt><trkpt lat="36.4215545" lon="10.125082"><ele>139.33333333333331</ele><time>2026-04-24T13:51:29.185Z</time></trkpt><trkpt lat="36.4216999" lon="10.1249999"><ele>138.66666666666666</ele><time>2026-04-24T13:51:30.196Z</time></trkpt><trkpt lat="36.4218494" lon="10.1249214"><ele>138.0</ele><time>2026-04-24T13:51:31.183Z</time></trkpt><trkpt lat="36.4219993" lon="10.1248473"><ele>137.33333333333334</ele><time>2026-04-24T13:51:32.174Z</time></trkpt><trkpt lat="36.4221502" lon="10.1247733"><ele>136.66666666666669</ele><time>2026-04-24T13:51:33.184Z</time></trkpt><trkpt lat="36.4223026" lon="10.1246994"><ele>136.0</ele><time>2026-04-24T13:51:34.178Z</time></trkpt><trkpt lat="36.4224594" lon="10.124622"><ele>136.0</ele><time>2026-04-24T13:51:35.181Z</time></trkpt><trkpt lat="36.4226225" lon="10.1245387"><ele>136.0</ele><time>2026-04-24T13:51:36.178Z</time></trkpt><trkpt lat="36.4227871" lon="10.124448"><ele>136.0</ele><time>2026-04-24T13:51:37.19Z</time></trkpt><trkpt lat="36.4229497" lon="10.1243528"><ele>136.0</ele><time>2026-04-24T13:51:38.178Z</time></trkpt><trkpt lat="36.4231108" lon="10.1242529"><ele>136.0</ele><time>2026-04-24T13:51:39.188Z</time></trkpt><trkpt lat="36.4232689" lon="10.124146"><ele>136.0</ele><time>2026-04-24T13:51:40.188Z</time></trkpt><trkpt lat="36.423422" lon="10.1240316"><ele>135.66666666666669</ele><time>2026-04-24T13:51:41.188Z</time></trkpt><trkpt lat="36.4235736" lon="10.1239102"><ele>135.33333333333334</ele><time>2026-04-24T13:51:42.181Z</time></trkpt><trkpt lat="36.4237219" lon="10.123787"><ele>135.0</ele><time>2026-04-24T13:51:43.195Z</time></trkpt><trkpt lat="36.4238691" lon="10.123659"><ele>134.0</ele><time>2026-04-24T13:51:44.194Z</time></trkpt><trkpt lat="36.4240176" lon="10.123532"><ele>133.0</ele><time>2026-04-24T13:51:45.189Z</time></trkpt><trkpt lat="36.4241642" lon="10.1234026"><ele>132.0</ele><time>2026-04-24T13:51:46.201Z</time></trkpt><trkpt lat="36.4243104" lon="10.1232721"><ele>132.66666666666666</ele><time>2026-04-24T13:51:47.203Z</time></trkpt><trkpt lat="36.4244563" lon="10.1231393"><ele>133.33333333333331</ele><time>2026-04-24T13:51:48.205Z</time></trkpt><trkpt lat="36.424602" lon="10.123004"><ele>134.0</ele><time>2026-04-24T13:51:49.198Z</time></trkpt><trkpt lat="36.4247478" lon="10.1228684"><ele>134.0</ele><time>2026-04-24T13:51:50.188Z</time></trkpt><trkpt lat="36.4248923" lon="10.1227318"><ele>134.0</ele><time>2026-04-24T13:51:51.194Z</time></trkpt><trkpt lat="36.4250366" lon="10.1225955"><ele>134.0</ele><time>2026-04-24T13:51:52.195Z</time></trkpt><trkpt lat="36.4251786" lon="10.1224539"><ele>134.66666666666666</ele><time>2026-04-24T13:51:53.199Z</time></trkpt><trkpt lat="36.4253181" lon="10.1223046"><ele>135.33333333333334</ele><time>2026-04-24T13:51:54.195Z</time></trkpt><trkpt lat="36.4254544" lon="10.1221552"><ele>136.0</ele><time>2026-04-24T13:51:55.189Z</time></trkpt><trkpt lat="36.4255925" lon="10.1220057"><ele>136.0</ele><time>2026-04-24T13:51:56.195Z</time></trkpt><trkpt lat="36.4257323" lon="10.1218584"><ele>136.0</ele><time>2026-04-24T13:51:57.2Z</time></trkpt><trkpt lat="36.4258708" lon="10.121711"><ele>136.0</ele><time>2026-04-24T13:51:58.199Z</time></trkpt><trkpt lat="36.4260134" lon="10.121565"><ele>136.0</ele><time>2026-04-24T13:51:59.19Z</time></trkpt><trkpt lat="36.4261531" lon="10.1214184"><ele>136.0</ele><time>2026-04-24T13:52:00.199Z</time></trkpt><trkpt lat="36.4262931" lon="10.1212729"><ele>136.0</ele><time>2026-04-24T13:52:01.176Z</time></trkpt><trkpt lat="36.4264325" lon="10.1211273"><ele>136.0</ele><time>2026-04-24T13:52:02.187Z</time></trkpt><trkpt lat="36.426563" lon="10.1209861"><ele>136.0</ele><time>2026-04-24T13:52:03.196Z</time></trkpt><trkpt lat="36.4266887" lon="10.1208484"><ele>136.0</ele><time>2026-04-24T13:52:04.204Z</time></trkpt><trkpt lat="36.426812" lon="10.1207163"><ele>136.0</ele><time>2026-04-24T13:52:05.196Z</time></trkpt><trkpt lat="36.4269275" lon="10.1205896"><ele>136.0</ele><time>2026-04-24T13:52:06.187Z</time></trkpt><trkpt lat="36.4270393" lon="10.1204639"><ele>136.0</ele><time>2026-04-24T13:52:07.191Z</time></trkpt><trkpt lat="36.4271479" lon="10.1203386"><ele>135.66666666666669</ele><time>2026-04-24T13:52:08.196Z</time></trkpt><trkpt lat="36.4272553" lon="10.1202067"><ele>135.33333333333334</ele><time>2026-04-24T13:52:09.202Z</time></trkpt><trkpt lat="36.427362" lon="10.1200714"><ele>135.0</ele><time>2026-04-24T13:52:10.196Z</time></trkpt><trkpt lat="36.4274696" lon="10.1199333"><ele>135.33333333333334</ele><time>2026-04-24T13:52:11.192Z</time></trkpt><trkpt lat="36.4275739" lon="10.1197907"><ele>135.66666666666669</ele><time>2026-04-24T13:52:12.19Z</time></trkpt><trkpt lat="36.4276752" lon="10.1196434"><ele>136.0</ele><time>2026-04-24T13:52:13.179Z</time></trkpt><trkpt lat="36.4277754" lon="10.1194927"><ele>136.0</ele><time>2026-04-24T13:52:14.186Z</time></trkpt><trkpt lat="36.4278719" lon="10.119349"><ele>136.0</ele><time>2026-04-24T13:52:15.17Z</time></trkpt><trkpt lat="36.427971" lon="10.1192018"><ele>136.0</ele><time>2026-04-24T13:52:16.16Z</time></trkpt><trkpt lat="36.4280724" lon="10.1190651"><ele>135.66666666666669</ele><time>2026-04-24T13:52:17.198Z</time></trkpt><trkpt lat="36.4281792" lon="10.118927"><ele>135.33333333333334</ele><time>2026-04-24T13:52:18.194Z</time></trkpt><trkpt lat="36.4282841" lon="10.1187878"><ele>135.0</ele><time>2026-04-24T13:52:19.205Z</time></trkpt><trkpt lat="36.4283851" lon="10.1186447"><ele>135.0</ele><time>2026-04-24T13:52:20.202Z</time></trkpt><trkpt lat="36.4284897" lon="10.118498"><ele>135.0</ele><time>2026-04-24T13:52:21.198Z</time></trkpt><trkpt lat="36.4286004" lon="10.1183376"><ele>135.0</ele><time>2026-04-24T13:52:22.193Z</time></trkpt><trkpt lat="36.4287154" lon="10.1181652"><ele>135.0</ele><time>2026-04-24T13:52:23.199Z</time></trkpt><trkpt lat="36.4288341" lon="10.1179868"><ele>135.0</ele><time>2026-04-24T13:52:24.197Z</time></trkpt><trkpt lat="36.4289543" lon="10.1178024"><ele>135.0</ele><time>2026-04-24T13:52:25.204Z</time></trkpt><trkpt lat="36.4290718" lon="10.1176166"><ele>135.0</ele><time>2026-04-24T13:52:26.202Z</time></trkpt><trkpt lat="36.429189" lon="10.1174338"><ele>135.0</ele><time>2026-04-24T13:52:27.181Z</time></trkpt><trkpt lat="36.4293015" lon="10.1172502"><ele>135.0</ele><time>2026-04-24T13:52:28.203Z</time></trkpt><trkpt lat="36.4294087" lon="10.1170703"><ele>135.33333333333334</ele><time>2026-04-24T13:52:29.197Z</time></trkpt><trkpt lat="36.4295138" lon="10.1168975"><ele>135.66666666666669</ele><time>2026-04-24T13:52:30.195Z</time></trkpt><trkpt lat="36.4296137" lon="10.1167302"><ele>136.0</ele><time>2026-04-24T13:52:31.22Z</time></trkpt><trkpt lat="36.4297103" lon="10.1165665"><ele>136.0</ele><time>2026-04-24T13:52:32.194Z</time></trkpt><trkpt lat="36.4298047" lon="10.1164063"><ele>136.0</ele><time>2026-04-24T13:52:33.197Z</time></trkpt><trkpt lat="36.4298978" lon="10.1162453"><ele>136.0</ele><time>2026-04-24T13:52:34.2Z</time></trkpt><trkpt lat="36.4299876" lon="10.1160868"><ele>136.0</ele><time>2026-04-24T13:52:35.207Z</time></trkpt><trkpt lat="36.4300812" lon="10.1159262"><ele>136.0</ele><time>2026-04-24T13:52:36.19Z</time></trkpt><trkpt lat="36.4301754" lon="10.1157621"><ele>136.0</ele><time>2026-04-24T13:52:37.202Z</time></trkpt><trkpt lat="36.4302734" lon="10.1155955"><ele>136.0</ele><time>2026-04-24T13:52:38.167Z</time></trkpt><trkpt lat="36.4303716" lon="10.1154263"><ele>136.0</ele><time>2026-04-24T13:52:39.193Z</time></trkpt><trkpt lat="36.4304704" lon="10.1152564"><ele>136.0</ele><time>2026-04-24T13:52:40.222Z</time></trkpt><trkpt lat="36.4305682" lon="10.1150884"><ele>136.33333333333334</ele><time>2026-04-24T13:52:41.191Z</time></trkpt><trkpt lat="36.4306656" lon="10.1149215"><ele>136.66666666666666</ele><time>2026-04-24T13:52:42.172Z</time></trkpt><trkpt lat="36.4307623" lon="10.1147541"><ele>137.0</ele><time>2026-04-24T13:52:43.166Z</time></trkpt><trkpt lat="36.4308601" lon="10.1145827"><ele>137.0</ele><time>2026-04-24T13:52:44.192Z</time></trkpt><trkpt lat="36.4309585" lon="10.1144119"><ele>137.0</ele><time>2026-04-24T13:52:45.198Z</time></trkpt><trkpt lat="36.4310582" lon="10.1142402"><ele>137.0</ele><time>2026-04-24T13:52:46.186Z</time></trkpt><trkpt lat="36.4311594" lon="10.1140634"><ele>137.0</ele><time>2026-04-24T13:52:47.192Z</time></trkpt><trkpt lat="36.4312591" lon="10.1138847"><ele>137.0</ele><time>2026-04-24T13:52:48.199Z</time></trkpt><trkpt lat="36.4313617" lon="10.113706"><ele>137.0</ele><time>2026-04-24T13:52:49.203Z</time></trkpt><trkpt lat="36.4314663" lon="10.1135259"><ele>137.0</ele><time>2026-04-24T13:52:50.169Z</time></trkpt><trkpt lat="36.4315695" lon="10.1133479"><ele>137.0</ele><time>2026-04-24T13:52:51.197Z</time></trkpt><trkpt lat="36.4316713" lon="10.113173"><ele>137.0</ele><time>2026-04-24T13:52:52.195Z</time></trkpt><trkpt lat="36.4317751" lon="10.1129959"><ele>137.0</ele><time>2026-04-24T13:52:53.193Z</time></trkpt><trkpt lat="36.4318771" lon="10.112818"><ele>137.0</ele><time>2026-04-24T13:52:54.218Z</time></trkpt><trkpt lat="36.4319861" lon="10.112633"><ele>137.0</ele><time>2026-04-24T13:52:55.197Z</time></trkpt><trkpt lat="36.4320948" lon="10.1124452"><ele>136.66666666666666</ele><time>2026-04-24T13:52:56.214Z</time></trkpt><trkpt lat="36.432207" lon="10.1122514"><ele>136.33333333333334</ele><time>2026-04-24T13:52:57.183Z</time></trkpt><trkpt lat="36.4323195" lon="10.1120584"><ele>136.0</ele><time>2026-04-24T13:52:58.202Z</time></trkpt><trkpt lat="36.4324326" lon="10.1118664"><ele>136.0</ele><time>2026-04-24T13:52:59.179Z</time></trkpt><trkpt lat="36.4326579" lon="10.1114859"><ele>136.0</ele><time>2026-04-24T13:53:01.216Z</time></trkpt><trkpt lat="36.4327691" lon="10.1112961"><ele>136.0</ele><time>2026-04-24T13:53:02.179Z</time></trkpt><trkpt lat="36.4328817" lon="10.1111049"><ele>136.0</ele><time>2026-04-24T13:53:03.189Z</time></trkpt><trkpt lat="36.4329976" lon="10.1109131"><ele>136.0</ele><time>2026-04-24T13:53:04.213Z</time></trkpt><trkpt lat="36.4331111" lon="10.1107197"><ele>135.66666666666669</ele><time>2026-04-24T13:53:05.194Z</time></trkpt><trkpt lat="36.4332236" lon="10.1105289"><ele>135.33333333333334</ele><time>2026-04-24T13:53:06.19Z</time></trkpt><trkpt lat="36.4333349" lon="10.110338"><ele>135.0</ele><time>2026-04-24T13:53:07.197Z</time></trkpt><trkpt lat="36.4334411" lon="10.1101515"><ele>135.0</ele><time>2026-04-24T13:53:08.208Z</time></trkpt><trkpt lat="36.4335506" lon="10.1099637"><ele>135.0</ele><time>2026-04-24T13:53:09.196Z</time></trkpt><trkpt lat="36.4336612" lon="10.1097748"><ele>135.0</ele><time>2026-04-24T13:53:10.179Z</time></trkpt><trkpt lat="36.4337716" lon="10.1095852"><ele>135.33333333333334</ele><time>2026-04-24T13:53:11.201Z</time></trkpt><trkpt lat="36.4338811" lon="10.109393"><ele>135.66666666666669</ele><time>2026-04-24T13:53:12.193Z</time></trkpt><trkpt lat="36.4339912" lon="10.1092018"><ele>136.0</ele><time>2026-04-24T13:53:13.195Z</time></trkpt><trkpt lat="36.4341046" lon="10.1090104"><ele>136.0</ele><time>2026-04-24T13:53:14.211Z</time></trkpt><trkpt lat="36.4342182" lon="10.1088166"><ele>136.0</ele><time>2026-04-24T13:53:15.19Z</time></trkpt><trkpt lat="36.4343354" lon="10.1086202"><ele>136.0</ele><time>2026-04-24T13:53:16.204Z</time></trkpt><trkpt lat="36.434455" lon="10.108424"><ele>135.66666666666669</ele><time>2026-04-24T13:53:17.196Z</time></trkpt><trkpt lat="36.4345761" lon="10.1082296"><ele>135.33333333333334</ele><time>2026-04-24T13:53:18.194Z</time></trkpt><trkpt lat="36.4346967" lon="10.108041"><ele>135.0</ele><time>2026-04-24T13:53:19.183Z</time></trkpt><trkpt lat="36.4348256" lon="10.107851"><ele>135.0</ele><time>2026-04-24T13:53:20.192Z</time></trkpt><trkpt lat="36.4349528" lon="10.1076714"><ele>135.0</ele><time>2026-04-24T13:53:21.181Z</time></trkpt><trkpt lat="36.4350799" lon="10.1074972"><ele>135.0</ele><time>2026-04-24T13:53:22.191Z</time></trkpt><trkpt lat="36.4352018" lon="10.1073307"><ele>135.0</ele><time>2026-04-24T13:53:23.188Z</time></trkpt><trkpt lat="36.4353213" lon="10.1071653"><ele>135.0</ele><time>2026-04-24T13:53:24.204Z</time></trkpt><trkpt lat="36.4354382" lon="10.1070047"><ele>135.0</ele><time>2026-04-24T13:53:25.194Z</time></trkpt><trkpt lat="36.4355516" lon="10.1068449"><ele>134.33333333333334</ele><time>2026-04-24T13:53:26.185Z</time></trkpt><trkpt lat="36.4356656" lon="10.1066797"><ele>133.66666666666669</ele><time>2026-04-24T13:53:27.206Z</time></trkpt><trkpt lat="36.4357798" lon="10.1065063"><ele>133.0</ele><time>2026-04-24T13:53:28.2Z</time></trkpt><trkpt lat="36.4358955" lon="10.1063306"><ele>133.0</ele><time>2026-04-24T13:53:29.194Z</time></trkpt><trkpt lat="36.4360097" lon="10.1061522"><ele>133.0</ele><time>2026-04-24T13:53:30.203Z</time></trkpt><trkpt lat="36.4361213" lon="10.1059699"><ele>133.0</ele><time>2026-04-24T13:53:31.197Z</time></trkpt><trkpt lat="36.4362317" lon="10.1057843"><ele>133.0</ele><time>2026-04-24T13:53:32.185Z</time></trkpt><trkpt lat="36.4363392" lon="10.1055958"><ele>133.0</ele><time>2026-04-24T13:53:33.181Z</time></trkpt><trkpt lat="36.4364464" lon="10.1054083"><ele>133.0</ele><time>2026-04-24T13:53:34.199Z</time></trkpt><trkpt lat="36.4365565" lon="10.1052204"><ele>133.0</ele><time>2026-04-24T13:53:35.186Z</time></trkpt><trkpt lat="36.4366593" lon="10.1050355"><ele>133.0</ele><time>2026-04-24T13:53:36.188Z</time></trkpt><trkpt lat="36.436756" lon="10.1048501"><ele>133.0</ele><time>2026-04-24T13:53:37.183Z</time></trkpt><trkpt lat="36.4368494" lon="10.1046654"><ele>132.33333333333334</ele><time>2026-04-24T13:53:38.201Z</time></trkpt><trkpt lat="36.4369445" lon="10.104484"><ele>131.66666666666666</ele><time>2026-04-24T13:53:39.193Z</time></trkpt><trkpt lat="36.4370366" lon="10.1043051"><ele>131.0</ele><time>2026-04-24T13:53:40.204Z</time></trkpt><trkpt lat="36.4371269" lon="10.1041307"><ele>129.66666666666666</ele><time>2026-04-24T13:53:41.182Z</time></trkpt><trkpt lat="36.4372131" lon="10.103964"><ele>128.33333333333334</ele><time>2026-04-24T13:53:42.193Z</time></trkpt><trkpt lat="36.4372962" lon="10.1038021"><ele>127.0</ele><time>2026-04-24T13:53:43.2Z</time></trkpt><trkpt lat="36.4373731" lon="10.1036523"><ele>127.0</ele><time>2026-04-24T13:53:44.194Z</time></trkpt><trkpt lat="36.4374406" lon="10.1035141"><ele>127.0</ele><time>2026-04-24T13:53:45.189Z</time></trkpt><trkpt lat="36.4375023" lon="10.1033904"><ele>127.0</ele><time>2026-04-24T13:53:46.19Z</time></trkpt><trkpt lat="36.4375614" lon="10.1032761"><ele>127.0</ele><time>2026-04-24T13:53:47.202Z</time></trkpt><trkpt lat="36.4376212" lon="10.1031726"><ele>127.16666666666667</ele><time>2026-04-24T13:53:48.188Z</time></trkpt><trkpt lat="36.437683" lon="10.1030911"><ele>127.33333333333334</ele><time>2026-04-24T13:53:49.185Z</time></trkpt><trkpt lat="36.437741" lon="10.1030269"><ele>127.5</ele><time>2026-04-24T13:53:50.193Z</time></trkpt><trkpt lat="36.437786" lon="10.1029589"><ele>127.66666666666666</ele><time>2026-04-24T13:53:51.196Z</time></trkpt><trkpt lat="36.4378157" lon="10.1028887"><ele>127.83333333333333</ele><time>2026-04-24T13:53:52.194Z</time></trkpt><trkpt lat="36.4378264" lon="10.1028102"><ele>128.0</ele><time>2026-04-24T13:53:53.203Z</time></trkpt><trkpt lat="36.4377809" lon="10.1026674"><ele>127.99999999999999</ele><time>2026-04-24T13:53:55.188Z</time></trkpt><trkpt lat="36.4376749" lon="10.1025985"><ele>128.0</ele><time>2026-04-24T13:53:57.187Z</time></trkpt><trkpt lat="36.4376035" lon="10.1025972"><ele>128.0</ele><time>2026-04-24T13:53:58.193Z</time></trkpt><trkpt lat="36.4375265" lon="10.102608"><ele>128.0</ele><time>2026-04-24T13:53:59.173Z</time></trkpt><trkpt lat="36.4374414" lon="10.1026051"><ele>127.99999999999999</ele><time>2026-04-24T13:54:00.194Z</time></trkpt><trkpt lat="36.4373498" lon="10.1025936"><ele>128.0</ele><time>2026-04-24T13:54:01.19Z</time></trkpt><trkpt lat="36.4372514" lon="10.1025605"><ele>128.0</ele><time>2026-04-24T13:54:02.208Z</time></trkpt><trkpt lat="36.4371483" lon="10.102516"><ele>128.0</ele><time>2026-04-24T13:54:03.193Z</time></trkpt><trkpt lat="36.4370483" lon="10.102456"><ele>128.0</ele><time>2026-04-24T13:54:04.196Z</time></trkpt><trkpt lat="36.4369459" lon="10.1023895"><ele>128.0</ele><time>2026-04-24T13:54:05.176Z</time></trkpt><trkpt lat="36.4368429" lon="10.1023218"><ele>128.5</ele><time>2026-04-24T13:54:06.199Z</time></trkpt><trkpt lat="36.4367422" lon="10.1022539"><ele>129.0</ele><time>2026-04-24T13:54:07.173Z</time></trkpt><trkpt lat="36.4366329" lon="10.1021819"><ele>129.5</ele><time>2026-04-24T13:54:08.186Z</time></trkpt><trkpt lat="36.4365116" lon="10.1020978"><ele>130.0</ele><time>2026-04-24T13:54:09.183Z</time></trkpt><trkpt lat="36.4363831" lon="10.10201"><ele>130.66666666666669</ele><time>2026-04-24T13:54:10.221Z</time></trkpt><trkpt lat="36.4362535" lon="10.1019217"><ele>131.33333333333334</ele><time>2026-04-24T13:54:11.186Z</time></trkpt><trkpt lat="36.4361193" lon="10.1018328"><ele>132.0</ele><time>2026-04-24T13:54:12.187Z</time></trkpt><trkpt lat="36.4359839" lon="10.1017331"><ele>132.0</ele><time>2026-04-24T13:54:13.189Z</time></trkpt><trkpt lat="36.4358488" lon="10.1016338"><ele>132.0</ele><time>2026-04-24T13:54:14.19Z</time></trkpt><trkpt lat="36.4357114" lon="10.1015368"><ele>132.0</ele><time>2026-04-24T13:54:15.192Z</time></trkpt><trkpt lat="36.4355707" lon="10.1014366"><ele>132.33333333333334</ele><time>2026-04-24T13:54:16.185Z</time></trkpt><trkpt lat="36.4354262" lon="10.1013361"><ele>132.66666666666669</ele><time>2026-04-24T13:54:17.196Z</time></trkpt><trkpt lat="36.4352812" lon="10.1012349"><ele>133.0</ele><time>2026-04-24T13:54:18.199Z</time></trkpt><trkpt lat="36.4351371" lon="10.1011357"><ele>133.0</ele><time>2026-04-24T13:54:19.187Z</time></trkpt><trkpt lat="36.4349928" lon="10.1010407"><ele>133.0</ele><time>2026-04-24T13:54:20.181Z</time></trkpt><trkpt lat="36.434851" lon="10.100944"><ele>133.0</ele><time>2026-04-24T13:54:21.185Z</time></trkpt><trkpt lat="36.4347104" lon="10.1008546"><ele>134.0</ele><time>2026-04-24T13:54:22.189Z</time></trkpt><trkpt lat="36.4345696" lon="10.1007568"><ele>135.0</ele><time>2026-04-24T13:54:23.2Z</time></trkpt><trkpt lat="36.4344267" lon="10.1006641"><ele>136.0</ele><time>2026-04-24T13:54:24.203Z</time></trkpt><trkpt lat="36.4342868" lon="10.1005717"><ele>136.0</ele><time>2026-04-24T13:54:25.188Z</time></trkpt><trkpt lat="36.4341464" lon="10.1004698"><ele>136.0</ele><time>2026-04-24T13:54:26.184Z</time></trkpt><trkpt lat="36.4340021" lon="10.1003689"><ele>136.0</ele><time>2026-04-24T13:54:27.191Z</time></trkpt><trkpt lat="36.4338589" lon="10.1002694"><ele>136.66666666666669</ele><time>2026-04-24T13:54:28.198Z</time></trkpt><trkpt lat="36.4337161" lon="10.1001672"><ele>137.33333333333334</ele><time>2026-04-24T13:54:29.196Z</time></trkpt><trkpt lat="36.4335742" lon="10.1000671"><ele>138.0</ele><time>2026-04-24T13:54:30.203Z</time></trkpt><trkpt lat="36.43343" lon="10.0999732"><ele>138.0</ele><time>2026-04-24T13:54:31.196Z</time></trkpt><trkpt lat="36.4332886" lon="10.099875"><ele>138.0</ele><time>2026-04-24T13:54:32.181Z</time></trkpt><trkpt lat="36.4331462" lon="10.0997811"><ele>138.0</ele><time>2026-04-24T13:54:33.183Z</time></trkpt><trkpt lat="36.4330046" lon="10.0996832"><ele>138.0</ele><time>2026-04-24T13:54:34.206Z</time></trkpt><trkpt lat="36.4328617" lon="10.099587"><ele>138.0</ele><time>2026-04-24T13:54:35.187Z</time></trkpt><trkpt lat="36.4327221" lon="10.0994853"><ele>138.0</ele><time>2026-04-24T13:54:36.191Z</time></trkpt><trkpt lat="36.4325811" lon="10.0993862"><ele>138.0</ele><time>2026-04-24T13:54:37.202Z</time></trkpt><trkpt lat="36.4324382" lon="10.0992852"><ele>138.0</ele><time>2026-04-24T13:54:38.187Z</time></trkpt><trkpt lat="36.4322955" lon="10.0991859"><ele>138.0</ele><time>2026-04-24T13:54:39.198Z</time></trkpt><trkpt lat="36.4321555" lon="10.0990889"><ele>138.0</ele><time>2026-04-24T13:54:40.197Z</time></trkpt><trkpt lat="36.4320145" lon="10.0989905"><ele>138.0</ele><time>2026-04-24T13:54:41.189Z</time></trkpt><trkpt lat="36.4318745" lon="10.0988897"><ele>138.0</ele><time>2026-04-24T13:54:42.204Z</time></trkpt><trkpt lat="36.4317312" lon="10.0987965"><ele>138.0</ele><time>2026-04-24T13:54:43.188Z</time></trkpt><trkpt lat="36.4315843" lon="10.0987049"><ele>138.0</ele><time>2026-04-24T13:54:44.19Z</time></trkpt><trkpt lat="36.4314324" lon="10.0986075"><ele>138.0</ele><time>2026-04-24T13:54:45.187Z</time></trkpt><trkpt lat="36.4312818" lon="10.0985056"><ele>138.66666666666666</ele><time>2026-04-24T13:54:46.203Z</time></trkpt><trkpt lat="36.4311286" lon="10.0984035"><ele>139.33333333333331</ele><time>2026-04-24T13:54:47.182Z</time></trkpt><trkpt lat="36.4309738" lon="10.0982995"><ele>140.0</ele><time>2026-04-24T13:54:48.188Z</time></trkpt><trkpt lat="36.4308192" lon="10.0981949"><ele>140.0</ele><time>2026-04-24T13:54:49.209Z</time></trkpt><trkpt lat="36.4306642" lon="10.0980937"><ele>140.0</ele><time>2026-04-24T13:54:50.202Z</time></trkpt><trkpt lat="36.4305103" lon="10.097993"><ele>140.0</ele><time>2026-04-24T13:54:51.191Z</time></trkpt><trkpt lat="36.4303533" lon="10.0978863"><ele>140.0</ele><time>2026-04-24T13:54:52.193Z</time></trkpt><trkpt lat="36.4302" lon="10.0977796"><ele>140.0</ele><time>2026-04-24T13:54:53.191Z</time></trkpt><trkpt lat="36.4300514" lon="10.097678"><ele>140.0</ele><time>2026-04-24T13:54:54.196Z</time></trkpt><trkpt lat="36.4299062" lon="10.0975775"><ele>140.0</ele><time>2026-04-24T13:54:55.183Z</time></trkpt><trkpt lat="36.4297679" lon="10.0974829"><ele>140.0</ele><time>2026-04-24T13:54:56.186Z</time></trkpt><trkpt lat="36.4296291" lon="10.0973881"><ele>140.0</ele><time>2026-04-24T13:54:57.187Z</time></trkpt><trkpt lat="36.4294853" lon="10.0972884"><ele>141.33333333333331</ele><time>2026-04-24T13:54:58.184Z</time></trkpt><trkpt lat="36.4293371" lon="10.0971986"><ele>142.66666666666666</ele><time>2026-04-24T13:54:59.201Z</time></trkpt><trkpt lat="36.4291892" lon="10.0971069"><ele>144.0</ele><time>2026-04-24T13:55:00.175Z</time></trkpt><trkpt lat="36.4290391" lon="10.0970116"><ele>144.0</ele><time>2026-04-24T13:55:01.182Z</time></trkpt><trkpt lat="36.4288982" lon="10.0969165"><ele>144.0</ele><time>2026-04-24T13:55:02.206Z</time></trkpt><trkpt lat="36.4287637" lon="10.0968189"><ele>144.0</ele><time>2026-04-24T13:55:03.186Z</time></trkpt><trkpt lat="36.428636" lon="10.0967282"><ele>144.5</ele><time>2026-04-24T13:55:04.201Z</time></trkpt><trkpt lat="36.4285156" lon="10.0966481"><ele>145.0</ele><time>2026-04-24T13:55:05.189Z</time></trkpt><trkpt lat="36.4284015" lon="10.0965702"><ele>145.5</ele><time>2026-04-24T13:55:06.201Z</time></trkpt><trkpt lat="36.4282914" lon="10.0964928"><ele>146.0</ele><time>2026-04-24T13:55:07.188Z</time></trkpt><trkpt lat="36.4281719" lon="10.0964194"><ele>146.0</ele><time>2026-04-24T13:55:08.182Z</time></trkpt><trkpt lat="36.4280483" lon="10.0963418"><ele>146.0</ele><time>2026-04-24T13:55:09.186Z</time></trkpt><trkpt lat="36.4279187" lon="10.0962599"><ele>146.0</ele><time>2026-04-24T13:55:10.184Z</time></trkpt><trkpt lat="36.4277845" lon="10.0961757"><ele>146.0</ele><time>2026-04-24T13:55:11.186Z</time></trkpt><trkpt lat="36.427647" lon="10.096085"><ele>146.33333333333331</ele><time>2026-04-24T13:55:12.192Z</time></trkpt><trkpt lat="36.4275131" lon="10.0959929"><ele>146.66666666666666</ele><time>2026-04-24T13:55:13.197Z</time></trkpt><trkpt lat="36.4273834" lon="10.0958969"><ele>147.0</ele><time>2026-04-24T13:55:14.184Z</time></trkpt><trkpt lat="36.427257" lon="10.0957976"><ele>147.5</ele><time>2026-04-24T13:55:15.189Z</time></trkpt><trkpt lat="36.4271269" lon="10.0957099"><ele>148.0</ele><time>2026-04-24T13:55:16.19Z</time></trkpt><trkpt lat="36.4270039" lon="10.0956253"><ele>148.5</ele><time>2026-04-24T13:55:17.197Z</time></trkpt><trkpt lat="36.4268849" lon="10.0955461"><ele>149.0</ele><time>2026-04-24T13:55:18.185Z</time></trkpt><trkpt lat="36.4267679" lon="10.0954719"><ele>149.0</ele><time>2026-04-24T13:55:19.202Z</time></trkpt><trkpt lat="36.4266523" lon="10.0953975"><ele>149.0</ele><time>2026-04-24T13:55:20.206Z</time></trkpt><trkpt lat="36.4265364" lon="10.0953203"><ele>149.0</ele><time>2026-04-24T13:55:21.2Z</time></trkpt><trkpt lat="36.4264191" lon="10.0952409"><ele>149.0</ele><time>2026-04-24T13:55:22.184Z</time></trkpt><trkpt lat="36.4263015" lon="10.0951609"><ele>149.25</ele><time>2026-04-24T13:55:23.191Z</time></trkpt><trkpt lat="36.426182" lon="10.095082"><ele>149.5</ele><time>2026-04-24T13:55:24.192Z</time></trkpt><trkpt lat="36.4260603" lon="10.0950043"><ele>149.75</ele><time>2026-04-24T13:55:25.179Z</time></trkpt><trkpt lat="36.4259373" lon="10.0949268"><ele>150.0</ele><time>2026-04-24T13:55:26.199Z</time></trkpt><trkpt lat="36.4258146" lon="10.0948475"><ele>150.0</ele><time>2026-04-24T13:55:27.188Z</time></trkpt><trkpt lat="36.4256884" lon="10.0947664"><ele>150.0</ele><time>2026-04-24T13:55:28.198Z</time></trkpt><trkpt lat="36.4255639" lon="10.0946867"><ele>150.0</ele><time>2026-04-24T13:55:29.182Z</time></trkpt><trkpt lat="36.4254416" lon="10.094601"><ele>150.0</ele><time>2026-04-24T13:55:30.194Z</time></trkpt><trkpt lat="36.4253201" lon="10.0945179"><ele>150.75</ele><time>2026-04-24T13:55:31.193Z</time></trkpt><trkpt lat="36.4251965" lon="10.0944364"><ele>151.5</ele><time>2026-04-24T13:55:32.189Z</time></trkpt><trkpt lat="36.4250748" lon="10.094355"><ele>152.25</ele><time>2026-04-24T13:55:33.177Z</time></trkpt><trkpt lat="36.4249528" lon="10.0942728"><ele>153.0</ele><time>2026-04-24T13:55:34.196Z</time></trkpt><trkpt lat="36.4248348" lon="10.0941933"><ele>153.0</ele><time>2026-04-24T13:55:35.193Z</time></trkpt><trkpt lat="36.4247321" lon="10.0941186"><ele>153.0</ele><time>2026-04-24T13:55:36.185Z</time></trkpt><trkpt lat="36.4246313" lon="10.0940491"><ele>153.0</ele><time>2026-04-24T13:55:37.199Z</time></trkpt><trkpt lat="36.4245383" lon="10.0939864"><ele>153.0</ele><time>2026-04-24T13:55:38.189Z</time></trkpt><trkpt lat="36.4244505" lon="10.0939286"><ele>153.0</ele><time>2026-04-24T13:55:39.184Z</time></trkpt><trkpt lat="36.4243729" lon="10.0938714"><ele>153.16666666666666</ele><time>2026-04-24T13:55:40.194Z</time></trkpt><trkpt lat="36.4242986" lon="10.0938207"><ele>153.33333333333334</ele><time>2026-04-24T13:55:41.19Z</time></trkpt><trkpt lat="36.4242328" lon="10.0937719"><ele>153.5</ele><time>2026-04-24T13:55:42.187Z</time></trkpt><trkpt lat="36.4241218" lon="10.0936994"><ele>153.66666666666669</ele><time>2026-04-24T13:55:44.204Z</time></trkpt><trkpt lat="36.4240572" lon="10.0936557"><ele>153.83333333333334</ele><time>2026-04-24T13:55:45.183Z</time></trkpt><trkpt lat="36.4239883" lon="10.0936048"><ele>154.0</ele><time>2026-04-24T13:55:46.188Z</time></trkpt><trkpt lat="36.4239199" lon="10.0935463"><ele>154.0</ele><time>2026-04-24T13:55:47.198Z</time></trkpt><trkpt lat="36.4238519" lon="10.0934873"><ele>154.0</ele><time>2026-04-24T13:55:48.196Z</time></trkpt><trkpt lat="36.4237808" lon="10.0934231"><ele>154.0</ele><time>2026-04-24T13:55:49.183Z</time></trkpt><trkpt lat="36.4237149" lon="10.093345"><ele>154.0</ele><time>2026-04-24T13:55:50.174Z</time></trkpt><trkpt lat="36.4236467" lon="10.0932622"><ele>154.0</ele><time>2026-04-24T13:55:51.19Z</time></trkpt><trkpt lat="36.4235778" lon="10.093175"><ele>154.6</ele><time>2026-04-24T13:55:52.194Z</time></trkpt><trkpt lat="36.4235146" lon="10.0930852"><ele>155.2</ele><time>2026-04-24T13:55:53.193Z</time></trkpt><trkpt lat="36.4234614" lon="10.092987"><ele>155.79999999999998</ele><time>2026-04-24T13:55:54.194Z</time></trkpt><trkpt lat="36.4234151" lon="10.0928849"><ele>156.4</ele><time>2026-04-24T13:55:55.179Z</time></trkpt><trkpt lat="36.4233732" lon="10.0927973"><ele>157.0</ele><time>2026-04-24T13:55:56.188Z</time></trkpt><trkpt lat="36.4233268" lon="10.0926899"><ele>157.0</ele><time>2026-04-24T13:55:58.181Z</time></trkpt><trkpt lat="36.4232971" lon="10.0926038"><ele>157.0</ele><time>2026-04-24T13:56:10.199Z</time></trkpt><trkpt lat="36.4232552" lon="10.0924924"><ele>157.0</ele><time>2026-04-24T13:56:12.198Z</time></trkpt><trkpt lat="36.4231913" lon="10.0923537"><ele>157.0</ele><time>2026-04-24T13:56:14.181Z</time></trkpt><trkpt lat="36.4231611" lon="10.0922803"><ele>157.0</ele><time>2026-04-24T13:56:15.196Z</time></trkpt><trkpt lat="36.4231249" lon="10.0922009"><ele>157.0</ele><time>2026-04-24T13:56:16.187Z</time></trkpt><trkpt lat="36.4230899" lon="10.0921158"><ele>156.79999999999998</ele><time>2026-04-24T13:56:17.198Z</time></trkpt><trkpt lat="36.4230538" lon="10.0920344"><ele>156.6</ele><time>2026-04-24T13:56:18.198Z</time></trkpt><trkpt lat="36.423011" lon="10.0919665"><ele>156.39999999999998</ele><time>2026-04-24T13:56:19.17Z</time></trkpt><trkpt lat="36.4229664" lon="10.0918776"><ele>156.2</ele><time>2026-04-24T13:56:20.185Z</time></trkpt><trkpt lat="36.4229182" lon="10.0917652"><ele>156.0</ele><time>2026-04-24T13:56:21.177Z</time></trkpt><trkpt lat="36.4228575" lon="10.0916194"><ele>156.33333333333334</ele><time>2026-04-24T13:56:22.177Z</time></trkpt><trkpt lat="36.4227702" lon="10.0914303"><ele>156.66666666666669</ele><time>2026-04-24T13:56:23.181Z</time></trkpt><trkpt lat="36.4226729" lon="10.0912414"><ele>157.0</ele><time>2026-04-24T13:56:24.202Z</time></trkpt><trkpt lat="36.4225818" lon="10.0910878"><ele>157.0</ele><time>2026-04-24T13:56:25.171Z</time></trkpt><trkpt lat="36.4224889" lon="10.0909529"><ele>157.0</ele><time>2026-04-24T13:56:26.197Z</time></trkpt><trkpt lat="36.4223969" lon="10.0908332"><ele>157.0</ele><time>2026-04-24T13:56:27.171Z</time></trkpt><trkpt lat="36.4223002" lon="10.0907156"><ele>157.0</ele><time>2026-04-24T13:56:28.188Z</time></trkpt><trkpt lat="36.4222055" lon="10.0906018"><ele>157.0</ele><time>2026-04-24T13:56:29.178Z</time></trkpt><trkpt lat="36.4221088" lon="10.0904981"><ele>157.0</ele><time>2026-04-24T13:56:30.187Z</time></trkpt><trkpt lat="36.4220137" lon="10.0904195"><ele>157.0</ele><time>2026-04-24T13:56:31.189Z</time></trkpt><trkpt lat="36.4219161" lon="10.0903486"><ele>157.0</ele><time>2026-04-24T13:56:32.198Z</time></trkpt><trkpt lat="36.4218193" lon="10.0902617"><ele>157.0</ele><time>2026-04-24T13:56:33.163Z</time></trkpt><trkpt lat="36.4217278" lon="10.0901886"><ele>157.0</ele><time>2026-04-24T13:56:34.185Z</time></trkpt><trkpt lat="36.4216405" lon="10.0901214"><ele>157.0</ele><time>2026-04-24T13:56:35.182Z</time></trkpt><trkpt lat="36.42156" lon="10.0900575"><ele>157.0</ele><time>2026-04-24T13:56:36.187Z</time></trkpt><trkpt lat="36.4214847" lon="10.0899987"><ele>157.0</ele><time>2026-04-24T13:56:37.19Z</time></trkpt><trkpt lat="36.4214207" lon="10.0899488"><ele>157.16666666666669</ele><time>2026-04-24T13:56:38.186Z</time></trkpt><trkpt lat="36.4213255" lon="10.0898827"><ele>157.33333333333334</ele><time>2026-04-24T13:56:40.177Z</time></trkpt><trkpt lat="36.4212711" lon="10.0898433"><ele>157.5</ele><time>2026-04-24T13:56:41.186Z</time></trkpt><trkpt lat="36.421209" lon="10.0897978"><ele>157.66666666666666</ele><time>2026-04-24T13:56:42.183Z</time></trkpt><trkpt lat="36.421145" lon="10.08974"><ele>157.83333333333331</ele><time>2026-04-24T13:56:43.182Z</time></trkpt><trkpt lat="36.421076" lon="10.0896804"><ele>158.0</ele><time>2026-04-24T13:56:44.177Z</time></trkpt><trkpt lat="36.420996" lon="10.0896145"><ele>158.20000000000002</ele><time>2026-04-24T13:56:45.173Z</time></trkpt><trkpt lat="36.4209123" lon="10.089547"><ele>158.4</ele><time>2026-04-24T13:56:46.188Z</time></trkpt><trkpt lat="36.4208266" lon="10.0894802"><ele>158.60000000000002</ele><time>2026-04-24T13:56:47.184Z</time></trkpt><trkpt lat="36.4207419" lon="10.0894142"><ele>158.8</ele><time>2026-04-24T13:56:48.189Z</time></trkpt><trkpt lat="36.4206603" lon="10.089344"><ele>159.0</ele><time>2026-04-24T13:56:49.186Z</time></trkpt><trkpt lat="36.4205783" lon="10.0892742"><ele>159.0</ele><time>2026-04-24T13:56:50.192Z</time></trkpt><trkpt lat="36.4204974" lon="10.089211"><ele>159.0</ele><time>2026-04-24T13:56:51.199Z</time></trkpt><trkpt lat="36.4204175" lon="10.0891419"><ele>159.0</ele><time>2026-04-24T13:56:52.178Z</time></trkpt><trkpt lat="36.4203313" lon="10.0890754"><ele>159.0</ele><time>2026-04-24T13:56:53.216Z</time></trkpt><trkpt lat="36.420249" lon="10.0890026"><ele>159.0</ele><time>2026-04-24T13:56:54.198Z</time></trkpt><trkpt lat="36.4201651" lon="10.0889278"><ele>159.0</ele><time>2026-04-24T13:56:55.203Z</time></trkpt><trkpt lat="36.4200726" lon="10.0888545"><ele>159.0</ele><time>2026-04-24T13:56:56.181Z</time></trkpt><trkpt lat="36.4199804" lon="10.0887793"><ele>159.0</ele><time>2026-04-24T13:56:57.206Z</time></trkpt><trkpt lat="36.4198851" lon="10.0887015"><ele>159.0</ele><time>2026-04-24T13:56:58.188Z</time></trkpt><trkpt lat="36.4197819" lon="10.0886213"><ele>159.0</ele><time>2026-04-24T13:56:59.201Z</time></trkpt><trkpt lat="36.4196862" lon="10.0885426"><ele>159.0</ele><time>2026-04-24T13:57:00.181Z</time></trkpt><trkpt lat="36.419588" lon="10.0884629"><ele>159.0</ele><time>2026-04-24T13:57:01.17Z</time></trkpt><trkpt lat="36.4194858" lon="10.0883799"><ele>159.0</ele><time>2026-04-24T13:57:02.159Z</time></trkpt><trkpt lat="36.4193801" lon="10.0882927"><ele>159.2</ele><time>2026-04-24T13:57:03.188Z</time></trkpt><trkpt lat="36.4192773" lon="10.0882069"><ele>159.4</ele><time>2026-04-24T13:57:04.19Z</time></trkpt><trkpt lat="36.4191791" lon="10.0881281"><ele>159.6</ele><time>2026-04-24T13:57:05.18Z</time></trkpt><trkpt lat="36.4190864" lon="10.0880571"><ele>159.8</ele><time>2026-04-24T13:57:06.185Z</time></trkpt><trkpt lat="36.4190087" lon="10.0879971"><ele>160.0</ele><time>2026-04-24T13:57:07.182Z</time></trkpt><trkpt lat="36.4189377" lon="10.0879401"><ele>160.0</ele><time>2026-04-24T13:57:08.191Z</time></trkpt><trkpt lat="36.4188602" lon="10.0878808"><ele>160.0</ele><time>2026-04-24T13:57:09.198Z</time></trkpt><trkpt lat="36.4187768" lon="10.0878113"><ele>160.0</ele><time>2026-04-24T13:57:10.202Z</time></trkpt><trkpt lat="36.4186843" lon="10.0877347"><ele>160.0</ele><time>2026-04-24T13:57:11.189Z</time></trkpt><trkpt lat="36.4185643" lon="10.0876443"><ele>160.0</ele><time>2026-04-24T13:57:12.189Z</time></trkpt><trkpt lat="36.4184423" lon="10.0875475"><ele>160.25</ele><time>2026-04-24T13:57:13.136Z</time></trkpt><trkpt lat="36.4183221" lon="10.0874532"><ele>160.5</ele><time>2026-04-24T13:57:14.143Z</time></trkpt><trkpt lat="36.4182129" lon="10.0873745"><ele>160.75</ele><time>2026-04-24T13:57:15.126Z</time></trkpt><trkpt lat="36.4181183" lon="10.0872885"><ele>161.0</ele><time>2026-04-24T13:57:16.135Z</time></trkpt><trkpt lat="36.4180316" lon="10.0872082"><ele>161.5</ele><time>2026-04-24T13:57:17.128Z</time></trkpt><trkpt lat="36.4179278" lon="10.0871357"><ele>162.0</ele><time>2026-04-24T13:57:18.147Z</time></trkpt><trkpt lat="36.4178323" lon="10.087058"><ele>162.5</ele><time>2026-04-24T13:57:19.141Z</time></trkpt><trkpt lat="36.4177341" lon="10.0869773"><ele>163.0</ele><time>2026-04-24T13:57:20.13Z</time></trkpt><trkpt lat="36.4176435" lon="10.0869012"><ele>163.0</ele><time>2026-04-24T13:57:21.139Z</time></trkpt><trkpt lat="36.4175486" lon="10.0868259"><ele>163.0</ele><time>2026-04-24T13:57:22.142Z</time></trkpt><trkpt lat="36.4174604" lon="10.0867581"><ele>163.0</ele><time>2026-04-24T13:57:23.129Z</time></trkpt><trkpt lat="36.4173682" lon="10.086685"><ele>163.0</ele><time>2026-04-24T13:57:24.14Z</time></trkpt><trkpt lat="36.4172724" lon="10.0866062"><ele>163.0</ele><time>2026-04-24T13:57:25.131Z</time></trkpt><trkpt lat="36.4171729" lon="10.0865264"><ele>163.5</ele><time>2026-04-24T13:57:26.131Z</time></trkpt><trkpt lat="36.4170747" lon="10.0864411"><ele>164.0</ele><time>2026-04-24T13:57:27.14Z</time></trkpt><trkpt lat="36.4169776" lon="10.0863644"><ele>164.5</ele><time>2026-04-24T13:57:28.148Z</time></trkpt><trkpt lat="36.4168811" lon="10.0862875"><ele>165.0</ele><time>2026-04-24T13:57:29.133Z</time></trkpt><trkpt lat="36.416782" lon="10.0862127"><ele>165.0</ele><time>2026-04-24T13:57:30.137Z</time></trkpt><trkpt lat="36.4166808" lon="10.0861322"><ele>165.0</ele><time>2026-04-24T13:57:31.136Z</time></trkpt><trkpt lat="36.4165774" lon="10.086051"><ele>165.0</ele><time>2026-04-24T13:57:32.138Z</time></trkpt><trkpt lat="36.4164706" lon="10.0859693"><ele>165.0</ele><time>2026-04-24T13:57:33.16Z</time></trkpt><trkpt lat="36.4163662" lon="10.0858841"><ele>165.0</ele><time>2026-04-24T13:57:34.151Z</time></trkpt><trkpt lat="36.4162681" lon="10.0858055"><ele>165.0</ele><time>2026-04-24T13:57:35.131Z</time></trkpt><trkpt lat="36.4161655" lon="10.0857242"><ele>165.0</ele><time>2026-04-24T13:57:36.152Z</time></trkpt><trkpt lat="36.416064" lon="10.0856464"><ele>165.0</ele><time>2026-04-24T13:57:37.122Z</time></trkpt><trkpt lat="36.4159568" lon="10.0855695"><ele>165.0</ele><time>2026-04-24T13:57:38.134Z</time></trkpt><trkpt lat="36.4158563" lon="10.0854929"><ele>165.0</ele><time>2026-04-24T13:57:39.139Z</time></trkpt><trkpt lat="36.4157656" lon="10.0854185"><ele>165.0</ele><time>2026-04-24T13:57:40.147Z</time></trkpt><trkpt lat="36.4156807" lon="10.085352"><ele>165.0</ele><time>2026-04-24T13:57:41.138Z</time></trkpt><trkpt lat="36.4156078" lon="10.0852987"><ele>165.0</ele><time>2026-04-24T13:57:42.124Z</time></trkpt><trkpt lat="36.4155418" lon="10.0852444"><ele>165.2</ele><time>2026-04-24T13:57:43.147Z</time></trkpt><trkpt lat="36.4154851" lon="10.0852007"><ele>165.4</ele><time>2026-04-24T13:57:44.133Z</time></trkpt><trkpt lat="36.4153784" lon="10.085116"><ele>165.60000000000002</ele><time>2026-04-24T13:57:46.141Z</time></trkpt><trkpt lat="36.4153113" lon="10.0850637"><ele>165.8</ele><time>2026-04-24T13:57:47.147Z</time></trkpt><trkpt lat="36.4152367" lon="10.0850069"><ele>166.0</ele><time>2026-04-24T13:57:48.135Z</time></trkpt><trkpt lat="36.415159" lon="10.0849378"><ele>165.60000000000002</ele><time>2026-04-24T13:57:49.125Z</time></trkpt><trkpt lat="36.4150737" lon="10.0848731"><ele>165.2</ele><time>2026-04-24T13:57:50.128Z</time></trkpt><trkpt lat="36.4149868" lon="10.0848069"><ele>164.8</ele><time>2026-04-24T13:57:51.14Z</time></trkpt><trkpt lat="36.4149015" lon="10.0847413"><ele>164.39999999999998</ele><time>2026-04-24T13:57:52.136Z</time></trkpt><trkpt lat="36.4148164" lon="10.0846717"><ele>164.0</ele><time>2026-04-24T13:57:53.148Z</time></trkpt><trkpt lat="36.4147293" lon="10.0846021"><ele>164.6</ele><time>2026-04-24T13:57:54.142Z</time></trkpt><trkpt lat="36.4146365" lon="10.0845249"><ele>165.2</ele><time>2026-04-24T13:57:55.121Z</time></trkpt><trkpt lat="36.4145402" lon="10.0844514"><ele>165.79999999999998</ele><time>2026-04-24T13:57:56.135Z</time></trkpt><trkpt lat="36.4144473" lon="10.0843778"><ele>166.39999999999998</ele><time>2026-04-24T13:57:57.131Z</time></trkpt><trkpt lat="36.4143529" lon="10.0843001"><ele>167.0</ele><time>2026-04-24T13:57:58.144Z</time></trkpt><trkpt lat="36.414263" lon="10.0842237"><ele>167.0</ele><time>2026-04-24T13:57:59.14Z</time></trkpt><trkpt lat="36.4141691" lon="10.0841415"><ele>167.0</ele><time>2026-04-24T13:58:00.126Z</time></trkpt><trkpt lat="36.4140722" lon="10.0840665"><ele>167.0</ele><time>2026-04-24T13:58:01.139Z</time></trkpt><trkpt lat="36.4139759" lon="10.0839875"><ele>167.0</ele><time>2026-04-24T13:58:02.148Z</time></trkpt><trkpt lat="36.4138785" lon="10.0839116"><ele>166.75</ele><time>2026-04-24T13:58:03.144Z</time></trkpt><trkpt lat="36.4137757" lon="10.0838333"><ele>166.5</ele><time>2026-04-24T13:58:04.138Z</time></trkpt><trkpt lat="36.4136767" lon="10.0837538"><ele>166.25</ele><time>2026-04-24T13:58:05.136Z</time></trkpt><trkpt lat="36.4135746" lon="10.083672"><ele>166.0</ele><time>2026-04-24T13:58:06.13Z</time></trkpt><trkpt lat="36.4134676" lon="10.0835862"><ele>166.0</ele><time>2026-04-24T13:58:07.139Z</time></trkpt><trkpt lat="36.4133664" lon="10.0835107"><ele>166.0</ele><time>2026-04-24T13:58:08.123Z</time></trkpt><trkpt lat="36.4132753" lon="10.0834306"><ele>166.0</ele><time>2026-04-24T13:58:09.132Z</time></trkpt><trkpt lat="36.4131871" lon="10.0833601"><ele>166.0</ele><time>2026-04-24T13:58:10.14Z</time></trkpt><trkpt lat="36.4131071" lon="10.0833012"><ele>166.0</ele><time>2026-04-24T13:58:11.149Z</time></trkpt><trkpt lat="36.4130471" lon="10.0832515"><ele>165.83333333333334</ele><time>2026-04-24T13:58:12.187Z</time></trkpt><trkpt lat="36.412992" lon="10.0832069"><ele>165.66666666666669</ele><time>2026-04-24T13:58:13.131Z</time></trkpt><trkpt lat="36.4129336" lon="10.0831618"><ele>165.5</ele><time>2026-04-24T13:58:14.146Z</time></trkpt><trkpt lat="36.4128639" lon="10.0831038"><ele>165.33333333333334</ele><time>2026-04-24T13:58:15.142Z</time></trkpt><trkpt lat="36.4127917" lon="10.0830447"><ele>165.16666666666666</ele><time>2026-04-24T13:58:16.145Z</time></trkpt><trkpt lat="36.41271" lon="10.0829805"><ele>165.0</ele><time>2026-04-24T13:58:17.151Z</time></trkpt><trkpt lat="36.4126254" lon="10.0829148"><ele>165.0</ele><time>2026-04-24T13:58:18.129Z</time></trkpt><trkpt lat="36.4125362" lon="10.0828411"><ele>165.0</ele><time>2026-04-24T13:58:19.132Z</time></trkpt><trkpt lat="36.4124451" lon="10.0827664"><ele>165.0</ele><time>2026-04-24T13:58:20.15Z</time></trkpt><trkpt lat="36.412345" lon="10.0826893"><ele>165.0</ele><time>2026-04-24T13:58:21.137Z</time></trkpt><trkpt lat="36.4122389" lon="10.082599"><ele>164.66666666666666</ele><time>2026-04-24T13:58:22.13Z</time></trkpt><trkpt lat="36.4121082" lon="10.0825075"><ele>164.33333333333331</ele><time>2026-04-24T13:58:23.136Z</time></trkpt><trkpt lat="36.411957" lon="10.0824163"><ele>164.0</ele><time>2026-04-24T13:58:24.144Z</time></trkpt><trkpt lat="36.4117992" lon="10.0823293"><ele>164.0</ele><time>2026-04-24T13:58:25.133Z</time></trkpt><trkpt lat="36.4116433" lon="10.0822462"><ele>164.0</ele><time>2026-04-24T13:58:26.134Z</time></trkpt><trkpt lat="36.4114881" lon="10.0821551"><ele>164.0</ele><time>2026-04-24T13:58:27.126Z</time></trkpt><trkpt lat="36.4113431" lon="10.0820732"><ele>164.66666666666666</ele><time>2026-04-24T13:58:28.142Z</time></trkpt><trkpt lat="36.4112031" lon="10.0819913"><ele>165.33333333333334</ele><time>2026-04-24T13:58:29.148Z</time></trkpt><trkpt lat="36.4110796" lon="10.0818862"><ele>166.0</ele><time>2026-04-24T13:58:30.141Z</time></trkpt><trkpt lat="36.4109578" lon="10.0817661"><ele>166.0</ele><time>2026-04-24T13:58:31.136Z</time></trkpt><trkpt lat="36.410858" lon="10.0816324"><ele>166.0</ele><time>2026-04-24T13:58:32.13Z</time></trkpt><trkpt lat="36.4107654" lon="10.0814859"><ele>166.0</ele><time>2026-04-24T13:58:33.136Z</time></trkpt><trkpt lat="36.4106821" lon="10.0813243"><ele>165.66666666666669</ele><time>2026-04-24T13:58:34.126Z</time></trkpt><trkpt lat="36.4106021" lon="10.0811573"><ele>165.33333333333334</ele><time>2026-04-24T13:58:35.139Z</time></trkpt><trkpt lat="36.4105211" lon="10.0809857"><ele>165.0</ele><time>2026-04-24T13:58:36.147Z</time></trkpt><trkpt lat="36.4104355" lon="10.0808158"><ele>165.33333333333334</ele><time>2026-04-24T13:58:37.143Z</time></trkpt><trkpt lat="36.4103438" lon="10.080644"><ele>165.66666666666669</ele><time>2026-04-24T13:58:38.128Z</time></trkpt><trkpt lat="36.4102459" lon="10.080472"><ele>166.0</ele><time>2026-04-24T13:58:39.191Z</time></trkpt><trkpt lat="36.4101414" lon="10.0803029"><ele>166.0</ele><time>2026-04-24T13:58:40.136Z</time></trkpt><trkpt lat="36.4100398" lon="10.0801242"><ele>166.0</ele><time>2026-04-24T13:58:41.145Z</time></trkpt><trkpt lat="36.4099321" lon="10.0799413"><ele>166.0</ele><time>2026-04-24T13:58:42.131Z</time></trkpt><trkpt lat="36.4098235" lon="10.0797511"><ele>166.0</ele><time>2026-04-24T13:58:43.131Z</time></trkpt><trkpt lat="36.4097184" lon="10.0795568"><ele>166.0</ele><time>2026-04-24T13:58:44.137Z</time></trkpt><trkpt lat="36.4096134" lon="10.0793712"><ele>166.0</ele><time>2026-04-24T13:58:45.118Z</time></trkpt><trkpt lat="36.4095073" lon="10.0791844"><ele>167.0</ele><time>2026-04-24T13:58:46.152Z</time></trkpt><trkpt lat="36.4093996" lon="10.0789957"><ele>168.0</ele><time>2026-04-24T13:58:47.13Z</time></trkpt><trkpt lat="36.4092956" lon="10.0788201"><ele>169.0</ele><time>2026-04-24T13:58:48.127Z</time></trkpt><trkpt lat="36.409199" lon="10.0786429"><ele>169.0</ele><time>2026-04-24T13:58:49.122Z</time></trkpt><trkpt lat="36.4091005" lon="10.078466"><ele>169.0</ele><time>2026-04-24T13:58:50.131Z</time></trkpt><trkpt lat="36.4090102" lon="10.0782861"><ele>169.0</ele><time>2026-04-24T13:58:51.147Z</time></trkpt><trkpt lat="36.4089227" lon="10.0781035"><ele>169.0</ele><time>2026-04-24T13:58:52.137Z</time></trkpt><trkpt lat="36.4088349" lon="10.077913"><ele>169.0</ele><time>2026-04-24T13:58:53.15Z</time></trkpt><trkpt lat="36.4087583" lon="10.0777186"><ele>169.0</ele><time>2026-04-24T13:58:54.128Z</time></trkpt><trkpt lat="36.4086853" lon="10.0775214"><ele>169.0</ele><time>2026-04-24T13:58:55.164Z</time></trkpt><trkpt lat="36.4086178" lon="10.0773266"><ele>169.0</ele><time>2026-04-24T13:58:56.157Z</time></trkpt><trkpt lat="36.4085451" lon="10.0771241"><ele>169.0</ele><time>2026-04-24T13:58:57.127Z</time></trkpt><trkpt lat="36.408474" lon="10.0769321"><ele>169.0</ele><time>2026-04-24T13:58:58.141Z</time></trkpt><trkpt lat="36.4084127" lon="10.0767444"><ele>169.0</ele><time>2026-04-24T13:58:59.141Z</time></trkpt><trkpt lat="36.4083496" lon="10.0765446"><ele>169.0</ele><time>2026-04-24T13:59:00.131Z</time></trkpt><trkpt lat="36.4082806" lon="10.0763409"><ele>169.0</ele><time>2026-04-24T13:59:01.143Z</time></trkpt><trkpt lat="36.4082115" lon="10.0761373"><ele>169.0</ele><time>2026-04-24T13:59:02.129Z</time></trkpt><trkpt lat="36.4081403" lon="10.0759272"><ele>169.0</ele><time>2026-04-24T13:59:03.143Z</time></trkpt><trkpt lat="36.4080692" lon="10.0757208"><ele>168.66666666666669</ele><time>2026-04-24T13:59:04.134Z</time></trkpt><trkpt lat="36.4079988" lon="10.075514"><ele>168.33333333333334</ele><time>2026-04-24T13:59:05.125Z</time></trkpt><trkpt lat="36.4079292" lon="10.075309"><ele>168.0</ele><time>2026-04-24T13:59:06.141Z</time></trkpt><trkpt lat="36.4078547" lon="10.0750982"><ele>167.33333333333334</ele><time>2026-04-24T13:59:07.143Z</time></trkpt><trkpt lat="36.4077749" lon="10.074886"><ele>166.66666666666669</ele><time>2026-04-24T13:59:08.131Z</time></trkpt><trkpt lat="36.4076966" lon="10.074675"><ele>166.0</ele><time>2026-04-24T13:59:09.156Z</time></trkpt><trkpt lat="36.4076154" lon="10.0744575"><ele>166.0</ele><time>2026-04-24T13:59:10.131Z</time></trkpt><trkpt lat="36.4075328" lon="10.0742342"><ele>166.0</ele><time>2026-04-24T13:59:11.146Z</time></trkpt><trkpt lat="36.4074542" lon="10.0740031"><ele>166.0</ele><time>2026-04-24T13:59:12.139Z</time></trkpt><trkpt lat="36.4073705" lon="10.0737823"><ele>166.0</ele><time>2026-04-24T13:59:13.144Z</time></trkpt><trkpt lat="36.4072866" lon="10.0735601"><ele>166.0</ele><time>2026-04-24T13:59:14.14Z</time></trkpt><trkpt lat="36.4072041" lon="10.0733402"><ele>166.0</ele><time>2026-04-24T13:59:15.133Z</time></trkpt><trkpt lat="36.4071245" lon="10.0731281"><ele>166.0</ele><time>2026-04-24T13:59:16.144Z</time></trkpt><trkpt lat="36.4070494" lon="10.0729163"><ele>166.0</ele><time>2026-04-24T13:59:17.134Z</time></trkpt><trkpt lat="36.4069764" lon="10.072707"><ele>166.0</ele><time>2026-04-24T13:59:18.151Z</time></trkpt><trkpt lat="36.406912" lon="10.0725017"><ele>166.66666666666669</ele><time>2026-04-24T13:59:19.15Z</time></trkpt><trkpt lat="36.4068461" lon="10.0723039"><ele>167.33333333333334</ele><time>2026-04-24T13:59:20.15Z</time></trkpt><trkpt lat="36.4067911" lon="10.0721069"><ele>168.0</ele><time>2026-04-24T13:59:21.142Z</time></trkpt><trkpt lat="36.4067444" lon="10.0719129"><ele>168.0</ele><time>2026-04-24T13:59:22.14Z</time></trkpt><trkpt lat="36.4067005" lon="10.071707"><ele>168.0</ele><time>2026-04-24T13:59:23.13Z</time></trkpt><trkpt lat="36.4066726" lon="10.0714882"><ele>168.0</ele><time>2026-04-24T13:59:24.128Z</time></trkpt><trkpt lat="36.4066507" lon="10.0712656"><ele>167.66666666666666</ele><time>2026-04-24T13:59:25.13Z</time></trkpt><trkpt lat="36.4066312" lon="10.0710395"><ele>167.33333333333331</ele><time>2026-04-24T13:59:26.145Z</time></trkpt><trkpt lat="36.4066041" lon="10.0708225"><ele>167.0</ele><time>2026-04-24T13:59:27.138Z</time></trkpt><trkpt lat="36.4065611" lon="10.0706096"><ele>167.0</ele><time>2026-04-24T13:59:28.133Z</time></trkpt><trkpt lat="36.4065076" lon="10.0703962"><ele>167.0</ele><time>2026-04-24T13:59:29.185Z</time></trkpt><trkpt lat="36.4064463" lon="10.0701946"><ele>167.0</ele><time>2026-04-24T13:59:30.132Z</time></trkpt><trkpt lat="36.4063649" lon="10.0700077"><ele>168.33333333333331</ele><time>2026-04-24T13:59:31.147Z</time></trkpt><trkpt lat="36.4062725" lon="10.0698301"><ele>169.66666666666666</ele><time>2026-04-24T13:59:32.152Z</time></trkpt><trkpt lat="36.4061801" lon="10.0696529"><ele>171.0</ele><time>2026-04-24T13:59:33.138Z</time></trkpt><trkpt lat="36.4060838" lon="10.0694719"><ele>171.0</ele><time>2026-04-24T13:59:34.134Z</time></trkpt><trkpt lat="36.4059735" lon="10.0692988"><ele>171.0</ele><time>2026-04-24T13:59:35.149Z</time></trkpt><trkpt lat="36.4058641" lon="10.0691308"><ele>171.0</ele><time>2026-04-24T13:59:36.129Z</time></trkpt><trkpt lat="36.4057545" lon="10.0689543"><ele>170.33333333333334</ele><time>2026-04-24T13:59:37.137Z</time></trkpt><trkpt lat="36.4056451" lon="10.0687849"><ele>169.66666666666669</ele><time>2026-04-24T13:59:38.142Z</time></trkpt><trkpt lat="36.4055271" lon="10.0686179"><ele>169.0</ele><time>2026-04-24T13:59:39.131Z</time></trkpt><trkpt lat="36.4054094" lon="10.068451"><ele>169.0</ele><time>2026-04-24T13:59:40.148Z</time></trkpt><trkpt lat="36.4052922" lon="10.0682859"><ele>169.0</ele><time>2026-04-24T13:59:41.142Z</time></trkpt><trkpt lat="36.4051728" lon="10.0681258"><ele>169.0</ele><time>2026-04-24T13:59:42.154Z</time></trkpt><trkpt lat="36.4050581" lon="10.0679696"><ele>168.33333333333334</ele><time>2026-04-24T13:59:43.122Z</time></trkpt><trkpt lat="36.4049425" lon="10.0678178"><ele>167.66666666666666</ele><time>2026-04-24T13:59:44.144Z</time></trkpt><trkpt lat="36.4048312" lon="10.0676699"><ele>167.0</ele><time>2026-04-24T13:59:45.154Z</time></trkpt><trkpt lat="36.4047229" lon="10.0675334"><ele>167.33333333333331</ele><time>2026-04-24T13:59:46.131Z</time></trkpt><trkpt lat="36.4046186" lon="10.0673981"><ele>167.66666666666666</ele><time>2026-04-24T13:59:47.143Z</time></trkpt><trkpt lat="36.4045111" lon="10.067257"><ele>168.0</ele><time>2026-04-24T13:59:48.139Z</time></trkpt><trkpt lat="36.4044052" lon="10.0671154"><ele>168.0</ele><time>2026-04-24T13:59:49.134Z</time></trkpt><trkpt lat="36.4042996" lon="10.0669755"><ele>168.0</ele><time>2026-04-24T13:59:50.136Z</time></trkpt><trkpt lat="36.4041915" lon="10.0668413"><ele>168.0</ele><time>2026-04-24T13:59:51.128Z</time></trkpt><trkpt lat="36.4040854" lon="10.0667054"><ele>168.0</ele><time>2026-04-24T13:59:52.133Z</time></trkpt><trkpt lat="36.403982" lon="10.0665573"><ele>168.0</ele><time>2026-04-24T13:59:53.136Z</time></trkpt><trkpt lat="36.4038866" lon="10.0663954"><ele>168.0</ele><time>2026-04-24T13:59:54.142Z</time></trkpt><trkpt lat="36.4038009" lon="10.0662298"><ele>169.0</ele><time>2026-04-24T13:59:55.146Z</time></trkpt><trkpt lat="36.4037222" lon="10.0660492"><ele>170.0</ele><time>2026-04-24T13:59:56.151Z</time></trkpt><trkpt lat="36.4036561" lon="10.0658698"><ele>171.0</ele><time>2026-04-24T13:59:57.131Z</time></trkpt><trkpt lat="36.4035863" lon="10.0656898"><ele>171.0</ele><time>2026-04-24T13:59:58.135Z</time></trkpt><trkpt lat="36.4035219" lon="10.0655084"><ele>171.0</ele><time>2026-04-24T13:59:59.129Z</time></trkpt><trkpt lat="36.403463" lon="10.0653251"><ele>171.0</ele><time>2026-04-24T14:00:00.13Z</time></trkpt><trkpt lat="36.4034032" lon="10.0651374"><ele>171.0</ele><time>2026-04-24T14:00:01.148Z</time></trkpt><trkpt lat="36.4033397" lon="10.0649497"><ele>171.0</ele><time>2026-04-24T14:00:02.133Z</time></trkpt><trkpt lat="36.4032791" lon="10.0647691"><ele>171.0</ele><time>2026-04-24T14:00:03.144Z</time></trkpt><trkpt lat="36.4032254" lon="10.0645871"><ele>171.0</ele><time>2026-04-24T14:00:04.128Z</time></trkpt><trkpt lat="36.4031683" lon="10.0644027"><ele>171.0</ele><time>2026-04-24T14:00:05.133Z</time></trkpt><trkpt lat="36.403105" lon="10.0642202"><ele>171.0</ele><time>2026-04-24T14:00:06.14Z</time></trkpt><trkpt lat="36.4030441" lon="10.0640351"><ele>172.0</ele><time>2026-04-24T14:00:07.145Z</time></trkpt><trkpt lat="36.4029776" lon="10.0638527"><ele>173.0</ele><time>2026-04-24T14:00:08.158Z</time></trkpt><trkpt lat="36.4029151" lon="10.0636701"><ele>174.0</ele><time>2026-04-24T14:00:09.14Z</time></trkpt><trkpt lat="36.4028537" lon="10.0634828"><ele>174.0</ele><time>2026-04-24T14:00:10.145Z</time></trkpt><trkpt lat="36.4027871" lon="10.0632952"><ele>174.0</ele><time>2026-04-24T14:00:11.146Z</time></trkpt><trkpt lat="36.4027222" lon="10.0631034"><ele>174.0</ele><time>2026-04-24T14:00:12.143Z</time></trkpt><trkpt lat="36.4026556" lon="10.0629094"><ele>174.33333333333334</ele><time>2026-04-24T14:00:13.139Z</time></trkpt><trkpt lat="36.4025923" lon="10.0627185"><ele>174.66666666666669</ele><time>2026-04-24T14:00:14.139Z</time></trkpt><trkpt lat="36.4025281" lon="10.06253"><ele>175.0</ele><time>2026-04-24T14:00:15.14Z</time></trkpt><trkpt lat="36.4024645" lon="10.0623368"><ele>175.0</ele><time>2026-04-24T14:00:16.145Z</time></trkpt><trkpt lat="36.4023981" lon="10.0621456"><ele>175.0</ele><time>2026-04-24T14:00:17.133Z</time></trkpt><trkpt lat="36.4023356" lon="10.061963"><ele>175.0</ele><time>2026-04-24T14:00:18.159Z</time></trkpt><trkpt lat="36.4022759" lon="10.0617791"><ele>174.66666666666669</ele><time>2026-04-24T14:00:19.14Z</time></trkpt><trkpt lat="36.4022152" lon="10.0616016"><ele>174.33333333333334</ele><time>2026-04-24T14:00:20.15Z</time></trkpt><trkpt lat="36.4021472" lon="10.0614229"><ele>174.0</ele><time>2026-04-24T14:00:21.145Z</time></trkpt><trkpt lat="36.4020834" lon="10.0612487"><ele>175.0</ele><time>2026-04-24T14:00:22.139Z</time></trkpt><trkpt lat="36.4020224" lon="10.0610711"><ele>176.0</ele><time>2026-04-24T14:00:23.139Z</time></trkpt><trkpt lat="36.4019638" lon="10.060897"><ele>177.0</ele><time>2026-04-24T14:00:24.129Z</time></trkpt><trkpt lat="36.4019094" lon="10.0607232"><ele>177.25</ele><time>2026-04-24T14:00:25.126Z</time></trkpt><trkpt lat="36.4018506" lon="10.0605507"><ele>177.5</ele><time>2026-04-24T14:00:26.138Z</time></trkpt><trkpt lat="36.4017927" lon="10.0603837"><ele>177.75</ele><time>2026-04-24T14:00:27.131Z</time></trkpt><trkpt lat="36.4017377" lon="10.0602113"><ele>178.0</ele><time>2026-04-24T14:00:28.135Z</time></trkpt><trkpt lat="36.4016787" lon="10.0600339"><ele>177.66666666666669</ele><time>2026-04-24T14:00:29.136Z</time></trkpt><trkpt lat="36.40162" lon="10.0598584"><ele>177.33333333333334</ele><time>2026-04-24T14:00:30.153Z</time></trkpt><trkpt lat="36.4015613" lon="10.0596841"><ele>177.0</ele><time>2026-04-24T14:00:31.146Z</time></trkpt><trkpt lat="36.4015014" lon="10.0595051"><ele>177.0</ele><time>2026-04-24T14:00:32.147Z</time></trkpt><trkpt lat="36.4014476" lon="10.0593229"><ele>177.0</ele><time>2026-04-24T14:00:33.133Z</time></trkpt><trkpt lat="36.4013887" lon="10.0591355"><ele>177.0</ele><time>2026-04-24T14:00:34.149Z</time></trkpt><trkpt lat="36.4013387" lon="10.0589465"><ele>178.66666666666666</ele><time>2026-04-24T14:00:35.137Z</time></trkpt><trkpt lat="36.4013017" lon="10.058752"><ele>180.33333333333331</ele><time>2026-04-24T14:00:36.168Z</time></trkpt><trkpt lat="36.4012705" lon="10.0585622"><ele>182.0</ele><time>2026-04-24T14:00:37.136Z</time></trkpt><trkpt lat="36.4012411" lon="10.058368"><ele>182.0</ele><time>2026-04-24T14:00:38.14Z</time></trkpt><trkpt lat="36.4012076" lon="10.0581717"><ele>182.0</ele><time>2026-04-24T14:00:39.154Z</time></trkpt><trkpt lat="36.401172" lon="10.0579769"><ele>182.0</ele><time>2026-04-24T14:00:40.139Z</time></trkpt><trkpt lat="36.4011304" lon="10.0577763"><ele>182.0</ele><time>2026-04-24T14:00:41.153Z</time></trkpt><trkpt lat="36.4010841" lon="10.057577"><ele>182.0</ele><time>2026-04-24T14:00:42.143Z</time></trkpt><trkpt lat="36.4010288" lon="10.0573712"><ele>182.0</ele><time>2026-04-24T14:00:43.125Z</time></trkpt><trkpt lat="36.4009683" lon="10.0571639"><ele>180.66666666666666</ele><time>2026-04-24T14:00:44.15Z</time></trkpt><trkpt lat="36.4008982" lon="10.0569658"><ele>179.33333333333334</ele><time>2026-04-24T14:00:45.135Z</time></trkpt><trkpt lat="36.4008226" lon="10.0567627"><ele>178.0</ele><time>2026-04-24T14:00:46.149Z</time></trkpt><trkpt lat="36.4007486" lon="10.0565636"><ele>177.0</ele><time>2026-04-24T14:00:47.135Z</time></trkpt><trkpt lat="36.4006781" lon="10.0563698"><ele>176.0</ele><time>2026-04-24T14:00:48.142Z</time></trkpt><trkpt lat="36.4006054" lon="10.0561698"><ele>175.0</ele><time>2026-04-24T14:00:49.128Z</time></trkpt><trkpt lat="36.4005435" lon="10.055969"><ele>176.66666666666669</ele><time>2026-04-24T14:00:50.134Z</time></trkpt><trkpt lat="36.4004748" lon="10.0557631"><ele>178.33333333333334</ele><time>2026-04-24T14:00:51.14Z</time></trkpt><trkpt lat="36.4004006" lon="10.0555579"><ele>180.0</ele><time>2026-04-24T14:00:52.138Z</time></trkpt><trkpt lat="36.4003321" lon="10.0553672"><ele>180.0</ele><time>2026-04-24T14:00:53.122Z</time></trkpt><trkpt lat="36.4002624" lon="10.0551845"><ele>180.0</ele><time>2026-04-24T14:00:54.141Z</time></trkpt><trkpt lat="36.4001892" lon="10.0550129"><ele>180.0</ele><time>2026-04-24T14:00:55.143Z</time></trkpt><trkpt lat="36.4001083" lon="10.054862"><ele>179.25</ele><time>2026-04-24T14:00:56.139Z</time></trkpt><trkpt lat="36.4000212" lon="10.054724"><ele>178.5</ele><time>2026-04-24T14:00:57.129Z</time></trkpt><trkpt lat="36.3999321" lon="10.0545964"><ele>177.75</ele><time>2026-04-24T14:00:58.141Z</time></trkpt><trkpt lat="36.3998361" lon="10.0544753"><ele>177.0</ele><time>2026-04-24T14:00:59.142Z</time></trkpt><trkpt lat="36.3997463" lon="10.0543581"><ele>177.25</ele><time>2026-04-24T14:01:00.144Z</time></trkpt><trkpt lat="36.3996561" lon="10.0542452"><ele>177.5</ele><time>2026-04-24T14:01:01.14Z</time></trkpt><trkpt lat="36.3995654" lon="10.054124"><ele>177.75</ele><time>2026-04-24T14:01:02.135Z</time></trkpt><trkpt lat="36.3994773" lon="10.0540064"><ele>178.0</ele><time>2026-04-24T14:01:03.138Z</time></trkpt><trkpt lat="36.3993849" lon="10.0538926"><ele>178.0</ele><time>2026-04-24T14:01:04.144Z</time></trkpt><trkpt lat="36.3992878" lon="10.0537722"><ele>178.0</ele><time>2026-04-24T14:01:05.144Z</time></trkpt><trkpt lat="36.3991916" lon="10.0536541"><ele>178.0</ele><time>2026-04-24T14:01:06.14Z</time></trkpt><trkpt lat="36.3990923" lon="10.0535373"><ele>178.0</ele><time>2026-04-24T14:01:07.145Z</time></trkpt><trkpt lat="36.3990046" lon="10.0534211"><ele>178.0</ele><time>2026-04-24T14:01:08.131Z</time></trkpt><trkpt lat="36.3989187" lon="10.053305"><ele>178.0</ele><time>2026-04-24T14:01:09.155Z</time></trkpt><trkpt lat="36.398835" lon="10.0531843"><ele>178.0</ele><time>2026-04-24T14:01:10.146Z</time></trkpt><trkpt lat="36.3987547" lon="10.0530574"><ele>178.0</ele><time>2026-04-24T14:01:11.13Z</time></trkpt><trkpt lat="36.3986683" lon="10.0529287"><ele>178.0</ele><time>2026-04-24T14:01:12.134Z</time></trkpt><trkpt lat="36.3985846" lon="10.0527963"><ele>178.0</ele><time>2026-04-24T14:01:13.135Z</time></trkpt><trkpt lat="36.3985008" lon="10.0526609"><ele>178.0</ele><time>2026-04-24T14:01:14.132Z</time></trkpt><trkpt lat="36.3984154" lon="10.0525283"><ele>178.0</ele><time>2026-04-24T14:01:15.132Z</time></trkpt><trkpt lat="36.3983307" lon="10.052386"><ele>178.0</ele><time>2026-04-24T14:01:16.14Z</time></trkpt><trkpt lat="36.3982437" lon="10.0522509"><ele>178.0</ele><time>2026-04-24T14:01:17.136Z</time></trkpt><trkpt lat="36.3981584" lon="10.0521135"><ele>178.0</ele><time>2026-04-24T14:01:18.191Z</time></trkpt><trkpt lat="36.3980663" lon="10.0519714"><ele>178.0</ele><time>2026-04-24T14:01:19.133Z</time></trkpt><trkpt lat="36.3979748" lon="10.0518214"><ele>178.33333333333334</ele><time>2026-04-24T14:01:20.154Z</time></trkpt><trkpt lat="36.3978857" lon="10.0516726"><ele>178.66666666666666</ele><time>2026-04-24T14:01:21.131Z</time></trkpt><trkpt lat="36.3977917" lon="10.0515256"><ele>179.0</ele><time>2026-04-24T14:01:22.142Z</time></trkpt><trkpt lat="36.3976943" lon="10.0513738"><ele>179.0</ele><time>2026-04-24T14:01:23.125Z</time></trkpt><trkpt lat="36.3975934" lon="10.0512252"><ele>179.0</ele><time>2026-04-24T14:01:24.162Z</time></trkpt><trkpt lat="36.3974957" lon="10.0510794"><ele>179.0</ele><time>2026-04-24T14:01:25.138Z</time></trkpt><trkpt lat="36.3974011" lon="10.0509383"><ele>179.0</ele><time>2026-04-24T14:01:26.131Z</time></trkpt><trkpt lat="36.3973074" lon="10.0508014"><ele>179.0</ele><time>2026-04-24T14:01:27.139Z</time></trkpt><trkpt lat="36.3972141" lon="10.0506612"><ele>179.0</ele><time>2026-04-24T14:01:28.131Z</time></trkpt><trkpt lat="36.3971253" lon="10.0505284"><ele>179.0</ele><time>2026-04-24T14:01:29.141Z</time></trkpt><trkpt lat="36.3970446" lon="10.0504039"><ele>179.5</ele><time>2026-04-24T14:01:30.143Z</time></trkpt><trkpt lat="36.3969688" lon="10.050278"><ele>180.0</ele><time>2026-04-24T14:01:31.138Z</time></trkpt><trkpt lat="36.3969131" lon="10.050142"><ele>180.5</ele><time>2026-04-24T14:01:32.144Z</time></trkpt><trkpt lat="36.3968747" lon="10.0499942"><ele>181.0</ele><time>2026-04-24T14:01:33.131Z</time></trkpt><trkpt lat="36.3968323" lon="10.0498411"><ele>181.75</ele><time>2026-04-24T14:01:34.144Z</time></trkpt><trkpt lat="36.3968085" lon="10.0496872"><ele>182.5</ele><time>2026-04-24T14:01:35.136Z</time></trkpt><trkpt lat="36.3967889" lon="10.0495266"><ele>183.25</ele><time>2026-04-24T14:01:36.128Z</time></trkpt><trkpt lat="36.3967721" lon="10.0493547"><ele>184.0</ele><time>2026-04-24T14:01:37.147Z</time></trkpt><trkpt lat="36.3967635" lon="10.0492027"><ele>184.25</ele><time>2026-04-24T14:01:38.143Z</time></trkpt><trkpt lat="36.3967574" lon="10.0490526"><ele>184.5</ele><time>2026-04-24T14:01:39.14Z</time></trkpt><trkpt lat="36.3967509" lon="10.0489091"><ele>184.75</ele><time>2026-04-24T14:01:40.146Z</time></trkpt><trkpt lat="36.3967385" lon="10.0487672"><ele>185.0</ele><time>2026-04-24T14:01:41.141Z</time></trkpt><trkpt lat="36.3967321" lon="10.0486356"><ele>185.0</ele><time>2026-04-24T14:01:42.126Z</time></trkpt><trkpt lat="36.3967201" lon="10.048509"><ele>185.0</ele><time>2026-04-24T14:01:43.144Z</time></trkpt><trkpt lat="36.3967093" lon="10.0483889"><ele>185.0</ele><time>2026-04-24T14:01:44.137Z</time></trkpt><trkpt lat="36.3966915" lon="10.0482715"><ele>185.0</ele><time>2026-04-24T14:01:45.151Z</time></trkpt><trkpt lat="36.3966792" lon="10.0481643"><ele>185.0</ele><time>2026-04-24T14:01:46.179Z</time></trkpt><trkpt lat="36.3966623" lon="10.0480683"><ele>185.0</ele><time>2026-04-24T14:01:47.136Z</time></trkpt><trkpt lat="36.3966489" lon="10.0479845"><ele>185.0</ele><time>2026-04-24T14:01:48.138Z</time></trkpt><trkpt lat="36.3966245" lon="10.0478412"><ele>185.0</ele><time>2026-04-24T14:01:50.134Z</time></trkpt><trkpt lat="36.3966019" lon="10.0477593"><ele>185.0</ele><time>2026-04-24T14:01:51.14Z</time></trkpt><trkpt lat="36.3965766" lon="10.0476628"><ele>185.0</ele><time>2026-04-24T14:01:52.16Z</time></trkpt><trkpt lat="36.396542" lon="10.0475702"><ele>185.0</ele><time>2026-04-24T14:01:53.135Z</time></trkpt><trkpt lat="36.3965165" lon="10.0474681"><ele>185.16666666666666</ele><time>2026-04-24T14:01:54.149Z</time></trkpt><trkpt lat="36.3964883" lon="10.0473549"><ele>185.33333333333331</ele><time>2026-04-24T14:01:55.145Z</time></trkpt><trkpt lat="36.3964612" lon="10.0472394"><ele>185.5</ele><time>2026-04-24T14:01:56.138Z</time></trkpt><trkpt lat="36.3964335" lon="10.0471298"><ele>185.66666666666666</ele><time>2026-04-24T14:01:57.132Z</time></trkpt><trkpt lat="36.3964143" lon="10.0470264"><ele>185.83333333333334</ele><time>2026-04-24T14:01:58.204Z</time></trkpt><trkpt lat="36.3963928" lon="10.0469355"><ele>186.0</ele><time>2026-04-24T14:01:59.193Z</time></trkpt><trkpt lat="36.3963736" lon="10.0468519"><ele>186.20000000000002</ele><time>2026-04-24T14:02:00.177Z</time></trkpt><trkpt lat="36.396336" lon="10.0467343"><ele>186.4</ele><time>2026-04-24T14:02:02.204Z</time></trkpt><trkpt lat="36.3963052" lon="10.0466175"><ele>186.6</ele><time>2026-04-24T14:02:04.182Z</time></trkpt><trkpt lat="36.3962561" lon="10.0464721"><ele>186.8</ele><time>2026-04-24T14:02:06.199Z</time></trkpt><trkpt lat="36.3962292" lon="10.0463911"><ele>187.0</ele><time>2026-04-24T14:02:07.191Z</time></trkpt><trkpt lat="36.3962007" lon="10.0463108"><ele>187.0</ele><time>2026-04-24T14:02:08.194Z</time></trkpt><trkpt lat="36.3961787" lon="10.0462208"><ele>187.0</ele><time>2026-04-24T14:02:09.19Z</time></trkpt><trkpt lat="36.3961554" lon="10.0461176"><ele>187.0</ele><time>2026-04-24T14:02:10.185Z</time></trkpt><trkpt lat="36.3961419" lon="10.0460153"><ele>187.0</ele><time>2026-04-24T14:02:11.183Z</time></trkpt><trkpt lat="36.3961352" lon="10.0459088"><ele>187.0</ele><time>2026-04-24T14:02:12.182Z</time></trkpt><trkpt lat="36.3961364" lon="10.0457963"><ele>187.0</ele><time>2026-04-24T14:02:13.196Z</time></trkpt><trkpt lat="36.396139" lon="10.0456836"><ele>186.6</ele><time>2026-04-24T14:02:14.19Z</time></trkpt><trkpt lat="36.3961555" lon="10.0455687"><ele>186.2</ele><time>2026-04-24T14:02:15.192Z</time></trkpt><trkpt lat="36.3961751" lon="10.0454532"><ele>185.8</ele><time>2026-04-24T14:02:16.192Z</time></trkpt><trkpt lat="36.3961942" lon="10.0453397"><ele>185.4</ele><time>2026-04-24T14:02:17.189Z</time></trkpt><trkpt lat="36.3962225" lon="10.0452218"><ele>185.0</ele><time>2026-04-24T14:02:18.186Z</time></trkpt><trkpt lat="36.3962577" lon="10.0451166"><ele>185.0</ele><time>2026-04-24T14:02:19.179Z</time></trkpt><trkpt lat="36.3962956" lon="10.0450214"><ele>185.0</ele><time>2026-04-24T14:02:20.177Z</time></trkpt><trkpt lat="36.3963325" lon="10.0449324"><ele>185.0</ele><time>2026-04-24T14:02:21.186Z</time></trkpt><trkpt lat="36.3963675" lon="10.0448431"><ele>185.0</ele><time>2026-04-24T14:02:22.189Z</time></trkpt><trkpt lat="36.3964057" lon="10.0447654"><ele>185.0</ele><time>2026-04-24T14:02:23.186Z</time></trkpt><trkpt lat="36.3964469" lon="10.0446874"><ele>185.0</ele><time>2026-04-24T14:02:24.19Z</time></trkpt><trkpt lat="36.3964903" lon="10.0446156"><ele>184.66666666666666</ele><time>2026-04-24T14:02:25.168Z</time></trkpt><trkpt lat="36.3965348" lon="10.044552"><ele>184.33333333333331</ele><time>2026-04-24T14:02:26.187Z</time></trkpt><trkpt lat="36.3965852" lon="10.04449"><ele>184.0</ele><time>2026-04-24T14:02:27.18Z</time></trkpt><trkpt lat="36.3966376" lon="10.0444234"><ele>183.66666666666666</ele><time>2026-04-24T14:02:28.181Z</time></trkpt><trkpt lat="36.3967035" lon="10.0443478"><ele>183.33333333333334</ele><time>2026-04-24T14:02:29.19Z</time></trkpt><trkpt lat="36.3967838" lon="10.0442813"><ele>183.0</ele><time>2026-04-24T14:02:30.189Z</time></trkpt><trkpt lat="36.3968735" lon="10.0442139"><ele>183.0</ele><time>2026-04-24T14:02:31.19Z</time></trkpt><trkpt lat="36.3969667" lon="10.0441439"><ele>183.0</ele><time>2026-04-24T14:02:32.181Z</time></trkpt><trkpt lat="36.3970642" lon="10.0440692"><ele>183.0</ele><time>2026-04-24T14:02:33.191Z</time></trkpt><trkpt lat="36.3971617" lon="10.0439967"><ele>183.0</ele><time>2026-04-24T14:02:34.196Z</time></trkpt><trkpt lat="36.3972582" lon="10.043923"><ele>182.0</ele><time>2026-04-24T14:02:35.179Z</time></trkpt><trkpt lat="36.3973607" lon="10.0438461"><ele>181.0</ele><time>2026-04-24T14:02:36.192Z</time></trkpt><trkpt lat="36.3974675" lon="10.0437655"><ele>180.0</ele><time>2026-04-24T14:02:37.2Z</time></trkpt><trkpt lat="36.3975785" lon="10.0436841"><ele>179.0</ele><time>2026-04-24T14:02:38.194Z</time></trkpt><trkpt lat="36.3976891" lon="10.043605"><ele>179.0</ele><time>2026-04-24T14:02:39.192Z</time></trkpt><trkpt lat="36.3977973" lon="10.0435245"><ele>179.0</ele><time>2026-04-24T14:02:40.194Z</time></trkpt><trkpt lat="36.3979019" lon="10.0434474"><ele>179.0</ele><time>2026-04-24T14:02:41.211Z</time></trkpt><trkpt lat="36.3979964" lon="10.0433752"><ele>179.0</ele><time>2026-04-24T14:02:42.185Z</time></trkpt><trkpt lat="36.3980805" lon="10.043306"><ele>179.0</ele><time>2026-04-24T14:02:43.184Z</time></trkpt><trkpt lat="36.3981523" lon="10.0432475"><ele>179.0</ele><time>2026-04-24T14:02:44.193Z</time></trkpt><trkpt lat="36.3982108" lon="10.0432022"><ele>179.0</ele><time>2026-04-24T14:02:45.168Z</time></trkpt><trkpt lat="36.3982683" lon="10.0431566"><ele>179.0</ele><time>2026-04-24T14:02:46.171Z</time></trkpt><trkpt lat="36.3983308" lon="10.043098"><ele>179.0</ele><time>2026-04-24T14:02:47.178Z</time></trkpt><trkpt lat="36.3984098" lon="10.043023"><ele>179.0</ele><time>2026-04-24T14:02:48.181Z</time></trkpt><trkpt lat="36.3984983" lon="10.0429341"><ele>179.0</ele><time>2026-04-24T14:02:49.191Z</time></trkpt><trkpt lat="36.398588" lon="10.0428321"><ele>179.0</ele><time>2026-04-24T14:02:50.182Z</time></trkpt><trkpt lat="36.3986735" lon="10.0427218"><ele>179.0</ele><time>2026-04-24T14:02:51.176Z</time></trkpt><trkpt lat="36.3987544" lon="10.0426113"><ele>179.0</ele><time>2026-04-24T14:02:52.188Z</time></trkpt><trkpt lat="36.3988353" lon="10.0424882"><ele>178.0</ele><time>2026-04-24T14:02:53.178Z</time></trkpt><trkpt lat="36.3989111" lon="10.0423542"><ele>177.0</ele><time>2026-04-24T14:02:54.181Z</time></trkpt><trkpt lat="36.3989787" lon="10.0422158"><ele>176.0</ele><time>2026-04-24T14:02:55.18Z</time></trkpt><trkpt lat="36.3990381" lon="10.0420718"><ele>175.0</ele><time>2026-04-24T14:02:56.176Z</time></trkpt><trkpt lat="36.3990895" lon="10.0419217"><ele>175.0</ele><time>2026-04-24T14:02:57.184Z</time></trkpt><trkpt lat="36.3991315" lon="10.0417653"><ele>175.0</ele><time>2026-04-24T14:02:58.186Z</time></trkpt><trkpt lat="36.3991618" lon="10.0416019"><ele>175.0</ele><time>2026-04-24T14:02:59.193Z</time></trkpt><trkpt lat="36.3991839" lon="10.0414331"><ele>175.0</ele><time>2026-04-24T14:03:00.18Z</time></trkpt><trkpt lat="36.3992003" lon="10.0412617"><ele>175.5</ele><time>2026-04-24T14:03:01.197Z</time></trkpt><trkpt lat="36.3992178" lon="10.0410902"><ele>176.0</ele><time>2026-04-24T14:03:02.185Z</time></trkpt><trkpt lat="36.3992313" lon="10.0409177"><ele>176.5</ele><time>2026-04-24T14:03:03.182Z</time></trkpt><trkpt lat="36.3992435" lon="10.0407473"><ele>177.0</ele><time>2026-04-24T14:03:04.197Z</time></trkpt><trkpt lat="36.3992545" lon="10.0405734"><ele>177.0</ele><time>2026-04-24T14:03:05.165Z</time></trkpt><trkpt lat="36.3992645" lon="10.0404002"><ele>177.0</ele><time>2026-04-24T14:03:06.204Z</time></trkpt><trkpt lat="36.3992758" lon="10.0402245"><ele>177.0</ele><time>2026-04-24T14:03:07.178Z</time></trkpt><trkpt lat="36.3992893" lon="10.040042"><ele>177.0</ele><time>2026-04-24T14:03:08.185Z</time></trkpt><trkpt lat="36.3993051" lon="10.039847"><ele>177.0</ele><time>2026-04-24T14:03:09.191Z</time></trkpt><trkpt lat="36.3993207" lon="10.0396368"><ele>177.0</ele><time>2026-04-24T14:03:10.182Z</time></trkpt><trkpt lat="36.3993383" lon="10.0394163"><ele>177.0</ele><time>2026-04-24T14:03:11.191Z</time></trkpt><trkpt lat="36.3993577" lon="10.0391907"><ele>177.0</ele><time>2026-04-24T14:03:12.188Z</time></trkpt><trkpt lat="36.3993754" lon="10.038959"><ele>177.0</ele><time>2026-04-24T14:03:13.17Z</time></trkpt><trkpt lat="36.3993927" lon="10.0387294"><ele>177.0</ele><time>2026-04-24T14:03:14.177Z</time></trkpt><trkpt lat="36.3994099" lon="10.0385014"><ele>176.33333333333334</ele><time>2026-04-24T14:03:15.187Z</time></trkpt><trkpt lat="36.3994265" lon="10.0382742"><ele>175.66666666666669</ele><time>2026-04-24T14:03:16.199Z</time></trkpt><trkpt lat="36.3994453" lon="10.0380543"><ele>175.0</ele><time>2026-04-24T14:03:17.174Z</time></trkpt><trkpt lat="36.3994629" lon="10.0378422"><ele>175.0</ele><time>2026-04-24T14:03:18.173Z</time></trkpt><trkpt lat="36.3994787" lon="10.0376346"><ele>175.0</ele><time>2026-04-24T14:03:19.178Z</time></trkpt><trkpt lat="36.3994918" lon="10.0374321"><ele>175.0</ele><time>2026-04-24T14:03:20.17Z</time></trkpt><trkpt lat="36.3995062" lon="10.0372354"><ele>175.0</ele><time>2026-04-24T14:03:21.171Z</time></trkpt><trkpt lat="36.3995213" lon="10.0370421"><ele>175.0</ele><time>2026-04-24T14:03:22.181Z</time></trkpt><trkpt lat="36.3995377" lon="10.0368496"><ele>175.0</ele><time>2026-04-24T14:03:23.187Z</time></trkpt><trkpt lat="36.3995516" lon="10.0366577"><ele>175.0</ele><time>2026-04-24T14:03:24.191Z</time></trkpt><trkpt lat="36.3995652" lon="10.0364595"><ele>175.0</ele><time>2026-04-24T14:03:25.189Z</time></trkpt><trkpt lat="36.3995784" lon="10.0362645"><ele>175.0</ele><time>2026-04-24T14:03:26.188Z</time></trkpt><trkpt lat="36.3995939" lon="10.0360687"><ele>175.0</ele><time>2026-04-24T14:03:27.178Z</time></trkpt><trkpt lat="36.3996082" lon="10.0358746"><ele>175.0</ele><time>2026-04-24T14:03:28.174Z</time></trkpt><trkpt lat="36.3996234" lon="10.0356834"><ele>175.0</ele><time>2026-04-24T14:03:29.188Z</time></trkpt><trkpt lat="36.3996382" lon="10.0354932"><ele>175.0</ele><time>2026-04-24T14:03:30.18Z</time></trkpt><trkpt lat="36.3996506" lon="10.0353044"><ele>175.0</ele><time>2026-04-24T14:03:31.175Z</time></trkpt><trkpt lat="36.3996635" lon="10.0351164"><ele>175.0</ele><time>2026-04-24T14:03:32.175Z</time></trkpt><trkpt lat="36.3996762" lon="10.0349275"><ele>174.66666666666669</ele><time>2026-04-24T14:03:33.196Z</time></trkpt><trkpt lat="36.3996909" lon="10.0347358"><ele>174.33333333333334</ele><time>2026-04-24T14:03:34.186Z</time></trkpt><trkpt lat="36.3997026" lon="10.0345426"><ele>174.0</ele><time>2026-04-24T14:03:35.18Z</time></trkpt><trkpt lat="36.399717" lon="10.0343482"><ele>174.0</ele><time>2026-04-24T14:03:36.184Z</time></trkpt><trkpt lat="36.3997313" lon="10.034156"><ele>174.0</ele><time>2026-04-24T14:03:37.184Z</time></trkpt><trkpt lat="36.3997447" lon="10.0339682"><ele>174.0</ele><time>2026-04-24T14:03:38.186Z</time></trkpt><trkpt lat="36.3997591" lon="10.033781"><ele>174.0</ele><time>2026-04-24T14:03:39.178Z</time></trkpt><trkpt lat="36.3997751" lon="10.0335951"><ele>174.0</ele><time>2026-04-24T14:03:40.187Z</time></trkpt><trkpt lat="36.3997908" lon="10.0334051"><ele>174.0</ele><time>2026-04-24T14:03:41.194Z</time></trkpt><trkpt lat="36.3998064" lon="10.0332114"><ele>173.33333333333334</ele><time>2026-04-24T14:03:42.188Z</time></trkpt><trkpt lat="36.3998213" lon="10.0330187"><ele>172.66666666666669</ele><time>2026-04-24T14:03:43.175Z</time></trkpt><trkpt lat="36.3998368" lon="10.0328237"><ele>172.0</ele><time>2026-04-24T14:03:44.179Z</time></trkpt><trkpt lat="36.3998543" lon="10.0326272"><ele>172.66666666666669</ele><time>2026-04-24T14:03:45.17Z</time></trkpt><trkpt lat="36.3998681" lon="10.0324316"><ele>173.33333333333334</ele><time>2026-04-24T14:03:46.168Z</time></trkpt><trkpt lat="36.3998818" lon="10.0322322"><ele>174.0</ele><time>2026-04-24T14:03:47.192Z</time></trkpt><trkpt lat="36.3998992" lon="10.032035"><ele>174.0</ele><time>2026-04-24T14:03:48.178Z</time></trkpt><trkpt lat="36.3999145" lon="10.0318388"><ele>174.0</ele><time>2026-04-24T14:03:49.178Z</time></trkpt><trkpt lat="36.3999287" lon="10.0316423"><ele>174.0</ele><time>2026-04-24T14:03:50.181Z</time></trkpt><trkpt lat="36.3999407" lon="10.0314419"><ele>174.33333333333334</ele><time>2026-04-24T14:03:51.172Z</time></trkpt><trkpt lat="36.3999521" lon="10.0312437"><ele>174.66666666666669</ele><time>2026-04-24T14:03:52.189Z</time></trkpt><trkpt lat="36.3999679" lon="10.0310501"><ele>175.0</ele><time>2026-04-24T14:03:53.167Z</time></trkpt><trkpt lat="36.3999847" lon="10.0308552"><ele>175.0</ele><time>2026-04-24T14:03:54.2Z</time></trkpt><trkpt lat="36.4000025" lon="10.0306591"><ele>175.0</ele><time>2026-04-24T14:03:55.18Z</time></trkpt><trkpt lat="36.4000188" lon="10.0304627"><ele>175.0</ele><time>2026-04-24T14:03:56.171Z</time></trkpt><trkpt lat="36.4000368" lon="10.0302686"><ele>175.0</ele><time>2026-04-24T14:03:57.184Z</time></trkpt><trkpt lat="36.4000503" lon="10.0300693"><ele>175.0</ele><time>2026-04-24T14:03:58.18Z</time></trkpt><trkpt lat="36.4000655" lon="10.0298723"><ele>175.0</ele><time>2026-04-24T14:03:59.183Z</time></trkpt><trkpt lat="36.4000813" lon="10.0296758"><ele>175.66666666666669</ele><time>2026-04-24T14:04:00.176Z</time></trkpt><trkpt lat="36.4000977" lon="10.0294801"><ele>176.33333333333334</ele><time>2026-04-24T14:04:01.179Z</time></trkpt><trkpt lat="36.4001146" lon="10.02928"><ele>177.0</ele><time>2026-04-24T14:04:02.189Z</time></trkpt><trkpt lat="36.4001333" lon="10.0290742"><ele>177.66666666666666</ele><time>2026-04-24T14:04:03.177Z</time></trkpt><trkpt lat="36.4001503" lon="10.028864"><ele>178.33333333333331</ele><time>2026-04-24T14:04:04.19Z</time></trkpt><trkpt lat="36.400169" lon="10.0286488"><ele>179.0</ele><time>2026-04-24T14:04:05.167Z</time></trkpt><trkpt lat="36.4001874" lon="10.028426"><ele>178.66666666666666</ele><time>2026-04-24T14:04:06.175Z</time></trkpt><trkpt lat="36.4002039" lon="10.0281997"><ele>178.33333333333334</ele><time>2026-04-24T14:04:07.19Z</time></trkpt><trkpt lat="36.4002185" lon="10.0279753"><ele>178.0</ele><time>2026-04-24T14:04:08.191Z</time></trkpt><trkpt lat="36.4002352" lon="10.0277504"><ele>178.0</ele><time>2026-04-24T14:04:09.195Z</time></trkpt><trkpt lat="36.4002523" lon="10.0275257"><ele>178.0</ele><time>2026-04-24T14:04:10.197Z</time></trkpt><trkpt lat="36.4002682" lon="10.0273005"><ele>178.0</ele><time>2026-04-24T14:04:11.185Z</time></trkpt><trkpt lat="36.4002881" lon="10.027078"><ele>178.0</ele><time>2026-04-24T14:04:12.177Z</time></trkpt><trkpt lat="36.400307" lon="10.0268541"><ele>178.0</ele><time>2026-04-24T14:04:13.179Z</time></trkpt><trkpt lat="36.4003263" lon="10.0266303"><ele>178.0</ele><time>2026-04-24T14:04:14.194Z</time></trkpt><trkpt lat="36.400343" lon="10.0264005"><ele>178.33333333333334</ele><time>2026-04-24T14:04:15.203Z</time></trkpt><trkpt lat="36.40036" lon="10.026173"><ele>178.66666666666666</ele><time>2026-04-24T14:04:16.184Z</time></trkpt><trkpt lat="36.4003765" lon="10.0259467"><ele>179.0</ele><time>2026-04-24T14:04:17.2Z</time></trkpt><trkpt lat="36.4003946" lon="10.0257193"><ele>179.33333333333331</ele><time>2026-04-24T14:04:18.191Z</time></trkpt><trkpt lat="36.400413" lon="10.0254878"><ele>179.66666666666666</ele><time>2026-04-24T14:04:19.176Z</time></trkpt><trkpt lat="36.4004314" lon="10.0252568"><ele>180.0</ele><time>2026-04-24T14:04:20.177Z</time></trkpt><trkpt lat="36.400449" lon="10.025021"><ele>180.33333333333334</ele><time>2026-04-24T14:04:21.193Z</time></trkpt><trkpt lat="36.4004652" lon="10.0247862"><ele>180.66666666666669</ele><time>2026-04-24T14:04:22.197Z</time></trkpt><trkpt lat="36.4004828" lon="10.0245494"><ele>181.0</ele><time>2026-04-24T14:04:23.19Z</time></trkpt><trkpt lat="36.4005027" lon="10.0243184"><ele>181.33333333333334</ele><time>2026-04-24T14:04:24.196Z</time></trkpt><trkpt lat="36.400521" lon="10.0240768"><ele>181.66666666666666</ele><time>2026-04-24T14:04:25.179Z</time></trkpt><trkpt lat="36.400532" lon="10.0238302"><ele>182.0</ele><time>2026-04-24T14:04:26.184Z</time></trkpt><trkpt lat="36.4005482" lon="10.0235722"><ele>181.0</ele><time>2026-04-24T14:04:27.168Z</time></trkpt><trkpt lat="36.4005687" lon="10.0232985"><ele>180.0</ele><time>2026-04-24T14:04:28.186Z</time></trkpt><trkpt lat="36.4005866" lon="10.0230098"><ele>180.0</ele><time>2026-04-24T14:04:29.2Z</time></trkpt><trkpt lat="36.4006085" lon="10.0227208"><ele>180.0</ele><time>2026-04-24T14:04:30.185Z</time></trkpt><trkpt lat="36.4006293" lon="10.0224272"><ele>180.0</ele><time>2026-04-24T14:04:31.186Z</time></trkpt><trkpt lat="36.4006498" lon="10.0221361"><ele>180.0</ele><time>2026-04-24T14:04:32.186Z</time></trkpt><trkpt lat="36.4006669" lon="10.021849"><ele>179.0</ele><time>2026-04-24T14:04:33.178Z</time></trkpt><trkpt lat="36.4006849" lon="10.0215691"><ele>178.0</ele><time>2026-04-24T14:04:34.186Z</time></trkpt><trkpt lat="36.4007041" lon="10.0212895"><ele>178.0</ele><time>2026-04-24T14:04:35.189Z</time></trkpt><trkpt lat="36.4007259" lon="10.0210181"><ele>178.0</ele><time>2026-04-24T14:04:36.191Z</time></trkpt><trkpt lat="36.4007475" lon="10.0207508"><ele>178.0</ele><time>2026-04-24T14:04:37.185Z</time></trkpt><trkpt lat="36.4007694" lon="10.0204882"><ele>178.0</ele><time>2026-04-24T14:04:38.199Z</time></trkpt><trkpt lat="36.4007891" lon="10.0202311"><ele>178.0</ele><time>2026-04-24T14:04:39.186Z</time></trkpt><trkpt lat="36.4008081" lon="10.0199761"><ele>178.0</ele><time>2026-04-24T14:04:40.194Z</time></trkpt><trkpt lat="36.4008214" lon="10.019727"><ele>178.0</ele><time>2026-04-24T14:04:41.188Z</time></trkpt><trkpt lat="36.4008365" lon="10.0194847"><ele>178.0</ele><time>2026-04-24T14:04:42.198Z</time></trkpt><trkpt lat="36.4008547" lon="10.0192487"><ele>178.0</ele><time>2026-04-24T14:04:43.185Z</time></trkpt><trkpt lat="36.4008748" lon="10.0190074"><ele>178.33333333333334</ele><time>2026-04-24T14:04:44.194Z</time></trkpt><trkpt lat="36.4008954" lon="10.0187646"><ele>178.66666666666666</ele><time>2026-04-24T14:04:45.179Z</time></trkpt><trkpt lat="36.4009142" lon="10.0185212"><ele>179.0</ele><time>2026-04-24T14:04:46.198Z</time></trkpt><trkpt lat="36.400935" lon="10.0182765"><ele>179.0</ele><time>2026-04-24T14:04:47.197Z</time></trkpt><trkpt lat="36.4009546" lon="10.0180254"><ele>179.0</ele><time>2026-04-24T14:04:48.204Z</time></trkpt><trkpt lat="36.4009741" lon="10.0177726"><ele>179.0</ele><time>2026-04-24T14:04:49.182Z</time></trkpt><trkpt lat="36.400994" lon="10.0175189"><ele>178.66666666666666</ele><time>2026-04-24T14:04:50.186Z</time></trkpt><trkpt lat="36.401015" lon="10.0172615"><ele>178.33333333333334</ele><time>2026-04-24T14:04:51.184Z</time></trkpt><trkpt lat="36.401034" lon="10.0170032"><ele>178.0</ele><time>2026-04-24T14:04:52.186Z</time></trkpt><trkpt lat="36.4010541" lon="10.0167449"><ele>178.0</ele><time>2026-04-24T14:04:53.182Z</time></trkpt><trkpt lat="36.4010734" lon="10.0164871"><ele>178.0</ele><time>2026-04-24T14:04:54.195Z</time></trkpt><trkpt lat="36.4010925" lon="10.0162291"><ele>178.0</ele><time>2026-04-24T14:04:55.187Z</time></trkpt><trkpt lat="36.4011124" lon="10.015972"><ele>178.33333333333334</ele><time>2026-04-24T14:04:56.188Z</time></trkpt><trkpt lat="36.401134" lon="10.0157116"><ele>178.66666666666666</ele><time>2026-04-24T14:04:57.178Z</time></trkpt><trkpt lat="36.4011555" lon="10.0154518"><ele>179.0</ele><time>2026-04-24T14:04:58.175Z</time></trkpt><trkpt lat="36.4011748" lon="10.015193"><ele>178.66666666666666</ele><time>2026-04-24T14:04:59.181Z</time></trkpt><trkpt lat="36.4011929" lon="10.014929"><ele>178.33333333333334</ele><time>2026-04-24T14:05:00.196Z</time></trkpt><trkpt lat="36.4012116" lon="10.0146616"><ele>178.0</ele><time>2026-04-24T14:05:01.201Z</time></trkpt><trkpt lat="36.4012324" lon="10.0143933"><ele>177.66666666666669</ele><time>2026-04-24T14:05:02.19Z</time></trkpt><trkpt lat="36.4012542" lon="10.0141279"><ele>177.33333333333334</ele><time>2026-04-24T14:05:03.2Z</time></trkpt><trkpt lat="36.401275" lon="10.0138609"><ele>177.0</ele><time>2026-04-24T14:05:04.194Z</time></trkpt><trkpt lat="36.401297" lon="10.0135943"><ele>177.0</ele><time>2026-04-24T14:05:05.18Z</time></trkpt><trkpt lat="36.4013182" lon="10.013327"><ele>177.0</ele><time>2026-04-24T14:05:06.198Z</time></trkpt><trkpt lat="36.4013388" lon="10.0130598"><ele>177.0</ele><time>2026-04-24T14:05:07.186Z</time></trkpt><trkpt lat="36.4013571" lon="10.012794"><ele>176.66666666666666</ele><time>2026-04-24T14:05:08.199Z</time></trkpt><trkpt lat="36.4013766" lon="10.0125309"><ele>176.33333333333331</ele><time>2026-04-24T14:05:09.188Z</time></trkpt><trkpt lat="36.4013954" lon="10.0122681"><ele>176.0</ele><time>2026-04-24T14:05:10.183Z</time></trkpt><trkpt lat="36.4014141" lon="10.0120082"><ele>176.0</ele><time>2026-04-24T14:05:11.19Z</time></trkpt><trkpt lat="36.4014338" lon="10.01175"><ele>176.0</ele><time>2026-04-24T14:05:12.187Z</time></trkpt><trkpt lat="36.4014528" lon="10.0114957"><ele>176.0</ele><time>2026-04-24T14:05:13.171Z</time></trkpt><trkpt lat="36.4014727" lon="10.011243"><ele>175.66666666666666</ele><time>2026-04-24T14:05:14.187Z</time></trkpt><trkpt lat="36.4014933" lon="10.0109927"><ele>175.33333333333334</ele><time>2026-04-24T14:05:15.19Z</time></trkpt><trkpt lat="36.4015118" lon="10.0107423"><ele>175.0</ele><time>2026-04-24T14:05:16.193Z</time></trkpt><trkpt lat="36.4015297" lon="10.0104925"><ele>175.66666666666669</ele><time>2026-04-24T14:05:17.187Z</time></trkpt><trkpt lat="36.4015503" lon="10.0102437"><ele>176.33333333333334</ele><time>2026-04-24T14:05:18.19Z</time></trkpt><trkpt lat="36.4015701" lon="10.0099981"><ele>177.0</ele><time>2026-04-24T14:05:19.217Z</time></trkpt><trkpt lat="36.4015906" lon="10.0097521"><ele>177.0</ele><time>2026-04-24T14:05:20.19Z</time></trkpt><trkpt lat="36.4016075" lon="10.0095057"><ele>177.0</ele><time>2026-04-24T14:05:21.182Z</time></trkpt><trkpt lat="36.401625" lon="10.0092598"><ele>177.0</ele><time>2026-04-24T14:05:22.201Z</time></trkpt><trkpt lat="36.4016437" lon="10.009014"><ele>176.66666666666666</ele><time>2026-04-24T14:05:23.195Z</time></trkpt><trkpt lat="36.4016619" lon="10.0087683"><ele>176.33333333333331</ele><time>2026-04-24T14:05:24.199Z</time></trkpt><trkpt lat="36.4016825" lon="10.0085204"><ele>176.0</ele><time>2026-04-24T14:05:25.189Z</time></trkpt><trkpt lat="36.4017023" lon="10.0082693"><ele>175.33333333333331</ele><time>2026-04-24T14:05:26.19Z</time></trkpt><trkpt lat="36.4017203" lon="10.0080159"><ele>174.66666666666666</ele><time>2026-04-24T14:05:27.183Z</time></trkpt><trkpt lat="36.40174" lon="10.0077655"><ele>174.0</ele><time>2026-04-24T14:05:28.188Z</time></trkpt><trkpt lat="36.4017586" lon="10.0075122"><ele>174.0</ele><time>2026-04-24T14:05:29.187Z</time></trkpt><trkpt lat="36.4017766" lon="10.0072608"><ele>174.0</ele><time>2026-04-24T14:05:30.192Z</time></trkpt><trkpt lat="36.4017957" lon="10.0070124"><ele>174.0</ele><time>2026-04-24T14:05:31.197Z</time></trkpt><trkpt lat="36.4018151" lon="10.0067626"><ele>173.66666666666666</ele><time>2026-04-24T14:05:32.187Z</time></trkpt><trkpt lat="36.401839" lon="10.0065131"><ele>173.33333333333331</ele><time>2026-04-24T14:05:33.202Z</time></trkpt><trkpt lat="36.4018622" lon="10.0062611"><ele>173.0</ele><time>2026-04-24T14:05:34.186Z</time></trkpt><trkpt lat="36.4018886" lon="10.0060091"><ele>173.0</ele><time>2026-04-24T14:05:35.173Z</time></trkpt><trkpt lat="36.4019173" lon="10.0057589"><ele>173.0</ele><time>2026-04-24T14:05:36.184Z</time></trkpt><trkpt lat="36.4019482" lon="10.0055128"><ele>173.0</ele><time>2026-04-24T14:05:37.18Z</time></trkpt><trkpt lat="36.4019816" lon="10.0052666"><ele>173.0</ele><time>2026-04-24T14:05:38.185Z</time></trkpt><trkpt lat="36.4020177" lon="10.0050231"><ele>173.0</ele><time>2026-04-24T14:05:39.184Z</time></trkpt><trkpt lat="36.4020572" lon="10.004782"><ele>173.0</ele><time>2026-04-24T14:05:40.209Z</time></trkpt><trkpt lat="36.4020974" lon="10.004542"><ele>173.0</ele><time>2026-04-24T14:05:41.199Z</time></trkpt><trkpt lat="36.4021398" lon="10.0043022"><ele>173.0</ele><time>2026-04-24T14:05:42.209Z</time></trkpt><trkpt lat="36.4021797" lon="10.004064"><ele>173.0</ele><time>2026-04-24T14:05:43.18Z</time></trkpt><trkpt lat="36.4022191" lon="10.0038283"><ele>173.0</ele><time>2026-04-24T14:05:44.187Z</time></trkpt><trkpt lat="36.4022627" lon="10.0035929"><ele>173.0</ele><time>2026-04-24T14:05:45.179Z</time></trkpt><trkpt lat="36.4023067" lon="10.0033605"><ele>173.0</ele><time>2026-04-24T14:05:46.192Z</time></trkpt><trkpt lat="36.4023503" lon="10.0031254"><ele>173.33333333333331</ele><time>2026-04-24T14:05:47.197Z</time></trkpt><trkpt lat="36.4023941" lon="10.0028941"><ele>173.66666666666666</ele><time>2026-04-24T14:05:48.193Z</time></trkpt><trkpt lat="36.4024388" lon="10.0026669"><ele>174.0</ele><time>2026-04-24T14:05:49.177Z</time></trkpt><trkpt lat="36.4024827" lon="10.0024411"><ele>174.0</ele><time>2026-04-24T14:05:50.193Z</time></trkpt><trkpt lat="36.4025258" lon="10.0022151"><ele>174.0</ele><time>2026-04-24T14:05:51.187Z</time></trkpt><trkpt lat="36.4025673" lon="10.0019894"><ele>174.0</ele><time>2026-04-24T14:05:52.18Z</time></trkpt><trkpt lat="36.4026107" lon="10.001769"><ele>173.66666666666666</ele><time>2026-04-24T14:05:53.199Z</time></trkpt><trkpt lat="36.4026526" lon="10.0015527"><ele>173.33333333333331</ele><time>2026-04-24T14:05:54.195Z</time></trkpt><trkpt lat="36.4026939" lon="10.0013363"><ele>173.0</ele><time>2026-04-24T14:05:55.188Z</time></trkpt><trkpt lat="36.4027349" lon="10.0011187"><ele>173.0</ele><time>2026-04-24T14:05:56.185Z</time></trkpt><trkpt lat="36.4027733" lon="10.0009"><ele>173.0</ele><time>2026-04-24T14:05:57.191Z</time></trkpt><trkpt lat="36.4028124" lon="10.000681"><ele>173.0</ele><time>2026-04-24T14:05:58.188Z</time></trkpt><trkpt lat="36.4028526" lon="10.0004607"><ele>172.66666666666666</ele><time>2026-04-24T14:05:59.179Z</time></trkpt><trkpt lat="36.402895" lon="10.0002301"><ele>172.33333333333334</ele><time>2026-04-24T14:06:00.181Z</time></trkpt><trkpt lat="36.4029382" lon="9.9999954"><ele>172.0</ele><time>2026-04-24T14:06:01.198Z</time></trkpt><trkpt lat="36.4029821" lon="9.9997608"><ele>171.66666666666669</ele><time>2026-04-24T14:06:02.197Z</time></trkpt><trkpt lat="36.4030253" lon="9.9995248"><ele>171.33333333333334</ele><time>2026-04-24T14:06:03.197Z</time></trkpt><trkpt lat="36.403069" lon="9.9992867"><ele>171.0</ele><time>2026-04-24T14:06:04.199Z</time></trkpt><trkpt lat="36.403112" lon="9.9990448"><ele>171.0</ele><time>2026-04-24T14:06:05.182Z</time></trkpt><trkpt lat="36.4031562" lon="9.9988004"><ele>171.0</ele><time>2026-04-24T14:06:06.192Z</time></trkpt><trkpt lat="36.4032018" lon="9.9985575"><ele>171.0</ele><time>2026-04-24T14:06:07.178Z</time></trkpt><trkpt lat="36.4032465" lon="9.9983184"><ele>170.66666666666666</ele><time>2026-04-24T14:06:08.19Z</time></trkpt><trkpt lat="36.4032937" lon="9.9980798"><ele>170.33333333333331</ele><time>2026-04-24T14:06:09.198Z</time></trkpt><trkpt lat="36.40334" lon="9.9978415"><ele>170.0</ele><time>2026-04-24T14:06:10.191Z</time></trkpt><trkpt lat="36.4033813" lon="9.9976086"><ele>169.66666666666666</ele><time>2026-04-24T14:06:11.185Z</time></trkpt><trkpt lat="36.4034217" lon="9.9973784"><ele>169.33333333333334</ele><time>2026-04-24T14:06:12.196Z</time></trkpt><trkpt lat="36.4034637" lon="9.9971471"><ele>169.0</ele><time>2026-04-24T14:06:13.182Z</time></trkpt><trkpt lat="36.4035056" lon="9.9969166"><ele>169.0</ele><time>2026-04-24T14:06:14.199Z</time></trkpt><trkpt lat="36.4035483" lon="9.9966869"><ele>169.0</ele><time>2026-04-24T14:06:15.182Z</time></trkpt><trkpt lat="36.4035915" lon="9.9964626"><ele>169.0</ele><time>2026-04-24T14:06:16.189Z</time></trkpt><trkpt lat="36.4036331" lon="9.9962366"><ele>169.0</ele><time>2026-04-24T14:06:17.184Z</time></trkpt><trkpt lat="36.4036763" lon="9.9960109"><ele>169.0</ele><time>2026-04-24T14:06:18.19Z</time></trkpt><trkpt lat="36.4037165" lon="9.9957857"><ele>169.0</ele><time>2026-04-24T14:06:19.192Z</time></trkpt><trkpt lat="36.4037574" lon="9.9955565"><ele>169.0</ele><time>2026-04-24T14:06:20.199Z</time></trkpt><trkpt lat="36.4038019" lon="9.9953238"><ele>169.0</ele><time>2026-04-24T14:06:21.182Z</time></trkpt><trkpt lat="36.4038452" lon="9.9950953"><ele>169.0</ele><time>2026-04-24T14:06:22.195Z</time></trkpt><trkpt lat="36.4038885" lon="9.9948657"><ele>168.33333333333334</ele><time>2026-04-24T14:06:23.198Z</time></trkpt><trkpt lat="36.4039304" lon="9.9946345"><ele>167.66666666666666</ele><time>2026-04-24T14:06:24.197Z</time></trkpt><trkpt lat="36.4039751" lon="9.9943996"><ele>167.0</ele><time>2026-04-24T14:06:25.194Z</time></trkpt><trkpt lat="36.4040186" lon="9.9941675"><ele>167.0</ele><time>2026-04-24T14:06:26.2Z</time></trkpt><trkpt lat="36.4040586" lon="9.9939374"><ele>167.0</ele><time>2026-04-24T14:06:27.184Z</time></trkpt><trkpt lat="36.4040995" lon="9.9937062"><ele>167.0</ele><time>2026-04-24T14:06:28.194Z</time></trkpt><trkpt lat="36.4041405" lon="9.993477"><ele>167.0</ele><time>2026-04-24T14:06:29.185Z</time></trkpt><trkpt lat="36.4041819" lon="9.9932479"><ele>167.0</ele><time>2026-04-24T14:06:30.185Z</time></trkpt><trkpt lat="36.4042251" lon="9.9930163"><ele>167.0</ele><time>2026-04-24T14:06:31.2Z</time></trkpt><trkpt lat="36.4042677" lon="9.9927841"><ele>167.0</ele><time>2026-04-24T14:06:32.195Z</time></trkpt><trkpt lat="36.4043084" lon="9.9925531"><ele>167.0</ele><time>2026-04-24T14:06:33.195Z</time></trkpt><trkpt lat="36.4043494" lon="9.9923202"><ele>167.0</ele><time>2026-04-24T14:06:34.207Z</time></trkpt><trkpt lat="36.4043926" lon="9.992087"><ele>166.66666666666666</ele><time>2026-04-24T14:06:35.19Z</time></trkpt><trkpt lat="36.4044352" lon="9.9918547"><ele>166.33333333333334</ele><time>2026-04-24T14:06:36.185Z</time></trkpt><trkpt lat="36.4044774" lon="9.9916219"><ele>166.0</ele><time>2026-04-24T14:06:37.189Z</time></trkpt><trkpt lat="36.4045194" lon="9.9913878"><ele>165.66666666666669</ele><time>2026-04-24T14:06:38.19Z</time></trkpt><trkpt lat="36.4045633" lon="9.9911549"><ele>165.33333333333334</ele><time>2026-04-24T14:06:39.187Z</time></trkpt><trkpt lat="36.4046071" lon="9.9909197"><ele>165.0</ele><time>2026-04-24T14:06:40.208Z</time></trkpt><trkpt lat="36.4046481" lon="9.9906899"><ele>165.66666666666666</ele><time>2026-04-24T14:06:41.194Z</time></trkpt><trkpt lat="36.4046878" lon="9.9904602"><ele>166.33333333333331</ele><time>2026-04-24T14:06:42.195Z</time></trkpt><trkpt lat="36.4047269" lon="9.9902336"><ele>167.0</ele><time>2026-04-24T14:06:43.197Z</time></trkpt><trkpt lat="36.4047691" lon="9.9900092"><ele>166.66666666666666</ele><time>2026-04-24T14:06:44.183Z</time></trkpt><trkpt lat="36.4048102" lon="9.989785"><ele>166.33333333333334</ele><time>2026-04-24T14:06:45.19Z</time></trkpt><trkpt lat="36.4048519" lon="9.989563"><ele>166.0</ele><time>2026-04-24T14:06:46.194Z</time></trkpt><trkpt lat="36.4048921" lon="9.9893394"><ele>165.66666666666669</ele><time>2026-04-24T14:06:47.197Z</time></trkpt><trkpt lat="36.404932" lon="9.9891189"><ele>165.33333333333334</ele><time>2026-04-24T14:06:48.203Z</time></trkpt><trkpt lat="36.4049709" lon="9.988901"><ele>165.0</ele><time>2026-04-24T14:06:49.18Z</time></trkpt><trkpt lat="36.4050116" lon="9.9886878"><ele>165.0</ele><time>2026-04-24T14:06:50.195Z</time></trkpt><trkpt lat="36.4050527" lon="9.9884749"><ele>165.0</ele><time>2026-04-24T14:06:51.195Z</time></trkpt><trkpt lat="36.4050928" lon="9.9882626"><ele>165.0</ele><time>2026-04-24T14:06:52.189Z</time></trkpt><trkpt lat="36.4051332" lon="9.9880523"><ele>165.0</ele><time>2026-04-24T14:06:53.185Z</time></trkpt><trkpt lat="36.4051724" lon="9.9878421"><ele>165.0</ele><time>2026-04-24T14:06:54.194Z</time></trkpt><trkpt lat="36.4052091" lon="9.9876291"><ele>165.0</ele><time>2026-04-24T14:06:55.205Z</time></trkpt><trkpt lat="36.405247" lon="9.9874142"><ele>164.66666666666666</ele><time>2026-04-24T14:06:56.185Z</time></trkpt><trkpt lat="36.4052829" lon="9.9871986"><ele>164.33333333333331</ele><time>2026-04-24T14:06:57.171Z</time></trkpt><trkpt lat="36.4053172" lon="9.9869792"><ele>164.0</ele><time>2026-04-24T14:06:58.195Z</time></trkpt><trkpt lat="36.4053493" lon="9.9867566"><ele>164.0</ele><time>2026-04-24T14:06:59.183Z</time></trkpt><trkpt lat="36.4053786" lon="9.9865313"><ele>164.0</ele><time>2026-04-24T14:07:00.185Z</time></trkpt><trkpt lat="36.4054062" lon="9.986303"><ele>164.0</ele><time>2026-04-24T14:07:01.195Z</time></trkpt><trkpt lat="36.4054338" lon="9.9860729"><ele>164.0</ele><time>2026-04-24T14:07:02.193Z</time></trkpt><trkpt lat="36.4054586" lon="9.9858404"><ele>164.0</ele><time>2026-04-24T14:07:03.181Z</time></trkpt><trkpt lat="36.4054773" lon="9.9856073"><ele>164.0</ele><time>2026-04-24T14:07:04.19Z</time></trkpt><trkpt lat="36.405489" lon="9.9853733"><ele>164.0</ele><time>2026-04-24T14:07:05.198Z</time></trkpt><trkpt lat="36.4054951" lon="9.9851388"><ele>164.0</ele><time>2026-04-24T14:07:06.187Z</time></trkpt><trkpt lat="36.4054968" lon="9.9849003"><ele>164.0</ele><time>2026-04-24T14:07:07.184Z</time></trkpt><trkpt lat="36.4054932" lon="9.9846594"><ele>163.33333333333331</ele><time>2026-04-24T14:07:08.176Z</time></trkpt><trkpt lat="36.4054888" lon="9.9844189"><ele>162.66666666666666</ele><time>2026-04-24T14:07:09.185Z</time></trkpt><trkpt lat="36.4054873" lon="9.9841771"><ele>162.0</ele><time>2026-04-24T14:07:10.19Z</time></trkpt><trkpt lat="36.405485" lon="9.9839314"><ele>162.0</ele><time>2026-04-24T14:07:11.189Z</time></trkpt><trkpt lat="36.4054809" lon="9.983689"><ele>162.0</ele><time>2026-04-24T14:07:12.188Z</time></trkpt><trkpt lat="36.4054763" lon="9.9834463"><ele>162.0</ele><time>2026-04-24T14:07:13.187Z</time></trkpt><trkpt lat="36.4054684" lon="9.9832038"><ele>161.66666666666666</ele><time>2026-04-24T14:07:14.183Z</time></trkpt><trkpt lat="36.4054629" lon="9.9829613"><ele>161.33333333333331</ele><time>2026-04-24T14:07:15.183Z</time></trkpt><trkpt lat="36.4054599" lon="9.9827228"><ele>161.0</ele><time>2026-04-24T14:07:16.186Z</time></trkpt><trkpt lat="36.4054613" lon="9.9824965"><ele>161.0</ele><time>2026-04-24T14:07:17.186Z</time></trkpt><trkpt lat="36.4054661" lon="9.9822813"><ele>161.0</ele><time>2026-04-24T14:07:18.196Z</time></trkpt><trkpt lat="36.405469" lon="9.9820663"><ele>161.0</ele><time>2026-04-24T14:07:19.195Z</time></trkpt><trkpt lat="36.405472" lon="9.9818516"><ele>161.33333333333331</ele><time>2026-04-24T14:07:20.205Z</time></trkpt><trkpt lat="36.4054729" lon="9.9816376"><ele>161.66666666666666</ele><time>2026-04-24T14:07:21.175Z</time></trkpt><trkpt lat="36.4054704" lon="9.9814203"><ele>162.0</ele><time>2026-04-24T14:07:22.188Z</time></trkpt><trkpt lat="36.4054645" lon="9.9812027"><ele>162.0</ele><time>2026-04-24T14:07:23.185Z</time></trkpt><trkpt lat="36.4054562" lon="9.9809846"><ele>162.0</ele><time>2026-04-24T14:07:24.177Z</time></trkpt><trkpt lat="36.4054419" lon="9.9807661"><ele>162.0</ele><time>2026-04-24T14:07:25.194Z</time></trkpt><trkpt lat="36.4054213" lon="9.9805466"><ele>162.0</ele><time>2026-04-24T14:07:26.2Z</time></trkpt><trkpt lat="36.4053935" lon="9.9803273"><ele>162.0</ele><time>2026-04-24T14:07:27.186Z</time></trkpt><trkpt lat="36.4053558" lon="9.9801065"><ele>162.0</ele><time>2026-04-24T14:07:28.181Z</time></trkpt><trkpt lat="36.40531" lon="9.9798863"><ele>162.0</ele><time>2026-04-24T14:07:29.188Z</time></trkpt><trkpt lat="36.4052632" lon="9.9796671"><ele>162.0</ele><time>2026-04-24T14:07:30.184Z</time></trkpt><trkpt lat="36.4052156" lon="9.9794499"><ele>162.0</ele><time>2026-04-24T14:07:31.19Z</time></trkpt><trkpt lat="36.4051694" lon="9.9792285"><ele>162.33333333333334</ele><time>2026-04-24T14:07:32.186Z</time></trkpt><trkpt lat="36.4051296" lon="9.9790091"><ele>162.66666666666669</ele><time>2026-04-24T14:07:33.183Z</time></trkpt><trkpt lat="36.4050913" lon="9.9787861"><ele>163.0</ele><time>2026-04-24T14:07:34.203Z</time></trkpt><trkpt lat="36.4050577" lon="9.9785617"><ele>163.33333333333334</ele><time>2026-04-24T14:07:35.205Z</time></trkpt><trkpt lat="36.4050307" lon="9.9783341"><ele>163.66666666666666</ele><time>2026-04-24T14:07:36.197Z</time></trkpt><trkpt lat="36.4050103" lon="9.9781081"><ele>164.0</ele><time>2026-04-24T14:07:37.177Z</time></trkpt><trkpt lat="36.4049965" lon="9.9778789"><ele>164.0</ele><time>2026-04-24T14:07:38.188Z</time></trkpt><trkpt lat="36.4049907" lon="9.9776525"><ele>164.0</ele><time>2026-04-24T14:07:39.151Z</time></trkpt><trkpt lat="36.4049899" lon="9.9774281"><ele>164.0</ele><time>2026-04-24T14:07:40.197Z</time></trkpt><trkpt lat="36.405" lon="9.9772058"><ele>164.66666666666666</ele><time>2026-04-24T14:07:41.191Z</time></trkpt><trkpt lat="36.4050131" lon="9.9769851"><ele>165.33333333333334</ele><time>2026-04-24T14:07:42.179Z</time></trkpt><trkpt lat="36.4050309" lon="9.9767695"><ele>166.0</ele><time>2026-04-24T14:07:43.178Z</time></trkpt><trkpt lat="36.4050562" lon="9.9765567"><ele>166.66666666666669</ele><time>2026-04-24T14:07:44.183Z</time></trkpt><trkpt lat="36.4050877" lon="9.9763436"><ele>167.33333333333334</ele><time>2026-04-24T14:07:45.189Z</time></trkpt><trkpt lat="36.4051198" lon="9.9761269"><ele>168.0</ele><time>2026-04-24T14:07:46.186Z</time></trkpt><trkpt lat="36.405149" lon="9.9759063"><ele>168.66666666666666</ele><time>2026-04-24T14:07:47.199Z</time></trkpt><trkpt lat="36.4051768" lon="9.9756812"><ele>169.33333333333331</ele><time>2026-04-24T14:07:48.185Z</time></trkpt><trkpt lat="36.4051999" lon="9.9754564"><ele>170.0</ele><time>2026-04-24T14:07:49.193Z</time></trkpt><trkpt lat="36.4052172" lon="9.975236"><ele>170.66666666666666</ele><time>2026-04-24T14:07:50.194Z</time></trkpt><trkpt lat="36.4052292" lon="9.9750138"><ele>171.33333333333334</ele><time>2026-04-24T14:07:51.223Z</time></trkpt><trkpt lat="36.4052288" lon="9.974792"><ele>172.0</ele><time>2026-04-24T14:07:52.233Z</time></trkpt><trkpt lat="36.4052134" lon="9.9745701"><ele>172.0</ele><time>2026-04-24T14:07:53.213Z</time></trkpt><trkpt lat="36.4051868" lon="9.9743485"><ele>172.0</ele><time>2026-04-24T14:07:54.215Z</time></trkpt><trkpt lat="36.4051449" lon="9.9741274"><ele>172.0</ele><time>2026-04-24T14:07:55.215Z</time></trkpt><trkpt lat="36.4050913" lon="9.9739098"><ele>171.66666666666669</ele><time>2026-04-24T14:07:56.224Z</time></trkpt><trkpt lat="36.4050342" lon="9.9736853"><ele>171.33333333333334</ele><time>2026-04-24T14:07:57.232Z</time></trkpt><trkpt lat="36.4049765" lon="9.97346"><ele>171.0</ele><time>2026-04-24T14:07:58.171Z</time></trkpt><trkpt lat="36.4049179" lon="9.9732315"><ele>170.66666666666666</ele><time>2026-04-24T14:07:59.234Z</time></trkpt><trkpt lat="36.404858" lon="9.973001"><ele>170.33333333333331</ele><time>2026-04-24T14:08:00.166Z</time></trkpt><trkpt lat="36.4047952" lon="9.97277"><ele>170.0</ele><time>2026-04-24T14:08:01.185Z</time></trkpt><trkpt lat="36.404732" lon="9.9725356"><ele>169.66666666666666</ele><time>2026-04-24T14:08:02.168Z</time></trkpt><trkpt lat="36.4046686" lon="9.9723"><ele>169.33333333333334</ele><time>2026-04-24T14:08:03.197Z</time></trkpt><trkpt lat="36.4046049" lon="9.9720696"><ele>169.0</ele><time>2026-04-24T14:08:04.182Z</time></trkpt><trkpt lat="36.4045416" lon="9.9718403"><ele>170.66666666666669</ele><time>2026-04-24T14:08:05.166Z</time></trkpt><trkpt lat="36.4044787" lon="9.9716127"><ele>172.33333333333334</ele><time>2026-04-24T14:08:06.188Z</time></trkpt><trkpt lat="36.4044141" lon="9.9713811"><ele>174.0</ele><time>2026-04-24T14:08:07.179Z</time></trkpt><trkpt lat="36.4043516" lon="9.971151"><ele>174.0</ele><time>2026-04-24T14:08:08.182Z</time></trkpt><trkpt lat="36.4042904" lon="9.9709187"><ele>174.0</ele><time>2026-04-24T14:08:09.193Z</time></trkpt><trkpt lat="36.4042294" lon="9.9706917"><ele>174.0</ele><time>2026-04-24T14:08:10.187Z</time></trkpt><trkpt lat="36.4041679" lon="9.9704631"><ele>174.0</ele><time>2026-04-24T14:08:11.198Z</time></trkpt><trkpt lat="36.4041069" lon="9.9702343"><ele>174.0</ele><time>2026-04-24T14:08:12.18Z</time></trkpt><trkpt lat="36.4040447" lon="9.9700029"><ele>174.0</ele><time>2026-04-24T14:08:13.192Z</time></trkpt><trkpt lat="36.403985" lon="9.9697722"><ele>173.33333333333334</ele><time>2026-04-24T14:08:14.175Z</time></trkpt><trkpt lat="36.4039231" lon="9.9695412"><ele>172.66666666666669</ele><time>2026-04-24T14:08:15.186Z</time></trkpt><trkpt lat="36.4038604" lon="9.9693126"><ele>172.0</ele><time>2026-04-24T14:08:16.185Z</time></trkpt><trkpt lat="36.4037967" lon="9.9690827"><ele>174.0</ele><time>2026-04-24T14:08:17.182Z</time></trkpt><trkpt lat="36.403732" lon="9.9688533"><ele>176.0</ele><time>2026-04-24T14:08:18.181Z</time></trkpt><trkpt lat="36.403668" lon="9.9686234"><ele>178.0</ele><time>2026-04-24T14:08:19.182Z</time></trkpt><trkpt lat="36.4036044" lon="9.9683918"><ele>177.66666666666669</ele><time>2026-04-24T14:08:20.178Z</time></trkpt><trkpt lat="36.4035431" lon="9.9681615"><ele>177.33333333333334</ele><time>2026-04-24T14:08:21.182Z</time></trkpt><trkpt lat="36.403482" lon="9.9679303"><ele>177.0</ele><time>2026-04-24T14:08:22.174Z</time></trkpt><trkpt lat="36.4034191" lon="9.9676971"><ele>176.33333333333334</ele><time>2026-04-24T14:08:23.193Z</time></trkpt><trkpt lat="36.4033593" lon="9.9674616"><ele>175.66666666666669</ele><time>2026-04-24T14:08:24.177Z</time></trkpt><trkpt lat="36.4032944" lon="9.9672248"><ele>175.0</ele><time>2026-04-24T14:08:25.171Z</time></trkpt><trkpt lat="36.4032295" lon="9.966988"><ele>175.0</ele><time>2026-04-24T14:08:26.165Z</time></trkpt><trkpt lat="36.4031658" lon="9.9667478"><ele>175.0</ele><time>2026-04-24T14:08:27.18Z</time></trkpt><trkpt lat="36.4031031" lon="9.9665089"><ele>175.0</ele><time>2026-04-24T14:08:28.184Z</time></trkpt><trkpt lat="36.4030368" lon="9.9662637"><ele>175.66666666666669</ele><time>2026-04-24T14:08:29.18Z</time></trkpt><trkpt lat="36.4029687" lon="9.966013"><ele>176.33333333333334</ele><time>2026-04-24T14:08:30.184Z</time></trkpt><trkpt lat="36.4029001" lon="9.9657599"><ele>177.0</ele><time>2026-04-24T14:08:31.164Z</time></trkpt><trkpt lat="36.4028334" lon="9.9655083"><ele>177.0</ele><time>2026-04-24T14:08:32.19Z</time></trkpt><trkpt lat="36.4027656" lon="9.965257"><ele>177.0</ele><time>2026-04-24T14:08:33.185Z</time></trkpt><trkpt lat="36.4026989" lon="9.9650109"><ele>177.0</ele><time>2026-04-24T14:08:34.184Z</time></trkpt><trkpt lat="36.4026316" lon="9.9647641"><ele>177.0</ele><time>2026-04-24T14:08:35.172Z</time></trkpt><trkpt lat="36.4025659" lon="9.9645212"><ele>177.0</ele><time>2026-04-24T14:08:36.193Z</time></trkpt><trkpt lat="36.4025008" lon="9.9642817"><ele>177.0</ele><time>2026-04-24T14:08:37.178Z</time></trkpt><trkpt lat="36.402436" lon="9.9640405"><ele>177.33333333333334</ele><time>2026-04-24T14:08:38.175Z</time></trkpt><trkpt lat="36.4023703" lon="9.963798"><ele>177.66666666666669</ele><time>2026-04-24T14:08:39.186Z</time></trkpt><trkpt lat="36.4023051" lon="9.9635588"><ele>178.0</ele><time>2026-04-24T14:08:40.197Z</time></trkpt><trkpt lat="36.4022407" lon="9.9633217"><ele>179.0</ele><time>2026-04-24T14:08:41.172Z</time></trkpt><trkpt lat="36.4021792" lon="9.9630934"><ele>180.0</ele><time>2026-04-24T14:08:42.191Z</time></trkpt><trkpt lat="36.4021185" lon="9.9628694"><ele>181.0</ele><time>2026-04-24T14:08:43.193Z</time></trkpt><trkpt lat="36.4020598" lon="9.9626479"><ele>183.0</ele><time>2026-04-24T14:08:44.178Z</time></trkpt><trkpt lat="36.4020026" lon="9.9624268"><ele>185.0</ele><time>2026-04-24T14:08:45.192Z</time></trkpt><trkpt lat="36.4019413" lon="9.962208"><ele>187.0</ele><time>2026-04-24T14:08:46.184Z</time></trkpt><trkpt lat="36.4018721" lon="9.9619907"><ele>187.0</ele><time>2026-04-24T14:08:47.169Z</time></trkpt><trkpt lat="36.4017955" lon="9.9617782"><ele>187.0</ele><time>2026-04-24T14:08:48.188Z</time></trkpt><trkpt lat="36.4017075" lon="9.9615711"><ele>187.0</ele><time>2026-04-24T14:08:49.191Z</time></trkpt><trkpt lat="36.4016123" lon="9.9613691"><ele>186.66666666666669</ele><time>2026-04-24T14:08:50.199Z</time></trkpt><trkpt lat="36.4015098" lon="9.9611667"><ele>186.33333333333334</ele><time>2026-04-24T14:08:51.181Z</time></trkpt><trkpt lat="36.4014025" lon="9.9609679"><ele>186.0</ele><time>2026-04-24T14:08:52.194Z</time></trkpt><trkpt lat="36.4012888" lon="9.9607757"><ele>186.0</ele><time>2026-04-24T14:08:53.185Z</time></trkpt><trkpt lat="36.4011715" lon="9.960589"><ele>186.0</ele><time>2026-04-24T14:08:54.188Z</time></trkpt><trkpt lat="36.401045" lon="9.9604071"><ele>186.0</ele><time>2026-04-24T14:08:55.184Z</time></trkpt><trkpt lat="36.4009142" lon="9.960229"><ele>186.0</ele><time>2026-04-24T14:08:56.191Z</time></trkpt><trkpt lat="36.4007837" lon="9.9600528"><ele>186.0</ele><time>2026-04-24T14:08:57.19Z</time></trkpt><trkpt lat="36.4006535" lon="9.9598779"><ele>186.0</ele><time>2026-04-24T14:08:58.193Z</time></trkpt><trkpt lat="36.4005222" lon="9.9597007"><ele>185.66666666666666</ele><time>2026-04-24T14:08:59.187Z</time></trkpt><trkpt lat="36.4003934" lon="9.959525"><ele>185.33333333333331</ele><time>2026-04-24T14:09:00.189Z</time></trkpt><trkpt lat="36.4002673" lon="9.9593504"><ele>185.0</ele><time>2026-04-24T14:09:01.199Z</time></trkpt><trkpt lat="36.4001376" lon="9.9591753"><ele>185.0</ele><time>2026-04-24T14:09:02.206Z</time></trkpt><trkpt lat="36.4000088" lon="9.9590002"><ele>185.0</ele><time>2026-04-24T14:09:03.189Z</time></trkpt><trkpt lat="36.3998773" lon="9.9588254"><ele>185.0</ele><time>2026-04-24T14:09:04.184Z</time></trkpt><trkpt lat="36.3997464" lon="9.9586532"><ele>185.66666666666666</ele><time>2026-04-24T14:09:05.195Z</time></trkpt><trkpt lat="36.3996183" lon="9.9584809"><ele>186.33333333333334</ele><time>2026-04-24T14:09:06.187Z</time></trkpt><trkpt lat="36.3994935" lon="9.9583085"><ele>187.0</ele><time>2026-04-24T14:09:07.188Z</time></trkpt><trkpt lat="36.3993704" lon="9.9581395"><ele>187.33333333333334</ele><time>2026-04-24T14:09:08.183Z</time></trkpt><trkpt lat="36.399251" lon="9.9579722"><ele>187.66666666666666</ele><time>2026-04-24T14:09:09.186Z</time></trkpt><trkpt lat="36.399133" lon="9.9578055"><ele>188.0</ele><time>2026-04-24T14:09:10.167Z</time></trkpt><trkpt lat="36.399014" lon="9.9576423"><ele>188.33333333333331</ele><time>2026-04-24T14:09:11.19Z</time></trkpt><trkpt lat="36.398896" lon="9.9574831"><ele>188.66666666666666</ele><time>2026-04-24T14:09:12.198Z</time></trkpt><trkpt lat="36.3987808" lon="9.9573243"><ele>189.0</ele><time>2026-04-24T14:09:13.187Z</time></trkpt><trkpt lat="36.398662" lon="9.9571668"><ele>190.0</ele><time>2026-04-24T14:09:14.181Z</time></trkpt><trkpt lat="36.3985424" lon="9.9570084"><ele>191.0</ele><time>2026-04-24T14:09:15.187Z</time></trkpt><trkpt lat="36.3984273" lon="9.9568495"><ele>192.0</ele><time>2026-04-24T14:09:16.192Z</time></trkpt><trkpt lat="36.3983156" lon="9.9566899"><ele>192.0</ele><time>2026-04-24T14:09:17.193Z</time></trkpt><trkpt lat="36.398202" lon="9.9565332"><ele>192.0</ele><time>2026-04-24T14:09:18.183Z</time></trkpt><trkpt lat="36.3980904" lon="9.956379"><ele>192.0</ele><time>2026-04-24T14:09:19.196Z</time></trkpt><trkpt lat="36.3979793" lon="9.9562239"><ele>193.0</ele><time>2026-04-24T14:09:20.194Z</time></trkpt><trkpt lat="36.397865" lon="9.9560687"><ele>194.0</ele><time>2026-04-24T14:09:21.186Z</time></trkpt><trkpt lat="36.3977534" lon="9.9559129"><ele>195.0</ele><time>2026-04-24T14:09:22.188Z</time></trkpt><trkpt lat="36.3976431" lon="9.9557558"><ele>195.0</ele><time>2026-04-24T14:09:23.188Z</time></trkpt><trkpt lat="36.3975337" lon="9.9555974"><ele>195.0</ele><time>2026-04-24T14:09:24.189Z</time></trkpt><trkpt lat="36.3974291" lon="9.9554448"><ele>195.0</ele><time>2026-04-24T14:09:25.178Z</time></trkpt><trkpt lat="36.3973377" lon="9.9553112"><ele>195.0</ele><time>2026-04-24T14:09:26.186Z</time></trkpt><trkpt lat="36.3972625" lon="9.9552012"><ele>195.0</ele><time>2026-04-24T14:09:27.185Z</time></trkpt><trkpt lat="36.3971879" lon="9.9550925"><ele>195.0</ele><time>2026-04-24T14:09:28.187Z</time></trkpt><trkpt lat="36.3971124" lon="9.9549866"><ele>195.0</ele><time>2026-04-24T14:09:29.179Z</time></trkpt><trkpt lat="36.3970328" lon="9.9548718"><ele>194.75</ele><time>2026-04-24T14:09:30.193Z</time></trkpt><trkpt lat="36.3969469" lon="9.9547544"><ele>194.5</ele><time>2026-04-24T14:09:31.183Z</time></trkpt><trkpt lat="36.3968611" lon="9.9546305"><ele>194.25</ele><time>2026-04-24T14:09:32.199Z</time></trkpt><trkpt lat="36.3967743" lon="9.9545042"><ele>194.0</ele><time>2026-04-24T14:09:33.181Z</time></trkpt><trkpt lat="36.3966875" lon="9.9543735"><ele>194.0</ele><time>2026-04-24T14:09:34.187Z</time></trkpt><trkpt lat="36.3965967" lon="9.9542441"><ele>194.0</ele><time>2026-04-24T14:09:35.182Z</time></trkpt><trkpt lat="36.3965069" lon="9.9541138"><ele>194.0</ele><time>2026-04-24T14:09:36.175Z</time></trkpt><trkpt lat="36.3964172" lon="9.9539811"><ele>194.0</ele><time>2026-04-24T14:09:37.195Z</time></trkpt><trkpt lat="36.3963224" lon="9.9538445"><ele>193.25</ele><time>2026-04-24T14:09:38.182Z</time></trkpt><trkpt lat="36.3962319" lon="9.9537098"><ele>192.5</ele><time>2026-04-24T14:09:39.191Z</time></trkpt><trkpt lat="36.3961393" lon="9.9535738"><ele>191.75</ele><time>2026-04-24T14:09:40.186Z</time></trkpt><trkpt lat="36.3960493" lon="9.9534402"><ele>191.0</ele><time>2026-04-24T14:09:41.174Z</time></trkpt><trkpt lat="36.3959572" lon="9.9533056"><ele>190.0</ele><time>2026-04-24T14:09:42.186Z</time></trkpt><trkpt lat="36.395865" lon="9.9531721"><ele>189.0</ele><time>2026-04-24T14:09:43.182Z</time></trkpt><trkpt lat="36.3957744" lon="9.9530388"><ele>188.0</ele><time>2026-04-24T14:09:44.193Z</time></trkpt><trkpt lat="36.395685" lon="9.9529103"><ele>187.0</ele><time>2026-04-24T14:09:45.178Z</time></trkpt><trkpt lat="36.3956" lon="9.9527855"><ele>187.0</ele><time>2026-04-24T14:09:46.189Z</time></trkpt><trkpt lat="36.3955174" lon="9.9526621"><ele>187.0</ele><time>2026-04-24T14:09:47.192Z</time></trkpt><trkpt lat="36.3954339" lon="9.952543"><ele>187.0</ele><time>2026-04-24T14:09:48.185Z</time></trkpt><trkpt lat="36.3953553" lon="9.952434"><ele>187.0</ele><time>2026-04-24T14:09:49.173Z</time></trkpt><trkpt lat="36.3952876" lon="9.9523345"><ele>186.6</ele><time>2026-04-24T14:09:50.186Z</time></trkpt><trkpt lat="36.3952301" lon="9.9522498"><ele>186.2</ele><time>2026-04-24T14:09:51.195Z</time></trkpt><trkpt lat="36.3951884" lon="9.952188"><ele>185.8</ele><time>2026-04-24T14:09:52.198Z</time></trkpt><trkpt lat="36.3950995" lon="9.9520589"><ele>185.4</ele><time>2026-04-24T14:09:54.185Z</time></trkpt><trkpt lat="36.3950455" lon="9.9519704"><ele>185.0</ele><time>2026-04-24T14:09:55.167Z</time></trkpt><trkpt lat="36.3949868" lon="9.951876"><ele>185.0</ele><time>2026-04-24T14:09:56.181Z</time></trkpt><trkpt lat="36.3949218" lon="9.9517759"><ele>185.0</ele><time>2026-04-24T14:09:57.182Z</time></trkpt><trkpt lat="36.3948507" lon="9.9516662"><ele>185.0</ele><time>2026-04-24T14:09:58.189Z</time></trkpt><trkpt lat="36.394779" lon="9.9515621"><ele>185.0</ele><time>2026-04-24T14:09:59.187Z</time></trkpt><trkpt lat="36.3947023" lon="9.9514523"><ele>185.0</ele><time>2026-04-24T14:10:00.192Z</time></trkpt><trkpt lat="36.394621" lon="9.9513376"><ele>184.25</ele><time>2026-04-24T14:10:01.194Z</time></trkpt><trkpt lat="36.3945403" lon="9.9512194"><ele>183.5</ele><time>2026-04-24T14:10:02.185Z</time></trkpt><trkpt lat="36.394457" lon="9.951099"><ele>182.75</ele><time>2026-04-24T14:10:03.187Z</time></trkpt><trkpt lat="36.3943709" lon="9.9509776"><ele>182.0</ele><time>2026-04-24T14:10:04.195Z</time></trkpt><trkpt lat="36.3942825" lon="9.9508577"><ele>182.0</ele><time>2026-04-24T14:10:05.18Z</time></trkpt><trkpt lat="36.3941934" lon="9.9507346"><ele>182.0</ele><time>2026-04-24T14:10:06.191Z</time></trkpt><trkpt lat="36.3941058" lon="9.9506106"><ele>182.0</ele><time>2026-04-24T14:10:07.19Z</time></trkpt><trkpt lat="36.3940189" lon="9.9504868"><ele>182.0</ele><time>2026-04-24T14:10:08.193Z</time></trkpt><trkpt lat="36.393933" lon="9.9503603"><ele>182.0</ele><time>2026-04-24T14:10:09.188Z</time></trkpt><trkpt lat="36.3938504" lon="9.9502333"><ele>182.0</ele><time>2026-04-24T14:10:10.191Z</time></trkpt><trkpt lat="36.3937665" lon="9.9501053"><ele>182.0</ele><time>2026-04-24T14:10:11.198Z</time></trkpt><trkpt lat="36.3936843" lon="9.949978"><ele>182.0</ele><time>2026-04-24T14:10:12.189Z</time></trkpt><trkpt lat="36.3936026" lon="9.949846"><ele>181.25</ele><time>2026-04-24T14:10:13.185Z</time></trkpt><trkpt lat="36.3935239" lon="9.9497019"><ele>180.5</ele><time>2026-04-24T14:10:14.181Z</time></trkpt><trkpt lat="36.3934472" lon="9.9495603"><ele>179.75</ele><time>2026-04-24T14:10:15.19Z</time></trkpt><trkpt lat="36.3933778" lon="9.9494217"><ele>179.0</ele><time>2026-04-24T14:10:16.194Z</time></trkpt><trkpt lat="36.3933039" lon="9.9492844"><ele>178.83333333333331</ele><time>2026-04-24T14:10:17.185Z</time></trkpt><trkpt lat="36.393241" lon="9.9491598"><ele>178.66666666666666</ele><time>2026-04-24T14:10:18.177Z</time></trkpt><trkpt lat="36.3931972" lon="9.9490528"><ele>178.5</ele><time>2026-04-24T14:10:19.175Z</time></trkpt><trkpt lat="36.3931534" lon="9.948963"><ele>178.33333333333334</ele><time>2026-04-24T14:10:20.184Z</time></trkpt><trkpt lat="36.3931231" lon="9.9488822"><ele>178.16666666666669</ele><time>2026-04-24T14:10:21.193Z</time></trkpt><trkpt lat="36.3930925" lon="9.9488036"><ele>178.0</ele><time>2026-04-24T14:10:22.184Z</time></trkpt><trkpt lat="36.3930613" lon="9.9487244"><ele>178.0</ele><time>2026-04-24T14:10:23.19Z</time></trkpt><trkpt lat="36.393022" lon="9.9486346"><ele>178.0</ele><time>2026-04-24T14:10:24.196Z</time></trkpt><trkpt lat="36.3929778" lon="9.9485348"><ele>178.0</ele><time>2026-04-24T14:10:25.19Z</time></trkpt><trkpt lat="36.3929356" lon="9.9484242"><ele>178.0</ele><time>2026-04-24T14:10:26.191Z</time></trkpt><trkpt lat="36.3928898" lon="9.9483139"><ele>178.0</ele><time>2026-04-24T14:10:27.178Z</time></trkpt><trkpt lat="36.3928419" lon="9.9481958"><ele>178.0</ele><time>2026-04-24T14:10:28.201Z</time></trkpt><trkpt lat="36.3927903" lon="9.9480771"><ele>178.0</ele><time>2026-04-24T14:10:29.202Z</time></trkpt><trkpt lat="36.3927391" lon="9.9479594"><ele>178.0</ele><time>2026-04-24T14:10:30.201Z</time></trkpt><trkpt lat="36.3926888" lon="9.9478396"><ele>178.0</ele><time>2026-04-24T14:10:31.171Z</time></trkpt><trkpt lat="36.3926387" lon="9.9477228"><ele>178.0</ele><time>2026-04-24T14:10:32.19Z</time></trkpt><trkpt lat="36.3925931" lon="9.9476094"><ele>177.60000000000002</ele><time>2026-04-24T14:10:33.172Z</time></trkpt><trkpt lat="36.3925473" lon="9.9474932"><ele>177.20000000000002</ele><time>2026-04-24T14:10:34.191Z</time></trkpt><trkpt lat="36.3925016" lon="9.947376"><ele>176.8</ele><time>2026-04-24T14:10:35.183Z</time></trkpt><trkpt lat="36.3924498" lon="9.9472585"><ele>176.4</ele><time>2026-04-24T14:10:36.168Z</time></trkpt><trkpt lat="36.3924019" lon="9.9471453"><ele>176.0</ele><time>2026-04-24T14:10:37.159Z</time></trkpt><trkpt lat="36.3923596" lon="9.9470509"><ele>176.0</ele><time>2026-04-24T14:10:38.178Z</time></trkpt><trkpt lat="36.3923311" lon="9.9469772"><ele>176.0</ele><time>2026-04-24T14:10:39.166Z</time></trkpt><trkpt lat="36.3922879" lon="9.9468675"><ele>176.0</ele><time>2026-04-24T14:10:41.178Z</time></trkpt><trkpt lat="36.3922512" lon="9.9467985"><ele>176.0</ele><time>2026-04-24T14:10:42.191Z</time></trkpt><trkpt lat="36.3922094" lon="9.9467102"><ele>176.0</ele><time>2026-04-24T14:10:43.194Z</time></trkpt><trkpt lat="36.3921622" lon="9.9466105"><ele>176.0</ele><time>2026-04-24T14:10:44.183Z</time></trkpt><trkpt lat="36.3921201" lon="9.9465008"><ele>175.4</ele><time>2026-04-24T14:10:45.189Z</time></trkpt><trkpt lat="36.392072" lon="9.9463851"><ele>174.8</ele><time>2026-04-24T14:10:46.198Z</time></trkpt><trkpt lat="36.392021" lon="9.946268"><ele>174.20000000000002</ele><time>2026-04-24T14:10:47.195Z</time></trkpt><trkpt lat="36.3919694" lon="9.9461434"><ele>173.60000000000002</ele><time>2026-04-24T14:10:48.187Z</time></trkpt><trkpt lat="36.3919144" lon="9.9460179"><ele>173.0</ele><time>2026-04-24T14:10:49.188Z</time></trkpt><trkpt lat="36.3918642" lon="9.9458893"><ele>173.5</ele><time>2026-04-24T14:10:50.183Z</time></trkpt><trkpt lat="36.3918067" lon="9.9457563"><ele>174.0</ele><time>2026-04-24T14:10:51.199Z</time></trkpt><trkpt lat="36.3917422" lon="9.9456204"><ele>174.5</ele><time>2026-04-24T14:10:52.182Z</time></trkpt><trkpt lat="36.3916798" lon="9.945475"><ele>175.0</ele><time>2026-04-24T14:10:53.183Z</time></trkpt><trkpt lat="36.3916157" lon="9.9453269"><ele>175.0</ele><time>2026-04-24T14:10:54.184Z</time></trkpt><trkpt lat="36.3915473" lon="9.9451782"><ele>175.0</ele><time>2026-04-24T14:10:55.208Z</time></trkpt><trkpt lat="36.3914779" lon="9.9450255"><ele>175.0</ele><time>2026-04-24T14:10:56.19Z</time></trkpt><trkpt lat="36.3914095" lon="9.9448687"><ele>175.0</ele><time>2026-04-24T14:10:57.184Z</time></trkpt><trkpt lat="36.3913448" lon="9.944712"><ele>174.75</ele><time>2026-04-24T14:10:58.195Z</time></trkpt><trkpt lat="36.3912752" lon="9.9445578"><ele>174.5</ele><time>2026-04-24T14:10:59.183Z</time></trkpt><trkpt lat="36.3912069" lon="9.9444012"><ele>174.25</ele><time>2026-04-24T14:11:00.18Z</time></trkpt><trkpt lat="36.3911402" lon="9.9442449"><ele>174.0</ele><time>2026-04-24T14:11:01.19Z</time></trkpt><trkpt lat="36.3910759" lon="9.9440914"><ele>174.0</ele><time>2026-04-24T14:11:02.185Z</time></trkpt><trkpt lat="36.3910128" lon="9.9439339"><ele>174.0</ele><time>2026-04-24T14:11:03.189Z</time></trkpt><trkpt lat="36.3909491" lon="9.9437736"><ele>174.0</ele><time>2026-04-24T14:11:04.195Z</time></trkpt><trkpt lat="36.3908859" lon="9.9436097"><ele>174.0</ele><time>2026-04-24T14:11:05.188Z</time></trkpt><trkpt lat="36.3908285" lon="9.9434465"><ele>174.0</ele><time>2026-04-24T14:11:06.197Z</time></trkpt><trkpt lat="36.3907639" lon="9.9432742"><ele>174.0</ele><time>2026-04-24T14:11:07.171Z</time></trkpt><trkpt lat="36.3907028" lon="9.943096"><ele>174.0</ele><time>2026-04-24T14:11:08.19Z</time></trkpt><trkpt lat="36.3906484" lon="9.9429111"><ele>174.0</ele><time>2026-04-24T14:11:09.18Z</time></trkpt><trkpt lat="36.3905954" lon="9.9427297"><ele>174.0</ele><time>2026-04-24T14:11:10.191Z</time></trkpt><trkpt lat="36.3905455" lon="9.9425437"><ele>174.0</ele><time>2026-04-24T14:11:11.18Z</time></trkpt><trkpt lat="36.3905013" lon="9.9423519"><ele>174.66666666666666</ele><time>2026-04-24T14:11:12.189Z</time></trkpt><trkpt lat="36.3904605" lon="9.9421648"><ele>175.33333333333331</ele><time>2026-04-24T14:11:13.188Z</time></trkpt><trkpt lat="36.390424" lon="9.941978"><ele>176.0</ele><time>2026-04-24T14:11:14.188Z</time></trkpt><trkpt lat="36.3903881" lon="9.9417864"><ele>175.66666666666666</ele><time>2026-04-24T14:11:15.182Z</time></trkpt><trkpt lat="36.3903547" lon="9.9415974"><ele>175.33333333333334</ele><time>2026-04-24T14:11:16.188Z</time></trkpt><trkpt lat="36.3903278" lon="9.9414069"><ele>175.0</ele><time>2026-04-24T14:11:17.189Z</time></trkpt><trkpt lat="36.390305" lon="9.9412165"><ele>175.0</ele><time>2026-04-24T14:11:18.175Z</time></trkpt><trkpt lat="36.3902826" lon="9.94103"><ele>175.0</ele><time>2026-04-24T14:11:19.182Z</time></trkpt><trkpt lat="36.3902632" lon="9.9408319"><ele>175.0</ele><time>2026-04-24T14:11:20.188Z</time></trkpt><trkpt lat="36.3902482" lon="9.9406425"><ele>175.0</ele><time>2026-04-24T14:11:21.201Z</time></trkpt><trkpt lat="36.3902363" lon="9.9404465"><ele>175.0</ele><time>2026-04-24T14:11:22.183Z</time></trkpt><trkpt lat="36.3902285" lon="9.9402521"><ele>175.0</ele><time>2026-04-24T14:11:23.183Z</time></trkpt><trkpt lat="36.3902222" lon="9.9400566"><ele>174.66666666666669</ele><time>2026-04-24T14:11:24.195Z</time></trkpt><trkpt lat="36.3902172" lon="9.9398598"><ele>174.33333333333334</ele><time>2026-04-24T14:11:25.179Z</time></trkpt><trkpt lat="36.3902183" lon="9.9396695"><ele>174.0</ele><time>2026-04-24T14:11:26.19Z</time></trkpt><trkpt lat="36.3902226" lon="9.9394811"><ele>174.0</ele><time>2026-04-24T14:11:27.176Z</time></trkpt><trkpt lat="36.3902308" lon="9.9392942"><ele>174.0</ele><time>2026-04-24T14:11:28.184Z</time></trkpt><trkpt lat="36.3902451" lon="9.9391112"><ele>174.0</ele><time>2026-04-24T14:11:29.187Z</time></trkpt><trkpt lat="36.3902635" lon="9.9389254"><ele>174.0</ele><time>2026-04-24T14:11:30.18Z</time></trkpt><trkpt lat="36.3902904" lon="9.9387445"><ele>174.0</ele><time>2026-04-24T14:11:31.184Z</time></trkpt><trkpt lat="36.390327" lon="9.9385672"><ele>174.0</ele><time>2026-04-24T14:11:32.186Z</time></trkpt><trkpt lat="36.3903674" lon="9.9383927"><ele>174.0</ele><time>2026-04-24T14:11:33.185Z</time></trkpt><trkpt lat="36.3904169" lon="9.9382036"><ele>174.66666666666666</ele><time>2026-04-24T14:11:34.182Z</time></trkpt><trkpt lat="36.3904782" lon="9.9380219"><ele>175.33333333333331</ele><time>2026-04-24T14:11:35.18Z</time></trkpt><trkpt lat="36.3905481" lon="9.9378419"><ele>176.0</ele><time>2026-04-24T14:11:36.201Z</time></trkpt><trkpt lat="36.3906265" lon="9.9376705"><ele>174.66666666666666</ele><time>2026-04-24T14:11:37.194Z</time></trkpt><trkpt lat="36.3907054" lon="9.9374906"><ele>173.33333333333334</ele><time>2026-04-24T14:11:38.177Z</time></trkpt><trkpt lat="36.3907943" lon="9.9373174"><ele>172.0</ele><time>2026-04-24T14:11:39.193Z</time></trkpt><trkpt lat="36.3908824" lon="9.9371424"><ele>172.0</ele><time>2026-04-24T14:11:40.183Z</time></trkpt><trkpt lat="36.3909672" lon="9.9369696"><ele>172.0</ele><time>2026-04-24T14:11:41.186Z</time></trkpt><trkpt lat="36.3910542" lon="9.9367859"><ele>172.0</ele><time>2026-04-24T14:11:42.183Z</time></trkpt><trkpt lat="36.3911321" lon="9.9366009"><ele>173.0</ele><time>2026-04-24T14:11:43.189Z</time></trkpt><trkpt lat="36.3912026" lon="9.9364084"><ele>174.0</ele><time>2026-04-24T14:11:44.202Z</time></trkpt><trkpt lat="36.3912612" lon="9.9362031"><ele>175.0</ele><time>2026-04-24T14:11:45.191Z</time></trkpt><trkpt lat="36.3913094" lon="9.9359871"><ele>173.33333333333334</ele><time>2026-04-24T14:11:46.2Z</time></trkpt><trkpt lat="36.3913475" lon="9.9357623"><ele>171.66666666666666</ele><time>2026-04-24T14:11:47.184Z</time></trkpt><trkpt lat="36.391382" lon="9.9355325"><ele>170.0</ele><time>2026-04-24T14:11:48.183Z</time></trkpt><trkpt lat="36.391403" lon="9.9353092"><ele>170.0</ele><time>2026-04-24T14:11:49.173Z</time></trkpt><trkpt lat="36.3914228" lon="9.9350786"><ele>170.0</ele><time>2026-04-24T14:11:50.182Z</time></trkpt><trkpt lat="36.3914404" lon="9.9348531"><ele>170.0</ele><time>2026-04-24T14:11:51.187Z</time></trkpt><trkpt lat="36.3914593" lon="9.9346284"><ele>170.33333333333331</ele><time>2026-04-24T14:11:52.2Z</time></trkpt><trkpt lat="36.3914788" lon="9.9344105"><ele>170.66666666666666</ele><time>2026-04-24T14:11:53.182Z</time></trkpt><trkpt lat="36.3915012" lon="9.9341982"><ele>171.0</ele><time>2026-04-24T14:11:54.186Z</time></trkpt><trkpt lat="36.3915209" lon="9.9339826"><ele>171.0</ele><time>2026-04-24T14:11:55.172Z</time></trkpt><trkpt lat="36.391539" lon="9.9337684"><ele>171.0</ele><time>2026-04-24T14:11:56.185Z</time></trkpt><trkpt lat="36.3915571" lon="9.9335555"><ele>171.0</ele><time>2026-04-24T14:11:57.18Z</time></trkpt><trkpt lat="36.3915729" lon="9.9333462"><ele>171.0</ele><time>2026-04-24T14:11:58.193Z</time></trkpt><trkpt lat="36.391586" lon="9.9331394"><ele>171.0</ele><time>2026-04-24T14:11:59.175Z</time></trkpt><trkpt lat="36.3915996" lon="9.9329456"><ele>171.0</ele><time>2026-04-24T14:12:00.192Z</time></trkpt><trkpt lat="36.391626" lon="9.93275"><ele>171.0</ele><time>2026-04-24T14:12:01.193Z</time></trkpt><trkpt lat="36.3916482" lon="9.9325541"><ele>171.0</ele><time>2026-04-24T14:12:02.19Z</time></trkpt><trkpt lat="36.3916537" lon="9.9323637"><ele>171.0</ele><time>2026-04-24T14:12:03.184Z</time></trkpt><trkpt lat="36.391652" lon="9.932173"><ele>171.0</ele><time>2026-04-24T14:12:04.187Z</time></trkpt><trkpt lat="36.3916482" lon="9.9319805"><ele>171.0</ele><time>2026-04-24T14:12:05.193Z</time></trkpt><trkpt lat="36.3916367" lon="9.9317878"><ele>171.0</ele><time>2026-04-24T14:12:06.179Z</time></trkpt><trkpt lat="36.3916187" lon="9.931597"><ele>171.0</ele><time>2026-04-24T14:12:07.19Z</time></trkpt><trkpt lat="36.3915872" lon="9.9313955"><ele>171.0</ele><time>2026-04-24T14:12:08.176Z</time></trkpt><trkpt lat="36.3915479" lon="9.9311995"><ele>171.0</ele><time>2026-04-24T14:12:09.186Z</time></trkpt><trkpt lat="36.3914977" lon="9.9310072"><ele>170.66666666666666</ele><time>2026-04-24T14:12:10.183Z</time></trkpt><trkpt lat="36.391443" lon="9.9308148"><ele>170.33333333333331</ele><time>2026-04-24T14:12:11.187Z</time></trkpt><trkpt lat="36.3913832" lon="9.9306345"><ele>170.0</ele><time>2026-04-24T14:12:12.178Z</time></trkpt><trkpt lat="36.3913201" lon="9.9304554"><ele>170.33333333333331</ele><time>2026-04-24T14:12:13.181Z</time></trkpt><trkpt lat="36.3912589" lon="9.9302762"><ele>170.66666666666666</ele><time>2026-04-24T14:12:14.182Z</time></trkpt><trkpt lat="36.3911988" lon="9.9301018"><ele>171.0</ele><time>2026-04-24T14:12:15.194Z</time></trkpt><trkpt lat="36.3911407" lon="9.9299379"><ele>171.0</ele><time>2026-04-24T14:12:16.193Z</time></trkpt><trkpt lat="36.3910786" lon="9.9297751"><ele>171.0</ele><time>2026-04-24T14:12:17.192Z</time></trkpt><trkpt lat="36.3910164" lon="9.9296237"><ele>171.0</ele><time>2026-04-24T14:12:18.199Z</time></trkpt><trkpt lat="36.3909592" lon="9.9294795"><ele>171.0</ele><time>2026-04-24T14:12:19.202Z</time></trkpt><trkpt lat="36.3909022" lon="9.9293337"><ele>170.75</ele><time>2026-04-24T14:12:20.194Z</time></trkpt><trkpt lat="36.3908449" lon="9.9291874"><ele>170.5</ele><time>2026-04-24T14:12:21.199Z</time></trkpt><trkpt lat="36.3907881" lon="9.9290417"><ele>170.25</ele><time>2026-04-24T14:12:22.188Z</time></trkpt><trkpt lat="36.39073" lon="9.9288991"><ele>170.0</ele><time>2026-04-24T14:12:23.185Z</time></trkpt><trkpt lat="36.390672" lon="9.9287528"><ele>170.0</ele><time>2026-04-24T14:12:24.19Z</time></trkpt><trkpt lat="36.3906159" lon="9.9286056"><ele>170.0</ele><time>2026-04-24T14:12:25.204Z</time></trkpt><trkpt lat="36.3905592" lon="9.928459"><ele>170.0</ele><time>2026-04-24T14:12:26.181Z</time></trkpt><trkpt lat="36.3905012" lon="9.9283156"><ele>170.0</ele><time>2026-04-24T14:12:27.197Z</time></trkpt><trkpt lat="36.3904419" lon="9.9281663"><ele>170.0</ele><time>2026-04-24T14:12:28.184Z</time></trkpt><trkpt lat="36.3903832" lon="9.9280209"><ele>170.0</ele><time>2026-04-24T14:12:29.176Z</time></trkpt><trkpt lat="36.3903243" lon="9.9278725"><ele>170.0</ele><time>2026-04-24T14:12:30.183Z</time></trkpt><trkpt lat="36.3902651" lon="9.9277244"><ele>170.0</ele><time>2026-04-24T14:12:31.181Z</time></trkpt><trkpt lat="36.3902039" lon="9.9275757"><ele>170.0</ele><time>2026-04-24T14:12:32.194Z</time></trkpt><trkpt lat="36.3901474" lon="9.9274243"><ele>170.0</ele><time>2026-04-24T14:12:33.186Z</time></trkpt><trkpt lat="36.3900892" lon="9.9272754"><ele>170.0</ele><time>2026-04-24T14:12:34.182Z</time></trkpt><trkpt lat="36.390026" lon="9.9271256"><ele>170.0</ele><time>2026-04-24T14:12:35.183Z</time></trkpt><trkpt lat="36.3899672" lon="9.9269755"><ele>170.0</ele><time>2026-04-24T14:12:36.194Z</time></trkpt><trkpt lat="36.3899078" lon="9.9268243"><ele>170.0</ele><time>2026-04-24T14:12:37.184Z</time></trkpt><trkpt lat="36.389849" lon="9.9266768"><ele>170.0</ele><time>2026-04-24T14:12:38.186Z</time></trkpt><trkpt lat="36.389791" lon="9.9265318"><ele>170.0</ele><time>2026-04-24T14:12:39.185Z</time></trkpt><trkpt lat="36.3897325" lon="9.9263908"><ele>170.0</ele><time>2026-04-24T14:12:40.179Z</time></trkpt><trkpt lat="36.3896718" lon="9.9262553"><ele>170.0</ele><time>2026-04-24T14:12:41.178Z</time></trkpt><trkpt lat="36.389618" lon="9.9261276"><ele>170.0</ele><time>2026-04-24T14:12:42.193Z</time></trkpt><trkpt lat="36.3895713" lon="9.9260158"><ele>170.0</ele><time>2026-04-24T14:12:43.19Z</time></trkpt><trkpt lat="36.389531" lon="9.9259035"><ele>170.0</ele><time>2026-04-24T14:12:44.199Z</time></trkpt><trkpt lat="36.3894903" lon="9.9257934"><ele>169.8</ele><time>2026-04-24T14:12:45.178Z</time></trkpt><trkpt lat="36.389445" lon="9.9256789"><ele>169.6</ele><time>2026-04-24T14:12:46.185Z</time></trkpt><trkpt lat="36.3893961" lon="9.9255589"><ele>169.39999999999998</ele><time>2026-04-24T14:12:47.183Z</time></trkpt><trkpt lat="36.3893491" lon="9.9254399"><ele>169.2</ele><time>2026-04-24T14:12:48.194Z</time></trkpt><trkpt lat="36.3893012" lon="9.9253211"><ele>169.0</ele><time>2026-04-24T14:12:49.198Z</time></trkpt><trkpt lat="36.3892492" lon="9.9252012"><ele>169.0</ele><time>2026-04-24T14:12:50.188Z</time></trkpt><trkpt lat="36.3892005" lon="9.9250768"><ele>169.0</ele><time>2026-04-24T14:12:51.184Z</time></trkpt><trkpt lat="36.3891494" lon="9.9249482"><ele>169.0</ele><time>2026-04-24T14:12:52.187Z</time></trkpt><trkpt lat="36.389098" lon="9.924822"><ele>169.0</ele><time>2026-04-24T14:12:53.196Z</time></trkpt><trkpt lat="36.3890467" lon="9.9246976"><ele>168.79999999999998</ele><time>2026-04-24T14:12:54.192Z</time></trkpt><trkpt lat="36.3889933" lon="9.9245784"><ele>168.6</ele><time>2026-04-24T14:12:55.173Z</time></trkpt><trkpt lat="36.3889454" lon="9.9244589"><ele>168.4</ele><time>2026-04-24T14:12:56.2Z</time></trkpt><trkpt lat="36.3888957" lon="9.9243387"><ele>168.2</ele><time>2026-04-24T14:12:57.193Z</time></trkpt><trkpt lat="36.3888457" lon="9.924219"><ele>168.0</ele><time>2026-04-24T14:12:58.193Z</time></trkpt><trkpt lat="36.3887949" lon="9.9240984"><ele>168.4</ele><time>2026-04-24T14:12:59.193Z</time></trkpt><trkpt lat="36.3887479" lon="9.9239787"><ele>168.8</ele><time>2026-04-24T14:13:00.182Z</time></trkpt><trkpt lat="36.3887072" lon="9.9238631"><ele>169.2</ele><time>2026-04-24T14:13:01.185Z</time></trkpt><trkpt lat="36.3886611" lon="9.9237505"><ele>169.6</ele><time>2026-04-24T14:13:02.198Z</time></trkpt><trkpt lat="36.3886154" lon="9.9236406"><ele>170.0</ele><time>2026-04-24T14:13:03.195Z</time></trkpt><trkpt lat="36.3885721" lon="9.92353"><ele>170.0</ele><time>2026-04-24T14:13:04.173Z</time></trkpt><trkpt lat="36.3885281" lon="9.9234203"><ele>170.0</ele><time>2026-04-24T14:13:05.196Z</time></trkpt><trkpt lat="36.3884881" lon="9.9233145"><ele>170.0</ele><time>2026-04-24T14:13:06.194Z</time></trkpt><trkpt lat="36.3884402" lon="9.9232068"><ele>170.0</ele><time>2026-04-24T14:13:07.176Z</time></trkpt><trkpt lat="36.3883933" lon="9.9231006"><ele>170.0</ele><time>2026-04-24T14:13:08.174Z</time></trkpt><trkpt lat="36.3883467" lon="9.9229928"><ele>170.0</ele><time>2026-04-24T14:13:09.174Z</time></trkpt><trkpt lat="36.3883002" lon="9.9228803"><ele>170.0</ele><time>2026-04-24T14:13:10.187Z</time></trkpt><trkpt lat="36.3882555" lon="9.9227662"><ele>170.0</ele><time>2026-04-24T14:13:11.194Z</time></trkpt><trkpt lat="36.3882147" lon="9.9226537"><ele>170.0</ele><time>2026-04-24T14:13:12.2Z</time></trkpt><trkpt lat="36.3881704" lon="9.9225385"><ele>170.0</ele><time>2026-04-24T14:13:13.188Z</time></trkpt><trkpt lat="36.388124" lon="9.92242"><ele>170.0</ele><time>2026-04-24T14:13:14.182Z</time></trkpt><trkpt lat="36.3880746" lon="9.9223017"><ele>170.0</ele><time>2026-04-24T14:13:15.19Z</time></trkpt><trkpt lat="36.3880235" lon="9.9221847"><ele>170.0</ele><time>2026-04-24T14:13:16.179Z</time></trkpt><trkpt lat="36.3879747" lon="9.9220687"><ele>170.0</ele><time>2026-04-24T14:13:17.185Z</time></trkpt><trkpt lat="36.387926" lon="9.9219473"><ele>170.0</ele><time>2026-04-24T14:13:18.187Z</time></trkpt><trkpt lat="36.3878794" lon="9.9218287"><ele>170.0</ele><time>2026-04-24T14:13:19.188Z</time></trkpt><trkpt lat="36.3878328" lon="9.9217106"><ele>170.0</ele><time>2026-04-24T14:13:20.184Z</time></trkpt><trkpt lat="36.3877859" lon="9.9215945"><ele>170.0</ele><time>2026-04-24T14:13:21.18Z</time></trkpt><trkpt lat="36.3877384" lon="9.9214791"><ele>170.0</ele><time>2026-04-24T14:13:22.177Z</time></trkpt><trkpt lat="36.3876908" lon="9.921358"><ele>170.0</ele><time>2026-04-24T14:13:23.179Z</time></trkpt><trkpt lat="36.3876408" lon="9.9212333"><ele>170.0</ele><time>2026-04-24T14:13:24.192Z</time></trkpt><trkpt lat="36.3875938" lon="9.9211093"><ele>170.0</ele><time>2026-04-24T14:13:25.172Z</time></trkpt><trkpt lat="36.3875473" lon="9.9209833"><ele>170.0</ele><time>2026-04-24T14:13:26.177Z</time></trkpt><trkpt lat="36.3874974" lon="9.9208565"><ele>170.0</ele><time>2026-04-24T14:13:27.183Z</time></trkpt><trkpt lat="36.387445" lon="9.9207322"><ele>170.0</ele><time>2026-04-24T14:13:28.195Z</time></trkpt><trkpt lat="36.387394" lon="9.920606"><ele>170.25</ele><time>2026-04-24T14:13:29.19Z</time></trkpt><trkpt lat="36.387343" lon="9.920475"><ele>170.5</ele><time>2026-04-24T14:13:30.21Z</time></trkpt><trkpt lat="36.3872924" lon="9.9203429"><ele>170.75</ele><time>2026-04-24T14:13:31.191Z</time></trkpt><trkpt lat="36.3872431" lon="9.9202101"><ele>171.0</ele><time>2026-04-24T14:13:32.202Z</time></trkpt><trkpt lat="36.3871935" lon="9.9200808"><ele>171.75</ele><time>2026-04-24T14:13:33.2Z</time></trkpt><trkpt lat="36.3871412" lon="9.9199523"><ele>172.5</ele><time>2026-04-24T14:13:34.199Z</time></trkpt><trkpt lat="36.3870874" lon="9.9198226"><ele>173.25</ele><time>2026-04-24T14:13:35.175Z</time></trkpt><trkpt lat="36.3870344" lon="9.9196952"><ele>174.0</ele><time>2026-04-24T14:13:36.186Z</time></trkpt><trkpt lat="36.3869841" lon="9.9195721"><ele>174.0</ele><time>2026-04-24T14:13:37.181Z</time></trkpt><trkpt lat="36.3869377" lon="9.9194544"><ele>174.0</ele><time>2026-04-24T14:13:38.19Z</time></trkpt><trkpt lat="36.3868922" lon="9.9193355"><ele>174.0</ele><time>2026-04-24T14:13:39.186Z</time></trkpt><trkpt lat="36.3868456" lon="9.9192142"><ele>174.0</ele><time>2026-04-24T14:13:40.181Z</time></trkpt><trkpt lat="36.3868011" lon="9.9190948"><ele>174.0</ele><time>2026-04-24T14:13:41.182Z</time></trkpt><trkpt lat="36.3867561" lon="9.9189792"><ele>173.79999999999998</ele><time>2026-04-24T14:13:42.194Z</time></trkpt><trkpt lat="36.3867113" lon="9.9188676"><ele>173.6</ele><time>2026-04-24T14:13:43.189Z</time></trkpt><trkpt lat="36.3866641" lon="9.9187567"><ele>173.4</ele><time>2026-04-24T14:13:44.174Z</time></trkpt><trkpt lat="36.3866201" lon="9.9186478"><ele>173.2</ele><time>2026-04-24T14:13:45.199Z</time></trkpt><trkpt lat="36.3865791" lon="9.9185421"><ele>173.0</ele><time>2026-04-24T14:13:46.19Z</time></trkpt><trkpt lat="36.3865387" lon="9.9184406"><ele>172.83333333333331</ele><time>2026-04-24T14:13:47.2Z</time></trkpt><trkpt lat="36.3864977" lon="9.918341"><ele>172.66666666666666</ele><time>2026-04-24T14:13:48.197Z</time></trkpt><trkpt lat="36.3864596" lon="9.9182447"><ele>172.5</ele><time>2026-04-24T14:13:49.172Z</time></trkpt><trkpt lat="36.3864195" lon="9.9181486"><ele>172.33333333333334</ele><time>2026-04-24T14:13:50.179Z</time></trkpt><trkpt lat="36.3863834" lon="9.9180572"><ele>172.16666666666669</ele><time>2026-04-24T14:13:51.188Z</time></trkpt><trkpt lat="36.3863509" lon="9.917975"><ele>172.0</ele><time>2026-04-24T14:13:52.184Z</time></trkpt><trkpt lat="36.3863183" lon="9.9178946"><ele>172.5</ele><time>2026-04-24T14:13:53.187Z</time></trkpt><trkpt lat="36.386289" lon="9.9178188"><ele>173.0</ele><time>2026-04-24T14:13:54.189Z</time></trkpt><trkpt lat="36.3862571" lon="9.9177366"><ele>173.5</ele><time>2026-04-24T14:13:55.18Z</time></trkpt><trkpt lat="36.3862231" lon="9.9176524"><ele>174.0</ele><time>2026-04-24T14:13:56.194Z</time></trkpt><trkpt lat="36.3861904" lon="9.9175663"><ele>174.5</ele><time>2026-04-24T14:13:57.179Z</time></trkpt><trkpt lat="36.3861578" lon="9.9174738"><ele>175.0</ele><time>2026-04-24T14:13:58.196Z</time></trkpt><trkpt lat="36.3861236" lon="9.9173817"><ele>175.16666666666669</ele><time>2026-04-24T14:13:59.175Z</time></trkpt><trkpt lat="36.3860855" lon="9.9172887"><ele>175.33333333333334</ele><time>2026-04-24T14:14:00.187Z</time></trkpt><trkpt lat="36.3860438" lon="9.9171979"><ele>175.5</ele><time>2026-04-24T14:14:01.186Z</time></trkpt><trkpt lat="36.3860056" lon="9.9170974"><ele>175.66666666666666</ele><time>2026-04-24T14:14:02.191Z</time></trkpt><trkpt lat="36.3859691" lon="9.9170026"><ele>175.83333333333331</ele><time>2026-04-24T14:14:03.187Z</time></trkpt><trkpt lat="36.3859319" lon="9.916914"><ele>176.0</ele><time>2026-04-24T14:14:04.195Z</time></trkpt><trkpt lat="36.3858909" lon="9.9168273"><ele>176.0</ele><time>2026-04-24T14:14:05.2Z</time></trkpt><trkpt lat="36.3858531" lon="9.9167371"><ele>176.0</ele><time>2026-04-24T14:14:06.183Z</time></trkpt><trkpt lat="36.38582" lon="9.9166452"><ele>176.0</ele><time>2026-04-24T14:14:07.152Z</time></trkpt><trkpt lat="36.3857852" lon="9.9165524"><ele>176.0</ele><time>2026-04-24T14:14:08.172Z</time></trkpt><trkpt lat="36.3857499" lon="9.9164552"><ele>176.0</ele><time>2026-04-24T14:14:09.172Z</time></trkpt><trkpt lat="36.3857161" lon="9.9163661"><ele>176.0</ele><time>2026-04-24T14:14:10.212Z</time></trkpt><trkpt lat="36.3856804" lon="9.9162784"><ele>176.0</ele><time>2026-04-24T14:14:11.194Z</time></trkpt><trkpt lat="36.3856482" lon="9.9161888"><ele>176.0</ele><time>2026-04-24T14:14:12.178Z</time></trkpt><trkpt lat="36.3856156" lon="9.9161016"><ele>176.0</ele><time>2026-04-24T14:14:13.185Z</time></trkpt><trkpt lat="36.3855838" lon="9.916021"><ele>176.0</ele><time>2026-04-24T14:14:14.198Z</time></trkpt><trkpt lat="36.3855538" lon="9.9159464"><ele>176.0</ele><time>2026-04-24T14:14:15.186Z</time></trkpt><trkpt lat="36.3855278" lon="9.9158733"><ele>176.0</ele><time>2026-04-24T14:14:16.19Z</time></trkpt><trkpt lat="36.3854937" lon="9.9157983"><ele>176.0</ele><time>2026-04-24T14:14:17.196Z</time></trkpt><trkpt lat="36.3854605" lon="9.9157164"><ele>176.0</ele><time>2026-04-24T14:14:18.19Z</time></trkpt><trkpt lat="36.3854255" lon="9.915629"><ele>176.0</ele><time>2026-04-24T14:14:19.197Z</time></trkpt><trkpt lat="36.3853903" lon="9.9155428"><ele>176.0</ele><time>2026-04-24T14:14:20.192Z</time></trkpt><trkpt lat="36.3853538" lon="9.9154534"><ele>176.0</ele><time>2026-04-24T14:14:21.179Z</time></trkpt><trkpt lat="36.3853173" lon="9.9153577"><ele>176.0</ele><time>2026-04-24T14:14:22.188Z</time></trkpt><trkpt lat="36.38528" lon="9.9152623"><ele>176.0</ele><time>2026-04-24T14:14:23.191Z</time></trkpt><trkpt lat="36.3852408" lon="9.915168"><ele>175.83333333333331</ele><time>2026-04-24T14:14:24.183Z</time></trkpt><trkpt lat="36.3852014" lon="9.9150671"><ele>175.66666666666666</ele><time>2026-04-24T14:14:25.174Z</time></trkpt><trkpt lat="36.3851608" lon="9.9149685"><ele>175.5</ele><time>2026-04-24T14:14:26.182Z</time></trkpt><trkpt lat="36.385121" lon="9.9148689"><ele>175.33333333333334</ele><time>2026-04-24T14:14:27.186Z</time></trkpt><trkpt lat="36.3850819" lon="9.9147698"><ele>175.16666666666669</ele><time>2026-04-24T14:14:28.2Z</time></trkpt><trkpt lat="36.3850436" lon="9.9146717"><ele>175.0</ele><time>2026-04-24T14:14:29.169Z</time></trkpt><trkpt lat="36.3850055" lon="9.9145781"><ele>175.0</ele><time>2026-04-24T14:14:30.184Z</time></trkpt><trkpt lat="36.3849659" lon="9.9144752"><ele>175.0</ele><time>2026-04-24T14:14:31.176Z</time></trkpt><trkpt lat="36.3849229" lon="9.9143728"><ele>175.0</ele><time>2026-04-24T14:14:32.18Z</time></trkpt><trkpt lat="36.3848811" lon="9.9142709"><ele>175.0</ele><time>2026-04-24T14:14:33.18Z</time></trkpt><trkpt lat="36.3848405" lon="9.9141731"><ele>175.0</ele><time>2026-04-24T14:14:34.19Z</time></trkpt><trkpt lat="36.3847996" lon="9.9140772"><ele>175.0</ele><time>2026-04-24T14:14:35.202Z</time></trkpt><trkpt lat="36.3847586" lon="9.9139805"><ele>175.0</ele><time>2026-04-24T14:14:36.19Z</time></trkpt><trkpt lat="36.3847195" lon="9.9138807"><ele>175.0</ele><time>2026-04-24T14:14:37.189Z</time></trkpt><trkpt lat="36.3846782" lon="9.9137805"><ele>175.0</ele><time>2026-04-24T14:14:38.177Z</time></trkpt><trkpt lat="36.3846365" lon="9.9136819"><ele>175.0</ele><time>2026-04-24T14:14:39.182Z</time></trkpt><trkpt lat="36.3845949" lon="9.9135835"><ele>175.0</ele><time>2026-04-24T14:14:40.18Z</time></trkpt><trkpt lat="36.3845544" lon="9.9134813"><ele>175.0</ele><time>2026-04-24T14:14:41.192Z</time></trkpt><trkpt lat="36.3845149" lon="9.9133763"><ele>175.0</ele><time>2026-04-24T14:14:42.185Z</time></trkpt><trkpt lat="36.3844701" lon="9.9132703"><ele>175.0</ele><time>2026-04-24T14:14:43.187Z</time></trkpt><trkpt lat="36.3844288" lon="9.913164"><ele>175.0</ele><time>2026-04-24T14:14:44.178Z</time></trkpt><trkpt lat="36.3843895" lon="9.9130484"><ele>175.0</ele><time>2026-04-24T14:14:45.185Z</time></trkpt><trkpt lat="36.3843438" lon="9.9129363"><ele>175.0</ele><time>2026-04-24T14:14:46.17Z</time></trkpt><trkpt lat="36.3842994" lon="9.9128216"><ele>175.0</ele><time>2026-04-24T14:14:47.183Z</time></trkpt><trkpt lat="36.3842553" lon="9.9127099"><ele>175.0</ele><time>2026-04-24T14:14:48.187Z</time></trkpt><trkpt lat="36.3842108" lon="9.9125997"><ele>175.0</ele><time>2026-04-24T14:14:49.172Z</time></trkpt><trkpt lat="36.3841671" lon="9.9124902"><ele>175.0</ele><time>2026-04-24T14:14:50.185Z</time></trkpt><trkpt lat="36.3841244" lon="9.9123773"><ele>175.0</ele><time>2026-04-24T14:14:51.171Z</time></trkpt><trkpt lat="36.3840774" lon="9.9122672"><ele>175.0</ele><time>2026-04-24T14:14:52.198Z</time></trkpt><trkpt lat="36.3840329" lon="9.912154"><ele>175.0</ele><time>2026-04-24T14:14:53.185Z</time></trkpt><trkpt lat="36.3839905" lon="9.9120438"><ele>175.0</ele><time>2026-04-24T14:14:54.186Z</time></trkpt><trkpt lat="36.383945" lon="9.9119309"><ele>175.0</ele><time>2026-04-24T14:14:55.181Z</time></trkpt><trkpt lat="36.3839018" lon="9.9118188"><ele>175.2</ele><time>2026-04-24T14:14:56.199Z</time></trkpt><trkpt lat="36.3838583" lon="9.9117077"><ele>175.4</ele><time>2026-04-24T14:14:57.196Z</time></trkpt><trkpt lat="36.3838131" lon="9.9116013"><ele>175.60000000000002</ele><time>2026-04-24T14:14:58.187Z</time></trkpt><trkpt lat="36.3837685" lon="9.911493"><ele>175.8</ele><time>2026-04-24T14:14:59.184Z</time></trkpt><trkpt lat="36.3837248" lon="9.9113842"><ele>176.0</ele><time>2026-04-24T14:15:00.177Z</time></trkpt><trkpt lat="36.3836829" lon="9.911279"><ele>176.5</ele><time>2026-04-24T14:15:01.185Z</time></trkpt><trkpt lat="36.3836444" lon="9.911179"><ele>177.0</ele><time>2026-04-24T14:15:02.188Z</time></trkpt><trkpt lat="36.3836084" lon="9.9110823"><ele>177.5</ele><time>2026-04-24T14:15:03.181Z</time></trkpt><trkpt lat="36.3835716" lon="9.9109887"><ele>178.0</ele><time>2026-04-24T14:15:04.178Z</time></trkpt><trkpt lat="36.3835371" lon="9.9109008"><ele>178.5</ele><time>2026-04-24T14:15:05.192Z</time></trkpt><trkpt lat="36.3835022" lon="9.9108158"><ele>179.0</ele><time>2026-04-24T14:15:06.182Z</time></trkpt><trkpt lat="36.3834692" lon="9.9107362"><ele>179.00000000000003</ele><time>2026-04-24T14:15:07.182Z</time></trkpt><trkpt lat="36.3834363" lon="9.9106584"><ele>179.0</ele><time>2026-04-24T14:15:08.186Z</time></trkpt><trkpt lat="36.3834049" lon="9.9105798"><ele>179.0</ele><time>2026-04-24T14:15:09.173Z</time></trkpt><trkpt lat="36.3833745" lon="9.9105018"><ele>179.0</ele><time>2026-04-24T14:15:10.192Z</time></trkpt><trkpt lat="36.3833407" lon="9.9104137"><ele>179.0</ele><time>2026-04-24T14:15:11.186Z</time></trkpt><trkpt lat="36.3833043" lon="9.9103249"><ele>179.00000000000003</ele><time>2026-04-24T14:15:12.19Z</time></trkpt><trkpt lat="36.3832691" lon="9.9102385"><ele>179.0</ele><time>2026-04-24T14:15:13.178Z</time></trkpt><trkpt lat="36.3832326" lon="9.910156"><ele>179.0</ele><time>2026-04-24T14:15:14.183Z</time></trkpt><trkpt lat="36.3831991" lon="9.910077"><ele>179.0</ele><time>2026-04-24T14:15:15.187Z</time></trkpt><trkpt lat="36.383166" lon="9.9100044"><ele>179.0</ele><time>2026-04-24T14:15:16.166Z</time></trkpt><trkpt lat="36.3831362" lon="9.9099335"><ele>179.0</ele><time>2026-04-24T14:15:17.146Z</time></trkpt><trkpt lat="36.3830751" lon="9.9098004"><ele>179.0</ele><time>2026-04-24T14:15:19.174Z</time></trkpt><trkpt lat="36.3830122" lon="9.9096843"><ele>179.0</ele><time>2026-04-24T14:15:21.167Z</time></trkpt><trkpt lat="36.3829543" lon="9.9095852"><ele>179.00000000000003</ele><time>2026-04-24T14:15:23.174Z</time></trkpt><trkpt lat="36.3829028" lon="9.9095074"><ele>179.0</ele><time>2026-04-24T14:15:25.184Z</time></trkpt><trkpt lat="36.3828666" lon="9.9094379"><ele>179.0</ele><time>2026-04-24T14:15:27.178Z</time></trkpt><trkpt lat="36.3828218" lon="9.9093543"><ele>179.0</ele><time>2026-04-24T14:15:30.177Z</time></trkpt><trkpt lat="36.3827775" lon="9.9092893"><ele>179.0</ele><time>2026-04-24T14:15:34.17Z</time></trkpt><trkpt lat="36.3827384" lon="9.9092272"><ele>179.00000000000003</ele><time>2026-04-24T14:16:09.184Z</time></trkpt><trkpt lat="36.382701" lon="9.9091557"><ele>179.0</ele><time>2026-04-24T14:16:18.169Z</time></trkpt><trkpt lat="36.3826393" lon="9.9090784"><ele>179.0</ele><time>2026-04-24T14:17:04.134Z</time></trkpt><trkpt lat="36.3825959" lon="9.9089831"><ele>179.0</ele><time>2026-04-24T14:17:06.133Z</time></trkpt><trkpt lat="36.3825409" lon="9.9088897"><ele>179.0</ele><time>2026-04-24T14:17:08.123Z</time></trkpt><trkpt lat="36.382452" lon="9.9087954"><ele>179.0</ele><time>2026-04-24T14:17:10.129Z</time></trkpt><trkpt lat="36.3823752" lon="9.9087513"><ele>179.0</ele><time>2026-04-24T14:17:12.152Z</time></trkpt><trkpt lat="36.382308" lon="9.908744"><ele>179.0</ele><time>2026-04-24T14:17:14.132Z</time></trkpt><trkpt lat="36.3822297" lon="9.9087536"><ele>179.0</ele><time>2026-04-24T14:17:16.123Z</time></trkpt><trkpt lat="36.3821282" lon="9.9087596"><ele>179.0</ele><time>2026-04-24T14:17:18.135Z</time></trkpt><trkpt lat="36.3820265" lon="9.9087627"><ele>179.0</ele><time>2026-04-24T14:17:20.123Z</time></trkpt><trkpt lat="36.3819019" lon="9.9087664"><ele>179.0</ele><time>2026-04-24T14:17:22.135Z</time></trkpt><trkpt lat="36.3817797" lon="9.9087465"><ele>179.2857142857143</ele><time>2026-04-24T14:17:24.135Z</time></trkpt><trkpt lat="36.3817171" lon="9.9087284"><ele>179.57142857142858</ele><time>2026-04-24T14:17:25.144Z</time></trkpt><trkpt lat="36.3816548" lon="9.9087154"><ele>179.85714285714286</ele><time>2026-04-24T14:17:26.136Z</time></trkpt><trkpt lat="36.3815863" lon="9.9087004"><ele>180.14285714285717</ele><time>2026-04-24T14:17:27.136Z</time></trkpt><trkpt lat="36.3815158" lon="9.9086892"><ele>180.42857142857142</ele><time>2026-04-24T14:17:28.139Z</time></trkpt><trkpt lat="36.3814407" lon="9.9086759"><ele>180.71428571428572</ele><time>2026-04-24T14:17:29.133Z</time></trkpt><trkpt lat="36.3813705" lon="9.9086628"><ele>181.0</ele><time>2026-04-24T14:17:30.127Z</time></trkpt><trkpt lat="36.3813054" lon="9.9086454"><ele>181.42857142857142</ele><time>2026-04-24T14:17:31.135Z</time></trkpt><trkpt lat="36.3812388" lon="9.9086274"><ele>181.85714285714283</ele><time>2026-04-24T14:17:32.138Z</time></trkpt><trkpt lat="36.3811728" lon="9.908606"><ele>182.28571428571428</ele><time>2026-04-24T14:17:33.132Z</time></trkpt><trkpt lat="36.381103" lon="9.9085906"><ele>182.71428571428572</ele><time>2026-04-24T14:17:34.145Z</time></trkpt><trkpt lat="36.3810345" lon="9.9085756"><ele>183.14285714285714</ele><time>2026-04-24T14:17:35.145Z</time></trkpt><trkpt lat="36.380958" lon="9.9085587"><ele>183.57142857142858</ele><time>2026-04-24T14:17:36.137Z</time></trkpt><trkpt lat="36.3808892" lon="9.9085481"><ele>184.0</ele><time>2026-04-24T14:17:37.139Z</time></trkpt><trkpt lat="36.3808196" lon="9.9085349"><ele>184.0</ele><time>2026-04-24T14:17:38.139Z</time></trkpt><trkpt lat="36.3807469" lon="9.9085202"><ele>184.0</ele><time>2026-04-24T14:17:39.135Z</time></trkpt><trkpt lat="36.3806707" lon="9.9084987"><ele>184.0</ele><time>2026-04-24T14:17:40.123Z</time></trkpt><trkpt lat="36.380597" lon="9.9084703"><ele>184.0</ele><time>2026-04-24T14:17:41.133Z</time></trkpt><trkpt lat="36.3805259" lon="9.9084357"><ele>184.0</ele><time>2026-04-24T14:17:42.13Z</time></trkpt><trkpt lat="36.3804482" lon="9.9084043"><ele>184.0</ele><time>2026-04-24T14:17:43.134Z</time></trkpt><trkpt lat="36.380372" lon="9.9083694"><ele>183.14285714285714</ele><time>2026-04-24T14:17:44.14Z</time></trkpt><trkpt lat="36.380306" lon="9.9083238"><ele>182.28571428571428</ele><time>2026-04-24T14:17:45.13Z</time></trkpt><trkpt lat="36.3802376" lon="9.9082834"><ele>181.42857142857142</ele><time>2026-04-24T14:17:46.139Z</time></trkpt><trkpt lat="36.3801784" lon="9.9082332"><ele>180.57142857142856</ele><time>2026-04-24T14:17:47.133Z</time></trkpt><trkpt lat="36.380118" lon="9.9081852"><ele>179.71428571428572</ele><time>2026-04-24T14:17:48.135Z</time></trkpt><trkpt lat="36.3800568" lon="9.9081375"><ele>178.85714285714283</ele><time>2026-04-24T14:17:49.139Z</time></trkpt><trkpt lat="36.3800018" lon="9.9080899"><ele>178.0</ele><time>2026-04-24T14:17:50.125Z</time></trkpt><trkpt lat="36.379909" lon="9.9080057"><ele>178.0</ele><time>2026-04-24T14:17:52.129Z</time></trkpt><trkpt lat="36.3798407" lon="9.9079139"><ele>178.0</ele><time>2026-04-24T14:17:54.134Z</time></trkpt><trkpt lat="36.3797769" lon="9.907819"><ele>178.0</ele><time>2026-04-24T14:17:56.122Z</time></trkpt><trkpt lat="36.3797223" lon="9.9077343"><ele>178.0</ele><time>2026-04-24T14:17:58.129Z</time></trkpt><trkpt lat="36.379671" lon="9.9076524"><ele>178.0</ele><time>2026-04-24T14:18:00.127Z</time></trkpt><trkpt lat="36.3796209" lon="9.907577"><ele>178.33333333333334</ele><time>2026-04-24T14:18:02.157Z</time></trkpt><trkpt lat="36.379574" lon="9.9075031"><ele>178.66666666666669</ele><time>2026-04-24T14:18:04.138Z</time></trkpt><trkpt lat="36.3795367" lon="9.9074345"><ele>179.0</ele><time>2026-04-24T14:18:06.127Z</time></trkpt><trkpt lat="36.3794799" lon="9.9073515"><ele>179.33333333333334</ele><time>2026-04-24T14:18:09.124Z</time></trkpt><trkpt lat="36.3794227" lon="9.9072731"><ele>179.66666666666666</ele><time>2026-04-24T14:18:12.124Z</time></trkpt><trkpt lat="36.3793789" lon="9.9072092"><ele>180.0</ele><time>2026-04-24T14:18:14.129Z</time></trkpt><trkpt lat="36.3793184" lon="9.9071232"><ele>180.0</ele><time>2026-04-24T14:18:17.124Z</time></trkpt><trkpt lat="36.3792569" lon="9.9070397"><ele>180.0</ele><time>2026-04-24T14:18:19.121Z</time></trkpt><trkpt lat="36.3791916" lon="9.9069572"><ele>180.0</ele><time>2026-04-24T14:18:21.124Z</time></trkpt><trkpt lat="36.3791309" lon="9.9068838"><ele>180.0</ele><time>2026-04-24T14:18:23.116Z</time></trkpt><trkpt lat="36.3790685" lon="9.906789"><ele>180.0</ele><time>2026-04-24T14:18:25.135Z</time></trkpt><trkpt lat="36.379008" lon="9.9066939"><ele>180.25</ele><time>2026-04-24T14:18:27.133Z</time></trkpt><trkpt lat="36.3789403" lon="9.906581"><ele>180.5</ele><time>2026-04-24T14:18:29.122Z</time></trkpt><trkpt lat="36.3788737" lon="9.9064717"><ele>180.75</ele><time>2026-04-24T14:18:31.13Z</time></trkpt><trkpt lat="36.3788007" lon="9.9063617"><ele>181.0</ele><time>2026-04-24T14:18:33.126Z</time></trkpt><trkpt lat="36.3787224" lon="9.9062387"><ele>181.0</ele><time>2026-04-24T14:18:35.127Z</time></trkpt><trkpt lat="36.3786419" lon="9.906128"><ele>181.0</ele><time>2026-04-24T14:18:37.129Z</time></trkpt><trkpt lat="36.3785589" lon="9.906019"><ele>181.0</ele><time>2026-04-24T14:18:39.122Z</time></trkpt><trkpt lat="36.37852" lon="9.905957"><ele>181.0</ele><time>2026-04-24T14:18:40.131Z</time></trkpt><trkpt lat="36.3784413" lon="9.9058343"><ele>181.0</ele><time>2026-04-24T14:18:42.136Z</time></trkpt><trkpt lat="36.3783987" lon="9.9057619"><ele>181.0</ele><time>2026-04-24T14:18:43.121Z</time></trkpt><trkpt lat="36.3783512" lon="9.9056944"><ele>181.0</ele><time>2026-04-24T14:18:44.141Z</time></trkpt><trkpt lat="36.3783062" lon="9.9056177"><ele>181.0</ele><time>2026-04-24T14:18:45.149Z</time></trkpt><trkpt lat="36.3782559" lon="9.9055457"><ele>181.0</ele><time>2026-04-24T14:18:46.118Z</time></trkpt><trkpt lat="36.3782141" lon="9.9054743"><ele>181.0</ele><time>2026-04-24T14:18:47.129Z</time></trkpt><trkpt lat="36.3781665" lon="9.9054059"><ele>181.0</ele><time>2026-04-24T14:18:48.126Z</time></trkpt><trkpt lat="36.3781168" lon="9.90533"><ele>181.0</ele><time>2026-04-24T14:18:49.137Z</time></trkpt><trkpt lat="36.3780677" lon="9.9052577"><ele>180.71428571428572</ele><time>2026-04-24T14:18:50.143Z</time></trkpt><trkpt lat="36.3780173" lon="9.9051845"><ele>180.42857142857142</ele><time>2026-04-24T14:18:51.133Z</time></trkpt><trkpt lat="36.3779711" lon="9.9051165"><ele>180.14285714285717</ele><time>2026-04-24T14:18:52.136Z</time></trkpt><trkpt lat="36.3779208" lon="9.9050505"><ele>179.85714285714286</ele><time>2026-04-24T14:18:53.12Z</time></trkpt><trkpt lat="36.377876" lon="9.9049855"><ele>179.57142857142858</ele><time>2026-04-24T14:18:54.136Z</time></trkpt><trkpt lat="36.3778317" lon="9.9049168"><ele>179.2857142857143</ele><time>2026-04-24T14:18:55.142Z</time></trkpt><trkpt lat="36.3777897" lon="9.9048452"><ele>179.0</ele><time>2026-04-24T14:18:56.131Z</time></trkpt><trkpt lat="36.3777406" lon="9.9047717"><ele>178.83333333333331</ele><time>2026-04-24T14:18:57.12Z</time></trkpt><trkpt lat="36.3776867" lon="9.9046921"><ele>178.66666666666666</ele><time>2026-04-24T14:18:58.14Z</time></trkpt><trkpt lat="36.3776381" lon="9.9046184"><ele>178.5</ele><time>2026-04-24T14:18:59.13Z</time></trkpt><trkpt lat="36.3775843" lon="9.9045462"><ele>178.33333333333334</ele><time>2026-04-24T14:19:00.12Z</time></trkpt><trkpt lat="36.3775375" lon="9.9044733"><ele>178.16666666666669</ele><time>2026-04-24T14:19:01.125Z</time></trkpt><trkpt lat="36.377491" lon="9.9043992"><ele>178.0</ele><time>2026-04-24T14:19:02.136Z</time></trkpt><trkpt lat="36.3774438" lon="9.9043192"><ele>178.0</ele><time>2026-04-24T14:19:03.118Z</time></trkpt><trkpt lat="36.3773939" lon="9.9042469"><ele>178.0</ele><time>2026-04-24T14:19:04.125Z</time></trkpt><trkpt lat="36.3773483" lon="9.9041724"><ele>178.0</ele><time>2026-04-24T14:19:05.135Z</time></trkpt><trkpt lat="36.3772964" lon="9.9041061"><ele>178.0</ele><time>2026-04-24T14:19:06.134Z</time></trkpt><trkpt lat="36.3772507" lon="9.9040403"><ele>178.0</ele><time>2026-04-24T14:19:07.135Z</time></trkpt><trkpt lat="36.3772058" lon="9.9039762"><ele>178.0</ele><time>2026-04-24T14:19:08.129Z</time></trkpt><trkpt lat="36.3771242" lon="9.9038669"><ele>178.0</ele><time>2026-04-24T14:19:10.124Z</time></trkpt><trkpt lat="36.3770439" lon="9.9037599"><ele>178.0</ele><time>2026-04-24T14:19:12.139Z</time></trkpt><trkpt lat="36.3769746" lon="9.9036393"><ele>178.0</ele><time>2026-04-24T14:19:14.124Z</time></trkpt><trkpt lat="36.3769371" lon="9.9035709"><ele>178.0</ele><time>2026-04-24T14:19:15.133Z</time></trkpt><trkpt lat="36.3768519" lon="9.9034663"><ele>178.0</ele><time>2026-04-24T14:19:17.121Z</time></trkpt><trkpt lat="36.3767742" lon="9.9033525"><ele>177.66666666666669</ele><time>2026-04-24T14:19:19.136Z</time></trkpt><trkpt lat="36.3767103" lon="9.9032487"><ele>177.33333333333334</ele><time>2026-04-24T14:19:21.121Z</time></trkpt><trkpt lat="36.3766385" lon="9.9031514"><ele>177.0</ele><time>2026-04-24T14:19:23.137Z</time></trkpt><trkpt lat="36.3765911" lon="9.9030648"><ele>176.66666666666666</ele><time>2026-04-24T14:19:25.144Z</time></trkpt><trkpt lat="36.3765474" lon="9.9029981"><ele>176.33333333333331</ele><time>2026-04-24T14:19:27.128Z</time></trkpt><trkpt lat="36.376495" lon="9.9029243"><ele>176.0</ele><time>2026-04-24T14:19:30.137Z</time></trkpt><trkpt lat="36.3764424" lon="9.9028558"><ele>176.0</ele><time>2026-04-24T14:19:33.126Z</time></trkpt><trkpt lat="36.376377" lon="9.9027814"><ele>176.0</ele><time>2026-04-24T14:19:36.13Z</time></trkpt><trkpt lat="36.3763202" lon="9.9026932"><ele>176.0</ele><time>2026-04-24T14:19:38.139Z</time></trkpt><trkpt lat="36.3762674" lon="9.9026228"><ele>176.0</ele><time>2026-04-24T14:19:40.124Z</time></trkpt><trkpt lat="36.3761936" lon="9.9025651"><ele>176.0</ele><time>2026-04-24T14:19:42.137Z</time></trkpt><trkpt lat="36.376113" lon="9.9025309"><ele>176.0</ele><time>2026-04-24T14:19:44.114Z</time></trkpt><trkpt lat="36.3760322" lon="9.9024943"><ele>176.0</ele><time>2026-04-24T14:19:46.134Z</time></trkpt><trkpt lat="36.3759432" lon="9.9024834"><ele>176.0</ele><time>2026-04-24T14:19:48.141Z</time></trkpt><trkpt lat="36.3758519" lon="9.9024692"><ele>176.0</ele><time>2026-04-24T14:19:50.123Z</time></trkpt><trkpt lat="36.3757468" lon="9.9024496"><ele>176.0</ele><time>2026-04-24T14:19:53.136Z</time></trkpt><trkpt lat="36.37567" lon="9.9024364"><ele>176.0</ele><time>2026-04-24T14:19:55.137Z</time></trkpt><trkpt lat="36.3755813" lon="9.9024185"><ele>176.14285714285714</ele><time>2026-04-24T14:19:58.149Z</time></trkpt><trkpt lat="36.375502" lon="9.902406"><ele>176.28571428571428</ele><time>2026-04-24T14:20:01.113Z</time></trkpt><trkpt lat="36.3754322" lon="9.9023973"><ele>176.42857142857144</ele><time>2026-04-24T14:20:05.138Z</time></trkpt><trkpt lat="36.3753551" lon="9.9023932"><ele>176.57142857142856</ele><time>2026-04-24T14:20:18.138Z</time></trkpt><trkpt lat="36.3752828" lon="9.9023885"><ele>176.7142857142857</ele><time>2026-04-24T14:20:25.132Z</time></trkpt><trkpt lat="36.3752051" lon="9.9023811"><ele>176.85714285714286</ele><time>2026-04-24T14:20:30.124Z</time></trkpt><trkpt lat="36.3751401" lon="9.9023595"><ele>177.0</ele><time>2026-04-24T14:20:39.14Z</time></trkpt><trkpt lat="36.3750753" lon="9.902357"><ele>177.0</ele><time>2026-04-24T14:20:42.128Z</time></trkpt><trkpt lat="36.3750063" lon="9.9023518"><ele>177.0</ele><time>2026-04-24T14:20:46.137Z</time></trkpt><trkpt lat="36.3749245" lon="9.9023346"><ele>177.0</ele><time>2026-04-24T14:20:49.148Z</time></trkpt><trkpt lat="36.3748514" lon="9.902327"><ele>177.0</ele><time>2026-04-24T14:20:54.138Z</time></trkpt><trkpt lat="36.3747704" lon="9.9023194"><ele>177.0</ele><time>2026-04-24T14:20:59.133Z</time></trkpt><trkpt lat="36.3747013" lon="9.9023096"><ele>177.0</ele><time>2026-04-24T14:21:03.147Z</time></trkpt><trkpt lat="36.3746342" lon="9.9023067"><ele>177.0</ele><time>2026-04-24T14:21:07.131Z</time></trkpt><trkpt lat="36.3745611" lon="9.9023025"><ele>177.33333333333334</ele><time>2026-04-24T14:21:11.127Z</time></trkpt><trkpt lat="36.374477" lon="9.9022963"><ele>177.66666666666666</ele><time>2026-04-24T14:21:16.139Z</time></trkpt><trkpt lat="36.3744085" lon="9.9022891"><ele>178.0</ele><time>2026-04-24T14:21:18.109Z</time></trkpt><trkpt lat="36.3743276" lon="9.9022777"><ele>178.33333333333331</ele><time>2026-04-24T14:21:21.126Z</time></trkpt><trkpt lat="36.3742448" lon="9.9022683"><ele>178.66666666666666</ele><time>2026-04-24T14:21:25.143Z</time></trkpt><trkpt lat="36.3741765" lon="9.9022487"><ele>179.0</ele><time>2026-04-24T14:21:29.13Z</time></trkpt><trkpt lat="36.3740921" lon="9.9022477"><ele>179.0</ele><time>2026-04-24T14:21:33.136Z</time></trkpt><trkpt lat="36.3740249" lon="9.9022321"><ele>179.0</ele><time>2026-04-24T14:21:37.111Z</time></trkpt><trkpt lat="36.3739479" lon="9.9022362"><ele>179.0</ele><time>2026-04-24T14:21:40.131Z</time></trkpt><trkpt lat="36.3738813" lon="9.9022244"><ele>179.0</ele><time>2026-04-24T14:21:42.144Z</time></trkpt><trkpt lat="36.3737786" lon="9.9022115"><ele>179.0</ele><time>2026-04-24T14:21:44.136Z</time></trkpt><trkpt lat="36.3736637" lon="9.9021973"><ele>179.0</ele><time>2026-04-24T14:21:46.114Z</time></trkpt><trkpt lat="36.3735457" lon="9.9021887"><ele>179.2</ele><time>2026-04-24T14:21:48.129Z</time></trkpt><trkpt lat="36.3734362" lon="9.9021687"><ele>179.39999999999998</ele><time>2026-04-24T14:21:50.128Z</time></trkpt><trkpt lat="36.3733576" lon="9.9021476"><ele>179.6</ele><time>2026-04-24T14:21:52.128Z</time></trkpt><trkpt lat="36.3732892" lon="9.9021469"><ele>179.8</ele><time>2026-04-24T14:21:59.12Z</time></trkpt><trkpt lat="36.373193" lon="9.9021413"><ele>180.0</ele><time>2026-04-24T14:22:04.126Z</time></trkpt><trkpt lat="36.373087" lon="9.9021247"><ele>180.0</ele><time>2026-04-24T14:22:06.142Z</time></trkpt><trkpt lat="36.3729603" lon="9.9021102"><ele>180.0</ele><time>2026-04-24T14:22:08.121Z</time></trkpt><trkpt lat="36.3728903" lon="9.9021068"><ele>180.0</ele><time>2026-04-24T14:22:09.131Z</time></trkpt><trkpt lat="36.3727806" lon="9.9020824"><ele>180.0</ele><time>2026-04-24T14:22:11.128Z</time></trkpt><trkpt lat="36.3726843" lon="9.9020653"><ele>180.0</ele><time>2026-04-24T14:22:13.14Z</time></trkpt><trkpt lat="36.3725987" lon="9.9020587"><ele>180.0</ele><time>2026-04-24T14:22:15.118Z</time></trkpt><trkpt lat="36.3725216" lon="9.9020543"><ele>180.0</ele><time>2026-04-24T14:22:18.135Z</time></trkpt><trkpt lat="36.3724562" lon="9.9020389"><ele>180.0</ele><time>2026-04-24T14:22:26.126Z</time></trkpt><trkpt lat="36.3723905" lon="9.9020295"><ele>180.0</ele><time>2026-04-24T14:22:30.141Z</time></trkpt><trkpt lat="36.3723198" lon="9.9020177"><ele>180.0</ele><time>2026-04-24T14:22:34.123Z</time></trkpt><trkpt lat="36.3722418" lon="9.9020145"><ele>180.0</ele><time>2026-04-24T14:22:38.129Z</time></trkpt><trkpt lat="36.372171" lon="9.9019885"><ele>180.0</ele><time>2026-04-24T14:22:42.13Z</time></trkpt><trkpt lat="36.3721071" lon="9.9019699"><ele>179.85714285714286</ele><time>2026-04-24T14:22:45.136Z</time></trkpt><trkpt lat="36.372047" lon="9.9019435"><ele>179.71428571428572</ele><time>2026-04-24T14:22:48.148Z</time></trkpt><trkpt lat="36.3719842" lon="9.9019362"><ele>179.57142857142858</ele><time>2026-04-24T14:22:53.123Z</time></trkpt><trkpt lat="36.3719148" lon="9.9019176"><ele>179.42857142857144</ele><time>2026-04-24T14:22:58.118Z</time></trkpt><trkpt lat="36.371852" lon="9.901886"><ele>179.28571428571428</ele><time>2026-04-24T14:23:03.147Z</time></trkpt><trkpt lat="36.3717537" lon="9.9018813"><ele>179.14285714285717</ele><time>2026-04-24T14:23:07.145Z</time></trkpt><trkpt lat="36.371685" lon="9.9018865"><ele>179.0</ele><time>2026-04-24T14:23:09.133Z</time></trkpt><trkpt lat="36.3716163" lon="9.9019322"><ele>179.00000000000003</ele><time>2026-04-24T14:23:11.137Z</time></trkpt><trkpt lat="36.3715483" lon="9.9019744"><ele>179.0</ele><time>2026-04-24T14:23:13.144Z</time></trkpt><trkpt lat="36.3714842" lon="9.9020069"><ele>179.0</ele><time>2026-04-24T14:23:15.12Z</time></trkpt><trkpt lat="36.3714276" lon="9.9020424"><ele>179.0</ele><time>2026-04-24T14:23:17.116Z</time></trkpt><trkpt lat="36.3713645" lon="9.9020593"><ele>179.0</ele><time>2026-04-24T14:23:19.132Z</time></trkpt><trkpt lat="36.3712835" lon="9.9020781"><ele>179.00000000000003</ele><time>2026-04-24T14:23:21.149Z</time></trkpt><trkpt lat="36.3711959" lon="9.902098"><ele>179.0</ele><time>2026-04-24T14:23:23.148Z</time></trkpt><trkpt lat="36.3711273" lon="9.9021186"><ele>179.16666666666666</ele><time>2026-04-24T14:23:25.154Z</time></trkpt><trkpt lat="36.3710608" lon="9.902129"><ele>179.33333333333331</ele><time>2026-04-24T14:23:27.146Z</time></trkpt><trkpt lat="36.3709798" lon="9.9021131"><ele>179.5</ele><time>2026-04-24T14:23:29.126Z</time></trkpt><trkpt lat="36.3708987" lon="9.9021002"><ele>179.66666666666666</ele><time>2026-04-24T14:23:31.133Z</time></trkpt><trkpt lat="36.3708161" lon="9.9020972"><ele>179.83333333333334</ele><time>2026-04-24T14:23:33.126Z</time></trkpt><trkpt lat="36.3707195" lon="9.9020849"><ele>180.0</ele><time>2026-04-24T14:23:35.147Z</time></trkpt><trkpt lat="36.3706124" lon="9.9020599"><ele>180.75</ele><time>2026-04-24T14:23:37.121Z</time></trkpt><trkpt lat="36.370494" lon="9.9020468"><ele>181.5</ele><time>2026-04-24T14:23:39.135Z</time></trkpt><trkpt lat="36.3703753" lon="9.9020274"><ele>182.25</ele><time>2026-04-24T14:23:41.135Z</time></trkpt><trkpt lat="36.3702712" lon="9.9020116"><ele>183.0</ele><time>2026-04-24T14:23:43.132Z</time></trkpt><trkpt lat="36.3701514" lon="9.9020017"><ele>183.0</ele><time>2026-04-24T14:23:45.128Z</time></trkpt><trkpt lat="36.3700389" lon="9.9019908"><ele>183.0</ele><time>2026-04-24T14:23:47.132Z</time></trkpt><trkpt lat="36.3699198" lon="9.9019776"><ele>183.0</ele><time>2026-04-24T14:23:49.134Z</time></trkpt><trkpt lat="36.3698134" lon="9.901966"><ele>183.0</ele><time>2026-04-24T14:23:51.13Z</time></trkpt><trkpt lat="36.3696911" lon="9.9019507"><ele>182.8</ele><time>2026-04-24T14:23:53.138Z</time></trkpt><trkpt lat="36.3695762" lon="9.9019387"><ele>182.60000000000002</ele><time>2026-04-24T14:23:55.125Z</time></trkpt><trkpt lat="36.3694588" lon="9.9019209"><ele>182.39999999999998</ele><time>2026-04-24T14:23:57.127Z</time></trkpt><trkpt lat="36.3693341" lon="9.9019064"><ele>182.2</ele><time>2026-04-24T14:23:59.134Z</time></trkpt><trkpt lat="36.3692692" lon="9.9018997"><ele>182.0</ele><time>2026-04-24T14:24:00.118Z</time></trkpt><trkpt lat="36.3692059" lon="9.9018913"><ele>182.0</ele><time>2026-04-24T14:24:01.132Z</time></trkpt><trkpt lat="36.3691428" lon="9.9018808"><ele>182.0</ele><time>2026-04-24T14:24:02.134Z</time></trkpt><trkpt lat="36.3690158" lon="9.9018695"><ele>182.0</ele><time>2026-04-24T14:24:04.123Z</time></trkpt><trkpt lat="36.3689508" lon="9.9018647"><ele>182.0</ele><time>2026-04-24T14:24:05.14Z</time></trkpt><trkpt lat="36.3688847" lon="9.9018549"><ele>182.0</ele><time>2026-04-24T14:24:06.14Z</time></trkpt><trkpt lat="36.3688207" lon="9.9018435"><ele>182.0</ele><time>2026-04-24T14:24:07.129Z</time></trkpt><trkpt lat="36.3687522" lon="9.9018358"><ele>182.25</ele><time>2026-04-24T14:24:08.131Z</time></trkpt><trkpt lat="36.3686288" lon="9.9018128"><ele>182.5</ele><time>2026-04-24T14:24:10.12Z</time></trkpt><trkpt lat="36.3685026" lon="9.9018151"><ele>182.75</ele><time>2026-04-24T14:24:12.146Z</time></trkpt><trkpt lat="36.3683851" lon="9.9018035"><ele>183.0</ele><time>2026-04-24T14:24:14.126Z</time></trkpt><trkpt lat="36.3683011" lon="9.9017896"><ele>183.0</ele><time>2026-04-24T14:24:16.133Z</time></trkpt><trkpt lat="36.3682235" lon="9.9017769"><ele>183.0</ele><time>2026-04-24T14:24:19.133Z</time></trkpt><trkpt lat="36.3681187" lon="9.9017517"><ele>183.0</ele><time>2026-04-24T14:24:22.108Z</time></trkpt><trkpt lat="36.368006" lon="9.9017323"><ele>183.0</ele><time>2026-04-24T14:24:24.13Z</time></trkpt><trkpt lat="36.3679414" lon="9.9017229"><ele>183.0</ele><time>2026-04-24T14:24:25.142Z</time></trkpt><trkpt lat="36.367867" lon="9.9017148"><ele>183.0</ele><time>2026-04-24T14:24:26.134Z</time></trkpt><trkpt lat="36.3677708" lon="9.9017075"><ele>182.60000000000002</ele><time>2026-04-24T14:24:27.128Z</time></trkpt><trkpt lat="36.3676774" lon="9.9016993"><ele>182.20000000000002</ele><time>2026-04-24T14:24:28.144Z</time></trkpt><trkpt lat="36.3675849" lon="9.9016834"><ele>181.8</ele><time>2026-04-24T14:24:29.138Z</time></trkpt><trkpt lat="36.3674905" lon="9.9016709"><ele>181.4</ele><time>2026-04-24T14:24:30.122Z</time></trkpt><trkpt lat="36.3673972" lon="9.901669"><ele>181.0</ele><time>2026-04-24T14:24:31.131Z</time></trkpt><trkpt lat="36.3673051" lon="9.901673"><ele>181.0</ele><time>2026-04-24T14:24:32.132Z</time></trkpt><trkpt lat="36.3672145" lon="9.9016815"><ele>181.0</ele><time>2026-04-24T14:24:33.132Z</time></trkpt><trkpt lat="36.3671302" lon="9.9017001"><ele>181.0</ele><time>2026-04-24T14:24:34.128Z</time></trkpt><trkpt lat="36.3670539" lon="9.9017257"><ele>181.0</ele><time>2026-04-24T14:24:35.134Z</time></trkpt><trkpt lat="36.3669857" lon="9.9017585"><ele>181.0</ele><time>2026-04-24T14:24:36.135Z</time></trkpt><trkpt lat="36.3669215" lon="9.9017917"><ele>181.0</ele><time>2026-04-24T14:24:37.125Z</time></trkpt><trkpt lat="36.3668574" lon="9.9018313"><ele>181.28571428571428</ele><time>2026-04-24T14:24:38.154Z</time></trkpt><trkpt lat="36.3667981" lon="9.9018731"><ele>181.57142857142856</ele><time>2026-04-24T14:24:39.12Z</time></trkpt><trkpt lat="36.3667386" lon="9.901916"><ele>181.85714285714286</ele><time>2026-04-24T14:24:40.134Z</time></trkpt><trkpt lat="36.3666705" lon="9.9019575"><ele>182.14285714285714</ele><time>2026-04-24T14:24:41.139Z</time></trkpt><trkpt lat="36.3666009" lon="9.902"><ele>182.42857142857144</ele><time>2026-04-24T14:24:42.116Z</time></trkpt><trkpt lat="36.3665291" lon="9.9020393"><ele>182.71428571428572</ele><time>2026-04-24T14:24:43.132Z</time></trkpt><trkpt lat="36.3664644" lon="9.9020823"><ele>183.0</ele><time>2026-04-24T14:24:44.126Z</time></trkpt><trkpt lat="36.3664014" lon="9.9021224"><ele>182.83333333333334</ele><time>2026-04-24T14:24:45.134Z</time></trkpt><trkpt lat="36.3663427" lon="9.9021621"><ele>182.66666666666666</ele><time>2026-04-24T14:24:46.129Z</time></trkpt><trkpt lat="36.366236" lon="9.9022267"><ele>182.5</ele><time>2026-04-24T14:24:48.137Z</time></trkpt><trkpt lat="36.3661671" lon="9.9022643"><ele>182.33333333333331</ele><time>2026-04-24T14:24:49.116Z</time></trkpt><trkpt lat="36.3660931" lon="9.9022992"><ele>182.16666666666666</ele><time>2026-04-24T14:24:50.139Z</time></trkpt><trkpt lat="36.3660165" lon="9.9023413"><ele>182.0</ele><time>2026-04-24T14:24:51.14Z</time></trkpt><trkpt lat="36.3659364" lon="9.9023875"><ele>182.0</ele><time>2026-04-24T14:24:52.123Z</time></trkpt><trkpt lat="36.3658601" lon="9.9024282"><ele>182.0</ele><time>2026-04-24T14:24:53.121Z</time></trkpt><trkpt lat="36.3657864" lon="9.9024729"><ele>182.0</ele><time>2026-04-24T14:24:54.145Z</time></trkpt><trkpt lat="36.365714" lon="9.9025166"><ele>182.0</ele><time>2026-04-24T14:24:55.13Z</time></trkpt><trkpt lat="36.3656356" lon="9.9025616"><ele>182.0</ele><time>2026-04-24T14:24:56.126Z</time></trkpt><trkpt lat="36.3655636" lon="9.9026048"><ele>182.0</ele><time>2026-04-24T14:24:57.124Z</time></trkpt><trkpt lat="36.3654897" lon="9.9026519"><ele>182.16666666666666</ele><time>2026-04-24T14:24:58.14Z</time></trkpt><trkpt lat="36.3654168" lon="9.9026892"><ele>182.33333333333331</ele><time>2026-04-24T14:24:59.123Z</time></trkpt><trkpt lat="36.3653515" lon="9.9027186"><ele>182.5</ele><time>2026-04-24T14:25:00.131Z</time></trkpt><trkpt lat="36.3652389" lon="9.9027827"><ele>182.66666666666666</ele><time>2026-04-24T14:25:02.144Z</time></trkpt><trkpt lat="36.365155" lon="9.9028381"><ele>182.83333333333334</ele><time>2026-04-24T14:25:04.117Z</time></trkpt><trkpt lat="36.3650919" lon="9.9028701"><ele>183.0</ele><time>2026-04-24T14:25:06.136Z</time></trkpt><trkpt lat="36.365005" lon="9.9029132"><ele>183.0</ele><time>2026-04-24T14:25:09.15Z</time></trkpt><trkpt lat="36.364933" lon="9.9029576"><ele>183.0</ele><time>2026-04-24T14:25:11.136Z</time></trkpt><trkpt lat="36.3648383" lon="9.9030117"><ele>183.0</ele><time>2026-04-24T14:25:13.129Z</time></trkpt><trkpt lat="36.3647239" lon="9.9030898"><ele>183.0</ele><time>2026-04-24T14:25:15.129Z</time></trkpt><trkpt lat="36.3646616" lon="9.903128"><ele>183.0</ele><time>2026-04-24T14:25:16.126Z</time></trkpt><trkpt lat="36.3645982" lon="9.9031685"><ele>182.83333333333334</ele><time>2026-04-24T14:25:17.137Z</time></trkpt><trkpt lat="36.3645314" lon="9.9032085"><ele>182.66666666666666</ele><time>2026-04-24T14:25:18.134Z</time></trkpt><trkpt lat="36.3644637" lon="9.9032551"><ele>182.5</ele><time>2026-04-24T14:25:19.134Z</time></trkpt><trkpt lat="36.3643987" lon="9.9033075"><ele>182.33333333333331</ele><time>2026-04-24T14:25:20.15Z</time></trkpt><trkpt lat="36.3643308" lon="9.9033556"><ele>182.16666666666666</ele><time>2026-04-24T14:25:21.123Z</time></trkpt><trkpt lat="36.3642711" lon="9.9034047"><ele>182.0</ele><time>2026-04-24T14:25:22.124Z</time></trkpt><trkpt lat="36.3642118" lon="9.9034608"><ele>182.16666666666666</ele><time>2026-04-24T14:25:23.148Z</time></trkpt><trkpt lat="36.3641527" lon="9.9035228"><ele>182.33333333333331</ele><time>2026-04-24T14:25:24.143Z</time></trkpt><trkpt lat="36.3640856" lon="9.9035894"><ele>182.5</ele><time>2026-04-24T14:25:25.139Z</time></trkpt><trkpt lat="36.3640226" lon="9.9036552"><ele>182.66666666666666</ele><time>2026-04-24T14:25:26.13Z</time></trkpt><trkpt lat="36.3639578" lon="9.9037194"><ele>182.83333333333334</ele><time>2026-04-24T14:25:27.135Z</time></trkpt><trkpt lat="36.3639047" lon="9.90378"><ele>183.0</ele><time>2026-04-24T14:25:28.138Z</time></trkpt><trkpt lat="36.3638543" lon="9.9038363"><ele>183.0</ele><time>2026-04-24T14:25:29.113Z</time></trkpt><trkpt lat="36.3638067" lon="9.9038917"><ele>183.0</ele><time>2026-04-24T14:25:30.121Z</time></trkpt><trkpt lat="36.3637581" lon="9.903948"><ele>183.0</ele><time>2026-04-24T14:25:31.136Z</time></trkpt><trkpt lat="36.3637119" lon="9.9040031"><ele>183.0</ele><time>2026-04-24T14:25:32.139Z</time></trkpt><trkpt lat="36.3636598" lon="9.9040543"><ele>183.0</ele><time>2026-04-24T14:25:33.134Z</time></trkpt><trkpt lat="36.3636109" lon="9.9041046"><ele>183.0</ele><time>2026-04-24T14:25:34.132Z</time></trkpt><trkpt lat="36.3635576" lon="9.9041607"><ele>183.0</ele><time>2026-04-24T14:25:35.141Z</time></trkpt><trkpt lat="36.3635021" lon="9.9042214"><ele>183.33333333333334</ele><time>2026-04-24T14:25:36.146Z</time></trkpt><trkpt lat="36.3634446" lon="9.9042845"><ele>183.66666666666666</ele><time>2026-04-24T14:25:37.133Z</time></trkpt><trkpt lat="36.363383" lon="9.9043499"><ele>184.0</ele><time>2026-04-24T14:25:38.136Z</time></trkpt><trkpt lat="36.3633249" lon="9.9044103"><ele>184.33333333333331</ele><time>2026-04-24T14:25:39.137Z</time></trkpt><trkpt lat="36.3632654" lon="9.904467"><ele>184.66666666666666</ele><time>2026-04-24T14:25:40.135Z</time></trkpt><trkpt lat="36.3632109" lon="9.9045213"><ele>185.0</ele><time>2026-04-24T14:25:41.137Z</time></trkpt><trkpt lat="36.3631565" lon="9.9045797"><ele>185.0</ele><time>2026-04-24T14:25:42.137Z</time></trkpt><trkpt lat="36.3631022" lon="9.9046372"><ele>185.0</ele><time>2026-04-24T14:25:43.138Z</time></trkpt><trkpt lat="36.3630468" lon="9.9046963"><ele>185.0</ele><time>2026-04-24T14:25:44.13Z</time></trkpt><trkpt lat="36.3629942" lon="9.9047472"><ele>185.0</ele><time>2026-04-24T14:25:45.117Z</time></trkpt><trkpt lat="36.3629447" lon="9.9047966"><ele>185.0</ele><time>2026-04-24T14:25:46.111Z</time></trkpt><trkpt lat="36.3628613" lon="9.9048776"><ele>185.0</ele><time>2026-04-24T14:25:48.108Z</time></trkpt><trkpt lat="36.3627885" lon="9.9049613"><ele>185.16666666666666</ele><time>2026-04-24T14:25:50.134Z</time></trkpt><trkpt lat="36.36271" lon="9.9050565"><ele>185.33333333333331</ele><time>2026-04-24T14:25:52.138Z</time></trkpt><trkpt lat="36.3626566" lon="9.9051212"><ele>185.5</ele><time>2026-04-24T14:25:53.116Z</time></trkpt><trkpt lat="36.3625936" lon="9.905198"><ele>185.66666666666666</ele><time>2026-04-24T14:25:54.162Z</time></trkpt><trkpt lat="36.3625317" lon="9.9052669"><ele>185.83333333333334</ele><time>2026-04-24T14:25:55.119Z</time></trkpt><trkpt lat="36.3624746" lon="9.905327"><ele>186.0</ele><time>2026-04-24T14:25:56.148Z</time></trkpt><trkpt lat="36.3624162" lon="9.9053867"><ele>186.0</ele><time>2026-04-24T14:25:57.128Z</time></trkpt><trkpt lat="36.3623671" lon="9.9054442"><ele>186.0</ele><time>2026-04-24T14:25:58.14Z</time></trkpt><trkpt lat="36.3622796" lon="9.9055414"><ele>186.0</ele><time>2026-04-24T14:26:00.137Z</time></trkpt><trkpt lat="36.3621933" lon="9.9056427"><ele>186.0</ele><time>2026-04-24T14:26:02.146Z</time></trkpt><trkpt lat="36.3621146" lon="9.9057308"><ele>186.0</ele><time>2026-04-24T14:26:04.137Z</time></trkpt><trkpt lat="36.3620385" lon="9.9058105"><ele>185.83333333333334</ele><time>2026-04-24T14:26:06.151Z</time></trkpt><trkpt lat="36.3619699" lon="9.905878"><ele>185.66666666666666</ele><time>2026-04-24T14:26:08.123Z</time></trkpt><trkpt lat="36.3619155" lon="9.9059362"><ele>185.5</ele><time>2026-04-24T14:26:10.14Z</time></trkpt><trkpt lat="36.3618603" lon="9.9059959"><ele>185.33333333333331</ele><time>2026-04-24T14:26:12.143Z</time></trkpt><trkpt lat="36.3617925" lon="9.9060584"><ele>185.16666666666666</ele><time>2026-04-24T14:26:14.123Z</time></trkpt><trkpt lat="36.3617214" lon="9.9061455"><ele>185.0</ele><time>2026-04-24T14:26:16.131Z</time></trkpt><trkpt lat="36.3616424" lon="9.9062335"><ele>185.4</ele><time>2026-04-24T14:26:18.136Z</time></trkpt><trkpt lat="36.3615669" lon="9.9063097"><ele>185.8</ele><time>2026-04-24T14:26:20.138Z</time></trkpt><trkpt lat="36.3614787" lon="9.9063818"><ele>186.2</ele><time>2026-04-24T14:26:22.145Z</time></trkpt><trkpt lat="36.3613958" lon="9.9064608"><ele>186.6</ele><time>2026-04-24T14:26:24.13Z</time></trkpt><trkpt lat="36.3613071" lon="9.906535"><ele>187.0</ele><time>2026-04-24T14:26:26.14Z</time></trkpt><trkpt lat="36.3612334" lon="9.9066154"><ele>187.16666666666669</ele><time>2026-04-24T14:26:28.134Z</time></trkpt><trkpt lat="36.3611713" lon="9.9066894"><ele>187.33333333333334</ele><time>2026-04-24T14:26:30.142Z</time></trkpt><trkpt lat="36.3611076" lon="9.9067668"><ele>187.5</ele><time>2026-04-24T14:26:33.134Z</time></trkpt><trkpt lat="36.3610584" lon="9.9068172"><ele>187.66666666666666</ele><time>2026-04-24T14:26:35.139Z</time></trkpt><trkpt lat="36.3609882" lon="9.9068768"><ele>187.83333333333331</ele><time>2026-04-24T14:26:38.141Z</time></trkpt><trkpt lat="36.3609139" lon="9.9069559"><ele>188.0</ele><time>2026-04-24T14:26:41.133Z</time></trkpt><trkpt lat="36.360855" lon="9.9070197"><ele>187.83333333333331</ele><time>2026-04-24T14:26:43.134Z</time></trkpt><trkpt lat="36.360801" lon="9.9070734"><ele>187.66666666666666</ele><time>2026-04-24T14:26:45.135Z</time></trkpt><trkpt lat="36.3607541" lon="9.90713"><ele>187.5</ele><time>2026-04-24T14:26:47.134Z</time></trkpt><trkpt lat="36.3606768" lon="9.9072039"><ele>187.33333333333334</ele><time>2026-04-24T14:26:50.142Z</time></trkpt><trkpt lat="36.3606226" lon="9.9072595"><ele>187.16666666666669</ele><time>2026-04-24T14:26:52.114Z</time></trkpt><trkpt lat="36.3605673" lon="9.9073331"><ele>187.0</ele><time>2026-04-24T14:26:54.146Z</time></trkpt><trkpt lat="36.3605051" lon="9.9073924"><ele>187.0</ele><time>2026-04-24T14:26:56.129Z</time></trkpt><trkpt lat="36.3604532" lon="9.9074494"><ele>187.0</ele><time>2026-04-24T14:26:58.152Z</time></trkpt><trkpt lat="36.3604006" lon="9.9075058"><ele>187.0</ele><time>2026-04-24T14:27:00.126Z</time></trkpt><trkpt lat="36.3603488" lon="9.9075567"><ele>187.0</ele><time>2026-04-24T14:27:02.147Z</time></trkpt><trkpt lat="36.3602967" lon="9.9076204"><ele>187.0</ele><time>2026-04-24T14:27:04.15Z</time></trkpt><trkpt lat="36.3602414" lon="9.9076827"><ele>187.0</ele><time>2026-04-24T14:27:06.13Z</time></trkpt><trkpt lat="36.3601839" lon="9.9077332"><ele>187.0</ele><time>2026-04-24T14:27:08.158Z</time></trkpt><trkpt lat="36.3601308" lon="9.9077967"><ele>187.16666666666669</ele><time>2026-04-24T14:27:11.148Z</time></trkpt><trkpt lat="36.3600723" lon="9.9078576"><ele>187.33333333333334</ele><time>2026-04-24T14:27:15.132Z</time></trkpt><trkpt lat="36.3600133" lon="9.9079236"><ele>187.5</ele><time>2026-04-24T14:27:18.132Z</time></trkpt><trkpt lat="36.3599625" lon="9.9079733"><ele>187.66666666666666</ele><time>2026-04-24T14:27:20.163Z</time></trkpt><trkpt lat="36.3598881" lon="9.9080584"><ele>187.83333333333331</ele><time>2026-04-24T14:27:23.129Z</time></trkpt><trkpt lat="36.3598323" lon="9.9081255"><ele>188.0</ele><time>2026-04-24T14:27:25.127Z</time></trkpt><trkpt lat="36.3597684" lon="9.9081862"><ele>188.0</ele><time>2026-04-24T14:27:27.129Z</time></trkpt><trkpt lat="36.3597143" lon="9.9082482"><ele>188.0</ele><time>2026-04-24T14:27:29.132Z</time></trkpt><trkpt lat="36.3596692" lon="9.9083029"><ele>188.0</ele><time>2026-04-24T14:27:31.136Z</time></trkpt><trkpt lat="36.3596118" lon="9.9083585"><ele>188.0</ele><time>2026-04-24T14:27:36.12Z</time></trkpt><trkpt lat="36.3595297" lon="9.9084112"><ele>188.0</ele><time>2026-04-24T14:27:39.127Z</time></trkpt><trkpt lat="36.3594413" lon="9.9085017"><ele>188.0</ele><time>2026-04-24T14:27:41.141Z</time></trkpt><trkpt lat="36.3593692" lon="9.9085747"><ele>187.83333333333331</ele><time>2026-04-24T14:27:43.128Z</time></trkpt><trkpt lat="36.3592912" lon="9.9086575"><ele>187.66666666666666</ele><time>2026-04-24T14:27:45.149Z</time></trkpt><trkpt lat="36.3592219" lon="9.9087363"><ele>187.5</ele><time>2026-04-24T14:27:47.139Z</time></trkpt><trkpt lat="36.359164" lon="9.908803"><ele>187.33333333333334</ele><time>2026-04-24T14:27:49.131Z</time></trkpt><trkpt lat="36.3590958" lon="9.9088711"><ele>187.16666666666669</ele><time>2026-04-24T14:27:51.122Z</time></trkpt><trkpt lat="36.3590324" lon="9.9089357"><ele>187.0</ele><time>2026-04-24T14:27:53.136Z</time></trkpt><trkpt lat="36.3589708" lon="9.9089966"><ele>187.0</ele><time>2026-04-24T14:27:55.139Z</time></trkpt><trkpt lat="36.3589077" lon="9.9090685"><ele>187.0</ele><time>2026-04-24T14:27:57.135Z</time></trkpt><trkpt lat="36.3588505" lon="9.9091443"><ele>187.0</ele><time>2026-04-24T14:27:59.137Z</time></trkpt><trkpt lat="36.3587892" lon="9.9092096"><ele>187.0</ele><time>2026-04-24T14:28:01.131Z</time></trkpt><trkpt lat="36.358728" lon="9.909266"><ele>187.0</ele><time>2026-04-24T14:28:04.155Z</time></trkpt><trkpt lat="36.35869" lon="9.9093303"><ele>187.0</ele><time>2026-04-24T14:28:12.132Z</time></trkpt><trkpt lat="36.3586363" lon="9.9093999"><ele>186.83333333333334</ele><time>2026-04-24T14:28:16.131Z</time></trkpt><trkpt lat="36.3585852" lon="9.9094693"><ele>186.66666666666669</ele><time>2026-04-24T14:28:19.141Z</time></trkpt><trkpt lat="36.35853" lon="9.9095223"><ele>186.5</ele><time>2026-04-24T14:28:21.135Z</time></trkpt><trkpt lat="36.3584686" lon="9.9095747"><ele>186.33333333333334</ele><time>2026-04-24T14:28:23.148Z</time></trkpt><trkpt lat="36.358403" lon="9.9096458"><ele>186.16666666666666</ele><time>2026-04-24T14:28:25.146Z</time></trkpt><trkpt lat="36.3583432" lon="9.9097184"><ele>186.0</ele><time>2026-04-24T14:28:27.125Z</time></trkpt><trkpt lat="36.35828" lon="9.9097957"><ele>186.0</ele><time>2026-04-24T14:28:29.126Z</time></trkpt><trkpt lat="36.3581945" lon="9.9098634"><ele>186.0</ele><time>2026-04-24T14:28:31.131Z</time></trkpt><trkpt lat="36.3581181" lon="9.9099164"><ele>186.0</ele><time>2026-04-24T14:28:33.145Z</time></trkpt><trkpt lat="36.3580487" lon="9.9099801"><ele>186.0</ele><time>2026-04-24T14:28:35.137Z</time></trkpt><trkpt lat="36.3579939" lon="9.9100498"><ele>186.0</ele><time>2026-04-24T14:28:37.136Z</time></trkpt><trkpt lat="36.3579414" lon="9.9101308"><ele>186.0</ele><time>2026-04-24T14:28:39.131Z</time></trkpt><trkpt lat="36.3578825" lon="9.9101959"><ele>186.33333333333334</ele><time>2026-04-24T14:28:41.138Z</time></trkpt><trkpt lat="36.3578211" lon="9.9102556"><ele>186.66666666666666</ele><time>2026-04-24T14:28:43.136Z</time></trkpt><trkpt lat="36.3577635" lon="9.9103218"><ele>187.0</ele><time>2026-04-24T14:28:45.136Z</time></trkpt><trkpt lat="36.3577068" lon="9.9103844"><ele>187.33333333333331</ele><time>2026-04-24T14:28:47.133Z</time></trkpt><trkpt lat="36.3576368" lon="9.9104529"><ele>187.66666666666666</ele><time>2026-04-24T14:28:49.125Z</time></trkpt><trkpt lat="36.3575714" lon="9.9105148"><ele>188.0</ele><time>2026-04-24T14:28:51.147Z</time></trkpt><trkpt lat="36.3574999" lon="9.9105997"><ele>188.0</ele><time>2026-04-24T14:28:53.134Z</time></trkpt><trkpt lat="36.3574246" lon="9.9106994"><ele>188.0</ele><time>2026-04-24T14:28:55.172Z</time></trkpt><trkpt lat="36.3573307" lon="9.9108006"><ele>188.0</ele><time>2026-04-24T14:28:57.136Z</time></trkpt><trkpt lat="36.3572401" lon="9.9108996"><ele>188.0</ele><time>2026-04-24T14:28:59.11Z</time></trkpt><trkpt lat="36.3571921" lon="9.9109507"><ele>188.0</ele><time>2026-04-24T14:29:00.114Z</time></trkpt><trkpt lat="36.3571383" lon="9.9110035"><ele>188.33333333333331</ele><time>2026-04-24T14:29:01.122Z</time></trkpt><trkpt lat="36.3570866" lon="9.9110566"><ele>188.66666666666666</ele><time>2026-04-24T14:29:02.115Z</time></trkpt><trkpt lat="36.3570333" lon="9.9111093"><ele>189.0</ele><time>2026-04-24T14:29:03.123Z</time></trkpt><trkpt lat="36.3569853" lon="9.9111652"><ele>189.33333333333334</ele><time>2026-04-24T14:29:04.13Z</time></trkpt><trkpt lat="36.3569341" lon="9.9112166"><ele>189.66666666666669</ele><time>2026-04-24T14:29:05.139Z</time></trkpt><trkpt lat="36.3568429" lon="9.9113225"><ele>190.0</ele><time>2026-04-24T14:29:07.122Z</time></trkpt><trkpt lat="36.3567907" lon="9.9113739"><ele>190.0</ele><time>2026-04-24T14:29:08.159Z</time></trkpt><trkpt lat="36.3567358" lon="9.9114301"><ele>190.0</ele><time>2026-04-24T14:29:09.138Z</time></trkpt><trkpt lat="36.3566839" lon="9.9114852"><ele>190.0</ele><time>2026-04-24T14:29:10.14Z</time></trkpt><trkpt lat="36.3566338" lon="9.9115449"><ele>190.0</ele><time>2026-04-24T14:29:11.14Z</time></trkpt><trkpt lat="36.3565361" lon="9.9116456"><ele>190.0</ele><time>2026-04-24T14:29:13.13Z</time></trkpt><trkpt lat="36.3564856" lon="9.911694"><ele>190.0</ele><time>2026-04-24T14:29:14.138Z</time></trkpt><trkpt lat="36.3564356" lon="9.9117511"><ele>190.0</ele><time>2026-04-24T14:29:15.148Z</time></trkpt><trkpt lat="36.3563881" lon="9.911804"><ele>190.0</ele><time>2026-04-24T14:29:16.148Z</time></trkpt><trkpt lat="36.3563348" lon="9.9118565"><ele>190.0</ele><time>2026-04-24T14:29:17.14Z</time></trkpt><trkpt lat="36.3562861" lon="9.9119077"><ele>190.0</ele><time>2026-04-24T14:29:18.148Z</time></trkpt><trkpt lat="36.3561895" lon="9.9120082"><ele>190.0</ele><time>2026-04-24T14:29:20.118Z</time></trkpt><trkpt lat="36.3561407" lon="9.9120596"><ele>190.0</ele><time>2026-04-24T14:29:21.155Z</time></trkpt><trkpt lat="36.3560907" lon="9.912118"><ele>190.0</ele><time>2026-04-24T14:29:22.136Z</time></trkpt><trkpt lat="36.3560434" lon="9.9121809"><ele>190.0</ele><time>2026-04-24T14:29:23.122Z</time></trkpt><trkpt lat="36.3559894" lon="9.9122445"><ele>190.0</ele><time>2026-04-24T14:29:24.139Z</time></trkpt><trkpt lat="36.35593" lon="9.9123213"><ele>190.0</ele><time>2026-04-24T14:29:25.146Z</time></trkpt><trkpt lat="36.3558453" lon="9.9124226"><ele>190.0</ele><time>2026-04-24T14:29:26.135Z</time></trkpt><trkpt lat="36.3557525" lon="9.9125365"><ele>190.5</ele><time>2026-04-24T14:29:27.131Z</time></trkpt><trkpt lat="36.3556495" lon="9.9126493"><ele>191.0</ele><time>2026-04-24T14:29:28.146Z</time></trkpt><trkpt lat="36.3555356" lon="9.9127678"><ele>191.5</ele><time>2026-04-24T14:29:29.138Z</time></trkpt><trkpt lat="36.355411" lon="9.9128808"><ele>192.0</ele><time>2026-04-24T14:29:30.148Z</time></trkpt><trkpt lat="36.3552908" lon="9.9129899"><ele>192.0</ele><time>2026-04-24T14:29:31.132Z</time></trkpt><trkpt lat="36.3551831" lon="9.9130892"><ele>192.0</ele><time>2026-04-24T14:29:32.125Z</time></trkpt><trkpt lat="36.3550908" lon="9.913188"><ele>192.0</ele><time>2026-04-24T14:29:33.149Z</time></trkpt><trkpt lat="36.355011" lon="9.9132853"><ele>192.0</ele><time>2026-04-24T14:29:34.13Z</time></trkpt><trkpt lat="36.3549359" lon="9.9133691"><ele>192.2</ele><time>2026-04-24T14:29:35.138Z</time></trkpt><trkpt lat="36.3548626" lon="9.9134494"><ele>192.39999999999998</ele><time>2026-04-24T14:29:36.136Z</time></trkpt><trkpt lat="36.3547972" lon="9.9135115"><ele>192.60000000000002</ele><time>2026-04-24T14:29:37.139Z</time></trkpt><trkpt lat="36.3547302" lon="9.9135742"><ele>192.8</ele><time>2026-04-24T14:29:38.141Z</time></trkpt><trkpt lat="36.3546567" lon="9.9136416"><ele>193.0</ele><time>2026-04-24T14:29:39.139Z</time></trkpt><trkpt lat="36.3545729" lon="9.9137326"><ele>192.5</ele><time>2026-04-24T14:29:40.141Z</time></trkpt><trkpt lat="36.3544853" lon="9.9138443"><ele>192.0</ele><time>2026-04-24T14:29:41.142Z</time></trkpt><trkpt lat="36.3543984" lon="9.9139694"><ele>191.5</ele><time>2026-04-24T14:29:42.152Z</time></trkpt><trkpt lat="36.3543136" lon="9.9141208"><ele>191.0</ele><time>2026-04-24T14:29:43.136Z</time></trkpt><trkpt lat="36.3542249" lon="9.9142733"><ele>190.5</ele><time>2026-04-24T14:29:44.151Z</time></trkpt><trkpt lat="36.3541421" lon="9.9144229"><ele>190.0</ele><time>2026-04-24T14:29:45.15Z</time></trkpt><trkpt lat="36.3540616" lon="9.9145778"><ele>189.5</ele><time>2026-04-24T14:29:46.144Z</time></trkpt><trkpt lat="36.35398" lon="9.9147219"><ele>189.0</ele><time>2026-04-24T14:29:47.137Z</time></trkpt><trkpt lat="36.353895" lon="9.9148547"><ele>188.75</ele><time>2026-04-24T14:29:48.131Z</time></trkpt><trkpt lat="36.3538157" lon="9.9149943"><ele>188.5</ele><time>2026-04-24T14:29:49.142Z</time></trkpt><trkpt lat="36.3537341" lon="9.9151411"><ele>188.25</ele><time>2026-04-24T14:29:50.147Z</time></trkpt><trkpt lat="36.3536482" lon="9.915288"><ele>188.0</ele><time>2026-04-24T14:29:51.143Z</time></trkpt><trkpt lat="36.3535572" lon="9.9154388"><ele>188.5</ele><time>2026-04-24T14:29:52.134Z</time></trkpt><trkpt lat="36.3534726" lon="9.9155842"><ele>189.0</ele><time>2026-04-24T14:29:53.123Z</time></trkpt><trkpt lat="36.35339" lon="9.9157263"><ele>189.5</ele><time>2026-04-24T14:29:54.131Z</time></trkpt><trkpt lat="36.3533148" lon="9.9158634"><ele>190.0</ele><time>2026-04-24T14:29:55.149Z</time></trkpt><trkpt lat="36.353241" lon="9.9159985"><ele>190.25</ele><time>2026-04-24T14:29:56.131Z</time></trkpt><trkpt lat="36.3531699" lon="9.9161329"><ele>190.5</ele><time>2026-04-24T14:29:57.145Z</time></trkpt><trkpt lat="36.3530962" lon="9.9162722"><ele>190.75</ele><time>2026-04-24T14:29:58.118Z</time></trkpt><trkpt lat="36.3530205" lon="9.9164178"><ele>191.0</ele><time>2026-04-24T14:29:59.139Z</time></trkpt><trkpt lat="36.352946" lon="9.9165577"><ele>191.0</ele><time>2026-04-24T14:30:00.131Z</time></trkpt><trkpt lat="36.35287" lon="9.9166938"><ele>191.0</ele><time>2026-04-24T14:30:01.14Z</time></trkpt><trkpt lat="36.3527949" lon="9.9168306"><ele>191.0</ele><time>2026-04-24T14:30:02.138Z</time></trkpt><trkpt lat="36.3527212" lon="9.916971"><ele>191.0</ele><time>2026-04-24T14:30:03.141Z</time></trkpt><trkpt lat="36.3526443" lon="9.9171111"><ele>191.0</ele><time>2026-04-24T14:30:04.142Z</time></trkpt><trkpt lat="36.3525705" lon="9.9172546"><ele>191.0</ele><time>2026-04-24T14:30:05.144Z</time></trkpt><trkpt lat="36.3524952" lon="9.9173952"><ele>191.0</ele><time>2026-04-24T14:30:06.131Z</time></trkpt><trkpt lat="36.3524187" lon="9.9175333"><ele>191.0</ele><time>2026-04-24T14:30:07.142Z</time></trkpt><trkpt lat="36.3523379" lon="9.9176722"><ele>191.25</ele><time>2026-04-24T14:30:08.139Z</time></trkpt><trkpt lat="36.352254" lon="9.9178164"><ele>191.5</ele><time>2026-04-24T14:30:09.134Z</time></trkpt><trkpt lat="36.3521745" lon="9.9179747"><ele>191.75</ele><time>2026-04-24T14:30:10.142Z</time></trkpt><trkpt lat="36.3520869" lon="9.9181331"><ele>192.0</ele><time>2026-04-24T14:30:11.139Z</time></trkpt><trkpt lat="36.3519994" lon="9.918284"><ele>192.0</ele><time>2026-04-24T14:30:12.122Z</time></trkpt><trkpt lat="36.3518978" lon="9.9184284"><ele>192.0</ele><time>2026-04-24T14:30:13.135Z</time></trkpt><trkpt lat="36.3517979" lon="9.9185708"><ele>192.0</ele><time>2026-04-24T14:30:14.13Z</time></trkpt><trkpt lat="36.3517005" lon="9.9187141"><ele>192.0</ele><time>2026-04-24T14:30:15.135Z</time></trkpt><trkpt lat="36.3516036" lon="9.9188489"><ele>192.0</ele><time>2026-04-24T14:30:16.143Z</time></trkpt><trkpt lat="36.3515" lon="9.9189768"><ele>192.0</ele><time>2026-04-24T14:30:17.132Z</time></trkpt><trkpt lat="36.3513951" lon="9.9191084"><ele>192.0</ele><time>2026-04-24T14:30:18.148Z</time></trkpt><trkpt lat="36.3512853" lon="9.9192383"><ele>192.0</ele><time>2026-04-24T14:30:19.139Z</time></trkpt><trkpt lat="36.3511796" lon="9.9193662"><ele>192.0</ele><time>2026-04-24T14:30:20.139Z</time></trkpt><trkpt lat="36.3510752" lon="9.9194973"><ele>192.0</ele><time>2026-04-24T14:30:21.13Z</time></trkpt><trkpt lat="36.3509689" lon="9.9196287"><ele>192.0</ele><time>2026-04-24T14:30:22.129Z</time></trkpt><trkpt lat="36.3508651" lon="9.9197597"><ele>192.0</ele><time>2026-04-24T14:30:23.142Z</time></trkpt><trkpt lat="36.3507569" lon="9.9198908"><ele>192.0</ele><time>2026-04-24T14:30:24.147Z</time></trkpt><trkpt lat="36.3506528" lon="9.9200224"><ele>192.0</ele><time>2026-04-24T14:30:25.149Z</time></trkpt><trkpt lat="36.350547" lon="9.9201521"><ele>192.0</ele><time>2026-04-24T14:30:26.122Z</time></trkpt><trkpt lat="36.3504454" lon="9.9202868"><ele>191.75</ele><time>2026-04-24T14:30:27.134Z</time></trkpt><trkpt lat="36.3503416" lon="9.9204145"><ele>191.5</ele><time>2026-04-24T14:30:28.154Z</time></trkpt><trkpt lat="36.3502422" lon="9.9205372"><ele>191.25</ele><time>2026-04-24T14:30:29.131Z</time></trkpt><trkpt lat="36.3501439" lon="9.9206614"><ele>191.0</ele><time>2026-04-24T14:30:30.113Z</time></trkpt><trkpt lat="36.3500426" lon="9.9207856"><ele>191.75</ele><time>2026-04-24T14:30:31.138Z</time></trkpt><trkpt lat="36.3499408" lon="9.9209131"><ele>192.5</ele><time>2026-04-24T14:30:32.14Z</time></trkpt><trkpt lat="36.3498458" lon="9.9210384"><ele>193.25</ele><time>2026-04-24T14:30:33.128Z</time></trkpt><trkpt lat="36.3497511" lon="9.9211591"><ele>194.0</ele><time>2026-04-24T14:30:34.14Z</time></trkpt><trkpt lat="36.3496532" lon="9.9212772"><ele>194.25</ele><time>2026-04-24T14:30:35.147Z</time></trkpt><trkpt lat="36.3495559" lon="9.9213962"><ele>194.5</ele><time>2026-04-24T14:30:36.138Z</time></trkpt><trkpt lat="36.3494617" lon="9.9215163"><ele>194.75</ele><time>2026-04-24T14:30:37.139Z</time></trkpt><trkpt lat="36.3493657" lon="9.9216372"><ele>195.0</ele><time>2026-04-24T14:30:38.151Z</time></trkpt><trkpt lat="36.3492648" lon="9.92176"><ele>195.0</ele><time>2026-04-24T14:30:39.138Z</time></trkpt><trkpt lat="36.3491608" lon="9.9218842"><ele>195.0</ele><time>2026-04-24T14:30:40.128Z</time></trkpt><trkpt lat="36.3490601" lon="9.922004"><ele>195.0</ele><time>2026-04-24T14:30:41.134Z</time></trkpt><trkpt lat="36.3489585" lon="9.9221283"><ele>195.0</ele><time>2026-04-24T14:30:42.143Z</time></trkpt><trkpt lat="36.3488559" lon="9.9222559"><ele>195.33333333333331</ele><time>2026-04-24T14:30:43.136Z</time></trkpt><trkpt lat="36.3487472" lon="9.9223834"><ele>195.66666666666666</ele><time>2026-04-24T14:30:44.123Z</time></trkpt><trkpt lat="36.3486346" lon="9.9225106"><ele>196.0</ele><time>2026-04-24T14:30:45.14Z</time></trkpt><trkpt lat="36.3485296" lon="9.9226427"><ele>196.0</ele><time>2026-04-24T14:30:46.138Z</time></trkpt><trkpt lat="36.3484215" lon="9.9227764"><ele>196.0</ele><time>2026-04-24T14:30:47.13Z</time></trkpt><trkpt lat="36.3483164" lon="9.9229094"><ele>196.0</ele><time>2026-04-24T14:30:48.124Z</time></trkpt><trkpt lat="36.348213" lon="9.9230466"><ele>196.0</ele><time>2026-04-24T14:30:49.135Z</time></trkpt><trkpt lat="36.3481122" lon="9.9231807"><ele>196.0</ele><time>2026-04-24T14:30:50.127Z</time></trkpt><trkpt lat="36.3480136" lon="9.9233284"><ele>196.0</ele><time>2026-04-24T14:30:51.143Z</time></trkpt><trkpt lat="36.3479166" lon="9.9234865"><ele>196.33333333333331</ele><time>2026-04-24T14:30:52.127Z</time></trkpt><trkpt lat="36.3478205" lon="9.923644"><ele>196.66666666666669</ele><time>2026-04-24T14:30:53.141Z</time></trkpt><trkpt lat="36.3477258" lon="9.9237949"><ele>197.0</ele><time>2026-04-24T14:30:54.146Z</time></trkpt><trkpt lat="36.3476358" lon="9.92395"><ele>197.0</ele><time>2026-04-24T14:30:55.15Z</time></trkpt><trkpt lat="36.347544" lon="9.9241078"><ele>197.0</ele><time>2026-04-24T14:30:56.141Z</time></trkpt><trkpt lat="36.3474544" lon="9.9242635"><ele>197.0</ele><time>2026-04-24T14:30:57.118Z</time></trkpt><trkpt lat="36.3473673" lon="9.9244219"><ele>197.0</ele><time>2026-04-24T14:30:58.123Z</time></trkpt><trkpt lat="36.3472789" lon="9.9245774"><ele>197.0</ele><time>2026-04-24T14:30:59.138Z</time></trkpt><trkpt lat="36.3471886" lon="9.9247377"><ele>197.0</ele><time>2026-04-24T14:31:00.124Z</time></trkpt><trkpt lat="36.3470941" lon="9.9248991"><ele>197.0</ele><time>2026-04-24T14:31:01.123Z</time></trkpt><trkpt lat="36.3469962" lon="9.9250604"><ele>197.0</ele><time>2026-04-24T14:31:02.142Z</time></trkpt><trkpt lat="36.3469015" lon="9.9252137"><ele>197.0</ele><time>2026-04-24T14:31:03.143Z</time></trkpt><trkpt lat="36.3468043" lon="9.9253748"><ele>197.33333333333334</ele><time>2026-04-24T14:31:04.14Z</time></trkpt><trkpt lat="36.3466991" lon="9.9255347"><ele>197.66666666666669</ele><time>2026-04-24T14:31:05.131Z</time></trkpt><trkpt lat="36.3465859" lon="9.925689"><ele>198.0</ele><time>2026-04-24T14:31:06.124Z</time></trkpt><trkpt lat="36.3464709" lon="9.9258377"><ele>197.66666666666669</ele><time>2026-04-24T14:31:07.145Z</time></trkpt><trkpt lat="36.3463527" lon="9.9259839"><ele>197.33333333333334</ele><time>2026-04-24T14:31:08.131Z</time></trkpt><trkpt lat="36.3462336" lon="9.9261247"><ele>197.0</ele><time>2026-04-24T14:31:09.134Z</time></trkpt><trkpt lat="36.3461147" lon="9.9262606"><ele>197.0</ele><time>2026-04-24T14:31:10.13Z</time></trkpt><trkpt lat="36.3459972" lon="9.9263972"><ele>197.0</ele><time>2026-04-24T14:31:11.118Z</time></trkpt><trkpt lat="36.345881" lon="9.9265294"><ele>197.0</ele><time>2026-04-24T14:31:12.146Z</time></trkpt><trkpt lat="36.3457716" lon="9.9266692"><ele>197.33333333333334</ele><time>2026-04-24T14:31:13.137Z</time></trkpt><trkpt lat="36.3456528" lon="9.9268065"><ele>197.66666666666669</ele><time>2026-04-24T14:31:14.13Z</time></trkpt><trkpt lat="36.3455391" lon="9.9269361"><ele>198.0</ele><time>2026-04-24T14:31:15.117Z</time></trkpt><trkpt lat="36.3454385" lon="9.92705"><ele>198.0</ele><time>2026-04-24T14:31:16.132Z</time></trkpt><trkpt lat="36.3453512" lon="9.9271515"><ele>198.0</ele><time>2026-04-24T14:31:17.141Z</time></trkpt><trkpt lat="36.3452743" lon="9.9272439"><ele>198.0</ele><time>2026-04-24T14:31:18.146Z</time></trkpt><trkpt lat="36.3451986" lon="9.9273286"><ele>198.0</ele><time>2026-04-24T14:31:19.132Z</time></trkpt><trkpt lat="36.3451236" lon="9.927412"><ele>198.0</ele><time>2026-04-24T14:31:20.13Z</time></trkpt><trkpt lat="36.3450427" lon="9.9275029"><ele>197.75</ele><time>2026-04-24T14:31:21.14Z</time></trkpt><trkpt lat="36.3449615" lon="9.9275981"><ele>197.5</ele><time>2026-04-24T14:31:22.147Z</time></trkpt><trkpt lat="36.3448782" lon="9.9277016"><ele>197.25</ele><time>2026-04-24T14:31:23.133Z</time></trkpt><trkpt lat="36.3447922" lon="9.9278031"><ele>197.0</ele><time>2026-04-24T14:31:24.143Z</time></trkpt><trkpt lat="36.3447027" lon="9.9279076"><ele>197.0</ele><time>2026-04-24T14:31:25.137Z</time></trkpt><trkpt lat="36.3446116" lon="9.9280196"><ele>197.0</ele><time>2026-04-24T14:31:26.135Z</time></trkpt><trkpt lat="36.3445163" lon="9.9281288"><ele>197.0</ele><time>2026-04-24T14:31:27.138Z</time></trkpt><trkpt lat="36.3444249" lon="9.9282325"><ele>197.0</ele><time>2026-04-24T14:31:28.142Z</time></trkpt><trkpt lat="36.3443304" lon="9.9283386"><ele>197.5</ele><time>2026-04-24T14:31:29.138Z</time></trkpt><trkpt lat="36.3442393" lon="9.9284473"><ele>198.0</ele><time>2026-04-24T14:31:30.121Z</time></trkpt><trkpt lat="36.3441524" lon="9.9285557"><ele>198.5</ele><time>2026-04-24T14:31:31.13Z</time></trkpt><trkpt lat="36.3440683" lon="9.9286544"><ele>199.0</ele><time>2026-04-24T14:31:32.134Z</time></trkpt><trkpt lat="36.3439832" lon="9.9287547"><ele>199.0</ele><time>2026-04-24T14:31:33.127Z</time></trkpt><trkpt lat="36.3438982" lon="9.9288586"><ele>199.0</ele><time>2026-04-24T14:31:34.123Z</time></trkpt><trkpt lat="36.3438142" lon="9.9289585"><ele>199.0</ele><time>2026-04-24T14:31:35.147Z</time></trkpt><trkpt lat="36.3437285" lon="9.9290622"><ele>199.0</ele><time>2026-04-24T14:31:36.12Z</time></trkpt><trkpt lat="36.3436426" lon="9.9291655"><ele>199.0</ele><time>2026-04-24T14:31:37.146Z</time></trkpt><trkpt lat="36.34356" lon="9.9292702"><ele>199.0</ele><time>2026-04-24T14:31:38.134Z</time></trkpt><trkpt lat="36.3434747" lon="9.9293757"><ele>199.0</ele><time>2026-04-24T14:31:39.124Z</time></trkpt><trkpt lat="36.3433824" lon="9.9294855"><ele>199.0</ele><time>2026-04-24T14:31:40.131Z</time></trkpt><trkpt lat="36.3432931" lon="9.9295944"><ele>199.0</ele><time>2026-04-24T14:31:41.14Z</time></trkpt><trkpt lat="36.3431986" lon="9.9297017"><ele>199.0</ele><time>2026-04-24T14:31:42.14Z</time></trkpt><trkpt lat="36.3431042" lon="9.9298098"><ele>199.0</ele><time>2026-04-24T14:31:43.131Z</time></trkpt><trkpt lat="36.3430114" lon="9.9299243"><ele>199.0</ele><time>2026-04-24T14:31:44.125Z</time></trkpt><trkpt lat="36.3429052" lon="9.9300463"><ele>199.25</ele><time>2026-04-24T14:31:45.127Z</time></trkpt><trkpt lat="36.3427974" lon="9.9301599"><ele>199.5</ele><time>2026-04-24T14:31:46.127Z</time></trkpt><trkpt lat="36.3426956" lon="9.9302814"><ele>199.75</ele><time>2026-04-24T14:31:47.132Z</time></trkpt><trkpt lat="36.3426107" lon="9.9303889"><ele>200.0</ele><time>2026-04-24T14:31:48.113Z</time></trkpt><trkpt lat="36.3425408" lon="9.9304819"><ele>200.00000000000003</ele><time>2026-04-24T14:31:49.123Z</time></trkpt><trkpt lat="36.3424837" lon="9.9305578"><ele>200.0</ele><time>2026-04-24T14:31:50.142Z</time></trkpt><trkpt lat="36.3424336" lon="9.9306179"><ele>200.0</ele><time>2026-04-24T14:31:51.132Z</time></trkpt><trkpt lat="36.3423639" lon="9.9306884"><ele>200.0</ele><time>2026-04-24T14:31:53.116Z</time></trkpt><trkpt lat="36.3422981" lon="9.9307415"><ele>200.00000000000003</ele><time>2026-04-24T14:31:56.136Z</time></trkpt><trkpt lat="36.3422427" lon="9.9308411"><ele>200.0</ele><time>2026-04-24T14:33:24.128Z</time></trkpt><trkpt lat="36.3421727" lon="9.9309471"><ele>199.8</ele><time>2026-04-24T14:33:26.131Z</time></trkpt><trkpt lat="36.3421111" lon="9.9310648"><ele>199.6</ele><time>2026-04-24T14:33:28.132Z</time></trkpt><trkpt lat="36.3420726" lon="9.9311445"><ele>199.39999999999998</ele><time>2026-04-24T14:33:29.12Z</time></trkpt><trkpt lat="36.3420113" lon="9.9312336"><ele>199.2</ele><time>2026-04-24T14:33:30.136Z</time></trkpt><trkpt lat="36.3419397" lon="9.9313363"><ele>199.0</ele><time>2026-04-24T14:33:31.126Z</time></trkpt><trkpt lat="36.3418704" lon="9.9314441"><ele>199.0</ele><time>2026-04-24T14:33:32.129Z</time></trkpt><trkpt lat="36.341796" lon="9.9315518"><ele>199.0</ele><time>2026-04-24T14:33:33.131Z</time></trkpt><trkpt lat="36.3417205" lon="9.931656"><ele>199.0</ele><time>2026-04-24T14:33:34.127Z</time></trkpt><trkpt lat="36.3416387" lon="9.931763"><ele>199.0</ele><time>2026-04-24T14:33:35.13Z</time></trkpt><trkpt lat="36.3415586" lon="9.9318749"><ele>199.5</ele><time>2026-04-24T14:33:36.134Z</time></trkpt><trkpt lat="36.3414778" lon="9.9319845"><ele>200.0</ele><time>2026-04-24T14:33:37.126Z</time></trkpt><trkpt lat="36.3414007" lon="9.9321"><ele>200.5</ele><time>2026-04-24T14:33:38.131Z</time></trkpt><trkpt lat="36.3413188" lon="9.932223"><ele>201.0</ele><time>2026-04-24T14:33:39.135Z</time></trkpt><trkpt lat="36.3412301" lon="9.9323479"><ele>201.0</ele><time>2026-04-24T14:33:40.137Z</time></trkpt><trkpt lat="36.3411458" lon="9.9324682"><ele>201.0</ele><time>2026-04-24T14:33:41.135Z</time></trkpt><trkpt lat="36.3410593" lon="9.9326022"><ele>201.0</ele><time>2026-04-24T14:33:42.122Z</time></trkpt><trkpt lat="36.3409684" lon="9.9327338"><ele>201.0</ele><time>2026-04-24T14:33:43.131Z</time></trkpt><trkpt lat="36.3408733" lon="9.93286"><ele>201.25</ele><time>2026-04-24T14:33:44.137Z</time></trkpt><trkpt lat="36.340779" lon="9.9329915"><ele>201.5</ele><time>2026-04-24T14:33:45.133Z</time></trkpt><trkpt lat="36.3406896" lon="9.933123"><ele>201.75</ele><time>2026-04-24T14:33:46.128Z</time></trkpt><trkpt lat="36.3405922" lon="9.9332587"><ele>202.0</ele><time>2026-04-24T14:33:47.128Z</time></trkpt><trkpt lat="36.3404935" lon="9.9333948"><ele>202.0</ele><time>2026-04-24T14:33:48.16Z</time></trkpt><trkpt lat="36.3403985" lon="9.9335276"><ele>202.0</ele><time>2026-04-24T14:33:49.13Z</time></trkpt><trkpt lat="36.3403014" lon="9.9336647"><ele>202.0</ele><time>2026-04-24T14:33:50.144Z</time></trkpt><trkpt lat="36.3402056" lon="9.9338038"><ele>202.0</ele><time>2026-04-24T14:33:51.13Z</time></trkpt><trkpt lat="36.3401095" lon="9.9339427"><ele>202.0</ele><time>2026-04-24T14:33:52.122Z</time></trkpt><trkpt lat="36.3400021" lon="9.9340896"><ele>202.0</ele><time>2026-04-24T14:33:53.145Z</time></trkpt><trkpt lat="36.3398902" lon="9.9342469"><ele>202.0</ele><time>2026-04-24T14:33:54.14Z</time></trkpt><trkpt lat="36.3397782" lon="9.9344065"><ele>202.0</ele><time>2026-04-24T14:33:55.144Z</time></trkpt><trkpt lat="36.3396709" lon="9.9345682"><ele>202.0</ele><time>2026-04-24T14:33:56.144Z</time></trkpt><trkpt lat="36.3395621" lon="9.9347322"><ele>202.0</ele><time>2026-04-24T14:33:57.122Z</time></trkpt><trkpt lat="36.3394529" lon="9.9348861"><ele>202.0</ele><time>2026-04-24T14:33:58.13Z</time></trkpt><trkpt lat="36.3393458" lon="9.9350361"><ele>202.0</ele><time>2026-04-24T14:33:59.127Z</time></trkpt><trkpt lat="36.3392408" lon="9.935189"><ele>202.0</ele><time>2026-04-24T14:34:00.117Z</time></trkpt><trkpt lat="36.3391371" lon="9.9353365"><ele>202.0</ele><time>2026-04-24T14:34:01.133Z</time></trkpt><trkpt lat="36.3390342" lon="9.9354842"><ele>202.0</ele><time>2026-04-24T14:34:02.117Z</time></trkpt><trkpt lat="36.3389278" lon="9.9356334"><ele>202.0</ele><time>2026-04-24T14:34:03.141Z</time></trkpt><trkpt lat="36.3388246" lon="9.9357773"><ele>202.75</ele><time>2026-04-24T14:34:04.137Z</time></trkpt><trkpt lat="36.3387273" lon="9.9359156"><ele>203.5</ele><time>2026-04-24T14:34:05.13Z</time></trkpt><trkpt lat="36.338636" lon="9.9360555"><ele>204.25</ele><time>2026-04-24T14:34:06.132Z</time></trkpt><trkpt lat="36.3385446" lon="9.93619"><ele>205.0</ele><time>2026-04-24T14:34:07.136Z</time></trkpt><trkpt lat="36.3384516" lon="9.9363134"><ele>205.0</ele><time>2026-04-24T14:34:08.137Z</time></trkpt><trkpt lat="36.3383643" lon="9.9364405"><ele>205.0</ele><time>2026-04-24T14:34:09.131Z</time></trkpt><trkpt lat="36.3382809" lon="9.9365665"><ele>205.0</ele><time>2026-04-24T14:34:10.126Z</time></trkpt><trkpt lat="36.3381952" lon="9.9366859"><ele>205.0</ele><time>2026-04-24T14:34:11.142Z</time></trkpt><trkpt lat="36.338115" lon="9.9368001"><ele>205.5</ele><time>2026-04-24T14:34:12.133Z</time></trkpt><trkpt lat="36.3380358" lon="9.9369069"><ele>206.0</ele><time>2026-04-24T14:34:13.136Z</time></trkpt><trkpt lat="36.3379635" lon="9.9370164"><ele>206.5</ele><time>2026-04-24T14:34:14.136Z</time></trkpt><trkpt lat="36.3378892" lon="9.9371226"><ele>207.0</ele><time>2026-04-24T14:34:15.115Z</time></trkpt><trkpt lat="36.3378158" lon="9.9372282"><ele>207.0</ele><time>2026-04-24T14:34:16.137Z</time></trkpt><trkpt lat="36.3377387" lon="9.9373495"><ele>207.0</ele><time>2026-04-24T14:34:17.136Z</time></trkpt><trkpt lat="36.3376617" lon="9.9374707"><ele>207.0</ele><time>2026-04-24T14:34:18.117Z</time></trkpt><trkpt lat="36.3375732" lon="9.9375985"><ele>207.0</ele><time>2026-04-24T14:34:19.119Z</time></trkpt><trkpt lat="36.3374811" lon="9.937727"><ele>207.0</ele><time>2026-04-24T14:34:20.121Z</time></trkpt><trkpt lat="36.3373781" lon="9.9378667"><ele>207.0</ele><time>2026-04-24T14:34:21.115Z</time></trkpt><trkpt lat="36.3372784" lon="9.9380213"><ele>207.0</ele><time>2026-04-24T14:34:22.161Z</time></trkpt><trkpt lat="36.3371769" lon="9.9381717"><ele>207.33333333333331</ele><time>2026-04-24T14:34:23.123Z</time></trkpt><trkpt lat="36.3370642" lon="9.9383195"><ele>207.66666666666666</ele><time>2026-04-24T14:34:24.127Z</time></trkpt><trkpt lat="36.3369527" lon="9.9384671"><ele>208.0</ele><time>2026-04-24T14:34:25.148Z</time></trkpt><trkpt lat="36.3368605" lon="9.9385971"><ele>208.5</ele><time>2026-04-24T14:34:26.134Z</time></trkpt><trkpt lat="36.336773" lon="9.9387156"><ele>209.0</ele><time>2026-04-24T14:34:27.136Z</time></trkpt><trkpt lat="36.3366964" lon="9.9388307"><ele>209.5</ele><time>2026-04-24T14:34:28.155Z</time></trkpt><trkpt lat="36.3366127" lon="9.9389475"><ele>210.0</ele><time>2026-04-24T14:34:29.122Z</time></trkpt><trkpt lat="36.3365214" lon="9.9390697"><ele>209.66666666666669</ele><time>2026-04-24T14:34:30.14Z</time></trkpt><trkpt lat="36.3364209" lon="9.9392212"><ele>209.33333333333334</ele><time>2026-04-24T14:34:31.133Z</time></trkpt><trkpt lat="36.3363006" lon="9.9393992"><ele>209.0</ele><time>2026-04-24T14:34:32.16Z</time></trkpt><trkpt lat="36.3361724" lon="9.9395693"><ele>209.0</ele><time>2026-04-24T14:34:33.135Z</time></trkpt><trkpt lat="36.3360397" lon="9.9397415"><ele>209.0</ele><time>2026-04-24T14:34:34.146Z</time></trkpt><trkpt lat="36.3359155" lon="9.9399222"><ele>209.0</ele><time>2026-04-24T14:34:35.171Z</time></trkpt><trkpt lat="36.335795" lon="9.940097"><ele>208.33333333333334</ele><time>2026-04-24T14:34:36.136Z</time></trkpt><trkpt lat="36.3356792" lon="9.9402576"><ele>207.66666666666669</ele><time>2026-04-24T14:34:37.135Z</time></trkpt><trkpt lat="36.3355624" lon="9.9404116"><ele>207.0</ele><time>2026-04-24T14:34:38.139Z</time></trkpt><trkpt lat="36.3354365" lon="9.9405606"><ele>207.0</ele><time>2026-04-24T14:34:39.121Z</time></trkpt><trkpt lat="36.3353263" lon="9.9407179"><ele>207.0</ele><time>2026-04-24T14:34:40.13Z</time></trkpt><trkpt lat="36.3352112" lon="9.9408767"><ele>207.0</ele><time>2026-04-24T14:34:41.128Z</time></trkpt><trkpt lat="36.335103" lon="9.9410331"><ele>207.33333333333331</ele><time>2026-04-24T14:34:42.146Z</time></trkpt><trkpt lat="36.3349935" lon="9.9411876"><ele>207.66666666666666</ele><time>2026-04-24T14:34:43.126Z</time></trkpt><trkpt lat="36.334882" lon="9.9413353"><ele>208.0</ele><time>2026-04-24T14:34:44.141Z</time></trkpt><trkpt lat="36.3347738" lon="9.941483"><ele>208.0</ele><time>2026-04-24T14:34:45.138Z</time></trkpt><trkpt lat="36.3346642" lon="9.9416397"><ele>208.0</ele><time>2026-04-24T14:34:46.128Z</time></trkpt><trkpt lat="36.3345539" lon="9.9417939"><ele>208.0</ele><time>2026-04-24T14:34:47.124Z</time></trkpt><trkpt lat="36.3344423" lon="9.9419527"><ele>208.0</ele><time>2026-04-24T14:34:48.137Z</time></trkpt><trkpt lat="36.334327" lon="9.9421103"><ele>208.0</ele><time>2026-04-24T14:34:49.11Z</time></trkpt><trkpt lat="36.3342063" lon="9.9422561"><ele>208.0</ele><time>2026-04-24T14:34:50.126Z</time></trkpt><trkpt lat="36.3340792" lon="9.9423972"><ele>208.0</ele><time>2026-04-24T14:34:51.132Z</time></trkpt><trkpt lat="36.3339521" lon="9.9425487"><ele>208.0</ele><time>2026-04-24T14:34:52.126Z</time></trkpt><trkpt lat="36.3338233" lon="9.9426869"><ele>208.0</ele><time>2026-04-24T14:34:53.14Z</time></trkpt><trkpt lat="36.333701" lon="9.942823"><ele>208.0</ele><time>2026-04-24T14:34:54.137Z</time></trkpt><trkpt lat="36.333569" lon="9.9429523"><ele>208.0</ele><time>2026-04-24T14:34:55.154Z</time></trkpt><trkpt lat="36.3334401" lon="9.9430833"><ele>208.0</ele><time>2026-04-24T14:34:56.134Z</time></trkpt><trkpt lat="36.3333116" lon="9.9432164"><ele>208.0</ele><time>2026-04-24T14:34:57.134Z</time></trkpt><trkpt lat="36.3331832" lon="9.9433498"><ele>208.0</ele><time>2026-04-24T14:34:58.148Z</time></trkpt><trkpt lat="36.3330494" lon="9.9434813"><ele>208.0</ele><time>2026-04-24T14:34:59.13Z</time></trkpt><trkpt lat="36.3329212" lon="9.9436159"><ele>208.0</ele><time>2026-04-24T14:35:00.129Z</time></trkpt><trkpt lat="36.3327916" lon="9.9437569"><ele>208.0</ele><time>2026-04-24T14:35:01.13Z</time></trkpt><trkpt lat="36.3326613" lon="9.9438883"><ele>208.0</ele><time>2026-04-24T14:35:02.126Z</time></trkpt><trkpt lat="36.3325313" lon="9.9440287"><ele>208.0</ele><time>2026-04-24T14:35:03.13Z</time></trkpt><trkpt lat="36.3324055" lon="9.9441682"><ele>208.0</ele><time>2026-04-24T14:35:04.136Z</time></trkpt><trkpt lat="36.3322809" lon="9.944301"><ele>208.0</ele><time>2026-04-24T14:35:05.138Z</time></trkpt><trkpt lat="36.332153" lon="9.9444372"><ele>208.0</ele><time>2026-04-24T14:35:06.144Z</time></trkpt><trkpt lat="36.3320191" lon="9.9445757"><ele>208.0</ele><time>2026-04-24T14:35:07.13Z</time></trkpt><trkpt lat="36.3318951" lon="9.9447152"><ele>208.0</ele><time>2026-04-24T14:35:08.131Z</time></trkpt><trkpt lat="36.3317675" lon="9.9448471"><ele>208.0</ele><time>2026-04-24T14:35:09.13Z</time></trkpt><trkpt lat="36.3316419" lon="9.9449788"><ele>208.0</ele><time>2026-04-24T14:35:10.12Z</time></trkpt><trkpt lat="36.3315119" lon="9.9451134"><ele>208.0</ele><time>2026-04-24T14:35:11.133Z</time></trkpt><trkpt lat="36.3313833" lon="9.9452526"><ele>208.33333333333331</ele><time>2026-04-24T14:35:12.143Z</time></trkpt><trkpt lat="36.3312532" lon="9.9453799"><ele>208.66666666666669</ele><time>2026-04-24T14:35:13.148Z</time></trkpt><trkpt lat="36.3311235" lon="9.9455125"><ele>209.0</ele><time>2026-04-24T14:35:14.142Z</time></trkpt><trkpt lat="36.3309969" lon="9.9456462"><ele>209.0</ele><time>2026-04-24T14:35:15.13Z</time></trkpt><trkpt lat="36.3308685" lon="9.9457822"><ele>209.0</ele><time>2026-04-24T14:35:16.122Z</time></trkpt><trkpt lat="36.3307427" lon="9.9459172"><ele>209.0</ele><time>2026-04-24T14:35:17.137Z</time></trkpt><trkpt lat="36.33061" lon="9.9460566"><ele>209.0</ele><time>2026-04-24T14:35:18.149Z</time></trkpt><trkpt lat="36.3304784" lon="9.9461915"><ele>209.0</ele><time>2026-04-24T14:35:19.12Z</time></trkpt><trkpt lat="36.3303529" lon="9.9463266"><ele>209.0</ele><time>2026-04-24T14:35:20.128Z</time></trkpt><trkpt lat="36.3302254" lon="9.9464587"><ele>209.0</ele><time>2026-04-24T14:35:21.137Z</time></trkpt><trkpt lat="36.3300977" lon="9.9465925"><ele>209.0</ele><time>2026-04-24T14:35:22.135Z</time></trkpt><trkpt lat="36.329973" lon="9.9467323"><ele>209.0</ele><time>2026-04-24T14:35:23.129Z</time></trkpt><trkpt lat="36.329845" lon="9.9468715"><ele>209.33333333333334</ele><time>2026-04-24T14:35:24.134Z</time></trkpt><trkpt lat="36.3297204" lon="9.9470099"><ele>209.66666666666669</ele><time>2026-04-24T14:35:25.125Z</time></trkpt><trkpt lat="36.3295956" lon="9.9471531"><ele>210.0</ele><time>2026-04-24T14:35:26.126Z</time></trkpt><trkpt lat="36.3294673" lon="9.9472908"><ele>210.0</ele><time>2026-04-24T14:35:27.124Z</time></trkpt><trkpt lat="36.3293372" lon="9.9474295"><ele>210.0</ele><time>2026-04-24T14:35:28.112Z</time></trkpt><trkpt lat="36.3292055" lon="9.9475728"><ele>210.0</ele><time>2026-04-24T14:35:29.135Z</time></trkpt><trkpt lat="36.3290754" lon="9.9477009"><ele>210.33333333333331</ele><time>2026-04-24T14:35:30.141Z</time></trkpt><trkpt lat="36.3289471" lon="9.9478322"><ele>210.66666666666666</ele><time>2026-04-24T14:35:31.137Z</time></trkpt><trkpt lat="36.3288214" lon="9.9479652"><ele>211.0</ele><time>2026-04-24T14:35:32.14Z</time></trkpt><trkpt lat="36.3286917" lon="9.9480959"><ele>211.33333333333331</ele><time>2026-04-24T14:35:33.123Z</time></trkpt><trkpt lat="36.3285619" lon="9.9482352"><ele>211.66666666666669</ele><time>2026-04-24T14:35:34.147Z</time></trkpt><trkpt lat="36.3284326" lon="9.9483731"><ele>212.0</ele><time>2026-04-24T14:35:35.17Z</time></trkpt><trkpt lat="36.3283076" lon="9.9485101"><ele>212.0</ele><time>2026-04-24T14:35:36.135Z</time></trkpt><trkpt lat="36.3281749" lon="9.9486434"><ele>212.0</ele><time>2026-04-24T14:35:37.129Z</time></trkpt><trkpt lat="36.3280404" lon="9.9487722"><ele>212.0</ele><time>2026-04-24T14:35:38.141Z</time></trkpt><trkpt lat="36.32791" lon="9.9488904"><ele>211.5</ele><time>2026-04-24T14:35:39.124Z</time></trkpt><trkpt lat="36.3277809" lon="9.9489971"><ele>211.0</ele><time>2026-04-24T14:35:40.215Z</time></trkpt><trkpt lat="36.327659" lon="9.949087"><ele>210.5</ele><time>2026-04-24T14:35:41.19Z</time></trkpt><trkpt lat="36.3275382" lon="9.949172"><ele>210.0</ele><time>2026-04-24T14:35:42.169Z</time></trkpt><trkpt lat="36.3274076" lon="9.9492603"><ele>210.0</ele><time>2026-04-24T14:35:43.176Z</time></trkpt><trkpt lat="36.3272762" lon="9.9493551"><ele>210.0</ele><time>2026-04-24T14:35:44.185Z</time></trkpt><trkpt lat="36.3271461" lon="9.949451"><ele>210.0</ele><time>2026-04-24T14:35:45.186Z</time></trkpt><trkpt lat="36.3270176" lon="9.9495462"><ele>209.66666666666669</ele><time>2026-04-24T14:35:46.172Z</time></trkpt><trkpt lat="36.3268822" lon="9.949646"><ele>209.33333333333334</ele><time>2026-04-24T14:35:47.175Z</time></trkpt><trkpt lat="36.3267522" lon="9.9497448"><ele>209.0</ele><time>2026-04-24T14:35:48.207Z</time></trkpt><trkpt lat="36.3266151" lon="9.9498408"><ele>209.0</ele><time>2026-04-24T14:35:49.176Z</time></trkpt><trkpt lat="36.32648" lon="9.9499382"><ele>209.0</ele><time>2026-04-24T14:35:50.178Z</time></trkpt><trkpt lat="36.3263416" lon="9.9500351"><ele>209.0</ele><time>2026-04-24T14:35:51.186Z</time></trkpt><trkpt lat="36.3262009" lon="9.9501344"><ele>209.0</ele><time>2026-04-24T14:35:52.166Z</time></trkpt><trkpt lat="36.3260639" lon="9.9502359"><ele>209.0</ele><time>2026-04-24T14:35:53.171Z</time></trkpt><trkpt lat="36.3259255" lon="9.950333"><ele>209.0</ele><time>2026-04-24T14:35:54.19Z</time></trkpt><trkpt lat="36.3257839" lon="9.9504351"><ele>209.0</ele><time>2026-04-24T14:35:55.178Z</time></trkpt><trkpt lat="36.325651" lon="9.9505361"><ele>209.0</ele><time>2026-04-24T14:35:56.184Z</time></trkpt><trkpt lat="36.3255141" lon="9.9506386"><ele>209.0</ele><time>2026-04-24T14:35:57.173Z</time></trkpt><trkpt lat="36.3253736" lon="9.9507431"><ele>209.0</ele><time>2026-04-24T14:35:58.173Z</time></trkpt><trkpt lat="36.3252329" lon="9.9508447"><ele>209.0</ele><time>2026-04-24T14:35:59.182Z</time></trkpt><trkpt lat="36.3250958" lon="9.9509397"><ele>209.0</ele><time>2026-04-24T14:36:00.178Z</time></trkpt><trkpt lat="36.3249572" lon="9.9510374"><ele>209.33333333333334</ele><time>2026-04-24T14:36:01.174Z</time></trkpt><trkpt lat="36.3248187" lon="9.951137"><ele>209.66666666666669</ele><time>2026-04-24T14:36:02.173Z</time></trkpt><trkpt lat="36.3246789" lon="9.9512343"><ele>210.0</ele><time>2026-04-24T14:36:03.186Z</time></trkpt><trkpt lat="36.3245409" lon="9.951331"><ele>210.33333333333331</ele><time>2026-04-24T14:36:04.194Z</time></trkpt><trkpt lat="36.324409" lon="9.9514307"><ele>210.66666666666666</ele><time>2026-04-24T14:36:05.176Z</time></trkpt><trkpt lat="36.3242775" lon="9.9515268"><ele>211.0</ele><time>2026-04-24T14:36:06.18Z</time></trkpt><trkpt lat="36.3241464" lon="9.9516204"><ele>210.66666666666666</ele><time>2026-04-24T14:36:07.18Z</time></trkpt><trkpt lat="36.3240121" lon="9.9517151"><ele>210.33333333333331</ele><time>2026-04-24T14:36:08.183Z</time></trkpt><trkpt lat="36.3238768" lon="9.951817"><ele>210.0</ele><time>2026-04-24T14:36:09.182Z</time></trkpt><trkpt lat="36.3237354" lon="9.9519152"><ele>210.66666666666669</ele><time>2026-04-24T14:36:10.176Z</time></trkpt><trkpt lat="36.3236007" lon="9.9520168"><ele>211.33333333333334</ele><time>2026-04-24T14:36:11.186Z</time></trkpt><trkpt lat="36.3234687" lon="9.9521098"><ele>212.0</ele><time>2026-04-24T14:36:12.192Z</time></trkpt><trkpt lat="36.3233402" lon="9.9522002"><ele>212.0</ele><time>2026-04-24T14:36:13.176Z</time></trkpt><trkpt lat="36.3232111" lon="9.952288"><ele>212.0</ele><time>2026-04-24T14:36:14.177Z</time></trkpt><trkpt lat="36.3230821" lon="9.9523721"><ele>212.0</ele><time>2026-04-24T14:36:15.16Z</time></trkpt><trkpt lat="36.3229499" lon="9.9524461"><ele>212.0</ele><time>2026-04-24T14:36:16.177Z</time></trkpt><trkpt lat="36.3228115" lon="9.9525241"><ele>212.0</ele><time>2026-04-24T14:36:17.178Z</time></trkpt><trkpt lat="36.3226667" lon="9.9526035"><ele>212.0</ele><time>2026-04-24T14:36:18.19Z</time></trkpt><trkpt lat="36.3225107" lon="9.9526841"><ele>212.0</ele><time>2026-04-24T14:36:19.185Z</time></trkpt><trkpt lat="36.3223516" lon="9.9527572"><ele>211.66666666666669</ele><time>2026-04-24T14:36:20.173Z</time></trkpt><trkpt lat="36.3221915" lon="9.9528252"><ele>211.33333333333331</ele><time>2026-04-24T14:36:21.197Z</time></trkpt><trkpt lat="36.3220276" lon="9.9528921"><ele>211.0</ele><time>2026-04-24T14:36:22.191Z</time></trkpt><trkpt lat="36.3218678" lon="9.9529616"><ele>211.0</ele><time>2026-04-24T14:36:23.194Z</time></trkpt><trkpt lat="36.3217075" lon="9.953032"><ele>211.0</ele><time>2026-04-24T14:36:24.191Z</time></trkpt><trkpt lat="36.3215491" lon="9.9531024"><ele>211.0</ele><time>2026-04-24T14:36:25.177Z</time></trkpt><trkpt lat="36.3213891" lon="9.9531708"><ele>211.66666666666666</ele><time>2026-04-24T14:36:26.194Z</time></trkpt><trkpt lat="36.3212301" lon="9.9532394"><ele>212.33333333333331</ele><time>2026-04-24T14:36:27.185Z</time></trkpt><trkpt lat="36.3210659" lon="9.9533082"><ele>213.0</ele><time>2026-04-24T14:36:28.184Z</time></trkpt><trkpt lat="36.3209035" lon="9.9533772"><ele>213.0</ele><time>2026-04-24T14:36:29.172Z</time></trkpt><trkpt lat="36.3207408" lon="9.9534461"><ele>213.0</ele><time>2026-04-24T14:36:30.194Z</time></trkpt><trkpt lat="36.3205785" lon="9.9535177"><ele>213.0</ele><time>2026-04-24T14:36:31.197Z</time></trkpt><trkpt lat="36.3204156" lon="9.9535913"><ele>213.66666666666669</ele><time>2026-04-24T14:36:32.183Z</time></trkpt><trkpt lat="36.3202549" lon="9.9536608"><ele>214.33333333333334</ele><time>2026-04-24T14:36:33.164Z</time></trkpt><trkpt lat="36.3200938" lon="9.9537334"><ele>215.0</ele><time>2026-04-24T14:36:34.176Z</time></trkpt><trkpt lat="36.319934" lon="9.9538041"><ele>215.0</ele><time>2026-04-24T14:36:35.202Z</time></trkpt><trkpt lat="36.3197741" lon="9.9538756"><ele>215.0</ele><time>2026-04-24T14:36:36.199Z</time></trkpt><trkpt lat="36.3196129" lon="9.9539498"><ele>215.0</ele><time>2026-04-24T14:36:37.181Z</time></trkpt><trkpt lat="36.3194543" lon="9.9540277"><ele>214.66666666666669</ele><time>2026-04-24T14:36:38.193Z</time></trkpt><trkpt lat="36.319298" lon="9.9541121"><ele>214.33333333333331</ele><time>2026-04-24T14:36:39.18Z</time></trkpt><trkpt lat="36.3191454" lon="9.9542086"><ele>214.0</ele><time>2026-04-24T14:36:40.19Z</time></trkpt><trkpt lat="36.3189944" lon="9.9543117"><ele>215.0</ele><time>2026-04-24T14:36:41.186Z</time></trkpt><trkpt lat="36.3188468" lon="9.9544195"><ele>216.0</ele><time>2026-04-24T14:36:42.18Z</time></trkpt><trkpt lat="36.3187" lon="9.9545267"><ele>217.0</ele><time>2026-04-24T14:36:43.181Z</time></trkpt><trkpt lat="36.3185546" lon="9.9546344"><ele>217.0</ele><time>2026-04-24T14:36:44.19Z</time></trkpt><trkpt lat="36.318409" lon="9.9547415"><ele>217.0</ele><time>2026-04-24T14:36:45.187Z</time></trkpt><trkpt lat="36.3182617" lon="9.954849"><ele>217.0</ele><time>2026-04-24T14:36:46.176Z</time></trkpt><trkpt lat="36.3181148" lon="9.9549587"><ele>216.66666666666666</ele><time>2026-04-24T14:36:47.17Z</time></trkpt><trkpt lat="36.3179667" lon="9.9550662"><ele>216.33333333333331</ele><time>2026-04-24T14:36:48.186Z</time></trkpt><trkpt lat="36.3178168" lon="9.9551726"><ele>216.0</ele><time>2026-04-24T14:36:49.19Z</time></trkpt><trkpt lat="36.3176693" lon="9.9552799"><ele>216.0</ele><time>2026-04-24T14:36:50.177Z</time></trkpt><trkpt lat="36.3175239" lon="9.9553933"><ele>216.0</ele><time>2026-04-24T14:36:51.172Z</time></trkpt><trkpt lat="36.3173838" lon="9.955516"><ele>216.0</ele><time>2026-04-24T14:36:52.182Z</time></trkpt><trkpt lat="36.31725" lon="9.9556482"><ele>216.0</ele><time>2026-04-24T14:36:53.175Z</time></trkpt><trkpt lat="36.3171201" lon="9.9557906"><ele>216.0</ele><time>2026-04-24T14:36:54.174Z</time></trkpt><trkpt lat="36.3169962" lon="9.9559374"><ele>216.0</ele><time>2026-04-24T14:36:55.177Z</time></trkpt><trkpt lat="36.316875" lon="9.9560892"><ele>216.33333333333331</ele><time>2026-04-24T14:36:56.178Z</time></trkpt><trkpt lat="36.3167571" lon="9.9562421"><ele>216.66666666666666</ele><time>2026-04-24T14:36:57.189Z</time></trkpt><trkpt lat="36.3166398" lon="9.9563922"><ele>217.0</ele><time>2026-04-24T14:36:58.195Z</time></trkpt><trkpt lat="36.316521" lon="9.956545"><ele>217.0</ele><time>2026-04-24T14:36:59.176Z</time></trkpt><trkpt lat="36.3164058" lon="9.9566991"><ele>217.0</ele><time>2026-04-24T14:37:00.197Z</time></trkpt><trkpt lat="36.3162887" lon="9.9568524"><ele>217.0</ele><time>2026-04-24T14:37:01.187Z</time></trkpt><trkpt lat="36.31617" lon="9.9570062"><ele>216.66666666666666</ele><time>2026-04-24T14:37:02.161Z</time></trkpt><trkpt lat="36.316051" lon="9.9571571"><ele>216.33333333333331</ele><time>2026-04-24T14:37:03.167Z</time></trkpt><trkpt lat="36.3159316" lon="9.9573103"><ele>216.0</ele><time>2026-04-24T14:37:04.177Z</time></trkpt><trkpt lat="36.3158123" lon="9.9574619"><ele>216.66666666666669</ele><time>2026-04-24T14:37:05.179Z</time></trkpt><trkpt lat="36.3156954" lon="9.9576172"><ele>217.33333333333334</ele><time>2026-04-24T14:37:06.195Z</time></trkpt><trkpt lat="36.3155771" lon="9.9577725"><ele>218.0</ele><time>2026-04-24T14:37:07.186Z</time></trkpt><trkpt lat="36.3154604" lon="9.9579284"><ele>218.0</ele><time>2026-04-24T14:37:08.175Z</time></trkpt><trkpt lat="36.3153425" lon="9.9580857"><ele>218.0</ele><time>2026-04-24T14:37:09.186Z</time></trkpt><trkpt lat="36.3152195" lon="9.9582346"><ele>218.0</ele><time>2026-04-24T14:37:10.185Z</time></trkpt><trkpt lat="36.3150965" lon="9.9583829"><ele>218.33333333333334</ele><time>2026-04-24T14:37:11.181Z</time></trkpt><trkpt lat="36.3149745" lon="9.9585313"><ele>218.66666666666669</ele><time>2026-04-24T14:37:12.181Z</time></trkpt><trkpt lat="36.3148541" lon="9.9586772"><ele>219.0</ele><time>2026-04-24T14:37:13.184Z</time></trkpt><trkpt lat="36.3147332" lon="9.9588272"><ele>219.0</ele><time>2026-04-24T14:37:14.18Z</time></trkpt><trkpt lat="36.3146122" lon="9.9589756"><ele>219.0</ele><time>2026-04-24T14:37:15.181Z</time></trkpt><trkpt lat="36.3144949" lon="9.9591273"><ele>219.0</ele><time>2026-04-24T14:37:16.174Z</time></trkpt><trkpt lat="36.3143772" lon="9.959279"><ele>219.33333333333331</ele><time>2026-04-24T14:37:17.174Z</time></trkpt><trkpt lat="36.3142603" lon="9.959432"><ele>219.66666666666666</ele><time>2026-04-24T14:37:18.182Z</time></trkpt><trkpt lat="36.314142" lon="9.9595888"><ele>220.0</ele><time>2026-04-24T14:37:19.175Z</time></trkpt><trkpt lat="36.3140243" lon="9.9597432"><ele>220.0</ele><time>2026-04-24T14:37:20.184Z</time></trkpt><trkpt lat="36.3139054" lon="9.9598959"><ele>220.0</ele><time>2026-04-24T14:37:21.178Z</time></trkpt><trkpt lat="36.3137855" lon="9.9600466"><ele>220.0</ele><time>2026-04-24T14:37:22.173Z</time></trkpt><trkpt lat="36.3136762" lon="9.960187"><ele>219.75</ele><time>2026-04-24T14:37:23.181Z</time></trkpt><trkpt lat="36.3135726" lon="9.9603167"><ele>219.5</ele><time>2026-04-24T14:37:24.188Z</time></trkpt><trkpt lat="36.3134747" lon="9.9604375"><ele>219.25</ele><time>2026-04-24T14:37:25.199Z</time></trkpt><trkpt lat="36.3133828" lon="9.9605548"><ele>219.0</ele><time>2026-04-24T14:37:26.182Z</time></trkpt><trkpt lat="36.313293" lon="9.9606667"><ele>219.0</ele><time>2026-04-24T14:37:27.183Z</time></trkpt><trkpt lat="36.3132041" lon="9.9607787"><ele>219.0</ele><time>2026-04-24T14:37:28.187Z</time></trkpt><trkpt lat="36.3131129" lon="9.960894"><ele>219.0</ele><time>2026-04-24T14:37:29.185Z</time></trkpt><trkpt lat="36.3130241" lon="9.9610069"><ele>219.0</ele><time>2026-04-24T14:37:30.174Z</time></trkpt><trkpt lat="36.3129318" lon="9.9611298"><ele>219.75</ele><time>2026-04-24T14:37:31.181Z</time></trkpt><trkpt lat="36.3128375" lon="9.9612562"><ele>220.5</ele><time>2026-04-24T14:37:32.185Z</time></trkpt><trkpt lat="36.312739" lon="9.9613811"><ele>221.25</ele><time>2026-04-24T14:37:33.179Z</time></trkpt><trkpt lat="36.3126399" lon="9.9615068"><ele>222.0</ele><time>2026-04-24T14:37:34.176Z</time></trkpt><trkpt lat="36.3125414" lon="9.9616328"><ele>222.0</ele><time>2026-04-24T14:37:35.178Z</time></trkpt><trkpt lat="36.3124444" lon="9.9617566"><ele>222.0</ele><time>2026-04-24T14:37:36.173Z</time></trkpt><trkpt lat="36.312353" lon="9.9618737"><ele>222.0</ele><time>2026-04-24T14:37:37.182Z</time></trkpt><trkpt lat="36.3122608" lon="9.9619906"><ele>222.0</ele><time>2026-04-24T14:37:38.182Z</time></trkpt><trkpt lat="36.3121708" lon="9.9621105"><ele>222.0</ele><time>2026-04-24T14:37:39.19Z</time></trkpt><trkpt lat="36.3120821" lon="9.9622233"><ele>222.0</ele><time>2026-04-24T14:37:40.179Z</time></trkpt><trkpt lat="36.3119972" lon="9.9623328"><ele>222.0</ele><time>2026-04-24T14:37:41.193Z</time></trkpt><trkpt lat="36.3119096" lon="9.9624425"><ele>222.0</ele><time>2026-04-24T14:37:42.185Z</time></trkpt><trkpt lat="36.3118255" lon="9.9625455"><ele>222.0</ele><time>2026-04-24T14:37:43.185Z</time></trkpt><trkpt lat="36.3117414" lon="9.9626538"><ele>222.0</ele><time>2026-04-24T14:37:44.193Z</time></trkpt><trkpt lat="36.3116565" lon="9.9627592"><ele>222.0</ele><time>2026-04-24T14:37:45.166Z</time></trkpt><trkpt lat="36.3115729" lon="9.9628707"><ele>222.0</ele><time>2026-04-24T14:37:46.185Z</time></trkpt><trkpt lat="36.3114833" lon="9.9629887"><ele>222.5</ele><time>2026-04-24T14:37:47.19Z</time></trkpt><trkpt lat="36.3113901" lon="9.9631035"><ele>223.0</ele><time>2026-04-24T14:37:48.186Z</time></trkpt><trkpt lat="36.311298" lon="9.9632177"><ele>223.5</ele><time>2026-04-24T14:37:49.176Z</time></trkpt><trkpt lat="36.3112051" lon="9.9633367"><ele>224.0</ele><time>2026-04-24T14:37:50.181Z</time></trkpt><trkpt lat="36.3111069" lon="9.9634635"><ele>224.75</ele><time>2026-04-24T14:37:51.183Z</time></trkpt><trkpt lat="36.3110062" lon="9.963591"><ele>225.5</ele><time>2026-04-24T14:37:52.194Z</time></trkpt><trkpt lat="36.3109059" lon="9.9637187"><ele>226.25</ele><time>2026-04-24T14:37:53.171Z</time></trkpt><trkpt lat="36.3108026" lon="9.9638458"><ele>227.0</ele><time>2026-04-24T14:37:54.182Z</time></trkpt><trkpt lat="36.3107" lon="9.9639718"><ele>227.0</ele><time>2026-04-24T14:37:55.188Z</time></trkpt><trkpt lat="36.3105973" lon="9.9641013"><ele>227.0</ele><time>2026-04-24T14:37:56.175Z</time></trkpt><trkpt lat="36.3104964" lon="9.9642306"><ele>227.0</ele><time>2026-04-24T14:37:57.175Z</time></trkpt><trkpt lat="36.3103944" lon="9.9643603"><ele>227.0</ele><time>2026-04-24T14:37:58.191Z</time></trkpt><trkpt lat="36.3102983" lon="9.9644884"><ele>226.75</ele><time>2026-04-24T14:37:59.189Z</time></trkpt><trkpt lat="36.3102002" lon="9.9646126"><ele>226.5</ele><time>2026-04-24T14:38:00.174Z</time></trkpt><trkpt lat="36.3101049" lon="9.964737"><ele>226.25</ele><time>2026-04-24T14:38:01.188Z</time></trkpt><trkpt lat="36.3100087" lon="9.9648607"><ele>226.0</ele><time>2026-04-24T14:38:02.175Z</time></trkpt><trkpt lat="36.3099119" lon="9.9649848"><ele>225.75</ele><time>2026-04-24T14:38:03.175Z</time></trkpt><trkpt lat="36.3098155" lon="9.9651124"><ele>225.5</ele><time>2026-04-24T14:38:04.183Z</time></trkpt><trkpt lat="36.3097168" lon="9.9652381"><ele>225.25</ele><time>2026-04-24T14:38:05.18Z</time></trkpt><trkpt lat="36.3096133" lon="9.9653701"><ele>225.0</ele><time>2026-04-24T14:38:06.19Z</time></trkpt><trkpt lat="36.3095122" lon="9.9655016"><ele>224.75</ele><time>2026-04-24T14:38:07.185Z</time></trkpt><trkpt lat="36.3094084" lon="9.9656338"><ele>224.5</ele><time>2026-04-24T14:38:08.173Z</time></trkpt><trkpt lat="36.309305" lon="9.9657682"><ele>224.25</ele><time>2026-04-24T14:38:09.176Z</time></trkpt><trkpt lat="36.3092016" lon="9.9659028"><ele>224.0</ele><time>2026-04-24T14:38:10.186Z</time></trkpt><trkpt lat="36.3090989" lon="9.9660402"><ele>224.0</ele><time>2026-04-24T14:38:11.187Z</time></trkpt><trkpt lat="36.308994" lon="9.9661737"><ele>224.0</ele><time>2026-04-24T14:38:12.176Z</time></trkpt><trkpt lat="36.3088878" lon="9.9663088"><ele>224.0</ele><time>2026-04-24T14:38:13.173Z</time></trkpt><trkpt lat="36.3087802" lon="9.9664437"><ele>224.0</ele><time>2026-04-24T14:38:14.172Z</time></trkpt><trkpt lat="36.3086717" lon="9.9665825"><ele>224.0</ele><time>2026-04-24T14:38:15.187Z</time></trkpt><trkpt lat="36.3085653" lon="9.9667224"><ele>224.0</ele><time>2026-04-24T14:38:16.18Z</time></trkpt><trkpt lat="36.3084551" lon="9.9668627"><ele>224.33333333333334</ele><time>2026-04-24T14:38:17.199Z</time></trkpt><trkpt lat="36.3083467" lon="9.9670028"><ele>224.66666666666669</ele><time>2026-04-24T14:38:18.187Z</time></trkpt><trkpt lat="36.3082376" lon="9.9671446"><ele>225.0</ele><time>2026-04-24T14:38:19.178Z</time></trkpt><trkpt lat="36.3081331" lon="9.967291"><ele>225.33333333333331</ele><time>2026-04-24T14:38:20.178Z</time></trkpt><trkpt lat="36.3080278" lon="9.9674297"><ele>225.66666666666666</ele><time>2026-04-24T14:38:21.169Z</time></trkpt><trkpt lat="36.307924" lon="9.9675687"><ele>226.0</ele><time>2026-04-24T14:38:22.166Z</time></trkpt><trkpt lat="36.3078208" lon="9.9677017"><ele>226.0</ele><time>2026-04-24T14:38:23.184Z</time></trkpt><trkpt lat="36.3077185" lon="9.9678349"><ele>226.0</ele><time>2026-04-24T14:38:24.18Z</time></trkpt><trkpt lat="36.3076162" lon="9.9679665"><ele>226.0</ele><time>2026-04-24T14:38:25.167Z</time></trkpt><trkpt lat="36.3075133" lon="9.9680979"><ele>226.0</ele><time>2026-04-24T14:38:26.172Z</time></trkpt><trkpt lat="36.3074135" lon="9.9682272"><ele>226.0</ele><time>2026-04-24T14:38:27.184Z</time></trkpt><trkpt lat="36.3073148" lon="9.9683557"><ele>226.0</ele><time>2026-04-24T14:38:28.178Z</time></trkpt><trkpt lat="36.3072149" lon="9.9684828"><ele>226.0</ele><time>2026-04-24T14:38:29.177Z</time></trkpt><trkpt lat="36.3071149" lon="9.9686068"><ele>226.0</ele><time>2026-04-24T14:38:30.172Z</time></trkpt><trkpt lat="36.3070156" lon="9.9687346"><ele>226.25</ele><time>2026-04-24T14:38:31.184Z</time></trkpt><trkpt lat="36.306917" lon="9.96886"><ele>226.5</ele><time>2026-04-24T14:38:32.187Z</time></trkpt><trkpt lat="36.3068191" lon="9.9689842"><ele>226.75</ele><time>2026-04-24T14:38:33.175Z</time></trkpt><trkpt lat="36.3067232" lon="9.9691046"><ele>227.0</ele><time>2026-04-24T14:38:34.184Z</time></trkpt><trkpt lat="36.3066299" lon="9.9692271"><ele>227.25</ele><time>2026-04-24T14:38:35.191Z</time></trkpt><trkpt lat="36.3065397" lon="9.9693496"><ele>227.5</ele><time>2026-04-24T14:38:36.179Z</time></trkpt><trkpt lat="36.3064506" lon="9.969471"><ele>227.75</ele><time>2026-04-24T14:38:37.187Z</time></trkpt><trkpt lat="36.3063585" lon="9.9695911"><ele>228.0</ele><time>2026-04-24T14:38:38.184Z</time></trkpt><trkpt lat="36.3062654" lon="9.9697135"><ele>228.0</ele><time>2026-04-24T14:38:39.19Z</time></trkpt><trkpt lat="36.3061713" lon="9.9698318"><ele>228.0</ele><time>2026-04-24T14:38:40.204Z</time></trkpt><trkpt lat="36.3060773" lon="9.9699503"><ele>228.0</ele><time>2026-04-24T14:38:41.225Z</time></trkpt><trkpt lat="36.3059835" lon="9.9700706"><ele>228.0</ele><time>2026-04-24T14:38:42.182Z</time></trkpt><trkpt lat="36.3058939" lon="9.970191"><ele>228.0</ele><time>2026-04-24T14:38:43.171Z</time></trkpt><trkpt lat="36.3058024" lon="9.970312"><ele>228.0</ele><time>2026-04-24T14:38:44.168Z</time></trkpt><trkpt lat="36.3057098" lon="9.9704303"><ele>228.0</ele><time>2026-04-24T14:38:45.173Z</time></trkpt><trkpt lat="36.305617" lon="9.9705492"><ele>228.0</ele><time>2026-04-24T14:38:46.181Z</time></trkpt><trkpt lat="36.3055237" lon="9.9706672"><ele>228.0</ele><time>2026-04-24T14:38:47.189Z</time></trkpt><trkpt lat="36.3054301" lon="9.9707878"><ele>228.0</ele><time>2026-04-24T14:38:48.198Z</time></trkpt><trkpt lat="36.3053382" lon="9.9709097"><ele>228.0</ele><time>2026-04-24T14:38:49.174Z</time></trkpt><trkpt lat="36.3052481" lon="9.9710291"><ele>228.0</ele><time>2026-04-24T14:38:50.176Z</time></trkpt><trkpt lat="36.3051552" lon="9.9711501"><ele>228.25</ele><time>2026-04-24T14:38:51.178Z</time></trkpt><trkpt lat="36.3050615" lon="9.9712724"><ele>228.5</ele><time>2026-04-24T14:38:52.181Z</time></trkpt><trkpt lat="36.3049682" lon="9.9713955"><ele>228.75</ele><time>2026-04-24T14:38:53.178Z</time></trkpt><trkpt lat="36.3048734" lon="9.9715159"><ele>229.0</ele><time>2026-04-24T14:38:54.165Z</time></trkpt><trkpt lat="36.3047784" lon="9.9716367"><ele>230.0</ele><time>2026-04-24T14:38:55.169Z</time></trkpt><trkpt lat="36.304684" lon="9.9717591"><ele>231.0</ele><time>2026-04-24T14:38:56.176Z</time></trkpt><trkpt lat="36.3045902" lon="9.9718795"><ele>232.0</ele><time>2026-04-24T14:38:57.189Z</time></trkpt><trkpt lat="36.3044928" lon="9.9719975"><ele>233.0</ele><time>2026-04-24T14:38:58.186Z</time></trkpt><trkpt lat="36.3043965" lon="9.9721137"><ele>233.0</ele><time>2026-04-24T14:38:59.196Z</time></trkpt><trkpt lat="36.3043003" lon="9.9722343"><ele>233.0</ele><time>2026-04-24T14:39:00.165Z</time></trkpt><trkpt lat="36.3042042" lon="9.9723546"><ele>233.0</ele><time>2026-04-24T14:39:01.194Z</time></trkpt><trkpt lat="36.3041081" lon="9.9724763"><ele>233.0</ele><time>2026-04-24T14:39:02.179Z</time></trkpt><trkpt lat="36.304012" lon="9.972596"><ele>232.75</ele><time>2026-04-24T14:39:03.185Z</time></trkpt><trkpt lat="36.3039171" lon="9.9727153"><ele>232.5</ele><time>2026-04-24T14:39:04.184Z</time></trkpt><trkpt lat="36.3038212" lon="9.9728387"><ele>232.25</ele><time>2026-04-24T14:39:05.185Z</time></trkpt><trkpt lat="36.3037216" lon="9.9729627"><ele>232.0</ele><time>2026-04-24T14:39:06.173Z</time></trkpt><trkpt lat="36.303624" lon="9.9730831"><ele>232.5</ele><time>2026-04-24T14:39:07.17Z</time></trkpt><trkpt lat="36.3035275" lon="9.9732051"><ele>233.0</ele><time>2026-04-24T14:39:08.183Z</time></trkpt><trkpt lat="36.3034288" lon="9.973331"><ele>233.5</ele><time>2026-04-24T14:39:09.18Z</time></trkpt><trkpt lat="36.3033309" lon="9.9734589"><ele>234.0</ele><time>2026-04-24T14:39:10.185Z</time></trkpt><trkpt lat="36.3032314" lon="9.9735838"><ele>234.25</ele><time>2026-04-24T14:39:11.197Z</time></trkpt><trkpt lat="36.3031306" lon="9.9737084"><ele>234.5</ele><time>2026-04-24T14:39:12.181Z</time></trkpt><trkpt lat="36.3030312" lon="9.973836"><ele>234.75</ele><time>2026-04-24T14:39:13.153Z</time></trkpt><trkpt lat="36.3029307" lon="9.9739632"><ele>235.0</ele><time>2026-04-24T14:39:14.169Z</time></trkpt><trkpt lat="36.3028317" lon="9.9740924"><ele>235.75</ele><time>2026-04-24T14:39:15.183Z</time></trkpt><trkpt lat="36.3027329" lon="9.9742229"><ele>236.5</ele><time>2026-04-24T14:39:16.18Z</time></trkpt><trkpt lat="36.3026309" lon="9.9743532"><ele>237.25</ele><time>2026-04-24T14:39:17.185Z</time></trkpt><trkpt lat="36.3025258" lon="9.9744897"><ele>238.0</ele><time>2026-04-24T14:39:18.178Z</time></trkpt><trkpt lat="36.3024188" lon="9.9746238"><ele>238.0</ele><time>2026-04-24T14:39:19.181Z</time></trkpt><trkpt lat="36.3023072" lon="9.9747554"><ele>238.0</ele><time>2026-04-24T14:39:20.174Z</time></trkpt><trkpt lat="36.3021958" lon="9.9748876"><ele>238.0</ele><time>2026-04-24T14:39:21.18Z</time></trkpt><trkpt lat="36.3020819" lon="9.9750228"><ele>238.0</ele><time>2026-04-24T14:39:22.201Z</time></trkpt><trkpt lat="36.3019646" lon="9.9751597"><ele>238.0</ele><time>2026-04-24T14:39:23.175Z</time></trkpt><trkpt lat="36.3018426" lon="9.9752912"><ele>238.0</ele><time>2026-04-24T14:39:24.182Z</time></trkpt><trkpt lat="36.3017204" lon="9.9754196"><ele>238.0</ele><time>2026-04-24T14:39:25.177Z</time></trkpt><trkpt lat="36.3015986" lon="9.9755449"><ele>238.0</ele><time>2026-04-24T14:39:26.184Z</time></trkpt><trkpt lat="36.3014729" lon="9.9756687"><ele>238.0</ele><time>2026-04-24T14:39:27.185Z</time></trkpt><trkpt lat="36.3013441" lon="9.9757881"><ele>238.33333333333331</ele><time>2026-04-24T14:39:28.171Z</time></trkpt><trkpt lat="36.3012134" lon="9.9759029"><ele>238.66666666666669</ele><time>2026-04-24T14:39:29.159Z</time></trkpt><trkpt lat="36.3010809" lon="9.9760114"><ele>239.0</ele><time>2026-04-24T14:39:30.175Z</time></trkpt><trkpt lat="36.3009497" lon="9.976123"><ele>239.0</ele><time>2026-04-24T14:39:31.174Z</time></trkpt><trkpt lat="36.300818" lon="9.9762357"><ele>239.0</ele><time>2026-04-24T14:39:32.186Z</time></trkpt><trkpt lat="36.3006962" lon="9.9763429"><ele>239.0</ele><time>2026-04-24T14:39:33.184Z</time></trkpt><trkpt lat="36.3005825" lon="9.976442"><ele>239.0</ele><time>2026-04-24T14:39:34.178Z</time></trkpt><trkpt lat="36.3004658" lon="9.9765343"><ele>239.0</ele><time>2026-04-24T14:39:35.186Z</time></trkpt><trkpt lat="36.3003484" lon="9.9766299"><ele>239.0</ele><time>2026-04-24T14:39:36.186Z</time></trkpt><trkpt lat="36.3002292" lon="9.9767252"><ele>239.0</ele><time>2026-04-24T14:39:37.176Z</time></trkpt><trkpt lat="36.300108" lon="9.9768247"><ele>239.0</ele><time>2026-04-24T14:39:38.184Z</time></trkpt><trkpt lat="36.2999875" lon="9.9769265"><ele>239.25</ele><time>2026-04-24T14:39:39.16Z</time></trkpt><trkpt lat="36.2998661" lon="9.9770302"><ele>239.5</ele><time>2026-04-24T14:39:40.187Z</time></trkpt><trkpt lat="36.2997434" lon="9.9771365"><ele>239.75</ele><time>2026-04-24T14:39:41.181Z</time></trkpt><trkpt lat="36.2996208" lon="9.977238"><ele>240.0</ele><time>2026-04-24T14:39:42.194Z</time></trkpt><trkpt lat="36.2994991" lon="9.977339"><ele>240.25</ele><time>2026-04-24T14:39:43.183Z</time></trkpt><trkpt lat="36.2993761" lon="9.9774372"><ele>240.5</ele><time>2026-04-24T14:39:44.176Z</time></trkpt><trkpt lat="36.2992564" lon="9.9775388"><ele>240.75</ele><time>2026-04-24T14:39:45.176Z</time></trkpt><trkpt lat="36.2991365" lon="9.9776389"><ele>241.0</ele><time>2026-04-24T14:39:46.19Z</time></trkpt><trkpt lat="36.2990144" lon="9.97774"><ele>242.0</ele><time>2026-04-24T14:39:47.194Z</time></trkpt><trkpt lat="36.298891" lon="9.9778419"><ele>243.0</ele><time>2026-04-24T14:39:48.157Z</time></trkpt><trkpt lat="36.298768" lon="9.9779428"><ele>244.0</ele><time>2026-04-24T14:39:49.189Z</time></trkpt><trkpt lat="36.298646" lon="9.9780448"><ele>245.0</ele><time>2026-04-24T14:39:50.177Z</time></trkpt><trkpt lat="36.2985275" lon="9.9781495"><ele>245.0</ele><time>2026-04-24T14:39:51.179Z</time></trkpt><trkpt lat="36.2984077" lon="9.9782541"><ele>245.0</ele><time>2026-04-24T14:39:52.175Z</time></trkpt><trkpt lat="36.2982854" lon="9.9783572"><ele>245.0</ele><time>2026-04-24T14:39:53.177Z</time></trkpt><trkpt lat="36.2981624" lon="9.9784624"><ele>245.0</ele><time>2026-04-24T14:39:54.137Z</time></trkpt><trkpt lat="36.2980388" lon="9.9785644"><ele>246.66666666666669</ele><time>2026-04-24T14:39:55.182Z</time></trkpt><trkpt lat="36.297914" lon="9.9786676"><ele>248.33333333333331</ele><time>2026-04-24T14:39:56.15Z</time></trkpt><trkpt lat="36.2977886" lon="9.9787722"><ele>250.0</ele><time>2026-04-24T14:39:57.183Z</time></trkpt><trkpt lat="36.2976623" lon="9.9788768"><ele>250.0</ele><time>2026-04-24T14:39:58.16Z</time></trkpt><trkpt lat="36.2975381" lon="9.9789826"><ele>250.0</ele><time>2026-04-24T14:39:59.181Z</time></trkpt><trkpt lat="36.2974138" lon="9.9790903"><ele>250.0</ele><time>2026-04-24T14:40:00.176Z</time></trkpt><trkpt lat="36.2972941" lon="9.9792044"><ele>250.75</ele><time>2026-04-24T14:40:01.181Z</time></trkpt><trkpt lat="36.2971811" lon="9.9793275"><ele>251.5</ele><time>2026-04-24T14:40:02.173Z</time></trkpt><trkpt lat="36.2970785" lon="9.9794621"><ele>252.25</ele><time>2026-04-24T14:40:03.182Z</time></trkpt><trkpt lat="36.296984" lon="9.9796036"><ele>253.0</ele><time>2026-04-24T14:40:04.16Z</time></trkpt><trkpt lat="36.2968993" lon="9.9797512"><ele>253.0</ele><time>2026-04-24T14:40:05.175Z</time></trkpt><trkpt lat="36.2968212" lon="9.9799047"><ele>253.0</ele><time>2026-04-24T14:40:06.181Z</time></trkpt><trkpt lat="36.2967552" lon="9.9800637"><ele>253.0</ele><time>2026-04-24T14:40:07.18Z</time></trkpt><trkpt lat="36.2967043" lon="9.9802313"><ele>253.0</ele><time>2026-04-24T14:40:08.183Z</time></trkpt><trkpt lat="36.2966663" lon="9.9804069"><ele>254.0</ele><time>2026-04-24T14:40:09.179Z</time></trkpt><trkpt lat="36.2966388" lon="9.9805836"><ele>255.0</ele><time>2026-04-24T14:40:10.182Z</time></trkpt><trkpt lat="36.2966222" lon="9.9807642"><ele>256.0</ele><time>2026-04-24T14:40:11.186Z</time></trkpt><trkpt lat="36.2966103" lon="9.98094"><ele>257.0</ele><time>2026-04-24T14:40:12.179Z</time></trkpt><trkpt lat="36.2966063" lon="9.9811193"><ele>258.0</ele><time>2026-04-24T14:40:13.181Z</time></trkpt><trkpt lat="36.2966056" lon="9.9812977"><ele>259.0</ele><time>2026-04-24T14:40:14.173Z</time></trkpt><trkpt lat="36.2966036" lon="9.98148"><ele>260.0</ele><time>2026-04-24T14:40:15.188Z</time></trkpt><trkpt lat="36.2965982" lon="9.9816606"><ele>261.0</ele><time>2026-04-24T14:40:16.2Z</time></trkpt><trkpt lat="36.2965872" lon="9.9818417"><ele>261.75</ele><time>2026-04-24T14:40:17.184Z</time></trkpt><trkpt lat="36.2965696" lon="9.9820241"><ele>262.5</ele><time>2026-04-24T14:40:18.195Z</time></trkpt><trkpt lat="36.2965475" lon="9.9822057"><ele>263.25</ele><time>2026-04-24T14:40:19.192Z</time></trkpt><trkpt lat="36.2965148" lon="9.9823861"><ele>264.0</ele><time>2026-04-24T14:40:20.176Z</time></trkpt><trkpt lat="36.296473" lon="9.9825659"><ele>264.3333333333333</ele><time>2026-04-24T14:40:21.178Z</time></trkpt><trkpt lat="36.2964265" lon="9.9827435"><ele>264.66666666666663</ele><time>2026-04-24T14:40:22.189Z</time></trkpt><trkpt lat="36.2963758" lon="9.9829186"><ele>265.0</ele><time>2026-04-24T14:40:23.168Z</time></trkpt><trkpt lat="36.2963194" lon="9.9830911"><ele>265.0</ele><time>2026-04-24T14:40:24.181Z</time></trkpt><trkpt lat="36.2962621" lon="9.9832639"><ele>265.0</ele><time>2026-04-24T14:40:25.178Z</time></trkpt><trkpt lat="36.2962025" lon="9.9834364"><ele>265.0</ele><time>2026-04-24T14:40:26.19Z</time></trkpt><trkpt lat="36.2961434" lon="9.9836046"><ele>265.5</ele><time>2026-04-24T14:40:27.189Z</time></trkpt><trkpt lat="36.2960838" lon="9.9837715"><ele>266.0</ele><time>2026-04-24T14:40:28.19Z</time></trkpt><trkpt lat="36.2960248" lon="9.9839415"><ele>266.5</ele><time>2026-04-24T14:40:29.181Z</time></trkpt><trkpt lat="36.2959652" lon="9.9841111"><ele>267.0</ele><time>2026-04-24T14:40:30.17Z</time></trkpt><trkpt lat="36.2959051" lon="9.9842817"><ele>268.3333333333333</ele><time>2026-04-24T14:40:31.191Z</time></trkpt><trkpt lat="36.2958474" lon="9.9844546"><ele>269.66666666666663</ele><time>2026-04-24T14:40:32.195Z</time></trkpt><trkpt lat="36.2957876" lon="9.9846267"><ele>271.0</ele><time>2026-04-24T14:40:33.177Z</time></trkpt><trkpt lat="36.2957261" lon="9.9847966"><ele>271.0</ele><time>2026-04-24T14:40:34.177Z</time></trkpt><trkpt lat="36.2956664" lon="9.9849766"><ele>271.0</ele><time>2026-04-24T14:40:35.177Z</time></trkpt><trkpt lat="36.2956067" lon="9.9851571"><ele>271.0</ele><time>2026-04-24T14:40:36.181Z</time></trkpt><trkpt lat="36.2955449" lon="9.9853364"><ele>271.66666666666663</ele><time>2026-04-24T14:40:37.181Z</time></trkpt><trkpt lat="36.2954843" lon="9.9855171"><ele>272.3333333333333</ele><time>2026-04-24T14:40:38.185Z</time></trkpt><trkpt lat="36.2954252" lon="9.9856951"><ele>273.0</ele><time>2026-04-24T14:40:39.187Z</time></trkpt><trkpt lat="36.295361" lon="9.985872"><ele>273.3333333333333</ele><time>2026-04-24T14:40:40.18Z</time></trkpt><trkpt lat="36.2952988" lon="9.9860501"><ele>273.66666666666663</ele><time>2026-04-24T14:40:41.196Z</time></trkpt><trkpt lat="36.2952392" lon="9.9862296"><ele>274.0</ele><time>2026-04-24T14:40:42.18Z</time></trkpt><trkpt lat="36.2951763" lon="9.9864051"><ele>274.0</ele><time>2026-04-24T14:40:43.185Z</time></trkpt><trkpt lat="36.2951151" lon="9.9865846"><ele>274.0</ele><time>2026-04-24T14:40:44.184Z</time></trkpt><trkpt lat="36.2950552" lon="9.9867588"><ele>274.0</ele><time>2026-04-24T14:40:45.196Z</time></trkpt><trkpt lat="36.2949966" lon="9.9869359"><ele>274.66666666666663</ele><time>2026-04-24T14:40:46.181Z</time></trkpt><trkpt lat="36.2949352" lon="9.9871094"><ele>275.3333333333333</ele><time>2026-04-24T14:40:47.178Z</time></trkpt><trkpt lat="36.2948743" lon="9.9872821"><ele>276.0</ele><time>2026-04-24T14:40:48.191Z</time></trkpt><trkpt lat="36.2948159" lon="9.9874548"><ele>276.25</ele><time>2026-04-24T14:40:49.18Z</time></trkpt><trkpt lat="36.2947578" lon="9.987628"><ele>276.5</ele><time>2026-04-24T14:40:50.203Z</time></trkpt><trkpt lat="36.2947006" lon="9.9877975"><ele>276.75</ele><time>2026-04-24T14:40:51.165Z</time></trkpt><trkpt lat="36.294643" lon="9.9879663"><ele>277.0</ele><time>2026-04-24T14:40:52.163Z</time></trkpt><trkpt lat="36.2945846" lon="9.9881312"><ele>278.0</ele><time>2026-04-24T14:40:53.169Z</time></trkpt><trkpt lat="36.2945279" lon="9.9882982"><ele>279.0</ele><time>2026-04-24T14:40:54.186Z</time></trkpt><trkpt lat="36.2944705" lon="9.9884624"><ele>280.0</ele><time>2026-04-24T14:40:55.2Z</time></trkpt><trkpt lat="36.2944155" lon="9.9886265"><ele>281.0</ele><time>2026-04-24T14:40:56.184Z</time></trkpt><trkpt lat="36.2943617" lon="9.98879"><ele>281.0</ele><time>2026-04-24T14:40:57.172Z</time></trkpt><trkpt lat="36.2943095" lon="9.9889495"><ele>281.0</ele><time>2026-04-24T14:40:58.184Z</time></trkpt><trkpt lat="36.2942629" lon="9.9890957"><ele>281.0</ele><time>2026-04-24T14:40:59.188Z</time></trkpt><trkpt lat="36.2942176" lon="9.9892329"><ele>281.0</ele><time>2026-04-24T14:41:00.183Z</time></trkpt><trkpt lat="36.2941722" lon="9.9893622"><ele>281.0</ele><time>2026-04-24T14:41:01.18Z</time></trkpt><trkpt lat="36.2941305" lon="9.9894886"><ele>281.0</ele><time>2026-04-24T14:41:02.186Z</time></trkpt><trkpt lat="36.2940908" lon="9.989613"><ele>281.0</ele><time>2026-04-24T14:41:03.167Z</time></trkpt><trkpt lat="36.2940514" lon="9.98973"><ele>281.0</ele><time>2026-04-24T14:41:04.18Z</time></trkpt><trkpt lat="36.2940154" lon="9.9898374"><ele>281.0</ele><time>2026-04-24T14:41:05.184Z</time></trkpt><trkpt lat="36.2939794" lon="9.9899402"><ele>281.1666666666667</ele><time>2026-04-24T14:41:06.191Z</time></trkpt><trkpt lat="36.2939452" lon="9.9900364"><ele>281.33333333333337</ele><time>2026-04-24T14:41:07.193Z</time></trkpt><trkpt lat="36.2939139" lon="9.9901236"><ele>281.5</ele><time>2026-04-24T14:41:08.186Z</time></trkpt><trkpt lat="36.2938863" lon="9.9902003"><ele>281.6666666666667</ele><time>2026-04-24T14:41:09.176Z</time></trkpt><trkpt lat="36.2938406" lon="9.9903241"><ele>281.8333333333333</ele><time>2026-04-24T14:41:11.174Z</time></trkpt><trkpt lat="36.2938068" lon="9.9904183"><ele>282.0</ele><time>2026-04-24T14:41:13.173Z</time></trkpt><trkpt lat="36.2937761" lon="9.9904996"><ele>282.0</ele><time>2026-04-24T14:41:15.193Z</time></trkpt><trkpt lat="36.2937476" lon="9.9906015"><ele>282.0</ele><time>2026-04-24T14:41:18.173Z</time></trkpt><trkpt lat="36.2937156" lon="9.9906947"><ele>282.0</ele><time>2026-04-24T14:41:20.177Z</time></trkpt><trkpt lat="36.2936751" lon="9.9908233"><ele>282.0</ele><time>2026-04-24T14:41:22.16Z</time></trkpt><trkpt lat="36.2936323" lon="9.9909576"><ele>282.0</ele><time>2026-04-24T14:41:24.182Z</time></trkpt><trkpt lat="36.2935878" lon="9.9910877"><ele>282.8333333333333</ele><time>2026-04-24T14:41:26.178Z</time></trkpt><trkpt lat="36.2935469" lon="9.9912084"><ele>283.6666666666667</ele><time>2026-04-24T14:41:28.171Z</time></trkpt><trkpt lat="36.2935096" lon="9.9913431"><ele>284.5</ele><time>2026-04-24T14:41:30.191Z</time></trkpt><trkpt lat="36.2934891" lon="9.9914282"><ele>285.33333333333337</ele><time>2026-04-24T14:41:31.179Z</time></trkpt><trkpt lat="36.2934643" lon="9.9915204"><ele>286.1666666666667</ele><time>2026-04-24T14:41:32.18Z</time></trkpt><trkpt lat="36.2934424" lon="9.9916092"><ele>287.0</ele><time>2026-04-24T14:41:33.172Z</time></trkpt><trkpt lat="36.2934117" lon="9.9917072"><ele>287.33333333333337</ele><time>2026-04-24T14:41:34.183Z</time></trkpt><trkpt lat="36.2933802" lon="9.9918105"><ele>287.6666666666667</ele><time>2026-04-24T14:41:35.193Z</time></trkpt><trkpt lat="36.2933462" lon="9.9919112"><ele>288.0</ele><time>2026-04-24T14:41:36.182Z</time></trkpt><trkpt lat="36.2933182" lon="9.9920134"><ele>288.3333333333333</ele><time>2026-04-24T14:41:37.17Z</time></trkpt><trkpt lat="36.2932949" lon="9.9921092"><ele>288.66666666666663</ele><time>2026-04-24T14:41:38.133Z</time></trkpt><trkpt lat="36.2932675" lon="9.9922118"><ele>289.0</ele><time>2026-04-24T14:41:39.119Z</time></trkpt><trkpt lat="36.2932466" lon="9.9923194"><ele>289.0</ele><time>2026-04-24T14:41:40.136Z</time></trkpt><trkpt lat="36.2932284" lon="9.9924273"><ele>289.0</ele><time>2026-04-24T14:41:41.141Z</time></trkpt><trkpt lat="36.2932061" lon="9.9925352"><ele>289.0</ele><time>2026-04-24T14:41:42.131Z</time></trkpt><trkpt lat="36.2931817" lon="9.9926381"><ele>289.0</ele><time>2026-04-24T14:41:43.137Z</time></trkpt><trkpt lat="36.293167" lon="9.9927424"><ele>289.0</ele><time>2026-04-24T14:41:44.111Z</time></trkpt><trkpt lat="36.2931436" lon="9.9928551"><ele>289.0</ele><time>2026-04-24T14:41:45.132Z</time></trkpt><trkpt lat="36.2931211" lon="9.9929595"><ele>289.16666666666663</ele><time>2026-04-24T14:41:46.132Z</time></trkpt><trkpt lat="36.2930996" lon="9.9930687"><ele>289.3333333333333</ele><time>2026-04-24T14:41:47.125Z</time></trkpt><trkpt lat="36.2930754" lon="9.9931672"><ele>289.5</ele><time>2026-04-24T14:41:48.143Z</time></trkpt><trkpt lat="36.2930493" lon="9.9932694"><ele>289.6666666666667</ele><time>2026-04-24T14:41:49.11Z</time></trkpt><trkpt lat="36.2930175" lon="9.9933589"><ele>289.83333333333337</ele><time>2026-04-24T14:41:50.146Z</time></trkpt><trkpt lat="36.2929845" lon="9.9934422"><ele>290.0</ele><time>2026-04-24T14:41:51.129Z</time></trkpt><trkpt lat="36.2929509" lon="9.9935357"><ele>291.33333333333337</ele><time>2026-04-24T14:41:52.132Z</time></trkpt><trkpt lat="36.2929141" lon="9.9936248"><ele>292.6666666666667</ele><time>2026-04-24T14:41:53.128Z</time></trkpt><trkpt lat="36.2928774" lon="9.9937129"><ele>294.0</ele><time>2026-04-24T14:41:54.114Z</time></trkpt><trkpt lat="36.2928429" lon="9.9938104"><ele>295.3333333333333</ele><time>2026-04-24T14:41:55.135Z</time></trkpt><trkpt lat="36.2928072" lon="9.9939008"><ele>296.66666666666663</ele><time>2026-04-24T14:41:56.129Z</time></trkpt><trkpt lat="36.2927656" lon="9.9939942"><ele>298.0</ele><time>2026-04-24T14:41:57.12Z</time></trkpt><trkpt lat="36.2927202" lon="9.9940975"><ele>298.16666666666663</ele><time>2026-04-24T14:41:58.126Z</time></trkpt><trkpt lat="36.2926755" lon="9.9941928"><ele>298.3333333333333</ele><time>2026-04-24T14:41:59.118Z</time></trkpt><trkpt lat="36.2926328" lon="9.9942855"><ele>298.5</ele><time>2026-04-24T14:42:00.125Z</time></trkpt><trkpt lat="36.2925816" lon="9.994382"><ele>298.6666666666667</ele><time>2026-04-24T14:42:01.134Z</time></trkpt><trkpt lat="36.2925385" lon="9.994473"><ele>298.83333333333337</ele><time>2026-04-24T14:42:02.144Z</time></trkpt><trkpt lat="36.2924979" lon="9.9945694"><ele>299.0</ele><time>2026-04-24T14:42:03.125Z</time></trkpt><trkpt lat="36.2924614" lon="9.9946713"><ele>299.0</ele><time>2026-04-24T14:42:04.137Z</time></trkpt><trkpt lat="36.2924291" lon="9.9947901"><ele>299.0</ele><time>2026-04-24T14:42:05.133Z</time></trkpt><trkpt lat="36.2924058" lon="9.9949235"><ele>299.0</ele><time>2026-04-24T14:42:06.147Z</time></trkpt><trkpt lat="36.292379" lon="9.9950698"><ele>299.0</ele><time>2026-04-24T14:42:07.136Z</time></trkpt><trkpt lat="36.2923578" lon="9.9952127"><ele>299.0</ele><time>2026-04-24T14:42:08.175Z</time></trkpt><trkpt lat="36.2923342" lon="9.9953443"><ele>298.8</ele><time>2026-04-24T14:42:09.161Z</time></trkpt><trkpt lat="36.2923104" lon="9.995464"><ele>298.59999999999997</ele><time>2026-04-24T14:42:10.139Z</time></trkpt><trkpt lat="36.2922923" lon="9.995584"><ele>298.4</ele><time>2026-04-24T14:42:11.134Z</time></trkpt><trkpt lat="36.2922726" lon="9.9957109"><ele>298.2</ele><time>2026-04-24T14:42:12.126Z</time></trkpt><trkpt lat="36.2922497" lon="9.9958493"><ele>298.0</ele><time>2026-04-24T14:42:13.124Z</time></trkpt><trkpt lat="36.2922207" lon="9.9959952"><ele>299.75</ele><time>2026-04-24T14:42:14.137Z</time></trkpt><trkpt lat="36.2921956" lon="9.99614"><ele>301.5</ele><time>2026-04-24T14:42:15.151Z</time></trkpt><trkpt lat="36.2921644" lon="9.9962981"><ele>303.25</ele><time>2026-04-24T14:42:16.131Z</time></trkpt><trkpt lat="36.2921318" lon="9.9964694"><ele>305.0</ele><time>2026-04-24T14:42:17.13Z</time></trkpt><trkpt lat="36.2920996" lon="9.996675"><ele>305.33333333333337</ele><time>2026-04-24T14:42:18.143Z</time></trkpt><trkpt lat="36.2920712" lon="9.9968716"><ele>305.6666666666667</ele><time>2026-04-24T14:42:19.127Z</time></trkpt><trkpt lat="36.2920416" lon="9.9970714"><ele>306.0</ele><time>2026-04-24T14:42:20.14Z</time></trkpt><trkpt lat="36.2920144" lon="9.997262"><ele>306.0</ele><time>2026-04-24T14:42:21.127Z</time></trkpt><trkpt lat="36.2919782" lon="9.9974487"><ele>306.0</ele><time>2026-04-24T14:42:22.131Z</time></trkpt><trkpt lat="36.2919458" lon="9.997632"><ele>306.0</ele><time>2026-04-24T14:42:23.142Z</time></trkpt><trkpt lat="36.2919154" lon="9.9978051"><ele>306.0</ele><time>2026-04-24T14:42:24.163Z</time></trkpt><trkpt lat="36.2918858" lon="9.9979798"><ele>307.25</ele><time>2026-04-24T14:42:25.13Z</time></trkpt><trkpt lat="36.291858" lon="9.99814"><ele>308.5</ele><time>2026-04-24T14:42:26.124Z</time></trkpt><trkpt lat="36.2918269" lon="9.9983069"><ele>309.75</ele><time>2026-04-24T14:42:27.153Z</time></trkpt><trkpt lat="36.291791" lon="9.9984664"><ele>311.0</ele><time>2026-04-24T14:42:28.127Z</time></trkpt><trkpt lat="36.2917629" lon="9.9986289"><ele>311.25</ele><time>2026-04-24T14:42:29.139Z</time></trkpt><trkpt lat="36.2917293" lon="9.9987909"><ele>311.5</ele><time>2026-04-24T14:42:30.139Z</time></trkpt><trkpt lat="36.291692" lon="9.9989532"><ele>311.75</ele><time>2026-04-24T14:42:31.128Z</time></trkpt><trkpt lat="36.2916529" lon="9.999114"><ele>312.0</ele><time>2026-04-24T14:42:32.116Z</time></trkpt><trkpt lat="36.2916055" lon="9.9992745"><ele>312.0</ele><time>2026-04-24T14:42:33.134Z</time></trkpt><trkpt lat="36.2915563" lon="9.9994345"><ele>312.0</ele><time>2026-04-24T14:42:34.136Z</time></trkpt><trkpt lat="36.2915107" lon="9.9995943"><ele>312.0</ele><time>2026-04-24T14:42:35.132Z</time></trkpt><trkpt lat="36.2914505" lon="9.9997428"><ele>312.0</ele><time>2026-04-24T14:42:36.128Z</time></trkpt><trkpt lat="36.2913963" lon="9.9998914"><ele>313.25</ele><time>2026-04-24T14:42:37.141Z</time></trkpt><trkpt lat="36.2913386" lon="10.0000392"><ele>314.5</ele><time>2026-04-24T14:42:38.131Z</time></trkpt><trkpt lat="36.2912707" lon="10.0001815"><ele>315.75</ele><time>2026-04-24T14:42:39.125Z</time></trkpt><trkpt lat="36.2912018" lon="10.0003202"><ele>317.0</ele><time>2026-04-24T14:42:40.126Z</time></trkpt><trkpt lat="36.2911303" lon="10.000458"><ele>317.0</ele><time>2026-04-24T14:42:41.124Z</time></trkpt><trkpt lat="36.2910545" lon="10.0005909"><ele>317.0</ele><time>2026-04-24T14:42:42.128Z</time></trkpt><trkpt lat="36.2909729" lon="10.0007207"><ele>317.0</ele><time>2026-04-24T14:42:43.141Z</time></trkpt><trkpt lat="36.2908874" lon="10.0008475"><ele>317.0</ele><time>2026-04-24T14:42:44.138Z</time></trkpt><trkpt lat="36.2907965" lon="10.0009793"><ele>317.75</ele><time>2026-04-24T14:42:45.12Z</time></trkpt><trkpt lat="36.2907025" lon="10.0011062"><ele>318.5</ele><time>2026-04-24T14:42:46.121Z</time></trkpt><trkpt lat="36.2906033" lon="10.0012296"><ele>319.25</ele><time>2026-04-24T14:42:47.135Z</time></trkpt><trkpt lat="36.2904956" lon="10.0013459"><ele>320.0</ele><time>2026-04-24T14:42:48.138Z</time></trkpt><trkpt lat="36.2903812" lon="10.0014566"><ele>321.25</ele><time>2026-04-24T14:42:49.136Z</time></trkpt><trkpt lat="36.2902731" lon="10.0015667"><ele>322.5</ele><time>2026-04-24T14:42:50.128Z</time></trkpt><trkpt lat="36.2901621" lon="10.0016786"><ele>323.75</ele><time>2026-04-24T14:42:51.133Z</time></trkpt><trkpt lat="36.2900534" lon="10.0017973"><ele>325.0</ele><time>2026-04-24T14:42:52.13Z</time></trkpt><trkpt lat="36.2899511" lon="10.0019086"><ele>325.0</ele><time>2026-04-24T14:42:53.143Z</time></trkpt><trkpt lat="36.2898461" lon="10.002018"><ele>325.0</ele><time>2026-04-24T14:42:54.136Z</time></trkpt><trkpt lat="36.2897403" lon="10.0021373"><ele>325.0</ele><time>2026-04-24T14:42:55.128Z</time></trkpt><trkpt lat="36.2896234" lon="10.0022626"><ele>325.0</ele><time>2026-04-24T14:42:56.131Z</time></trkpt><trkpt lat="36.2894843" lon="10.0024165"><ele>326.3333333333333</ele><time>2026-04-24T14:42:57.164Z</time></trkpt><trkpt lat="36.2893257" lon="10.0025814"><ele>327.6666666666667</ele><time>2026-04-24T14:42:58.149Z</time></trkpt><trkpt lat="36.2891605" lon="10.0027587"><ele>329.0</ele><time>2026-04-24T14:42:59.133Z</time></trkpt><trkpt lat="36.2889855" lon="10.0029424"><ele>329.6666666666667</ele><time>2026-04-24T14:43:00.121Z</time></trkpt><trkpt lat="36.2888113" lon="10.003121"><ele>330.3333333333333</ele><time>2026-04-24T14:43:01.13Z</time></trkpt><trkpt lat="36.2886405" lon="10.0032949"><ele>331.0</ele><time>2026-04-24T14:43:02.114Z</time></trkpt><trkpt lat="36.2884619" lon="10.0034735"><ele>331.0</ele><time>2026-04-24T14:43:03.139Z</time></trkpt><trkpt lat="36.2882836" lon="10.0036386"><ele>331.0</ele><time>2026-04-24T14:43:04.137Z</time></trkpt><trkpt lat="36.2881072" lon="10.0038045"><ele>331.0</ele><time>2026-04-24T14:43:05.12Z</time></trkpt><trkpt lat="36.2879438" lon="10.0039692"><ele>331.0</ele><time>2026-04-24T14:43:06.129Z</time></trkpt><trkpt lat="36.2877923" lon="10.0041224"><ele>331.0</ele><time>2026-04-24T14:43:07.138Z</time></trkpt><trkpt lat="36.287643" lon="10.0042643"><ele>331.0</ele><time>2026-04-24T14:43:08.139Z</time></trkpt><trkpt lat="36.2874949" lon="10.0043923"><ele>331.66666666666663</ele><time>2026-04-24T14:43:09.166Z</time></trkpt><trkpt lat="36.2873346" lon="10.0045211"><ele>332.3333333333333</ele><time>2026-04-24T14:43:10.143Z</time></trkpt><trkpt lat="36.2871723" lon="10.0046334"><ele>333.0</ele><time>2026-04-24T14:43:11.136Z</time></trkpt><trkpt lat="36.2870038" lon="10.004737"><ele>333.0</ele><time>2026-04-24T14:43:12.121Z</time></trkpt><trkpt lat="36.2868349" lon="10.0048335"><ele>333.0</ele><time>2026-04-24T14:43:13.134Z</time></trkpt><trkpt lat="36.2866665" lon="10.004932"><ele>333.0</ele><time>2026-04-24T14:43:14.125Z</time></trkpt><trkpt lat="36.2865028" lon="10.0050171"><ele>334.0</ele><time>2026-04-24T14:43:15.121Z</time></trkpt><trkpt lat="36.2863383" lon="10.0051105"><ele>335.0</ele><time>2026-04-24T14:43:16.132Z</time></trkpt><trkpt lat="36.2861688" lon="10.0052077"><ele>336.0</ele><time>2026-04-24T14:43:17.112Z</time></trkpt><trkpt lat="36.2860031" lon="10.0053004"><ele>336.0</ele><time>2026-04-24T14:43:18.139Z</time></trkpt><trkpt lat="36.2858374" lon="10.0053942"><ele>336.0</ele><time>2026-04-24T14:43:19.123Z</time></trkpt><trkpt lat="36.2856716" lon="10.005488"><ele>336.0</ele><time>2026-04-24T14:43:20.145Z</time></trkpt><trkpt lat="36.2855064" lon="10.0055788"><ele>334.6666666666667</ele><time>2026-04-24T14:43:21.133Z</time></trkpt><trkpt lat="36.2853368" lon="10.0056673"><ele>333.33333333333337</ele><time>2026-04-24T14:43:22.125Z</time></trkpt><trkpt lat="36.2851696" lon="10.0057564"><ele>332.0</ele><time>2026-04-24T14:43:23.146Z</time></trkpt><trkpt lat="36.2850053" lon="10.0058465"><ele>332.0</ele><time>2026-04-24T14:43:24.146Z</time></trkpt><trkpt lat="36.2848371" lon="10.0059428"><ele>332.0</ele><time>2026-04-24T14:43:25.139Z</time></trkpt><trkpt lat="36.2846723" lon="10.0060351"><ele>332.0</ele><time>2026-04-24T14:43:26.147Z</time></trkpt><trkpt lat="36.2845075" lon="10.0061236"><ele>333.6666666666667</ele><time>2026-04-24T14:43:27.132Z</time></trkpt><trkpt lat="36.2843397" lon="10.0062096"><ele>335.3333333333333</ele><time>2026-04-24T14:43:28.126Z</time></trkpt><trkpt lat="36.2841742" lon="10.0063022"><ele>337.0</ele><time>2026-04-24T14:43:29.125Z</time></trkpt><trkpt lat="36.2840121" lon="10.0063953"><ele>336.66666666666663</ele><time>2026-04-24T14:43:30.145Z</time></trkpt><trkpt lat="36.2838469" lon="10.0064893"><ele>336.3333333333333</ele><time>2026-04-24T14:43:31.127Z</time></trkpt><trkpt lat="36.2836833" lon="10.006575"><ele>336.0</ele><time>2026-04-24T14:43:32.138Z</time></trkpt><trkpt lat="36.2835202" lon="10.006666"><ele>336.0</ele><time>2026-04-24T14:43:33.142Z</time></trkpt><trkpt lat="36.2833587" lon="10.0067551"><ele>336.0</ele><time>2026-04-24T14:43:34.143Z</time></trkpt><trkpt lat="36.2831986" lon="10.006843"><ele>336.0</ele><time>2026-04-24T14:43:35.136Z</time></trkpt><trkpt lat="36.2830457" lon="10.0069326"><ele>337.6666666666667</ele><time>2026-04-24T14:43:36.127Z</time></trkpt><trkpt lat="36.2828842" lon="10.0070183"><ele>339.33333333333337</ele><time>2026-04-24T14:43:37.118Z</time></trkpt><trkpt lat="36.2827258" lon="10.007101"><ele>341.0</ele><time>2026-04-24T14:43:38.133Z</time></trkpt><trkpt lat="36.282564" lon="10.0071826"><ele>341.0</ele><time>2026-04-24T14:43:39.141Z</time></trkpt><trkpt lat="36.2824018" lon="10.0072661"><ele>341.0</ele><time>2026-04-24T14:43:40.146Z</time></trkpt><trkpt lat="36.2822366" lon="10.007361"><ele>341.0</ele><time>2026-04-24T14:43:41.132Z</time></trkpt><trkpt lat="36.2820791" lon="10.0074603"><ele>342.0</ele><time>2026-04-24T14:43:42.128Z</time></trkpt><trkpt lat="36.2819318" lon="10.0075683"><ele>343.0</ele><time>2026-04-24T14:43:43.136Z</time></trkpt><trkpt lat="36.2817876" lon="10.0076725"><ele>344.0</ele><time>2026-04-24T14:43:44.125Z</time></trkpt><trkpt lat="36.281643" lon="10.0077791"><ele>344.0</ele><time>2026-04-24T14:43:45.125Z</time></trkpt><trkpt lat="36.2815034" lon="10.0078864"><ele>344.0</ele><time>2026-04-24T14:43:46.131Z</time></trkpt><trkpt lat="36.2813642" lon="10.0080039"><ele>344.0</ele><time>2026-04-24T14:43:47.124Z</time></trkpt><trkpt lat="36.2812323" lon="10.0081234"><ele>345.0</ele><time>2026-04-24T14:43:48.154Z</time></trkpt><trkpt lat="36.2811038" lon="10.0082499"><ele>346.0</ele><time>2026-04-24T14:43:49.128Z</time></trkpt><trkpt lat="36.2809747" lon="10.0083882"><ele>347.0</ele><time>2026-04-24T14:43:50.121Z</time></trkpt><trkpt lat="36.2808573" lon="10.0085308"><ele>347.0</ele><time>2026-04-24T14:43:51.128Z</time></trkpt><trkpt lat="36.2807341" lon="10.0086731"><ele>347.0</ele><time>2026-04-24T14:43:52.125Z</time></trkpt><trkpt lat="36.2806114" lon="10.0088204"><ele>347.0</ele><time>2026-04-24T14:43:53.129Z</time></trkpt><trkpt lat="36.2804933" lon="10.0089676"><ele>347.6666666666667</ele><time>2026-04-24T14:43:54.135Z</time></trkpt><trkpt lat="36.2803732" lon="10.0091171"><ele>348.3333333333333</ele><time>2026-04-24T14:43:55.122Z</time></trkpt><trkpt lat="36.2802483" lon="10.0092578"><ele>349.0</ele><time>2026-04-24T14:43:56.12Z</time></trkpt><trkpt lat="36.2801233" lon="10.009405"><ele>349.0</ele><time>2026-04-24T14:43:57.139Z</time></trkpt><trkpt lat="36.2800026" lon="10.0095542"><ele>349.0</ele><time>2026-04-24T14:43:58.13Z</time></trkpt><trkpt lat="36.2798826" lon="10.0097011"><ele>349.0</ele><time>2026-04-24T14:43:59.136Z</time></trkpt><trkpt lat="36.2797643" lon="10.0098472"><ele>349.3333333333333</ele><time>2026-04-24T14:44:00.133Z</time></trkpt><trkpt lat="36.2796457" lon="10.0099935"><ele>349.6666666666667</ele><time>2026-04-24T14:44:01.116Z</time></trkpt><trkpt lat="36.2795259" lon="10.0101433"><ele>350.0</ele><time>2026-04-24T14:44:02.13Z</time></trkpt><trkpt lat="36.2794137" lon="10.0102917"><ele>350.0</ele><time>2026-04-24T14:44:03.145Z</time></trkpt><trkpt lat="36.2793028" lon="10.0104363"><ele>350.0</ele><time>2026-04-24T14:44:04.135Z</time></trkpt><trkpt lat="36.2791916" lon="10.0105781"><ele>350.0</ele><time>2026-04-24T14:44:05.134Z</time></trkpt><trkpt lat="36.2790827" lon="10.0107192"><ele>349.0</ele><time>2026-04-24T14:44:06.119Z</time></trkpt><trkpt lat="36.2789704" lon="10.0108545"><ele>348.0</ele><time>2026-04-24T14:44:07.132Z</time></trkpt><trkpt lat="36.2788585" lon="10.0109887"><ele>347.0</ele><time>2026-04-24T14:44:08.139Z</time></trkpt><trkpt lat="36.2787492" lon="10.0111188"><ele>349.0</ele><time>2026-04-24T14:44:09.131Z</time></trkpt><trkpt lat="36.2786415" lon="10.0112503"><ele>351.0</ele><time>2026-04-24T14:44:10.129Z</time></trkpt><trkpt lat="36.2785401" lon="10.0113794"><ele>353.0</ele><time>2026-04-24T14:44:11.116Z</time></trkpt><trkpt lat="36.2784368" lon="10.0115145"><ele>355.0</ele><time>2026-04-24T14:44:12.13Z</time></trkpt><trkpt lat="36.2783347" lon="10.0116405"><ele>355.0</ele><time>2026-04-24T14:44:13.136Z</time></trkpt><trkpt lat="36.2782363" lon="10.0117673"><ele>355.0</ele><time>2026-04-24T14:44:14.129Z</time></trkpt><trkpt lat="36.2781337" lon="10.0118924"><ele>355.0</ele><time>2026-04-24T14:44:15.128Z</time></trkpt><trkpt lat="36.2780291" lon="10.0120209"><ele>355.0</ele><time>2026-04-24T14:44:16.118Z</time></trkpt><trkpt lat="36.2779308" lon="10.0121458"><ele>355.0</ele><time>2026-04-24T14:44:17.132Z</time></trkpt><trkpt lat="36.2778305" lon="10.01227"><ele>355.0</ele><time>2026-04-24T14:44:18.139Z</time></trkpt><trkpt lat="36.2777311" lon="10.0123961"><ele>355.0</ele><time>2026-04-24T14:44:19.135Z</time></trkpt><trkpt lat="36.2776278" lon="10.0125195"><ele>355.0</ele><time>2026-04-24T14:44:20.143Z</time></trkpt><trkpt lat="36.2775327" lon="10.0126469"><ele>354.25</ele><time>2026-04-24T14:44:21.11Z</time></trkpt><trkpt lat="36.2774283" lon="10.0127786"><ele>353.5</ele><time>2026-04-24T14:44:22.14Z</time></trkpt><trkpt lat="36.2773277" lon="10.0129077"><ele>352.75</ele><time>2026-04-24T14:44:23.137Z</time></trkpt><trkpt lat="36.2772274" lon="10.0130333"><ele>352.0</ele><time>2026-04-24T14:44:24.126Z</time></trkpt><trkpt lat="36.2771311" lon="10.0131494"><ele>353.0</ele><time>2026-04-24T14:44:25.133Z</time></trkpt><trkpt lat="36.2770362" lon="10.0132625"><ele>354.0</ele><time>2026-04-24T14:44:26.143Z</time></trkpt><trkpt lat="36.2769464" lon="10.0133719"><ele>355.0</ele><time>2026-04-24T14:44:27.154Z</time></trkpt><trkpt lat="36.2768656" lon="10.0134784"><ele>356.0</ele><time>2026-04-24T14:44:28.129Z</time></trkpt><trkpt lat="36.2767856" lon="10.0135808"><ele>356.0</ele><time>2026-04-24T14:44:29.135Z</time></trkpt><trkpt lat="36.2767096" lon="10.0136774"><ele>356.0</ele><time>2026-04-24T14:44:30.129Z</time></trkpt><trkpt lat="36.2766336" lon="10.0137714"><ele>356.0</ele><time>2026-04-24T14:44:31.138Z</time></trkpt><trkpt lat="36.2765542" lon="10.0138722"><ele>356.0</ele><time>2026-04-24T14:44:32.141Z</time></trkpt><trkpt lat="36.2764697" lon="10.0139774"><ele>356.0</ele><time>2026-04-24T14:44:33.135Z</time></trkpt><trkpt lat="36.2763823" lon="10.0140858"><ele>356.25</ele><time>2026-04-24T14:44:34.13Z</time></trkpt><trkpt lat="36.2762922" lon="10.0141971"><ele>356.5</ele><time>2026-04-24T14:44:35.129Z</time></trkpt><trkpt lat="36.2761929" lon="10.0143203"><ele>356.75</ele><time>2026-04-24T14:44:36.137Z</time></trkpt><trkpt lat="36.2760954" lon="10.0144399"><ele>357.0</ele><time>2026-04-24T14:44:37.148Z</time></trkpt><trkpt lat="36.2759949" lon="10.0145653"><ele>357.0</ele><time>2026-04-24T14:44:38.126Z</time></trkpt><trkpt lat="36.2758931" lon="10.0146933"><ele>357.0</ele><time>2026-04-24T14:44:39.112Z</time></trkpt><trkpt lat="36.2757902" lon="10.0148254"><ele>357.0</ele><time>2026-04-24T14:44:40.137Z</time></trkpt><trkpt lat="36.275687" lon="10.0149583"><ele>357.0</ele><time>2026-04-24T14:44:41.125Z</time></trkpt><trkpt lat="36.2755761" lon="10.0150839"><ele>357.75</ele><time>2026-04-24T14:44:42.143Z</time></trkpt><trkpt lat="36.275463" lon="10.0152055"><ele>358.5</ele><time>2026-04-24T14:44:43.132Z</time></trkpt><trkpt lat="36.2753501" lon="10.0153214"><ele>359.25</ele><time>2026-04-24T14:44:44.114Z</time></trkpt><trkpt lat="36.2752338" lon="10.0154399"><ele>360.0</ele><time>2026-04-24T14:44:45.132Z</time></trkpt><trkpt lat="36.2751195" lon="10.01556"><ele>360.0</ele><time>2026-04-24T14:44:46.137Z</time></trkpt><trkpt lat="36.2750067" lon="10.01568"><ele>360.0</ele><time>2026-04-24T14:44:47.131Z</time></trkpt><trkpt lat="36.2748932" lon="10.0157912"><ele>360.0</ele><time>2026-04-24T14:44:48.129Z</time></trkpt><trkpt lat="36.2747763" lon="10.0159019"><ele>360.0</ele><time>2026-04-24T14:44:49.122Z</time></trkpt><trkpt lat="36.27466" lon="10.0160092"><ele>360.25</ele><time>2026-04-24T14:44:50.12Z</time></trkpt><trkpt lat="36.2745421" lon="10.016117"><ele>360.5</ele><time>2026-04-24T14:44:51.14Z</time></trkpt><trkpt lat="36.2744247" lon="10.0162218"><ele>360.75</ele><time>2026-04-24T14:44:52.129Z</time></trkpt><trkpt lat="36.2743017" lon="10.0163139"><ele>361.0</ele><time>2026-04-24T14:44:53.127Z</time></trkpt><trkpt lat="36.2741834" lon="10.0163994"><ele>361.0</ele><time>2026-04-24T14:44:54.128Z</time></trkpt><trkpt lat="36.2740564" lon="10.0164705"><ele>361.0</ele><time>2026-04-24T14:44:55.135Z</time></trkpt><trkpt lat="36.2739228" lon="10.0165389"><ele>361.0</ele><time>2026-04-24T14:44:56.235Z</time></trkpt><trkpt lat="36.2737856" lon="10.0166047"><ele>361.0</ele><time>2026-04-24T14:44:57.164Z</time></trkpt><trkpt lat="36.2736452" lon="10.0166692"><ele>361.0</ele><time>2026-04-24T14:44:58.172Z</time></trkpt><trkpt lat="36.2734994" lon="10.0167195"><ele>361.0</ele><time>2026-04-24T14:44:59.174Z</time></trkpt><trkpt lat="36.273347" lon="10.0167741"><ele>361.0</ele><time>2026-04-24T14:45:00.167Z</time></trkpt><trkpt lat="36.2731908" lon="10.0168247"><ele>360.66666666666663</ele><time>2026-04-24T14:45:01.173Z</time></trkpt><trkpt lat="36.273032" lon="10.0168744"><ele>360.3333333333333</ele><time>2026-04-24T14:45:02.177Z</time></trkpt><trkpt lat="36.2728643" lon="10.0169239"><ele>360.0</ele><time>2026-04-24T14:45:03.178Z</time></trkpt><trkpt lat="36.2726919" lon="10.0169753"><ele>360.0</ele><time>2026-04-24T14:45:04.176Z</time></trkpt><trkpt lat="36.2725237" lon="10.017023"><ele>360.0</ele><time>2026-04-24T14:45:05.186Z</time></trkpt><trkpt lat="36.2723494" lon="10.0170728"><ele>360.0</ele><time>2026-04-24T14:45:06.172Z</time></trkpt><trkpt lat="36.2721774" lon="10.0171199"><ele>360.3333333333333</ele><time>2026-04-24T14:45:07.156Z</time></trkpt><trkpt lat="36.2719974" lon="10.0171701"><ele>360.66666666666663</ele><time>2026-04-24T14:45:08.172Z</time></trkpt><trkpt lat="36.271811" lon="10.0172231"><ele>361.0</ele><time>2026-04-24T14:45:09.17Z</time></trkpt><trkpt lat="36.2716176" lon="10.0172791"><ele>360.66666666666663</ele><time>2026-04-24T14:45:10.166Z</time></trkpt><trkpt lat="36.2714234" lon="10.0173391"><ele>360.3333333333333</ele><time>2026-04-24T14:45:11.178Z</time></trkpt><trkpt lat="36.2712277" lon="10.0173881"><ele>360.0</ele><time>2026-04-24T14:45:12.178Z</time></trkpt><trkpt lat="36.2710282" lon="10.0174446"><ele>359.3333333333333</ele><time>2026-04-24T14:45:13.176Z</time></trkpt><trkpt lat="36.2708326" lon="10.0174998"><ele>358.66666666666663</ele><time>2026-04-24T14:45:14.191Z</time></trkpt><trkpt lat="36.2706371" lon="10.0175608"><ele>358.0</ele><time>2026-04-24T14:45:15.182Z</time></trkpt><trkpt lat="36.2704391" lon="10.017618"><ele>359.3333333333333</ele><time>2026-04-24T14:45:16.165Z</time></trkpt><trkpt lat="36.2702382" lon="10.0176684"><ele>360.6666666666667</ele><time>2026-04-24T14:45:17.18Z</time></trkpt><trkpt lat="36.2700417" lon="10.0177303"><ele>362.0</ele><time>2026-04-24T14:45:18.173Z</time></trkpt><trkpt lat="36.2698485" lon="10.0177828"><ele>363.6666666666667</ele><time>2026-04-24T14:45:19.165Z</time></trkpt><trkpt lat="36.2696519" lon="10.0178291"><ele>365.3333333333333</ele><time>2026-04-24T14:45:20.172Z</time></trkpt><trkpt lat="36.2694555" lon="10.0178824"><ele>367.0</ele><time>2026-04-24T14:45:21.175Z</time></trkpt><trkpt lat="36.2692591" lon="10.0179306"><ele>367.0</ele><time>2026-04-24T14:45:22.179Z</time></trkpt><trkpt lat="36.2690638" lon="10.0179845"><ele>367.0</ele><time>2026-04-24T14:45:23.179Z</time></trkpt><trkpt lat="36.2688681" lon="10.0180394"><ele>367.0</ele><time>2026-04-24T14:45:24.174Z</time></trkpt><trkpt lat="36.2686726" lon="10.0180964"><ele>367.66666666666663</ele><time>2026-04-24T14:45:25.194Z</time></trkpt><trkpt lat="36.26847" lon="10.0181507"><ele>368.3333333333333</ele><time>2026-04-24T14:45:26.169Z</time></trkpt><trkpt lat="36.268273" lon="10.0182059"><ele>369.0</ele><time>2026-04-24T14:45:27.187Z</time></trkpt><trkpt lat="36.2680779" lon="10.0182611"><ele>368.6666666666667</ele><time>2026-04-24T14:45:28.182Z</time></trkpt><trkpt lat="36.2678864" lon="10.0183181"><ele>368.33333333333337</ele><time>2026-04-24T14:45:29.163Z</time></trkpt><trkpt lat="36.2676956" lon="10.0183728"><ele>368.0</ele><time>2026-04-24T14:45:30.176Z</time></trkpt><trkpt lat="36.2675066" lon="10.0184231"><ele>368.0</ele><time>2026-04-24T14:45:31.171Z</time></trkpt><trkpt lat="36.2673144" lon="10.0184704"><ele>368.0</ele><time>2026-04-24T14:45:32.169Z</time></trkpt><trkpt lat="36.2671229" lon="10.0185108"><ele>368.0</ele><time>2026-04-24T14:45:33.173Z</time></trkpt><trkpt lat="36.2669337" lon="10.0185425"><ele>368.0</ele><time>2026-04-24T14:45:34.173Z</time></trkpt><trkpt lat="36.2667452" lon="10.0185659"><ele>368.0</ele><time>2026-04-24T14:45:35.199Z</time></trkpt><trkpt lat="36.2665563" lon="10.0185885"><ele>368.0</ele><time>2026-04-24T14:45:36.181Z</time></trkpt><trkpt lat="36.2663666" lon="10.0186062"><ele>367.6666666666667</ele><time>2026-04-24T14:45:37.176Z</time></trkpt><trkpt lat="36.2661748" lon="10.0186207"><ele>367.3333333333333</ele><time>2026-04-24T14:45:38.171Z</time></trkpt><trkpt lat="36.2659823" lon="10.018625"><ele>367.0</ele><time>2026-04-24T14:45:39.177Z</time></trkpt><trkpt lat="36.2657904" lon="10.0186277"><ele>365.0</ele><time>2026-04-24T14:45:40.184Z</time></trkpt><trkpt lat="36.2655991" lon="10.0186265"><ele>363.0</ele><time>2026-04-24T14:45:41.174Z</time></trkpt><trkpt lat="36.2654097" lon="10.0186217"><ele>361.0</ele><time>2026-04-24T14:45:42.175Z</time></trkpt><trkpt lat="36.2652177" lon="10.0186077"><ele>361.0</ele><time>2026-04-24T14:45:43.175Z</time></trkpt><trkpt lat="36.265023" lon="10.0185837"><ele>361.0</ele><time>2026-04-24T14:45:44.182Z</time></trkpt><trkpt lat="36.2648305" lon="10.0185541"><ele>361.0</ele><time>2026-04-24T14:45:45.182Z</time></trkpt><trkpt lat="36.2646404" lon="10.018521"><ele>360.3333333333333</ele><time>2026-04-24T14:45:46.179Z</time></trkpt><trkpt lat="36.2644504" lon="10.0184899"><ele>359.6666666666667</ele><time>2026-04-24T14:45:47.179Z</time></trkpt><trkpt lat="36.2642596" lon="10.0184594"><ele>359.0</ele><time>2026-04-24T14:45:48.188Z</time></trkpt><trkpt lat="36.2640681" lon="10.0184276"><ele>358.6666666666667</ele><time>2026-04-24T14:45:49.176Z</time></trkpt><trkpt lat="36.263878" lon="10.0183955"><ele>358.3333333333333</ele><time>2026-04-24T14:45:50.19Z</time></trkpt><trkpt lat="36.2636878" lon="10.0183638"><ele>358.0</ele><time>2026-04-24T14:45:51.168Z</time></trkpt><trkpt lat="36.2634978" lon="10.0183324"><ele>359.66666666666663</ele><time>2026-04-24T14:45:52.177Z</time></trkpt><trkpt lat="36.2633069" lon="10.0183011"><ele>361.3333333333333</ele><time>2026-04-24T14:45:53.179Z</time></trkpt><trkpt lat="36.2631175" lon="10.0182671"><ele>363.0</ele><time>2026-04-24T14:45:54.192Z</time></trkpt><trkpt lat="36.2629272" lon="10.0182352"><ele>363.0</ele><time>2026-04-24T14:45:55.206Z</time></trkpt><trkpt lat="36.2627365" lon="10.0182014"><ele>363.0</ele><time>2026-04-24T14:45:56.176Z</time></trkpt><trkpt lat="36.2625453" lon="10.0181713"><ele>363.0</ele><time>2026-04-24T14:45:57.163Z</time></trkpt><trkpt lat="36.2623536" lon="10.0181414"><ele>362.6666666666667</ele><time>2026-04-24T14:45:58.188Z</time></trkpt><trkpt lat="36.2621632" lon="10.0181119"><ele>362.33333333333337</ele><time>2026-04-24T14:45:59.177Z</time></trkpt><trkpt lat="36.2619708" lon="10.0180803"><ele>362.0</ele><time>2026-04-24T14:46:00.173Z</time></trkpt><trkpt lat="36.2617781" lon="10.01805"><ele>362.0</ele><time>2026-04-24T14:46:01.176Z</time></trkpt><trkpt lat="36.2615886" lon="10.0180162"><ele>362.0</ele><time>2026-04-24T14:46:02.174Z</time></trkpt><trkpt lat="36.2613972" lon="10.0179848"><ele>362.0</ele><time>2026-04-24T14:46:03.168Z</time></trkpt><trkpt lat="36.2612089" lon="10.0179493"><ele>361.0</ele><time>2026-04-24T14:46:04.168Z</time></trkpt><trkpt lat="36.2610185" lon="10.0179165"><ele>360.0</ele><time>2026-04-24T14:46:05.187Z</time></trkpt><trkpt lat="36.2608293" lon="10.0178861"><ele>359.0</ele><time>2026-04-24T14:46:06.182Z</time></trkpt><trkpt lat="36.2606376" lon="10.017857"><ele>357.6666666666667</ele><time>2026-04-24T14:46:07.172Z</time></trkpt><trkpt lat="36.2604475" lon="10.0178291"><ele>356.3333333333333</ele><time>2026-04-24T14:46:08.182Z</time></trkpt><trkpt lat="36.260259" lon="10.0178045"><ele>355.0</ele><time>2026-04-24T14:46:09.183Z</time></trkpt><trkpt lat="36.260071" lon="10.0177773"><ele>355.0</ele><time>2026-04-24T14:46:10.19Z</time></trkpt><trkpt lat="36.2598809" lon="10.017746"><ele>355.0</ele><time>2026-04-24T14:46:11.18Z</time></trkpt><trkpt lat="36.2596878" lon="10.0177132"><ele>355.0</ele><time>2026-04-24T14:46:12.182Z</time></trkpt><trkpt lat="36.2594951" lon="10.0176807"><ele>355.3333333333333</ele><time>2026-04-24T14:46:13.194Z</time></trkpt><trkpt lat="36.2593046" lon="10.0176447"><ele>355.6666666666667</ele><time>2026-04-24T14:46:14.175Z</time></trkpt><trkpt lat="36.2591114" lon="10.0176145"><ele>356.0</ele><time>2026-04-24T14:46:15.177Z</time></trkpt><trkpt lat="36.2589202" lon="10.0175837"><ele>355.33333333333337</ele><time>2026-04-24T14:46:16.172Z</time></trkpt><trkpt lat="36.2587266" lon="10.0175505"><ele>354.6666666666667</ele><time>2026-04-24T14:46:17.179Z</time></trkpt><trkpt lat="36.2585359" lon="10.0175184"><ele>354.0</ele><time>2026-04-24T14:46:18.183Z</time></trkpt><trkpt lat="36.2583458" lon="10.017488"><ele>354.3333333333333</ele><time>2026-04-24T14:46:19.163Z</time></trkpt><trkpt lat="36.2581562" lon="10.0174532"><ele>354.66666666666663</ele><time>2026-04-24T14:46:20.175Z</time></trkpt><trkpt lat="36.2579664" lon="10.0174199"><ele>355.0</ele><time>2026-04-24T14:46:21.173Z</time></trkpt><trkpt lat="36.2577756" lon="10.0173883"><ele>355.0</ele><time>2026-04-24T14:46:22.171Z</time></trkpt><trkpt lat="36.2575828" lon="10.0173558"><ele>355.0</ele><time>2026-04-24T14:46:23.185Z</time></trkpt><trkpt lat="36.2573884" lon="10.0173229"><ele>355.0</ele><time>2026-04-24T14:46:24.174Z</time></trkpt><trkpt lat="36.2571969" lon="10.0172931"><ele>354.66666666666663</ele><time>2026-04-24T14:46:25.183Z</time></trkpt><trkpt lat="36.2570029" lon="10.0172644"><ele>354.3333333333333</ele><time>2026-04-24T14:46:26.182Z</time></trkpt><trkpt lat="36.2568123" lon="10.0172431"><ele>354.0</ele><time>2026-04-24T14:46:27.185Z</time></trkpt><trkpt lat="36.2566201" lon="10.0172308"><ele>353.6666666666667</ele><time>2026-04-24T14:46:28.184Z</time></trkpt><trkpt lat="36.2564267" lon="10.0172293"><ele>353.33333333333337</ele><time>2026-04-24T14:46:29.176Z</time></trkpt><trkpt lat="36.256235" lon="10.0172333"><ele>353.0</ele><time>2026-04-24T14:46:30.185Z</time></trkpt><trkpt lat="36.2560445" lon="10.0172473"><ele>353.0</ele><time>2026-04-24T14:46:31.173Z</time></trkpt><trkpt lat="36.2558555" lon="10.0172708"><ele>353.0</ele><time>2026-04-24T14:46:32.183Z</time></trkpt><trkpt lat="36.2556622" lon="10.0173053"><ele>353.0</ele><time>2026-04-24T14:46:33.179Z</time></trkpt><trkpt lat="36.25547" lon="10.0173471"><ele>351.6666666666667</ele><time>2026-04-24T14:46:34.182Z</time></trkpt><trkpt lat="36.2552773" lon="10.0173942"><ele>350.3333333333333</ele><time>2026-04-24T14:46:35.192Z</time></trkpt><trkpt lat="36.2550831" lon="10.0174461"><ele>349.0</ele><time>2026-04-24T14:46:36.175Z</time></trkpt><trkpt lat="36.2548921" lon="10.0174993"><ele>350.0</ele><time>2026-04-24T14:46:37.188Z</time></trkpt><trkpt lat="36.2547071" lon="10.017548"><ele>351.0</ele><time>2026-04-24T14:46:38.18Z</time></trkpt><trkpt lat="36.2545214" lon="10.0175952"><ele>352.0</ele><time>2026-04-24T14:46:39.175Z</time></trkpt><trkpt lat="36.2543376" lon="10.0176405"><ele>352.0</ele><time>2026-04-24T14:46:40.176Z</time></trkpt><trkpt lat="36.254153" lon="10.0176871"><ele>352.0</ele><time>2026-04-24T14:46:41.19Z</time></trkpt><trkpt lat="36.253966" lon="10.0177365"><ele>352.0</ele><time>2026-04-24T14:46:42.18Z</time></trkpt><trkpt lat="36.2537754" lon="10.0177868"><ele>353.0</ele><time>2026-04-24T14:46:43.179Z</time></trkpt><trkpt lat="36.2535843" lon="10.0178378"><ele>354.0</ele><time>2026-04-24T14:46:44.176Z</time></trkpt><trkpt lat="36.2533918" lon="10.0178912"><ele>355.0</ele><time>2026-04-24T14:46:45.176Z</time></trkpt><trkpt lat="36.2531988" lon="10.0179446"><ele>353.0</ele><time>2026-04-24T14:46:46.183Z</time></trkpt><trkpt lat="36.2530057" lon="10.0180015"><ele>351.0</ele><time>2026-04-24T14:46:47.156Z</time></trkpt><trkpt lat="36.252814" lon="10.0180578"><ele>349.0</ele><time>2026-04-24T14:46:48.187Z</time></trkpt><trkpt lat="36.2526216" lon="10.0181137"><ele>349.0</ele><time>2026-04-24T14:46:49.177Z</time></trkpt><trkpt lat="36.2524327" lon="10.0181634"><ele>349.0</ele><time>2026-04-24T14:46:50.173Z</time></trkpt><trkpt lat="36.2522434" lon="10.0182108"><ele>349.0</ele><time>2026-04-24T14:46:51.185Z</time></trkpt><trkpt lat="36.2520533" lon="10.018259"><ele>347.0</ele><time>2026-04-24T14:46:52.181Z</time></trkpt><trkpt lat="36.2518613" lon="10.018303"><ele>345.0</ele><time>2026-04-24T14:46:53.184Z</time></trkpt><trkpt lat="36.2516708" lon="10.0183507"><ele>343.0</ele><time>2026-04-24T14:46:54.176Z</time></trkpt><trkpt lat="36.2514826" lon="10.0183997"><ele>341.66666666666663</ele><time>2026-04-24T14:46:55.179Z</time></trkpt><trkpt lat="36.2512973" lon="10.0184486"><ele>340.3333333333333</ele><time>2026-04-24T14:46:56.195Z</time></trkpt><trkpt lat="36.2511127" lon="10.0185007"><ele>339.0</ele><time>2026-04-24T14:46:57.177Z</time></trkpt><trkpt lat="36.2509271" lon="10.0185513"><ele>339.0</ele><time>2026-04-24T14:46:58.178Z</time></trkpt><trkpt lat="36.250751" lon="10.0185942"><ele>339.0</ele><time>2026-04-24T14:46:59.174Z</time></trkpt><trkpt lat="36.2505852" lon="10.0186354"><ele>339.0</ele><time>2026-04-24T14:47:00.166Z</time></trkpt><trkpt lat="36.2504378" lon="10.0186705"><ele>340.25</ele><time>2026-04-24T14:47:01.176Z</time></trkpt><trkpt lat="36.2503058" lon="10.0187043"><ele>341.5</ele><time>2026-04-24T14:47:02.195Z</time></trkpt><trkpt lat="36.25019" lon="10.0187342"><ele>342.75</ele><time>2026-04-24T14:47:03.164Z</time></trkpt><trkpt lat="36.2500878" lon="10.0187623"><ele>344.0</ele><time>2026-04-24T14:47:04.166Z</time></trkpt><trkpt lat="36.2499925" lon="10.0187867"><ele>344.0</ele><time>2026-04-24T14:47:05.19Z</time></trkpt><trkpt lat="36.249906" lon="10.0188117"><ele>344.0</ele><time>2026-04-24T14:47:06.185Z</time></trkpt><trkpt lat="36.2498171" lon="10.0188356"><ele>344.0</ele><time>2026-04-24T14:47:07.169Z</time></trkpt><trkpt lat="36.24972" lon="10.0188643"><ele>344.0</ele><time>2026-04-24T14:47:08.185Z</time></trkpt><trkpt lat="36.2496145" lon="10.0188981"><ele>344.0</ele><time>2026-04-24T14:47:09.192Z</time></trkpt><trkpt lat="36.2494972" lon="10.0189322"><ele>344.0</ele><time>2026-04-24T14:47:10.202Z</time></trkpt><trkpt lat="36.2493668" lon="10.018964"><ele>344.0</ele><time>2026-04-24T14:47:11.187Z</time></trkpt><trkpt lat="36.2492242" lon="10.0189947"><ele>344.0</ele><time>2026-04-24T14:47:12.168Z</time></trkpt><trkpt lat="36.2490752" lon="10.0190289"><ele>344.0</ele><time>2026-04-24T14:47:13.174Z</time></trkpt><trkpt lat="36.248922" lon="10.0190671"><ele>344.0</ele><time>2026-04-24T14:47:14.164Z</time></trkpt><trkpt lat="36.2487658" lon="10.0191054"><ele>344.0</ele><time>2026-04-24T14:47:15.19Z</time></trkpt><trkpt lat="36.2486034" lon="10.0191407"><ele>344.0</ele><time>2026-04-24T14:47:16.171Z</time></trkpt><trkpt lat="36.2484412" lon="10.0191796"><ele>343.0</ele><time>2026-04-24T14:47:17.184Z</time></trkpt><trkpt lat="36.2482868" lon="10.0192162"><ele>342.0</ele><time>2026-04-24T14:47:18.182Z</time></trkpt><trkpt lat="36.2481394" lon="10.0192526"><ele>341.0</ele><time>2026-04-24T14:47:19.172Z</time></trkpt><trkpt lat="36.2479938" lon="10.0192909"><ele>338.75</ele><time>2026-04-24T14:47:20.183Z</time></trkpt><trkpt lat="36.2478501" lon="10.0193278"><ele>336.5</ele><time>2026-04-24T14:47:21.184Z</time></trkpt><trkpt lat="36.2477117" lon="10.0193638"><ele>334.25</ele><time>2026-04-24T14:47:22.169Z</time></trkpt><trkpt lat="36.2475768" lon="10.0194006"><ele>332.0</ele><time>2026-04-24T14:47:23.181Z</time></trkpt><trkpt lat="36.2474437" lon="10.0194379"><ele>332.0</ele><time>2026-04-24T14:47:24.188Z</time></trkpt><trkpt lat="36.2473161" lon="10.0194772"><ele>332.0</ele><time>2026-04-24T14:47:25.189Z</time></trkpt><trkpt lat="36.247192" lon="10.0195275"><ele>332.0</ele><time>2026-04-24T14:47:26.179Z</time></trkpt><trkpt lat="36.2470735" lon="10.0195847"><ele>332.0</ele><time>2026-04-24T14:47:27.182Z</time></trkpt><trkpt lat="36.2469622" lon="10.0196421"><ele>329.6</ele><time>2026-04-24T14:47:28.187Z</time></trkpt><trkpt lat="36.2468594" lon="10.0196959"><ele>327.20000000000005</ele><time>2026-04-24T14:47:29.186Z</time></trkpt><trkpt lat="36.2467622" lon="10.0197499"><ele>324.8</ele><time>2026-04-24T14:47:30.169Z</time></trkpt><trkpt lat="36.2466763" lon="10.0198017"><ele>322.4</ele><time>2026-04-24T14:47:31.182Z</time></trkpt><trkpt lat="36.2466002" lon="10.0198478"><ele>320.0</ele><time>2026-04-24T14:47:32.169Z</time></trkpt><trkpt lat="36.2465302" lon="10.0198942"><ele>320.0</ele><time>2026-04-24T14:47:33.184Z</time></trkpt><trkpt lat="36.2464681" lon="10.0199411"><ele>320.0</ele><time>2026-04-24T14:47:34.168Z</time></trkpt><trkpt lat="36.2464165" lon="10.0199882"><ele>320.0</ele><time>2026-04-24T14:47:35.192Z</time></trkpt><trkpt lat="36.2463264" lon="10.0200763"><ele>320.0</ele><time>2026-04-24T14:47:37.175Z</time></trkpt><trkpt lat="36.2462445" lon="10.0201539"><ele>320.0</ele><time>2026-04-24T14:47:39.176Z</time></trkpt><trkpt lat="36.2461723" lon="10.020223"><ele>320.0</ele><time>2026-04-24T14:47:41.181Z</time></trkpt><trkpt lat="36.2461066" lon="10.0202911"><ele>319.6666666666667</ele><time>2026-04-24T14:47:43.175Z</time></trkpt><trkpt lat="36.2460545" lon="10.0203507"><ele>319.33333333333337</ele><time>2026-04-24T14:47:45.176Z</time></trkpt><trkpt lat="36.2460023" lon="10.0204037"><ele>319.0</ele><time>2026-04-24T14:47:47.195Z</time></trkpt><trkpt lat="36.2459528" lon="10.0204621"><ele>318.6666666666667</ele><time>2026-04-24T14:47:49.166Z</time></trkpt><trkpt lat="36.2459067" lon="10.0205155"><ele>318.3333333333333</ele><time>2026-04-24T14:47:51.176Z</time></trkpt><trkpt lat="36.245796" lon="10.0206791"><ele>318.0</ele><time>2026-04-24T14:55:42.092Z</time></trkpt><trkpt lat="36.2457251" lon="10.020756"><ele>319.1666666666667</ele><time>2026-04-24T14:55:44.092Z</time></trkpt><trkpt lat="36.2456364" lon="10.0208548"><ele>320.3333333333333</ele><time>2026-04-24T14:55:46.099Z</time></trkpt><trkpt lat="36.245583" lon="10.0209133"><ele>321.5</ele><time>2026-04-24T14:55:47.097Z</time></trkpt><trkpt lat="36.2455288" lon="10.0209765"><ele>322.66666666666663</ele><time>2026-04-24T14:55:48.118Z</time></trkpt><trkpt lat="36.2454702" lon="10.0210427"><ele>323.8333333333333</ele><time>2026-04-24T14:55:49.103Z</time></trkpt><trkpt lat="36.2454065" lon="10.0211191"><ele>325.0</ele><time>2026-04-24T14:55:50.104Z</time></trkpt><trkpt lat="36.2453329" lon="10.0212024"><ele>323.0</ele><time>2026-04-24T14:55:51.146Z</time></trkpt><trkpt lat="36.2452609" lon="10.0212861"><ele>321.0</ele><time>2026-04-24T14:55:52.092Z</time></trkpt><trkpt lat="36.2451829" lon="10.0213748"><ele>319.0</ele><time>2026-04-24T14:55:53.092Z</time></trkpt><trkpt lat="36.2451013" lon="10.0214641"><ele>317.0</ele><time>2026-04-24T14:55:54.103Z</time></trkpt><trkpt lat="36.2450212" lon="10.0215577"><ele>315.0</ele><time>2026-04-24T14:55:55.092Z</time></trkpt><trkpt lat="36.2449396" lon="10.0216547"><ele>315.0</ele><time>2026-04-24T14:55:56.145Z</time></trkpt><trkpt lat="36.2448528" lon="10.0217507"><ele>315.0</ele><time>2026-04-24T14:55:57.093Z</time></trkpt><trkpt lat="36.244768" lon="10.0218531"><ele>315.0</ele><time>2026-04-24T14:55:58.109Z</time></trkpt><trkpt lat="36.2446801" lon="10.0219512"><ele>315.0</ele><time>2026-04-24T14:55:59.129Z</time></trkpt><trkpt lat="36.2445881" lon="10.0220547"><ele>313.5</ele><time>2026-04-24T14:56:00.118Z</time></trkpt><trkpt lat="36.2444977" lon="10.0221589"><ele>312.0</ele><time>2026-04-24T14:56:01.144Z</time></trkpt><trkpt lat="36.244406" lon="10.0222643"><ele>310.5</ele><time>2026-04-24T14:56:02.107Z</time></trkpt><trkpt lat="36.2443092" lon="10.0223736"><ele>309.0</ele><time>2026-04-24T14:56:03.101Z</time></trkpt><trkpt lat="36.2442073" lon="10.0224857"><ele>309.0</ele><time>2026-04-24T14:56:04.101Z</time></trkpt><trkpt lat="36.2441046" lon="10.0226001"><ele>309.0</ele><time>2026-04-24T14:56:05.123Z</time></trkpt><trkpt lat="36.2439995" lon="10.0227246"><ele>309.0</ele><time>2026-04-24T14:56:06.105Z</time></trkpt><trkpt lat="36.2438972" lon="10.022847"><ele>309.0</ele><time>2026-04-24T14:56:07.122Z</time></trkpt><trkpt lat="36.2437921" lon="10.0229663"><ele>306.5</ele><time>2026-04-24T14:56:08.136Z</time></trkpt><trkpt lat="36.2436918" lon="10.0230856"><ele>304.0</ele><time>2026-04-24T14:56:09.12Z</time></trkpt><trkpt lat="36.2435929" lon="10.0232027"><ele>301.5</ele><time>2026-04-24T14:56:10.144Z</time></trkpt><trkpt lat="36.2434947" lon="10.0233197"><ele>299.0</ele><time>2026-04-24T14:56:11.106Z</time></trkpt><trkpt lat="36.2433881" lon="10.0234333"><ele>299.0</ele><time>2026-04-24T14:56:12.119Z</time></trkpt><trkpt lat="36.2432932" lon="10.0235434"><ele>299.0</ele><time>2026-04-24T14:56:13.128Z</time></trkpt><trkpt lat="36.2431974" lon="10.0236551"><ele>299.0</ele><time>2026-04-24T14:56:14.133Z</time></trkpt><trkpt lat="36.243102" lon="10.0237676"><ele>299.0</ele><time>2026-04-24T14:56:15.137Z</time></trkpt><trkpt lat="36.2430003" lon="10.0238817"><ele>297.75</ele><time>2026-04-24T14:56:16.121Z</time></trkpt><trkpt lat="36.2428971" lon="10.0239957"><ele>296.5</ele><time>2026-04-24T14:56:17.112Z</time></trkpt><trkpt lat="36.2427887" lon="10.0241186"><ele>295.25</ele><time>2026-04-24T14:56:18.123Z</time></trkpt><trkpt lat="36.2426826" lon="10.0242453"><ele>294.0</ele><time>2026-04-24T14:56:19.105Z</time></trkpt><trkpt lat="36.2425769" lon="10.0243726"><ele>294.0</ele><time>2026-04-24T14:56:20.111Z</time></trkpt><trkpt lat="36.2424638" lon="10.0244956"><ele>294.0</ele><time>2026-04-24T14:56:21.118Z</time></trkpt><trkpt lat="36.2423483" lon="10.0246141"><ele>294.0</ele><time>2026-04-24T14:56:22.113Z</time></trkpt><trkpt lat="36.2422316" lon="10.0247269"><ele>294.0</ele><time>2026-04-24T14:56:23.119Z</time></trkpt><trkpt lat="36.2421106" lon="10.024821"><ele>292.3333333333333</ele><time>2026-04-24T14:56:24.12Z</time></trkpt><trkpt lat="36.2419802" lon="10.0249126"><ele>290.66666666666663</ele><time>2026-04-24T14:56:25.106Z</time></trkpt><trkpt lat="36.2418473" lon="10.0250059"><ele>289.0</ele><time>2026-04-24T14:56:26.121Z</time></trkpt><trkpt lat="36.2417096" lon="10.025079"><ele>289.0</ele><time>2026-04-24T14:56:27.126Z</time></trkpt><trkpt lat="36.2415652" lon="10.0251448"><ele>289.0</ele><time>2026-04-24T14:56:28.119Z</time></trkpt><trkpt lat="36.2414176" lon="10.0252019"><ele>289.0</ele><time>2026-04-24T14:56:29.119Z</time></trkpt><trkpt lat="36.2412768" lon="10.0252572"><ele>287.0</ele><time>2026-04-24T14:56:30.118Z</time></trkpt><trkpt lat="36.2411297" lon="10.0253117"><ele>285.0</ele><time>2026-04-24T14:56:31.118Z</time></trkpt><trkpt lat="36.2409842" lon="10.0253682"><ele>283.0</ele><time>2026-04-24T14:56:32.109Z</time></trkpt><trkpt lat="36.2408386" lon="10.0254293"><ele>283.0</ele><time>2026-04-24T14:56:33.115Z</time></trkpt><trkpt lat="36.2406935" lon="10.0254861"><ele>283.0</ele><time>2026-04-24T14:56:34.113Z</time></trkpt><trkpt lat="36.2405478" lon="10.0255444"><ele>283.0</ele><time>2026-04-24T14:56:35.112Z</time></trkpt><trkpt lat="36.2403942" lon="10.0256"><ele>280.0</ele><time>2026-04-24T14:56:36.133Z</time></trkpt><trkpt lat="36.2402478" lon="10.0256597"><ele>277.0</ele><time>2026-04-24T14:56:37.124Z</time></trkpt><trkpt lat="36.2399431" lon="10.0257858"><ele>275.66666666666663</ele><time>2026-04-24T14:56:39.113Z</time></trkpt><trkpt lat="36.2397964" lon="10.0258453"><ele>274.3333333333333</ele><time>2026-04-24T14:56:40.114Z</time></trkpt><trkpt lat="36.2396499" lon="10.0259002"><ele>273.0</ele><time>2026-04-24T14:56:41.111Z</time></trkpt><trkpt lat="36.2395022" lon="10.0259416"><ele>273.0</ele><time>2026-04-24T14:56:42.125Z</time></trkpt><trkpt lat="36.2393494" lon="10.0259767"><ele>273.0</ele><time>2026-04-24T14:56:43.108Z</time></trkpt><trkpt lat="36.2391952" lon="10.0259964"><ele>273.0</ele><time>2026-04-24T14:56:44.11Z</time></trkpt><trkpt lat="36.2390409" lon="10.0259945"><ele>271.3333333333333</ele><time>2026-04-24T14:56:45.129Z</time></trkpt><trkpt lat="36.238891" lon="10.0259755"><ele>269.66666666666663</ele><time>2026-04-24T14:56:46.13Z</time></trkpt><trkpt lat="36.2387353" lon="10.0259437"><ele>268.0</ele><time>2026-04-24T14:56:47.129Z</time></trkpt><trkpt lat="36.2385796" lon="10.0258973"><ele>268.0</ele><time>2026-04-24T14:56:48.105Z</time></trkpt><trkpt lat="36.2384302" lon="10.02584"><ele>268.0</ele><time>2026-04-24T14:56:49.117Z</time></trkpt><trkpt lat="36.2382801" lon="10.0257843"><ele>268.0</ele><time>2026-04-24T14:56:50.13Z</time></trkpt><trkpt lat="36.2381332" lon="10.025728"><ele>268.66666666666663</ele><time>2026-04-24T14:56:51.119Z</time></trkpt><trkpt lat="36.2379816" lon="10.0256669"><ele>269.3333333333333</ele><time>2026-04-24T14:56:52.117Z</time></trkpt><trkpt lat="36.2378292" lon="10.0256098"><ele>270.0</ele><time>2026-04-24T14:56:53.127Z</time></trkpt><trkpt lat="36.2376739" lon="10.0255492"><ele>270.0</ele><time>2026-04-24T14:56:54.113Z</time></trkpt><trkpt lat="36.2375263" lon="10.0254905"><ele>270.0</ele><time>2026-04-24T14:56:55.112Z</time></trkpt><trkpt lat="36.2373793" lon="10.0254342"><ele>270.0</ele><time>2026-04-24T14:56:56.11Z</time></trkpt><trkpt lat="36.2372306" lon="10.02538"><ele>270.0</ele><time>2026-04-24T14:56:57.123Z</time></trkpt><trkpt lat="36.2370814" lon="10.0253434"><ele>270.0</ele><time>2026-04-24T14:56:58.117Z</time></trkpt><trkpt lat="36.2369302" lon="10.0253112"><ele>270.0</ele><time>2026-04-24T14:56:59.12Z</time></trkpt><trkpt lat="36.2367769" lon="10.025312"><ele>270.0</ele><time>2026-04-24T14:57:00.121Z</time></trkpt><trkpt lat="36.236619" lon="10.0253369"><ele>270.0</ele><time>2026-04-24T14:57:01.117Z</time></trkpt><trkpt lat="36.236458" lon="10.0253753"><ele>270.0</ele><time>2026-04-24T14:57:02.116Z</time></trkpt><trkpt lat="36.2363025" lon="10.0254371"><ele>276.3333333333333</ele><time>2026-04-24T14:57:03.119Z</time></trkpt><trkpt lat="36.2361567" lon="10.0255226"><ele>282.66666666666663</ele><time>2026-04-24T14:57:04.137Z</time></trkpt><trkpt lat="36.2360138" lon="10.0256188"><ele>289.0</ele><time>2026-04-24T14:57:05.114Z</time></trkpt><trkpt lat="36.2358859" lon="10.0257206"><ele>289.66666666666663</ele><time>2026-04-24T14:57:06.119Z</time></trkpt><trkpt lat="36.2357575" lon="10.025823"><ele>290.3333333333333</ele><time>2026-04-24T14:57:07.123Z</time></trkpt><trkpt lat="36.2356253" lon="10.0259252"><ele>291.0</ele><time>2026-04-24T14:57:08.119Z</time></trkpt><trkpt lat="36.2354958" lon="10.026022"><ele>291.0</ele><time>2026-04-24T14:57:09.117Z</time></trkpt><trkpt lat="36.2353576" lon="10.0261173"><ele>291.0</ele><time>2026-04-24T14:57:10.132Z</time></trkpt><trkpt lat="36.2352057" lon="10.0261965"><ele>291.0</ele><time>2026-04-24T14:57:11.102Z</time></trkpt><trkpt lat="36.235055" lon="10.0262629"><ele>291.0</ele><time>2026-04-24T14:57:12.125Z</time></trkpt><trkpt lat="36.2349" lon="10.026291"><ele>291.0</ele><time>2026-04-24T14:57:13.113Z</time></trkpt><trkpt lat="36.2347421" lon="10.0263042"><ele>291.0</ele><time>2026-04-24T14:57:14.117Z</time></trkpt><trkpt lat="36.2345836" lon="10.0262924"><ele>290.0</ele><time>2026-04-24T14:57:15.101Z</time></trkpt><trkpt lat="36.2344267" lon="10.0262511"><ele>289.0</ele><time>2026-04-24T14:57:16.094Z</time></trkpt><trkpt lat="36.2342641" lon="10.0261837"><ele>288.0</ele><time>2026-04-24T14:57:17.106Z</time></trkpt><trkpt lat="36.2341128" lon="10.0261"><ele>287.3333333333333</ele><time>2026-04-24T14:57:18.138Z</time></trkpt><trkpt lat="36.233968" lon="10.026011"><ele>286.66666666666663</ele><time>2026-04-24T14:57:19.126Z</time></trkpt><trkpt lat="36.2338255" lon="10.0259032"><ele>286.0</ele><time>2026-04-24T14:57:20.124Z</time></trkpt><trkpt lat="36.2336811" lon="10.0257946"><ele>286.0</ele><time>2026-04-24T14:57:21.099Z</time></trkpt><trkpt lat="36.2335463" lon="10.0256973"><ele>286.0</ele><time>2026-04-24T14:57:22.137Z</time></trkpt><trkpt lat="36.2334084" lon="10.0255979"><ele>286.0</ele><time>2026-04-24T14:57:23.121Z</time></trkpt><trkpt lat="36.2332674" lon="10.0255131"><ele>283.3333333333333</ele><time>2026-04-24T14:57:24.118Z</time></trkpt><trkpt lat="36.2331201" lon="10.025444"><ele>280.6666666666667</ele><time>2026-04-24T14:57:25.115Z</time></trkpt><trkpt lat="36.2329663" lon="10.0253904"><ele>278.0</ele><time>2026-04-24T14:57:26.135Z</time></trkpt><trkpt lat="36.2328055" lon="10.0253506"><ele>278.0</ele><time>2026-04-24T14:57:27.14Z</time></trkpt><trkpt lat="36.2326422" lon="10.0253291"><ele>278.0</ele><time>2026-04-24T14:57:28.132Z</time></trkpt><trkpt lat="36.2324826" lon="10.0253128"><ele>278.0</ele><time>2026-04-24T14:57:29.121Z</time></trkpt><trkpt lat="36.2323233" lon="10.0252997"><ele>276.0</ele><time>2026-04-24T14:57:30.11Z</time></trkpt><trkpt lat="36.2321619" lon="10.0252935"><ele>274.0</ele><time>2026-04-24T14:57:31.117Z</time></trkpt><trkpt lat="36.2320024" lon="10.0252873"><ele>272.0</ele><time>2026-04-24T14:57:32.128Z</time></trkpt><trkpt lat="36.2318452" lon="10.0252789"><ele>272.0</ele><time>2026-04-24T14:57:33.118Z</time></trkpt><trkpt lat="36.2316942" lon="10.0252618"><ele>272.0</ele><time>2026-04-24T14:57:34.126Z</time></trkpt><trkpt lat="36.2315373" lon="10.0252488"><ele>272.0</ele><time>2026-04-24T14:57:35.136Z</time></trkpt><trkpt lat="36.2313824" lon="10.0252418"><ele>272.0</ele><time>2026-04-24T14:57:36.128Z</time></trkpt><trkpt lat="36.2312199" lon="10.0252321"><ele>272.0</ele><time>2026-04-24T14:57:37.123Z</time></trkpt><trkpt lat="36.2310575" lon="10.0252205"><ele>272.0</ele><time>2026-04-24T14:57:38.112Z</time></trkpt><trkpt lat="36.2308927" lon="10.0252123"><ele>272.0</ele><time>2026-04-24T14:57:39.111Z</time></trkpt><trkpt lat="36.2307279" lon="10.0252054"><ele>272.0</ele><time>2026-04-24T14:57:40.117Z</time></trkpt><trkpt lat="36.2305623" lon="10.0251921"><ele>272.0</ele><time>2026-04-24T14:57:41.135Z</time></trkpt><trkpt lat="36.2304064" lon="10.02518"><ele>271.6666666666667</ele><time>2026-04-24T14:57:42.124Z</time></trkpt><trkpt lat="36.2302471" lon="10.0251748"><ele>271.3333333333333</ele><time>2026-04-24T14:57:43.131Z</time></trkpt><trkpt lat="36.2300862" lon="10.0251698"><ele>271.0</ele><time>2026-04-24T14:57:44.101Z</time></trkpt><trkpt lat="36.2299231" lon="10.0251593"><ele>268.66666666666663</ele><time>2026-04-24T14:57:45.116Z</time></trkpt><trkpt lat="36.2297611" lon="10.0251388"><ele>266.3333333333333</ele><time>2026-04-24T14:57:46.131Z</time></trkpt><trkpt lat="36.2296003" lon="10.0251134"><ele>264.0</ele><time>2026-04-24T14:57:47.119Z</time></trkpt><trkpt lat="36.2294384" lon="10.0250663"><ele>264.0</ele><time>2026-04-24T14:57:48.146Z</time></trkpt><trkpt lat="36.2292766" lon="10.0250082"><ele>264.0</ele><time>2026-04-24T14:57:49.124Z</time></trkpt><trkpt lat="36.2291259" lon="10.0249494"><ele>264.0</ele><time>2026-04-24T14:57:50.111Z</time></trkpt><trkpt lat="36.2289674" lon="10.0248836"><ele>262.3333333333333</ele><time>2026-04-24T14:57:51.111Z</time></trkpt><trkpt lat="36.2288168" lon="10.0248152"><ele>260.66666666666663</ele><time>2026-04-24T14:57:52.127Z</time></trkpt><trkpt lat="36.2286642" lon="10.0247493"><ele>259.0</ele><time>2026-04-24T14:57:53.106Z</time></trkpt><trkpt lat="36.2285179" lon="10.0246689"><ele>259.0</ele><time>2026-04-24T14:57:54.123Z</time></trkpt><trkpt lat="36.2283636" lon="10.0245896"><ele>259.0</ele><time>2026-04-24T14:57:55.123Z</time></trkpt><trkpt lat="36.2282137" lon="10.0245154"><ele>259.0</ele><time>2026-04-24T14:57:56.121Z</time></trkpt><trkpt lat="36.2280662" lon="10.0244449"><ele>257.3333333333333</ele><time>2026-04-24T14:57:57.129Z</time></trkpt><trkpt lat="36.2279122" lon="10.0243688"><ele>255.66666666666669</ele><time>2026-04-24T14:57:58.116Z</time></trkpt><trkpt lat="36.227763" lon="10.0242921"><ele>254.0</ele><time>2026-04-24T14:57:59.108Z</time></trkpt><trkpt lat="36.2276153" lon="10.0242308"><ele>254.0</ele><time>2026-04-24T14:58:00.115Z</time></trkpt><trkpt lat="36.2274693" lon="10.0241512"><ele>254.0</ele><time>2026-04-24T14:58:01.123Z</time></trkpt><trkpt lat="36.2273212" lon="10.0240769"><ele>254.0</ele><time>2026-04-24T14:58:02.12Z</time></trkpt><trkpt lat="36.227166" lon="10.0240091"><ele>257.6666666666667</ele><time>2026-04-24T14:58:03.124Z</time></trkpt><trkpt lat="36.2270168" lon="10.0239346"><ele>261.3333333333333</ele><time>2026-04-24T14:58:04.13Z</time></trkpt><trkpt lat="36.2268672" lon="10.0238636"><ele>265.0</ele><time>2026-04-24T14:58:05.128Z</time></trkpt><trkpt lat="36.2267129" lon="10.0237938"><ele>265.0</ele><time>2026-04-24T14:58:06.117Z</time></trkpt><trkpt lat="36.2265628" lon="10.023722"><ele>265.0</ele><time>2026-04-24T14:58:07.125Z</time></trkpt><trkpt lat="36.2264113" lon="10.0236505"><ele>265.0</ele><time>2026-04-24T14:58:08.111Z</time></trkpt><trkpt lat="36.2262553" lon="10.0235762"><ele>264.3333333333333</ele><time>2026-04-24T14:58:09.122Z</time></trkpt><trkpt lat="36.2260999" lon="10.0235011"><ele>263.6666666666667</ele><time>2026-04-24T14:58:10.126Z</time></trkpt><trkpt lat="36.2259493" lon="10.0234239"><ele>263.0</ele><time>2026-04-24T14:58:11.123Z</time></trkpt><trkpt lat="36.2257979" lon="10.0233516"><ele>262.0</ele><time>2026-04-24T14:58:12.11Z</time></trkpt><trkpt lat="36.2256483" lon="10.0232786"><ele>261.0</ele><time>2026-04-24T14:58:13.128Z</time></trkpt><trkpt lat="36.2254985" lon="10.0232003"><ele>260.0</ele><time>2026-04-24T14:58:14.134Z</time></trkpt><trkpt lat="36.22535" lon="10.0231252"><ele>258.33333333333337</ele><time>2026-04-24T14:58:15.119Z</time></trkpt><trkpt lat="36.225193" lon="10.0230532"><ele>256.6666666666667</ele><time>2026-04-24T14:58:16.12Z</time></trkpt><trkpt lat="36.2250416" lon="10.0229838"><ele>255.0</ele><time>2026-04-24T14:58:17.118Z</time></trkpt><trkpt lat="36.2248958" lon="10.0229142"><ele>255.0</ele><time>2026-04-24T14:58:18.134Z</time></trkpt><trkpt lat="36.224749" lon="10.0228356"><ele>255.0</ele><time>2026-04-24T14:58:19.134Z</time></trkpt><trkpt lat="36.2246004" lon="10.0227614"><ele>255.0</ele><time>2026-04-24T14:58:20.125Z</time></trkpt><trkpt lat="36.2244551" lon="10.0226876"><ele>255.0</ele><time>2026-04-24T14:58:21.112Z</time></trkpt><trkpt lat="36.2243079" lon="10.0226163"><ele>255.0</ele><time>2026-04-24T14:58:22.136Z</time></trkpt><trkpt lat="36.2241584" lon="10.0225421"><ele>255.0</ele><time>2026-04-24T14:58:23.118Z</time></trkpt><trkpt lat="36.2240103" lon="10.022471"><ele>258.6666666666667</ele><time>2026-04-24T14:58:24.136Z</time></trkpt><trkpt lat="36.2238599" lon="10.0224022"><ele>262.33333333333337</ele><time>2026-04-24T14:58:25.125Z</time></trkpt><trkpt lat="36.2237067" lon="10.022329"><ele>266.0</ele><time>2026-04-24T14:58:26.128Z</time></trkpt><trkpt lat="36.2235571" lon="10.0222488"><ele>266.0</ele><time>2026-04-24T14:58:27.134Z</time></trkpt><trkpt lat="36.2234073" lon="10.0221727"><ele>266.0</ele><time>2026-04-24T14:58:28.13Z</time></trkpt><trkpt lat="36.2232568" lon="10.0221008"><ele>266.0</ele><time>2026-04-24T14:58:29.125Z</time></trkpt><trkpt lat="36.223112" lon="10.0220272"><ele>268.33333333333337</ele><time>2026-04-24T14:58:30.118Z</time></trkpt><trkpt lat="36.2229635" lon="10.0219479"><ele>270.6666666666667</ele><time>2026-04-24T14:58:31.142Z</time></trkpt><trkpt lat="36.2228125" lon="10.0218723"><ele>273.0</ele><time>2026-04-24T14:58:32.142Z</time></trkpt><trkpt lat="36.222664" lon="10.0217974"><ele>273.0</ele><time>2026-04-24T14:58:33.123Z</time></trkpt><trkpt lat="36.2225177" lon="10.02172"><ele>273.0</ele><time>2026-04-24T14:58:34.118Z</time></trkpt><trkpt lat="36.2223674" lon="10.0216445"><ele>273.0</ele><time>2026-04-24T14:58:35.121Z</time></trkpt><trkpt lat="36.2222203" lon="10.02157"><ele>274.6666666666667</ele><time>2026-04-24T14:58:36.134Z</time></trkpt><trkpt lat="36.2220706" lon="10.0214972"><ele>276.33333333333337</ele><time>2026-04-24T14:58:37.103Z</time></trkpt><trkpt lat="36.2219231" lon="10.0214244"><ele>278.0</ele><time>2026-04-24T14:58:38.118Z</time></trkpt><trkpt lat="36.2217851" lon="10.0213661"><ele>278.0</ele><time>2026-04-24T14:58:39.12Z</time></trkpt><trkpt lat="36.2216576" lon="10.0213161"><ele>278.0</ele><time>2026-04-24T14:58:40.123Z</time></trkpt><trkpt lat="36.2215351" lon="10.0212621"><ele>278.0</ele><time>2026-04-24T14:58:41.131Z</time></trkpt><trkpt lat="36.2214142" lon="10.0212127"><ele>278.0</ele><time>2026-04-24T14:58:42.118Z</time></trkpt><trkpt lat="36.221304" lon="10.0211594"><ele>277.0</ele><time>2026-04-24T14:58:43.142Z</time></trkpt><trkpt lat="36.2211959" lon="10.0211059"><ele>276.0</ele><time>2026-04-24T14:58:44.13Z</time></trkpt><trkpt lat="36.2210813" lon="10.0210451"><ele>275.0</ele><time>2026-04-24T14:58:45.138Z</time></trkpt><trkpt lat="36.2209591" lon="10.0209806"><ele>274.0</ele><time>2026-04-24T14:58:46.12Z</time></trkpt><trkpt lat="36.2208277" lon="10.0209183"><ele>274.0</ele><time>2026-04-24T14:58:47.132Z</time></trkpt><trkpt lat="36.2206841" lon="10.020845"><ele>274.0</ele><time>2026-04-24T14:58:48.128Z</time></trkpt><trkpt lat="36.2205333" lon="10.0207716"><ele>274.0</ele><time>2026-04-24T14:58:49.13Z</time></trkpt><trkpt lat="36.2203753" lon="10.0206996"><ele>273.0</ele><time>2026-04-24T14:58:50.131Z</time></trkpt><trkpt lat="36.2202204" lon="10.0206237"><ele>272.0</ele><time>2026-04-24T14:58:51.124Z</time></trkpt><trkpt lat="36.2200591" lon="10.0205457"><ele>271.0</ele><time>2026-04-24T14:58:52.125Z</time></trkpt><trkpt lat="36.2199085" lon="10.0204636"><ele>269.66666666666663</ele><time>2026-04-24T14:58:53.113Z</time></trkpt><trkpt lat="36.2197572" lon="10.0203854"><ele>268.3333333333333</ele><time>2026-04-24T14:58:54.135Z</time></trkpt><trkpt lat="36.2196059" lon="10.0203121"><ele>267.0</ele><time>2026-04-24T14:58:55.129Z</time></trkpt><trkpt lat="36.219457" lon="10.0202399"><ele>267.0</ele><time>2026-04-24T14:58:56.132Z</time></trkpt><trkpt lat="36.219306" lon="10.0201612"><ele>267.0</ele><time>2026-04-24T14:58:57.135Z</time></trkpt><trkpt lat="36.2191568" lon="10.0200867"><ele>267.0</ele><time>2026-04-24T14:58:58.129Z</time></trkpt><trkpt lat="36.2189997" lon="10.0200135"><ele>267.3333333333333</ele><time>2026-04-24T14:58:59.12Z</time></trkpt><trkpt lat="36.2188473" lon="10.019939"><ele>267.66666666666663</ele><time>2026-04-24T14:59:00.121Z</time></trkpt><trkpt lat="36.2187007" lon="10.0198661"><ele>268.0</ele><time>2026-04-24T14:59:01.129Z</time></trkpt><trkpt lat="36.2185522" lon="10.0197923"><ele>268.0</ele><time>2026-04-24T14:59:02.131Z</time></trkpt><trkpt lat="36.2184056" lon="10.0197203"><ele>268.0</ele><time>2026-04-24T14:59:03.114Z</time></trkpt><trkpt lat="36.2182554" lon="10.0196489"><ele>268.0</ele><time>2026-04-24T14:59:04.116Z</time></trkpt><trkpt lat="36.2181065" lon="10.0195788"><ele>269.3333333333333</ele><time>2026-04-24T14:59:05.116Z</time></trkpt><trkpt lat="36.2179555" lon="10.0195034"><ele>270.6666666666667</ele><time>2026-04-24T14:59:06.137Z</time></trkpt><trkpt lat="36.2178048" lon="10.0194283"><ele>272.0</ele><time>2026-04-24T14:59:07.123Z</time></trkpt><trkpt lat="36.2176564" lon="10.0193577"><ele>272.0</ele><time>2026-04-24T14:59:08.1Z</time></trkpt><trkpt lat="36.2175081" lon="10.0192836"><ele>272.0</ele><time>2026-04-24T14:59:09.122Z</time></trkpt><trkpt lat="36.2173608" lon="10.0192027"><ele>272.0</ele><time>2026-04-24T14:59:10.122Z</time></trkpt><trkpt lat="36.217211" lon="10.0191226"><ele>274.33333333333337</ele><time>2026-04-24T14:59:11.128Z</time></trkpt><trkpt lat="36.2170616" lon="10.0190452"><ele>276.6666666666667</ele><time>2026-04-24T14:59:12.133Z</time></trkpt><trkpt lat="36.2169076" lon="10.0189678"><ele>279.0</ele><time>2026-04-24T14:59:13.135Z</time></trkpt><trkpt lat="36.216754" lon="10.0188943"><ele>279.0</ele><time>2026-04-24T14:59:14.122Z</time></trkpt><trkpt lat="36.2165979" lon="10.0188238"><ele>279.0</ele><time>2026-04-24T14:59:15.13Z</time></trkpt><trkpt lat="36.2164472" lon="10.0187495"><ele>279.0</ele><time>2026-04-24T14:59:16.132Z</time></trkpt><trkpt lat="36.2163005" lon="10.0186763"><ele>279.0</ele><time>2026-04-24T14:59:17.137Z</time></trkpt><trkpt lat="36.2161505" lon="10.0186016"><ele>279.0</ele><time>2026-04-24T14:59:18.121Z</time></trkpt><trkpt lat="36.2160045" lon="10.0185284"><ele>279.0</ele><time>2026-04-24T14:59:19.123Z</time></trkpt><trkpt lat="36.2158549" lon="10.018459"><ele>279.0</ele><time>2026-04-24T14:59:20.119Z</time></trkpt><trkpt lat="36.215708" lon="10.0183899"><ele>279.0</ele><time>2026-04-24T14:59:21.136Z</time></trkpt><trkpt lat="36.2155604" lon="10.0183139"><ele>279.0</ele><time>2026-04-24T14:59:22.115Z</time></trkpt><trkpt lat="36.2154195" lon="10.0182425"><ele>281.3333333333333</ele><time>2026-04-24T14:59:23.137Z</time></trkpt><trkpt lat="36.2152747" lon="10.0181699"><ele>283.66666666666663</ele><time>2026-04-24T14:59:24.134Z</time></trkpt><trkpt lat="36.2151271" lon="10.0180961"><ele>286.0</ele><time>2026-04-24T14:59:25.138Z</time></trkpt><trkpt lat="36.2149775" lon="10.0180153"><ele>286.0</ele><time>2026-04-24T14:59:26.123Z</time></trkpt><trkpt lat="36.2148301" lon="10.0179344"><ele>286.0</ele><time>2026-04-24T14:59:27.124Z</time></trkpt><trkpt lat="36.2146822" lon="10.0178614"><ele>286.0</ele><time>2026-04-24T14:59:28.124Z</time></trkpt><trkpt lat="36.214535" lon="10.0177846"><ele>287.0</ele><time>2026-04-24T14:59:29.126Z</time></trkpt><trkpt lat="36.2143804" lon="10.0177174"><ele>288.0</ele><time>2026-04-24T14:59:30.117Z</time></trkpt><trkpt lat="36.2142299" lon="10.0176405"><ele>289.0</ele><time>2026-04-24T14:59:31.115Z</time></trkpt><trkpt lat="36.2140686" lon="10.017567"><ele>286.3333333333333</ele><time>2026-04-24T14:59:32.125Z</time></trkpt><trkpt lat="36.2139097" lon="10.0174984"><ele>283.6666666666667</ele><time>2026-04-24T14:59:33.126Z</time></trkpt><trkpt lat="36.2137548" lon="10.0174229"><ele>281.0</ele><time>2026-04-24T14:59:34.132Z</time></trkpt><trkpt lat="36.2136016" lon="10.0173489"><ele>280.33333333333337</ele><time>2026-04-24T14:59:35.116Z</time></trkpt><trkpt lat="36.2134476" lon="10.0172731"><ele>279.6666666666667</ele><time>2026-04-24T14:59:36.123Z</time></trkpt><trkpt lat="36.2132927" lon="10.0171925"><ele>279.0</ele><time>2026-04-24T14:59:37.148Z</time></trkpt><trkpt lat="36.2131412" lon="10.0171184"><ele>277.6666666666667</ele><time>2026-04-24T14:59:38.141Z</time></trkpt><trkpt lat="36.21299" lon="10.0170435"><ele>276.33333333333337</ele><time>2026-04-24T14:59:39.115Z</time></trkpt><trkpt lat="36.2128372" lon="10.0169705"><ele>275.0</ele><time>2026-04-24T14:59:40.122Z</time></trkpt><trkpt lat="36.2126856" lon="10.0168968"><ele>275.0</ele><time>2026-04-24T14:59:41.125Z</time></trkpt><trkpt lat="36.2125355" lon="10.0168218"><ele>275.0</ele><time>2026-04-24T14:59:42.127Z</time></trkpt><trkpt lat="36.2123888" lon="10.0167483"><ele>275.0</ele><time>2026-04-24T14:59:43.108Z</time></trkpt><trkpt lat="36.2122413" lon="10.0166689"><ele>277.33333333333337</ele><time>2026-04-24T14:59:44.107Z</time></trkpt><trkpt lat="36.2120954" lon="10.0165963"><ele>279.6666666666667</ele><time>2026-04-24T14:59:45.119Z</time></trkpt><trkpt lat="36.2119488" lon="10.0165261"><ele>282.0</ele><time>2026-04-24T14:59:46.13Z</time></trkpt><trkpt lat="36.2118021" lon="10.0164514"><ele>282.0</ele><time>2026-04-24T14:59:47.119Z</time></trkpt><trkpt lat="36.2116496" lon="10.0163771"><ele>282.0</ele><time>2026-04-24T14:59:48.115Z</time></trkpt><trkpt lat="36.2114946" lon="10.0163042"><ele>282.0</ele><time>2026-04-24T14:59:49.131Z</time></trkpt><trkpt lat="36.2113374" lon="10.0162255"><ele>279.6666666666667</ele><time>2026-04-24T14:59:50.13Z</time></trkpt><trkpt lat="36.2111816" lon="10.0161548"><ele>277.33333333333337</ele><time>2026-04-24T14:59:51.124Z</time></trkpt><trkpt lat="36.2110264" lon="10.0160768"><ele>275.0</ele><time>2026-04-24T14:59:52.116Z</time></trkpt><trkpt lat="36.210874" lon="10.0160026"><ele>275.0</ele><time>2026-04-24T14:59:53.111Z</time></trkpt><trkpt lat="36.2107189" lon="10.0159302"><ele>275.0</ele><time>2026-04-24T14:59:54.142Z</time></trkpt><trkpt lat="36.2105673" lon="10.0158561"><ele>275.0</ele><time>2026-04-24T14:59:55.145Z</time></trkpt><trkpt lat="36.2104156" lon="10.0157819"><ele>274.6666666666667</ele><time>2026-04-24T14:59:56.123Z</time></trkpt><trkpt lat="36.2102623" lon="10.0157095"><ele>274.3333333333333</ele><time>2026-04-24T14:59:57.112Z</time></trkpt><trkpt lat="36.2101113" lon="10.0156332"><ele>274.0</ele><time>2026-04-24T14:59:58.131Z</time></trkpt><trkpt lat="36.2099653" lon="10.0155602"><ele>273.3333333333333</ele><time>2026-04-24T14:59:59.135Z</time></trkpt><trkpt lat="36.20982" lon="10.0155035"><ele>272.6666666666667</ele><time>2026-04-24T15:00:00.113Z</time></trkpt><trkpt lat="36.2096702" lon="10.0154467"><ele>272.0</ele><time>2026-04-24T15:00:01.125Z</time></trkpt><trkpt lat="36.2095117" lon="10.0154037"><ele>272.0</ele><time>2026-04-24T15:00:02.135Z</time></trkpt><trkpt lat="36.2093489" lon="10.0153872"><ele>272.0</ele><time>2026-04-24T15:00:03.123Z</time></trkpt><trkpt lat="36.2091804" lon="10.0153898"><ele>272.0</ele><time>2026-04-24T15:00:04.123Z</time></trkpt><trkpt lat="36.2090235" lon="10.0154129"><ele>271.33333333333337</ele><time>2026-04-24T15:00:05.112Z</time></trkpt><trkpt lat="36.2088627" lon="10.0154467"><ele>270.6666666666667</ele><time>2026-04-24T15:00:06.13Z</time></trkpt><trkpt lat="36.2087012" lon="10.0154935"><ele>270.0</ele><time>2026-04-24T15:00:07.126Z</time></trkpt><trkpt lat="36.208554" lon="10.0155607"><ele>270.0</ele><time>2026-04-24T15:00:08.13Z</time></trkpt><trkpt lat="36.2084132" lon="10.0156446"><ele>270.0</ele><time>2026-04-24T15:00:09.112Z</time></trkpt><trkpt lat="36.2082743" lon="10.0157456"><ele>270.0</ele><time>2026-04-24T15:00:10.108Z</time></trkpt><trkpt lat="36.2081301" lon="10.0158535"><ele>268.6666666666667</ele><time>2026-04-24T15:00:11.112Z</time></trkpt><trkpt lat="36.2079949" lon="10.0159661"><ele>267.33333333333337</ele><time>2026-04-24T15:00:12.115Z</time></trkpt><trkpt lat="36.2078569" lon="10.0160773"><ele>266.0</ele><time>2026-04-24T15:00:13.153Z</time></trkpt><trkpt lat="36.2077225" lon="10.016187"><ele>266.0</ele><time>2026-04-24T15:00:14.112Z</time></trkpt><trkpt lat="36.2075887" lon="10.0162956"><ele>266.0</ele><time>2026-04-24T15:00:15.13Z</time></trkpt><trkpt lat="36.2074547" lon="10.0164077"><ele>266.0</ele><time>2026-04-24T15:00:16.131Z</time></trkpt><trkpt lat="36.2073153" lon="10.0165213"><ele>265.33333333333337</ele><time>2026-04-24T15:00:17.116Z</time></trkpt><trkpt lat="36.2071824" lon="10.0166353"><ele>264.6666666666667</ele><time>2026-04-24T15:00:18.116Z</time></trkpt><trkpt lat="36.2070506" lon="10.0167521"><ele>264.0</ele><time>2026-04-24T15:00:19.12Z</time></trkpt><trkpt lat="36.206915" lon="10.0168702"><ele>263.3333333333333</ele><time>2026-04-24T15:00:20.133Z</time></trkpt><trkpt lat="36.206784" lon="10.0169807"><ele>262.66666666666663</ele><time>2026-04-24T15:00:21.108Z</time></trkpt><trkpt lat="36.2066521" lon="10.0170852"><ele>262.0</ele><time>2026-04-24T15:00:22.124Z</time></trkpt><trkpt lat="36.2065268" lon="10.0171844"><ele>261.5</ele><time>2026-04-24T15:00:23.126Z</time></trkpt><trkpt lat="36.2064083" lon="10.0172838"><ele>261.0</ele><time>2026-04-24T15:00:24.128Z</time></trkpt><trkpt lat="36.206293" lon="10.0173802"><ele>260.5</ele><time>2026-04-24T15:00:25.133Z</time></trkpt><trkpt lat="36.206186" lon="10.0174685"><ele>260.0</ele><time>2026-04-24T15:00:26.124Z</time></trkpt><trkpt lat="36.2060827" lon="10.0175579"><ele>259.5</ele><time>2026-04-24T15:00:27.132Z</time></trkpt><trkpt lat="36.2059788" lon="10.0176498"><ele>259.0</ele><time>2026-04-24T15:00:28.123Z</time></trkpt><trkpt lat="36.205868" lon="10.0177379"><ele>258.5</ele><time>2026-04-24T15:00:29.131Z</time></trkpt><trkpt lat="36.2057608" lon="10.0178266"><ele>258.0</ele><time>2026-04-24T15:00:30.111Z</time></trkpt><trkpt lat="36.2056517" lon="10.017915"><ele>257.75</ele><time>2026-04-24T15:00:31.103Z</time></trkpt><trkpt lat="36.2055422" lon="10.0180011"><ele>257.5</ele><time>2026-04-24T15:00:32.123Z</time></trkpt><trkpt lat="36.2054213" lon="10.0180925"><ele>257.25</ele><time>2026-04-24T15:00:33.123Z</time></trkpt><trkpt lat="36.2053015" lon="10.0182035"><ele>257.0</ele><time>2026-04-24T15:00:34.108Z</time></trkpt><trkpt lat="36.2051648" lon="10.0183373"><ele>256.6666666666667</ele><time>2026-04-24T15:00:35.11Z</time></trkpt><trkpt lat="36.2050122" lon="10.0184813"><ele>256.3333333333333</ele><time>2026-04-24T15:00:36.125Z</time></trkpt><trkpt lat="36.2048357" lon="10.0186167"><ele>256.0</ele><time>2026-04-24T15:00:37.134Z</time></trkpt><trkpt lat="36.204661" lon="10.0187553"><ele>254.33333333333331</ele><time>2026-04-24T15:00:38.109Z</time></trkpt><trkpt lat="36.2044852" lon="10.0188845"><ele>252.66666666666669</ele><time>2026-04-24T15:00:39.116Z</time></trkpt><trkpt lat="36.2043187" lon="10.0190108"><ele>251.0</ele><time>2026-04-24T15:00:40.124Z</time></trkpt><trkpt lat="36.2041621" lon="10.0191339"><ele>251.33333333333334</ele><time>2026-04-24T15:00:41.136Z</time></trkpt><trkpt lat="36.2040137" lon="10.0192531"><ele>251.66666666666669</ele><time>2026-04-24T15:00:42.12Z</time></trkpt><trkpt lat="36.2038683" lon="10.0193686"><ele>252.0</ele><time>2026-04-24T15:00:43.128Z</time></trkpt><trkpt lat="36.2037284" lon="10.0194815"><ele>252.0</ele><time>2026-04-24T15:00:44.13Z</time></trkpt><trkpt lat="36.203594" lon="10.0195937"><ele>252.0</ele><time>2026-04-24T15:00:45.128Z</time></trkpt><trkpt lat="36.2034608" lon="10.0197002"><ele>252.0</ele><time>2026-04-24T15:00:46.134Z</time></trkpt><trkpt lat="36.2033287" lon="10.0198058"><ele>252.0</ele><time>2026-04-24T15:00:47.106Z</time></trkpt><trkpt lat="36.2032002" lon="10.0199144"><ele>252.0</ele><time>2026-04-24T15:00:48.126Z</time></trkpt><trkpt lat="36.2030649" lon="10.0200282"><ele>252.0</ele><time>2026-04-24T15:00:49.114Z</time></trkpt><trkpt lat="36.2029253" lon="10.0201389"><ele>250.33333333333331</ele><time>2026-04-24T15:00:50.118Z</time></trkpt><trkpt lat="36.2027926" lon="10.020254"><ele>248.66666666666666</ele><time>2026-04-24T15:00:51.111Z</time></trkpt><trkpt lat="36.2026576" lon="10.0203722"><ele>247.0</ele><time>2026-04-24T15:00:52.112Z</time></trkpt><trkpt lat="36.202524" lon="10.0204821"><ele>247.0</ele><time>2026-04-24T15:00:53.123Z</time></trkpt><trkpt lat="36.2023881" lon="10.0205926"><ele>247.0</ele><time>2026-04-24T15:00:54.135Z</time></trkpt><trkpt lat="36.2022515" lon="10.0206986"><ele>247.0</ele><time>2026-04-24T15:00:55.119Z</time></trkpt><trkpt lat="36.2021178" lon="10.0208032"><ele>246.33333333333331</ele><time>2026-04-24T15:00:56.115Z</time></trkpt><trkpt lat="36.201984" lon="10.0209106"><ele>245.66666666666669</ele><time>2026-04-24T15:00:57.146Z</time></trkpt><trkpt lat="36.2018477" lon="10.0210189"><ele>245.0</ele><time>2026-04-24T15:00:58.135Z</time></trkpt><trkpt lat="36.2017163" lon="10.0211324"><ele>245.0</ele><time>2026-04-24T15:00:59.118Z</time></trkpt><trkpt lat="36.2015817" lon="10.0212433"><ele>245.0</ele><time>2026-04-24T15:01:00.11Z</time></trkpt><trkpt lat="36.2014471" lon="10.0213553"><ele>245.0</ele><time>2026-04-24T15:01:01.145Z</time></trkpt><trkpt lat="36.201306" lon="10.0214697"><ele>244.66666666666669</ele><time>2026-04-24T15:01:02.124Z</time></trkpt><trkpt lat="36.2011658" lon="10.0215758"><ele>244.33333333333331</ele><time>2026-04-24T15:01:03.136Z</time></trkpt><trkpt lat="36.2010303" lon="10.0216813"><ele>244.0</ele><time>2026-04-24T15:01:04.12Z</time></trkpt><trkpt lat="36.2008969" lon="10.0217899"><ele>243.0</ele><time>2026-04-24T15:01:05.125Z</time></trkpt><trkpt lat="36.200764" lon="10.0219048"><ele>242.0</ele><time>2026-04-24T15:01:06.126Z</time></trkpt><trkpt lat="36.2006303" lon="10.0220218"><ele>241.0</ele><time>2026-04-24T15:01:07.133Z</time></trkpt><trkpt lat="36.2004955" lon="10.0221306"><ele>240.66666666666666</ele><time>2026-04-24T15:01:08.107Z</time></trkpt><trkpt lat="36.2003636" lon="10.0222417"><ele>240.33333333333331</ele><time>2026-04-24T15:01:09.126Z</time></trkpt><trkpt lat="36.2002325" lon="10.0223524"><ele>240.0</ele><time>2026-04-24T15:01:10.123Z</time></trkpt><trkpt lat="36.2000974" lon="10.0224627"><ele>240.0</ele><time>2026-04-24T15:01:11.12Z</time></trkpt><trkpt lat="36.1999652" lon="10.0225685"><ele>240.0</ele><time>2026-04-24T15:01:12.123Z</time></trkpt><trkpt lat="36.1998359" lon="10.0226767"><ele>240.0</ele><time>2026-04-24T15:01:13.118Z</time></trkpt><trkpt lat="36.1997065" lon="10.0227895"><ele>239.0</ele><time>2026-04-24T15:01:14.127Z</time></trkpt><trkpt lat="36.1995707" lon="10.0229025"><ele>238.0</ele><time>2026-04-24T15:01:15.125Z</time></trkpt><trkpt lat="36.1994366" lon="10.0230184"><ele>237.0</ele><time>2026-04-24T15:01:16.119Z</time></trkpt><trkpt lat="36.1993081" lon="10.0231352"><ele>237.0</ele><time>2026-04-24T15:01:17.121Z</time></trkpt><trkpt lat="36.1991823" lon="10.023253"><ele>237.0</ele><time>2026-04-24T15:01:18.114Z</time></trkpt><trkpt lat="36.1990572" lon="10.0233811"><ele>237.0</ele><time>2026-04-24T15:01:19.122Z</time></trkpt><trkpt lat="36.1989307" lon="10.0235125"><ele>236.33333333333331</ele><time>2026-04-24T15:01:20.131Z</time></trkpt><trkpt lat="36.1988059" lon="10.0236466"><ele>235.66666666666666</ele><time>2026-04-24T15:01:21.142Z</time></trkpt><trkpt lat="36.198681" lon="10.0237813"><ele>235.0</ele><time>2026-04-24T15:01:22.126Z</time></trkpt><trkpt lat="36.1985592" lon="10.0239166"><ele>235.0</ele><time>2026-04-24T15:01:23.129Z</time></trkpt><trkpt lat="36.1984454" lon="10.0240633"><ele>235.0</ele><time>2026-04-24T15:01:24.126Z</time></trkpt><trkpt lat="36.1983281" lon="10.0242077"><ele>235.0</ele><time>2026-04-24T15:01:25.125Z</time></trkpt><trkpt lat="36.1982142" lon="10.0243474"><ele>234.33333333333331</ele><time>2026-04-24T15:01:26.12Z</time></trkpt><trkpt lat="36.1981011" lon="10.0244912"><ele>233.66666666666669</ele><time>2026-04-24T15:01:27.121Z</time></trkpt><trkpt lat="36.1979943" lon="10.0246379"><ele>233.0</ele><time>2026-04-24T15:01:28.131Z</time></trkpt><trkpt lat="36.1978919" lon="10.0247955"><ele>233.0</ele><time>2026-04-24T15:01:29.119Z</time></trkpt><trkpt lat="36.1977911" lon="10.0249543"><ele>233.0</ele><time>2026-04-24T15:01:30.123Z</time></trkpt><trkpt lat="36.1976902" lon="10.0251105"><ele>233.0</ele><time>2026-04-24T15:01:31.123Z</time></trkpt><trkpt lat="36.1975901" lon="10.0252726"><ele>232.0</ele><time>2026-04-24T15:01:32.145Z</time></trkpt><trkpt lat="36.1974917" lon="10.0254314"><ele>231.0</ele><time>2026-04-24T15:01:33.121Z</time></trkpt><trkpt lat="36.1973985" lon="10.0255956"><ele>230.0</ele><time>2026-04-24T15:01:34.127Z</time></trkpt><trkpt lat="36.1973004" lon="10.0257606"><ele>230.0</ele><time>2026-04-24T15:01:35.124Z</time></trkpt><trkpt lat="36.197209" lon="10.0259186"><ele>230.0</ele><time>2026-04-24T15:01:36.118Z</time></trkpt><trkpt lat="36.197116" lon="10.0260846"><ele>230.0</ele><time>2026-04-24T15:01:37.12Z</time></trkpt><trkpt lat="36.1970239" lon="10.0262515"><ele>230.0</ele><time>2026-04-24T15:01:38.124Z</time></trkpt><trkpt lat="36.1969302" lon="10.0264182"><ele>230.0</ele><time>2026-04-24T15:01:39.116Z</time></trkpt><trkpt lat="36.1968357" lon="10.026583"><ele>230.0</ele><time>2026-04-24T15:01:40.112Z</time></trkpt><trkpt lat="36.1967415" lon="10.0267458"><ele>229.33333333333334</ele><time>2026-04-24T15:01:41.129Z</time></trkpt><trkpt lat="36.196648" lon="10.0269074"><ele>228.66666666666669</ele><time>2026-04-24T15:01:42.118Z</time></trkpt><trkpt lat="36.1965567" lon="10.0270715"><ele>228.0</ele><time>2026-04-24T15:01:43.109Z</time></trkpt><trkpt lat="36.1964639" lon="10.0272361"><ele>227.0</ele><time>2026-04-24T15:01:44.114Z</time></trkpt><trkpt lat="36.1963712" lon="10.0273948"><ele>226.0</ele><time>2026-04-24T15:01:45.122Z</time></trkpt><trkpt lat="36.1962789" lon="10.0275564"><ele>225.0</ele><time>2026-04-24T15:01:46.127Z</time></trkpt><trkpt lat="36.1961868" lon="10.0277207"><ele>224.66666666666669</ele><time>2026-04-24T15:01:47.134Z</time></trkpt><trkpt lat="36.1960934" lon="10.0278821"><ele>224.33333333333334</ele><time>2026-04-24T15:01:48.133Z</time></trkpt><trkpt lat="36.1959955" lon="10.0280442"><ele>224.0</ele><time>2026-04-24T15:01:49.114Z</time></trkpt><trkpt lat="36.1958999" lon="10.0282058"><ele>224.33333333333334</ele><time>2026-04-24T15:01:50.127Z</time></trkpt><trkpt lat="36.1958031" lon="10.0283723"><ele>224.66666666666669</ele><time>2026-04-24T15:01:51.127Z</time></trkpt><trkpt lat="36.1957069" lon="10.0285359"><ele>225.0</ele><time>2026-04-24T15:01:52.124Z</time></trkpt><trkpt lat="36.1956113" lon="10.0287005"><ele>223.66666666666669</ele><time>2026-04-24T15:01:53.122Z</time></trkpt><trkpt lat="36.1955173" lon="10.0288603"><ele>222.33333333333334</ele><time>2026-04-24T15:01:54.131Z</time></trkpt><trkpt lat="36.1954208" lon="10.0290259"><ele>221.0</ele><time>2026-04-24T15:01:55.125Z</time></trkpt><trkpt lat="36.19533" lon="10.0291889"><ele>220.66666666666669</ele><time>2026-04-24T15:01:56.128Z</time></trkpt><trkpt lat="36.1952385" lon="10.0293548"><ele>220.33333333333331</ele><time>2026-04-24T15:01:57.121Z</time></trkpt><trkpt lat="36.1951402" lon="10.0295185"><ele>220.0</ele><time>2026-04-24T15:01:58.116Z</time></trkpt><trkpt lat="36.1950411" lon="10.0296793"><ele>220.0</ele><time>2026-04-24T15:01:59.13Z</time></trkpt><trkpt lat="36.1949456" lon="10.0298428"><ele>220.0</ele><time>2026-04-24T15:02:00.123Z</time></trkpt><trkpt lat="36.1948487" lon="10.0300085"><ele>220.0</ele><time>2026-04-24T15:02:01.129Z</time></trkpt><trkpt lat="36.1947523" lon="10.0301678"><ele>219.33333333333331</ele><time>2026-04-24T15:02:02.105Z</time></trkpt><trkpt lat="36.1946577" lon="10.0303281"><ele>218.66666666666669</ele><time>2026-04-24T15:02:03.123Z</time></trkpt><trkpt lat="36.1945667" lon="10.0304904"><ele>218.0</ele><time>2026-04-24T15:02:04.135Z</time></trkpt><trkpt lat="36.1944741" lon="10.0306523"><ele>217.33333333333334</ele><time>2026-04-24T15:02:05.122Z</time></trkpt><trkpt lat="36.1943774" lon="10.030812"><ele>216.66666666666669</ele><time>2026-04-24T15:02:06.125Z</time></trkpt><trkpt lat="36.1942807" lon="10.0309689"><ele>216.0</ele><time>2026-04-24T15:02:07.111Z</time></trkpt><trkpt lat="36.1941909" lon="10.0311355"><ele>216.0</ele><time>2026-04-24T15:02:08.145Z</time></trkpt><trkpt lat="36.1941013" lon="10.0312978"><ele>216.0</ele><time>2026-04-24T15:02:09.117Z</time></trkpt><trkpt lat="36.1940074" lon="10.0314556"><ele>216.0</ele><time>2026-04-24T15:02:10.132Z</time></trkpt><trkpt lat="36.1939149" lon="10.0316156"><ele>215.66666666666669</ele><time>2026-04-24T15:02:11.111Z</time></trkpt><trkpt lat="36.1938255" lon="10.0317805"><ele>215.33333333333334</ele><time>2026-04-24T15:02:12.111Z</time></trkpt><trkpt lat="36.193731" lon="10.0319531"><ele>215.0</ele><time>2026-04-24T15:02:13.128Z</time></trkpt><trkpt lat="36.1936347" lon="10.0321179"><ele>215.0</ele><time>2026-04-24T15:02:14.125Z</time></trkpt><trkpt lat="36.1935434" lon="10.0322822"><ele>215.0</ele><time>2026-04-24T15:02:15.118Z</time></trkpt><trkpt lat="36.1934463" lon="10.0324418"><ele>215.0</ele><time>2026-04-24T15:02:16.13Z</time></trkpt><trkpt lat="36.1933506" lon="10.0326001"><ele>214.66666666666669</ele><time>2026-04-24T15:02:17.105Z</time></trkpt><trkpt lat="36.1932569" lon="10.0327595"><ele>214.33333333333331</ele><time>2026-04-24T15:02:18.126Z</time></trkpt><trkpt lat="36.1931594" lon="10.0329262"><ele>214.0</ele><time>2026-04-24T15:02:19.122Z</time></trkpt><trkpt lat="36.1930618" lon="10.0330938"><ele>213.66666666666666</ele><time>2026-04-24T15:02:20.126Z</time></trkpt><trkpt lat="36.1929685" lon="10.0332581"><ele>213.33333333333331</ele><time>2026-04-24T15:02:21.118Z</time></trkpt><trkpt lat="36.192874" lon="10.0334209"><ele>213.0</ele><time>2026-04-24T15:02:22.14Z</time></trkpt><trkpt lat="36.1927778" lon="10.0335793"><ele>212.66666666666669</ele><time>2026-04-24T15:02:23.124Z</time></trkpt><trkpt lat="36.1926845" lon="10.0337389"><ele>212.33333333333334</ele><time>2026-04-24T15:02:24.126Z</time></trkpt><trkpt lat="36.1925942" lon="10.0338936"><ele>212.0</ele><time>2026-04-24T15:02:25.113Z</time></trkpt><trkpt lat="36.1925037" lon="10.0340596"><ele>211.33333333333334</ele><time>2026-04-24T15:02:26.133Z</time></trkpt><trkpt lat="36.1924193" lon="10.0342244"><ele>210.66666666666669</ele><time>2026-04-24T15:02:27.109Z</time></trkpt><trkpt lat="36.1923398" lon="10.0343998"><ele>210.0</ele><time>2026-04-24T15:02:28.119Z</time></trkpt><trkpt lat="36.1922697" lon="10.0345851"><ele>209.66666666666669</ele><time>2026-04-24T15:02:29.13Z</time></trkpt><trkpt lat="36.1922183" lon="10.034774"><ele>209.33333333333334</ele><time>2026-04-24T15:02:30.13Z</time></trkpt><trkpt lat="36.1921771" lon="10.0349703"><ele>209.0</ele><time>2026-04-24T15:02:31.119Z</time></trkpt><trkpt lat="36.1921534" lon="10.0351732"><ele>208.0</ele><time>2026-04-24T15:02:32.111Z</time></trkpt><trkpt lat="36.1921412" lon="10.0353702"><ele>207.0</ele><time>2026-04-24T15:02:33.129Z</time></trkpt><trkpt lat="36.1921428" lon="10.0355706"><ele>206.0</ele><time>2026-04-24T15:02:34.115Z</time></trkpt><trkpt lat="36.1921547" lon="10.0357707"><ele>205.0</ele><time>2026-04-24T15:02:35.129Z</time></trkpt><trkpt lat="36.1921619" lon="10.0359641"><ele>204.0</ele><time>2026-04-24T15:02:36.118Z</time></trkpt><trkpt lat="36.1921806" lon="10.0361646"><ele>203.0</ele><time>2026-04-24T15:02:37.118Z</time></trkpt><trkpt lat="36.1921973" lon="10.0363723"><ele>203.0</ele><time>2026-04-24T15:02:38.108Z</time></trkpt><trkpt lat="36.1922116" lon="10.0365746"><ele>203.0</ele><time>2026-04-24T15:02:39.13Z</time></trkpt><trkpt lat="36.1922224" lon="10.0367766"><ele>203.0</ele><time>2026-04-24T15:02:40.124Z</time></trkpt><trkpt lat="36.1922395" lon="10.0369749"><ele>202.0</ele><time>2026-04-24T15:02:41.115Z</time></trkpt><trkpt lat="36.1922496" lon="10.0371742"><ele>201.0</ele><time>2026-04-24T15:02:42.112Z</time></trkpt><trkpt lat="36.1922669" lon="10.0373705"><ele>200.0</ele><time>2026-04-24T15:02:43.122Z</time></trkpt><trkpt lat="36.1922776" lon="10.0375653"><ele>200.0</ele><time>2026-04-24T15:02:44.124Z</time></trkpt><trkpt lat="36.1922877" lon="10.0377642"><ele>200.0</ele><time>2026-04-24T15:02:45.111Z</time></trkpt><trkpt lat="36.1923013" lon="10.0379596"><ele>200.0</ele><time>2026-04-24T15:02:46.112Z</time></trkpt><trkpt lat="36.1923165" lon="10.0381588"><ele>201.0</ele><time>2026-04-24T15:02:47.11Z</time></trkpt><trkpt lat="36.1923324" lon="10.0383568"><ele>202.0</ele><time>2026-04-24T15:02:48.133Z</time></trkpt><trkpt lat="36.192348" lon="10.0385549"><ele>203.0</ele><time>2026-04-24T15:02:49.121Z</time></trkpt><trkpt lat="36.1923632" lon="10.0387484"><ele>200.33333333333334</ele><time>2026-04-24T15:02:50.105Z</time></trkpt><trkpt lat="36.1923793" lon="10.0389505"><ele>197.66666666666669</ele><time>2026-04-24T15:02:51.131Z</time></trkpt><trkpt lat="36.1923958" lon="10.0391538"><ele>195.0</ele><time>2026-04-24T15:02:52.124Z</time></trkpt><trkpt lat="36.1924106" lon="10.0393542"><ele>195.0</ele><time>2026-04-24T15:02:53.123Z</time></trkpt><trkpt lat="36.1924215" lon="10.0395556"><ele>195.0</ele><time>2026-04-24T15:02:54.131Z</time></trkpt><trkpt lat="36.1924359" lon="10.0397595"><ele>195.0</ele><time>2026-04-24T15:02:55.127Z</time></trkpt><trkpt lat="36.19245" lon="10.0399612"><ele>195.33333333333331</ele><time>2026-04-24T15:02:56.115Z</time></trkpt><trkpt lat="36.1924671" lon="10.0401595"><ele>195.66666666666666</ele><time>2026-04-24T15:02:57.114Z</time></trkpt><trkpt lat="36.1924808" lon="10.040357"><ele>196.0</ele><time>2026-04-24T15:02:58.112Z</time></trkpt><trkpt lat="36.1924986" lon="10.0405543"><ele>196.0</ele><time>2026-04-24T15:02:59.12Z</time></trkpt><trkpt lat="36.192501" lon="10.0407542"><ele>196.0</ele><time>2026-04-24T15:03:00.123Z</time></trkpt><trkpt lat="36.1924873" lon="10.0409513"><ele>196.0</ele><time>2026-04-24T15:03:01.124Z</time></trkpt><trkpt lat="36.1924603" lon="10.0411395"><ele>196.33333333333331</ele><time>2026-04-24T15:03:02.112Z</time></trkpt><trkpt lat="36.1924175" lon="10.0413286"><ele>196.66666666666669</ele><time>2026-04-24T15:03:03.129Z</time></trkpt><trkpt lat="36.1923602" lon="10.041519"><ele>197.0</ele><time>2026-04-24T15:03:04.091Z</time></trkpt><trkpt lat="36.1922842" lon="10.0416982"><ele>201.0</ele><time>2026-04-24T15:03:05.124Z</time></trkpt><trkpt lat="36.1921987" lon="10.0418678"><ele>205.0</ele><time>2026-04-24T15:03:06.121Z</time></trkpt><trkpt lat="36.1921104" lon="10.0420309"><ele>209.0</ele><time>2026-04-24T15:03:07.114Z</time></trkpt><trkpt lat="36.1920083" lon="10.0421828"><ele>209.0</ele><time>2026-04-24T15:03:08.127Z</time></trkpt><trkpt lat="36.1919003" lon="10.0423239"><ele>209.0</ele><time>2026-04-24T15:03:09.133Z</time></trkpt><trkpt lat="36.1917809" lon="10.042449"><ele>209.0</ele><time>2026-04-24T15:03:10.125Z</time></trkpt><trkpt lat="36.1916441" lon="10.0425644"><ele>205.0</ele><time>2026-04-24T15:03:11.136Z</time></trkpt><trkpt lat="36.1915049" lon="10.0426679"><ele>201.0</ele><time>2026-04-24T15:03:12.115Z</time></trkpt><trkpt lat="36.1913661" lon="10.042773"><ele>197.0</ele><time>2026-04-24T15:03:13.125Z</time></trkpt><trkpt lat="36.1912258" lon="10.0428846"><ele>197.0</ele><time>2026-04-24T15:03:14.11Z</time></trkpt><trkpt lat="36.1910851" lon="10.0430001"><ele>197.0</ele><time>2026-04-24T15:03:15.138Z</time></trkpt><trkpt lat="36.1909485" lon="10.0431072"><ele>197.0</ele><time>2026-04-24T15:03:16.129Z</time></trkpt><trkpt lat="36.1908159" lon="10.0432156"><ele>195.0</ele><time>2026-04-24T15:03:17.121Z</time></trkpt><trkpt lat="36.1906834" lon="10.043326"><ele>193.0</ele><time>2026-04-24T15:03:18.122Z</time></trkpt><trkpt lat="36.1905551" lon="10.0434392"><ele>191.0</ele><time>2026-04-24T15:03:19.114Z</time></trkpt><trkpt lat="36.1904209" lon="10.0435539"><ele>191.0</ele><time>2026-04-24T15:03:20.113Z</time></trkpt><trkpt lat="36.1902977" lon="10.0436743"><ele>191.0</ele><time>2026-04-24T15:03:21.127Z</time></trkpt><trkpt lat="36.1901765" lon="10.0438083"><ele>191.0</ele><time>2026-04-24T15:03:22.117Z</time></trkpt><trkpt lat="36.1900591" lon="10.043944"><ele>191.0</ele><time>2026-04-24T15:03:23.13Z</time></trkpt><trkpt lat="36.1899461" lon="10.0440842"><ele>191.0</ele><time>2026-04-24T15:03:24.143Z</time></trkpt><trkpt lat="36.189837" lon="10.0442182"><ele>191.0</ele><time>2026-04-24T15:03:25.139Z</time></trkpt><trkpt lat="36.1897303" lon="10.0443605"><ele>196.0</ele><time>2026-04-24T15:03:26.128Z</time></trkpt><trkpt lat="36.1896208" lon="10.0444968"><ele>201.0</ele><time>2026-04-24T15:03:27.117Z</time></trkpt><trkpt lat="36.1895064" lon="10.0446357"><ele>206.0</ele><time>2026-04-24T15:03:28.122Z</time></trkpt><trkpt lat="36.1893877" lon="10.0447829"><ele>206.0</ele><time>2026-04-24T15:03:29.103Z</time></trkpt><trkpt lat="36.1892688" lon="10.0449284"><ele>206.0</ele><time>2026-04-24T15:03:30.133Z</time></trkpt><trkpt lat="36.1891539" lon="10.0450775"><ele>206.0</ele><time>2026-04-24T15:03:31.115Z</time></trkpt><trkpt lat="36.1890383" lon="10.0452292"><ele>206.0</ele><time>2026-04-24T15:03:32.119Z</time></trkpt><trkpt lat="36.1889228" lon="10.0453819"><ele>206.0</ele><time>2026-04-24T15:03:33.113Z</time></trkpt><trkpt lat="36.1888067" lon="10.0455233"><ele>206.0</ele><time>2026-04-24T15:03:34.116Z</time></trkpt><trkpt lat="36.188695" lon="10.0456669"><ele>203.33333333333334</ele><time>2026-04-24T15:03:35.118Z</time></trkpt><trkpt lat="36.1885809" lon="10.0458092"><ele>200.66666666666669</ele><time>2026-04-24T15:03:36.139Z</time></trkpt><trkpt lat="36.1884677" lon="10.0459499"><ele>198.0</ele><time>2026-04-24T15:03:37.133Z</time></trkpt><trkpt lat="36.188355" lon="10.0460974"><ele>198.0</ele><time>2026-04-24T15:03:38.118Z</time></trkpt><trkpt lat="36.1882443" lon="10.0462421"><ele>198.0</ele><time>2026-04-24T15:03:39.117Z</time></trkpt><trkpt lat="36.1881352" lon="10.0463907"><ele>198.0</ele><time>2026-04-24T15:03:40.126Z</time></trkpt><trkpt lat="36.188025" lon="10.0465315"><ele>197.0</ele><time>2026-04-24T15:03:41.124Z</time></trkpt><trkpt lat="36.1879096" lon="10.0466747"><ele>196.0</ele><time>2026-04-24T15:03:42.12Z</time></trkpt><trkpt lat="36.1877989" lon="10.0468181"><ele>195.0</ele><time>2026-04-24T15:03:43.105Z</time></trkpt><trkpt lat="36.1876851" lon="10.0469604"><ele>195.0</ele><time>2026-04-24T15:03:44.114Z</time></trkpt><trkpt lat="36.1875696" lon="10.0471027"><ele>195.0</ele><time>2026-04-24T15:03:45.122Z</time></trkpt><trkpt lat="36.187454" lon="10.047249"><ele>195.0</ele><time>2026-04-24T15:03:46.124Z</time></trkpt><trkpt lat="36.1873378" lon="10.0473919"><ele>194.66666666666669</ele><time>2026-04-24T15:03:47.116Z</time></trkpt><trkpt lat="36.1872209" lon="10.0475361"><ele>194.33333333333334</ele><time>2026-04-24T15:03:48.138Z</time></trkpt><trkpt lat="36.187107" lon="10.0476773"><ele>194.0</ele><time>2026-04-24T15:03:49.116Z</time></trkpt><trkpt lat="36.1869981" lon="10.0478224"><ele>194.0</ele><time>2026-04-24T15:03:50.135Z</time></trkpt><trkpt lat="36.1868897" lon="10.0479647"><ele>194.0</ele><time>2026-04-24T15:03:51.113Z</time></trkpt><trkpt lat="36.1867817" lon="10.0481078"><ele>194.0</ele><time>2026-04-24T15:03:52.121Z</time></trkpt><trkpt lat="36.1866742" lon="10.0482492"><ele>194.0</ele><time>2026-04-24T15:03:53.124Z</time></trkpt><trkpt lat="36.1865642" lon="10.0483899"><ele>194.0</ele><time>2026-04-24T15:03:54.118Z</time></trkpt><trkpt lat="36.1864579" lon="10.0485294"><ele>194.0</ele><time>2026-04-24T15:03:55.115Z</time></trkpt><trkpt lat="36.1863385" lon="10.0486701"><ele>194.0</ele><time>2026-04-24T15:03:56.112Z</time></trkpt><trkpt lat="36.1862223" lon="10.0488129"><ele>194.0</ele><time>2026-04-24T15:03:57.108Z</time></trkpt><trkpt lat="36.1861086" lon="10.0489542"><ele>194.0</ele><time>2026-04-24T15:03:58.125Z</time></trkpt><trkpt lat="36.1859922" lon="10.0490993"><ele>193.33333333333334</ele><time>2026-04-24T15:03:59.123Z</time></trkpt><trkpt lat="36.1858736" lon="10.0492497"><ele>192.66666666666669</ele><time>2026-04-24T15:04:00.123Z</time></trkpt><trkpt lat="36.1857622" lon="10.0494023"><ele>192.0</ele><time>2026-04-24T15:04:01.13Z</time></trkpt><trkpt lat="36.185653" lon="10.0495503"><ele>192.0</ele><time>2026-04-24T15:04:02.124Z</time></trkpt><trkpt lat="36.1855441" lon="10.0496953"><ele>192.0</ele><time>2026-04-24T15:04:03.119Z</time></trkpt><trkpt lat="36.1854382" lon="10.0498312"><ele>192.0</ele><time>2026-04-24T15:04:04.12Z</time></trkpt><trkpt lat="36.1853245" lon="10.0499728"><ele>190.66666666666666</ele><time>2026-04-24T15:04:05.118Z</time></trkpt><trkpt lat="36.1852079" lon="10.0501188"><ele>189.33333333333331</ele><time>2026-04-24T15:04:06.107Z</time></trkpt><trkpt lat="36.1850942" lon="10.0502674"><ele>188.0</ele><time>2026-04-24T15:04:07.123Z</time></trkpt><trkpt lat="36.1849822" lon="10.0504144"><ele>188.0</ele><time>2026-04-24T15:04:08.122Z</time></trkpt><trkpt lat="36.1848668" lon="10.0505589"><ele>188.0</ele><time>2026-04-24T15:04:09.122Z</time></trkpt><trkpt lat="36.184754" lon="10.0507041"><ele>188.0</ele><time>2026-04-24T15:04:10.122Z</time></trkpt><trkpt lat="36.1846392" lon="10.050846"><ele>186.66666666666666</ele><time>2026-04-24T15:04:11.108Z</time></trkpt><trkpt lat="36.184527" lon="10.0509884"><ele>185.33333333333334</ele><time>2026-04-24T15:04:12.106Z</time></trkpt><trkpt lat="36.184415" lon="10.0511314"><ele>184.0</ele><time>2026-04-24T15:04:13.133Z</time></trkpt><trkpt lat="36.1843032" lon="10.0512789"><ele>184.0</ele><time>2026-04-24T15:04:14.123Z</time></trkpt><trkpt lat="36.1841939" lon="10.0514274"><ele>184.0</ele><time>2026-04-24T15:04:15.116Z</time></trkpt><trkpt lat="36.1840819" lon="10.0515681"><ele>184.0</ele><time>2026-04-24T15:04:16.129Z</time></trkpt><trkpt lat="36.1839695" lon="10.0517092"><ele>182.66666666666669</ele><time>2026-04-24T15:04:17.114Z</time></trkpt><trkpt lat="36.1838579" lon="10.0518508"><ele>181.33333333333334</ele><time>2026-04-24T15:04:18.12Z</time></trkpt><trkpt lat="36.1837465" lon="10.0519919"><ele>180.0</ele><time>2026-04-24T15:04:19.133Z</time></trkpt><trkpt lat="36.1836375" lon="10.0521311"><ele>180.0</ele><time>2026-04-24T15:04:20.114Z</time></trkpt><trkpt lat="36.1835231" lon="10.0522738"><ele>180.0</ele><time>2026-04-24T15:04:21.142Z</time></trkpt><trkpt lat="36.1834062" lon="10.052409"><ele>180.0</ele><time>2026-04-24T15:04:22.13Z</time></trkpt><trkpt lat="36.1832843" lon="10.0525419"><ele>180.66666666666666</ele><time>2026-04-24T15:04:23.107Z</time></trkpt><trkpt lat="36.1831566" lon="10.0526535"><ele>181.33333333333331</ele><time>2026-04-24T15:04:24.136Z</time></trkpt><trkpt lat="36.183019" lon="10.0527467"><ele>182.0</ele><time>2026-04-24T15:04:25.166Z</time></trkpt><trkpt lat="36.1828756" lon="10.052835"><ele>182.0</ele><time>2026-04-24T15:04:26.114Z</time></trkpt><trkpt lat="36.1827226" lon="10.052913"><ele>182.0</ele><time>2026-04-24T15:04:27.124Z</time></trkpt><trkpt lat="36.1825639" lon="10.0529837"><ele>182.0</ele><time>2026-04-24T15:04:28.122Z</time></trkpt><trkpt lat="36.1824058" lon="10.0530474"><ele>182.33333333333331</ele><time>2026-04-24T15:04:29.125Z</time></trkpt><trkpt lat="36.1822472" lon="10.0531104"><ele>182.66666666666666</ele><time>2026-04-24T15:04:30.105Z</time></trkpt><trkpt lat="36.1820937" lon="10.0531737"><ele>183.0</ele><time>2026-04-24T15:04:31.105Z</time></trkpt><trkpt lat="36.1819408" lon="10.0532364"><ele>182.66666666666666</ele><time>2026-04-24T15:04:32.13Z</time></trkpt><trkpt lat="36.1817884" lon="10.0532934"><ele>182.33333333333331</ele><time>2026-04-24T15:04:33.121Z</time></trkpt><trkpt lat="36.1816367" lon="10.0533553"><ele>182.0</ele><time>2026-04-24T15:04:34.125Z</time></trkpt><trkpt lat="36.1814839" lon="10.0534174"><ele>182.0</ele><time>2026-04-24T15:04:35.115Z</time></trkpt><trkpt lat="36.1813266" lon="10.053477"><ele>182.0</ele><time>2026-04-24T15:04:36.107Z</time></trkpt><trkpt lat="36.1811722" lon="10.0535356"><ele>182.0</ele><time>2026-04-24T15:04:37.127Z</time></trkpt><trkpt lat="36.1810145" lon="10.0535881"><ele>182.0</ele><time>2026-04-24T15:04:38.121Z</time></trkpt><trkpt lat="36.1808566" lon="10.0536459"><ele>182.0</ele><time>2026-04-24T15:04:39.122Z</time></trkpt><trkpt lat="36.180699" lon="10.0537082"><ele>182.0</ele><time>2026-04-24T15:04:40.12Z</time></trkpt><trkpt lat="36.1805439" lon="10.0537675"><ele>182.33333333333331</ele><time>2026-04-24T15:04:41.154Z</time></trkpt><trkpt lat="36.1803852" lon="10.0538286"><ele>182.66666666666666</ele><time>2026-04-24T15:04:42.096Z</time></trkpt><trkpt lat="36.1802275" lon="10.0538886"><ele>183.0</ele><time>2026-04-24T15:04:43.11Z</time></trkpt><trkpt lat="36.1800694" lon="10.0539483"><ele>183.0</ele><time>2026-04-24T15:04:44.122Z</time></trkpt><trkpt lat="36.179914" lon="10.054007"><ele>183.0</ele><time>2026-04-24T15:04:45.115Z</time></trkpt><trkpt lat="36.1797594" lon="10.0540673"><ele>183.0</ele><time>2026-04-24T15:04:46.113Z</time></trkpt><trkpt lat="36.1796007" lon="10.0541246"><ele>181.66666666666666</ele><time>2026-04-24T15:04:47.103Z</time></trkpt><trkpt lat="36.1794427" lon="10.0541856"><ele>180.33333333333331</ele><time>2026-04-24T15:04:48.115Z</time></trkpt><trkpt lat="36.1792912" lon="10.0542426"><ele>179.0</ele><time>2026-04-24T15:04:49.131Z</time></trkpt><trkpt lat="36.1791369" lon="10.0542962"><ele>179.33333333333331</ele><time>2026-04-24T15:04:50.123Z</time></trkpt><trkpt lat="36.1789829" lon="10.0543488"><ele>179.66666666666666</ele><time>2026-04-24T15:04:51.105Z</time></trkpt><trkpt lat="36.1788291" lon="10.0544072"><ele>180.0</ele><time>2026-04-24T15:04:52.13Z</time></trkpt><trkpt lat="36.1786737" lon="10.0544701"><ele>180.0</ele><time>2026-04-24T15:04:53.129Z</time></trkpt><trkpt lat="36.1785173" lon="10.0545298"><ele>180.0</ele><time>2026-04-24T15:04:54.129Z</time></trkpt><trkpt lat="36.1783601" lon="10.0545845"><ele>180.0</ele><time>2026-04-24T15:04:55.117Z</time></trkpt><trkpt lat="36.1782081" lon="10.0546429"><ele>181.0</ele><time>2026-04-24T15:04:56.117Z</time></trkpt><trkpt lat="36.178051" lon="10.0546975"><ele>182.0</ele><time>2026-04-24T15:04:57.114Z</time></trkpt><trkpt lat="36.1778952" lon="10.0547524"><ele>183.0</ele><time>2026-04-24T15:04:58.119Z</time></trkpt><trkpt lat="36.1777404" lon="10.0548079"><ele>183.0</ele><time>2026-04-24T15:04:59.118Z</time></trkpt><trkpt lat="36.1775861" lon="10.0548701"><ele>183.0</ele><time>2026-04-24T15:05:00.104Z</time></trkpt><trkpt lat="36.177432" lon="10.0549285"><ele>183.0</ele><time>2026-04-24T15:05:01.121Z</time></trkpt><trkpt lat="36.1772811" lon="10.0549885"><ele>182.0</ele><time>2026-04-24T15:05:02.123Z</time></trkpt><trkpt lat="36.1771242" lon="10.0550435"><ele>181.0</ele><time>2026-04-24T15:05:03.117Z</time></trkpt><trkpt lat="36.1769737" lon="10.0551023"><ele>180.0</ele><time>2026-04-24T15:05:04.124Z</time></trkpt><trkpt lat="36.1768252" lon="10.0551532"><ele>180.0</ele><time>2026-04-24T15:05:05.11Z</time></trkpt><trkpt lat="36.1766734" lon="10.0552049"><ele>180.0</ele><time>2026-04-24T15:05:06.12Z</time></trkpt><trkpt lat="36.1765257" lon="10.0552488"><ele>180.0</ele><time>2026-04-24T15:05:07.122Z</time></trkpt><trkpt lat="36.1763768" lon="10.0552809"><ele>180.0</ele><time>2026-04-24T15:05:08.115Z</time></trkpt><trkpt lat="36.1762253" lon="10.0553063"><ele>180.0</ele><time>2026-04-24T15:05:09.11Z</time></trkpt><trkpt lat="36.1760775" lon="10.0553213"><ele>180.0</ele><time>2026-04-24T15:05:10.116Z</time></trkpt><trkpt lat="36.1759288" lon="10.0553214"><ele>180.0</ele><time>2026-04-24T15:05:11.119Z</time></trkpt><trkpt lat="36.1757834" lon="10.0553181"><ele>180.0</ele><time>2026-04-24T15:05:12.115Z</time></trkpt><trkpt lat="36.175648" lon="10.0553074"><ele>180.0</ele><time>2026-04-24T15:05:13.14Z</time></trkpt><trkpt lat="36.1755206" lon="10.0552846"><ele>180.0</ele><time>2026-04-24T15:05:14.104Z</time></trkpt><trkpt lat="36.1754032" lon="10.0552601"><ele>179.0</ele><time>2026-04-24T15:05:15.12Z</time></trkpt><trkpt lat="36.1752825" lon="10.0552294"><ele>178.0</ele><time>2026-04-24T15:05:16.127Z</time></trkpt><trkpt lat="36.1751655" lon="10.0552018"><ele>177.0</ele><time>2026-04-24T15:05:17.121Z</time></trkpt><trkpt lat="36.1750498" lon="10.0551782"><ele>176.0</ele><time>2026-04-24T15:05:18.124Z</time></trkpt><trkpt lat="36.1749413" lon="10.0551547"><ele>176.4</ele><time>2026-04-24T15:05:19.115Z</time></trkpt><trkpt lat="36.1748369" lon="10.0551246"><ele>176.8</ele><time>2026-04-24T15:05:20.122Z</time></trkpt><trkpt lat="36.1747333" lon="10.0550992"><ele>177.20000000000002</ele><time>2026-04-24T15:05:21.113Z</time></trkpt><trkpt lat="36.1746298" lon="10.0550711"><ele>177.60000000000002</ele><time>2026-04-24T15:05:22.118Z</time></trkpt><trkpt lat="36.1745237" lon="10.0550513"><ele>178.0</ele><time>2026-04-24T15:05:23.116Z</time></trkpt><trkpt lat="36.174428" lon="10.0550315"><ele>178.0</ele><time>2026-04-24T15:05:24.113Z</time></trkpt><trkpt lat="36.1743378" lon="10.0550069"><ele>178.0</ele><time>2026-04-24T15:05:25.123Z</time></trkpt><trkpt lat="36.1742523" lon="10.0549937"><ele>178.0</ele><time>2026-04-24T15:05:26.122Z</time></trkpt><trkpt lat="36.1741779" lon="10.0549814"><ele>178.0</ele><time>2026-04-24T15:05:27.115Z</time></trkpt><trkpt lat="36.1741133" lon="10.0549689"><ele>178.0</ele><time>2026-04-24T15:05:28.115Z</time></trkpt><trkpt lat="36.1740306" lon="10.0549619"><ele>178.0</ele><time>2026-04-24T15:05:30.146Z</time></trkpt><trkpt lat="36.1739522" lon="10.0549615"><ele>178.8</ele><time>2026-04-24T15:05:32.118Z</time></trkpt><trkpt lat="36.1738593" lon="10.0549413"><ele>179.60000000000002</ele><time>2026-04-24T15:05:34.109Z</time></trkpt><trkpt lat="36.1737243" lon="10.0548903"><ele>180.39999999999998</ele><time>2026-04-24T15:05:36.125Z</time></trkpt><trkpt lat="36.1736453" lon="10.0548701"><ele>181.2</ele><time>2026-04-24T15:05:37.117Z</time></trkpt><trkpt lat="36.1735675" lon="10.0548491"><ele>182.0</ele><time>2026-04-24T15:05:38.117Z</time></trkpt><trkpt lat="36.1734862" lon="10.0548333"><ele>182.0</ele><time>2026-04-24T15:05:39.116Z</time></trkpt><trkpt lat="36.1734032" lon="10.0548088"><ele>182.0</ele><time>2026-04-24T15:05:40.117Z</time></trkpt><trkpt lat="36.1733188" lon="10.0547901"><ele>182.0</ele><time>2026-04-24T15:05:41.126Z</time></trkpt><trkpt lat="36.1732286" lon="10.0547752"><ele>182.0</ele><time>2026-04-24T15:05:42.106Z</time></trkpt><trkpt lat="36.1731385" lon="10.0547567"><ele>182.0</ele><time>2026-04-24T15:05:43.123Z</time></trkpt><trkpt lat="36.1730519" lon="10.0547409"><ele>182.0</ele><time>2026-04-24T15:05:44.135Z</time></trkpt><trkpt lat="36.1729644" lon="10.0547189"><ele>181.5</ele><time>2026-04-24T15:05:45.109Z</time></trkpt><trkpt lat="36.1728813" lon="10.0546993"><ele>181.0</ele><time>2026-04-24T15:05:46.132Z</time></trkpt><trkpt lat="36.1727985" lon="10.0546757"><ele>180.5</ele><time>2026-04-24T15:05:47.111Z</time></trkpt><trkpt lat="36.1727242" lon="10.0546627"><ele>180.0</ele><time>2026-04-24T15:05:48.122Z</time></trkpt><trkpt lat="36.1726599" lon="10.0546492"><ele>179.5</ele><time>2026-04-24T15:05:49.118Z</time></trkpt><trkpt lat="36.1725408" lon="10.054623"><ele>179.0</ele><time>2026-04-24T15:05:51.116Z</time></trkpt><trkpt lat="36.1724739" lon="10.0546181"><ele>179.0</ele><time>2026-04-24T15:05:52.134Z</time></trkpt><trkpt lat="36.1724012" lon="10.0546053"><ele>179.0</ele><time>2026-04-24T15:05:53.11Z</time></trkpt><trkpt lat="36.1723166" lon="10.0545872"><ele>179.0</ele><time>2026-04-24T15:05:54.125Z</time></trkpt><trkpt lat="36.1722301" lon="10.0545648"><ele>179.0</ele><time>2026-04-24T15:05:55.111Z</time></trkpt><trkpt lat="36.1721393" lon="10.0545427"><ele>179.0</ele><time>2026-04-24T15:05:56.125Z</time></trkpt><trkpt lat="36.1720507" lon="10.0545207"><ele>179.0</ele><time>2026-04-24T15:05:57.116Z</time></trkpt><trkpt lat="36.1719542" lon="10.0544985"><ele>178.39999999999998</ele><time>2026-04-24T15:05:58.126Z</time></trkpt><trkpt lat="36.1718519" lon="10.0544798"><ele>177.8</ele><time>2026-04-24T15:05:59.127Z</time></trkpt><trkpt lat="36.1717441" lon="10.0544554"><ele>177.2</ele><time>2026-04-24T15:06:00.113Z</time></trkpt><trkpt lat="36.1716385" lon="10.054438"><ele>176.60000000000002</ele><time>2026-04-24T15:06:01.133Z</time></trkpt><trkpt lat="36.1715234" lon="10.054412"><ele>176.0</ele><time>2026-04-24T15:06:02.124Z</time></trkpt><trkpt lat="36.1714008" lon="10.0543836"><ele>175.0</ele><time>2026-04-24T15:06:03.118Z</time></trkpt><trkpt lat="36.171228" lon="10.0543475"><ele>174.0</ele><time>2026-04-24T15:06:04.126Z</time></trkpt><trkpt lat="36.1709984" lon="10.0542979"><ele>173.0</ele><time>2026-04-24T15:06:05.117Z</time></trkpt><trkpt lat="36.1707621" lon="10.0542411"><ele>172.0</ele><time>2026-04-24T15:06:06.12Z</time></trkpt><trkpt lat="36.1705292" lon="10.0541961"><ele>171.0</ele><time>2026-04-24T15:06:07.113Z</time></trkpt><trkpt lat="36.1703194" lon="10.0541428"><ele>171.33333333333334</ele><time>2026-04-24T15:06:08.132Z</time></trkpt><trkpt lat="36.1701258" lon="10.0541014"><ele>171.66666666666669</ele><time>2026-04-24T15:06:09.115Z</time></trkpt><trkpt lat="36.1699412" lon="10.0540628"><ele>172.0</ele><time>2026-04-24T15:06:10.12Z</time></trkpt><trkpt lat="36.1697753" lon="10.0540275"><ele>172.0</ele><time>2026-04-24T15:06:11.142Z</time></trkpt><trkpt lat="36.1696147" lon="10.0539942"><ele>172.0</ele><time>2026-04-24T15:06:12.103Z</time></trkpt><trkpt lat="36.1694588" lon="10.0539638"><ele>172.0</ele><time>2026-04-24T15:06:13.111Z</time></trkpt><trkpt lat="36.1693005" lon="10.0539279"><ele>172.0</ele><time>2026-04-24T15:06:14.117Z</time></trkpt><trkpt lat="36.1691433" lon="10.0538974"><ele>172.0</ele><time>2026-04-24T15:06:15.137Z</time></trkpt><trkpt lat="36.1689816" lon="10.0538629"><ele>172.0</ele><time>2026-04-24T15:06:16.128Z</time></trkpt><trkpt lat="36.1688157" lon="10.0538244"><ele>170.66666666666669</ele><time>2026-04-24T15:06:17.116Z</time></trkpt><trkpt lat="36.1686493" lon="10.0537887"><ele>169.33333333333334</ele><time>2026-04-24T15:06:18.11Z</time></trkpt><trkpt lat="36.1684866" lon="10.0537568"><ele>168.0</ele><time>2026-04-24T15:06:19.119Z</time></trkpt><trkpt lat="36.1683273" lon="10.0537238"><ele>168.0</ele><time>2026-04-24T15:06:20.108Z</time></trkpt><trkpt lat="36.1681701" lon="10.0536914"><ele>168.0</ele><time>2026-04-24T15:06:21.116Z</time></trkpt><trkpt lat="36.1680097" lon="10.0536536"><ele>168.0</ele><time>2026-04-24T15:06:22.125Z</time></trkpt><trkpt lat="36.1678502" lon="10.0536158"><ele>168.0</ele><time>2026-04-24T15:06:23.115Z</time></trkpt><trkpt lat="36.1676892" lon="10.0535815"><ele>168.0</ele><time>2026-04-24T15:06:24.132Z</time></trkpt><trkpt lat="36.1675313" lon="10.0535427"><ele>168.0</ele><time>2026-04-24T15:06:25.127Z</time></trkpt><trkpt lat="36.1673706" lon="10.0535106"><ele>168.0</ele><time>2026-04-24T15:06:26.111Z</time></trkpt><trkpt lat="36.1672057" lon="10.053477"><ele>168.0</ele><time>2026-04-24T15:06:27.109Z</time></trkpt><trkpt lat="36.1670448" lon="10.0534381"><ele>168.0</ele><time>2026-04-24T15:06:28.122Z</time></trkpt><trkpt lat="36.1668827" lon="10.0534018"><ele>168.0</ele><time>2026-04-24T15:06:29.129Z</time></trkpt><trkpt lat="36.1667201" lon="10.0533636"><ele>168.0</ele><time>2026-04-24T15:06:30.111Z</time></trkpt><trkpt lat="36.1665559" lon="10.0533251"><ele>168.0</ele><time>2026-04-24T15:06:31.115Z</time></trkpt><trkpt lat="36.1664016" lon="10.0532967"><ele>168.66666666666666</ele><time>2026-04-24T15:06:32.099Z</time></trkpt><trkpt lat="36.1662411" lon="10.0532698"><ele>169.33333333333331</ele><time>2026-04-24T15:06:33.112Z</time></trkpt><trkpt lat="36.1660882" lon="10.053235"><ele>170.0</ele><time>2026-04-24T15:06:34.104Z</time></trkpt><trkpt lat="36.1659287" lon="10.0531974"><ele>170.0</ele><time>2026-04-24T15:06:35.117Z</time></trkpt><trkpt lat="36.1657707" lon="10.0531682"><ele>170.0</ele><time>2026-04-24T15:06:36.117Z</time></trkpt><trkpt lat="36.1656035" lon="10.0531294"><ele>170.0</ele><time>2026-04-24T15:06:37.111Z</time></trkpt><trkpt lat="36.1654368" lon="10.0530945"><ele>169.0</ele><time>2026-04-24T15:06:38.119Z</time></trkpt><trkpt lat="36.1652778" lon="10.0530577"><ele>168.0</ele><time>2026-04-24T15:06:39.119Z</time></trkpt><trkpt lat="36.1651123" lon="10.0530232"><ele>167.0</ele><time>2026-04-24T15:06:40.113Z</time></trkpt><trkpt lat="36.1649535" lon="10.0529826"><ele>166.66666666666666</ele><time>2026-04-24T15:06:41.122Z</time></trkpt><trkpt lat="36.164794" lon="10.0529522"><ele>166.33333333333334</ele><time>2026-04-24T15:06:42.123Z</time></trkpt><trkpt lat="36.1646362" lon="10.0529142"><ele>166.0</ele><time>2026-04-24T15:06:43.121Z</time></trkpt><trkpt lat="36.1644778" lon="10.0528825"><ele>166.0</ele><time>2026-04-24T15:06:44.154Z</time></trkpt><trkpt lat="36.1643173" lon="10.0528453"><ele>166.0</ele><time>2026-04-24T15:06:45.102Z</time></trkpt><trkpt lat="36.1641638" lon="10.0528121"><ele>166.0</ele><time>2026-04-24T15:06:46.125Z</time></trkpt><trkpt lat="36.1640071" lon="10.0527826"><ele>168.0</ele><time>2026-04-24T15:06:47.109Z</time></trkpt><trkpt lat="36.1638505" lon="10.0527435"><ele>170.0</ele><time>2026-04-24T15:06:48.111Z</time></trkpt><trkpt lat="36.163694" lon="10.0527178"><ele>172.0</ele><time>2026-04-24T15:06:49.119Z</time></trkpt><trkpt lat="36.1635359" lon="10.0526803"><ele>172.0</ele><time>2026-04-24T15:06:50.11Z</time></trkpt><trkpt lat="36.1633743" lon="10.0526424"><ele>172.0</ele><time>2026-04-24T15:06:51.118Z</time></trkpt><trkpt lat="36.1632141" lon="10.0526036"><ele>172.0</ele><time>2026-04-24T15:06:52.122Z</time></trkpt><trkpt lat="36.163054" lon="10.0525627"><ele>174.66666666666669</ele><time>2026-04-24T15:06:53.124Z</time></trkpt><trkpt lat="36.1628953" lon="10.0525352"><ele>177.33333333333334</ele><time>2026-04-24T15:06:54.12Z</time></trkpt><trkpt lat="36.1627364" lon="10.0524961"><ele>180.0</ele><time>2026-04-24T15:06:55.118Z</time></trkpt><trkpt lat="36.1625727" lon="10.0524637"><ele>179.66666666666666</ele><time>2026-04-24T15:06:56.111Z</time></trkpt><trkpt lat="36.1624155" lon="10.0524314"><ele>179.33333333333331</ele><time>2026-04-24T15:06:57.122Z</time></trkpt><trkpt lat="36.1622542" lon="10.0524008"><ele>179.0</ele><time>2026-04-24T15:06:58.111Z</time></trkpt><trkpt lat="36.1621007" lon="10.0523658"><ele>180.0</ele><time>2026-04-24T15:06:59.107Z</time></trkpt><trkpt lat="36.1619444" lon="10.0523274"><ele>181.0</ele><time>2026-04-24T15:07:00.114Z</time></trkpt><trkpt lat="36.1617903" lon="10.0522887"><ele>182.0</ele><time>2026-04-24T15:07:01.111Z</time></trkpt><trkpt lat="36.1616271" lon="10.0522554"><ele>183.0</ele><time>2026-04-24T15:07:02.116Z</time></trkpt><trkpt lat="36.1614611" lon="10.052218"><ele>184.0</ele><time>2026-04-24T15:07:03.118Z</time></trkpt><trkpt lat="36.1612943" lon="10.0521818"><ele>185.0</ele><time>2026-04-24T15:07:04.115Z</time></trkpt><trkpt lat="36.1611321" lon="10.0521503"><ele>185.0</ele><time>2026-04-24T15:07:05.108Z</time></trkpt><trkpt lat="36.1609764" lon="10.0521185"><ele>185.0</ele><time>2026-04-24T15:07:06.131Z</time></trkpt><trkpt lat="36.1608214" lon="10.0520881"><ele>185.0</ele><time>2026-04-24T15:07:07.13Z</time></trkpt><trkpt lat="36.1606621" lon="10.0520545"><ele>186.0</ele><time>2026-04-24T15:07:08.114Z</time></trkpt><trkpt lat="36.160504" lon="10.0520199"><ele>187.0</ele><time>2026-04-24T15:07:09.112Z</time></trkpt><trkpt lat="36.160349" lon="10.0519855"><ele>188.0</ele><time>2026-04-24T15:07:10.116Z</time></trkpt><trkpt lat="36.16019" lon="10.0519478"><ele>188.0</ele><time>2026-04-24T15:07:11.111Z</time></trkpt><trkpt lat="36.1600335" lon="10.0519062"><ele>188.0</ele><time>2026-04-24T15:07:12.119Z</time></trkpt><trkpt lat="36.1598738" lon="10.0518698"><ele>188.0</ele><time>2026-04-24T15:07:13.121Z</time></trkpt><trkpt lat="36.1597166" lon="10.0518372"><ele>189.0</ele><time>2026-04-24T15:07:14.109Z</time></trkpt><trkpt lat="36.159557" lon="10.051806"><ele>190.0</ele><time>2026-04-24T15:07:15.105Z</time></trkpt><trkpt lat="36.1594027" lon="10.0517739"><ele>191.0</ele><time>2026-04-24T15:07:16.122Z</time></trkpt><trkpt lat="36.1592433" lon="10.0517393"><ele>191.0</ele><time>2026-04-24T15:07:17.116Z</time></trkpt><trkpt lat="36.1590831" lon="10.0517025"><ele>191.0</ele><time>2026-04-24T15:07:18.125Z</time></trkpt><trkpt lat="36.1589237" lon="10.0516733"><ele>191.0</ele><time>2026-04-24T15:07:19.119Z</time></trkpt><trkpt lat="36.1587665" lon="10.0516423"><ele>190.66666666666666</ele><time>2026-04-24T15:07:20.114Z</time></trkpt><trkpt lat="36.158601" lon="10.0516076"><ele>190.33333333333334</ele><time>2026-04-24T15:07:21.12Z</time></trkpt><trkpt lat="36.1584353" lon="10.0515728"><ele>190.0</ele><time>2026-04-24T15:07:22.118Z</time></trkpt><trkpt lat="36.1582728" lon="10.0515375"><ele>190.0</ele><time>2026-04-24T15:07:23.099Z</time></trkpt><trkpt lat="36.1581041" lon="10.0515061"><ele>190.0</ele><time>2026-04-24T15:07:24.111Z</time></trkpt><trkpt lat="36.157937" lon="10.0514713"><ele>190.0</ele><time>2026-04-24T15:07:25.114Z</time></trkpt><trkpt lat="36.1577751" lon="10.0514343"><ele>190.0</ele><time>2026-04-24T15:07:26.122Z</time></trkpt><trkpt lat="36.1576127" lon="10.0514045"><ele>190.0</ele><time>2026-04-24T15:07:27.104Z</time></trkpt><trkpt lat="36.1574494" lon="10.0513909"><ele>190.0</ele><time>2026-04-24T15:07:28.122Z</time></trkpt><trkpt lat="36.1572943" lon="10.0513886"><ele>189.66666666666669</ele><time>2026-04-24T15:07:29.111Z</time></trkpt><trkpt lat="36.1571349" lon="10.0514006"><ele>189.33333333333334</ele><time>2026-04-24T15:07:30.114Z</time></trkpt><trkpt lat="36.1569801" lon="10.0514245"><ele>189.0</ele><time>2026-04-24T15:07:31.109Z</time></trkpt><trkpt lat="36.1568262" lon="10.0514684"><ele>189.0</ele><time>2026-04-24T15:07:32.106Z</time></trkpt><trkpt lat="36.1566819" lon="10.0515331"><ele>189.0</ele><time>2026-04-24T15:07:33.107Z</time></trkpt><trkpt lat="36.1565272" lon="10.051606"><ele>189.0</ele><time>2026-04-24T15:07:34.113Z</time></trkpt><trkpt lat="36.1563792" lon="10.0516795"><ele>189.0</ele><time>2026-04-24T15:07:35.11Z</time></trkpt><trkpt lat="36.1562283" lon="10.0517588"><ele>189.0</ele><time>2026-04-24T15:07:36.125Z</time></trkpt><trkpt lat="36.1560786" lon="10.0518413"><ele>189.0</ele><time>2026-04-24T15:07:37.115Z</time></trkpt><trkpt lat="36.1559341" lon="10.0519282"><ele>189.0</ele><time>2026-04-24T15:07:38.12Z</time></trkpt><trkpt lat="36.1557822" lon="10.0520069"><ele>189.0</ele><time>2026-04-24T15:07:39.116Z</time></trkpt><trkpt lat="36.1556379" lon="10.0520868"><ele>189.0</ele><time>2026-04-24T15:07:40.124Z</time></trkpt><trkpt lat="36.1554908" lon="10.0521629"><ele>188.66666666666666</ele><time>2026-04-24T15:07:41.124Z</time></trkpt><trkpt lat="36.1553461" lon="10.0522437"><ele>188.33333333333331</ele><time>2026-04-24T15:07:42.114Z</time></trkpt><trkpt lat="36.1551972" lon="10.0523208"><ele>188.0</ele><time>2026-04-24T15:07:43.118Z</time></trkpt><trkpt lat="36.1550518" lon="10.0523982"><ele>187.66666666666666</ele><time>2026-04-24T15:07:44.114Z</time></trkpt><trkpt lat="36.1549049" lon="10.0524886"><ele>187.33333333333334</ele><time>2026-04-24T15:07:45.119Z</time></trkpt><trkpt lat="36.1547607" lon="10.0525699"><ele>187.0</ele><time>2026-04-24T15:07:46.118Z</time></trkpt><trkpt lat="36.1546151" lon="10.0526564"><ele>186.66666666666669</ele><time>2026-04-24T15:07:47.124Z</time></trkpt><trkpt lat="36.1544657" lon="10.0527422"><ele>186.33333333333334</ele><time>2026-04-24T15:07:48.118Z</time></trkpt><trkpt lat="36.154317" lon="10.0528272"><ele>186.0</ele><time>2026-04-24T15:07:49.105Z</time></trkpt><trkpt lat="36.1541694" lon="10.0529143"><ele>185.33333333333334</ele><time>2026-04-24T15:07:50.12Z</time></trkpt><trkpt lat="36.1540251" lon="10.0530002"><ele>184.66666666666669</ele><time>2026-04-24T15:07:51.12Z</time></trkpt><trkpt lat="36.1538773" lon="10.0530865"><ele>184.0</ele><time>2026-04-24T15:07:52.138Z</time></trkpt><trkpt lat="36.153731" lon="10.0531717"><ele>184.0</ele><time>2026-04-24T15:07:53.107Z</time></trkpt><trkpt lat="36.1535827" lon="10.0532564"><ele>184.0</ele><time>2026-04-24T15:07:54.112Z</time></trkpt><trkpt lat="36.1534295" lon="10.05334"><ele>184.0</ele><time>2026-04-24T15:07:55.114Z</time></trkpt><trkpt lat="36.1532793" lon="10.0534165"><ele>183.66666666666669</ele><time>2026-04-24T15:07:56.126Z</time></trkpt><trkpt lat="36.1531301" lon="10.0534911"><ele>183.33333333333334</ele><time>2026-04-24T15:07:57.117Z</time></trkpt><trkpt lat="36.152987" lon="10.0535621"><ele>183.0</ele><time>2026-04-24T15:07:58.108Z</time></trkpt><trkpt lat="36.1528502" lon="10.0536346"><ele>183.0</ele><time>2026-04-24T15:07:59.104Z</time></trkpt><trkpt lat="36.1527279" lon="10.053694"><ele>183.0</ele><time>2026-04-24T15:08:00.124Z</time></trkpt><trkpt lat="36.1526067" lon="10.0537605"><ele>183.0</ele><time>2026-04-24T15:08:01.14Z</time></trkpt><trkpt lat="36.1525039" lon="10.0538152"><ele>183.0</ele><time>2026-04-24T15:08:02.118Z</time></trkpt><trkpt lat="36.1524094" lon="10.0538656"><ele>182.60000000000002</ele><time>2026-04-24T15:08:03.111Z</time></trkpt><trkpt lat="36.1523119" lon="10.05392"><ele>182.20000000000002</ele><time>2026-04-24T15:08:04.124Z</time></trkpt><trkpt lat="36.1522199" lon="10.0539696"><ele>181.8</ele><time>2026-04-24T15:08:05.111Z</time></trkpt><trkpt lat="36.152131" lon="10.054026"><ele>181.4</ele><time>2026-04-24T15:08:06.11Z</time></trkpt><trkpt lat="36.1520321" lon="10.0540787"><ele>181.0</ele><time>2026-04-24T15:08:07.108Z</time></trkpt><trkpt lat="36.1519328" lon="10.0541302"><ele>181.0</ele><time>2026-04-24T15:08:08.135Z</time></trkpt><trkpt lat="36.1518284" lon="10.0541845"><ele>181.0</ele><time>2026-04-24T15:08:09.105Z</time></trkpt><trkpt lat="36.1517239" lon="10.0542384"><ele>181.0</ele><time>2026-04-24T15:08:10.11Z</time></trkpt><trkpt lat="36.1516195" lon="10.0542931"><ele>181.0</ele><time>2026-04-24T15:08:11.127Z</time></trkpt><trkpt lat="36.1515088" lon="10.0543508"><ele>180.5</ele><time>2026-04-24T15:08:12.109Z</time></trkpt><trkpt lat="36.1513946" lon="10.0544138"><ele>180.0</ele><time>2026-04-24T15:08:13.119Z</time></trkpt><trkpt lat="36.1512817" lon="10.0544784"><ele>179.5</ele><time>2026-04-24T15:08:14.135Z</time></trkpt><trkpt lat="36.1511665" lon="10.0545404"><ele>179.0</ele><time>2026-04-24T15:08:15.111Z</time></trkpt><trkpt lat="36.1510475" lon="10.0546051"><ele>179.0</ele><time>2026-04-24T15:08:16.125Z</time></trkpt><trkpt lat="36.1509323" lon="10.0546726"><ele>179.0</ele><time>2026-04-24T15:08:17.143Z</time></trkpt><trkpt lat="36.1508131" lon="10.0547432"><ele>179.0</ele><time>2026-04-24T15:08:18.127Z</time></trkpt><trkpt lat="36.1506951" lon="10.0548098"><ele>179.0</ele><time>2026-04-24T15:08:19.122Z</time></trkpt><trkpt lat="36.1505735" lon="10.0548798"><ele>178.5</ele><time>2026-04-24T15:08:20.109Z</time></trkpt><trkpt lat="36.1504458" lon="10.0549517"><ele>178.0</ele><time>2026-04-24T15:08:21.128Z</time></trkpt><trkpt lat="36.1503132" lon="10.0550285"><ele>177.5</ele><time>2026-04-24T15:08:22.131Z</time></trkpt><trkpt lat="36.1501718" lon="10.0551017"><ele>177.0</ele><time>2026-04-24T15:08:23.127Z</time></trkpt><trkpt lat="36.1500246" lon="10.0551766"><ele>175.66666666666666</ele><time>2026-04-24T15:08:24.129Z</time></trkpt><trkpt lat="36.1498688" lon="10.0552578"><ele>174.33333333333331</ele><time>2026-04-24T15:08:25.102Z</time></trkpt><trkpt lat="36.1497162" lon="10.0553423"><ele>173.0</ele><time>2026-04-24T15:08:26.129Z</time></trkpt><trkpt lat="36.149568" lon="10.0554213"><ele>173.0</ele><time>2026-04-24T15:08:27.123Z</time></trkpt><trkpt lat="36.1494199" lon="10.0555053"><ele>173.0</ele><time>2026-04-24T15:08:28.112Z</time></trkpt><trkpt lat="36.1492729" lon="10.0555871"><ele>173.0</ele><time>2026-04-24T15:08:29.108Z</time></trkpt><trkpt lat="36.1491247" lon="10.0556689"><ele>171.66666666666666</ele><time>2026-04-24T15:08:30.12Z</time></trkpt><trkpt lat="36.1489775" lon="10.0557471"><ele>170.33333333333334</ele><time>2026-04-24T15:08:31.133Z</time></trkpt><trkpt lat="36.1488318" lon="10.0558249"><ele>169.0</ele><time>2026-04-24T15:08:32.115Z</time></trkpt><trkpt lat="36.1486839" lon="10.0559125"><ele>169.0</ele><time>2026-04-24T15:08:33.119Z</time></trkpt><trkpt lat="36.1485372" lon="10.0559913"><ele>169.0</ele><time>2026-04-24T15:08:34.117Z</time></trkpt><trkpt lat="36.1483887" lon="10.0560694"><ele>169.0</ele><time>2026-04-24T15:08:35.118Z</time></trkpt><trkpt lat="36.1482402" lon="10.0561546"><ele>168.0</ele><time>2026-04-24T15:08:36.112Z</time></trkpt><trkpt lat="36.1480916" lon="10.0562355"><ele>167.0</ele><time>2026-04-24T15:08:37.126Z</time></trkpt><trkpt lat="36.1479476" lon="10.0563159"><ele>166.0</ele><time>2026-04-24T15:08:38.139Z</time></trkpt><trkpt lat="36.1477993" lon="10.0564004"><ele>166.0</ele><time>2026-04-24T15:08:39.11Z</time></trkpt><trkpt lat="36.1476497" lon="10.0564819"><ele>166.0</ele><time>2026-04-24T15:08:40.125Z</time></trkpt><trkpt lat="36.1475001" lon="10.0565596"><ele>166.0</ele><time>2026-04-24T15:08:41.124Z</time></trkpt><trkpt lat="36.147353" lon="10.0566378"><ele>166.66666666666669</ele><time>2026-04-24T15:08:42.129Z</time></trkpt><trkpt lat="36.147204" lon="10.0567218"><ele>167.33333333333334</ele><time>2026-04-24T15:08:43.112Z</time></trkpt><trkpt lat="36.1470583" lon="10.0567998"><ele>168.0</ele><time>2026-04-24T15:08:44.127Z</time></trkpt><trkpt lat="36.1469108" lon="10.0568803"><ele>168.0</ele><time>2026-04-24T15:08:45.128Z</time></trkpt><trkpt lat="36.1467614" lon="10.0569586"><ele>168.0</ele><time>2026-04-24T15:08:46.108Z</time></trkpt><trkpt lat="36.1466097" lon="10.0570365"><ele>168.0</ele><time>2026-04-24T15:08:47.126Z</time></trkpt><trkpt lat="36.1464605" lon="10.0571173"><ele>167.66666666666666</ele><time>2026-04-24T15:08:48.128Z</time></trkpt><trkpt lat="36.1463107" lon="10.0571988"><ele>167.33333333333331</ele><time>2026-04-24T15:08:49.117Z</time></trkpt><trkpt lat="36.146161" lon="10.0572829"><ele>167.0</ele><time>2026-04-24T15:08:50.126Z</time></trkpt><trkpt lat="36.1460123" lon="10.0573657"><ele>167.0</ele><time>2026-04-24T15:08:51.121Z</time></trkpt><trkpt lat="36.1458659" lon="10.0574504"><ele>167.0</ele><time>2026-04-24T15:08:52.118Z</time></trkpt><trkpt lat="36.145716" lon="10.0575319"><ele>167.0</ele><time>2026-04-24T15:08:53.111Z</time></trkpt><trkpt lat="36.1455673" lon="10.0576138"><ele>166.33333333333331</ele><time>2026-04-24T15:08:54.125Z</time></trkpt><trkpt lat="36.1454205" lon="10.0576899"><ele>165.66666666666666</ele><time>2026-04-24T15:08:55.101Z</time></trkpt><trkpt lat="36.1452731" lon="10.0577673"><ele>165.0</ele><time>2026-04-24T15:08:56.126Z</time></trkpt><trkpt lat="36.1451236" lon="10.0578479"><ele>165.0</ele><time>2026-04-24T15:08:57.115Z</time></trkpt><trkpt lat="36.144979" lon="10.0579285"><ele>165.0</ele><time>2026-04-24T15:08:58.132Z</time></trkpt><trkpt lat="36.1448302" lon="10.0580098"><ele>165.0</ele><time>2026-04-24T15:08:59.13Z</time></trkpt><trkpt lat="36.1446823" lon="10.0580941"><ele>164.66666666666666</ele><time>2026-04-24T15:09:00.113Z</time></trkpt><trkpt lat="36.1445316" lon="10.0581756"><ele>164.33333333333331</ele><time>2026-04-24T15:09:01.122Z</time></trkpt><trkpt lat="36.1443835" lon="10.058256"><ele>164.0</ele><time>2026-04-24T15:09:02.109Z</time></trkpt><trkpt lat="36.144233" lon="10.0583381"><ele>164.0</ele><time>2026-04-24T15:09:03.12Z</time></trkpt><trkpt lat="36.1440839" lon="10.0584255"><ele>164.0</ele><time>2026-04-24T15:09:04.119Z</time></trkpt><trkpt lat="36.1439373" lon="10.0585087"><ele>164.0</ele><time>2026-04-24T15:09:05.121Z</time></trkpt><trkpt lat="36.1437886" lon="10.0585899"><ele>165.0</ele><time>2026-04-24T15:09:06.111Z</time></trkpt><trkpt lat="36.1436395" lon="10.0586724"><ele>166.0</ele><time>2026-04-24T15:09:07.12Z</time></trkpt><trkpt lat="36.1434903" lon="10.0587533"><ele>167.0</ele><time>2026-04-24T15:09:08.132Z</time></trkpt><trkpt lat="36.1433378" lon="10.0588355"><ele>167.0</ele><time>2026-04-24T15:09:09.112Z</time></trkpt><trkpt lat="36.14319" lon="10.0589157"><ele>167.0</ele><time>2026-04-24T15:09:10.112Z</time></trkpt><trkpt lat="36.1430461" lon="10.0589961"><ele>167.0</ele><time>2026-04-24T15:09:11.142Z</time></trkpt><trkpt lat="36.1428978" lon="10.0590722"><ele>166.0</ele><time>2026-04-24T15:09:12.11Z</time></trkpt><trkpt lat="36.1427523" lon="10.0591549"><ele>165.0</ele><time>2026-04-24T15:09:13.119Z</time></trkpt><trkpt lat="36.1426052" lon="10.0592426"><ele>164.0</ele><time>2026-04-24T15:09:14.12Z</time></trkpt><trkpt lat="36.1424618" lon="10.0593298"><ele>164.0</ele><time>2026-04-24T15:09:15.109Z</time></trkpt><trkpt lat="36.1423141" lon="10.0594132"><ele>164.0</ele><time>2026-04-24T15:09:16.121Z</time></trkpt><trkpt lat="36.1421623" lon="10.0594921"><ele>164.0</ele><time>2026-04-24T15:09:17.118Z</time></trkpt><trkpt lat="36.1420141" lon="10.0595731"><ele>164.0</ele><time>2026-04-24T15:09:18.112Z</time></trkpt><trkpt lat="36.141866" lon="10.0596541"><ele>164.0</ele><time>2026-04-24T15:09:19.125Z</time></trkpt><trkpt lat="36.1417187" lon="10.0597365"><ele>164.0</ele><time>2026-04-24T15:09:20.128Z</time></trkpt><trkpt lat="36.1415695" lon="10.0598157"><ele>164.0</ele><time>2026-04-24T15:09:21.111Z</time></trkpt><trkpt lat="36.1414209" lon="10.0598848"><ele>164.0</ele><time>2026-04-24T15:09:22.129Z</time></trkpt><trkpt lat="36.1412689" lon="10.0599456"><ele>164.0</ele><time>2026-04-24T15:09:23.107Z</time></trkpt><trkpt lat="36.1411088" lon="10.0599885"><ele>163.66666666666666</ele><time>2026-04-24T15:09:24.126Z</time></trkpt><trkpt lat="36.140949" lon="10.0600226"><ele>163.33333333333334</ele><time>2026-04-24T15:09:25.118Z</time></trkpt><trkpt lat="36.1407839" lon="10.0600474"><ele>163.0</ele><time>2026-04-24T15:09:26.11Z</time></trkpt><trkpt lat="36.1406186" lon="10.060062"><ele>163.0</ele><time>2026-04-24T15:09:27.124Z</time></trkpt><trkpt lat="36.1404529" lon="10.0600706"><ele>163.0</ele><time>2026-04-24T15:09:28.113Z</time></trkpt><trkpt lat="36.1402885" lon="10.0600777"><ele>163.0</ele><time>2026-04-24T15:09:29.122Z</time></trkpt><trkpt lat="36.1401268" lon="10.0600767"><ele>163.0</ele><time>2026-04-24T15:09:30.116Z</time></trkpt><trkpt lat="36.1399636" lon="10.0600819"><ele>163.0</ele><time>2026-04-24T15:09:31.123Z</time></trkpt><trkpt lat="36.1398066" lon="10.0600903"><ele>163.0</ele><time>2026-04-24T15:09:32.111Z</time></trkpt><trkpt lat="36.1396435" lon="10.0600934"><ele>162.66666666666669</ele><time>2026-04-24T15:09:33.12Z</time></trkpt><trkpt lat="36.1394837" lon="10.0600974"><ele>162.33333333333334</ele><time>2026-04-24T15:09:34.095Z</time></trkpt><trkpt lat="36.1393221" lon="10.0600955"><ele>162.0</ele><time>2026-04-24T15:09:35.118Z</time></trkpt><trkpt lat="36.1391597" lon="10.0601008"><ele>162.0</ele><time>2026-04-24T15:09:36.127Z</time></trkpt><trkpt lat="36.1389959" lon="10.0601007"><ele>162.0</ele><time>2026-04-24T15:09:37.132Z</time></trkpt><trkpt lat="36.1388324" lon="10.0601041"><ele>162.0</ele><time>2026-04-24T15:09:38.123Z</time></trkpt><trkpt lat="36.138668" lon="10.0601033"><ele>162.0</ele><time>2026-04-24T15:09:39.128Z</time></trkpt><trkpt lat="36.1385067" lon="10.0601034"><ele>162.0</ele><time>2026-04-24T15:09:40.125Z</time></trkpt><trkpt lat="36.1383469" lon="10.0601116"><ele>162.0</ele><time>2026-04-24T15:09:41.132Z</time></trkpt><trkpt lat="36.1381836" lon="10.0601164"><ele>161.0</ele><time>2026-04-24T15:09:42.126Z</time></trkpt><trkpt lat="36.1380201" lon="10.0601206"><ele>160.0</ele><time>2026-04-24T15:09:43.12Z</time></trkpt><trkpt lat="36.1378559" lon="10.0601246"><ele>159.0</ele><time>2026-04-24T15:09:44.13Z</time></trkpt><trkpt lat="36.1376897" lon="10.0601226"><ele>159.0</ele><time>2026-04-24T15:09:45.109Z</time></trkpt><trkpt lat="36.1375251" lon="10.060123"><ele>159.0</ele><time>2026-04-24T15:09:46.13Z</time></trkpt><trkpt lat="36.1373649" lon="10.0601251"><ele>159.0</ele><time>2026-04-24T15:09:47.116Z</time></trkpt><trkpt lat="36.1372005" lon="10.0601286"><ele>157.66666666666666</ele><time>2026-04-24T15:09:48.121Z</time></trkpt><trkpt lat="36.1370409" lon="10.0601341"><ele>156.33333333333331</ele><time>2026-04-24T15:09:49.12Z</time></trkpt><trkpt lat="36.1368764" lon="10.0601346"><ele>155.0</ele><time>2026-04-24T15:09:50.122Z</time></trkpt><trkpt lat="36.1367138" lon="10.0601334"><ele>155.0</ele><time>2026-04-24T15:09:51.121Z</time></trkpt><trkpt lat="36.1365505" lon="10.0601329"><ele>155.0</ele><time>2026-04-24T15:09:52.128Z</time></trkpt><trkpt lat="36.1363878" lon="10.0601342"><ele>155.0</ele><time>2026-04-24T15:09:53.177Z</time></trkpt><trkpt lat="36.1362244" lon="10.0601381"><ele>155.0</ele><time>2026-04-24T15:09:54.11Z</time></trkpt><trkpt lat="36.1360636" lon="10.0601372"><ele>155.0</ele><time>2026-04-24T15:09:55.135Z</time></trkpt><trkpt lat="36.1358987" lon="10.0601429"><ele>155.0</ele><time>2026-04-24T15:09:56.125Z</time></trkpt><trkpt lat="36.1357334" lon="10.0601466"><ele>154.33333333333331</ele><time>2026-04-24T15:09:57.119Z</time></trkpt><trkpt lat="36.135571" lon="10.0601494"><ele>153.66666666666666</ele><time>2026-04-24T15:09:58.119Z</time></trkpt><trkpt lat="36.1354047" lon="10.0601505"><ele>153.0</ele><time>2026-04-24T15:09:59.114Z</time></trkpt><trkpt lat="36.1352466" lon="10.0601473"><ele>153.0</ele><time>2026-04-24T15:10:00.122Z</time></trkpt><trkpt lat="36.1350831" lon="10.0601509"><ele>153.0</ele><time>2026-04-24T15:10:01.116Z</time></trkpt><trkpt lat="36.1349188" lon="10.0601562"><ele>153.0</ele><time>2026-04-24T15:10:02.117Z</time></trkpt><trkpt lat="36.1347548" lon="10.0601581"><ele>152.33333333333334</ele><time>2026-04-24T15:10:03.123Z</time></trkpt><trkpt lat="36.1345968" lon="10.0601606"><ele>151.66666666666669</ele><time>2026-04-24T15:10:04.102Z</time></trkpt><trkpt lat="36.1344342" lon="10.0601624"><ele>151.0</ele><time>2026-04-24T15:10:05.124Z</time></trkpt><trkpt lat="36.1342715" lon="10.0601689"><ele>151.0</ele><time>2026-04-24T15:10:06.109Z</time></trkpt><trkpt lat="36.1341045" lon="10.0601765"><ele>151.0</ele><time>2026-04-24T15:10:07.131Z</time></trkpt><trkpt lat="36.1339461" lon="10.060182"><ele>151.0</ele><time>2026-04-24T15:10:08.113Z</time></trkpt><trkpt lat="36.1337867" lon="10.0601873"><ele>150.0</ele><time>2026-04-24T15:10:09.124Z</time></trkpt><trkpt lat="36.1336229" lon="10.0601909"><ele>149.0</ele><time>2026-04-24T15:10:10.116Z</time></trkpt><trkpt lat="36.1334606" lon="10.0601924"><ele>148.0</ele><time>2026-04-24T15:10:11.14Z</time></trkpt><trkpt lat="36.1332958" lon="10.0601999"><ele>147.66666666666669</ele><time>2026-04-24T15:10:12.125Z</time></trkpt><trkpt lat="36.1331326" lon="10.0602008"><ele>147.33333333333334</ele><time>2026-04-24T15:10:13.113Z</time></trkpt><trkpt lat="36.1329729" lon="10.0602006"><ele>147.0</ele><time>2026-04-24T15:10:14.126Z</time></trkpt><trkpt lat="36.1328102" lon="10.0602011"><ele>147.0</ele><time>2026-04-24T15:10:15.128Z</time></trkpt><trkpt lat="36.1326488" lon="10.0602046"><ele>147.0</ele><time>2026-04-24T15:10:16.11Z</time></trkpt><trkpt lat="36.1324818" lon="10.0602067"><ele>147.0</ele><time>2026-04-24T15:10:17.104Z</time></trkpt><trkpt lat="36.1323141" lon="10.060209"><ele>146.66666666666666</ele><time>2026-04-24T15:10:18.125Z</time></trkpt><trkpt lat="36.1321508" lon="10.0602092"><ele>146.33333333333331</ele><time>2026-04-24T15:10:19.111Z</time></trkpt><trkpt lat="36.1319868" lon="10.0602163"><ele>146.0</ele><time>2026-04-24T15:10:20.129Z</time></trkpt><trkpt lat="36.1318221" lon="10.0602213"><ele>146.0</ele><time>2026-04-24T15:10:21.114Z</time></trkpt><trkpt lat="36.1316607" lon="10.0602201"><ele>146.0</ele><time>2026-04-24T15:10:22.135Z</time></trkpt><trkpt lat="36.1314976" lon="10.0602243"><ele>146.0</ele><time>2026-04-24T15:10:23.123Z</time></trkpt><trkpt lat="36.1313375" lon="10.0602282"><ele>146.0</ele><time>2026-04-24T15:10:24.128Z</time></trkpt><trkpt lat="36.131177" lon="10.0602325"><ele>146.0</ele><time>2026-04-24T15:10:25.126Z</time></trkpt><trkpt lat="36.1310165" lon="10.0602375"><ele>146.0</ele><time>2026-04-24T15:10:26.134Z</time></trkpt><trkpt lat="36.130851" lon="10.0602436"><ele>145.33333333333331</ele><time>2026-04-24T15:10:27.122Z</time></trkpt><trkpt lat="36.1306851" lon="10.0602449"><ele>144.66666666666666</ele><time>2026-04-24T15:10:28.126Z</time></trkpt><trkpt lat="36.1305242" lon="10.0602413"><ele>144.0</ele><time>2026-04-24T15:10:29.122Z</time></trkpt><trkpt lat="36.1303605" lon="10.0602401"><ele>144.0</ele><time>2026-04-24T15:10:30.124Z</time></trkpt><trkpt lat="36.1301992" lon="10.0602446"><ele>144.0</ele><time>2026-04-24T15:10:31.118Z</time></trkpt><trkpt lat="36.1300361" lon="10.0602479"><ele>144.0</ele><time>2026-04-24T15:10:32.119Z</time></trkpt><trkpt lat="36.1298765" lon="10.0602592"><ele>144.0</ele><time>2026-04-24T15:10:33.121Z</time></trkpt><trkpt lat="36.1297146" lon="10.0602639"><ele>144.0</ele><time>2026-04-24T15:10:34.124Z</time></trkpt><trkpt lat="36.129553" lon="10.0602696"><ele>144.0</ele><time>2026-04-24T15:10:35.103Z</time></trkpt><trkpt lat="36.129389" lon="10.0602696"><ele>144.0</ele><time>2026-04-24T15:10:36.124Z</time></trkpt><trkpt lat="36.1292233" lon="10.0602691"><ele>144.0</ele><time>2026-04-24T15:10:37.126Z</time></trkpt><trkpt lat="36.1290609" lon="10.0602699"><ele>144.0</ele><time>2026-04-24T15:10:38.116Z</time></trkpt><trkpt lat="36.128892" lon="10.0602703"><ele>144.33333333333334</ele><time>2026-04-24T15:10:39.127Z</time></trkpt><trkpt lat="36.1287338" lon="10.0602723"><ele>144.66666666666669</ele><time>2026-04-24T15:10:40.123Z</time></trkpt><trkpt lat="36.1285694" lon="10.0602699"><ele>145.0</ele><time>2026-04-24T15:10:41.117Z</time></trkpt><trkpt lat="36.1284096" lon="10.0602667"><ele>145.0</ele><time>2026-04-24T15:10:42.119Z</time></trkpt><trkpt lat="36.1282506" lon="10.0602664"><ele>145.0</ele><time>2026-04-24T15:10:43.128Z</time></trkpt><trkpt lat="36.1280836" lon="10.0602699"><ele>145.0</ele><time>2026-04-24T15:10:44.114Z</time></trkpt><trkpt lat="36.1279219" lon="10.0602744"><ele>145.0</ele><time>2026-04-24T15:10:45.124Z</time></trkpt><trkpt lat="36.1277635" lon="10.0602799"><ele>145.0</ele><time>2026-04-24T15:10:46.129Z</time></trkpt><trkpt lat="36.1276053" lon="10.060281"><ele>145.0</ele><time>2026-04-24T15:10:47.115Z</time></trkpt><trkpt lat="36.1274417" lon="10.0602841"><ele>144.33333333333334</ele><time>2026-04-24T15:10:48.125Z</time></trkpt><trkpt lat="36.1272763" lon="10.0602865"><ele>143.66666666666666</ele><time>2026-04-24T15:10:49.135Z</time></trkpt><trkpt lat="36.1271124" lon="10.0602845"><ele>143.0</ele><time>2026-04-24T15:10:50.128Z</time></trkpt><trkpt lat="36.1269503" lon="10.0602828"><ele>143.0</ele><time>2026-04-24T15:10:51.119Z</time></trkpt><trkpt lat="36.1267855" lon="10.060286"><ele>143.0</ele><time>2026-04-24T15:10:52.108Z</time></trkpt><trkpt lat="36.1266235" lon="10.0602885"><ele>143.0</ele><time>2026-04-24T15:10:53.118Z</time></trkpt><trkpt lat="36.1264638" lon="10.0602915"><ele>142.0</ele><time>2026-04-24T15:10:54.11Z</time></trkpt><trkpt lat="36.1263001" lon="10.0603035"><ele>141.0</ele><time>2026-04-24T15:10:55.118Z</time></trkpt><trkpt lat="36.1261406" lon="10.0603089"><ele>140.0</ele><time>2026-04-24T15:10:56.115Z</time></trkpt><trkpt lat="36.12598" lon="10.060313"><ele>140.0</ele><time>2026-04-24T15:10:57.101Z</time></trkpt><trkpt lat="36.1258154" lon="10.0603171"><ele>140.0</ele><time>2026-04-24T15:10:58.109Z</time></trkpt><trkpt lat="36.1256544" lon="10.0603208"><ele>140.0</ele><time>2026-04-24T15:10:59.112Z</time></trkpt><trkpt lat="36.1254911" lon="10.0603266"><ele>139.33333333333331</ele><time>2026-04-24T15:11:00.117Z</time></trkpt><trkpt lat="36.1253296" lon="10.0603313"><ele>138.66666666666666</ele><time>2026-04-24T15:11:01.122Z</time></trkpt><trkpt lat="36.1251697" lon="10.0603339"><ele>138.0</ele><time>2026-04-24T15:11:02.103Z</time></trkpt><trkpt lat="36.1250103" lon="10.0603418"><ele>137.66666666666666</ele><time>2026-04-24T15:11:03.115Z</time></trkpt><trkpt lat="36.1248513" lon="10.0603435"><ele>137.33333333333331</ele><time>2026-04-24T15:11:04.12Z</time></trkpt><trkpt lat="36.1246896" lon="10.0603472"><ele>137.0</ele><time>2026-04-24T15:11:05.123Z</time></trkpt><trkpt lat="36.1245271" lon="10.0603497"><ele>137.0</ele><time>2026-04-24T15:11:06.11Z</time></trkpt><trkpt lat="36.1243661" lon="10.0603539"><ele>137.0</ele><time>2026-04-24T15:11:07.116Z</time></trkpt><trkpt lat="36.1242031" lon="10.0603521"><ele>137.0</ele><time>2026-04-24T15:11:08.127Z</time></trkpt><trkpt lat="36.1240375" lon="10.060356"><ele>136.66666666666666</ele><time>2026-04-24T15:11:09.118Z</time></trkpt><trkpt lat="36.1238754" lon="10.060361"><ele>136.33333333333334</ele><time>2026-04-24T15:11:10.119Z</time></trkpt><trkpt lat="36.1237165" lon="10.0603625"><ele>136.0</ele><time>2026-04-24T15:11:11.12Z</time></trkpt><trkpt lat="36.1235564" lon="10.060367"><ele>136.0</ele><time>2026-04-24T15:11:12.119Z</time></trkpt><trkpt lat="36.1233915" lon="10.0603703"><ele>136.0</ele><time>2026-04-24T15:11:13.116Z</time></trkpt><trkpt lat="36.1232319" lon="10.0603701"><ele>136.0</ele><time>2026-04-24T15:11:14.112Z</time></trkpt><trkpt lat="36.1230668" lon="10.0603694"><ele>136.0</ele><time>2026-04-24T15:11:15.128Z</time></trkpt><trkpt lat="36.1229001" lon="10.060371"><ele>136.0</ele><time>2026-04-24T15:11:16.117Z</time></trkpt><trkpt lat="36.122735" lon="10.0603731"><ele>136.0</ele><time>2026-04-24T15:11:17.1Z</time></trkpt><trkpt lat="36.1225702" lon="10.0603757"><ele>136.0</ele><time>2026-04-24T15:11:18.131Z</time></trkpt><trkpt lat="36.1224053" lon="10.0603789"><ele>136.0</ele><time>2026-04-24T15:11:19.133Z</time></trkpt><trkpt lat="36.1222459" lon="10.0603851"><ele>136.0</ele><time>2026-04-24T15:11:20.108Z</time></trkpt><trkpt lat="36.1220846" lon="10.0603862"><ele>136.0</ele><time>2026-04-24T15:11:21.117Z</time></trkpt><trkpt lat="36.1219244" lon="10.0603864"><ele>136.0</ele><time>2026-04-24T15:11:22.121Z</time></trkpt><trkpt lat="36.121764" lon="10.0603892"><ele>136.0</ele><time>2026-04-24T15:11:23.116Z</time></trkpt><trkpt lat="36.1216031" lon="10.0603934"><ele>135.66666666666669</ele><time>2026-04-24T15:11:24.127Z</time></trkpt><trkpt lat="36.1214404" lon="10.0603939"><ele>135.33333333333334</ele><time>2026-04-24T15:11:25.116Z</time></trkpt><trkpt lat="36.1212806" lon="10.0603987"><ele>135.0</ele><time>2026-04-24T15:11:26.113Z</time></trkpt><trkpt lat="36.1211172" lon="10.0604064"><ele>135.0</ele><time>2026-04-24T15:11:27.12Z</time></trkpt><trkpt lat="36.1209549" lon="10.0604119"><ele>135.0</ele><time>2026-04-24T15:11:28.138Z</time></trkpt><trkpt lat="36.1207926" lon="10.0604112"><ele>135.0</ele><time>2026-04-24T15:11:29.104Z</time></trkpt><trkpt lat="36.1206277" lon="10.0604164"><ele>133.0</ele><time>2026-04-24T15:11:30.115Z</time></trkpt><trkpt lat="36.1204673" lon="10.0604193"><ele>131.0</ele><time>2026-04-24T15:11:31.125Z</time></trkpt><trkpt lat="36.1203046" lon="10.0604248"><ele>129.0</ele><time>2026-04-24T15:11:32.118Z</time></trkpt><trkpt lat="36.1201445" lon="10.0604281"><ele>129.0</ele><time>2026-04-24T15:11:33.108Z</time></trkpt><trkpt lat="36.1199822" lon="10.0604326"><ele>129.0</ele><time>2026-04-24T15:11:34.11Z</time></trkpt><trkpt lat="36.1198215" lon="10.0604325"><ele>129.0</ele><time>2026-04-24T15:11:35.117Z</time></trkpt><trkpt lat="36.1196572" lon="10.060439"><ele>128.66666666666666</ele><time>2026-04-24T15:11:36.119Z</time></trkpt><trkpt lat="36.119496" lon="10.0604414"><ele>128.33333333333331</ele><time>2026-04-24T15:11:37.117Z</time></trkpt><trkpt lat="36.1193295" lon="10.0604425"><ele>128.0</ele><time>2026-04-24T15:11:38.135Z</time></trkpt><trkpt lat="36.1191679" lon="10.0604478"><ele>127.33333333333333</ele><time>2026-04-24T15:11:39.116Z</time></trkpt><trkpt lat="36.1190111" lon="10.0604501"><ele>126.66666666666666</ele><time>2026-04-24T15:11:40.12Z</time></trkpt><trkpt lat="36.1188481" lon="10.0604479"><ele>126.0</ele><time>2026-04-24T15:11:41.143Z</time></trkpt><trkpt lat="36.1186807" lon="10.0604514"><ele>126.0</ele><time>2026-04-24T15:11:42.113Z</time></trkpt><trkpt lat="36.1185164" lon="10.0604546"><ele>126.0</ele><time>2026-04-24T15:11:43.117Z</time></trkpt><trkpt lat="36.1183533" lon="10.0604548"><ele>126.0</ele><time>2026-04-24T15:11:44.107Z</time></trkpt><trkpt lat="36.1181896" lon="10.060462"><ele>126.0</ele><time>2026-04-24T15:11:45.111Z</time></trkpt><trkpt lat="36.1180313" lon="10.060466"><ele>126.0</ele><time>2026-04-24T15:11:46.118Z</time></trkpt><trkpt lat="36.1178733" lon="10.0604679"><ele>126.0</ele><time>2026-04-24T15:11:47.112Z</time></trkpt><trkpt lat="36.1177149" lon="10.0604717"><ele>126.0</ele><time>2026-04-24T15:11:48.126Z</time></trkpt><trkpt lat="36.1175545" lon="10.0604767"><ele>126.0</ele><time>2026-04-24T15:11:49.124Z</time></trkpt><trkpt lat="36.1173932" lon="10.0604736"><ele>126.0</ele><time>2026-04-24T15:11:50.114Z</time></trkpt><trkpt lat="36.1172305" lon="10.0604753"><ele>126.33333333333334</ele><time>2026-04-24T15:11:51.115Z</time></trkpt><trkpt lat="36.1170655" lon="10.0604759"><ele>126.66666666666667</ele><time>2026-04-24T15:11:52.129Z</time></trkpt><trkpt lat="36.1169033" lon="10.060479"><ele>127.0</ele><time>2026-04-24T15:11:53.124Z</time></trkpt><trkpt lat="36.1167361" lon="10.0604855"><ele>127.0</ele><time>2026-04-24T15:11:54.132Z</time></trkpt><trkpt lat="36.1165748" lon="10.0604888"><ele>127.0</ele><time>2026-04-24T15:11:55.091Z</time></trkpt><trkpt lat="36.1164257" lon="10.0604871"><ele>127.0</ele><time>2026-04-24T15:11:56.141Z</time></trkpt><trkpt lat="36.1162992" lon="10.0604903"><ele>127.0</ele><time>2026-04-24T15:11:57.144Z</time></trkpt><trkpt lat="36.1161868" lon="10.0604924"><ele>126.83333333333334</ele><time>2026-04-24T15:11:58.12Z</time></trkpt><trkpt lat="36.1160883" lon="10.0604946"><ele>126.66666666666667</ele><time>2026-04-24T15:11:59.145Z</time></trkpt><trkpt lat="36.1159978" lon="10.0604947"><ele>126.5</ele><time>2026-04-24T15:12:00.131Z</time></trkpt><trkpt lat="36.115913" lon="10.0604993"><ele>126.33333333333334</ele><time>2026-04-24T15:12:01.153Z</time></trkpt><trkpt lat="36.1158353" lon="10.0604969"><ele>126.16666666666667</ele><time>2026-04-24T15:12:02.087Z</time></trkpt><trkpt lat="36.1157583" lon="10.0604978"><ele>126.0</ele><time>2026-04-24T15:12:03.094Z</time></trkpt><trkpt lat="36.115681" lon="10.0605062"><ele>125.83333333333333</ele><time>2026-04-24T15:12:04.117Z</time></trkpt><trkpt lat="36.1156002" lon="10.0605112"><ele>125.66666666666666</ele><time>2026-04-24T15:12:05.117Z</time></trkpt><trkpt lat="36.1155152" lon="10.060509"><ele>125.5</ele><time>2026-04-24T15:12:06.125Z</time></trkpt><trkpt lat="36.1154277" lon="10.0605092"><ele>125.33333333333333</ele><time>2026-04-24T15:12:07.107Z</time></trkpt><trkpt lat="36.1153432" lon="10.0605093"><ele>125.16666666666666</ele><time>2026-04-24T15:12:08.116Z</time></trkpt><trkpt lat="36.1152611" lon="10.0605084"><ele>125.0</ele><time>2026-04-24T15:12:09.137Z</time></trkpt><trkpt lat="36.1151786" lon="10.0605095"><ele>124.99999999999999</ele><time>2026-04-24T15:12:10.11Z</time></trkpt><trkpt lat="36.1150926" lon="10.0605073"><ele>125.0</ele><time>2026-04-24T15:12:11.105Z</time></trkpt><trkpt lat="36.1150005" lon="10.0605148"><ele>125.0</ele><time>2026-04-24T15:12:12.118Z</time></trkpt><trkpt lat="36.1149131" lon="10.0605227"><ele>125.0</ele><time>2026-04-24T15:12:13.122Z</time></trkpt><trkpt lat="36.1148222" lon="10.0605252"><ele>124.99999999999999</ele><time>2026-04-24T15:12:14.134Z</time></trkpt><trkpt lat="36.1147383" lon="10.0605155"><ele>125.0</ele><time>2026-04-24T15:12:15.115Z</time></trkpt><trkpt lat="36.1146472" lon="10.0605112"><ele>125.2</ele><time>2026-04-24T15:12:16.107Z</time></trkpt><trkpt lat="36.1145587" lon="10.0605133"><ele>125.4</ele><time>2026-04-24T15:12:17.109Z</time></trkpt><trkpt lat="36.1144682" lon="10.0605163"><ele>125.6</ele><time>2026-04-24T15:12:18.125Z</time></trkpt><trkpt lat="36.1143795" lon="10.0605274"><ele>125.8</ele><time>2026-04-24T15:12:19.123Z</time></trkpt><trkpt lat="36.1142881" lon="10.060531"><ele>126.0</ele><time>2026-04-24T15:12:20.109Z</time></trkpt><trkpt lat="36.1141971" lon="10.0605378"><ele>126.0</ele><time>2026-04-24T15:12:21.122Z</time></trkpt><trkpt lat="36.1141056" lon="10.0605398"><ele>126.0</ele><time>2026-04-24T15:12:22.118Z</time></trkpt><trkpt lat="36.1140122" lon="10.0605418"><ele>126.0</ele><time>2026-04-24T15:12:23.113Z</time></trkpt><trkpt lat="36.1139211" lon="10.0605409"><ele>126.0</ele><time>2026-04-24T15:12:24.126Z</time></trkpt><trkpt lat="36.1138247" lon="10.0605391"><ele>126.0</ele><time>2026-04-24T15:12:25.122Z</time></trkpt><trkpt lat="36.1137282" lon="10.0605342"><ele>125.4</ele><time>2026-04-24T15:12:26.121Z</time></trkpt><trkpt lat="36.1136382" lon="10.0605332"><ele>124.8</ele><time>2026-04-24T15:12:27.107Z</time></trkpt><trkpt lat="36.1135412" lon="10.0605284"><ele>124.20000000000002</ele><time>2026-04-24T15:12:28.12Z</time></trkpt><trkpt lat="36.113447" lon="10.0605262"><ele>123.60000000000001</ele><time>2026-04-24T15:12:29.109Z</time></trkpt><trkpt lat="36.1133454" lon="10.0605333"><ele>123.0</ele><time>2026-04-24T15:12:30.134Z</time></trkpt><trkpt lat="36.1132424" lon="10.0605401"><ele>122.5</ele><time>2026-04-24T15:12:31.125Z</time></trkpt><trkpt lat="36.1131338" lon="10.0605409"><ele>122.0</ele><time>2026-04-24T15:12:32.112Z</time></trkpt><trkpt lat="36.113024" lon="10.060539"><ele>121.5</ele><time>2026-04-24T15:12:33.104Z</time></trkpt><trkpt lat="36.1129106" lon="10.0605439"><ele>121.0</ele><time>2026-04-24T15:12:34.117Z</time></trkpt><trkpt lat="36.1127928" lon="10.0605498"><ele>121.0</ele><time>2026-04-24T15:12:35.118Z</time></trkpt><trkpt lat="36.1126785" lon="10.0605606"><ele>121.0</ele><time>2026-04-24T15:12:36.127Z</time></trkpt><trkpt lat="36.1125658" lon="10.0605623"><ele>121.0</ele><time>2026-04-24T15:12:37.108Z</time></trkpt><trkpt lat="36.1124532" lon="10.0605608"><ele>121.0</ele><time>2026-04-24T15:12:38.116Z</time></trkpt><trkpt lat="36.1123359" lon="10.060559"><ele>121.25</ele><time>2026-04-24T15:12:39.114Z</time></trkpt><trkpt lat="36.1122196" lon="10.0605578"><ele>121.5</ele><time>2026-04-24T15:12:40.115Z</time></trkpt><trkpt lat="36.112096" lon="10.0605587"><ele>121.75</ele><time>2026-04-24T15:12:41.122Z</time></trkpt><trkpt lat="36.111976" lon="10.0605555"><ele>122.0</ele><time>2026-04-24T15:12:42.107Z</time></trkpt><trkpt lat="36.1118587" lon="10.060559"><ele>122.0</ele><time>2026-04-24T15:12:43.116Z</time></trkpt><trkpt lat="36.1117358" lon="10.0605619"><ele>122.0</ele><time>2026-04-24T15:12:44.131Z</time></trkpt><trkpt lat="36.1116125" lon="10.0605613"><ele>122.0</ele><time>2026-04-24T15:12:45.115Z</time></trkpt><trkpt lat="36.1114864" lon="10.0605582"><ele>122.0</ele><time>2026-04-24T15:12:46.105Z</time></trkpt><trkpt lat="36.1113582" lon="10.0605586"><ele>121.75</ele><time>2026-04-24T15:12:47.123Z</time></trkpt><trkpt lat="36.1112281" lon="10.0605642"><ele>121.5</ele><time>2026-04-24T15:12:48.127Z</time></trkpt><trkpt lat="36.1110968" lon="10.0605658"><ele>121.25</ele><time>2026-04-24T15:12:49.114Z</time></trkpt><trkpt lat="36.1109683" lon="10.0605692"><ele>121.0</ele><time>2026-04-24T15:12:50.116Z</time></trkpt><trkpt lat="36.1108336" lon="10.0605717"><ele>121.5</ele><time>2026-04-24T15:12:51.112Z</time></trkpt><trkpt lat="36.1106998" lon="10.060565"><ele>122.0</ele><time>2026-04-24T15:12:52.119Z</time></trkpt><trkpt lat="36.1105705" lon="10.0605584"><ele>122.5</ele><time>2026-04-24T15:12:53.113Z</time></trkpt><trkpt lat="36.1104385" lon="10.0605402"><ele>123.0</ele><time>2026-04-24T15:12:54.111Z</time></trkpt><trkpt lat="36.1103094" lon="10.0605168"><ele>123.0</ele><time>2026-04-24T15:12:55.115Z</time></trkpt><trkpt lat="36.1101807" lon="10.0604825"><ele>123.0</ele><time>2026-04-24T15:12:56.13Z</time></trkpt><trkpt lat="36.1100534" lon="10.0604436"><ele>123.0</ele><time>2026-04-24T15:12:57.111Z</time></trkpt><trkpt lat="36.1099313" lon="10.060396"><ele>123.0</ele><time>2026-04-24T15:12:58.113Z</time></trkpt><trkpt lat="36.1098178" lon="10.0603458"><ele>122.80000000000001</ele><time>2026-04-24T15:12:59.122Z</time></trkpt><trkpt lat="36.1097095" lon="10.0602887"><ele>122.60000000000001</ele><time>2026-04-24T15:13:00.104Z</time></trkpt><trkpt lat="36.1096039" lon="10.0602228"><ele>122.39999999999999</ele><time>2026-04-24T15:13:01.116Z</time></trkpt><trkpt lat="36.1095072" lon="10.0601668"><ele>122.19999999999999</ele><time>2026-04-24T15:13:02.114Z</time></trkpt><trkpt lat="36.1094148" lon="10.0601116"><ele>122.0</ele><time>2026-04-24T15:13:03.11Z</time></trkpt><trkpt lat="36.109324" lon="10.0600578"><ele>121.99999999999999</ele><time>2026-04-24T15:13:04.096Z</time></trkpt><trkpt lat="36.1092361" lon="10.0600085"><ele>122.0</ele><time>2026-04-24T15:13:05.111Z</time></trkpt><trkpt lat="36.1091606" lon="10.0599656"><ele>122.0</ele><time>2026-04-24T15:13:06.131Z</time></trkpt><trkpt lat="36.109095" lon="10.0599253"><ele>122.0</ele><time>2026-04-24T15:13:07.105Z</time></trkpt><trkpt lat="36.1090364" lon="10.0598889"><ele>121.99999999999999</ele><time>2026-04-24T15:13:08.1Z</time></trkpt><trkpt lat="36.1089673" lon="10.0598583"><ele>122.0</ele><time>2026-04-24T15:13:09.145Z</time></trkpt><trkpt lat="36.108887" lon="10.0598184"><ele>122.39999999999999</ele><time>2026-04-24T15:13:10.106Z</time></trkpt><trkpt lat="36.1087984" lon="10.0597666"><ele>122.79999999999998</ele><time>2026-04-24T15:13:11.112Z</time></trkpt><trkpt lat="36.1087061" lon="10.0597122"><ele>123.2</ele><time>2026-04-24T15:13:12.115Z</time></trkpt><trkpt lat="36.1085988" lon="10.0596571"><ele>123.6</ele><time>2026-04-24T15:13:13.1Z</time></trkpt><trkpt lat="36.1084823" lon="10.0595947"><ele>124.0</ele><time>2026-04-24T15:13:14.12Z</time></trkpt><trkpt lat="36.1083673" lon="10.0595177"><ele>124.0</ele><time>2026-04-24T15:13:15.112Z</time></trkpt><trkpt lat="36.1082524" lon="10.0594425"><ele>124.0</ele><time>2026-04-24T15:13:16.115Z</time></trkpt><trkpt lat="36.1081234" lon="10.0593709"><ele>124.0</ele><time>2026-04-24T15:13:17.116Z</time></trkpt><trkpt lat="36.1079983" lon="10.0592919"><ele>124.0</ele><time>2026-04-24T15:13:18.114Z</time></trkpt><trkpt lat="36.107875" lon="10.0592171"><ele>123.75</ele><time>2026-04-24T15:13:19.11Z</time></trkpt><trkpt lat="36.1077497" lon="10.0591398"><ele>123.5</ele><time>2026-04-24T15:13:20.113Z</time></trkpt><trkpt lat="36.107629" lon="10.0590615"><ele>123.25</ele><time>2026-04-24T15:13:21.119Z</time></trkpt><trkpt lat="36.1075124" lon="10.0589887"><ele>123.0</ele><time>2026-04-24T15:13:22.157Z</time></trkpt><trkpt lat="36.1073948" lon="10.058921"><ele>122.0</ele><time>2026-04-24T15:13:23.118Z</time></trkpt><trkpt lat="36.1072761" lon="10.0588458"><ele>121.0</ele><time>2026-04-24T15:13:24.109Z</time></trkpt><trkpt lat="36.1071591" lon="10.0587682"><ele>120.0</ele><time>2026-04-24T15:13:25.108Z</time></trkpt><trkpt lat="36.1070347" lon="10.0586893"><ele>119.0</ele><time>2026-04-24T15:13:26.118Z</time></trkpt><trkpt lat="36.1069091" lon="10.0586122"><ele>119.0</ele><time>2026-04-24T15:13:27.111Z</time></trkpt><trkpt lat="36.1067825" lon="10.0585401"><ele>119.0</ele><time>2026-04-24T15:13:28.128Z</time></trkpt><trkpt lat="36.1066515" lon="10.058469"><ele>119.0</ele><time>2026-04-24T15:13:29.117Z</time></trkpt><trkpt lat="36.106523" lon="10.0583944"><ele>119.0</ele><time>2026-04-24T15:13:30.12Z</time></trkpt><trkpt lat="36.106398" lon="10.0583208"><ele>119.0</ele><time>2026-04-24T15:13:31.111Z</time></trkpt><trkpt lat="36.1062733" lon="10.0582522"><ele>119.0</ele><time>2026-04-24T15:13:32.125Z</time></trkpt><trkpt lat="36.1061555" lon="10.0581797"><ele>119.0</ele><time>2026-04-24T15:13:33.117Z</time></trkpt><trkpt lat="36.1060346" lon="10.0581072"><ele>119.0</ele><time>2026-04-24T15:13:34.125Z</time></trkpt><trkpt lat="36.1059097" lon="10.0580355"><ele>119.0</ele><time>2026-04-24T15:13:35.108Z</time></trkpt><trkpt lat="36.1058017" lon="10.0579735"><ele>119.0</ele><time>2026-04-24T15:13:36.131Z</time></trkpt><trkpt lat="36.1057124" lon="10.0579228"><ele>119.0</ele><time>2026-04-24T15:13:37.111Z</time></trkpt><trkpt lat="36.105636" lon="10.0578843"><ele>119.0</ele><time>2026-04-24T15:13:38.124Z</time></trkpt><trkpt lat="36.1055675" lon="10.05785"><ele>119.0</ele><time>2026-04-24T15:13:39.127Z</time></trkpt><trkpt lat="36.1054944" lon="10.057805"><ele>119.4</ele><time>2026-04-24T15:13:40.116Z</time></trkpt><trkpt lat="36.1054116" lon="10.0577583"><ele>119.80000000000001</ele><time>2026-04-24T15:13:41.112Z</time></trkpt><trkpt lat="36.1053242" lon="10.0577089"><ele>120.19999999999999</ele><time>2026-04-24T15:13:42.101Z</time></trkpt><trkpt lat="36.1052324" lon="10.0576578"><ele>120.6</ele><time>2026-04-24T15:13:43.116Z</time></trkpt><trkpt lat="36.1051407" lon="10.0576117"><ele>121.0</ele><time>2026-04-24T15:13:44.124Z</time></trkpt><trkpt lat="36.1050457" lon="10.057563"><ele>121.0</ele><time>2026-04-24T15:13:45.116Z</time></trkpt><trkpt lat="36.1049535" lon="10.057513"><ele>121.0</ele><time>2026-04-24T15:13:46.115Z</time></trkpt><trkpt lat="36.1048579" lon="10.0574704"><ele>121.0</ele><time>2026-04-24T15:13:47.123Z</time></trkpt><trkpt lat="36.1047619" lon="10.0574326"><ele>121.0</ele><time>2026-04-24T15:13:48.112Z</time></trkpt><trkpt lat="36.1046554" lon="10.0573935"><ele>121.0</ele><time>2026-04-24T15:13:49.11Z</time></trkpt><trkpt lat="36.104556" lon="10.0573651"><ele>121.0</ele><time>2026-04-24T15:13:50.109Z</time></trkpt><trkpt lat="36.1044541" lon="10.0573336"><ele>121.0</ele><time>2026-04-24T15:13:51.128Z</time></trkpt><trkpt lat="36.1043476" lon="10.0573071"><ele>121.0</ele><time>2026-04-24T15:13:52.108Z</time></trkpt><trkpt lat="36.1042374" lon="10.0572921"><ele>121.0</ele><time>2026-04-24T15:13:53.116Z</time></trkpt><trkpt lat="36.1041299" lon="10.0572727"><ele>121.0</ele><time>2026-04-24T15:13:54.134Z</time></trkpt><trkpt lat="36.104024" lon="10.0572561"><ele>121.0</ele><time>2026-04-24T15:13:55.107Z</time></trkpt><trkpt lat="36.1039133" lon="10.0572394"><ele>121.0</ele><time>2026-04-24T15:13:56.124Z</time></trkpt><trkpt lat="36.1038014" lon="10.057232"><ele>121.0</ele><time>2026-04-24T15:13:57.123Z</time></trkpt><trkpt lat="36.1036898" lon="10.057223"><ele>121.0</ele><time>2026-04-24T15:13:58.118Z</time></trkpt><trkpt lat="36.1035757" lon="10.0572144"><ele>121.0</ele><time>2026-04-24T15:13:59.123Z</time></trkpt><trkpt lat="36.1034672" lon="10.0572055"><ele>121.0</ele><time>2026-04-24T15:14:00.109Z</time></trkpt><trkpt lat="36.1033559" lon="10.0571941"><ele>121.0</ele><time>2026-04-24T15:14:01.103Z</time></trkpt><trkpt lat="36.1032488" lon="10.0571885"><ele>121.0</ele><time>2026-04-24T15:14:02.126Z</time></trkpt><trkpt lat="36.1031521" lon="10.0571906"><ele>121.0</ele><time>2026-04-24T15:14:03.104Z</time></trkpt><trkpt lat="36.1030552" lon="10.0571823"><ele>121.0</ele><time>2026-04-24T15:14:04.116Z</time></trkpt><trkpt lat="36.1029627" lon="10.0571788"><ele>121.0</ele><time>2026-04-24T15:14:05.115Z</time></trkpt><trkpt lat="36.102865" lon="10.057174"><ele>121.0</ele><time>2026-04-24T15:14:06.122Z</time></trkpt><trkpt lat="36.1027637" lon="10.0571695"><ele>121.0</ele><time>2026-04-24T15:14:07.116Z</time></trkpt><trkpt lat="36.1026752" lon="10.0571623"><ele>121.0</ele><time>2026-04-24T15:14:08.124Z</time></trkpt><trkpt lat="36.1025942" lon="10.0571541"><ele>121.0</ele><time>2026-04-24T15:14:09.109Z</time></trkpt><trkpt lat="36.1025113" lon="10.0571538"><ele>121.0</ele><time>2026-04-24T15:14:10.116Z</time></trkpt><trkpt lat="36.1024218" lon="10.0571465"><ele>121.0</ele><time>2026-04-24T15:14:11.114Z</time></trkpt><trkpt lat="36.102322" lon="10.0571495"><ele>121.0</ele><time>2026-04-24T15:14:12.114Z</time></trkpt><trkpt lat="36.1022142" lon="10.0571437"><ele>121.0</ele><time>2026-04-24T15:14:13.124Z</time></trkpt><trkpt lat="36.1021144" lon="10.0571465"><ele>120.8</ele><time>2026-04-24T15:14:14.108Z</time></trkpt><trkpt lat="36.1020093" lon="10.0571412"><ele>120.6</ele><time>2026-04-24T15:14:15.117Z</time></trkpt><trkpt lat="36.1018995" lon="10.057132"><ele>120.4</ele><time>2026-04-24T15:14:16.133Z</time></trkpt><trkpt lat="36.1017826" lon="10.057118"><ele>120.2</ele><time>2026-04-24T15:14:17.106Z</time></trkpt><trkpt lat="36.1016687" lon="10.0571178"><ele>120.0</ele><time>2026-04-24T15:14:18.112Z</time></trkpt><trkpt lat="36.1015621" lon="10.0571222"><ele>119.75</ele><time>2026-04-24T15:14:19.12Z</time></trkpt><trkpt lat="36.1014455" lon="10.0571175"><ele>119.5</ele><time>2026-04-24T15:14:20.122Z</time></trkpt><trkpt lat="36.1013184" lon="10.0571226"><ele>119.25</ele><time>2026-04-24T15:14:21.11Z</time></trkpt><trkpt lat="36.1011802" lon="10.0571278"><ele>119.0</ele><time>2026-04-24T15:14:22.106Z</time></trkpt><trkpt lat="36.1010261" lon="10.0571202"><ele>119.0</ele><time>2026-04-24T15:14:23.103Z</time></trkpt><trkpt lat="36.1008731" lon="10.0571108"><ele>119.0</ele><time>2026-04-24T15:14:24.111Z</time></trkpt><trkpt lat="36.1007181" lon="10.0570925"><ele>119.0</ele><time>2026-04-24T15:14:25.117Z</time></trkpt><trkpt lat="36.1005616" lon="10.0570705"><ele>118.66666666666666</ele><time>2026-04-24T15:14:26.112Z</time></trkpt><trkpt lat="36.1004058" lon="10.0570568"><ele>118.33333333333334</ele><time>2026-04-24T15:14:27.124Z</time></trkpt><trkpt lat="36.1002484" lon="10.0570524"><ele>118.0</ele><time>2026-04-24T15:14:28.122Z</time></trkpt><trkpt lat="36.1000961" lon="10.0570383"><ele>118.0</ele><time>2026-04-24T15:14:29.127Z</time></trkpt><trkpt lat="36.0999337" lon="10.0570233"><ele>118.0</ele><time>2026-04-24T15:14:30.12Z</time></trkpt><trkpt lat="36.0997719" lon="10.0570067"><ele>118.0</ele><time>2026-04-24T15:14:31.116Z</time></trkpt><trkpt lat="36.0996096" lon="10.0569859"><ele>118.66666666666667</ele><time>2026-04-24T15:14:32.148Z</time></trkpt><trkpt lat="36.0994449" lon="10.0569581"><ele>119.33333333333334</ele><time>2026-04-24T15:14:33.113Z</time></trkpt><trkpt lat="36.0992836" lon="10.0569246"><ele>120.0</ele><time>2026-04-24T15:14:34.113Z</time></trkpt><trkpt lat="36.0991207" lon="10.0568934"><ele>119.66666666666666</ele><time>2026-04-24T15:14:35.121Z</time></trkpt><trkpt lat="36.098961" lon="10.0568675"><ele>119.33333333333333</ele><time>2026-04-24T15:14:36.126Z</time></trkpt><trkpt lat="36.0988026" lon="10.0568383"><ele>119.0</ele><time>2026-04-24T15:14:37.123Z</time></trkpt><trkpt lat="36.0986379" lon="10.056812"><ele>119.0</ele><time>2026-04-24T15:14:38.115Z</time></trkpt><trkpt lat="36.0984781" lon="10.0567883"><ele>119.0</ele><time>2026-04-24T15:14:39.111Z</time></trkpt><trkpt lat="36.0983182" lon="10.056758"><ele>119.0</ele><time>2026-04-24T15:14:40.126Z</time></trkpt><trkpt lat="36.0981565" lon="10.0567261"><ele>119.0</ele><time>2026-04-24T15:14:41.122Z</time></trkpt><trkpt lat="36.0979923" lon="10.0566967"><ele>119.0</ele><time>2026-04-24T15:14:42.112Z</time></trkpt><trkpt lat="36.0978308" lon="10.056667"><ele>119.0</ele><time>2026-04-24T15:14:43.103Z</time></trkpt><trkpt lat="36.0976702" lon="10.0566366"><ele>119.33333333333333</ele><time>2026-04-24T15:14:44.115Z</time></trkpt><trkpt lat="36.0975055" lon="10.0566109"><ele>119.66666666666666</ele><time>2026-04-24T15:14:45.118Z</time></trkpt><trkpt lat="36.0973442" lon="10.0565752"><ele>120.0</ele><time>2026-04-24T15:14:46.126Z</time></trkpt><trkpt lat="36.0971815" lon="10.0565445"><ele>119.33333333333334</ele><time>2026-04-24T15:14:47.124Z</time></trkpt><trkpt lat="36.0970226" lon="10.0565092"><ele>118.66666666666667</ele><time>2026-04-24T15:14:48.123Z</time></trkpt><trkpt lat="36.0968611" lon="10.0564774"><ele>118.0</ele><time>2026-04-24T15:14:49.133Z</time></trkpt><trkpt lat="36.0967052" lon="10.0564436"><ele>117.33333333333334</ele><time>2026-04-24T15:14:50.134Z</time></trkpt><trkpt lat="36.0965433" lon="10.0564096"><ele>116.66666666666666</ele><time>2026-04-24T15:14:51.113Z</time></trkpt><trkpt lat="36.0963856" lon="10.0563828"><ele>116.0</ele><time>2026-04-24T15:14:52.114Z</time></trkpt><trkpt lat="36.0962203" lon="10.056354"><ele>116.0</ele><time>2026-04-24T15:14:53.113Z</time></trkpt><trkpt lat="36.0960576" lon="10.0563244"><ele>116.0</ele><time>2026-04-24T15:14:54.13Z</time></trkpt><trkpt lat="36.0958974" lon="10.0562921"><ele>116.0</ele><time>2026-04-24T15:14:55.133Z</time></trkpt><trkpt lat="36.0957372" lon="10.0562628"><ele>116.33333333333333</ele><time>2026-04-24T15:14:56.121Z</time></trkpt><trkpt lat="36.0955767" lon="10.0562327"><ele>116.66666666666666</ele><time>2026-04-24T15:14:57.115Z</time></trkpt><trkpt lat="36.0954172" lon="10.0562017"><ele>117.0</ele><time>2026-04-24T15:14:58.111Z</time></trkpt><trkpt lat="36.095261" lon="10.0561687"><ele>117.0</ele><time>2026-04-24T15:14:59.123Z</time></trkpt><trkpt lat="36.0951003" lon="10.0561395"><ele>117.0</ele><time>2026-04-24T15:15:00.109Z</time></trkpt><trkpt lat="36.094938" lon="10.0561064"><ele>117.0</ele><time>2026-04-24T15:15:01.124Z</time></trkpt><trkpt lat="36.0947789" lon="10.0560732"><ele>116.66666666666666</ele><time>2026-04-24T15:15:02.134Z</time></trkpt><trkpt lat="36.0946156" lon="10.0560441"><ele>116.33333333333333</ele><time>2026-04-24T15:15:03.116Z</time></trkpt><trkpt lat="36.0944559" lon="10.0560122"><ele>116.0</ele><time>2026-04-24T15:15:04.132Z</time></trkpt><trkpt lat="36.0942914" lon="10.0559828"><ele>116.0</ele><time>2026-04-24T15:15:05.103Z</time></trkpt><trkpt lat="36.0941281" lon="10.0559485"><ele>116.0</ele><time>2026-04-24T15:15:06.126Z</time></trkpt><trkpt lat="36.0939617" lon="10.0559106"><ele>116.0</ele><time>2026-04-24T15:15:07.108Z</time></trkpt><trkpt lat="36.093803" lon="10.055872"><ele>116.33333333333333</ele><time>2026-04-24T15:15:08.132Z</time></trkpt><trkpt lat="36.0936428" lon="10.0558268"><ele>116.66666666666666</ele><time>2026-04-24T15:15:09.133Z</time></trkpt><trkpt lat="36.0934881" lon="10.0557734"><ele>117.0</ele><time>2026-04-24T15:15:10.134Z</time></trkpt><trkpt lat="36.0933357" lon="10.0557115"><ele>117.0</ele><time>2026-04-24T15:15:11.124Z</time></trkpt><trkpt lat="36.0931808" lon="10.0556498"><ele>117.0</ele><time>2026-04-24T15:15:12.12Z</time></trkpt><trkpt lat="36.0930263" lon="10.0555879"><ele>117.0</ele><time>2026-04-24T15:15:13.116Z</time></trkpt><trkpt lat="36.092875" lon="10.055524"><ele>117.0</ele><time>2026-04-24T15:15:14.12Z</time></trkpt><trkpt lat="36.0927261" lon="10.0554579"><ele>117.0</ele><time>2026-04-24T15:15:15.123Z</time></trkpt><trkpt lat="36.0925735" lon="10.0553968"><ele>117.0</ele><time>2026-04-24T15:15:16.125Z</time></trkpt><trkpt lat="36.0924223" lon="10.0553372"><ele>117.33333333333334</ele><time>2026-04-24T15:15:17.106Z</time></trkpt><trkpt lat="36.0922713" lon="10.0552819"><ele>117.66666666666667</ele><time>2026-04-24T15:15:18.106Z</time></trkpt><trkpt lat="36.0921181" lon="10.055224"><ele>118.0</ele><time>2026-04-24T15:15:19.132Z</time></trkpt><trkpt lat="36.0919671" lon="10.0551649"><ele>118.0</ele><time>2026-04-24T15:15:20.127Z</time></trkpt><trkpt lat="36.0918105" lon="10.0551066"><ele>118.0</ele><time>2026-04-24T15:15:21.109Z</time></trkpt><trkpt lat="36.0916545" lon="10.05506"><ele>118.0</ele><time>2026-04-24T15:15:22.115Z</time></trkpt><trkpt lat="36.0914961" lon="10.0550142"><ele>118.0</ele><time>2026-04-24T15:15:23.123Z</time></trkpt><trkpt lat="36.0913342" lon="10.0549732"><ele>118.0</ele><time>2026-04-24T15:15:24.116Z</time></trkpt><trkpt lat="36.0911702" lon="10.0549381"><ele>118.0</ele><time>2026-04-24T15:15:25.12Z</time></trkpt><trkpt lat="36.0910104" lon="10.0549195"><ele>118.0</ele><time>2026-04-24T15:15:26.111Z</time></trkpt><trkpt lat="36.0908486" lon="10.0549052"><ele>118.0</ele><time>2026-04-24T15:15:27.116Z</time></trkpt><trkpt lat="36.090688" lon="10.0549019"><ele>118.0</ele><time>2026-04-24T15:15:28.12Z</time></trkpt><trkpt lat="36.0905326" lon="10.0548983"><ele>117.75</ele><time>2026-04-24T15:15:29.136Z</time></trkpt><trkpt lat="36.0903913" lon="10.054901"><ele>117.5</ele><time>2026-04-24T15:15:30.121Z</time></trkpt><trkpt lat="36.0902587" lon="10.054899"><ele>117.25</ele><time>2026-04-24T15:15:31.111Z</time></trkpt><trkpt lat="36.0901268" lon="10.0548989"><ele>117.0</ele><time>2026-04-24T15:15:32.111Z</time></trkpt><trkpt lat="36.0900019" lon="10.0548984"><ele>116.75</ele><time>2026-04-24T15:15:33.106Z</time></trkpt><trkpt lat="36.0898759" lon="10.0548944"><ele>116.5</ele><time>2026-04-24T15:15:34.11Z</time></trkpt><trkpt lat="36.0897538" lon="10.0548975"><ele>116.25</ele><time>2026-04-24T15:15:35.103Z</time></trkpt><trkpt lat="36.0896249" lon="10.054895"><ele>116.0</ele><time>2026-04-24T15:15:36.124Z</time></trkpt><trkpt lat="36.0894877" lon="10.0548925"><ele>116.0</ele><time>2026-04-24T15:15:37.119Z</time></trkpt><trkpt lat="36.0893363" lon="10.0548938"><ele>116.0</ele><time>2026-04-24T15:15:38.109Z</time></trkpt><trkpt lat="36.0891714" lon="10.0548909"><ele>116.0</ele><time>2026-04-24T15:15:39.131Z</time></trkpt><trkpt lat="36.0890082" lon="10.0548911"><ele>116.0</ele><time>2026-04-24T15:15:40.099Z</time></trkpt><trkpt lat="36.0888429" lon="10.0548896"><ele>116.0</ele><time>2026-04-24T15:15:41.116Z</time></trkpt><trkpt lat="36.0886786" lon="10.0548825"><ele>116.0</ele><time>2026-04-24T15:15:42.112Z</time></trkpt><trkpt lat="36.0885166" lon="10.0548796"><ele>116.0</ele><time>2026-04-24T15:15:43.103Z</time></trkpt><trkpt lat="36.0883541" lon="10.0548624"><ele>116.0</ele><time>2026-04-24T15:15:44.122Z</time></trkpt><trkpt lat="36.088194" lon="10.0548394"><ele>116.0</ele><time>2026-04-24T15:15:45.113Z</time></trkpt><trkpt lat="36.0880329" lon="10.0548102"><ele>116.0</ele><time>2026-04-24T15:15:46.11Z</time></trkpt><trkpt lat="36.0878737" lon="10.0547757"><ele>116.0</ele><time>2026-04-24T15:15:47.117Z</time></trkpt><trkpt lat="36.0877162" lon="10.0547466"><ele>116.0</ele><time>2026-04-24T15:15:48.11Z</time></trkpt><trkpt lat="36.0875534" lon="10.0547208"><ele>116.0</ele><time>2026-04-24T15:15:49.107Z</time></trkpt><trkpt lat="36.0873934" lon="10.054694"><ele>116.0</ele><time>2026-04-24T15:15:50.117Z</time></trkpt><trkpt lat="36.0872313" lon="10.0546607"><ele>116.0</ele><time>2026-04-24T15:15:51.12Z</time></trkpt><trkpt lat="36.0870686" lon="10.054633"><ele>116.0</ele><time>2026-04-24T15:15:52.112Z</time></trkpt><trkpt lat="36.0869096" lon="10.0546063"><ele>116.0</ele><time>2026-04-24T15:15:53.112Z</time></trkpt><trkpt lat="36.0867482" lon="10.0545814"><ele>116.0</ele><time>2026-04-24T15:15:54.123Z</time></trkpt><trkpt lat="36.0865842" lon="10.0545487"><ele>115.33333333333333</ele><time>2026-04-24T15:15:55.12Z</time></trkpt><trkpt lat="36.08642" lon="10.0545192"><ele>114.66666666666666</ele><time>2026-04-24T15:15:56.107Z</time></trkpt><trkpt lat="36.0862611" lon="10.0544905"><ele>114.0</ele><time>2026-04-24T15:15:57.115Z</time></trkpt><trkpt lat="36.0861026" lon="10.0544576"><ele>114.0</ele><time>2026-04-24T15:15:58.123Z</time></trkpt><trkpt lat="36.0859436" lon="10.0544266"><ele>114.0</ele><time>2026-04-24T15:15:59.111Z</time></trkpt><trkpt lat="36.0857828" lon="10.0543959"><ele>114.0</ele><time>2026-04-24T15:16:00.111Z</time></trkpt><trkpt lat="36.0856191" lon="10.0543647"><ele>113.66666666666666</ele><time>2026-04-24T15:16:01.109Z</time></trkpt><trkpt lat="36.0854583" lon="10.0543299"><ele>113.33333333333333</ele><time>2026-04-24T15:16:02.115Z</time></trkpt><trkpt lat="36.0852934" lon="10.0542991"><ele>113.0</ele><time>2026-04-24T15:16:03.115Z</time></trkpt><trkpt lat="36.0851294" lon="10.0542677"><ele>113.0</ele><time>2026-04-24T15:16:04.1Z</time></trkpt><trkpt lat="36.0849686" lon="10.0542374"><ele>113.0</ele><time>2026-04-24T15:16:05.11Z</time></trkpt><trkpt lat="36.0848065" lon="10.0542083"><ele>113.0</ele><time>2026-04-24T15:16:06.142Z</time></trkpt><trkpt lat="36.0846459" lon="10.0541784"><ele>112.66666666666666</ele><time>2026-04-24T15:16:07.108Z</time></trkpt><trkpt lat="36.0844893" lon="10.0541481"><ele>112.33333333333334</ele><time>2026-04-24T15:16:08.119Z</time></trkpt><trkpt lat="36.0843329" lon="10.0541166"><ele>112.0</ele><time>2026-04-24T15:16:09.125Z</time></trkpt><trkpt lat="36.0841695" lon="10.0540852"><ele>112.0</ele><time>2026-04-24T15:16:10.123Z</time></trkpt><trkpt lat="36.084007" lon="10.0540569"><ele>112.0</ele><time>2026-04-24T15:16:11.113Z</time></trkpt><trkpt lat="36.0838451" lon="10.0540271"><ele>112.0</ele><time>2026-04-24T15:16:12.128Z</time></trkpt><trkpt lat="36.0836835" lon="10.0539943"><ele>112.0</ele><time>2026-04-24T15:16:13.107Z</time></trkpt><trkpt lat="36.083522" lon="10.0539578"><ele>112.0</ele><time>2026-04-24T15:16:14.112Z</time></trkpt><trkpt lat="36.0833585" lon="10.0539295"><ele>112.0</ele><time>2026-04-24T15:16:15.114Z</time></trkpt><trkpt lat="36.0831973" lon="10.0539008"><ele>111.33333333333334</ele><time>2026-04-24T15:16:16.12Z</time></trkpt><trkpt lat="36.0830368" lon="10.0538664"><ele>110.66666666666666</ele><time>2026-04-24T15:16:17.107Z</time></trkpt><trkpt lat="36.0828735" lon="10.0538377"><ele>110.0</ele><time>2026-04-24T15:16:18.11Z</time></trkpt><trkpt lat="36.0827125" lon="10.0538048"><ele>110.0</ele><time>2026-04-24T15:16:19.13Z</time></trkpt><trkpt lat="36.0825534" lon="10.0537778"><ele>110.0</ele><time>2026-04-24T15:16:20.119Z</time></trkpt><trkpt lat="36.0823882" lon="10.0537546"><ele>110.0</ele><time>2026-04-24T15:16:21.113Z</time></trkpt><trkpt lat="36.0822302" lon="10.0537252"><ele>110.0</ele><time>2026-04-24T15:16:22.119Z</time></trkpt><trkpt lat="36.08207" lon="10.053695"><ele>110.0</ele><time>2026-04-24T15:16:23.111Z</time></trkpt><trkpt lat="36.0819103" lon="10.0536659"><ele>110.0</ele><time>2026-04-24T15:16:24.132Z</time></trkpt><trkpt lat="36.0817531" lon="10.0536345"><ele>110.0</ele><time>2026-04-24T15:16:25.12Z</time></trkpt><trkpt lat="36.0815958" lon="10.0536059"><ele>110.0</ele><time>2026-04-24T15:16:26.111Z</time></trkpt><trkpt lat="36.0814374" lon="10.053577"><ele>110.0</ele><time>2026-04-24T15:16:27.114Z</time></trkpt><trkpt lat="36.0812758" lon="10.0535483"><ele>110.0</ele><time>2026-04-24T15:16:28.098Z</time></trkpt><trkpt lat="36.0811107" lon="10.0535184"><ele>110.0</ele><time>2026-04-24T15:16:29.104Z</time></trkpt><trkpt lat="36.0809494" lon="10.0534877"><ele>110.0</ele><time>2026-04-24T15:16:30.098Z</time></trkpt><trkpt lat="36.0807836" lon="10.0534582"><ele>110.0</ele><time>2026-04-24T15:16:31.111Z</time></trkpt><trkpt lat="36.0806217" lon="10.0534258"><ele>110.0</ele><time>2026-04-24T15:16:32.115Z</time></trkpt><trkpt lat="36.0804659" lon="10.0533992"><ele>110.0</ele><time>2026-04-24T15:16:33.116Z</time></trkpt><trkpt lat="36.0803096" lon="10.0533688"><ele>110.0</ele><time>2026-04-24T15:16:34.11Z</time></trkpt><trkpt lat="36.0801475" lon="10.0533407"><ele>110.0</ele><time>2026-04-24T15:16:35.126Z</time></trkpt><trkpt lat="36.0799883" lon="10.0533062"><ele>110.0</ele><time>2026-04-24T15:16:36.116Z</time></trkpt><trkpt lat="36.0798314" lon="10.0532758"><ele>110.0</ele><time>2026-04-24T15:16:37.13Z</time></trkpt><trkpt lat="36.0796784" lon="10.0532417"><ele>110.0</ele><time>2026-04-24T15:16:38.107Z</time></trkpt><trkpt lat="36.0795227" lon="10.0532128"><ele>110.0</ele><time>2026-04-24T15:16:39.106Z</time></trkpt><trkpt lat="36.0793601" lon="10.0531874"><ele>110.0</ele><time>2026-04-24T15:16:40.125Z</time></trkpt><trkpt lat="36.079192" lon="10.0531548"><ele>110.0</ele><time>2026-04-24T15:16:41.108Z</time></trkpt><trkpt lat="36.0790269" lon="10.0531241"><ele>110.0</ele><time>2026-04-24T15:16:42.125Z</time></trkpt><trkpt lat="36.0788663" lon="10.0530979"><ele>110.0</ele><time>2026-04-24T15:16:43.129Z</time></trkpt><trkpt lat="36.0787051" lon="10.0530672"><ele>110.0</ele><time>2026-04-24T15:16:44.112Z</time></trkpt><trkpt lat="36.0785466" lon="10.053043"><ele>110.0</ele><time>2026-04-24T15:16:45.104Z</time></trkpt><trkpt lat="36.0783899" lon="10.0530201"><ele>110.0</ele><time>2026-04-24T15:16:46.123Z</time></trkpt><trkpt lat="36.0782302" lon="10.0529923"><ele>110.0</ele><time>2026-04-24T15:16:47.109Z</time></trkpt><trkpt lat="36.0780697" lon="10.0529598"><ele>110.0</ele><time>2026-04-24T15:16:48.114Z</time></trkpt><trkpt lat="36.0779115" lon="10.0529315"><ele>110.0</ele><time>2026-04-24T15:16:49.111Z</time></trkpt><trkpt lat="36.0777548" lon="10.0529"><ele>110.0</ele><time>2026-04-24T15:16:50.105Z</time></trkpt><trkpt lat="36.0775935" lon="10.0528674"><ele>110.0</ele><time>2026-04-24T15:16:51.113Z</time></trkpt><trkpt lat="36.0774359" lon="10.0528353"><ele>109.66666666666666</ele><time>2026-04-24T15:16:52.121Z</time></trkpt><trkpt lat="36.0772732" lon="10.0528025"><ele>109.33333333333334</ele><time>2026-04-24T15:16:53.12Z</time></trkpt><trkpt lat="36.0771106" lon="10.0527693"><ele>109.0</ele><time>2026-04-24T15:16:54.103Z</time></trkpt><trkpt lat="36.076944" lon="10.0527389"><ele>109.0</ele><time>2026-04-24T15:16:55.114Z</time></trkpt><trkpt lat="36.076785" lon="10.0527116"><ele>109.0</ele><time>2026-04-24T15:16:56.134Z</time></trkpt><trkpt lat="36.0766224" lon="10.0526828"><ele>109.0</ele><time>2026-04-24T15:16:57.135Z</time></trkpt><trkpt lat="36.0764612" lon="10.0526517"><ele>109.0</ele><time>2026-04-24T15:16:58.101Z</time></trkpt><trkpt lat="36.0763006" lon="10.052623"><ele>109.0</ele><time>2026-04-24T15:16:59.106Z</time></trkpt><trkpt lat="36.0761437" lon="10.0525974"><ele>109.0</ele><time>2026-04-24T15:17:00.1Z</time></trkpt><trkpt lat="36.0759858" lon="10.0525686"><ele>109.0</ele><time>2026-04-24T15:17:01.115Z</time></trkpt><trkpt lat="36.0758275" lon="10.0525459"><ele>109.0</ele><time>2026-04-24T15:17:02.118Z</time></trkpt><trkpt lat="36.0756711" lon="10.052517"><ele>109.0</ele><time>2026-04-24T15:17:03.11Z</time></trkpt><trkpt lat="36.0755157" lon="10.0524919"><ele>108.33333333333334</ele><time>2026-04-24T15:17:04.103Z</time></trkpt><trkpt lat="36.075356" lon="10.0524797"><ele>107.66666666666666</ele><time>2026-04-24T15:17:05.11Z</time></trkpt><trkpt lat="36.075195" lon="10.0524767"><ele>107.0</ele><time>2026-04-24T15:17:06.13Z</time></trkpt><trkpt lat="36.0750355" lon="10.0524752"><ele>106.66666666666666</ele><time>2026-04-24T15:17:07.115Z</time></trkpt><trkpt lat="36.0748775" lon="10.0524744"><ele>106.33333333333334</ele><time>2026-04-24T15:17:08.11Z</time></trkpt><trkpt lat="36.0747126" lon="10.0524866"><ele>106.0</ele><time>2026-04-24T15:17:09.131Z</time></trkpt><trkpt lat="36.0745533" lon="10.0525113"><ele>106.0</ele><time>2026-04-24T15:17:10.123Z</time></trkpt><trkpt lat="36.0743957" lon="10.0525409"><ele>106.0</ele><time>2026-04-24T15:17:11.119Z</time></trkpt><trkpt lat="36.0742416" lon="10.0525787"><ele>106.0</ele><time>2026-04-24T15:17:12.12Z</time></trkpt><trkpt lat="36.0740882" lon="10.0526264"><ele>106.33333333333334</ele><time>2026-04-24T15:17:13.115Z</time></trkpt><trkpt lat="36.0739274" lon="10.0526694"><ele>106.66666666666666</ele><time>2026-04-24T15:17:14.116Z</time></trkpt><trkpt lat="36.0737651" lon="10.0527186"><ele>107.0</ele><time>2026-04-24T15:17:15.104Z</time></trkpt><trkpt lat="36.0736043" lon="10.0527633"><ele>107.0</ele><time>2026-04-24T15:17:16.113Z</time></trkpt><trkpt lat="36.0734464" lon="10.0528133"><ele>107.0</ele><time>2026-04-24T15:17:17.114Z</time></trkpt><trkpt lat="36.0732897" lon="10.0528588"><ele>107.0</ele><time>2026-04-24T15:17:18.109Z</time></trkpt><trkpt lat="36.0731328" lon="10.0529054"><ele>107.0</ele><time>2026-04-24T15:17:19.116Z</time></trkpt><trkpt lat="36.0729793" lon="10.0529496"><ele>107.0</ele><time>2026-04-24T15:17:20.117Z</time></trkpt><trkpt lat="36.0728293" lon="10.0529983"><ele>107.0</ele><time>2026-04-24T15:17:21.114Z</time></trkpt><trkpt lat="36.072675" lon="10.0530439"><ele>107.0</ele><time>2026-04-24T15:17:22.118Z</time></trkpt><trkpt lat="36.072518" lon="10.0530906"><ele>107.0</ele><time>2026-04-24T15:17:23.122Z</time></trkpt><trkpt lat="36.0723555" lon="10.0531377"><ele>107.0</ele><time>2026-04-24T15:17:24.114Z</time></trkpt><trkpt lat="36.0721958" lon="10.0531915"><ele>106.66666666666666</ele><time>2026-04-24T15:17:25.115Z</time></trkpt><trkpt lat="36.0720322" lon="10.0532384"><ele>106.33333333333334</ele><time>2026-04-24T15:17:26.108Z</time></trkpt><trkpt lat="36.0718759" lon="10.05328"><ele>106.0</ele><time>2026-04-24T15:17:27.124Z</time></trkpt><trkpt lat="36.0717173" lon="10.0533335"><ele>105.0</ele><time>2026-04-24T15:17:28.117Z</time></trkpt><trkpt lat="36.0715601" lon="10.053378"><ele>104.0</ele><time>2026-04-24T15:17:29.111Z</time></trkpt><trkpt lat="36.0714033" lon="10.0534303"><ele>103.0</ele><time>2026-04-24T15:17:30.111Z</time></trkpt><trkpt lat="36.0712437" lon="10.0534784"><ele>103.0</ele><time>2026-04-24T15:17:31.107Z</time></trkpt><trkpt lat="36.0710857" lon="10.053525"><ele>103.0</ele><time>2026-04-24T15:17:32.114Z</time></trkpt><trkpt lat="36.070926" lon="10.053568"><ele>103.0</ele><time>2026-04-24T15:17:33.123Z</time></trkpt><trkpt lat="36.0707702" lon="10.0536156"><ele>103.33333333333334</ele><time>2026-04-24T15:17:34.114Z</time></trkpt><trkpt lat="36.0706117" lon="10.0536609"><ele>103.66666666666666</ele><time>2026-04-24T15:17:35.116Z</time></trkpt><trkpt lat="36.0704553" lon="10.0537054"><ele>104.0</ele><time>2026-04-24T15:17:36.125Z</time></trkpt><trkpt lat="36.0702949" lon="10.0537515"><ele>104.0</ele><time>2026-04-24T15:17:37.115Z</time></trkpt><trkpt lat="36.0701394" lon="10.0537997"><ele>104.0</ele><time>2026-04-24T15:17:38.11Z</time></trkpt><trkpt lat="36.0699817" lon="10.0538468"><ele>104.0</ele><time>2026-04-24T15:17:39.115Z</time></trkpt><trkpt lat="36.0698191" lon="10.0538938"><ele>103.66666666666666</ele><time>2026-04-24T15:17:40.122Z</time></trkpt><trkpt lat="36.0696604" lon="10.0539417"><ele>103.33333333333334</ele><time>2026-04-24T15:17:41.116Z</time></trkpt><trkpt lat="36.0695063" lon="10.0539917"><ele>103.0</ele><time>2026-04-24T15:17:42.122Z</time></trkpt><trkpt lat="36.0693496" lon="10.0540384"><ele>103.0</ele><time>2026-04-24T15:17:43.106Z</time></trkpt><trkpt lat="36.0691939" lon="10.0540862"><ele>103.0</ele><time>2026-04-24T15:17:44.118Z</time></trkpt><trkpt lat="36.0690379" lon="10.0541286"><ele>103.0</ele><time>2026-04-24T15:17:45.103Z</time></trkpt><trkpt lat="36.0688784" lon="10.0541701"><ele>103.0</ele><time>2026-04-24T15:17:46.11Z</time></trkpt><trkpt lat="36.0687248" lon="10.0542135"><ele>103.0</ele><time>2026-04-24T15:17:47.104Z</time></trkpt><trkpt lat="36.0685657" lon="10.0542624"><ele>103.0</ele><time>2026-04-24T15:17:48.1Z</time></trkpt><trkpt lat="36.0684033" lon="10.0543143"><ele>102.33333333333334</ele><time>2026-04-24T15:17:49.108Z</time></trkpt><trkpt lat="36.0682474" lon="10.0543584"><ele>101.66666666666666</ele><time>2026-04-24T15:17:50.108Z</time></trkpt><trkpt lat="36.0680893" lon="10.0544042"><ele>101.0</ele><time>2026-04-24T15:17:51.117Z</time></trkpt><trkpt lat="36.0679315" lon="10.0544494"><ele>101.0</ele><time>2026-04-24T15:17:52.112Z</time></trkpt><trkpt lat="36.0677744" lon="10.054499"><ele>101.0</ele><time>2026-04-24T15:17:53.13Z</time></trkpt><trkpt lat="36.0676162" lon="10.0545489"><ele>101.0</ele><time>2026-04-24T15:17:54.112Z</time></trkpt><trkpt lat="36.0674568" lon="10.0545957"><ele>101.0</ele><time>2026-04-24T15:17:55.104Z</time></trkpt><trkpt lat="36.0672962" lon="10.054643"><ele>101.0</ele><time>2026-04-24T15:17:56.124Z</time></trkpt><trkpt lat="36.0671382" lon="10.0546939"><ele>101.0</ele><time>2026-04-24T15:17:57.121Z</time></trkpt><trkpt lat="36.0669818" lon="10.0547408"><ele>101.0</ele><time>2026-04-24T15:17:58.115Z</time></trkpt><trkpt lat="36.0668248" lon="10.0547865"><ele>101.0</ele><time>2026-04-24T15:17:59.119Z</time></trkpt><trkpt lat="36.0666642" lon="10.0548331"><ele>101.0</ele><time>2026-04-24T15:18:00.108Z</time></trkpt><trkpt lat="36.0665078" lon="10.054875"><ele>101.0</ele><time>2026-04-24T15:18:01.125Z</time></trkpt><trkpt lat="36.0663521" lon="10.0549222"><ele>101.0</ele><time>2026-04-24T15:18:02.104Z</time></trkpt><trkpt lat="36.0661988" lon="10.05497"><ele>101.0</ele><time>2026-04-24T15:18:03.115Z</time></trkpt><trkpt lat="36.066044" lon="10.0550165"><ele>101.0</ele><time>2026-04-24T15:18:04.113Z</time></trkpt><trkpt lat="36.0658845" lon="10.0550598"><ele>101.0</ele><time>2026-04-24T15:18:05.115Z</time></trkpt><trkpt lat="36.0657244" lon="10.0551074"><ele>101.0</ele><time>2026-04-24T15:18:06.113Z</time></trkpt><trkpt lat="36.0655673" lon="10.0551494"><ele>100.66666666666666</ele><time>2026-04-24T15:18:07.116Z</time></trkpt><trkpt lat="36.0654106" lon="10.0551926"><ele>100.33333333333334</ele><time>2026-04-24T15:18:08.11Z</time></trkpt><trkpt lat="36.0652604" lon="10.05524"><ele>100.0</ele><time>2026-04-24T15:18:09.098Z</time></trkpt><trkpt lat="36.065104" lon="10.0552952"><ele>100.66666666666667</ele><time>2026-04-24T15:18:10.12Z</time></trkpt><trkpt lat="36.0649424" lon="10.0553448"><ele>101.33333333333334</ele><time>2026-04-24T15:18:11.117Z</time></trkpt><trkpt lat="36.0647805" lon="10.05539"><ele>102.0</ele><time>2026-04-24T15:18:12.121Z</time></trkpt><trkpt lat="36.0646235" lon="10.055431"><ele>102.0</ele><time>2026-04-24T15:18:13.113Z</time></trkpt><trkpt lat="36.0644642" lon="10.0554783"><ele>102.0</ele><time>2026-04-24T15:18:14.111Z</time></trkpt><trkpt lat="36.0643062" lon="10.0555262"><ele>102.0</ele><time>2026-04-24T15:18:15.12Z</time></trkpt><trkpt lat="36.064153" lon="10.0555755"><ele>102.0</ele><time>2026-04-24T15:18:16.122Z</time></trkpt><trkpt lat="36.0639957" lon="10.0556275"><ele>102.0</ele><time>2026-04-24T15:18:17.113Z</time></trkpt><trkpt lat="36.0638355" lon="10.0556711"><ele>102.0</ele><time>2026-04-24T15:18:18.11Z</time></trkpt><trkpt lat="36.0636752" lon="10.0557178"><ele>102.0</ele><time>2026-04-24T15:18:19.116Z</time></trkpt><trkpt lat="36.0635169" lon="10.0557603"><ele>102.0</ele><time>2026-04-24T15:18:20.111Z</time></trkpt><trkpt lat="36.0633596" lon="10.055807"><ele>102.0</ele><time>2026-04-24T15:18:21.124Z</time></trkpt><trkpt lat="36.0632017" lon="10.0558578"><ele>101.33333333333334</ele><time>2026-04-24T15:18:22.116Z</time></trkpt><trkpt lat="36.0630461" lon="10.0559029"><ele>100.66666666666667</ele><time>2026-04-24T15:18:23.103Z</time></trkpt><trkpt lat="36.0628906" lon="10.0559486"><ele>100.0</ele><time>2026-04-24T15:18:24.117Z</time></trkpt><trkpt lat="36.0627297" lon="10.055999"><ele>100.0</ele><time>2026-04-24T15:18:25.104Z</time></trkpt><trkpt lat="36.0625724" lon="10.0560458"><ele>100.0</ele><time>2026-04-24T15:18:26.114Z</time></trkpt><trkpt lat="36.0624176" lon="10.0560917"><ele>100.0</ele><time>2026-04-24T15:18:27.107Z</time></trkpt><trkpt lat="36.0622624" lon="10.0561412"><ele>100.0</ele><time>2026-04-24T15:18:28.125Z</time></trkpt><trkpt lat="36.0621029" lon="10.0561901"><ele>100.0</ele><time>2026-04-24T15:18:29.109Z</time></trkpt><trkpt lat="36.0619443" lon="10.0562385"><ele>100.0</ele><time>2026-04-24T15:18:30.102Z</time></trkpt><trkpt lat="36.0617758" lon="10.0562903"><ele>100.0</ele><time>2026-04-24T15:18:31.112Z</time></trkpt><trkpt lat="36.0615985" lon="10.0563465"><ele>100.0</ele><time>2026-04-24T15:18:32.1Z</time></trkpt><trkpt lat="36.0614101" lon="10.0564035"><ele>100.0</ele><time>2026-04-24T15:18:33.109Z</time></trkpt><trkpt lat="36.0612233" lon="10.0564529"><ele>100.0</ele><time>2026-04-24T15:18:34.114Z</time></trkpt><trkpt lat="36.0610365" lon="10.0565103"><ele>100.0</ele><time>2026-04-24T15:18:35.103Z</time></trkpt><trkpt lat="36.0608498" lon="10.056566"><ele>100.0</ele><time>2026-04-24T15:18:36.131Z</time></trkpt><trkpt lat="36.0606639" lon="10.0566218"><ele>99.33333333333334</ele><time>2026-04-24T15:18:37.111Z</time></trkpt><trkpt lat="36.0604772" lon="10.0566771"><ele>98.66666666666666</ele><time>2026-04-24T15:18:38.117Z</time></trkpt><trkpt lat="36.0602979" lon="10.0567328"><ele>98.0</ele><time>2026-04-24T15:18:39.124Z</time></trkpt><trkpt lat="36.0601207" lon="10.0567858"><ele>98.66666666666666</ele><time>2026-04-24T15:18:40.118Z</time></trkpt><trkpt lat="36.0599405" lon="10.0568385"><ele>99.33333333333334</ele><time>2026-04-24T15:18:41.113Z</time></trkpt><trkpt lat="36.0597565" lon="10.0568934"><ele>100.0</ele><time>2026-04-24T15:18:42.098Z</time></trkpt><trkpt lat="36.0595721" lon="10.0569516"><ele>100.0</ele><time>2026-04-24T15:18:43.11Z</time></trkpt><trkpt lat="36.0593848" lon="10.0570056"><ele>100.0</ele><time>2026-04-24T15:18:44.11Z</time></trkpt><trkpt lat="36.0591975" lon="10.0570594"><ele>100.0</ele><time>2026-04-24T15:18:45.117Z</time></trkpt><trkpt lat="36.0590116" lon="10.0571187"><ele>100.0</ele><time>2026-04-24T15:18:46.121Z</time></trkpt><trkpt lat="36.0588267" lon="10.057179"><ele>100.0</ele><time>2026-04-24T15:18:47.103Z</time></trkpt><trkpt lat="36.0586466" lon="10.0572362"><ele>100.0</ele><time>2026-04-24T15:18:48.119Z</time></trkpt><trkpt lat="36.0584656" lon="10.0572892"><ele>100.0</ele><time>2026-04-24T15:18:49.117Z</time></trkpt><trkpt lat="36.0582848" lon="10.0573439"><ele>100.0</ele><time>2026-04-24T15:18:50.113Z</time></trkpt><trkpt lat="36.0581075" lon="10.0574014"><ele>100.0</ele><time>2026-04-24T15:18:51.109Z</time></trkpt><trkpt lat="36.0579278" lon="10.0574578"><ele>99.33333333333334</ele><time>2026-04-24T15:18:52.111Z</time></trkpt><trkpt lat="36.0577422" lon="10.05751"><ele>98.66666666666666</ele><time>2026-04-24T15:18:53.125Z</time></trkpt><trkpt lat="36.0575545" lon="10.0575633"><ele>98.0</ele><time>2026-04-24T15:18:54.108Z</time></trkpt><trkpt lat="36.0573714" lon="10.0576112"><ele>98.0</ele><time>2026-04-24T15:18:55.11Z</time></trkpt><trkpt lat="36.0571899" lon="10.0576674"><ele>98.0</ele><time>2026-04-24T15:18:56.11Z</time></trkpt><trkpt lat="36.0570064" lon="10.0577224"><ele>98.0</ele><time>2026-04-24T15:18:57.114Z</time></trkpt><trkpt lat="36.0568242" lon="10.0577799"><ele>98.0</ele><time>2026-04-24T15:18:58.123Z</time></trkpt><trkpt lat="36.056656" lon="10.0578282"><ele>98.0</ele><time>2026-04-24T15:18:59.105Z</time></trkpt><trkpt lat="36.0565014" lon="10.0578721"><ele>98.0</ele><time>2026-04-24T15:19:00.128Z</time></trkpt><trkpt lat="36.0563591" lon="10.0579189"><ele>98.25</ele><time>2026-04-24T15:19:01.126Z</time></trkpt><trkpt lat="36.0562216" lon="10.0579599"><ele>98.5</ele><time>2026-04-24T15:19:02.136Z</time></trkpt><trkpt lat="36.0561016" lon="10.0579981"><ele>98.75</ele><time>2026-04-24T15:19:03.106Z</time></trkpt><trkpt lat="36.0560082" lon="10.0580273"><ele>99.0</ele><time>2026-04-24T15:19:04.115Z</time></trkpt><trkpt lat="36.0559225" lon="10.0580548"><ele>99.0</ele><time>2026-04-24T15:19:05.108Z</time></trkpt><trkpt lat="36.0558403" lon="10.0580686"><ele>99.0</ele><time>2026-04-24T15:19:06.12Z</time></trkpt><trkpt lat="36.0557588" lon="10.0580875"><ele>99.0</ele><time>2026-04-24T15:19:07.113Z</time></trkpt><trkpt lat="36.0556606" lon="10.0581151"><ele>99.0</ele><time>2026-04-24T15:19:08.105Z</time></trkpt><trkpt lat="36.0555465" lon="10.0581514"><ele>99.0</ele><time>2026-04-24T15:19:09.101Z</time></trkpt><trkpt lat="36.0554335" lon="10.0581873"><ele>99.0</ele><time>2026-04-24T15:19:10.099Z</time></trkpt><trkpt lat="36.0553185" lon="10.0582228"><ele>99.0</ele><time>2026-04-24T15:19:11.108Z</time></trkpt><trkpt lat="36.0552075" lon="10.0582521"><ele>99.0</ele><time>2026-04-24T15:19:12.115Z</time></trkpt><trkpt lat="36.0550989" lon="10.0582903"><ele>99.0</ele><time>2026-04-24T15:19:13.108Z</time></trkpt><trkpt lat="36.054996" lon="10.0583214"><ele>98.80000000000001</ele><time>2026-04-24T15:19:14.131Z</time></trkpt><trkpt lat="36.0548976" lon="10.0583519"><ele>98.60000000000001</ele><time>2026-04-24T15:19:15.121Z</time></trkpt><trkpt lat="36.0548028" lon="10.0583784"><ele>98.4</ele><time>2026-04-24T15:19:16.119Z</time></trkpt><trkpt lat="36.0547173" lon="10.0583965"><ele>98.2</ele><time>2026-04-24T15:19:17.122Z</time></trkpt><trkpt lat="36.0546377" lon="10.0584187"><ele>98.0</ele><time>2026-04-24T15:19:18.112Z</time></trkpt><trkpt lat="36.0545523" lon="10.0584456"><ele>98.0</ele><time>2026-04-24T15:19:19.112Z</time></trkpt><trkpt lat="36.0544656" lon="10.0584705"><ele>98.0</ele><time>2026-04-24T15:19:20.107Z</time></trkpt><trkpt lat="36.054376" lon="10.0585"><ele>98.0</ele><time>2026-04-24T15:19:21.101Z</time></trkpt><trkpt lat="36.0542726" lon="10.0585355"><ele>98.0</ele><time>2026-04-24T15:19:22.103Z</time></trkpt><trkpt lat="36.0541623" lon="10.0585726"><ele>98.0</ele><time>2026-04-24T15:19:23.11Z</time></trkpt><trkpt lat="36.0540377" lon="10.0586123"><ele>97.66666666666666</ele><time>2026-04-24T15:19:24.119Z</time></trkpt><trkpt lat="36.0538975" lon="10.0586581"><ele>97.33333333333334</ele><time>2026-04-24T15:19:25.099Z</time></trkpt><trkpt lat="36.0537477" lon="10.0586965"><ele>97.0</ele><time>2026-04-24T15:19:26.113Z</time></trkpt><trkpt lat="36.0535928" lon="10.058739"><ele>97.0</ele><time>2026-04-24T15:19:27.114Z</time></trkpt><trkpt lat="36.0534285" lon="10.0587918"><ele>97.0</ele><time>2026-04-24T15:19:28.116Z</time></trkpt><trkpt lat="36.0532541" lon="10.058843"><ele>97.0</ele><time>2026-04-24T15:19:29.106Z</time></trkpt><trkpt lat="36.053082" lon="10.0588969"><ele>97.0</ele><time>2026-04-24T15:19:30.098Z</time></trkpt><trkpt lat="36.0528992" lon="10.0589465"><ele>97.0</ele><time>2026-04-24T15:19:31.13Z</time></trkpt><trkpt lat="36.0527169" lon="10.0590032"><ele>97.0</ele><time>2026-04-24T15:19:32.112Z</time></trkpt><trkpt lat="36.0525372" lon="10.0590536"><ele>97.0</ele><time>2026-04-24T15:19:33.116Z</time></trkpt><trkpt lat="36.0523529" lon="10.059105"><ele>97.0</ele><time>2026-04-24T15:19:34.109Z</time></trkpt><trkpt lat="36.0521619" lon="10.0591612"><ele>97.0</ele><time>2026-04-24T15:19:35.116Z</time></trkpt><trkpt lat="36.0519744" lon="10.0592199"><ele>97.0</ele><time>2026-04-24T15:19:36.127Z</time></trkpt><trkpt lat="36.0517811" lon="10.0592768"><ele>97.0</ele><time>2026-04-24T15:19:37.12Z</time></trkpt><trkpt lat="36.0515849" lon="10.0593343"><ele>97.0</ele><time>2026-04-24T15:19:38.109Z</time></trkpt><trkpt lat="36.0513877" lon="10.0593899"><ele>97.0</ele><time>2026-04-24T15:19:39.1Z</time></trkpt><trkpt lat="36.0511822" lon="10.0594507"><ele>97.0</ele><time>2026-04-24T15:19:40.119Z</time></trkpt><trkpt lat="36.0509831" lon="10.0595142"><ele>97.0</ele><time>2026-04-24T15:19:41.12Z</time></trkpt><trkpt lat="36.050781" lon="10.0595751"><ele>97.0</ele><time>2026-04-24T15:19:42.111Z</time></trkpt><trkpt lat="36.0505806" lon="10.0596372"><ele>97.0</ele><time>2026-04-24T15:19:43.104Z</time></trkpt><trkpt lat="36.0503797" lon="10.0596957"><ele>97.0</ele><time>2026-04-24T15:19:44.121Z</time></trkpt><trkpt lat="36.0501783" lon="10.059753"><ele>97.0</ele><time>2026-04-24T15:19:45.12Z</time></trkpt><trkpt lat="36.0499793" lon="10.0598146"><ele>97.0</ele><time>2026-04-24T15:19:46.113Z</time></trkpt><trkpt lat="36.049781" lon="10.0598801"><ele>97.0</ele><time>2026-04-24T15:19:47.102Z</time></trkpt><trkpt lat="36.0495821" lon="10.0599361"><ele>97.0</ele><time>2026-04-24T15:19:48.106Z</time></trkpt><trkpt lat="36.0493853" lon="10.0599956"><ele>97.0</ele><time>2026-04-24T15:19:49.123Z</time></trkpt><trkpt lat="36.0491953" lon="10.0600508"><ele>97.0</ele><time>2026-04-24T15:19:50.117Z</time></trkpt><trkpt lat="36.0490073" lon="10.060109"><ele>97.0</ele><time>2026-04-24T15:19:51.121Z</time></trkpt><trkpt lat="36.0488237" lon="10.0601642"><ele>97.0</ele><time>2026-04-24T15:19:52.103Z</time></trkpt><trkpt lat="36.0486411" lon="10.0602157"><ele>97.0</ele><time>2026-04-24T15:19:53.11Z</time></trkpt><trkpt lat="36.0484589" lon="10.060267"><ele>97.66666666666667</ele><time>2026-04-24T15:19:54.114Z</time></trkpt><trkpt lat="36.0482728" lon="10.0603278"><ele>98.33333333333334</ele><time>2026-04-24T15:19:55.114Z</time></trkpt><trkpt lat="36.0480935" lon="10.0603815"><ele>99.0</ele><time>2026-04-24T15:19:56.114Z</time></trkpt><trkpt lat="36.0479094" lon="10.0604388"><ele>99.0</ele><time>2026-04-24T15:19:57.101Z</time></trkpt><trkpt lat="36.0477269" lon="10.0604857"><ele>99.0</ele><time>2026-04-24T15:19:58.12Z</time></trkpt><trkpt lat="36.047542" lon="10.0605348"><ele>99.0</ele><time>2026-04-24T15:19:59.117Z</time></trkpt><trkpt lat="36.0473606" lon="10.060582"><ele>99.0</ele><time>2026-04-24T15:20:00.11Z</time></trkpt><trkpt lat="36.0471723" lon="10.0606245"><ele>99.0</ele><time>2026-04-24T15:20:01.107Z</time></trkpt><trkpt lat="36.046984" lon="10.0606606"><ele>99.0</ele><time>2026-04-24T15:20:02.115Z</time></trkpt><trkpt lat="36.0467978" lon="10.0606844"><ele>99.0</ele><time>2026-04-24T15:20:03.107Z</time></trkpt><trkpt lat="36.0466052" lon="10.0606957"><ele>99.0</ele><time>2026-04-24T15:20:04.116Z</time></trkpt><trkpt lat="36.0464142" lon="10.0606929"><ele>99.0</ele><time>2026-04-24T15:20:05.103Z</time></trkpt><trkpt lat="36.0462207" lon="10.0606807"><ele>99.0</ele><time>2026-04-24T15:20:06.118Z</time></trkpt><trkpt lat="36.0460254" lon="10.0606592"><ele>99.0</ele><time>2026-04-24T15:20:07.118Z</time></trkpt><trkpt lat="36.0458368" lon="10.0606262"><ele>99.0</ele><time>2026-04-24T15:20:08.111Z</time></trkpt><trkpt lat="36.0456513" lon="10.0605832"><ele>99.66666666666666</ele><time>2026-04-24T15:20:09.118Z</time></trkpt><trkpt lat="36.0454618" lon="10.0605324"><ele>100.33333333333333</ele><time>2026-04-24T15:20:10.102Z</time></trkpt><trkpt lat="36.0452763" lon="10.0604758"><ele>101.0</ele><time>2026-04-24T15:20:11.106Z</time></trkpt><trkpt lat="36.0450901" lon="10.0604213"><ele>101.33333333333333</ele><time>2026-04-24T15:20:12.127Z</time></trkpt><trkpt lat="36.0449121" lon="10.0603637"><ele>101.66666666666666</ele><time>2026-04-24T15:20:13.115Z</time></trkpt><trkpt lat="36.0447284" lon="10.060308"><ele>102.0</ele><time>2026-04-24T15:20:14.115Z</time></trkpt><trkpt lat="36.0445444" lon="10.0602525"><ele>102.0</ele><time>2026-04-24T15:20:15.108Z</time></trkpt><trkpt lat="36.0443623" lon="10.0601928"><ele>102.0</ele><time>2026-04-24T15:20:16.098Z</time></trkpt><trkpt lat="36.0441875" lon="10.0601378"><ele>102.0</ele><time>2026-04-24T15:20:17.109Z</time></trkpt><trkpt lat="36.044008" lon="10.0600811"><ele>102.66666666666666</ele><time>2026-04-24T15:20:18.122Z</time></trkpt><trkpt lat="36.0438268" lon="10.0600248"><ele>103.33333333333333</ele><time>2026-04-24T15:20:19.099Z</time></trkpt><trkpt lat="36.0436508" lon="10.0599715"><ele>104.0</ele><time>2026-04-24T15:20:20.122Z</time></trkpt><trkpt lat="36.0434799" lon="10.0599165"><ele>104.66666666666666</ele><time>2026-04-24T15:20:21.107Z</time></trkpt><trkpt lat="36.0433123" lon="10.0598589"><ele>105.33333333333334</ele><time>2026-04-24T15:20:22.115Z</time></trkpt><trkpt lat="36.0431472" lon="10.0598038"><ele>106.0</ele><time>2026-04-24T15:20:23.109Z</time></trkpt><trkpt lat="36.0429827" lon="10.0597456"><ele>106.0</ele><time>2026-04-24T15:20:24.121Z</time></trkpt><trkpt lat="36.0428161" lon="10.059697"><ele>106.0</ele><time>2026-04-24T15:20:25.124Z</time></trkpt><trkpt lat="36.042647" lon="10.0596431"><ele>106.0</ele><time>2026-04-24T15:20:26.117Z</time></trkpt><trkpt lat="36.0424824" lon="10.0595922"><ele>106.0</ele><time>2026-04-24T15:20:27.123Z</time></trkpt><trkpt lat="36.0423283" lon="10.0595427"><ele>106.0</ele><time>2026-04-24T15:20:28.109Z</time></trkpt><trkpt lat="36.04218" lon="10.0594916"><ele>106.0</ele><time>2026-04-24T15:20:29.107Z</time></trkpt><trkpt lat="36.0420345" lon="10.0594426"><ele>106.0</ele><time>2026-04-24T15:20:30.121Z</time></trkpt><trkpt lat="36.0418968" lon="10.0594007"><ele>106.0</ele><time>2026-04-24T15:20:31.121Z</time></trkpt><trkpt lat="36.0417505" lon="10.0593593"><ele>106.0</ele><time>2026-04-24T15:20:32.121Z</time></trkpt><trkpt lat="36.0415946" lon="10.0593151"><ele>105.33333333333334</ele><time>2026-04-24T15:20:33.106Z</time></trkpt><trkpt lat="36.0414151" lon="10.0592699"><ele>104.66666666666666</ele><time>2026-04-24T15:20:34.137Z</time></trkpt><trkpt lat="36.0412286" lon="10.0592142"><ele>104.0</ele><time>2026-04-24T15:20:35.116Z</time></trkpt><trkpt lat="36.0410348" lon="10.0591492"><ele>104.66666666666666</ele><time>2026-04-24T15:20:36.132Z</time></trkpt><trkpt lat="36.0408337" lon="10.059071"><ele>105.33333333333334</ele><time>2026-04-24T15:20:37.114Z</time></trkpt><trkpt lat="36.0406319" lon="10.0589917"><ele>106.0</ele><time>2026-04-24T15:20:38.111Z</time></trkpt><trkpt lat="36.0404248" lon="10.0589198"><ele>104.66666666666667</ele><time>2026-04-24T15:20:39.118Z</time></trkpt><trkpt lat="36.0402082" lon="10.0588518"><ele>103.33333333333334</ele><time>2026-04-24T15:20:40.136Z</time></trkpt><trkpt lat="36.039998" lon="10.0587886"><ele>102.0</ele><time>2026-04-24T15:20:41.111Z</time></trkpt><trkpt lat="36.0397904" lon="10.0587246"><ele>101.0</ele><time>2026-04-24T15:20:42.111Z</time></trkpt><trkpt lat="36.0395775" lon="10.0586585"><ele>100.0</ele><time>2026-04-24T15:20:43.118Z</time></trkpt><trkpt lat="36.0393635" lon="10.058593"><ele>99.0</ele><time>2026-04-24T15:20:44.1Z</time></trkpt><trkpt lat="36.0391475" lon="10.0585212"><ele>98.33333333333334</ele><time>2026-04-24T15:20:45.115Z</time></trkpt><trkpt lat="36.0389324" lon="10.0584472"><ele>97.66666666666667</ele><time>2026-04-24T15:20:46.111Z</time></trkpt><trkpt lat="36.0387151" lon="10.0583799"><ele>97.0</ele><time>2026-04-24T15:20:47.098Z</time></trkpt><trkpt lat="36.0385019" lon="10.0583112"><ele>98.0</ele><time>2026-04-24T15:20:48.138Z</time></trkpt><trkpt lat="36.0382915" lon="10.0582441"><ele>99.0</ele><time>2026-04-24T15:20:49.119Z</time></trkpt><trkpt lat="36.0380813" lon="10.0581708"><ele>100.0</ele><time>2026-04-24T15:20:50.109Z</time></trkpt><trkpt lat="36.0378691" lon="10.0581021"><ele>100.0</ele><time>2026-04-24T15:20:51.1Z</time></trkpt><trkpt lat="36.0376556" lon="10.0580402"><ele>100.0</ele><time>2026-04-24T15:20:52.111Z</time></trkpt><trkpt lat="36.0374448" lon="10.057973"><ele>100.0</ele><time>2026-04-24T15:20:53.112Z</time></trkpt><trkpt lat="36.0372319" lon="10.0579027"><ele>99.0</ele><time>2026-04-24T15:20:54.119Z</time></trkpt><trkpt lat="36.0370154" lon="10.0578255"><ele>98.0</ele><time>2026-04-24T15:20:55.118Z</time></trkpt><trkpt lat="36.0368049" lon="10.0577389"><ele>97.0</ele><time>2026-04-24T15:20:56.111Z</time></trkpt><trkpt lat="36.0365911" lon="10.0576407"><ele>96.66666666666667</ele><time>2026-04-24T15:20:57.119Z</time></trkpt><trkpt lat="36.0363902" lon="10.057534"><ele>96.33333333333334</ele><time>2026-04-24T15:20:58.107Z</time></trkpt><trkpt lat="36.0361867" lon="10.0574266"><ele>96.0</ele><time>2026-04-24T15:20:59.121Z</time></trkpt><trkpt lat="36.0359839" lon="10.0573139"><ele>95.0</ele><time>2026-04-24T15:21:00.11Z</time></trkpt><trkpt lat="36.0357803" lon="10.0572078"><ele>94.0</ele><time>2026-04-24T15:21:01.109Z</time></trkpt><trkpt lat="36.0355739" lon="10.0570996"><ele>93.0</ele><time>2026-04-24T15:21:02.113Z</time></trkpt><trkpt lat="36.0353689" lon="10.0569958"><ele>93.0</ele><time>2026-04-24T15:21:03.098Z</time></trkpt><trkpt lat="36.0351657" lon="10.0568955"><ele>93.0</ele><time>2026-04-24T15:21:04.11Z</time></trkpt><trkpt lat="36.034962" lon="10.0567845"><ele>93.0</ele><time>2026-04-24T15:21:05.119Z</time></trkpt><trkpt lat="36.0347548" lon="10.0566753"><ele>93.66666666666667</ele><time>2026-04-24T15:21:06.122Z</time></trkpt><trkpt lat="36.0345483" lon="10.0565665"><ele>94.33333333333334</ele><time>2026-04-24T15:21:07.105Z</time></trkpt><trkpt lat="36.0343488" lon="10.0564627"><ele>95.0</ele><time>2026-04-24T15:21:08.113Z</time></trkpt><trkpt lat="36.0341438" lon="10.0563538"><ele>94.0</ele><time>2026-04-24T15:21:09.119Z</time></trkpt><trkpt lat="36.0339388" lon="10.0562567"><ele>93.0</ele><time>2026-04-24T15:21:10.119Z</time></trkpt><trkpt lat="36.0337315" lon="10.0561502"><ele>92.0</ele><time>2026-04-24T15:21:11.103Z</time></trkpt><trkpt lat="36.0335296" lon="10.0560493"><ele>92.0</ele><time>2026-04-24T15:21:12.125Z</time></trkpt><trkpt lat="36.0333225" lon="10.0559484"><ele>92.0</ele><time>2026-04-24T15:21:13.116Z</time></trkpt><trkpt lat="36.0331186" lon="10.0558394"><ele>92.0</ele><time>2026-04-24T15:21:14.118Z</time></trkpt><trkpt lat="36.0329175" lon="10.0557314"><ele>92.0</ele><time>2026-04-24T15:21:15.101Z</time></trkpt><trkpt lat="36.0327131" lon="10.0556172"><ele>92.0</ele><time>2026-04-24T15:21:16.133Z</time></trkpt><trkpt lat="36.0325083" lon="10.0555014"><ele>92.0</ele><time>2026-04-24T15:21:17.109Z</time></trkpt><trkpt lat="36.0323056" lon="10.0553858"><ele>92.0</ele><time>2026-04-24T15:21:18.105Z</time></trkpt><trkpt lat="36.0321125" lon="10.0552905"><ele>92.0</ele><time>2026-04-24T15:21:19.109Z</time></trkpt><trkpt lat="36.0319352" lon="10.0551935"><ele>92.0</ele><time>2026-04-24T15:21:20.116Z</time></trkpt><trkpt lat="36.0317628" lon="10.0551027"><ele>91.66666666666667</ele><time>2026-04-24T15:21:21.115Z</time></trkpt><trkpt lat="36.0315883" lon="10.0550103"><ele>91.33333333333333</ele><time>2026-04-24T15:21:22.114Z</time></trkpt><trkpt lat="36.0314096" lon="10.0549128"><ele>91.0</ele><time>2026-04-24T15:21:23.1Z</time></trkpt><trkpt lat="36.0312291" lon="10.0548155"><ele>91.33333333333333</ele><time>2026-04-24T15:21:24.121Z</time></trkpt><trkpt lat="36.0310492" lon="10.0547174"><ele>91.66666666666667</ele><time>2026-04-24T15:21:25.126Z</time></trkpt><trkpt lat="36.0308683" lon="10.0546249"><ele>92.0</ele><time>2026-04-24T15:21:26.109Z</time></trkpt><trkpt lat="36.030696" lon="10.0545304"><ele>92.0</ele><time>2026-04-24T15:21:27.118Z</time></trkpt><trkpt lat="36.0305193" lon="10.0544358"><ele>92.0</ele><time>2026-04-24T15:21:28.114Z</time></trkpt><trkpt lat="36.0303469" lon="10.054345"><ele>92.0</ele><time>2026-04-24T15:21:29.101Z</time></trkpt><trkpt lat="36.0301748" lon="10.0542541"><ele>92.0</ele><time>2026-04-24T15:21:30.125Z</time></trkpt><trkpt lat="36.0300049" lon="10.0541654"><ele>92.0</ele><time>2026-04-24T15:21:31.107Z</time></trkpt><trkpt lat="36.0298338" lon="10.0540818"><ele>92.0</ele><time>2026-04-24T15:21:32.116Z</time></trkpt><trkpt lat="36.0296642" lon="10.053996"><ele>92.33333333333334</ele><time>2026-04-24T15:21:33.104Z</time></trkpt><trkpt lat="36.0294944" lon="10.0539085"><ele>92.66666666666667</ele><time>2026-04-24T15:21:34.112Z</time></trkpt><trkpt lat="36.0293276" lon="10.0538227"><ele>93.0</ele><time>2026-04-24T15:21:35.111Z</time></trkpt><trkpt lat="36.0291615" lon="10.053736"><ele>92.0</ele><time>2026-04-24T15:21:36.115Z</time></trkpt><trkpt lat="36.0289925" lon="10.0536448"><ele>91.0</ele><time>2026-04-24T15:21:37.118Z</time></trkpt><trkpt lat="36.0288238" lon="10.0535484"><ele>90.0</ele><time>2026-04-24T15:21:38.112Z</time></trkpt><trkpt lat="36.0286579" lon="10.0534614"><ele>90.0</ele><time>2026-04-24T15:21:39.119Z</time></trkpt><trkpt lat="36.0284907" lon="10.0533772"><ele>90.0</ele><time>2026-04-24T15:21:40.11Z</time></trkpt><trkpt lat="36.0283218" lon="10.0532888"><ele>90.0</ele><time>2026-04-24T15:21:41.123Z</time></trkpt><trkpt lat="36.0281567" lon="10.0532054"><ele>90.33333333333333</ele><time>2026-04-24T15:21:42.122Z</time></trkpt><trkpt lat="36.0279875" lon="10.0531187"><ele>90.66666666666666</ele><time>2026-04-24T15:21:43.105Z</time></trkpt><trkpt lat="36.0278197" lon="10.053031"><ele>91.0</ele><time>2026-04-24T15:21:44.124Z</time></trkpt><trkpt lat="36.0276534" lon="10.0529418"><ele>91.0</ele><time>2026-04-24T15:21:45.115Z</time></trkpt><trkpt lat="36.0274832" lon="10.0528515"><ele>91.0</ele><time>2026-04-24T15:21:46.109Z</time></trkpt><trkpt lat="36.0273176" lon="10.0527615"><ele>91.0</ele><time>2026-04-24T15:21:47.117Z</time></trkpt><trkpt lat="36.0271561" lon="10.0526745"><ele>91.0</ele><time>2026-04-24T15:21:48.12Z</time></trkpt><trkpt lat="36.0269955" lon="10.0525901"><ele>91.0</ele><time>2026-04-24T15:21:49.11Z</time></trkpt><trkpt lat="36.0268307" lon="10.0525025"><ele>91.0</ele><time>2026-04-24T15:21:50.108Z</time></trkpt><trkpt lat="36.0266674" lon="10.0524172"><ele>91.0</ele><time>2026-04-24T15:21:51.104Z</time></trkpt><trkpt lat="36.026501" lon="10.0523331"><ele>91.0</ele><time>2026-04-24T15:21:52.12Z</time></trkpt><trkpt lat="36.0263373" lon="10.0522495"><ele>91.0</ele><time>2026-04-24T15:21:53.104Z</time></trkpt><trkpt lat="36.0261813" lon="10.0521696"><ele>91.0</ele><time>2026-04-24T15:21:54.12Z</time></trkpt><trkpt lat="36.0260215" lon="10.0520861"><ele>91.0</ele><time>2026-04-24T15:21:55.106Z</time></trkpt><trkpt lat="36.0258608" lon="10.0519969"><ele>91.0</ele><time>2026-04-24T15:21:56.126Z</time></trkpt><trkpt lat="36.0256964" lon="10.0519088"><ele>91.0</ele><time>2026-04-24T15:21:57.11Z</time></trkpt><trkpt lat="36.0255329" lon="10.0518249"><ele>91.0</ele><time>2026-04-24T15:21:58.125Z</time></trkpt><trkpt lat="36.0253706" lon="10.0517462"><ele>91.0</ele><time>2026-04-24T15:21:59.122Z</time></trkpt><trkpt lat="36.0252091" lon="10.0516602"><ele>91.33333333333333</ele><time>2026-04-24T15:22:00.098Z</time></trkpt><trkpt lat="36.0250455" lon="10.0515726"><ele>91.66666666666667</ele><time>2026-04-24T15:22:01.111Z</time></trkpt><trkpt lat="36.0248799" lon="10.0514916"><ele>92.0</ele><time>2026-04-24T15:22:02.116Z</time></trkpt><trkpt lat="36.0247129" lon="10.0514041"><ele>92.0</ele><time>2026-04-24T15:22:03.104Z</time></trkpt><trkpt lat="36.0245491" lon="10.051312"><ele>92.0</ele><time>2026-04-24T15:22:04.104Z</time></trkpt><trkpt lat="36.024386" lon="10.051224"><ele>92.0</ele><time>2026-04-24T15:22:05.113Z</time></trkpt><trkpt lat="36.0242256" lon="10.05114"><ele>91.66666666666667</ele><time>2026-04-24T15:22:06.116Z</time></trkpt><trkpt lat="36.0240615" lon="10.051053"><ele>91.33333333333333</ele><time>2026-04-24T15:22:07.107Z</time></trkpt><trkpt lat="36.0238987" lon="10.0509703"><ele>91.0</ele><time>2026-04-24T15:22:08.104Z</time></trkpt><trkpt lat="36.0237366" lon="10.0508916"><ele>91.0</ele><time>2026-04-24T15:22:09.113Z</time></trkpt><trkpt lat="36.0235758" lon="10.0508082"><ele>91.0</ele><time>2026-04-24T15:22:10.11Z</time></trkpt><trkpt lat="36.0234125" lon="10.0507255"><ele>91.0</ele><time>2026-04-24T15:22:11.104Z</time></trkpt><trkpt lat="36.0232491" lon="10.0506388"><ele>91.66666666666666</ele><time>2026-04-24T15:22:12.112Z</time></trkpt><trkpt lat="36.0230833" lon="10.050552"><ele>92.33333333333333</ele><time>2026-04-24T15:22:13.115Z</time></trkpt><trkpt lat="36.0229176" lon="10.0504653"><ele>93.0</ele><time>2026-04-24T15:22:14.111Z</time></trkpt><trkpt lat="36.0227541" lon="10.0503772"><ele>93.0</ele><time>2026-04-24T15:22:15.109Z</time></trkpt><trkpt lat="36.0225883" lon="10.0502847"><ele>93.0</ele><time>2026-04-24T15:22:16.102Z</time></trkpt><trkpt lat="36.0224231" lon="10.0501893"><ele>93.0</ele><time>2026-04-24T15:22:17.116Z</time></trkpt><trkpt lat="36.0222519" lon="10.0500943"><ele>93.0</ele><time>2026-04-24T15:22:18.107Z</time></trkpt><trkpt lat="36.0220731" lon="10.0500048"><ele>93.0</ele><time>2026-04-24T15:22:19.114Z</time></trkpt><trkpt lat="36.0218964" lon="10.0499077"><ele>93.0</ele><time>2026-04-24T15:22:20.122Z</time></trkpt><trkpt lat="36.0217195" lon="10.049813"><ele>92.66666666666667</ele><time>2026-04-24T15:22:21.106Z</time></trkpt><trkpt lat="36.0215429" lon="10.0497187"><ele>92.33333333333334</ele><time>2026-04-24T15:22:22.122Z</time></trkpt><trkpt lat="36.0213682" lon="10.0496242"><ele>92.0</ele><time>2026-04-24T15:22:23.115Z</time></trkpt><trkpt lat="36.0211897" lon="10.0495376"><ele>92.0</ele><time>2026-04-24T15:22:24.106Z</time></trkpt><trkpt lat="36.021017" lon="10.0494561"><ele>92.0</ele><time>2026-04-24T15:22:25.113Z</time></trkpt><trkpt lat="36.0208413" lon="10.049369"><ele>92.0</ele><time>2026-04-24T15:22:26.118Z</time></trkpt><trkpt lat="36.0206699" lon="10.0492801"><ele>91.66666666666667</ele><time>2026-04-24T15:22:27.103Z</time></trkpt><trkpt lat="36.0204953" lon="10.0491858"><ele>91.33333333333333</ele><time>2026-04-24T15:22:28.109Z</time></trkpt><trkpt lat="36.0203204" lon="10.0490973"><ele>91.0</ele><time>2026-04-24T15:22:29.104Z</time></trkpt><trkpt lat="36.0201452" lon="10.0490043"><ele>91.33333333333333</ele><time>2026-04-24T15:22:30.105Z</time></trkpt><trkpt lat="36.019969" lon="10.0489157"><ele>91.66666666666667</ele><time>2026-04-24T15:22:31.099Z</time></trkpt><trkpt lat="36.0197936" lon="10.0488268"><ele>92.0</ele><time>2026-04-24T15:22:32.105Z</time></trkpt><trkpt lat="36.0196203" lon="10.0487343"><ele>92.0</ele><time>2026-04-24T15:22:33.102Z</time></trkpt><trkpt lat="36.0194487" lon="10.0486422"><ele>92.0</ele><time>2026-04-24T15:22:34.101Z</time></trkpt><trkpt lat="36.0192761" lon="10.048546"><ele>92.0</ele><time>2026-04-24T15:22:35.096Z</time></trkpt><trkpt lat="36.0191044" lon="10.0484513"><ele>92.0</ele><time>2026-04-24T15:22:36.137Z</time></trkpt><trkpt lat="36.0189367" lon="10.0483575"><ele>92.0</ele><time>2026-04-24T15:22:37.101Z</time></trkpt><trkpt lat="36.0187681" lon="10.0482637"><ele>92.0</ele><time>2026-04-24T15:22:38.11Z</time></trkpt><trkpt lat="36.0185979" lon="10.0481664"><ele>92.0</ele><time>2026-04-24T15:22:39.103Z</time></trkpt><trkpt lat="36.0184329" lon="10.0480815"><ele>92.0</ele><time>2026-04-24T15:22:40.119Z</time></trkpt><trkpt lat="36.0182674" lon="10.0479963"><ele>92.0</ele><time>2026-04-24T15:22:41.117Z</time></trkpt><trkpt lat="36.0181031" lon="10.0479205"><ele>91.0</ele><time>2026-04-24T15:22:42.104Z</time></trkpt><trkpt lat="36.0179339" lon="10.0478355"><ele>90.0</ele><time>2026-04-24T15:22:43.116Z</time></trkpt><trkpt lat="36.0177674" lon="10.0477483"><ele>89.0</ele><time>2026-04-24T15:22:44.115Z</time></trkpt><trkpt lat="36.0175995" lon="10.0476633"><ele>89.33333333333334</ele><time>2026-04-24T15:22:45.106Z</time></trkpt><trkpt lat="36.0174266" lon="10.0475787"><ele>89.66666666666667</ele><time>2026-04-24T15:22:46.114Z</time></trkpt><trkpt lat="36.0172533" lon="10.0474949"><ele>90.0</ele><time>2026-04-24T15:22:47.106Z</time></trkpt><trkpt lat="36.017081" lon="10.0474032"><ele>90.0</ele><time>2026-04-24T15:22:48.107Z</time></trkpt><trkpt lat="36.0169067" lon="10.0473111"><ele>90.0</ele><time>2026-04-24T15:22:49.122Z</time></trkpt><trkpt lat="36.0167295" lon="10.0472169"><ele>90.0</ele><time>2026-04-24T15:22:50.103Z</time></trkpt><trkpt lat="36.0165566" lon="10.0471256"><ele>90.0</ele><time>2026-04-24T15:22:51.096Z</time></trkpt><trkpt lat="36.0163857" lon="10.0470365"><ele>90.0</ele><time>2026-04-24T15:22:52.111Z</time></trkpt><trkpt lat="36.0162149" lon="10.0469483"><ele>90.0</ele><time>2026-04-24T15:22:53.105Z</time></trkpt><trkpt lat="36.0160416" lon="10.0468591"><ele>90.0</ele><time>2026-04-24T15:22:54.121Z</time></trkpt><trkpt lat="36.015869" lon="10.0467678"><ele>90.0</ele><time>2026-04-24T15:22:55.107Z</time></trkpt><trkpt lat="36.015698" lon="10.0466751"><ele>90.0</ele><time>2026-04-24T15:22:56.096Z</time></trkpt><trkpt lat="36.0155261" lon="10.0465858"><ele>90.33333333333333</ele><time>2026-04-24T15:22:57.099Z</time></trkpt><trkpt lat="36.0153573" lon="10.0464953"><ele>90.66666666666666</ele><time>2026-04-24T15:22:58.12Z</time></trkpt><trkpt lat="36.0151865" lon="10.0464113"><ele>91.0</ele><time>2026-04-24T15:22:59.124Z</time></trkpt><trkpt lat="36.0150164" lon="10.0463272"><ele>90.66666666666666</ele><time>2026-04-24T15:23:00.098Z</time></trkpt><trkpt lat="36.0148436" lon="10.046238"><ele>90.33333333333333</ele><time>2026-04-24T15:23:01.096Z</time></trkpt><trkpt lat="36.0146723" lon="10.0461455"><ele>90.0</ele><time>2026-04-24T15:23:02.108Z</time></trkpt><trkpt lat="36.0145051" lon="10.0460483"><ele>90.0</ele><time>2026-04-24T15:23:03.107Z</time></trkpt><trkpt lat="36.0143384" lon="10.0459562"><ele>90.0</ele><time>2026-04-24T15:23:04.119Z</time></trkpt><trkpt lat="36.0141687" lon="10.0458592"><ele>90.0</ele><time>2026-04-24T15:23:05.112Z</time></trkpt><trkpt lat="36.0140046" lon="10.045768"><ele>90.33333333333333</ele><time>2026-04-24T15:23:06.101Z</time></trkpt><trkpt lat="36.0138391" lon="10.0456875"><ele>90.66666666666666</ele><time>2026-04-24T15:23:07.104Z</time></trkpt><trkpt lat="36.0136763" lon="10.0456026"><ele>91.0</ele><time>2026-04-24T15:23:08.116Z</time></trkpt><trkpt lat="36.0135119" lon="10.0455139"><ele>91.0</ele><time>2026-04-24T15:23:09.121Z</time></trkpt><trkpt lat="36.013347" lon="10.045424"><ele>91.0</ele><time>2026-04-24T15:23:10.103Z</time></trkpt><trkpt lat="36.0131818" lon="10.0453363"><ele>91.0</ele><time>2026-04-24T15:23:11.125Z</time></trkpt><trkpt lat="36.0130134" lon="10.0452482"><ele>91.66666666666666</ele><time>2026-04-24T15:23:12.117Z</time></trkpt><trkpt lat="36.0128494" lon="10.0451637"><ele>92.33333333333333</ele><time>2026-04-24T15:23:13.115Z</time></trkpt><trkpt lat="36.0126826" lon="10.0450826"><ele>93.0</ele><time>2026-04-24T15:23:14.119Z</time></trkpt><trkpt lat="36.0125172" lon="10.0449977"><ele>93.0</ele><time>2026-04-24T15:23:15.114Z</time></trkpt><trkpt lat="36.0123564" lon="10.0449168"><ele>93.0</ele><time>2026-04-24T15:23:16.132Z</time></trkpt><trkpt lat="36.012192" lon="10.0448283"><ele>93.0</ele><time>2026-04-24T15:23:17.11Z</time></trkpt><trkpt lat="36.0120266" lon="10.0447366"><ele>93.0</ele><time>2026-04-24T15:23:18.102Z</time></trkpt><trkpt lat="36.0118599" lon="10.0446391"><ele>93.0</ele><time>2026-04-24T15:23:19.116Z</time></trkpt><trkpt lat="36.011693" lon="10.0445496"><ele>93.0</ele><time>2026-04-24T15:23:20.115Z</time></trkpt><trkpt lat="36.0115217" lon="10.0444622"><ele>93.0</ele><time>2026-04-24T15:23:21.117Z</time></trkpt><trkpt lat="36.0113532" lon="10.0443775"><ele>93.0</ele><time>2026-04-24T15:23:22.101Z</time></trkpt><trkpt lat="36.0111904" lon="10.0442931"><ele>93.0</ele><time>2026-04-24T15:23:23.116Z</time></trkpt><trkpt lat="36.0110229" lon="10.0442017"><ele>93.0</ele><time>2026-04-24T15:23:24.106Z</time></trkpt><trkpt lat="36.0108541" lon="10.0441098"><ele>93.0</ele><time>2026-04-24T15:23:25.113Z</time></trkpt><trkpt lat="36.0106893" lon="10.0440212"><ele>93.0</ele><time>2026-04-24T15:23:26.118Z</time></trkpt><trkpt lat="36.0105277" lon="10.0439355"><ele>93.0</ele><time>2026-04-24T15:23:27.117Z</time></trkpt><trkpt lat="36.0103588" lon="10.0438493"><ele>93.0</ele><time>2026-04-24T15:23:28.112Z</time></trkpt><trkpt lat="36.0101968" lon="10.043765"><ele>93.0</ele><time>2026-04-24T15:23:29.104Z</time></trkpt><trkpt lat="36.0100284" lon="10.043671"><ele>93.0</ele><time>2026-04-24T15:23:30.205Z</time></trkpt><trkpt lat="36.0096685" lon="10.04349"><ele>93.0</ele><time>2026-04-24T15:23:32.108Z</time></trkpt><trkpt lat="36.0094918" lon="10.0434026"><ele>93.0</ele><time>2026-04-24T15:23:33.094Z</time></trkpt><trkpt lat="36.0093213" lon="10.0433168"><ele>93.0</ele><time>2026-04-24T15:23:34.111Z</time></trkpt><trkpt lat="36.0091532" lon="10.0432282"><ele>93.0</ele><time>2026-04-24T15:23:35.117Z</time></trkpt><trkpt lat="36.0089865" lon="10.0431411"><ele>93.0</ele><time>2026-04-24T15:23:36.118Z</time></trkpt><trkpt lat="36.0088193" lon="10.0430575"><ele>93.0</ele><time>2026-04-24T15:23:37.107Z</time></trkpt><trkpt lat="36.0086548" lon="10.0429686"><ele>93.0</ele><time>2026-04-24T15:23:38.111Z</time></trkpt><trkpt lat="36.0084951" lon="10.042883"><ele>93.0</ele><time>2026-04-24T15:23:39.106Z</time></trkpt><trkpt lat="36.0083342" lon="10.0427985"><ele>93.0</ele><time>2026-04-24T15:23:40.11Z</time></trkpt><trkpt lat="36.0081802" lon="10.0427179"><ele>93.0</ele><time>2026-04-24T15:23:41.104Z</time></trkpt><trkpt lat="36.0080336" lon="10.0426382"><ele>93.25</ele><time>2026-04-24T15:23:42.117Z</time></trkpt><trkpt lat="36.007889" lon="10.042563"><ele>93.5</ele><time>2026-04-24T15:23:43.093Z</time></trkpt><trkpt lat="36.007766" lon="10.042497"><ele>93.75</ele><time>2026-04-24T15:23:44.117Z</time></trkpt><trkpt lat="36.0076572" lon="10.0424361"><ele>94.0</ele><time>2026-04-24T15:23:45.1Z</time></trkpt><trkpt lat="36.0075631" lon="10.0423853"><ele>94.33333333333333</ele><time>2026-04-24T15:23:46.1Z</time></trkpt><trkpt lat="36.0074774" lon="10.0423441"><ele>94.66666666666666</ele><time>2026-04-24T15:23:47.09Z</time></trkpt><trkpt lat="36.0073983" lon="10.0423053"><ele>95.0</ele><time>2026-04-24T15:23:48.116Z</time></trkpt><trkpt lat="36.0073272" lon="10.0422745"><ele>95.33333333333333</ele><time>2026-04-24T15:23:49.124Z</time></trkpt><trkpt lat="36.0072636" lon="10.0422461"><ele>95.66666666666667</ele><time>2026-04-24T15:23:50.113Z</time></trkpt><trkpt lat="36.0071636" lon="10.0421958"><ele>96.0</ele><time>2026-04-24T15:23:52.105Z</time></trkpt><trkpt lat="36.0070808" lon="10.0421488"><ele>96.0</ele><time>2026-04-24T15:23:54.114Z</time></trkpt><trkpt lat="36.0069932" lon="10.0420975"><ele>96.0</ele><time>2026-04-24T15:23:56.109Z</time></trkpt><trkpt lat="36.0068936" lon="10.0420384"><ele>96.0</ele><time>2026-04-24T15:23:58.099Z</time></trkpt><trkpt lat="36.006835" lon="10.0420067"><ele>96.0</ele><time>2026-04-24T15:23:59.114Z</time></trkpt><trkpt lat="36.0067725" lon="10.0419702"><ele>96.0</ele><time>2026-04-24T15:24:00.092Z</time></trkpt><trkpt lat="36.0066679" lon="10.0419184"><ele>95.83333333333333</ele><time>2026-04-24T15:24:02.105Z</time></trkpt><trkpt lat="36.0066016" lon="10.0418835"><ele>95.66666666666667</ele><time>2026-04-24T15:24:04.107Z</time></trkpt><trkpt lat="36.0065393" lon="10.0418491"><ele>95.5</ele><time>2026-04-24T15:24:06.108Z</time></trkpt><trkpt lat="36.0064792" lon="10.0418096"><ele>95.33333333333334</ele><time>2026-04-24T15:24:08.114Z</time></trkpt><trkpt lat="36.006408" lon="10.0417759"><ele>95.16666666666667</ele><time>2026-04-24T15:24:10.103Z</time></trkpt><trkpt lat="36.0063182" lon="10.0417342"><ele>95.0</ele><time>2026-04-24T15:24:12.122Z</time></trkpt><trkpt lat="36.0062298" lon="10.0416803"><ele>95.0</ele><time>2026-04-24T15:24:14.11Z</time></trkpt><trkpt lat="36.006133" lon="10.0416249"><ele>95.0</ele><time>2026-04-24T15:24:16.12Z</time></trkpt><trkpt lat="36.0060734" lon="10.0415912"><ele>95.0</ele><time>2026-04-24T15:24:17.119Z</time></trkpt><trkpt lat="36.0060098" lon="10.0415586"><ele>95.0</ele><time>2026-04-24T15:24:18.098Z</time></trkpt><trkpt lat="36.0059444" lon="10.0415289"><ele>95.0</ele><time>2026-04-24T15:24:19.114Z</time></trkpt><trkpt lat="36.0058707" lon="10.0414949"><ele>95.0</ele><time>2026-04-24T15:24:20.133Z</time></trkpt><trkpt lat="36.0057952" lon="10.0414521"><ele>94.8</ele><time>2026-04-24T15:24:21.118Z</time></trkpt><trkpt lat="36.0057147" lon="10.0414073"><ele>94.6</ele><time>2026-04-24T15:24:22.107Z</time></trkpt><trkpt lat="36.005624" lon="10.0413576"><ele>94.4</ele><time>2026-04-24T15:24:23.115Z</time></trkpt><trkpt lat="36.0055302" lon="10.0413108"><ele>94.2</ele><time>2026-04-24T15:24:24.119Z</time></trkpt><trkpt lat="36.0054335" lon="10.0412545"><ele>94.0</ele><time>2026-04-24T15:24:25.123Z</time></trkpt><trkpt lat="36.005326" lon="10.0411962"><ele>94.0</ele><time>2026-04-24T15:24:26.116Z</time></trkpt><trkpt lat="36.0052182" lon="10.0411314"><ele>94.0</ele><time>2026-04-24T15:24:27.112Z</time></trkpt><trkpt lat="36.0051075" lon="10.0410682"><ele>94.0</ele><time>2026-04-24T15:24:28.103Z</time></trkpt><trkpt lat="36.0049953" lon="10.0410028"><ele>94.0</ele><time>2026-04-24T15:24:29.139Z</time></trkpt><trkpt lat="36.0048708" lon="10.0409433"><ele>93.75</ele><time>2026-04-24T15:24:30.101Z</time></trkpt><trkpt lat="36.0047441" lon="10.0408781"><ele>93.5</ele><time>2026-04-24T15:24:31.095Z</time></trkpt><trkpt lat="36.0046196" lon="10.0408091"><ele>93.25</ele><time>2026-04-24T15:24:32.109Z</time></trkpt><trkpt lat="36.004496" lon="10.0407419"><ele>93.0</ele><time>2026-04-24T15:24:33.113Z</time></trkpt><trkpt lat="36.0043719" lon="10.0406759"><ele>92.75</ele><time>2026-04-24T15:24:34.107Z</time></trkpt><trkpt lat="36.0042487" lon="10.0406112"><ele>92.5</ele><time>2026-04-24T15:24:35.098Z</time></trkpt><trkpt lat="36.0041209" lon="10.0405454"><ele>92.25</ele><time>2026-04-24T15:24:36.103Z</time></trkpt><trkpt lat="36.003993" lon="10.0404739"><ele>92.0</ele><time>2026-04-24T15:24:37.105Z</time></trkpt><trkpt lat="36.0038654" lon="10.0404061"><ele>91.75</ele><time>2026-04-24T15:24:38.122Z</time></trkpt><trkpt lat="36.0037351" lon="10.0403335"><ele>91.5</ele><time>2026-04-24T15:24:39.114Z</time></trkpt><trkpt lat="36.0036084" lon="10.0402624"><ele>91.25</ele><time>2026-04-24T15:24:40.114Z</time></trkpt><trkpt lat="36.0034784" lon="10.0401949"><ele>91.0</ele><time>2026-04-24T15:24:41.107Z</time></trkpt><trkpt lat="36.0033484" lon="10.0401293"><ele>90.25</ele><time>2026-04-24T15:24:42.123Z</time></trkpt><trkpt lat="36.0032161" lon="10.0400621"><ele>89.5</ele><time>2026-04-24T15:24:43.121Z</time></trkpt><trkpt lat="36.0030824" lon="10.039995"><ele>88.75</ele><time>2026-04-24T15:24:44.105Z</time></trkpt><trkpt lat="36.0029476" lon="10.0399218"><ele>88.0</ele><time>2026-04-24T15:24:45.104Z</time></trkpt><trkpt lat="36.0028149" lon="10.0398456"><ele>88.0</ele><time>2026-04-24T15:24:46.121Z</time></trkpt><trkpt lat="36.0026831" lon="10.0397761"><ele>88.0</ele><time>2026-04-24T15:24:47.099Z</time></trkpt><trkpt lat="36.0025478" lon="10.0397012"><ele>88.0</ele><time>2026-04-24T15:24:48.114Z</time></trkpt><trkpt lat="36.0024119" lon="10.0396267"><ele>88.0</ele><time>2026-04-24T15:24:49.105Z</time></trkpt><trkpt lat="36.0022728" lon="10.0395567"><ele>88.0</ele><time>2026-04-24T15:24:50.119Z</time></trkpt><trkpt lat="36.0021329" lon="10.0394865"><ele>88.0</ele><time>2026-04-24T15:24:51.12Z</time></trkpt><trkpt lat="36.0020007" lon="10.0394176"><ele>88.0</ele><time>2026-04-24T15:24:52.116Z</time></trkpt><trkpt lat="36.001867" lon="10.0393488"><ele>88.0</ele><time>2026-04-24T15:24:53.112Z</time></trkpt><trkpt lat="36.0017331" lon="10.0392869"><ele>88.5</ele><time>2026-04-24T15:24:54.111Z</time></trkpt><trkpt lat="36.0016034" lon="10.0392155"><ele>89.0</ele><time>2026-04-24T15:24:55.125Z</time></trkpt><trkpt lat="36.0014714" lon="10.0391513"><ele>89.5</ele><time>2026-04-24T15:24:56.124Z</time></trkpt><trkpt lat="36.0013385" lon="10.03908"><ele>90.0</ele><time>2026-04-24T15:24:57.117Z</time></trkpt><trkpt lat="36.0011934" lon="10.039005"><ele>90.33333333333333</ele><time>2026-04-24T15:24:58.118Z</time></trkpt><trkpt lat="36.0010495" lon="10.0389317"><ele>90.66666666666666</ele><time>2026-04-24T15:24:59.104Z</time></trkpt><trkpt lat="36.0009057" lon="10.0388542"><ele>91.0</ele><time>2026-04-24T15:25:00.104Z</time></trkpt><trkpt lat="36.0007555" lon="10.0387709"><ele>91.33333333333333</ele><time>2026-04-24T15:25:01.114Z</time></trkpt><trkpt lat="36.000609" lon="10.0386912"><ele>91.66666666666667</ele><time>2026-04-24T15:25:02.125Z</time></trkpt><trkpt lat="36.0004612" lon="10.0386109"><ele>92.0</ele><time>2026-04-24T15:25:03.106Z</time></trkpt><trkpt lat="36.0003122" lon="10.0385356"><ele>92.0</ele><time>2026-04-24T15:25:04.114Z</time></trkpt><trkpt lat="36.0001636" lon="10.0384621"><ele>92.0</ele><time>2026-04-24T15:25:05.131Z</time></trkpt><trkpt lat="36.0000156" lon="10.038388"><ele>92.0</ele><time>2026-04-24T15:25:06.112Z</time></trkpt><trkpt lat="35.9998622" lon="10.0383055"><ele>92.0</ele><time>2026-04-24T15:25:07.115Z</time></trkpt><trkpt lat="35.9997035" lon="10.0382235"><ele>92.0</ele><time>2026-04-24T15:25:08.102Z</time></trkpt><trkpt lat="35.9995465" lon="10.0381426"><ele>92.0</ele><time>2026-04-24T15:25:09.118Z</time></trkpt><trkpt lat="35.9993849" lon="10.0380637"><ele>92.0</ele><time>2026-04-24T15:25:10.111Z</time></trkpt><trkpt lat="35.9992229" lon="10.0379817"><ele>92.0</ele><time>2026-04-24T15:25:11.116Z</time></trkpt><trkpt lat="35.9990609" lon="10.0378989"><ele>92.0</ele><time>2026-04-24T15:25:12.116Z</time></trkpt><trkpt lat="35.9988957" lon="10.0378087"><ele>92.33333333333334</ele><time>2026-04-24T15:25:13.105Z</time></trkpt><trkpt lat="35.9987298" lon="10.0377234"><ele>92.66666666666667</ele><time>2026-04-24T15:25:14.113Z</time></trkpt><trkpt lat="35.9985661" lon="10.0376345"><ele>93.0</ele><time>2026-04-24T15:25:15.107Z</time></trkpt><trkpt lat="35.9984065" lon="10.0375517"><ele>93.33333333333333</ele><time>2026-04-24T15:25:16.114Z</time></trkpt><trkpt lat="35.9982501" lon="10.0374719"><ele>93.66666666666666</ele><time>2026-04-24T15:25:17.105Z</time></trkpt><trkpt lat="35.9980929" lon="10.0373984"><ele>94.0</ele><time>2026-04-24T15:25:18.124Z</time></trkpt><trkpt lat="35.9979303" lon="10.0373303"><ele>94.33333333333333</ele><time>2026-04-24T15:25:19.104Z</time></trkpt><trkpt lat="35.9977678" lon="10.0372759"><ele>94.66666666666667</ele><time>2026-04-24T15:25:20.114Z</time></trkpt><trkpt lat="35.9976031" lon="10.0372333"><ele>95.0</ele><time>2026-04-24T15:25:21.11Z</time></trkpt><trkpt lat="35.9974379" lon="10.0371936"><ele>95.0</ele><time>2026-04-24T15:25:22.102Z</time></trkpt><trkpt lat="35.9972695" lon="10.0371617"><ele>95.0</ele><time>2026-04-24T15:25:23.102Z</time></trkpt><trkpt lat="35.9970939" lon="10.0371365"><ele>95.0</ele><time>2026-04-24T15:25:24.115Z</time></trkpt><trkpt lat="35.9969232" lon="10.0371127"><ele>95.0</ele><time>2026-04-24T15:25:25.1Z</time></trkpt><trkpt lat="35.9967477" lon="10.0371039"><ele>95.0</ele><time>2026-04-24T15:25:26.102Z</time></trkpt><trkpt lat="35.9965824" lon="10.037099"><ele>95.0</ele><time>2026-04-24T15:25:27.111Z</time></trkpt><trkpt lat="35.9964095" lon="10.0370978"><ele>95.33333333333334</ele><time>2026-04-24T15:25:28.113Z</time></trkpt><trkpt lat="35.9962359" lon="10.0370958"><ele>95.66666666666667</ele><time>2026-04-24T15:25:29.112Z</time></trkpt><trkpt lat="35.9960664" lon="10.0370931"><ele>96.0</ele><time>2026-04-24T15:25:30.111Z</time></trkpt><trkpt lat="35.995895" lon="10.0370851"><ele>95.0</ele><time>2026-04-24T15:25:31.119Z</time></trkpt><trkpt lat="35.9957282" lon="10.0370819"><ele>94.0</ele><time>2026-04-24T15:25:32.126Z</time></trkpt><trkpt lat="35.9955625" lon="10.0370723"><ele>93.0</ele><time>2026-04-24T15:25:33.118Z</time></trkpt><trkpt lat="35.9953946" lon="10.0370635"><ele>93.0</ele><time>2026-04-24T15:25:34.136Z</time></trkpt><trkpt lat="35.9952304" lon="10.0370529"><ele>93.0</ele><time>2026-04-24T15:25:35.106Z</time></trkpt><trkpt lat="35.9950636" lon="10.0370446"><ele>93.0</ele><time>2026-04-24T15:25:36.137Z</time></trkpt><trkpt lat="35.9948963" lon="10.0370358"><ele>93.0</ele><time>2026-04-24T15:25:37.144Z</time></trkpt><trkpt lat="35.9947313" lon="10.0370278"><ele>93.0</ele><time>2026-04-24T15:25:38.116Z</time></trkpt><trkpt lat="35.9945623" lon="10.0370228"><ele>93.0</ele><time>2026-04-24T15:25:39.1Z</time></trkpt><trkpt lat="35.9943996" lon="10.0370101"><ele>93.0</ele><time>2026-04-24T15:25:40.093Z</time></trkpt><trkpt lat="35.994241" lon="10.0370001"><ele>93.0</ele><time>2026-04-24T15:25:41.112Z</time></trkpt><trkpt lat="35.9940848" lon="10.0369912"><ele>93.0</ele><time>2026-04-24T15:25:42.117Z</time></trkpt><trkpt lat="35.9939283" lon="10.0369874"><ele>93.66666666666667</ele><time>2026-04-24T15:25:43.089Z</time></trkpt><trkpt lat="35.9937753" lon="10.0369843"><ele>94.33333333333334</ele><time>2026-04-24T15:25:44.097Z</time></trkpt><trkpt lat="35.993617" lon="10.0369779"><ele>95.0</ele><time>2026-04-24T15:25:45.131Z</time></trkpt><trkpt lat="35.9934643" lon="10.0369762"><ele>95.0</ele><time>2026-04-24T15:25:46.115Z</time></trkpt><trkpt lat="35.9933225" lon="10.036971"><ele>95.0</ele><time>2026-04-24T15:25:47.104Z</time></trkpt><trkpt lat="35.9931753" lon="10.0369654"><ele>95.0</ele><time>2026-04-24T15:25:48.105Z</time></trkpt><trkpt lat="35.9930331" lon="10.0369576"><ele>95.0</ele><time>2026-04-24T15:25:49.108Z</time></trkpt><trkpt lat="35.9928927" lon="10.0369477"><ele>95.0</ele><time>2026-04-24T15:25:50.112Z</time></trkpt><trkpt lat="35.9927496" lon="10.036939"><ele>95.0</ele><time>2026-04-24T15:25:51.109Z</time></trkpt><trkpt lat="35.9926069" lon="10.0369381"><ele>95.0</ele><time>2026-04-24T15:25:52.116Z</time></trkpt><trkpt lat="35.9924606" lon="10.0369316"><ele>95.0</ele><time>2026-04-24T15:25:53.1Z</time></trkpt><trkpt lat="35.9923192" lon="10.0369261"><ele>95.25</ele><time>2026-04-24T15:25:54.124Z</time></trkpt><trkpt lat="35.9921822" lon="10.0369201"><ele>95.5</ele><time>2026-04-24T15:25:55.122Z</time></trkpt><trkpt lat="35.9920535" lon="10.0369168"><ele>95.75</ele><time>2026-04-24T15:25:56.109Z</time></trkpt><trkpt lat="35.991927" lon="10.0369172"><ele>96.0</ele><time>2026-04-24T15:25:57.106Z</time></trkpt><trkpt lat="35.9918064" lon="10.0369079"><ele>96.0</ele><time>2026-04-24T15:25:58.109Z</time></trkpt><trkpt lat="35.9916942" lon="10.0369012"><ele>96.0</ele><time>2026-04-24T15:25:59.103Z</time></trkpt><trkpt lat="35.9915879" lon="10.0368904"><ele>96.0</ele><time>2026-04-24T15:26:00.101Z</time></trkpt><trkpt lat="35.991485" lon="10.0368868"><ele>96.0</ele><time>2026-04-24T15:26:01.115Z</time></trkpt><trkpt lat="35.9913883" lon="10.0368807"><ele>96.0</ele><time>2026-04-24T15:26:02.11Z</time></trkpt><trkpt lat="35.9912878" lon="10.0368747"><ele>95.83333333333333</ele><time>2026-04-24T15:26:03.112Z</time></trkpt><trkpt lat="35.991192" lon="10.0368729"><ele>95.66666666666667</ele><time>2026-04-24T15:26:04.103Z</time></trkpt><trkpt lat="35.9910967" lon="10.03687"><ele>95.5</ele><time>2026-04-24T15:26:05.094Z</time></trkpt><trkpt lat="35.9910076" lon="10.0368659"><ele>95.33333333333334</ele><time>2026-04-24T15:26:06.117Z</time></trkpt><trkpt lat="35.9909239" lon="10.0368628"><ele>95.16666666666667</ele><time>2026-04-24T15:26:07.104Z</time></trkpt><trkpt lat="35.9908553" lon="10.0368657"><ele>95.0</ele><time>2026-04-24T15:26:08.115Z</time></trkpt><trkpt lat="35.9907544" lon="10.036862"><ele>95.0</ele><time>2026-04-24T15:26:10.119Z</time></trkpt><trkpt lat="35.9906551" lon="10.0368587"><ele>95.0</ele><time>2026-04-24T15:26:12.117Z</time></trkpt><trkpt lat="35.9905653" lon="10.0368561"><ele>95.0</ele><time>2026-04-24T15:26:14.101Z</time></trkpt><trkpt lat="35.9904636" lon="10.0368483"><ele>95.0</ele><time>2026-04-24T15:26:16.109Z</time></trkpt><trkpt lat="35.9903471" lon="10.0368357"><ele>95.0</ele><time>2026-04-24T15:26:18.131Z</time></trkpt><trkpt lat="35.9902331" lon="10.0368341"><ele>95.0</ele><time>2026-04-24T15:26:20.117Z</time></trkpt><trkpt lat="35.9901062" lon="10.0368278"><ele>95.0</ele><time>2026-04-24T15:26:22.12Z</time></trkpt><trkpt lat="35.9900354" lon="10.0368214"><ele>95.0</ele><time>2026-04-24T15:26:23.116Z</time></trkpt><trkpt lat="35.9899639" lon="10.0368143"><ele>95.0</ele><time>2026-04-24T15:26:24.114Z</time></trkpt><trkpt lat="35.9898945" lon="10.0368077"><ele>95.0</ele><time>2026-04-24T15:26:25.116Z</time></trkpt><trkpt lat="35.9898169" lon="10.0368087"><ele>95.0</ele><time>2026-04-24T15:26:26.108Z</time></trkpt><trkpt lat="35.9897371" lon="10.0368059"><ele>94.66666666666667</ele><time>2026-04-24T15:26:27.097Z</time></trkpt><trkpt lat="35.989655" lon="10.0368001"><ele>94.33333333333334</ele><time>2026-04-24T15:26:28.112Z</time></trkpt><trkpt lat="35.9895609" lon="10.0368"><ele>94.0</ele><time>2026-04-24T15:26:29.111Z</time></trkpt><trkpt lat="35.9894681" lon="10.0367945"><ele>93.66666666666667</ele><time>2026-04-24T15:26:30.109Z</time></trkpt><trkpt lat="35.9893821" lon="10.0367902"><ele>93.33333333333333</ele><time>2026-04-24T15:26:31.121Z</time></trkpt><trkpt lat="35.9893006" lon="10.0367827"><ele>93.0</ele><time>2026-04-24T15:26:32.115Z</time></trkpt><trkpt lat="35.9892213" lon="10.036774"><ele>92.66666666666667</ele><time>2026-04-24T15:26:33.116Z</time></trkpt><trkpt lat="35.9891477" lon="10.0367748"><ele>92.33333333333333</ele><time>2026-04-24T15:26:34.11Z</time></trkpt><trkpt lat="35.9890683" lon="10.0367727"><ele>92.0</ele><time>2026-04-24T15:26:35.098Z</time></trkpt><trkpt lat="35.9890034" lon="10.036765"><ele>91.66666666666666</ele><time>2026-04-24T15:26:36.115Z</time></trkpt><trkpt lat="35.9888903" lon="10.036763"><ele>91.33333333333333</ele><time>2026-04-24T15:26:38.103Z</time></trkpt><trkpt lat="35.9888087" lon="10.0367687"><ele>91.0</ele><time>2026-04-24T15:26:40.114Z</time></trkpt><trkpt lat="35.9887359" lon="10.0367648"><ele>91.0</ele><time>2026-04-24T15:26:42.126Z</time></trkpt><trkpt lat="35.9886661" lon="10.0367616"><ele>91.0</ele><time>2026-04-24T15:26:44.112Z</time></trkpt><trkpt lat="35.9885718" lon="10.0367478"><ele>91.0</ele><time>2026-04-24T15:26:46.103Z</time></trkpt><trkpt lat="35.9885065" lon="10.0367499"><ele>91.0</ele><time>2026-04-24T15:26:47.119Z</time></trkpt><trkpt lat="35.9884365" lon="10.0367478"><ele>91.0</ele><time>2026-04-24T15:26:48.129Z</time></trkpt><trkpt lat="35.9883634" lon="10.0367438"><ele>91.0</ele><time>2026-04-24T15:26:49.097Z</time></trkpt><trkpt lat="35.9882937" lon="10.0367447"><ele>91.0</ele><time>2026-04-24T15:26:50.114Z</time></trkpt><trkpt lat="35.9882215" lon="10.0367401"><ele>91.0</ele><time>2026-04-24T15:26:51.117Z</time></trkpt><trkpt lat="35.9881498" lon="10.036737"><ele>91.0</ele><time>2026-04-24T15:26:52.132Z</time></trkpt><trkpt lat="35.9880789" lon="10.036734"><ele>91.0</ele><time>2026-04-24T15:26:53.109Z</time></trkpt><trkpt lat="35.9880088" lon="10.0367318"><ele>91.0</ele><time>2026-04-24T15:26:54.111Z</time></trkpt><trkpt lat="35.9879348" lon="10.0367268"><ele>91.0</ele><time>2026-04-24T15:26:55.131Z</time></trkpt><trkpt lat="35.9878578" lon="10.0367239"><ele>91.0</ele><time>2026-04-24T15:26:56.132Z</time></trkpt><trkpt lat="35.9877825" lon="10.0367208"><ele>91.0</ele><time>2026-04-24T15:26:57.116Z</time></trkpt><trkpt lat="35.9877181" lon="10.0367203"><ele>91.0</ele><time>2026-04-24T15:26:58.114Z</time></trkpt><trkpt lat="35.9875978" lon="10.0367161"><ele>91.0</ele><time>2026-04-24T15:27:00.115Z</time></trkpt><trkpt lat="35.9874874" lon="10.0367091"><ele>91.0</ele><time>2026-04-24T15:27:02.115Z</time></trkpt><trkpt lat="35.9873827" lon="10.0367024"><ele>91.0</ele><time>2026-04-24T15:27:04.123Z</time></trkpt><trkpt lat="35.9872706" lon="10.0367043"><ele>91.0</ele><time>2026-04-24T15:27:06.113Z</time></trkpt><trkpt lat="35.9871867" lon="10.0367039"><ele>91.0</ele><time>2026-04-24T15:27:07.105Z</time></trkpt><trkpt lat="35.9870896" lon="10.0366995"><ele>91.0</ele><time>2026-04-24T15:27:08.118Z</time></trkpt><trkpt lat="35.9869827" lon="10.0366902"><ele>91.0</ele><time>2026-04-24T15:27:09.112Z</time></trkpt><trkpt lat="35.9868658" lon="10.0366868"><ele>91.0</ele><time>2026-04-24T15:27:10.113Z</time></trkpt><trkpt lat="35.9867451" lon="10.0366851"><ele>91.0</ele><time>2026-04-24T15:27:11.11Z</time></trkpt><trkpt lat="35.9866192" lon="10.0366779"><ele>91.25</ele><time>2026-04-24T15:27:12.106Z</time></trkpt><trkpt lat="35.9864868" lon="10.0366727"><ele>91.5</ele><time>2026-04-24T15:27:13.117Z</time></trkpt><trkpt lat="35.9863569" lon="10.0366662"><ele>91.75</ele><time>2026-04-24T15:27:14.117Z</time></trkpt><trkpt lat="35.9862357" lon="10.0366603"><ele>92.0</ele><time>2026-04-24T15:27:15.104Z</time></trkpt><trkpt lat="35.9861154" lon="10.0366541"><ele>92.0</ele><time>2026-04-24T15:27:16.099Z</time></trkpt><trkpt lat="35.9860059" lon="10.036657"><ele>92.0</ele><time>2026-04-24T15:27:17.111Z</time></trkpt><trkpt lat="35.9858904" lon="10.0366541"><ele>92.0</ele><time>2026-04-24T15:27:18.12Z</time></trkpt><trkpt lat="35.9857793" lon="10.0366477"><ele>92.0</ele><time>2026-04-24T15:27:19.103Z</time></trkpt><trkpt lat="35.9856664" lon="10.0366413"><ele>92.0</ele><time>2026-04-24T15:27:20.108Z</time></trkpt><trkpt lat="35.9855522" lon="10.0366354"><ele>92.5</ele><time>2026-04-24T15:27:21.121Z</time></trkpt><trkpt lat="35.9854399" lon="10.0366273"><ele>93.0</ele><time>2026-04-24T15:27:22.101Z</time></trkpt><trkpt lat="35.9853214" lon="10.0366214"><ele>93.5</ele><time>2026-04-24T15:27:23.106Z</time></trkpt><trkpt lat="35.9851964" lon="10.0366165"><ele>94.0</ele><time>2026-04-24T15:27:24.119Z</time></trkpt><trkpt lat="35.985071" lon="10.0366106"><ele>93.5</ele><time>2026-04-24T15:27:25.109Z</time></trkpt><trkpt lat="35.9849378" lon="10.0366023"><ele>93.0</ele><time>2026-04-24T15:27:26.11Z</time></trkpt><trkpt lat="35.9848062" lon="10.036594"><ele>92.5</ele><time>2026-04-24T15:27:27.114Z</time></trkpt><trkpt lat="35.9846814" lon="10.0365876"><ele>92.0</ele><time>2026-04-24T15:27:28.118Z</time></trkpt><trkpt lat="35.984552" lon="10.0365817"><ele>92.0</ele><time>2026-04-24T15:27:29.1Z</time></trkpt><trkpt lat="35.9844145" lon="10.0365734"><ele>92.0</ele><time>2026-04-24T15:27:30.111Z</time></trkpt><trkpt lat="35.9842752" lon="10.0365759"><ele>92.0</ele><time>2026-04-24T15:27:31.113Z</time></trkpt><trkpt lat="35.9841349" lon="10.0365623"><ele>92.0</ele><time>2026-04-24T15:27:32.121Z</time></trkpt><trkpt lat="35.9839968" lon="10.0365566"><ele>91.5</ele><time>2026-04-24T15:27:33.106Z</time></trkpt><trkpt lat="35.9838612" lon="10.036553"><ele>91.0</ele><time>2026-04-24T15:27:34.12Z</time></trkpt><trkpt lat="35.9837252" lon="10.0365506"><ele>90.5</ele><time>2026-04-24T15:27:35.113Z</time></trkpt><trkpt lat="35.9835976" lon="10.0365446"><ele>90.0</ele><time>2026-04-24T15:27:36.121Z</time></trkpt><trkpt lat="35.9834685" lon="10.0365398"><ele>89.5</ele><time>2026-04-24T15:27:37.102Z</time></trkpt><trkpt lat="35.983338" lon="10.0365287"><ele>89.0</ele><time>2026-04-24T15:27:38.127Z</time></trkpt><trkpt lat="35.9832069" lon="10.0365184"><ele>88.5</ele><time>2026-04-24T15:27:39.102Z</time></trkpt><trkpt lat="35.9830696" lon="10.036508"><ele>88.0</ele><time>2026-04-24T15:27:40.098Z</time></trkpt><trkpt lat="35.9829282" lon="10.0365017"><ele>88.0</ele><time>2026-04-24T15:27:41.106Z</time></trkpt><trkpt lat="35.9827857" lon="10.0364944"><ele>88.0</ele><time>2026-04-24T15:27:42.114Z</time></trkpt><trkpt lat="35.9826389" lon="10.0364856"><ele>88.0</ele><time>2026-04-24T15:27:43.107Z</time></trkpt><trkpt lat="35.9824915" lon="10.0364803"><ele>88.0</ele><time>2026-04-24T15:27:44.118Z</time></trkpt><trkpt lat="35.982349" lon="10.0364699"><ele>88.25</ele><time>2026-04-24T15:27:45.101Z</time></trkpt><trkpt lat="35.9822084" lon="10.0364601"><ele>88.5</ele><time>2026-04-24T15:27:46.121Z</time></trkpt><trkpt lat="35.9820651" lon="10.0364564"><ele>88.75</ele><time>2026-04-24T15:27:47.103Z</time></trkpt><trkpt lat="35.9819292" lon="10.0364432"><ele>89.0</ele><time>2026-04-24T15:27:48.119Z</time></trkpt><trkpt lat="35.9817868" lon="10.0364184"><ele>89.0</ele><time>2026-04-24T15:27:49.103Z</time></trkpt><trkpt lat="35.9816453" lon="10.036389"><ele>89.0</ele><time>2026-04-24T15:27:50.092Z</time></trkpt><trkpt lat="35.9815073" lon="10.0363513"><ele>89.0</ele><time>2026-04-24T15:27:51.111Z</time></trkpt><trkpt lat="35.9813638" lon="10.0363181"><ele>89.0</ele><time>2026-04-24T15:27:52.12Z</time></trkpt><trkpt lat="35.9812135" lon="10.0362825"><ele>89.0</ele><time>2026-04-24T15:27:53.105Z</time></trkpt><trkpt lat="35.9810545" lon="10.0362351"><ele>89.0</ele><time>2026-04-24T15:27:54.093Z</time></trkpt><trkpt lat="35.9808972" lon="10.0361785"><ele>89.0</ele><time>2026-04-24T15:27:55.12Z</time></trkpt><trkpt lat="35.9807429" lon="10.0361176"><ele>88.0</ele><time>2026-04-24T15:27:56.111Z</time></trkpt><trkpt lat="35.9805844" lon="10.036054"><ele>87.0</ele><time>2026-04-24T15:27:57.111Z</time></trkpt><trkpt lat="35.9804215" lon="10.0359905"><ele>86.0</ele><time>2026-04-24T15:27:58.105Z</time></trkpt><trkpt lat="35.9802592" lon="10.0359262"><ele>86.0</ele><time>2026-04-24T15:27:59.106Z</time></trkpt><trkpt lat="35.9800951" lon="10.0358587"><ele>86.0</ele><time>2026-04-24T15:28:00.102Z</time></trkpt><trkpt lat="35.9799284" lon="10.0357889"><ele>86.0</ele><time>2026-04-24T15:28:01.134Z</time></trkpt><trkpt lat="35.9797656" lon="10.0357258"><ele>85.33333333333334</ele><time>2026-04-24T15:28:02.132Z</time></trkpt><trkpt lat="35.9796012" lon="10.0356622"><ele>84.66666666666667</ele><time>2026-04-24T15:28:03.107Z</time></trkpt><trkpt lat="35.9794322" lon="10.0355962"><ele>84.0</ele><time>2026-04-24T15:28:04.105Z</time></trkpt><trkpt lat="35.9792612" lon="10.0355342"><ele>84.0</ele><time>2026-04-24T15:28:05.108Z</time></trkpt><trkpt lat="35.9790806" lon="10.0354751"><ele>84.0</ele><time>2026-04-24T15:28:06.117Z</time></trkpt><trkpt lat="35.9789018" lon="10.0354147"><ele>84.0</ele><time>2026-04-24T15:28:07.126Z</time></trkpt><trkpt lat="35.978717" lon="10.0353441"><ele>84.0</ele><time>2026-04-24T15:28:08.104Z</time></trkpt><trkpt lat="35.9785391" lon="10.0352675"><ele>84.0</ele><time>2026-04-24T15:28:09.104Z</time></trkpt><trkpt lat="35.978351" lon="10.0351839"><ele>84.0</ele><time>2026-04-24T15:28:10.103Z</time></trkpt><trkpt lat="35.9781513" lon="10.0350946"><ele>84.66666666666667</ele><time>2026-04-24T15:28:11.118Z</time></trkpt><trkpt lat="35.9779584" lon="10.0350056"><ele>85.33333333333334</ele><time>2026-04-24T15:28:12.11Z</time></trkpt><trkpt lat="35.9777862" lon="10.0349312"><ele>86.0</ele><time>2026-04-24T15:28:13.111Z</time></trkpt><trkpt lat="35.9776217" lon="10.0348728"><ele>87.33333333333334</ele><time>2026-04-24T15:28:14.097Z</time></trkpt><trkpt lat="35.9774656" lon="10.0348094"><ele>88.66666666666667</ele><time>2026-04-24T15:28:15.115Z</time></trkpt><trkpt lat="35.9773165" lon="10.0347426"><ele>90.0</ele><time>2026-04-24T15:28:16.115Z</time></trkpt><trkpt lat="35.9771654" lon="10.0346851"><ele>90.0</ele><time>2026-04-24T15:28:17.114Z</time></trkpt><trkpt lat="35.9770132" lon="10.0346337"><ele>90.0</ele><time>2026-04-24T15:28:18.109Z</time></trkpt><trkpt lat="35.9768683" lon="10.0345763"><ele>90.0</ele><time>2026-04-24T15:28:19.118Z</time></trkpt><trkpt lat="35.9767281" lon="10.0345219"><ele>90.0</ele><time>2026-04-24T15:28:20.113Z</time></trkpt><trkpt lat="35.9765895" lon="10.0344689"><ele>90.0</ele><time>2026-04-24T15:28:21.101Z</time></trkpt><trkpt lat="35.9764481" lon="10.0344138"><ele>90.0</ele><time>2026-04-24T15:28:22.117Z</time></trkpt><trkpt lat="35.9763086" lon="10.0343577"><ele>90.0</ele><time>2026-04-24T15:28:23.093Z</time></trkpt><trkpt lat="35.9761706" lon="10.0342989"><ele>90.0</ele><time>2026-04-24T15:28:24.114Z</time></trkpt><trkpt lat="35.9760324" lon="10.0342436"><ele>90.0</ele><time>2026-04-24T15:28:25.104Z</time></trkpt><trkpt lat="35.975896" lon="10.0341878"><ele>90.0</ele><time>2026-04-24T15:28:26.109Z</time></trkpt><trkpt lat="35.9757567" lon="10.0341345"><ele>90.0</ele><time>2026-04-24T15:28:27.104Z</time></trkpt><trkpt lat="35.9756106" lon="10.0340819"><ele>89.66666666666667</ele><time>2026-04-24T15:28:28.113Z</time></trkpt><trkpt lat="35.9754634" lon="10.0340257"><ele>89.33333333333334</ele><time>2026-04-24T15:28:29.108Z</time></trkpt><trkpt lat="35.9753131" lon="10.0339654"><ele>89.0</ele><time>2026-04-24T15:28:30.108Z</time></trkpt><trkpt lat="35.9751538" lon="10.0339045"><ele>87.0</ele><time>2026-04-24T15:28:31.118Z</time></trkpt><trkpt lat="35.9749859" lon="10.0338366"><ele>85.0</ele><time>2026-04-24T15:28:32.103Z</time></trkpt><trkpt lat="35.9748203" lon="10.0337791"><ele>83.0</ele><time>2026-04-24T15:28:33.109Z</time></trkpt><trkpt lat="35.974655" lon="10.0337149"><ele>83.0</ele><time>2026-04-24T15:28:34.098Z</time></trkpt><trkpt lat="35.9744862" lon="10.0336479"><ele>83.0</ele><time>2026-04-24T15:28:35.11Z</time></trkpt><trkpt lat="35.9743173" lon="10.0335774"><ele>83.0</ele><time>2026-04-24T15:28:36.111Z</time></trkpt><trkpt lat="35.974148" lon="10.0335162"><ele>82.33333333333334</ele><time>2026-04-24T15:28:37.117Z</time></trkpt><trkpt lat="35.9739821" lon="10.0334493"><ele>81.66666666666667</ele><time>2026-04-24T15:28:38.097Z</time></trkpt><trkpt lat="35.9738209" lon="10.0333829"><ele>81.0</ele><time>2026-04-24T15:28:39.101Z</time></trkpt><trkpt lat="35.9736602" lon="10.0333202"><ele>80.66666666666667</ele><time>2026-04-24T15:28:40.114Z</time></trkpt><trkpt lat="35.9734956" lon="10.0332544"><ele>80.33333333333334</ele><time>2026-04-24T15:28:41.111Z</time></trkpt><trkpt lat="35.9733293" lon="10.0331803"><ele>80.0</ele><time>2026-04-24T15:28:42.104Z</time></trkpt><trkpt lat="35.9731577" lon="10.0331151"><ele>80.0</ele><time>2026-04-24T15:28:43.112Z</time></trkpt><trkpt lat="35.9729889" lon="10.0330518"><ele>80.0</ele><time>2026-04-24T15:28:44.117Z</time></trkpt><trkpt lat="35.9728177" lon="10.0329881"><ele>80.0</ele><time>2026-04-24T15:28:45.102Z</time></trkpt><trkpt lat="35.9726432" lon="10.0329197"><ele>79.33333333333334</ele><time>2026-04-24T15:28:46.113Z</time></trkpt><trkpt lat="35.9724706" lon="10.0328508"><ele>78.66666666666667</ele><time>2026-04-24T15:28:47.111Z</time></trkpt><trkpt lat="35.9723002" lon="10.0327866"><ele>78.0</ele><time>2026-04-24T15:28:48.121Z</time></trkpt><trkpt lat="35.972141" lon="10.0327209"><ele>78.0</ele><time>2026-04-24T15:28:49.112Z</time></trkpt><trkpt lat="35.9719946" lon="10.0326569"><ele>78.0</ele><time>2026-04-24T15:28:50.115Z</time></trkpt><trkpt lat="35.9718481" lon="10.032598"><ele>78.0</ele><time>2026-04-24T15:28:51.116Z</time></trkpt><trkpt lat="35.9717047" lon="10.032546"><ele>78.0</ele><time>2026-04-24T15:28:52.111Z</time></trkpt><trkpt lat="35.9715585" lon="10.0324881"><ele>78.0</ele><time>2026-04-24T15:28:53.114Z</time></trkpt><trkpt lat="35.9714078" lon="10.0324293"><ele>78.0</ele><time>2026-04-24T15:28:54.099Z</time></trkpt><trkpt lat="35.9712529" lon="10.0323705"><ele>78.66666666666667</ele><time>2026-04-24T15:28:55.118Z</time></trkpt><trkpt lat="35.971088" lon="10.0323055"><ele>79.33333333333334</ele><time>2026-04-24T15:28:56.103Z</time></trkpt><trkpt lat="35.970913" lon="10.0322406"><ele>80.0</ele><time>2026-04-24T15:28:57.101Z</time></trkpt><trkpt lat="35.9707255" lon="10.0321739"><ele>80.5</ele><time>2026-04-24T15:28:58.099Z</time></trkpt><trkpt lat="35.9705174" lon="10.0320983"><ele>81.0</ele><time>2026-04-24T15:28:59.116Z</time></trkpt><trkpt lat="35.9702765" lon="10.0320125"><ele>80.0</ele><time>2026-04-24T15:29:00.107Z</time></trkpt><trkpt lat="35.9700222" lon="10.0319086"><ele>79.0</ele><time>2026-04-24T15:29:01.099Z</time></trkpt><trkpt lat="35.9697836" lon="10.031806"><ele>79.0</ele><time>2026-04-24T15:29:02.124Z</time></trkpt><trkpt lat="35.9695633" lon="10.0317141"><ele>79.0</ele><time>2026-04-24T15:29:03.101Z</time></trkpt><trkpt lat="35.9693541" lon="10.0316303"><ele>78.66666666666666</ele><time>2026-04-24T15:29:04.159Z</time></trkpt><trkpt lat="35.9691576" lon="10.0315475"><ele>78.33333333333333</ele><time>2026-04-24T15:29:05.093Z</time></trkpt><trkpt lat="35.9689682" lon="10.0314681"><ele>78.0</ele><time>2026-04-24T15:29:06.11Z</time></trkpt><trkpt lat="35.9687908" lon="10.0313947"><ele>78.0</ele><time>2026-04-24T15:29:07.122Z</time></trkpt><trkpt lat="35.9686147" lon="10.0313231"><ele>78.0</ele><time>2026-04-24T15:29:08.101Z</time></trkpt><trkpt lat="35.9684419" lon="10.0312565"><ele>78.0</ele><time>2026-04-24T15:29:09.106Z</time></trkpt><trkpt lat="35.968265" lon="10.0311911"><ele>78.66666666666667</ele><time>2026-04-24T15:29:10.112Z</time></trkpt><trkpt lat="35.9680864" lon="10.0311236"><ele>79.33333333333334</ele><time>2026-04-24T15:29:11.106Z</time></trkpt><trkpt lat="35.9679123" lon="10.0310614"><ele>80.0</ele><time>2026-04-24T15:29:12.095Z</time></trkpt><trkpt lat="35.9677435" lon="10.0309944"><ele>80.0</ele><time>2026-04-24T15:29:13.093Z</time></trkpt><trkpt lat="35.9675672" lon="10.0309273"><ele>80.0</ele><time>2026-04-24T15:29:14.112Z</time></trkpt><trkpt lat="35.9673932" lon="10.0308494"><ele>80.0</ele><time>2026-04-24T15:29:15.114Z</time></trkpt><trkpt lat="35.967216" lon="10.0307772"><ele>80.66666666666667</ele><time>2026-04-24T15:29:16.103Z</time></trkpt><trkpt lat="35.9670328" lon="10.0307099"><ele>81.33333333333333</ele><time>2026-04-24T15:29:17.112Z</time></trkpt><trkpt lat="35.9668456" lon="10.0306415"><ele>82.0</ele><time>2026-04-24T15:29:18.12Z</time></trkpt><trkpt lat="35.9666623" lon="10.0305679"><ele>82.66666666666666</ele><time>2026-04-24T15:29:19.094Z</time></trkpt><trkpt lat="35.9664756" lon="10.0304949"><ele>83.33333333333333</ele><time>2026-04-24T15:29:20.096Z</time></trkpt><trkpt lat="35.9662889" lon="10.0304207"><ele>84.0</ele><time>2026-04-24T15:29:21.124Z</time></trkpt><trkpt lat="35.966103" lon="10.0303508"><ele>84.0</ele><time>2026-04-24T15:29:22.111Z</time></trkpt><trkpt lat="35.9659162" lon="10.0302799"><ele>84.0</ele><time>2026-04-24T15:29:23.102Z</time></trkpt><trkpt lat="35.9657296" lon="10.0302068"><ele>84.0</ele><time>2026-04-24T15:29:24.105Z</time></trkpt><trkpt lat="35.9655444" lon="10.0301371"><ele>83.33333333333333</ele><time>2026-04-24T15:29:25.11Z</time></trkpt><trkpt lat="35.9653566" lon="10.0300638"><ele>82.66666666666666</ele><time>2026-04-24T15:29:26.105Z</time></trkpt><trkpt lat="35.9651723" lon="10.029993"><ele>82.0</ele><time>2026-04-24T15:29:27.104Z</time></trkpt><trkpt lat="35.9649891" lon="10.0299177"><ele>81.66666666666666</ele><time>2026-04-24T15:29:28.121Z</time></trkpt><trkpt lat="35.9648071" lon="10.0298396"><ele>81.33333333333333</ele><time>2026-04-24T15:29:29.118Z</time></trkpt><trkpt lat="35.9646252" lon="10.0297672"><ele>81.0</ele><time>2026-04-24T15:29:30.106Z</time></trkpt><trkpt lat="35.9644367" lon="10.0296985"><ele>81.0</ele><time>2026-04-24T15:29:31.104Z</time></trkpt><trkpt lat="35.9642511" lon="10.0296252"><ele>81.0</ele><time>2026-04-24T15:29:32.116Z</time></trkpt><trkpt lat="35.9640612" lon="10.0295501"><ele>81.0</ele><time>2026-04-24T15:29:33.118Z</time></trkpt><trkpt lat="35.9638705" lon="10.0294775"><ele>81.33333333333333</ele><time>2026-04-24T15:29:34.114Z</time></trkpt><trkpt lat="35.9636779" lon="10.0293989"><ele>81.66666666666666</ele><time>2026-04-24T15:29:35.114Z</time></trkpt><trkpt lat="35.963488" lon="10.029323"><ele>82.0</ele><time>2026-04-24T15:29:36.11Z</time></trkpt><trkpt lat="35.9632921" lon="10.0292424"><ele>82.0</ele><time>2026-04-24T15:29:37.116Z</time></trkpt><trkpt lat="35.9631" lon="10.0291725"><ele>82.0</ele><time>2026-04-24T15:29:38.119Z</time></trkpt><trkpt lat="35.9629042" lon="10.0290984"><ele>82.0</ele><time>2026-04-24T15:29:39.102Z</time></trkpt><trkpt lat="35.9627172" lon="10.0290222"><ele>81.66666666666666</ele><time>2026-04-24T15:29:40.107Z</time></trkpt><trkpt lat="35.9625255" lon="10.0289497"><ele>81.33333333333333</ele><time>2026-04-24T15:29:41.1Z</time></trkpt><trkpt lat="35.9623345" lon="10.0288763"><ele>81.0</ele><time>2026-04-24T15:29:42.125Z</time></trkpt><trkpt lat="35.9621443" lon="10.0288026"><ele>81.0</ele><time>2026-04-24T15:29:43.113Z</time></trkpt><trkpt lat="35.9619565" lon="10.0287309"><ele>81.0</ele><time>2026-04-24T15:29:44.117Z</time></trkpt><trkpt lat="35.9617693" lon="10.0286553"><ele>81.0</ele><time>2026-04-24T15:29:45.1Z</time></trkpt><trkpt lat="35.9615801" lon="10.0285814"><ele>80.0</ele><time>2026-04-24T15:29:46.114Z</time></trkpt><trkpt lat="35.9613912" lon="10.0285064"><ele>79.0</ele><time>2026-04-24T15:29:47.126Z</time></trkpt><trkpt lat="35.9612016" lon="10.0284325"><ele>78.0</ele><time>2026-04-24T15:29:48.12Z</time></trkpt><trkpt lat="35.9610085" lon="10.0283579"><ele>77.33333333333333</ele><time>2026-04-24T15:29:49.103Z</time></trkpt><trkpt lat="35.9608177" lon="10.0282822"><ele>76.66666666666666</ele><time>2026-04-24T15:29:50.11Z</time></trkpt><trkpt lat="35.9606224" lon="10.0282084"><ele>76.0</ele><time>2026-04-24T15:29:51.112Z</time></trkpt><trkpt lat="35.9604201" lon="10.0281301"><ele>76.0</ele><time>2026-04-24T15:29:52.116Z</time></trkpt><trkpt lat="35.9602155" lon="10.0280476"><ele>76.0</ele><time>2026-04-24T15:29:53.113Z</time></trkpt><trkpt lat="35.960009" lon="10.0279652"><ele>76.0</ele><time>2026-04-24T15:29:54.112Z</time></trkpt><trkpt lat="35.9598034" lon="10.0278832"><ele>75.33333333333333</ele><time>2026-04-24T15:29:55.119Z</time></trkpt><trkpt lat="35.9595959" lon="10.0278051"><ele>74.66666666666667</ele><time>2026-04-24T15:29:56.117Z</time></trkpt><trkpt lat="35.9593924" lon="10.0277294"><ele>74.0</ele><time>2026-04-24T15:29:57.112Z</time></trkpt><trkpt lat="35.9591936" lon="10.0276506"><ele>74.0</ele><time>2026-04-24T15:29:58.115Z</time></trkpt><trkpt lat="35.9589954" lon="10.0275709"><ele>74.0</ele><time>2026-04-24T15:29:59.119Z</time></trkpt><trkpt lat="35.9587992" lon="10.0274937"><ele>74.0</ele><time>2026-04-24T15:30:00.098Z</time></trkpt><trkpt lat="35.958603" lon="10.0274169"><ele>74.33333333333334</ele><time>2026-04-24T15:30:01.111Z</time></trkpt><trkpt lat="35.958407" lon="10.027337"><ele>74.66666666666667</ele><time>2026-04-24T15:30:02.106Z</time></trkpt><trkpt lat="35.9582191" lon="10.027261"><ele>75.0</ele><time>2026-04-24T15:30:03.116Z</time></trkpt><trkpt lat="35.9580235" lon="10.0271828"><ele>75.0</ele><time>2026-04-24T15:30:04.105Z</time></trkpt><trkpt lat="35.9578326" lon="10.0271057"><ele>75.0</ele><time>2026-04-24T15:30:05.11Z</time></trkpt><trkpt lat="35.9576401" lon="10.0270307"><ele>75.0</ele><time>2026-04-24T15:30:06.114Z</time></trkpt><trkpt lat="35.9574475" lon="10.0269546"><ele>75.33333333333333</ele><time>2026-04-24T15:30:07.118Z</time></trkpt><trkpt lat="35.9572577" lon="10.0268761"><ele>75.66666666666666</ele><time>2026-04-24T15:30:08.103Z</time></trkpt><trkpt lat="35.9570665" lon="10.0268067"><ele>76.0</ele><time>2026-04-24T15:30:09.115Z</time></trkpt><trkpt lat="35.9568691" lon="10.0267328"><ele>76.0</ele><time>2026-04-24T15:30:10.107Z</time></trkpt><trkpt lat="35.9566725" lon="10.0266566"><ele>76.0</ele><time>2026-04-24T15:30:11.109Z</time></trkpt><trkpt lat="35.9564818" lon="10.0265787"><ele>76.0</ele><time>2026-04-24T15:30:12.114Z</time></trkpt><trkpt lat="35.9562925" lon="10.0265038"><ele>76.66666666666666</ele><time>2026-04-24T15:30:13.107Z</time></trkpt><trkpt lat="35.9561049" lon="10.0264266"><ele>77.33333333333333</ele><time>2026-04-24T15:30:14.101Z</time></trkpt><trkpt lat="35.9559124" lon="10.0263507"><ele>78.0</ele><time>2026-04-24T15:30:15.11Z</time></trkpt><trkpt lat="35.9557238" lon="10.0262856"><ele>78.33333333333333</ele><time>2026-04-24T15:30:16.115Z</time></trkpt><trkpt lat="35.9555344" lon="10.0262283"><ele>78.66666666666666</ele><time>2026-04-24T15:30:17.111Z</time></trkpt><trkpt lat="35.95534" lon="10.0261809"><ele>79.0</ele><time>2026-04-24T15:30:18.106Z</time></trkpt><trkpt lat="35.9551396" lon="10.0261435"><ele>78.33333333333333</ele><time>2026-04-24T15:30:19.107Z</time></trkpt><trkpt lat="35.9549422" lon="10.0261155"><ele>77.66666666666667</ele><time>2026-04-24T15:30:20.109Z</time></trkpt><trkpt lat="35.9547404" lon="10.0260993"><ele>77.0</ele><time>2026-04-24T15:30:21.106Z</time></trkpt><trkpt lat="35.9545383" lon="10.0260713"><ele>77.0</ele><time>2026-04-24T15:30:22.109Z</time></trkpt><trkpt lat="35.9543322" lon="10.0260487"><ele>77.0</ele><time>2026-04-24T15:30:23.102Z</time></trkpt><trkpt lat="35.9541246" lon="10.0260255"><ele>77.0</ele><time>2026-04-24T15:30:24.119Z</time></trkpt><trkpt lat="35.9539188" lon="10.0260039"><ele>76.33333333333334</ele><time>2026-04-24T15:30:25.122Z</time></trkpt><trkpt lat="35.9537213" lon="10.0259807"><ele>75.66666666666667</ele><time>2026-04-24T15:30:26.106Z</time></trkpt><trkpt lat="35.9535301" lon="10.0259527"><ele>75.0</ele><time>2026-04-24T15:30:27.122Z</time></trkpt><trkpt lat="35.9533354" lon="10.0259311"><ele>74.66666666666667</ele><time>2026-04-24T15:30:28.116Z</time></trkpt><trkpt lat="35.9531435" lon="10.025911"><ele>74.33333333333334</ele><time>2026-04-24T15:30:29.109Z</time></trkpt><trkpt lat="35.9529429" lon="10.0258883"><ele>74.0</ele><time>2026-04-24T15:30:30.111Z</time></trkpt><trkpt lat="35.9527519" lon="10.0258687"><ele>74.0</ele><time>2026-04-24T15:30:31.101Z</time></trkpt><trkpt lat="35.9525622" lon="10.0258478"><ele>74.0</ele><time>2026-04-24T15:30:32.114Z</time></trkpt><trkpt lat="35.9523749" lon="10.0258279"><ele>74.0</ele><time>2026-04-24T15:30:33.118Z</time></trkpt><trkpt lat="35.9521835" lon="10.0258056"><ele>73.66666666666667</ele><time>2026-04-24T15:30:34.129Z</time></trkpt><trkpt lat="35.9519972" lon="10.0257865"><ele>73.33333333333333</ele><time>2026-04-24T15:30:35.109Z</time></trkpt><trkpt lat="35.9518151" lon="10.0257607"><ele>73.0</ele><time>2026-04-24T15:30:36.124Z</time></trkpt><trkpt lat="35.9516318" lon="10.0257396"><ele>72.66666666666666</ele><time>2026-04-24T15:30:37.114Z</time></trkpt><trkpt lat="35.951449" lon="10.0257192"><ele>72.33333333333333</ele><time>2026-04-24T15:30:38.115Z</time></trkpt><trkpt lat="35.9512628" lon="10.0256973"><ele>72.0</ele><time>2026-04-24T15:30:39.109Z</time></trkpt><trkpt lat="35.951076" lon="10.0256792"><ele>72.0</ele><time>2026-04-24T15:30:40.102Z</time></trkpt><trkpt lat="35.9508865" lon="10.0256567"><ele>72.0</ele><time>2026-04-24T15:30:41.105Z</time></trkpt><trkpt lat="35.9506981" lon="10.0256367"><ele>72.0</ele><time>2026-04-24T15:30:42.108Z</time></trkpt><trkpt lat="35.9505087" lon="10.0256148"><ele>72.0</ele><time>2026-04-24T15:30:43.11Z</time></trkpt><trkpt lat="35.9503241" lon="10.025594"><ele>72.0</ele><time>2026-04-24T15:30:44.09Z</time></trkpt><trkpt lat="35.9501394" lon="10.0255728"><ele>72.0</ele><time>2026-04-24T15:30:45.121Z</time></trkpt><trkpt lat="35.9499524" lon="10.0255525"><ele>72.0</ele><time>2026-04-24T15:30:46.11Z</time></trkpt><trkpt lat="35.9497606" lon="10.0255321"><ele>72.0</ele><time>2026-04-24T15:30:47.111Z</time></trkpt><trkpt lat="35.9495751" lon="10.0255091"><ele>72.0</ele><time>2026-04-24T15:30:48.1Z</time></trkpt><trkpt lat="35.9493871" lon="10.0254883"><ele>73.0</ele><time>2026-04-24T15:30:49.126Z</time></trkpt><trkpt lat="35.9491951" lon="10.0254651"><ele>74.0</ele><time>2026-04-24T15:30:50.095Z</time></trkpt><trkpt lat="35.9490038" lon="10.0254413"><ele>75.0</ele><time>2026-04-24T15:30:51.103Z</time></trkpt><trkpt lat="35.9488178" lon="10.025425"><ele>75.0</ele><time>2026-04-24T15:30:52.11Z</time></trkpt><trkpt lat="35.948632" lon="10.0254065"><ele>75.0</ele><time>2026-04-24T15:30:53.111Z</time></trkpt><trkpt lat="35.9484495" lon="10.0253823"><ele>75.0</ele><time>2026-04-24T15:30:54.11Z</time></trkpt><trkpt lat="35.9482634" lon="10.0253649"><ele>75.33333333333333</ele><time>2026-04-24T15:30:55.114Z</time></trkpt><trkpt lat="35.9480742" lon="10.0253449"><ele>75.66666666666666</ele><time>2026-04-24T15:30:56.114Z</time></trkpt><trkpt lat="35.9478808" lon="10.0253239"><ele>76.0</ele><time>2026-04-24T15:30:57.115Z</time></trkpt><trkpt lat="35.9476967" lon="10.0253032"><ele>76.33333333333333</ele><time>2026-04-24T15:30:58.096Z</time></trkpt><trkpt lat="35.9475115" lon="10.0252831"><ele>76.66666666666667</ele><time>2026-04-24T15:30:59.105Z</time></trkpt><trkpt lat="35.947323" lon="10.0252615"><ele>77.0</ele><time>2026-04-24T15:31:00.1Z</time></trkpt><trkpt lat="35.947139" lon="10.0252413"><ele>77.0</ele><time>2026-04-24T15:31:01.098Z</time></trkpt><trkpt lat="35.9469557" lon="10.025218"><ele>77.0</ele><time>2026-04-24T15:31:02.121Z</time></trkpt><trkpt lat="35.9467723" lon="10.0251882"><ele>77.0</ele><time>2026-04-24T15:31:03.12Z</time></trkpt><trkpt lat="35.9465967" lon="10.0251506"><ele>77.33333333333334</ele><time>2026-04-24T15:31:04.123Z</time></trkpt><trkpt lat="35.9464238" lon="10.0251092"><ele>77.66666666666667</ele><time>2026-04-24T15:31:05.112Z</time></trkpt><trkpt lat="35.9462515" lon="10.0250543"><ele>78.0</ele><time>2026-04-24T15:31:06.105Z</time></trkpt><trkpt lat="35.9460903" lon="10.0249953"><ele>78.66666666666667</ele><time>2026-04-24T15:31:07.122Z</time></trkpt><trkpt lat="35.9459385" lon="10.02493"><ele>79.33333333333334</ele><time>2026-04-24T15:31:08.128Z</time></trkpt><trkpt lat="35.9457905" lon="10.0248679"><ele>80.0</ele><time>2026-04-24T15:31:09.098Z</time></trkpt><trkpt lat="35.9456552" lon="10.0248019"><ele>80.2</ele><time>2026-04-24T15:31:10.118Z</time></trkpt><trkpt lat="35.9455372" lon="10.0247424"><ele>80.4</ele><time>2026-04-24T15:31:11.107Z</time></trkpt><trkpt lat="35.9454426" lon="10.0246901"><ele>80.6</ele><time>2026-04-24T15:31:12.121Z</time></trkpt><trkpt lat="35.9453546" lon="10.0246443"><ele>80.8</ele><time>2026-04-24T15:31:13.115Z</time></trkpt><trkpt lat="35.9452683" lon="10.0245999"><ele>81.0</ele><time>2026-04-24T15:31:14.102Z</time></trkpt><trkpt lat="35.9451888" lon="10.024552"><ele>81.0</ele><time>2026-04-24T15:31:15.106Z</time></trkpt><trkpt lat="35.9451163" lon="10.0245051"><ele>81.0</ele><time>2026-04-24T15:31:16.104Z</time></trkpt><trkpt lat="35.9450371" lon="10.0244476"><ele>81.0</ele><time>2026-04-24T15:31:17.111Z</time></trkpt><trkpt lat="35.9449579" lon="10.0244011"><ele>81.0</ele><time>2026-04-24T15:31:18.113Z</time></trkpt><trkpt lat="35.9448696" lon="10.0243474"><ele>81.0</ele><time>2026-04-24T15:31:19.11Z</time></trkpt><trkpt lat="35.9447835" lon="10.024297"><ele>80.6</ele><time>2026-04-24T15:31:20.111Z</time></trkpt><trkpt lat="35.9446951" lon="10.0242467"><ele>80.19999999999999</ele><time>2026-04-24T15:31:21.106Z</time></trkpt><trkpt lat="35.9446078" lon="10.0241996"><ele>79.80000000000001</ele><time>2026-04-24T15:31:22.12Z</time></trkpt><trkpt lat="35.9445208" lon="10.0241576"><ele>79.4</ele><time>2026-04-24T15:31:23.117Z</time></trkpt><trkpt lat="35.9444309" lon="10.0241053"><ele>79.0</ele><time>2026-04-24T15:31:24.108Z</time></trkpt><trkpt lat="35.9443375" lon="10.0240511"><ele>78.60000000000001</ele><time>2026-04-24T15:31:25.119Z</time></trkpt><trkpt lat="35.9442458" lon="10.0239938"><ele>78.2</ele><time>2026-04-24T15:31:26.11Z</time></trkpt><trkpt lat="35.9441561" lon="10.023939"><ele>77.80000000000001</ele><time>2026-04-24T15:31:27.102Z</time></trkpt><trkpt lat="35.9440609" lon="10.0238864"><ele>77.4</ele><time>2026-04-24T15:31:28.115Z</time></trkpt><trkpt lat="35.9439632" lon="10.0238342"><ele>77.0</ele><time>2026-04-24T15:31:29.1Z</time></trkpt><trkpt lat="35.9438694" lon="10.0237801"><ele>76.4</ele><time>2026-04-24T15:31:30.12Z</time></trkpt><trkpt lat="35.943776" lon="10.0237287"><ele>75.80000000000001</ele><time>2026-04-24T15:31:31.106Z</time></trkpt><trkpt lat="35.9436858" lon="10.0236826"><ele>75.2</ele><time>2026-04-24T15:31:32.114Z</time></trkpt><trkpt lat="35.9435979" lon="10.0236344"><ele>74.60000000000001</ele><time>2026-04-24T15:31:33.116Z</time></trkpt><trkpt lat="35.9435133" lon="10.0235886"><ele>74.0</ele><time>2026-04-24T15:31:34.114Z</time></trkpt><trkpt lat="35.94343" lon="10.0235456"><ele>73.60000000000001</ele><time>2026-04-24T15:31:35.112Z</time></trkpt><trkpt lat="35.9433465" lon="10.0235009"><ele>73.2</ele><time>2026-04-24T15:31:36.119Z</time></trkpt><trkpt lat="35.9432587" lon="10.023446"><ele>72.80000000000001</ele><time>2026-04-24T15:31:37.126Z</time></trkpt><trkpt lat="35.9431655" lon="10.0233921"><ele>72.4</ele><time>2026-04-24T15:31:38.107Z</time></trkpt><trkpt lat="35.9430689" lon="10.0233445"><ele>72.0</ele><time>2026-04-24T15:31:39.106Z</time></trkpt><trkpt lat="35.9429738" lon="10.0232914"><ele>71.8</ele><time>2026-04-24T15:31:40.116Z</time></trkpt><trkpt lat="35.942878" lon="10.0232364"><ele>71.6</ele><time>2026-04-24T15:31:41.118Z</time></trkpt><trkpt lat="35.9427787" lon="10.0231785"><ele>71.39999999999999</ele><time>2026-04-24T15:31:42.132Z</time></trkpt><trkpt lat="35.9426779" lon="10.0231167"><ele>71.2</ele><time>2026-04-24T15:31:43.109Z</time></trkpt><trkpt lat="35.9425761" lon="10.0230617"><ele>71.0</ele><time>2026-04-24T15:31:44.121Z</time></trkpt><trkpt lat="35.9424777" lon="10.0230045"><ele>71.6</ele><time>2026-04-24T15:31:45.112Z</time></trkpt><trkpt lat="35.9423793" lon="10.0229469"><ele>72.19999999999999</ele><time>2026-04-24T15:31:46.118Z</time></trkpt><trkpt lat="35.942284" lon="10.0228927"><ele>72.80000000000001</ele><time>2026-04-24T15:31:47.108Z</time></trkpt><trkpt lat="35.9421856" lon="10.0228325"><ele>73.4</ele><time>2026-04-24T15:31:48.123Z</time></trkpt><trkpt lat="35.942088" lon="10.0227758"><ele>74.0</ele><time>2026-04-24T15:31:49.113Z</time></trkpt><trkpt lat="35.9419956" lon="10.0227217"><ele>74.0</ele><time>2026-04-24T15:31:50.126Z</time></trkpt><trkpt lat="35.9419062" lon="10.022667"><ele>74.0</ele><time>2026-04-24T15:31:51.104Z</time></trkpt><trkpt lat="35.9418204" lon="10.0226222"><ele>74.0</ele><time>2026-04-24T15:31:52.098Z</time></trkpt><trkpt lat="35.9417266" lon="10.0225564"><ele>74.0</ele><time>2026-04-24T15:31:53.108Z</time></trkpt><trkpt lat="35.9416183" lon="10.0224934"><ele>74.0</ele><time>2026-04-24T15:31:54.129Z</time></trkpt><trkpt lat="35.9414975" lon="10.0224239"><ele>73.5</ele><time>2026-04-24T15:31:55.1Z</time></trkpt><trkpt lat="35.9413819" lon="10.022357"><ele>73.0</ele><time>2026-04-24T15:31:56.109Z</time></trkpt><trkpt lat="35.941267" lon="10.0222906"><ele>72.5</ele><time>2026-04-24T15:31:57.103Z</time></trkpt><trkpt lat="35.9411545" lon="10.0222306"><ele>72.0</ele><time>2026-04-24T15:31:58.101Z</time></trkpt><trkpt lat="35.9410413" lon="10.0221658"><ele>72.0</ele><time>2026-04-24T15:31:59.099Z</time></trkpt><trkpt lat="35.9409277" lon="10.0221033"><ele>72.0</ele><time>2026-04-24T15:32:00.101Z</time></trkpt><trkpt lat="35.9408179" lon="10.0220393"><ele>72.0</ele><time>2026-04-24T15:32:01.121Z</time></trkpt><trkpt lat="35.9407026" lon="10.0219711"><ele>72.0</ele><time>2026-04-24T15:32:02.098Z</time></trkpt><trkpt lat="35.9405873" lon="10.0219022"><ele>72.25</ele><time>2026-04-24T15:32:03.098Z</time></trkpt><trkpt lat="35.9404733" lon="10.0218361"><ele>72.5</ele><time>2026-04-24T15:32:04.121Z</time></trkpt><trkpt lat="35.9403614" lon="10.0217666"><ele>72.75</ele><time>2026-04-24T15:32:05.1Z</time></trkpt><trkpt lat="35.9402511" lon="10.0216998"><ele>73.0</ele><time>2026-04-24T15:32:06.121Z</time></trkpt><trkpt lat="35.9401422" lon="10.0216368"><ele>72.5</ele><time>2026-04-24T15:32:07.112Z</time></trkpt><trkpt lat="35.9400258" lon="10.0215707"><ele>72.0</ele><time>2026-04-24T15:32:08.104Z</time></trkpt><trkpt lat="35.939915" lon="10.0215156"><ele>71.5</ele><time>2026-04-24T15:32:09.109Z</time></trkpt><trkpt lat="35.9398023" lon="10.0214507"><ele>71.0</ele><time>2026-04-24T15:32:10.102Z</time></trkpt><trkpt lat="35.9396908" lon="10.0213861"><ele>71.0</ele><time>2026-04-24T15:32:11.106Z</time></trkpt><trkpt lat="35.9395798" lon="10.0213177"><ele>71.0</ele><time>2026-04-24T15:32:12.093Z</time></trkpt><trkpt lat="35.9394703" lon="10.0212557"><ele>71.0</ele><time>2026-04-24T15:32:13.092Z</time></trkpt><trkpt lat="35.939358" lon="10.0211888"><ele>71.0</ele><time>2026-04-24T15:32:14.112Z</time></trkpt><trkpt lat="35.93925" lon="10.021124"><ele>71.0</ele><time>2026-04-24T15:32:15.128Z</time></trkpt><trkpt lat="35.9391416" lon="10.0210599"><ele>71.0</ele><time>2026-04-24T15:32:16.114Z</time></trkpt><trkpt lat="35.9390294" lon="10.02099"><ele>71.0</ele><time>2026-04-24T15:32:17.102Z</time></trkpt><trkpt lat="35.9389198" lon="10.0209227"><ele>71.0</ele><time>2026-04-24T15:32:18.118Z</time></trkpt><trkpt lat="35.9388081" lon="10.0208553"><ele>71.25</ele><time>2026-04-24T15:32:19.104Z</time></trkpt><trkpt lat="35.938695" lon="10.0207874"><ele>71.5</ele><time>2026-04-24T15:32:20.123Z</time></trkpt><trkpt lat="35.9385824" lon="10.0207207"><ele>71.75</ele><time>2026-04-24T15:32:21.114Z</time></trkpt><trkpt lat="35.9384701" lon="10.0206509"><ele>72.0</ele><time>2026-04-24T15:32:22.122Z</time></trkpt><trkpt lat="35.9383612" lon="10.0205934"><ele>71.4</ele><time>2026-04-24T15:32:23.093Z</time></trkpt><trkpt lat="35.938255" lon="10.0205393"><ele>70.80000000000001</ele><time>2026-04-24T15:32:24.107Z</time></trkpt><trkpt lat="35.938152" lon="10.0204839"><ele>70.2</ele><time>2026-04-24T15:32:25.097Z</time></trkpt><trkpt lat="35.9380522" lon="10.0204283"><ele>69.60000000000001</ele><time>2026-04-24T15:32:26.163Z</time></trkpt><trkpt lat="35.937955" lon="10.0203771"><ele>69.0</ele><time>2026-04-24T15:32:27.081Z</time></trkpt><trkpt lat="35.9378631" lon="10.0203215"><ele>69.0</ele><time>2026-04-24T15:32:28.111Z</time></trkpt><trkpt lat="35.9377794" lon="10.020271"><ele>69.0</ele><time>2026-04-24T15:32:29.116Z</time></trkpt><trkpt lat="35.9377005" lon="10.020229"><ele>69.0</ele><time>2026-04-24T15:32:30.11Z</time></trkpt><trkpt lat="35.9376246" lon="10.0201873"><ele>69.0</ele><time>2026-04-24T15:32:31.117Z</time></trkpt><trkpt lat="35.9375527" lon="10.020143"><ele>69.0</ele><time>2026-04-24T15:32:32.097Z</time></trkpt><trkpt lat="35.9374837" lon="10.0201058"><ele>69.0</ele><time>2026-04-24T15:32:33.096Z</time></trkpt><trkpt lat="35.9374184" lon="10.0200733"><ele>69.0</ele><time>2026-04-24T15:32:34.123Z</time></trkpt><trkpt lat="35.937352" lon="10.0200335"><ele>69.0</ele><time>2026-04-24T15:32:35.11Z</time></trkpt><trkpt lat="35.9372824" lon="10.0199921"><ele>69.0</ele><time>2026-04-24T15:32:36.125Z</time></trkpt><trkpt lat="35.937209" lon="10.0199489"><ele>69.0</ele><time>2026-04-24T15:32:37.113Z</time></trkpt><trkpt lat="35.9371339" lon="10.0199088"><ele>69.0</ele><time>2026-04-24T15:32:38.115Z</time></trkpt><trkpt lat="35.9370606" lon="10.019869"><ele>69.0</ele><time>2026-04-24T15:32:39.11Z</time></trkpt><trkpt lat="35.9369812" lon="10.0198265"><ele>69.4</ele><time>2026-04-24T15:32:40.124Z</time></trkpt><trkpt lat="35.9368963" lon="10.0197868"><ele>69.80000000000001</ele><time>2026-04-24T15:32:41.118Z</time></trkpt><trkpt lat="35.936814" lon="10.0197358"><ele>70.19999999999999</ele><time>2026-04-24T15:32:42.103Z</time></trkpt><trkpt lat="35.9367292" lon="10.0196825"><ele>70.6</ele><time>2026-04-24T15:32:43.129Z</time></trkpt><trkpt lat="35.9366483" lon="10.0196368"><ele>71.0</ele><time>2026-04-24T15:32:44.12Z</time></trkpt><trkpt lat="35.9365711" lon="10.0195902"><ele>71.16666666666667</ele><time>2026-04-24T15:32:45.122Z</time></trkpt><trkpt lat="35.9364851" lon="10.0195458"><ele>71.33333333333334</ele><time>2026-04-24T15:32:46.103Z</time></trkpt><trkpt lat="35.9364044" lon="10.0195002"><ele>71.5</ele><time>2026-04-24T15:32:47.115Z</time></trkpt><trkpt lat="35.9363265" lon="10.019451"><ele>71.66666666666667</ele><time>2026-04-24T15:32:48.113Z</time></trkpt><trkpt lat="35.9362508" lon="10.0194045"><ele>71.83333333333333</ele><time>2026-04-24T15:32:49.115Z</time></trkpt><trkpt lat="35.9361767" lon="10.0193581"><ele>72.0</ele><time>2026-04-24T15:32:50.105Z</time></trkpt><trkpt lat="35.9360986" lon="10.0193126"><ele>72.0</ele><time>2026-04-24T15:32:51.108Z</time></trkpt><trkpt lat="35.9360217" lon="10.0192722"><ele>72.0</ele><time>2026-04-24T15:32:52.096Z</time></trkpt><trkpt lat="35.9359386" lon="10.0192272"><ele>72.0</ele><time>2026-04-24T15:32:53.114Z</time></trkpt><trkpt lat="35.9358583" lon="10.0191866"><ele>72.0</ele><time>2026-04-24T15:32:54.097Z</time></trkpt><trkpt lat="35.9357824" lon="10.0191429"><ele>72.0</ele><time>2026-04-24T15:32:55.106Z</time></trkpt><trkpt lat="35.9357059" lon="10.0190931"><ele>72.0</ele><time>2026-04-24T15:32:56.113Z</time></trkpt><trkpt lat="35.9356288" lon="10.019057"><ele>72.00000000000001</ele><time>2026-04-24T15:32:57.108Z</time></trkpt><trkpt lat="35.9355555" lon="10.0190178"><ele>72.0</ele><time>2026-04-24T15:32:58.105Z</time></trkpt><trkpt lat="35.9354875" lon="10.0189736"><ele>72.0</ele><time>2026-04-24T15:32:59.098Z</time></trkpt><trkpt lat="35.9354217" lon="10.0189336"><ele>72.0</ele><time>2026-04-24T15:33:00.112Z</time></trkpt><trkpt lat="35.9353592" lon="10.0188913"><ele>72.0</ele><time>2026-04-24T15:33:01.106Z</time></trkpt><trkpt lat="35.9352959" lon="10.0188578"><ele>72.00000000000001</ele><time>2026-04-24T15:33:02.111Z</time></trkpt><trkpt lat="35.9352276" lon="10.0188226"><ele>72.0</ele><time>2026-04-24T15:33:03.108Z</time></trkpt><trkpt lat="35.9351581" lon="10.0187822"><ele>72.00000000000001</ele><time>2026-04-24T15:33:04.114Z</time></trkpt><trkpt lat="35.9350893" lon="10.0187475"><ele>72.0</ele><time>2026-04-24T15:33:05.106Z</time></trkpt><trkpt lat="35.9350221" lon="10.0187112"><ele>72.0</ele><time>2026-04-24T15:33:06.11Z</time></trkpt><trkpt lat="35.934957" lon="10.0186771"><ele>72.0</ele><time>2026-04-24T15:33:07.101Z</time></trkpt><trkpt lat="35.9348908" lon="10.0186323"><ele>72.0</ele><time>2026-04-24T15:33:08.119Z</time></trkpt><trkpt lat="35.9348169" lon="10.0185963"><ele>72.00000000000001</ele><time>2026-04-24T15:33:09.112Z</time></trkpt><trkpt lat="35.9347525" lon="10.018561"><ele>72.0</ele><time>2026-04-24T15:33:10.111Z</time></trkpt><trkpt lat="35.9346848" lon="10.0185188"><ele>72.0</ele><time>2026-04-24T15:33:11.1Z</time></trkpt><trkpt lat="35.9346175" lon="10.0184713"><ele>72.0</ele><time>2026-04-24T15:33:12.115Z</time></trkpt><trkpt lat="35.9345441" lon="10.0184186"><ele>72.0</ele><time>2026-04-24T15:33:13.125Z</time></trkpt><trkpt lat="35.9344587" lon="10.0183692"><ele>72.0</ele><time>2026-04-24T15:33:14.096Z</time></trkpt><trkpt lat="35.9343748" lon="10.018328"><ele>72.0</ele><time>2026-04-24T15:33:15.118Z</time></trkpt><trkpt lat="35.934292" lon="10.0182816"><ele>72.0</ele><time>2026-04-24T15:33:16.095Z</time></trkpt><trkpt lat="35.9342095" lon="10.0182385"><ele>71.8</ele><time>2026-04-24T15:33:17.105Z</time></trkpt><trkpt lat="35.9341232" lon="10.0181892"><ele>71.6</ele><time>2026-04-24T15:33:18.118Z</time></trkpt><trkpt lat="35.9340387" lon="10.0181358"><ele>71.39999999999999</ele><time>2026-04-24T15:33:19.126Z</time></trkpt><trkpt lat="35.9339569" lon="10.0180839"><ele>71.2</ele><time>2026-04-24T15:33:20.109Z</time></trkpt><trkpt lat="35.9338754" lon="10.0180328"><ele>71.0</ele><time>2026-04-24T15:33:21.097Z</time></trkpt><trkpt lat="35.9337999" lon="10.0179883"><ele>71.0</ele><time>2026-04-24T15:33:22.117Z</time></trkpt><trkpt lat="35.9337184" lon="10.0179426"><ele>71.0</ele><time>2026-04-24T15:33:23.113Z</time></trkpt><trkpt lat="35.9336448" lon="10.0179001"><ele>71.0</ele><time>2026-04-24T15:33:24.119Z</time></trkpt><trkpt lat="35.9335727" lon="10.0178519"><ele>71.0</ele><time>2026-04-24T15:33:25.11Z</time></trkpt><trkpt lat="35.9335075" lon="10.0178097"><ele>71.0</ele><time>2026-04-24T15:33:26.107Z</time></trkpt><trkpt lat="35.9334476" lon="10.0177762"><ele>71.0</ele><time>2026-04-24T15:33:27.116Z</time></trkpt><trkpt lat="35.9333861" lon="10.017742"><ele>71.2</ele><time>2026-04-24T15:33:28.111Z</time></trkpt><trkpt lat="35.9332702" lon="10.0176732"><ele>71.39999999999999</ele><time>2026-04-24T15:33:30.114Z</time></trkpt><trkpt lat="35.9332084" lon="10.0176438"><ele>71.6</ele><time>2026-04-24T15:33:31.108Z</time></trkpt><trkpt lat="35.9331038" lon="10.0175941"><ele>71.8</ele><time>2026-04-24T15:33:33.115Z</time></trkpt><trkpt lat="35.933021" lon="10.0175395"><ele>72.0</ele><time>2026-04-24T15:33:35.093Z</time></trkpt><trkpt lat="35.9329508" lon="10.0174703"><ele>71.66666666666667</ele><time>2026-04-24T15:33:37.112Z</time></trkpt><trkpt lat="35.9328668" lon="10.0173999"><ele>71.33333333333333</ele><time>2026-04-24T15:33:39.096Z</time></trkpt><trkpt lat="35.9327845" lon="10.0173305"><ele>71.0</ele><time>2026-04-24T15:33:41.112Z</time></trkpt><trkpt lat="35.9327163" lon="10.0173167"><ele>70.66666666666666</ele><time>2026-04-24T15:33:43.099Z</time></trkpt><trkpt lat="35.9326424" lon="10.0173394"><ele>70.33333333333333</ele><time>2026-04-24T15:33:45.101Z</time></trkpt><trkpt lat="35.9325732" lon="10.0173971"><ele>70.0</ele><time>2026-04-24T15:33:47.1Z</time></trkpt><trkpt lat="35.9325356" lon="10.0174965"><ele>69.66666666666666</ele><time>2026-04-24T15:33:49.115Z</time></trkpt><trkpt lat="35.9325346" lon="10.0176153"><ele>69.33333333333333</ele><time>2026-04-24T15:33:51.105Z</time></trkpt><trkpt lat="35.9325596" lon="10.0177203"><ele>69.0</ele><time>2026-04-24T15:33:53.12Z</time></trkpt><trkpt lat="35.9325664" lon="10.0177997"><ele>68.66666666666667</ele><time>2026-04-24T15:33:55.095Z</time></trkpt><trkpt lat="35.9325672" lon="10.0178789"><ele>68.33333333333334</ele><time>2026-04-24T15:34:00.103Z</time></trkpt><trkpt lat="35.9325842" lon="10.0180238"><ele>68.0</ele><time>2026-04-24T15:34:53.109Z</time></trkpt><trkpt lat="35.9325902" lon="10.0181649"><ele>68.33333333333334</ele><time>2026-04-24T15:34:55.099Z</time></trkpt><trkpt lat="35.9325905" lon="10.018246"><ele>68.66666666666667</ele><time>2026-04-24T15:34:56.102Z</time></trkpt><trkpt lat="35.9325874" lon="10.0183982"><ele>69.0</ele><time>2026-04-24T15:34:58.091Z</time></trkpt><trkpt lat="35.9325827" lon="10.0184815"><ele>69.33333333333333</ele><time>2026-04-24T15:34:59.084Z</time></trkpt><trkpt lat="35.9325756" lon="10.0185735"><ele>69.66666666666666</ele><time>2026-04-24T15:35:00.076Z</time></trkpt><trkpt lat="35.9325683" lon="10.0186731"><ele>70.0</ele><time>2026-04-24T15:35:01.127Z</time></trkpt><trkpt lat="35.9325696" lon="10.0187729"><ele>70.0</ele><time>2026-04-24T15:35:02.097Z</time></trkpt><trkpt lat="35.9325654" lon="10.0188688"><ele>70.0</ele><time>2026-04-24T15:35:03.09Z</time></trkpt><trkpt lat="35.9325556" lon="10.0190381"><ele>70.0</ele><time>2026-04-24T15:35:05.103Z</time></trkpt><trkpt lat="35.9325403" lon="10.0191994"><ele>70.0</ele><time>2026-04-24T15:35:07.121Z</time></trkpt><trkpt lat="35.9325132" lon="10.0195059"><ele>69.8</ele><time>2026-04-24T15:35:11.077Z</time></trkpt><trkpt lat="35.9325078" lon="10.0196476"><ele>69.6</ele><time>2026-04-24T15:35:13.119Z</time></trkpt><trkpt lat="35.9325017" lon="10.0197291"><ele>69.4</ele><time>2026-04-24T15:35:14.11Z</time></trkpt><trkpt lat="35.9324918" lon="10.019814"><ele>69.2</ele><time>2026-04-24T15:35:15.083Z</time></trkpt><trkpt lat="35.9324673" lon="10.019973"><ele>69.0</ele><time>2026-04-24T15:35:17.135Z</time></trkpt><trkpt lat="35.9324658" lon="10.020061"><ele>69.0</ele><time>2026-04-24T15:35:18.136Z</time></trkpt><trkpt lat="35.932461" lon="10.0201528"><ele>69.0</ele><time>2026-04-24T15:35:19.118Z</time></trkpt><trkpt lat="35.93245" lon="10.0202463"><ele>69.0</ele><time>2026-04-24T15:35:20.108Z</time></trkpt><trkpt lat="35.9324479" lon="10.0203362"><ele>69.0</ele><time>2026-04-24T15:35:21.081Z</time></trkpt><trkpt lat="35.9324439" lon="10.0204346"><ele>69.0</ele><time>2026-04-24T15:35:22.087Z</time></trkpt><trkpt lat="35.9324341" lon="10.0205326"><ele>69.0</ele><time>2026-04-24T15:35:23.09Z</time></trkpt><trkpt lat="35.9324302" lon="10.0206263"><ele>69.0</ele><time>2026-04-24T15:35:24.095Z</time></trkpt><trkpt lat="35.9324234" lon="10.0207187"><ele>69.0</ele><time>2026-04-24T15:35:25.12Z</time></trkpt><trkpt lat="35.9324152" lon="10.0208066"><ele>69.0</ele><time>2026-04-24T15:35:26.075Z</time></trkpt><trkpt lat="35.9324115" lon="10.0208882"><ele>69.0</ele><time>2026-04-24T15:35:27.093Z</time></trkpt><trkpt lat="35.9323961" lon="10.0210326"><ele>69.0</ele><time>2026-04-24T15:35:29.084Z</time></trkpt><trkpt lat="35.9323842" lon="10.0211538"><ele>69.0</ele><time>2026-04-24T15:35:31.094Z</time></trkpt><trkpt lat="35.9323533" lon="10.0212583"><ele>69.0</ele><time>2026-04-24T15:35:33.108Z</time></trkpt><trkpt lat="35.9323069" lon="10.0213723"><ele>69.0</ele><time>2026-04-24T15:35:35.114Z</time></trkpt><trkpt lat="35.9322534" lon="10.0214826"><ele>69.0</ele><time>2026-04-24T15:35:37.108Z</time></trkpt><trkpt lat="35.9322271" lon="10.0216085"><ele>69.0</ele><time>2026-04-24T15:35:39.113Z</time></trkpt><trkpt lat="35.9322289" lon="10.0217568"><ele>69.0</ele><time>2026-04-24T15:35:41.137Z</time></trkpt><trkpt lat="35.9322185" lon="10.0218939"><ele>69.0</ele><time>2026-04-24T15:35:43.117Z</time></trkpt><trkpt lat="35.9322016" lon="10.0220103"><ele>69.0</ele><time>2026-04-24T15:35:45.105Z</time></trkpt><trkpt lat="35.9321484" lon="10.0220909"><ele>69.0</ele><time>2026-04-24T15:35:47.095Z</time></trkpt><trkpt lat="35.9320773" lon="10.0221799"><ele>69.0</ele><time>2026-04-24T15:35:49.105Z</time></trkpt><trkpt lat="35.9319925" lon="10.0222661"><ele>69.0</ele><time>2026-04-24T15:35:51.087Z</time></trkpt><trkpt lat="35.9319092" lon="10.022357"><ele>69.0</ele><time>2026-04-24T15:35:53.118Z</time></trkpt><trkpt lat="35.9318347" lon="10.0224427"><ele>69.0</ele><time>2026-04-24T15:35:55.111Z</time></trkpt><trkpt lat="35.9317744" lon="10.0225162"><ele>69.0</ele><time>2026-04-24T15:35:57.098Z</time></trkpt><trkpt lat="35.931712" lon="10.0225843"><ele>69.0</ele><time>2026-04-24T15:35:59.104Z</time></trkpt><trkpt lat="35.9316617" lon="10.0226497"><ele>69.0</ele><time>2026-04-24T15:36:01.113Z</time></trkpt><trkpt lat="35.9315903" lon="10.0227336"><ele>69.0</ele><time>2026-04-24T15:36:03.094Z</time></trkpt><trkpt lat="35.9315003" lon="10.022826"><ele>69.60000000000001</ele><time>2026-04-24T15:36:05.107Z</time></trkpt><trkpt lat="35.9314176" lon="10.0229231"><ele>70.2</ele><time>2026-04-24T15:36:07.094Z</time></trkpt><trkpt lat="35.9313742" lon="10.0229798"><ele>70.80000000000001</ele><time>2026-04-24T15:36:08.1Z</time></trkpt><trkpt lat="35.9313294" lon="10.0230504"><ele>71.4</ele><time>2026-04-24T15:36:09.11Z</time></trkpt><trkpt lat="35.9312275" lon="10.0232024"><ele>72.0</ele><time>2026-04-24T15:36:11.106Z</time></trkpt><trkpt lat="35.9311726" lon="10.0232789"><ele>72.0</ele><time>2026-04-24T15:36:12.12Z</time></trkpt><trkpt lat="35.9311161" lon="10.0233439"><ele>72.0</ele><time>2026-04-24T15:36:13.098Z</time></trkpt><trkpt lat="35.9310326" lon="10.0234207"><ele>72.0</ele><time>2026-04-24T15:36:15.101Z</time></trkpt><trkpt lat="35.9310133" lon="10.0234998"><ele>72.0</ele><time>2026-04-24T15:36:18.102Z</time></trkpt><trkpt lat="35.9309408" lon="10.0235826"><ele>72.0</ele><time>2026-04-24T15:36:20.117Z</time></trkpt><trkpt lat="35.930889" lon="10.0236318"><ele>72.0</ele><time>2026-04-24T15:36:21.099Z</time></trkpt><trkpt lat="35.9308336" lon="10.0236834"><ele>71.5</ele><time>2026-04-24T15:36:22.119Z</time></trkpt><trkpt lat="35.9307708" lon="10.0237497"><ele>71.0</ele><time>2026-04-24T15:36:23.111Z</time></trkpt><trkpt lat="35.9307052" lon="10.0238169"><ele>70.5</ele><time>2026-04-24T15:36:24.118Z</time></trkpt><trkpt lat="35.9306473" lon="10.0238827"><ele>70.0</ele><time>2026-04-24T15:36:25.094Z</time></trkpt><trkpt lat="35.9305895" lon="10.0239532"><ele>69.5</ele><time>2026-04-24T15:36:26.105Z</time></trkpt><trkpt lat="35.9305296" lon="10.0240295"><ele>69.0</ele><time>2026-04-24T15:36:27.117Z</time></trkpt><trkpt lat="35.9304684" lon="10.0241061"><ele>68.66666666666667</ele><time>2026-04-24T15:36:28.154Z</time></trkpt><trkpt lat="35.9304059" lon="10.0241798"><ele>68.33333333333333</ele><time>2026-04-24T15:36:29.11Z</time></trkpt><trkpt lat="35.9303456" lon="10.0242566"><ele>68.0</ele><time>2026-04-24T15:36:30.086Z</time></trkpt><trkpt lat="35.930282" lon="10.0243342"><ele>67.66666666666666</ele><time>2026-04-24T15:36:31.104Z</time></trkpt><trkpt lat="35.9302215" lon="10.0244119"><ele>67.33333333333333</ele><time>2026-04-24T15:36:32.098Z</time></trkpt><trkpt lat="35.9301678" lon="10.0244898"><ele>67.0</ele><time>2026-04-24T15:36:33.109Z</time></trkpt><trkpt lat="35.930115" lon="10.0245664"><ele>67.0</ele><time>2026-04-24T15:36:34.087Z</time></trkpt><trkpt lat="35.9300629" lon="10.0246389"><ele>67.0</ele><time>2026-04-24T15:36:35.097Z</time></trkpt><trkpt lat="35.9300038" lon="10.0247103"><ele>67.0</ele><time>2026-04-24T15:36:36.108Z</time></trkpt><trkpt lat="35.929941" lon="10.0247788"><ele>67.0</ele><time>2026-04-24T15:36:37.123Z</time></trkpt><trkpt lat="35.9298762" lon="10.0248574"><ele>67.0</ele><time>2026-04-24T15:36:38.103Z</time></trkpt><trkpt lat="35.9298075" lon="10.0249328"><ele>67.0</ele><time>2026-04-24T15:36:39.108Z</time></trkpt><trkpt lat="35.9297434" lon="10.0250069"><ele>66.6</ele><time>2026-04-24T15:36:40.09Z</time></trkpt><trkpt lat="35.9296754" lon="10.025083"><ele>66.2</ele><time>2026-04-24T15:36:41.117Z</time></trkpt><trkpt lat="35.9296078" lon="10.0251546"><ele>65.8</ele><time>2026-04-24T15:36:42.112Z</time></trkpt><trkpt lat="35.9295407" lon="10.0252228"><ele>65.4</ele><time>2026-04-24T15:36:43.126Z</time></trkpt><trkpt lat="35.9294714" lon="10.0252909"><ele>65.0</ele><time>2026-04-24T15:36:44.113Z</time></trkpt><trkpt lat="35.9293953" lon="10.0253579"><ele>65.0</ele><time>2026-04-24T15:36:45.114Z</time></trkpt><trkpt lat="35.9293263" lon="10.0254204"><ele>65.0</ele><time>2026-04-24T15:36:46.101Z</time></trkpt><trkpt lat="35.9292579" lon="10.0254742"><ele>65.0</ele><time>2026-04-24T15:36:47.118Z</time></trkpt><trkpt lat="35.9291983" lon="10.02552"><ele>65.0</ele><time>2026-04-24T15:36:48.125Z</time></trkpt><trkpt lat="35.9291396" lon="10.0255645"><ele>65.0</ele><time>2026-04-24T15:36:49.096Z</time></trkpt><trkpt lat="35.9290221" lon="10.0256432"><ele>65.0</ele><time>2026-04-24T15:36:51.115Z</time></trkpt><trkpt lat="35.9289474" lon="10.0256933"><ele>65.0</ele><time>2026-04-24T15:36:52.112Z</time></trkpt><trkpt lat="35.9288685" lon="10.0257432"><ele>65.0</ele><time>2026-04-24T15:36:53.116Z</time></trkpt><trkpt lat="35.9287863" lon="10.0258014"><ele>65.0</ele><time>2026-04-24T15:36:54.105Z</time></trkpt><trkpt lat="35.928693" lon="10.0258613"><ele>65.0</ele><time>2026-04-24T15:36:55.111Z</time></trkpt><trkpt lat="35.9285995" lon="10.0259219"><ele>65.0</ele><time>2026-04-24T15:36:56.121Z</time></trkpt><trkpt lat="35.9285021" lon="10.0259846"><ele>65.0</ele><time>2026-04-24T15:36:57.117Z</time></trkpt><trkpt lat="35.928408" lon="10.0260367"><ele>65.0</ele><time>2026-04-24T15:36:58.123Z</time></trkpt><trkpt lat="35.9283164" lon="10.0261007"><ele>65.0</ele><time>2026-04-24T15:36:59.108Z</time></trkpt><trkpt lat="35.9282241" lon="10.0261661"><ele>65.0</ele><time>2026-04-24T15:37:00.114Z</time></trkpt><trkpt lat="35.9281367" lon="10.0262281"><ele>65.0</ele><time>2026-04-24T15:37:01.108Z</time></trkpt><trkpt lat="35.9280548" lon="10.0262871"><ele>64.8</ele><time>2026-04-24T15:37:02.096Z</time></trkpt><trkpt lat="35.9279703" lon="10.0263478"><ele>64.6</ele><time>2026-04-24T15:37:03.114Z</time></trkpt><trkpt lat="35.9278852" lon="10.0264211"><ele>64.4</ele><time>2026-04-24T15:37:04.106Z</time></trkpt><trkpt lat="35.9277977" lon="10.0265104"><ele>64.2</ele><time>2026-04-24T15:37:05.108Z</time></trkpt><trkpt lat="35.9277159" lon="10.0265969"><ele>64.0</ele><time>2026-04-24T15:37:06.116Z</time></trkpt><trkpt lat="35.9276331" lon="10.0266996"><ele>63.75</ele><time>2026-04-24T15:37:07.113Z</time></trkpt><trkpt lat="35.9275516" lon="10.0268094"><ele>63.5</ele><time>2026-04-24T15:37:08.102Z</time></trkpt><trkpt lat="35.927483" lon="10.0269196"><ele>63.25</ele><time>2026-04-24T15:37:09.117Z</time></trkpt><trkpt lat="35.927421" lon="10.0270346"><ele>63.0</ele><time>2026-04-24T15:37:10.118Z</time></trkpt><trkpt lat="35.927351" lon="10.0271578"><ele>63.0</ele><time>2026-04-24T15:37:11.114Z</time></trkpt><trkpt lat="35.9272855" lon="10.0272837"><ele>63.0</ele><time>2026-04-24T15:37:12.097Z</time></trkpt><trkpt lat="35.9272162" lon="10.0274205"><ele>63.0</ele><time>2026-04-24T15:37:13.113Z</time></trkpt><trkpt lat="35.9271414" lon="10.027558"><ele>63.0</ele><time>2026-04-24T15:37:14.113Z</time></trkpt><trkpt lat="35.9270586" lon="10.0277008"><ele>64.0</ele><time>2026-04-24T15:37:15.121Z</time></trkpt><trkpt lat="35.9269757" lon="10.0278545"><ele>65.0</ele><time>2026-04-24T15:37:16.105Z</time></trkpt><trkpt lat="35.9268832" lon="10.0280106"><ele>66.0</ele><time>2026-04-24T15:37:17.114Z</time></trkpt><trkpt lat="35.9267888" lon="10.0281691"><ele>66.0</ele><time>2026-04-24T15:37:18.095Z</time></trkpt><trkpt lat="35.9266831" lon="10.0283282"><ele>66.0</ele><time>2026-04-24T15:37:19.114Z</time></trkpt><trkpt lat="35.9265811" lon="10.0284876"><ele>66.0</ele><time>2026-04-24T15:37:20.107Z</time></trkpt><trkpt lat="35.9264769" lon="10.028641"><ele>66.0</ele><time>2026-04-24T15:37:21.108Z</time></trkpt><trkpt lat="35.9263697" lon="10.028794"><ele>66.0</ele><time>2026-04-24T15:37:22.099Z</time></trkpt><trkpt lat="35.9262588" lon="10.0289393"><ele>66.0</ele><time>2026-04-24T15:37:23.106Z</time></trkpt><trkpt lat="35.9261446" lon="10.0290828"><ele>65.66666666666667</ele><time>2026-04-24T15:37:24.12Z</time></trkpt><trkpt lat="35.9260258" lon="10.0292247"><ele>65.33333333333334</ele><time>2026-04-24T15:37:25.104Z</time></trkpt><trkpt lat="35.9259118" lon="10.0293678"><ele>65.0</ele><time>2026-04-24T15:37:26.098Z</time></trkpt><trkpt lat="35.9257946" lon="10.0295133"><ele>65.66666666666667</ele><time>2026-04-24T15:37:27.114Z</time></trkpt><trkpt lat="35.9256785" lon="10.029649"><ele>66.33333333333333</ele><time>2026-04-24T15:37:28.111Z</time></trkpt><trkpt lat="35.9255653" lon="10.0297828"><ele>67.0</ele><time>2026-04-24T15:37:29.098Z</time></trkpt><trkpt lat="35.9254591" lon="10.0299229"><ele>67.0</ele><time>2026-04-24T15:37:30.093Z</time></trkpt><trkpt lat="35.9253524" lon="10.0300596"><ele>67.0</ele><time>2026-04-24T15:37:31.109Z</time></trkpt><trkpt lat="35.9252484" lon="10.030205"><ele>67.0</ele><time>2026-04-24T15:37:32.087Z</time></trkpt><trkpt lat="35.9251409" lon="10.0303387"><ele>66.0</ele><time>2026-04-24T15:37:33.094Z</time></trkpt><trkpt lat="35.9250334" lon="10.0304745"><ele>65.0</ele><time>2026-04-24T15:37:34.1Z</time></trkpt><trkpt lat="35.9249285" lon="10.0306128"><ele>64.0</ele><time>2026-04-24T15:37:35.1Z</time></trkpt><trkpt lat="35.9248271" lon="10.0307477"><ele>64.5</ele><time>2026-04-24T15:37:36.114Z</time></trkpt><trkpt lat="35.9247212" lon="10.0308768"><ele>65.0</ele><time>2026-04-24T15:37:37.121Z</time></trkpt><trkpt lat="35.9246208" lon="10.0309995"><ele>65.5</ele><time>2026-04-24T15:37:38.116Z</time></trkpt><trkpt lat="35.9245152" lon="10.0311302"><ele>66.0</ele><time>2026-04-24T15:37:39.106Z</time></trkpt><trkpt lat="35.9244151" lon="10.0312564"><ele>66.0</ele><time>2026-04-24T15:37:40.1Z</time></trkpt><trkpt lat="35.9243135" lon="10.0313917"><ele>66.0</ele><time>2026-04-24T15:37:41.099Z</time></trkpt><trkpt lat="35.9242113" lon="10.0315199"><ele>66.0</ele><time>2026-04-24T15:37:42.109Z</time></trkpt><trkpt lat="35.9241073" lon="10.0316434"><ele>66.0</ele><time>2026-04-24T15:37:43.098Z</time></trkpt><trkpt lat="35.9239958" lon="10.0317742"><ele>66.0</ele><time>2026-04-24T15:37:44.115Z</time></trkpt><trkpt lat="35.9238856" lon="10.0319002"><ele>66.0</ele><time>2026-04-24T15:37:45.106Z</time></trkpt><trkpt lat="35.9237766" lon="10.0320228"><ele>66.0</ele><time>2026-04-24T15:37:46.132Z</time></trkpt><trkpt lat="35.9236619" lon="10.0321454"><ele>66.0</ele><time>2026-04-24T15:37:47.099Z</time></trkpt><trkpt lat="35.9235484" lon="10.0322685"><ele>66.0</ele><time>2026-04-24T15:37:48.098Z</time></trkpt><trkpt lat="35.9234352" lon="10.0323964"><ele>66.0</ele><time>2026-04-24T15:37:49.106Z</time></trkpt><trkpt lat="35.9233249" lon="10.032525"><ele>66.0</ele><time>2026-04-24T15:37:50.107Z</time></trkpt><trkpt lat="35.9232119" lon="10.0326487"><ele>64.66666666666667</ele><time>2026-04-24T15:37:51.099Z</time></trkpt><trkpt lat="35.9230957" lon="10.0327708"><ele>63.333333333333336</ele><time>2026-04-24T15:37:52.11Z</time></trkpt><trkpt lat="35.9229796" lon="10.0328878"><ele>62.0</ele><time>2026-04-24T15:37:53.112Z</time></trkpt><trkpt lat="35.9228639" lon="10.0330102"><ele>62.0</ele><time>2026-04-24T15:37:54.115Z</time></trkpt><trkpt lat="35.9227412" lon="10.0331416"><ele>62.0</ele><time>2026-04-24T15:37:55.119Z</time></trkpt><trkpt lat="35.9226244" lon="10.0332828"><ele>62.0</ele><time>2026-04-24T15:37:56.094Z</time></trkpt><trkpt lat="35.9225148" lon="10.0334193"><ele>62.0</ele><time>2026-04-24T15:37:57.115Z</time></trkpt><trkpt lat="35.9224018" lon="10.033556"><ele>62.0</ele><time>2026-04-24T15:37:58.093Z</time></trkpt><trkpt lat="35.922285" lon="10.0336828"><ele>62.0</ele><time>2026-04-24T15:37:59.105Z</time></trkpt><trkpt lat="35.9221673" lon="10.0337993"><ele>62.0</ele><time>2026-04-24T15:38:00.096Z</time></trkpt><trkpt lat="35.922055" lon="10.0339135"><ele>62.0</ele><time>2026-04-24T15:38:01.108Z</time></trkpt><trkpt lat="35.9219439" lon="10.0340326"><ele>62.0</ele><time>2026-04-24T15:38:02.1Z</time></trkpt><trkpt lat="35.9218236" lon="10.0341505"><ele>62.0</ele><time>2026-04-24T15:38:03.109Z</time></trkpt><trkpt lat="35.9217109" lon="10.0342697"><ele>61.66666666666667</ele><time>2026-04-24T15:38:04.108Z</time></trkpt><trkpt lat="35.9215989" lon="10.034388"><ele>61.33333333333333</ele><time>2026-04-24T15:38:05.095Z</time></trkpt><trkpt lat="35.9214826" lon="10.0345072"><ele>61.0</ele><time>2026-04-24T15:38:06.116Z</time></trkpt><trkpt lat="35.9213626" lon="10.0346319"><ele>61.0</ele><time>2026-04-24T15:38:07.117Z</time></trkpt><trkpt lat="35.9212409" lon="10.0347616"><ele>61.0</ele><time>2026-04-24T15:38:08.119Z</time></trkpt><trkpt lat="35.9211198" lon="10.0348831"><ele>61.0</ele><time>2026-04-24T15:38:09.105Z</time></trkpt><trkpt lat="35.9210045" lon="10.0350183"><ele>61.0</ele><time>2026-04-24T15:38:10.117Z</time></trkpt><trkpt lat="35.9208996" lon="10.0351565"><ele>61.0</ele><time>2026-04-24T15:38:11.111Z</time></trkpt><trkpt lat="35.9208028" lon="10.0353053"><ele>61.0</ele><time>2026-04-24T15:38:12.1Z</time></trkpt><trkpt lat="35.9207207" lon="10.03546"><ele>61.0</ele><time>2026-04-24T15:38:13.116Z</time></trkpt><trkpt lat="35.9206492" lon="10.0356296"><ele>61.0</ele><time>2026-04-24T15:38:14.11Z</time></trkpt><trkpt lat="35.9205807" lon="10.0357896"><ele>61.0</ele><time>2026-04-24T15:38:15.116Z</time></trkpt><trkpt lat="35.9205059" lon="10.035955"><ele>61.0</ele><time>2026-04-24T15:38:16.106Z</time></trkpt><trkpt lat="35.9204269" lon="10.0361172"><ele>61.0</ele><time>2026-04-24T15:38:17.112Z</time></trkpt><trkpt lat="35.9203481" lon="10.0362834"><ele>61.0</ele><time>2026-04-24T15:38:18.107Z</time></trkpt><trkpt lat="35.9202697" lon="10.0364511"><ele>61.0</ele><time>2026-04-24T15:38:19.113Z</time></trkpt><trkpt lat="35.92019" lon="10.036621"><ele>61.0</ele><time>2026-04-24T15:38:20.096Z</time></trkpt><trkpt lat="35.9201135" lon="10.0367877"><ele>61.0</ele><time>2026-04-24T15:38:21.099Z</time></trkpt><trkpt lat="35.9200349" lon="10.0369547"><ele>61.0</ele><time>2026-04-24T15:38:22.12Z</time></trkpt><trkpt lat="35.9199611" lon="10.0371174"><ele>61.0</ele><time>2026-04-24T15:38:23.107Z</time></trkpt><trkpt lat="35.919882" lon="10.0372757"><ele>61.0</ele><time>2026-04-24T15:38:24.127Z</time></trkpt><trkpt lat="35.9198091" lon="10.0374342"><ele>61.0</ele><time>2026-04-24T15:38:25.108Z</time></trkpt><trkpt lat="35.9197342" lon="10.037595"><ele>60.666666666666664</ele><time>2026-04-24T15:38:26.13Z</time></trkpt><trkpt lat="35.9196538" lon="10.0377602"><ele>60.33333333333333</ele><time>2026-04-24T15:38:27.094Z</time></trkpt><trkpt lat="35.9195723" lon="10.037932"><ele>60.0</ele><time>2026-04-24T15:38:28.102Z</time></trkpt><trkpt lat="35.9194941" lon="10.038105"><ele>60.0</ele><time>2026-04-24T15:38:29.098Z</time></trkpt><trkpt lat="35.9194186" lon="10.0382666"><ele>60.0</ele><time>2026-04-24T15:38:30.123Z</time></trkpt><trkpt lat="35.9193438" lon="10.0384277"><ele>60.0</ele><time>2026-04-24T15:38:31.117Z</time></trkpt><trkpt lat="35.9192695" lon="10.0385856"><ele>60.0</ele><time>2026-04-24T15:38:32.121Z</time></trkpt><trkpt lat="35.9191976" lon="10.0387419"><ele>60.25</ele><time>2026-04-24T15:38:33.137Z</time></trkpt><trkpt lat="35.919124" lon="10.0389008"><ele>60.5</ele><time>2026-04-24T15:38:34.12Z</time></trkpt><trkpt lat="35.9190496" lon="10.0390605"><ele>60.75</ele><time>2026-04-24T15:38:35.1Z</time></trkpt><trkpt lat="35.9189731" lon="10.0392187"><ele>61.0</ele><time>2026-04-24T15:38:36.115Z</time></trkpt><trkpt lat="35.9188971" lon="10.039372"><ele>61.5</ele><time>2026-04-24T15:38:37.11Z</time></trkpt><trkpt lat="35.9188226" lon="10.0395257"><ele>62.0</ele><time>2026-04-24T15:38:38.12Z</time></trkpt><trkpt lat="35.9187471" lon="10.0396787"><ele>62.5</ele><time>2026-04-24T15:38:39.103Z</time></trkpt><trkpt lat="35.91867" lon="10.0398351"><ele>63.0</ele><time>2026-04-24T15:38:40.104Z</time></trkpt><trkpt lat="35.9185944" lon="10.0399963"><ele>63.33333333333333</ele><time>2026-04-24T15:38:41.109Z</time></trkpt><trkpt lat="35.9185223" lon="10.0401597"><ele>63.666666666666664</ele><time>2026-04-24T15:38:42.099Z</time></trkpt><trkpt lat="35.9184496" lon="10.0403216"><ele>64.0</ele><time>2026-04-24T15:38:43.095Z</time></trkpt><trkpt lat="35.9183749" lon="10.0404893"><ele>63.0</ele><time>2026-04-24T15:38:44.108Z</time></trkpt><trkpt lat="35.9182948" lon="10.0406593"><ele>62.0</ele><time>2026-04-24T15:38:45.119Z</time></trkpt><trkpt lat="35.9182131" lon="10.0408272"><ele>61.0</ele><time>2026-04-24T15:38:46.086Z</time></trkpt><trkpt lat="35.9181327" lon="10.0409966"><ele>61.0</ele><time>2026-04-24T15:38:47.124Z</time></trkpt><trkpt lat="35.918052" lon="10.0411672"><ele>61.0</ele><time>2026-04-24T15:38:48.098Z</time></trkpt><trkpt lat="35.9179767" lon="10.0413376"><ele>61.0</ele><time>2026-04-24T15:38:49.111Z</time></trkpt><trkpt lat="35.9178986" lon="10.0415109"><ele>61.0</ele><time>2026-04-24T15:38:50.117Z</time></trkpt><trkpt lat="35.9178214" lon="10.041677"><ele>61.0</ele><time>2026-04-24T15:38:51.097Z</time></trkpt><trkpt lat="35.9177445" lon="10.0418518"><ele>61.0</ele><time>2026-04-24T15:38:52.133Z</time></trkpt><trkpt lat="35.9176599" lon="10.0420294"><ele>61.0</ele><time>2026-04-24T15:38:53.104Z</time></trkpt><trkpt lat="35.917572" lon="10.0422132"><ele>61.0</ele><time>2026-04-24T15:38:54.11Z</time></trkpt><trkpt lat="35.9174859" lon="10.0423962"><ele>61.0</ele><time>2026-04-24T15:38:55.098Z</time></trkpt><trkpt lat="35.9174032" lon="10.0425734"><ele>61.33333333333333</ele><time>2026-04-24T15:38:56.101Z</time></trkpt><trkpt lat="35.9173273" lon="10.0427508"><ele>61.66666666666667</ele><time>2026-04-24T15:38:57.124Z</time></trkpt><trkpt lat="35.9172486" lon="10.0429272"><ele>62.0</ele><time>2026-04-24T15:38:58.118Z</time></trkpt><trkpt lat="35.9171648" lon="10.043103"><ele>62.0</ele><time>2026-04-24T15:38:59.101Z</time></trkpt><trkpt lat="35.917079" lon="10.0432765"><ele>62.0</ele><time>2026-04-24T15:39:00.106Z</time></trkpt><trkpt lat="35.9169899" lon="10.0434461"><ele>62.0</ele><time>2026-04-24T15:39:01.11Z</time></trkpt><trkpt lat="35.9168987" lon="10.0436154"><ele>61.333333333333336</ele><time>2026-04-24T15:39:02.122Z</time></trkpt><trkpt lat="35.9168139" lon="10.0437896"><ele>60.66666666666667</ele><time>2026-04-24T15:39:03.092Z</time></trkpt><trkpt lat="35.9167319" lon="10.0439663"><ele>60.0</ele><time>2026-04-24T15:39:04.105Z</time></trkpt><trkpt lat="35.916653" lon="10.0441408"><ele>59.33333333333333</ele><time>2026-04-24T15:39:05.124Z</time></trkpt><trkpt lat="35.9165708" lon="10.0443163"><ele>58.666666666666664</ele><time>2026-04-24T15:39:06.125Z</time></trkpt><trkpt lat="35.9164911" lon="10.044487"><ele>58.0</ele><time>2026-04-24T15:39:07.106Z</time></trkpt><trkpt lat="35.9164089" lon="10.0446583"><ele>58.0</ele><time>2026-04-24T15:39:08.105Z</time></trkpt><trkpt lat="35.9163276" lon="10.044829"><ele>58.0</ele><time>2026-04-24T15:39:09.111Z</time></trkpt><trkpt lat="35.9162469" lon="10.0449964"><ele>58.0</ele><time>2026-04-24T15:39:10.121Z</time></trkpt><trkpt lat="35.9161677" lon="10.0451664"><ele>58.33333333333333</ele><time>2026-04-24T15:39:11.116Z</time></trkpt><trkpt lat="35.9160867" lon="10.0453422"><ele>58.66666666666667</ele><time>2026-04-24T15:39:12.096Z</time></trkpt><trkpt lat="35.9160021" lon="10.0455183"><ele>59.0</ele><time>2026-04-24T15:39:13.106Z</time></trkpt><trkpt lat="35.9159147" lon="10.0456979"><ele>59.0</ele><time>2026-04-24T15:39:14.108Z</time></trkpt><trkpt lat="35.9158313" lon="10.0458671"><ele>59.0</ele><time>2026-04-24T15:39:15.135Z</time></trkpt><trkpt lat="35.915748" lon="10.046033"><ele>59.0</ele><time>2026-04-24T15:39:16.104Z</time></trkpt><trkpt lat="35.9156662" lon="10.0462025"><ele>59.0</ele><time>2026-04-24T15:39:17.112Z</time></trkpt><trkpt lat="35.9155869" lon="10.0463727"><ele>59.0</ele><time>2026-04-24T15:39:18.105Z</time></trkpt><trkpt lat="35.915506" lon="10.046539"><ele>59.0</ele><time>2026-04-24T15:39:19.111Z</time></trkpt><trkpt lat="35.9154216" lon="10.0467143"><ele>59.66666666666667</ele><time>2026-04-24T15:39:20.108Z</time></trkpt><trkpt lat="35.9153427" lon="10.0468812"><ele>60.33333333333333</ele><time>2026-04-24T15:39:21.106Z</time></trkpt><trkpt lat="35.915264" lon="10.0470521"><ele>61.0</ele><time>2026-04-24T15:39:22.107Z</time></trkpt><trkpt lat="35.9151856" lon="10.0472238"><ele>61.0</ele><time>2026-04-24T15:39:23.092Z</time></trkpt><trkpt lat="35.9151033" lon="10.0473968"><ele>61.0</ele><time>2026-04-24T15:39:24.111Z</time></trkpt><trkpt lat="35.9150219" lon="10.0475684"><ele>61.0</ele><time>2026-04-24T15:39:25.108Z</time></trkpt><trkpt lat="35.9149461" lon="10.0477348"><ele>60.0</ele><time>2026-04-24T15:39:26.132Z</time></trkpt><trkpt lat="35.9148661" lon="10.0478982"><ele>59.0</ele><time>2026-04-24T15:39:27.087Z</time></trkpt><trkpt lat="35.914785" lon="10.0480656"><ele>58.0</ele><time>2026-04-24T15:39:28.105Z</time></trkpt><trkpt lat="35.9147042" lon="10.0482286"><ele>58.25</ele><time>2026-04-24T15:39:29.119Z</time></trkpt><trkpt lat="35.9146327" lon="10.0483957"><ele>58.5</ele><time>2026-04-24T15:39:30.112Z</time></trkpt><trkpt lat="35.9145567" lon="10.0485522"><ele>58.75</ele><time>2026-04-24T15:39:31.102Z</time></trkpt><trkpt lat="35.9144828" lon="10.0487035"><ele>59.0</ele><time>2026-04-24T15:39:32.113Z</time></trkpt><trkpt lat="35.914407" lon="10.0488485"><ele>59.0</ele><time>2026-04-24T15:39:33.105Z</time></trkpt><trkpt lat="35.9143195" lon="10.0489829"><ele>59.0</ele><time>2026-04-24T15:39:34.111Z</time></trkpt><trkpt lat="35.9142279" lon="10.0491067"><ele>59.0</ele><time>2026-04-24T15:39:35.11Z</time></trkpt><trkpt lat="35.914133" lon="10.0492209"><ele>59.0</ele><time>2026-04-24T15:39:36.107Z</time></trkpt><trkpt lat="35.9140429" lon="10.0493203"><ele>58.400000000000006</ele><time>2026-04-24T15:39:37.107Z</time></trkpt><trkpt lat="35.9139576" lon="10.0494229"><ele>57.800000000000004</ele><time>2026-04-24T15:39:38.111Z</time></trkpt><trkpt lat="35.9138811" lon="10.0495093"><ele>57.199999999999996</ele><time>2026-04-24T15:39:39.106Z</time></trkpt><trkpt lat="35.9138025" lon="10.0495997"><ele>56.599999999999994</ele><time>2026-04-24T15:39:40.111Z</time></trkpt><trkpt lat="35.9137244" lon="10.0496879"><ele>56.0</ele><time>2026-04-24T15:39:41.11Z</time></trkpt><trkpt lat="35.9136441" lon="10.049778"><ele>56.0</ele><time>2026-04-24T15:39:42.113Z</time></trkpt><trkpt lat="35.9135651" lon="10.0498677"><ele>55.99999999999999</ele><time>2026-04-24T15:39:43.096Z</time></trkpt><trkpt lat="35.9134889" lon="10.0499528"><ele>55.99999999999999</ele><time>2026-04-24T15:39:44.12Z</time></trkpt><trkpt lat="35.9134106" lon="10.0500379"><ele>56.0</ele><time>2026-04-24T15:39:45.106Z</time></trkpt><trkpt lat="35.9133301" lon="10.0501196"><ele>56.0</ele><time>2026-04-24T15:39:46.113Z</time></trkpt><trkpt lat="35.913248" lon="10.0502071"><ele>56.4</ele><time>2026-04-24T15:39:47.099Z</time></trkpt><trkpt lat="35.9131689" lon="10.0502958"><ele>56.8</ele><time>2026-04-24T15:39:48.121Z</time></trkpt><trkpt lat="35.91309" lon="10.0503898"><ele>57.199999999999996</ele><time>2026-04-24T15:39:49.095Z</time></trkpt><trkpt lat="35.9130037" lon="10.0504771"><ele>57.599999999999994</ele><time>2026-04-24T15:39:50.109Z</time></trkpt><trkpt lat="35.9129185" lon="10.0505637"><ele>58.0</ele><time>2026-04-24T15:39:51.115Z</time></trkpt><trkpt lat="35.9128261" lon="10.0506534"><ele>58.0</ele><time>2026-04-24T15:39:52.121Z</time></trkpt><trkpt lat="35.91274" lon="10.0507489"><ele>58.0</ele><time>2026-04-24T15:39:53.119Z</time></trkpt><trkpt lat="35.9126624" lon="10.0508318"><ele>58.0</ele><time>2026-04-24T15:39:54.124Z</time></trkpt><trkpt lat="35.9125987" lon="10.0508979"><ele>58.0</ele><time>2026-04-24T15:39:55.101Z</time></trkpt><trkpt lat="35.9125326" lon="10.0509677"><ele>58.0</ele><time>2026-04-24T15:39:56.105Z</time></trkpt><trkpt lat="35.9124579" lon="10.0510406"><ele>58.0</ele><time>2026-04-24T15:39:57.109Z</time></trkpt><trkpt lat="35.9123814" lon="10.0511265"><ele>58.0</ele><time>2026-04-24T15:39:58.116Z</time></trkpt><trkpt lat="35.9122989" lon="10.051214"><ele>58.0</ele><time>2026-04-24T15:39:59.097Z</time></trkpt><trkpt lat="35.9122162" lon="10.051311"><ele>58.0</ele><time>2026-04-24T15:40:00.103Z</time></trkpt><trkpt lat="35.9121268" lon="10.0514065"><ele>58.0</ele><time>2026-04-24T15:40:01.116Z</time></trkpt><trkpt lat="35.9120416" lon="10.0515046"><ele>58.0</ele><time>2026-04-24T15:40:02.102Z</time></trkpt><trkpt lat="35.9119599" lon="10.0516065"><ele>58.0</ele><time>2026-04-24T15:40:03.103Z</time></trkpt><trkpt lat="35.9118777" lon="10.051703"><ele>58.0</ele><time>2026-04-24T15:40:04.1Z</time></trkpt><trkpt lat="35.9117955" lon="10.0518007"><ele>58.0</ele><time>2026-04-24T15:40:05.102Z</time></trkpt><trkpt lat="35.9117098" lon="10.0518977"><ele>58.4</ele><time>2026-04-24T15:40:06.112Z</time></trkpt><trkpt lat="35.9116297" lon="10.0519873"><ele>58.8</ele><time>2026-04-24T15:40:07.106Z</time></trkpt><trkpt lat="35.9115457" lon="10.0520717"><ele>59.2</ele><time>2026-04-24T15:40:08.119Z</time></trkpt><trkpt lat="35.9114719" lon="10.052158"><ele>59.6</ele><time>2026-04-24T15:40:09.112Z</time></trkpt><trkpt lat="35.911398" lon="10.0522451"><ele>60.0</ele><time>2026-04-24T15:40:10.106Z</time></trkpt><trkpt lat="35.9113286" lon="10.0523276"><ele>60.0</ele><time>2026-04-24T15:40:11.109Z</time></trkpt><trkpt lat="35.9112727" lon="10.0523985"><ele>60.0</ele><time>2026-04-24T15:40:12.103Z</time></trkpt><trkpt lat="35.9112229" lon="10.052457"><ele>60.0</ele><time>2026-04-24T15:40:13.115Z</time></trkpt><trkpt lat="35.9111327" lon="10.0525531"><ele>60.0</ele><time>2026-04-24T15:40:15.109Z</time></trkpt><trkpt lat="35.9110753" lon="10.0526202"><ele>60.0</ele><time>2026-04-24T15:40:16.108Z</time></trkpt><trkpt lat="35.9110136" lon="10.0526957"><ele>60.0</ele><time>2026-04-24T15:40:17.112Z</time></trkpt><trkpt lat="35.9109528" lon="10.0527683"><ele>60.333333333333336</ele><time>2026-04-24T15:40:18.112Z</time></trkpt><trkpt lat="35.9108908" lon="10.0528349"><ele>60.66666666666667</ele><time>2026-04-24T15:40:19.103Z</time></trkpt><trkpt lat="35.9108245" lon="10.0529096"><ele>61.0</ele><time>2026-04-24T15:40:20.11Z</time></trkpt><trkpt lat="35.9107607" lon="10.0529818"><ele>61.333333333333336</ele><time>2026-04-24T15:40:21.111Z</time></trkpt><trkpt lat="35.9106993" lon="10.0530532"><ele>61.66666666666667</ele><time>2026-04-24T15:40:22.12Z</time></trkpt><trkpt lat="35.9106362" lon="10.0531211"><ele>62.0</ele><time>2026-04-24T15:40:23.117Z</time></trkpt><trkpt lat="35.9105767" lon="10.0531968"><ele>62.00000000000001</ele><time>2026-04-24T15:40:24.132Z</time></trkpt><trkpt lat="35.9105157" lon="10.0532735"><ele>62.0</ele><time>2026-04-24T15:40:25.121Z</time></trkpt><trkpt lat="35.9104557" lon="10.0533531"><ele>62.0</ele><time>2026-04-24T15:40:26.108Z</time></trkpt><trkpt lat="35.9104015" lon="10.05343"><ele>62.0</ele><time>2026-04-24T15:40:27.105Z</time></trkpt><trkpt lat="35.9103484" lon="10.053502"><ele>62.00000000000001</ele><time>2026-04-24T15:40:28.084Z</time></trkpt><trkpt lat="35.9102971" lon="10.0535772"><ele>62.0</ele><time>2026-04-24T15:40:29.102Z</time></trkpt><trkpt lat="35.9102536" lon="10.0536473"><ele>61.833333333333336</ele><time>2026-04-24T15:40:30.115Z</time></trkpt><trkpt lat="35.9102106" lon="10.053722"><ele>61.66666666666667</ele><time>2026-04-24T15:40:31.115Z</time></trkpt><trkpt lat="35.9101692" lon="10.0538026"><ele>61.5</ele><time>2026-04-24T15:40:32.115Z</time></trkpt><trkpt lat="35.9101197" lon="10.0538834"><ele>61.33333333333333</ele><time>2026-04-24T15:40:33.103Z</time></trkpt><trkpt lat="35.9100687" lon="10.0539634"><ele>61.166666666666664</ele><time>2026-04-24T15:40:34.102Z</time></trkpt><trkpt lat="35.9100136" lon="10.0540428"><ele>61.0</ele><time>2026-04-24T15:40:35.105Z</time></trkpt><trkpt lat="35.9099613" lon="10.0541192"><ele>61.166666666666664</ele><time>2026-04-24T15:40:36.104Z</time></trkpt><trkpt lat="35.9099129" lon="10.0541944"><ele>61.33333333333333</ele><time>2026-04-24T15:40:37.11Z</time></trkpt><trkpt lat="35.9098631" lon="10.0542783"><ele>61.5</ele><time>2026-04-24T15:40:38.115Z</time></trkpt><trkpt lat="35.9098186" lon="10.0543536"><ele>61.66666666666667</ele><time>2026-04-24T15:40:39.097Z</time></trkpt><trkpt lat="35.9097738" lon="10.0544331"><ele>61.833333333333336</ele><time>2026-04-24T15:40:40.094Z</time></trkpt><trkpt lat="35.9097179" lon="10.0545104"><ele>62.0</ele><time>2026-04-24T15:40:41.106Z</time></trkpt><trkpt lat="35.9096625" lon="10.0545898"><ele>62.00000000000001</ele><time>2026-04-24T15:40:42.11Z</time></trkpt><trkpt lat="35.9096167" lon="10.0546703"><ele>62.0</ele><time>2026-04-24T15:40:43.128Z</time></trkpt><trkpt lat="35.9095614" lon="10.0547496"><ele>62.0</ele><time>2026-04-24T15:40:44.113Z</time></trkpt><trkpt lat="35.9095147" lon="10.05483"><ele>62.0</ele><time>2026-04-24T15:40:45.099Z</time></trkpt><trkpt lat="35.9094659" lon="10.054918"><ele>62.00000000000001</ele><time>2026-04-24T15:40:46.095Z</time></trkpt><trkpt lat="35.9094183" lon="10.0550108"><ele>62.0</ele><time>2026-04-24T15:40:47.111Z</time></trkpt><trkpt lat="35.9093727" lon="10.0550963"><ele>61.833333333333336</ele><time>2026-04-24T15:40:48.116Z</time></trkpt><trkpt lat="35.9093299" lon="10.0551798"><ele>61.66666666666667</ele><time>2026-04-24T15:40:49.117Z</time></trkpt><trkpt lat="35.9092893" lon="10.0552644"><ele>61.5</ele><time>2026-04-24T15:40:50.113Z</time></trkpt><trkpt lat="35.9092487" lon="10.05535"><ele>61.33333333333333</ele><time>2026-04-24T15:40:51.109Z</time></trkpt><trkpt lat="35.9092047" lon="10.0554363"><ele>61.166666666666664</ele><time>2026-04-24T15:40:52.098Z</time></trkpt><trkpt lat="35.909157" lon="10.0555288"><ele>61.0</ele><time>2026-04-24T15:40:53.112Z</time></trkpt><trkpt lat="35.9091149" lon="10.0556179"><ele>60.99999999999999</ele><time>2026-04-24T15:40:54.121Z</time></trkpt><trkpt lat="35.9090728" lon="10.0557135"><ele>61.0</ele><time>2026-04-24T15:40:55.096Z</time></trkpt><trkpt lat="35.9090302" lon="10.0558043"><ele>61.0</ele><time>2026-04-24T15:40:56.089Z</time></trkpt><trkpt lat="35.9089915" lon="10.0558929"><ele>61.0</ele><time>2026-04-24T15:40:57.102Z</time></trkpt><trkpt lat="35.908952" lon="10.0559698"><ele>60.99999999999999</ele><time>2026-04-24T15:40:58.106Z</time></trkpt><trkpt lat="35.9089176" lon="10.0560393"><ele>61.0</ele><time>2026-04-24T15:40:59.116Z</time></trkpt><trkpt lat="35.9088835" lon="10.0561094"><ele>60.99999999999999</ele><time>2026-04-24T15:41:00.087Z</time></trkpt><trkpt lat="35.9088514" lon="10.0561803"><ele>61.0</ele><time>2026-04-24T15:41:01.114Z</time></trkpt><trkpt lat="35.9088203" lon="10.0562492"><ele>60.99999999999999</ele><time>2026-04-24T15:41:02.102Z</time></trkpt><trkpt lat="35.9087823" lon="10.0563198"><ele>60.99999999999999</ele><time>2026-04-24T15:41:03.114Z</time></trkpt><trkpt lat="35.9087447" lon="10.0563937"><ele>61.0</ele><time>2026-04-24T15:41:04.107Z</time></trkpt><trkpt lat="35.9087051" lon="10.0564746"><ele>60.99999999999999</ele><time>2026-04-24T15:41:05.111Z</time></trkpt><trkpt lat="35.9086636" lon="10.0565655"><ele>60.99999999999999</ele><time>2026-04-24T15:41:06.105Z</time></trkpt><trkpt lat="35.9086208" lon="10.0566518"><ele>60.99999999999999</ele><time>2026-04-24T15:41:07.112Z</time></trkpt><trkpt lat="35.9085807" lon="10.0567433"><ele>61.0</ele><time>2026-04-24T15:41:08.114Z</time></trkpt><trkpt lat="35.9085384" lon="10.0568363"><ele>61.0</ele><time>2026-04-24T15:41:09.099Z</time></trkpt><trkpt lat="35.9085" lon="10.0569338"><ele>61.0</ele><time>2026-04-24T15:41:10.112Z</time></trkpt><trkpt lat="35.9084603" lon="10.0570367"><ele>60.99999999999999</ele><time>2026-04-24T15:41:11.11Z</time></trkpt><trkpt lat="35.9084168" lon="10.057137"><ele>61.0</ele><time>2026-04-24T15:41:12.088Z</time></trkpt><trkpt lat="35.9083714" lon="10.0572281"><ele>61.0</ele><time>2026-04-24T15:41:13.114Z</time></trkpt><trkpt lat="35.9083249" lon="10.0573284"><ele>60.99999999999999</ele><time>2026-04-24T15:41:14.117Z</time></trkpt><trkpt lat="35.9082795" lon="10.0574247"><ele>60.99999999999999</ele><time>2026-04-24T15:41:15.113Z</time></trkpt><trkpt lat="35.9082311" lon="10.0575227"><ele>61.0</ele><time>2026-04-24T15:41:16.12Z</time></trkpt><trkpt lat="35.9081885" lon="10.05762"><ele>61.0</ele><time>2026-04-24T15:41:17.104Z</time></trkpt><trkpt lat="35.9081397" lon="10.0577188"><ele>61.0</ele><time>2026-04-24T15:41:18.109Z</time></trkpt><trkpt lat="35.9080888" lon="10.0578251"><ele>60.99999999999999</ele><time>2026-04-24T15:41:19.113Z</time></trkpt><trkpt lat="35.9080414" lon="10.0579323"><ele>60.99999999999999</ele><time>2026-04-24T15:41:20.109Z</time></trkpt><trkpt lat="35.9079945" lon="10.0580329"><ele>61.0</ele><time>2026-04-24T15:41:21.099Z</time></trkpt><trkpt lat="35.9079453" lon="10.0581474"><ele>61.0</ele><time>2026-04-24T15:41:22.104Z</time></trkpt><trkpt lat="35.9078967" lon="10.0582519"><ele>61.166666666666664</ele><time>2026-04-24T15:41:23.115Z</time></trkpt><trkpt lat="35.9078559" lon="10.0583547"><ele>61.33333333333333</ele><time>2026-04-24T15:41:24.11Z</time></trkpt><trkpt lat="35.9078165" lon="10.0584493"><ele>61.5</ele><time>2026-04-24T15:41:25.102Z</time></trkpt><trkpt lat="35.9077748" lon="10.0585334"><ele>61.66666666666667</ele><time>2026-04-24T15:41:26.102Z</time></trkpt><trkpt lat="35.907731" lon="10.0586221"><ele>61.833333333333336</ele><time>2026-04-24T15:41:27.118Z</time></trkpt><trkpt lat="35.9076813" lon="10.0587275"><ele>62.0</ele><time>2026-04-24T15:41:28.105Z</time></trkpt><trkpt lat="35.9076321" lon="10.0588316"><ele>62.0</ele><time>2026-04-24T15:41:29.108Z</time></trkpt><trkpt lat="35.9075855" lon="10.0589348"><ele>62.0</ele><time>2026-04-24T15:41:30.111Z</time></trkpt><trkpt lat="35.9075398" lon="10.0590409"><ele>62.0</ele><time>2026-04-24T15:41:31.101Z</time></trkpt><trkpt lat="35.9074916" lon="10.0591489"><ele>62.0</ele><time>2026-04-24T15:41:32.099Z</time></trkpt><trkpt lat="35.9074428" lon="10.0592564"><ele>62.0</ele><time>2026-04-24T15:41:33.116Z</time></trkpt><trkpt lat="35.9073914" lon="10.0593691"><ele>62.0</ele><time>2026-04-24T15:41:34.112Z</time></trkpt><trkpt lat="35.9073396" lon="10.059485"><ele>62.0</ele><time>2026-04-24T15:41:35.099Z</time></trkpt><trkpt lat="35.9072842" lon="10.0595994"><ele>62.0</ele><time>2026-04-24T15:41:36.119Z</time></trkpt><trkpt lat="35.90723" lon="10.0597172"><ele>62.0</ele><time>2026-04-24T15:41:37.125Z</time></trkpt><trkpt lat="35.9071735" lon="10.0598428"><ele>62.0</ele><time>2026-04-24T15:41:38.107Z</time></trkpt><trkpt lat="35.9071158" lon="10.0599743"><ele>62.25</ele><time>2026-04-24T15:41:39.113Z</time></trkpt><trkpt lat="35.9070541" lon="10.0601114"><ele>62.5</ele><time>2026-04-24T15:41:40.116Z</time></trkpt><trkpt lat="35.9069915" lon="10.0602399"><ele>62.75</ele><time>2026-04-24T15:41:41.102Z</time></trkpt><trkpt lat="35.906929" lon="10.0603638"><ele>63.0</ele><time>2026-04-24T15:41:42.106Z</time></trkpt><trkpt lat="35.9068826" lon="10.0604758"><ele>63.0</ele><time>2026-04-24T15:41:43.106Z</time></trkpt><trkpt lat="35.90685" lon="10.0605634"><ele>63.0</ele><time>2026-04-24T15:41:44.088Z</time></trkpt><trkpt lat="35.9068125" lon="10.0606488"><ele>63.0</ele><time>2026-04-24T15:41:45.1Z</time></trkpt><trkpt lat="35.9067802" lon="10.0607201"><ele>63.0</ele><time>2026-04-24T15:41:46.114Z</time></trkpt><trkpt lat="35.9067456" lon="10.0608046"><ele>63.0</ele><time>2026-04-24T15:41:47.111Z</time></trkpt><trkpt lat="35.9066984" lon="10.0609015"><ele>63.0</ele><time>2026-04-24T15:41:48.099Z</time></trkpt><trkpt lat="35.9066455" lon="10.0610207"><ele>63.5</ele><time>2026-04-24T15:41:49.097Z</time></trkpt><trkpt lat="35.9065847" lon="10.0611467"><ele>64.0</ele><time>2026-04-24T15:41:50.117Z</time></trkpt><trkpt lat="35.9065261" lon="10.0612714"><ele>64.5</ele><time>2026-04-24T15:41:51.1Z</time></trkpt><trkpt lat="35.9064702" lon="10.0614011"><ele>65.0</ele><time>2026-04-24T15:41:52.1Z</time></trkpt><trkpt lat="35.90641" lon="10.0615398"><ele>64.75</ele><time>2026-04-24T15:41:53.11Z</time></trkpt><trkpt lat="35.9063498" lon="10.0616759"><ele>64.5</ele><time>2026-04-24T15:41:54.122Z</time></trkpt><trkpt lat="35.9062945" lon="10.061804"><ele>64.25</ele><time>2026-04-24T15:41:55.1Z</time></trkpt><trkpt lat="35.9062374" lon="10.0619361"><ele>64.0</ele><time>2026-04-24T15:41:56.111Z</time></trkpt><trkpt lat="35.9061798" lon="10.0620664"><ele>64.0</ele><time>2026-04-24T15:41:57.109Z</time></trkpt><trkpt lat="35.9061211" lon="10.0621983"><ele>64.0</ele><time>2026-04-24T15:41:58.11Z</time></trkpt><trkpt lat="35.906066" lon="10.0623289"><ele>64.0</ele><time>2026-04-24T15:41:59.101Z</time></trkpt><trkpt lat="35.9060076" lon="10.0624641"><ele>64.0</ele><time>2026-04-24T15:42:00.101Z</time></trkpt><trkpt lat="35.9059527" lon="10.0625939"><ele>63.75</ele><time>2026-04-24T15:42:01.103Z</time></trkpt><trkpt lat="35.9058936" lon="10.0627274"><ele>63.5</ele><time>2026-04-24T15:42:02.111Z</time></trkpt><trkpt lat="35.9058392" lon="10.0628671"><ele>63.25</ele><time>2026-04-24T15:42:03.109Z</time></trkpt><trkpt lat="35.9057827" lon="10.0630151"><ele>63.0</ele><time>2026-04-24T15:42:04.108Z</time></trkpt><trkpt lat="35.9057199" lon="10.0631613"><ele>63.25</ele><time>2026-04-24T15:42:05.118Z</time></trkpt><trkpt lat="35.9056557" lon="10.0633052"><ele>63.5</ele><time>2026-04-24T15:42:06.093Z</time></trkpt><trkpt lat="35.9055914" lon="10.0634568"><ele>63.75</ele><time>2026-04-24T15:42:07.116Z</time></trkpt><trkpt lat="35.9055252" lon="10.063611"><ele>64.0</ele><time>2026-04-24T15:42:08.111Z</time></trkpt><trkpt lat="35.9054558" lon="10.0637694"><ele>64.0</ele><time>2026-04-24T15:42:09.117Z</time></trkpt><trkpt lat="35.9053826" lon="10.0639296"><ele>64.0</ele><time>2026-04-24T15:42:10.109Z</time></trkpt><trkpt lat="35.9053149" lon="10.0640894"><ele>64.0</ele><time>2026-04-24T15:42:11.104Z</time></trkpt><trkpt lat="35.9052477" lon="10.0642418"><ele>64.0</ele><time>2026-04-24T15:42:12.106Z</time></trkpt><trkpt lat="35.9051788" lon="10.0644075"><ele>63.666666666666664</ele><time>2026-04-24T15:42:13.11Z</time></trkpt><trkpt lat="35.9051119" lon="10.0645733"><ele>63.33333333333333</ele><time>2026-04-24T15:42:14.099Z</time></trkpt><trkpt lat="35.9050415" lon="10.0647439"><ele>63.0</ele><time>2026-04-24T15:42:15.102Z</time></trkpt><trkpt lat="35.9049728" lon="10.0649153"><ele>63.5</ele><time>2026-04-24T15:42:16.098Z</time></trkpt><trkpt lat="35.9049013" lon="10.0650778"><ele>64.0</ele><time>2026-04-24T15:42:17.101Z</time></trkpt><trkpt lat="35.9048384" lon="10.0652294"><ele>64.5</ele><time>2026-04-24T15:42:18.107Z</time></trkpt><trkpt lat="35.9047845" lon="10.0653728"><ele>65.0</ele><time>2026-04-24T15:42:19.113Z</time></trkpt><trkpt lat="35.9047231" lon="10.0655117"><ele>65.0</ele><time>2026-04-24T15:42:20.117Z</time></trkpt><trkpt lat="35.904661" lon="10.0656496"><ele>65.0</ele><time>2026-04-24T15:42:21.093Z</time></trkpt><trkpt lat="35.9045887" lon="10.0657956"><ele>65.0</ele><time>2026-04-24T15:42:22.108Z</time></trkpt><trkpt lat="35.9045182" lon="10.0659406"><ele>65.0</ele><time>2026-04-24T15:42:23.109Z</time></trkpt><trkpt lat="35.9044489" lon="10.0660911"><ele>64.75</ele><time>2026-04-24T15:42:24.11Z</time></trkpt><trkpt lat="35.9043844" lon="10.0662478"><ele>64.5</ele><time>2026-04-24T15:42:25.099Z</time></trkpt><trkpt lat="35.9043174" lon="10.0663982"><ele>64.25</ele><time>2026-04-24T15:42:26.11Z</time></trkpt><trkpt lat="35.9042447" lon="10.0665521"><ele>64.0</ele><time>2026-04-24T15:42:27.126Z</time></trkpt><trkpt lat="35.9041808" lon="10.0666924"><ele>64.0</ele><time>2026-04-24T15:42:28.118Z</time></trkpt><trkpt lat="35.9041206" lon="10.0668227"><ele>64.0</ele><time>2026-04-24T15:42:29.112Z</time></trkpt><trkpt lat="35.9040632" lon="10.0669558"><ele>64.0</ele><time>2026-04-24T15:42:30.097Z</time></trkpt><trkpt lat="35.9040064" lon="10.0670822"><ele>64.0</ele><time>2026-04-24T15:42:31.108Z</time></trkpt><trkpt lat="35.9039462" lon="10.0672064"><ele>64.0</ele><time>2026-04-24T15:42:32.106Z</time></trkpt><trkpt lat="35.9038941" lon="10.0673331"><ele>64.0</ele><time>2026-04-24T15:42:33.114Z</time></trkpt><trkpt lat="35.9038441" lon="10.0674527"><ele>64.0</ele><time>2026-04-24T15:42:34.113Z</time></trkpt><trkpt lat="35.90379" lon="10.0675777"><ele>64.0</ele><time>2026-04-24T15:42:35.103Z</time></trkpt><trkpt lat="35.9037344" lon="10.0676988"><ele>63.75</ele><time>2026-04-24T15:42:36.123Z</time></trkpt><trkpt lat="35.9036801" lon="10.0678321"><ele>63.5</ele><time>2026-04-24T15:42:37.115Z</time></trkpt><trkpt lat="35.9036227" lon="10.0679693"><ele>63.25</ele><time>2026-04-24T15:42:38.111Z</time></trkpt><trkpt lat="35.9035649" lon="10.0681031"><ele>63.0</ele><time>2026-04-24T15:42:39.102Z</time></trkpt><trkpt lat="35.9035061" lon="10.0682329"><ele>62.5</ele><time>2026-04-24T15:42:40.11Z</time></trkpt><trkpt lat="35.9034489" lon="10.0683671"><ele>62.0</ele><time>2026-04-24T15:42:41.106Z</time></trkpt><trkpt lat="35.9033952" lon="10.068503"><ele>61.5</ele><time>2026-04-24T15:42:42.108Z</time></trkpt><trkpt lat="35.9033412" lon="10.0686378"><ele>61.0</ele><time>2026-04-24T15:42:43.107Z</time></trkpt><trkpt lat="35.9032841" lon="10.0687772"><ele>60.75</ele><time>2026-04-24T15:42:44.093Z</time></trkpt><trkpt lat="35.9032223" lon="10.0689138"><ele>60.5</ele><time>2026-04-24T15:42:45.113Z</time></trkpt><trkpt lat="35.90317" lon="10.0690521"><ele>60.25</ele><time>2026-04-24T15:42:46.112Z</time></trkpt><trkpt lat="35.9031133" lon="10.0691861"><ele>60.0</ele><time>2026-04-24T15:42:47.127Z</time></trkpt><trkpt lat="35.9030585" lon="10.0693179"><ele>60.0</ele><time>2026-04-24T15:42:48.093Z</time></trkpt><trkpt lat="35.9030006" lon="10.069449"><ele>60.0</ele><time>2026-04-24T15:42:49.108Z</time></trkpt><trkpt lat="35.9029475" lon="10.0695886"><ele>60.0</ele><time>2026-04-24T15:42:50.113Z</time></trkpt><trkpt lat="35.9028972" lon="10.0697211"><ele>60.0</ele><time>2026-04-24T15:42:51.104Z</time></trkpt><trkpt lat="35.9028458" lon="10.0698552"><ele>59.6</ele><time>2026-04-24T15:42:52.096Z</time></trkpt><trkpt lat="35.9027965" lon="10.0699837"><ele>59.2</ele><time>2026-04-24T15:42:53.134Z</time></trkpt><trkpt lat="35.9027443" lon="10.0701091"><ele>58.8</ele><time>2026-04-24T15:42:54.115Z</time></trkpt><trkpt lat="35.902695" lon="10.070232"><ele>58.4</ele><time>2026-04-24T15:42:55.113Z</time></trkpt><trkpt lat="35.9026454" lon="10.0703485"><ele>58.0</ele><time>2026-04-24T15:42:56.106Z</time></trkpt><trkpt lat="35.9025997" lon="10.0704643"><ele>58.0</ele><time>2026-04-24T15:42:57.108Z</time></trkpt><trkpt lat="35.9025583" lon="10.0705778"><ele>58.0</ele><time>2026-04-24T15:42:58.105Z</time></trkpt><trkpt lat="35.9025171" lon="10.0706841"><ele>58.0</ele><time>2026-04-24T15:42:59.112Z</time></trkpt><trkpt lat="35.9024759" lon="10.0708028"><ele>58.0</ele><time>2026-04-24T15:43:00.101Z</time></trkpt><trkpt lat="35.9024265" lon="10.0709241"><ele>58.0</ele><time>2026-04-24T15:43:01.105Z</time></trkpt><trkpt lat="35.90238" lon="10.0710426"><ele>58.0</ele><time>2026-04-24T15:43:02.095Z</time></trkpt><trkpt lat="35.9023328" lon="10.0711612"><ele>58.0</ele><time>2026-04-24T15:43:03.097Z</time></trkpt><trkpt lat="35.9022775" lon="10.0712965"><ele>58.0</ele><time>2026-04-24T15:43:04.104Z</time></trkpt><trkpt lat="35.902221" lon="10.0714331"><ele>58.0</ele><time>2026-04-24T15:43:05.104Z</time></trkpt><trkpt lat="35.9021681" lon="10.0715753"><ele>57.75</ele><time>2026-04-24T15:43:06.099Z</time></trkpt><trkpt lat="35.9021173" lon="10.0717155"><ele>57.5</ele><time>2026-04-24T15:43:07.099Z</time></trkpt><trkpt lat="35.9020624" lon="10.0718486"><ele>57.25</ele><time>2026-04-24T15:43:08.113Z</time></trkpt><trkpt lat="35.9020109" lon="10.071982"><ele>57.0</ele><time>2026-04-24T15:43:09.107Z</time></trkpt><trkpt lat="35.9019555" lon="10.0721203"><ele>57.0</ele><time>2026-04-24T15:43:10.132Z</time></trkpt><trkpt lat="35.9018968" lon="10.0722595"><ele>57.0</ele><time>2026-04-24T15:43:11.12Z</time></trkpt><trkpt lat="35.9018371" lon="10.0723963"><ele>57.0</ele><time>2026-04-24T15:43:12.116Z</time></trkpt><trkpt lat="35.9017795" lon="10.0725392"><ele>57.0</ele><time>2026-04-24T15:43:13.094Z</time></trkpt><trkpt lat="35.9017202" lon="10.072682"><ele>56.75</ele><time>2026-04-24T15:43:14.099Z</time></trkpt><trkpt lat="35.9016636" lon="10.0728257"><ele>56.5</ele><time>2026-04-24T15:43:15.094Z</time></trkpt><trkpt lat="35.9016036" lon="10.0729719"><ele>56.25</ele><time>2026-04-24T15:43:16.108Z</time></trkpt><trkpt lat="35.901546" lon="10.0731173"><ele>56.0</ele><time>2026-04-24T15:43:17.108Z</time></trkpt><trkpt lat="35.9014938" lon="10.073253"><ele>55.75</ele><time>2026-04-24T15:43:18.116Z</time></trkpt><trkpt lat="35.9014418" lon="10.0733916"><ele>55.5</ele><time>2026-04-24T15:43:19.103Z</time></trkpt><trkpt lat="35.9013808" lon="10.0735319"><ele>55.25</ele><time>2026-04-24T15:43:20.1Z</time></trkpt><trkpt lat="35.9013255" lon="10.0736696"><ele>55.0</ele><time>2026-04-24T15:43:21.1Z</time></trkpt><trkpt lat="35.9012687" lon="10.0738067"><ele>55.0</ele><time>2026-04-24T15:43:22.112Z</time></trkpt><trkpt lat="35.9012108" lon="10.0739484"><ele>55.0</ele><time>2026-04-24T15:43:23.106Z</time></trkpt><trkpt lat="35.9011584" lon="10.0740866"><ele>55.0</ele><time>2026-04-24T15:43:24.115Z</time></trkpt><trkpt lat="35.901105" lon="10.0742289"><ele>55.0</ele><time>2026-04-24T15:43:25.108Z</time></trkpt><trkpt lat="35.9010472" lon="10.0743611"><ele>54.75</ele><time>2026-04-24T15:43:26.096Z</time></trkpt><trkpt lat="35.90099" lon="10.074499"><ele>54.5</ele><time>2026-04-24T15:43:27.123Z</time></trkpt><trkpt lat="35.9009345" lon="10.0746333"><ele>54.25</ele><time>2026-04-24T15:43:28.11Z</time></trkpt><trkpt lat="35.9008815" lon="10.0747682"><ele>54.0</ele><time>2026-04-24T15:43:29.103Z</time></trkpt><trkpt lat="35.9008315" lon="10.074905"><ele>54.0</ele><time>2026-04-24T15:43:30.091Z</time></trkpt><trkpt lat="35.9007843" lon="10.0750467"><ele>54.0</ele><time>2026-04-24T15:43:31.11Z</time></trkpt><trkpt lat="35.9007323" lon="10.0751813"><ele>54.0</ele><time>2026-04-24T15:43:32.108Z</time></trkpt><trkpt lat="35.9006808" lon="10.075313"><ele>54.0</ele><time>2026-04-24T15:43:33.092Z</time></trkpt><trkpt lat="35.9006298" lon="10.0754392"><ele>54.0</ele><time>2026-04-24T15:43:34.103Z</time></trkpt><trkpt lat="35.9005819" lon="10.0755602"><ele>54.0</ele><time>2026-04-24T15:43:35.105Z</time></trkpt><trkpt lat="35.9005272" lon="10.0756824"><ele>54.0</ele><time>2026-04-24T15:43:36.114Z</time></trkpt><trkpt lat="35.9004788" lon="10.0758134"><ele>54.0</ele><time>2026-04-24T15:43:37.131Z</time></trkpt><trkpt lat="35.9004266" lon="10.0759418"><ele>54.25</ele><time>2026-04-24T15:43:38.101Z</time></trkpt><trkpt lat="35.9003714" lon="10.0760731"><ele>54.5</ele><time>2026-04-24T15:43:39.103Z</time></trkpt><trkpt lat="35.9003168" lon="10.0762118"><ele>54.75</ele><time>2026-04-24T15:43:40.096Z</time></trkpt><trkpt lat="35.9002667" lon="10.0763457"><ele>55.0</ele><time>2026-04-24T15:43:41.109Z</time></trkpt><trkpt lat="35.9002155" lon="10.0764827"><ele>54.5</ele><time>2026-04-24T15:43:42.122Z</time></trkpt><trkpt lat="35.9001614" lon="10.0766211"><ele>54.0</ele><time>2026-04-24T15:43:43.123Z</time></trkpt><trkpt lat="35.9001065" lon="10.0767554"><ele>53.5</ele><time>2026-04-24T15:43:44.102Z</time></trkpt><trkpt lat="35.9000397" lon="10.07689"><ele>53.0</ele><time>2026-04-24T15:43:45.112Z</time></trkpt><trkpt lat="35.8999655" lon="10.0770245"><ele>53.0</ele><time>2026-04-24T15:43:46.12Z</time></trkpt><trkpt lat="35.8998891" lon="10.077165"><ele>53.0</ele><time>2026-04-24T15:43:47.121Z</time></trkpt><trkpt lat="35.8998079" lon="10.0773027"><ele>53.0</ele><time>2026-04-24T15:43:48.115Z</time></trkpt><trkpt lat="35.8997301" lon="10.0774412"><ele>53.0</ele><time>2026-04-24T15:43:49.124Z</time></trkpt><trkpt lat="35.8996481" lon="10.0775794"><ele>53.75</ele><time>2026-04-24T15:43:50.106Z</time></trkpt><trkpt lat="35.8995674" lon="10.0777117"><ele>54.5</ele><time>2026-04-24T15:43:51.113Z</time></trkpt><trkpt lat="35.8994862" lon="10.0778418"><ele>55.25</ele><time>2026-04-24T15:43:52.093Z</time></trkpt><trkpt lat="35.8994067" lon="10.0779788"><ele>56.0</ele><time>2026-04-24T15:43:53.112Z</time></trkpt><trkpt lat="35.8993315" lon="10.0781088"><ele>56.0</ele><time>2026-04-24T15:43:54.099Z</time></trkpt><trkpt lat="35.8992543" lon="10.078242"><ele>56.0</ele><time>2026-04-24T15:43:55.106Z</time></trkpt><trkpt lat="35.8991761" lon="10.0783693"><ele>56.0</ele><time>2026-04-24T15:43:56.097Z</time></trkpt><trkpt lat="35.8991022" lon="10.0784917"><ele>56.0</ele><time>2026-04-24T15:43:57.098Z</time></trkpt><trkpt lat="35.8990311" lon="10.0786138"><ele>55.25</ele><time>2026-04-24T15:43:58.096Z</time></trkpt><trkpt lat="35.89896" lon="10.0787355"><ele>54.5</ele><time>2026-04-24T15:43:59.099Z</time></trkpt><trkpt lat="35.8988909" lon="10.078857"><ele>53.75</ele><time>2026-04-24T15:44:00.099Z</time></trkpt><trkpt lat="35.8988285" lon="10.0789713"><ele>53.0</ele><time>2026-04-24T15:44:01.103Z</time></trkpt><trkpt lat="35.8987689" lon="10.07908"><ele>53.25</ele><time>2026-04-24T15:44:02.102Z</time></trkpt><trkpt lat="35.8987069" lon="10.0791889"><ele>53.5</ele><time>2026-04-24T15:44:03.089Z</time></trkpt><trkpt lat="35.8986445" lon="10.0792987"><ele>53.75</ele><time>2026-04-24T15:44:04.103Z</time></trkpt><trkpt lat="35.8985771" lon="10.0794154"><ele>54.0</ele><time>2026-04-24T15:44:05.118Z</time></trkpt><trkpt lat="35.8985135" lon="10.079538"><ele>54.0</ele><time>2026-04-24T15:44:06.109Z</time></trkpt><trkpt lat="35.8984472" lon="10.0796659"><ele>54.0</ele><time>2026-04-24T15:44:07.115Z</time></trkpt><trkpt lat="35.8983796" lon="10.0797973"><ele>54.0</ele><time>2026-04-24T15:44:08.111Z</time></trkpt><trkpt lat="35.8983161" lon="10.0799385"><ele>54.0</ele><time>2026-04-24T15:44:09.109Z</time></trkpt><trkpt lat="35.8982547" lon="10.0800767"><ele>54.0</ele><time>2026-04-24T15:44:10.112Z</time></trkpt><trkpt lat="35.8981856" lon="10.0802178"><ele>54.0</ele><time>2026-04-24T15:44:11.107Z</time></trkpt><trkpt lat="35.8981157" lon="10.0803607"><ele>54.0</ele><time>2026-04-24T15:44:12.11Z</time></trkpt><trkpt lat="35.8980532" lon="10.0805014"><ele>54.0</ele><time>2026-04-24T15:44:13.112Z</time></trkpt><trkpt lat="35.8979852" lon="10.0806444"><ele>54.0</ele><time>2026-04-24T15:44:14.119Z</time></trkpt><trkpt lat="35.8979181" lon="10.0807821"><ele>54.0</ele><time>2026-04-24T15:44:15.111Z</time></trkpt><trkpt lat="35.8978476" lon="10.0809248"><ele>54.0</ele><time>2026-04-24T15:44:16.107Z</time></trkpt><trkpt lat="35.8977743" lon="10.0810711"><ele>54.0</ele><time>2026-04-24T15:44:17.114Z</time></trkpt><trkpt lat="35.8977013" lon="10.081218"><ele>54.0</ele><time>2026-04-24T15:44:18.114Z</time></trkpt><trkpt lat="35.8976308" lon="10.0813641"><ele>54.0</ele><time>2026-04-24T15:44:19.106Z</time></trkpt><trkpt lat="35.8975629" lon="10.0815112"><ele>54.0</ele><time>2026-04-24T15:44:20.121Z</time></trkpt><trkpt lat="35.8974951" lon="10.0816554"><ele>54.0</ele><time>2026-04-24T15:44:21.116Z</time></trkpt><trkpt lat="35.8974272" lon="10.0817957"><ele>53.5</ele><time>2026-04-24T15:44:22.117Z</time></trkpt><trkpt lat="35.8973638" lon="10.0819311"><ele>53.0</ele><time>2026-04-24T15:44:23.115Z</time></trkpt><trkpt lat="35.8973001" lon="10.0820681"><ele>52.5</ele><time>2026-04-24T15:44:24.113Z</time></trkpt><trkpt lat="35.8972367" lon="10.0821976"><ele>52.0</ele><time>2026-04-24T15:44:25.104Z</time></trkpt><trkpt lat="35.8971848" lon="10.0823084"><ele>52.0</ele><time>2026-04-24T15:44:26.114Z</time></trkpt><trkpt lat="35.8971332" lon="10.0824095"><ele>52.0</ele><time>2026-04-24T15:44:27.123Z</time></trkpt><trkpt lat="35.8970898" lon="10.082502"><ele>52.0</ele><time>2026-04-24T15:44:28.113Z</time></trkpt><trkpt lat="35.8970372" lon="10.0826059"><ele>52.0</ele><time>2026-04-24T15:44:29.11Z</time></trkpt><trkpt lat="35.8969863" lon="10.0827212"><ele>52.0</ele><time>2026-04-24T15:44:30.099Z</time></trkpt><trkpt lat="35.8969364" lon="10.0828255"><ele>51.8</ele><time>2026-04-24T15:44:31.116Z</time></trkpt><trkpt lat="35.8968877" lon="10.0829208"><ele>51.6</ele><time>2026-04-24T15:44:32.12Z</time></trkpt><trkpt lat="35.8968428" lon="10.083021"><ele>51.4</ele><time>2026-04-24T15:44:33.114Z</time></trkpt><trkpt lat="35.8967989" lon="10.0831196"><ele>51.199999999999996</ele><time>2026-04-24T15:44:34.093Z</time></trkpt><trkpt lat="35.8967575" lon="10.0832214"><ele>51.0</ele><time>2026-04-24T15:44:35.102Z</time></trkpt><trkpt lat="35.8967135" lon="10.0833138"><ele>51.4</ele><time>2026-04-24T15:44:36.113Z</time></trkpt><trkpt lat="35.8966639" lon="10.0834115"><ele>51.8</ele><time>2026-04-24T15:44:37.099Z</time></trkpt><trkpt lat="35.8966212" lon="10.0835132"><ele>52.199999999999996</ele><time>2026-04-24T15:44:38.11Z</time></trkpt><trkpt lat="35.8965802" lon="10.0836158"><ele>52.599999999999994</ele><time>2026-04-24T15:44:39.114Z</time></trkpt><trkpt lat="35.8965333" lon="10.083707"><ele>53.0</ele><time>2026-04-24T15:44:40.106Z</time></trkpt><trkpt lat="35.8964927" lon="10.0837966"><ele>53.00000000000001</ele><time>2026-04-24T15:44:41.106Z</time></trkpt><trkpt lat="35.8964564" lon="10.0838781"><ele>53.0</ele><time>2026-04-24T15:44:42.101Z</time></trkpt><trkpt lat="35.8964152" lon="10.0839693"><ele>53.0</ele><time>2026-04-24T15:44:43.114Z</time></trkpt><trkpt lat="35.8963671" lon="10.0840733"><ele>53.0</ele><time>2026-04-24T15:44:44.091Z</time></trkpt><trkpt lat="35.8963225" lon="10.0841693"><ele>53.00000000000001</ele><time>2026-04-24T15:44:45.106Z</time></trkpt><trkpt lat="35.8962725" lon="10.0842609"><ele>53.0</ele><time>2026-04-24T15:44:46.105Z</time></trkpt><trkpt lat="35.8962272" lon="10.0843505"><ele>52.8</ele><time>2026-04-24T15:44:47.106Z</time></trkpt><trkpt lat="35.8961784" lon="10.0844461"><ele>52.599999999999994</ele><time>2026-04-24T15:44:48.111Z</time></trkpt><trkpt lat="35.8961335" lon="10.0845492"><ele>52.400000000000006</ele><time>2026-04-24T15:44:49.1Z</time></trkpt><trkpt lat="35.8960905" lon="10.0846412"><ele>52.2</ele><time>2026-04-24T15:44:50.125Z</time></trkpt><trkpt lat="35.8960459" lon="10.0847419"><ele>52.0</ele><time>2026-04-24T15:44:51.107Z</time></trkpt><trkpt lat="35.895999" lon="10.0848351"><ele>52.2</ele><time>2026-04-24T15:44:52.128Z</time></trkpt><trkpt lat="35.8959605" lon="10.0849409"><ele>52.400000000000006</ele><time>2026-04-24T15:44:53.103Z</time></trkpt><trkpt lat="35.895914" lon="10.0850404"><ele>52.599999999999994</ele><time>2026-04-24T15:44:54.107Z</time></trkpt><trkpt lat="35.8958644" lon="10.0851295"><ele>52.8</ele><time>2026-04-24T15:44:55.102Z</time></trkpt><trkpt lat="35.8958173" lon="10.0852203"><ele>53.0</ele><time>2026-04-24T15:44:56.108Z</time></trkpt><trkpt lat="35.8957742" lon="10.0853196"><ele>53.0</ele><time>2026-04-24T15:44:57.104Z</time></trkpt><trkpt lat="35.8957308" lon="10.0854125"><ele>53.0</ele><time>2026-04-24T15:44:58.112Z</time></trkpt><trkpt lat="35.8956792" lon="10.0855121"><ele>53.0</ele><time>2026-04-24T15:44:59.106Z</time></trkpt><trkpt lat="35.8956244" lon="10.0856107"><ele>53.0</ele><time>2026-04-24T15:45:00.087Z</time></trkpt><trkpt lat="35.8955702" lon="10.08571"><ele>53.0</ele><time>2026-04-24T15:45:01.108Z</time></trkpt><trkpt lat="35.8955182" lon="10.0858101"><ele>53.0</ele><time>2026-04-24T15:45:02.097Z</time></trkpt><trkpt lat="35.8954676" lon="10.085907"><ele>53.0</ele><time>2026-04-24T15:45:03.117Z</time></trkpt><trkpt lat="35.8954192" lon="10.0860077"><ele>53.0</ele><time>2026-04-24T15:45:04.116Z</time></trkpt><trkpt lat="35.8953723" lon="10.0861081"><ele>53.0</ele><time>2026-04-24T15:45:05.112Z</time></trkpt><trkpt lat="35.8953317" lon="10.0862041"><ele>53.0</ele><time>2026-04-24T15:45:06.107Z</time></trkpt><trkpt lat="35.8952856" lon="10.0863071"><ele>53.0</ele><time>2026-04-24T15:45:07.096Z</time></trkpt><trkpt lat="35.8952414" lon="10.086408"><ele>53.0</ele><time>2026-04-24T15:45:08.107Z</time></trkpt><trkpt lat="35.8952079" lon="10.0864969"><ele>53.0</ele><time>2026-04-24T15:45:09.107Z</time></trkpt><trkpt lat="35.8951808" lon="10.0865687"><ele>53.0</ele><time>2026-04-24T15:45:10.104Z</time></trkpt><trkpt lat="35.8951445" lon="10.0867018"><ele>53.0</ele><time>2026-04-24T15:45:12.109Z</time></trkpt><trkpt lat="35.8950967" lon="10.0868523"><ele>52.50000000000001</ele><time>2026-04-24T15:45:14.111Z</time></trkpt><trkpt lat="35.8950715" lon="10.0869461"><ele>52.0</ele><time>2026-04-24T15:45:15.094Z</time></trkpt><trkpt lat="35.8950542" lon="10.0870404"><ele>51.5</ele><time>2026-04-24T15:45:16.107Z</time></trkpt><trkpt lat="35.8950257" lon="10.0871433"><ele>51.0</ele><time>2026-04-24T15:45:17.109Z</time></trkpt><trkpt lat="35.8950035" lon="10.0872466"><ele>50.50000000000001</ele><time>2026-04-24T15:45:18.112Z</time></trkpt><trkpt lat="35.894983" lon="10.0873538"><ele>50.0</ele><time>2026-04-24T15:45:19.118Z</time></trkpt><trkpt lat="35.8949545" lon="10.0874603"><ele>50.0</ele><time>2026-04-24T15:45:20.106Z</time></trkpt><trkpt lat="35.8949288" lon="10.0875647"><ele>50.0</ele><time>2026-04-24T15:45:21.11Z</time></trkpt><trkpt lat="35.8949059" lon="10.0876744"><ele>50.0</ele><time>2026-04-24T15:45:22.125Z</time></trkpt><trkpt lat="35.8948888" lon="10.0877871"><ele>50.0</ele><time>2026-04-24T15:45:23.103Z</time></trkpt><trkpt lat="35.8948752" lon="10.0879021"><ele>50.0</ele><time>2026-04-24T15:45:24.129Z</time></trkpt><trkpt lat="35.8948631" lon="10.0880105"><ele>50.0</ele><time>2026-04-24T15:45:25.1Z</time></trkpt><trkpt lat="35.8948491" lon="10.088122"><ele>50.0</ele><time>2026-04-24T15:45:26.116Z</time></trkpt><trkpt lat="35.8948328" lon="10.0882331"><ele>50.0</ele><time>2026-04-24T15:45:27.114Z</time></trkpt><trkpt lat="35.8948197" lon="10.0883432"><ele>50.0</ele><time>2026-04-24T15:45:28.108Z</time></trkpt><trkpt lat="35.8948064" lon="10.0884569"><ele>50.0</ele><time>2026-04-24T15:45:29.115Z</time></trkpt><trkpt lat="35.8947877" lon="10.0885718"><ele>50.0</ele><time>2026-04-24T15:45:30.1Z</time></trkpt><trkpt lat="35.8947752" lon="10.0886805"><ele>50.0</ele><time>2026-04-24T15:45:31.112Z</time></trkpt><trkpt lat="35.8947572" lon="10.0887867"><ele>50.0</ele><time>2026-04-24T15:45:32.122Z</time></trkpt><trkpt lat="35.8947411" lon="10.088899"><ele>50.0</ele><time>2026-04-24T15:45:33.105Z</time></trkpt><trkpt lat="35.8947238" lon="10.0890145"><ele>50.0</ele><time>2026-04-24T15:45:34.117Z</time></trkpt><trkpt lat="35.8947038" lon="10.0891186"><ele>50.16666666666667</ele><time>2026-04-24T15:45:35.111Z</time></trkpt><trkpt lat="35.894688" lon="10.0892094"><ele>50.333333333333336</ele><time>2026-04-24T15:45:36.108Z</time></trkpt><trkpt lat="35.8946675" lon="10.0893553"><ele>50.5</ele><time>2026-04-24T15:45:38.114Z</time></trkpt><trkpt lat="35.8946494" lon="10.0894344"><ele>50.66666666666667</ele><time>2026-04-24T15:45:39.106Z</time></trkpt><trkpt lat="35.8946309" lon="10.0895263"><ele>50.833333333333336</ele><time>2026-04-24T15:45:40.115Z</time></trkpt><trkpt lat="35.8946067" lon="10.0896183"><ele>51.0</ele><time>2026-04-24T15:45:41.112Z</time></trkpt><trkpt lat="35.8945929" lon="10.0897209"><ele>51.0</ele><time>2026-04-24T15:45:42.11Z</time></trkpt><trkpt lat="35.8945812" lon="10.0898276"><ele>51.0</ele><time>2026-04-24T15:45:43.112Z</time></trkpt><trkpt lat="35.8945727" lon="10.0899434"><ele>51.0</ele><time>2026-04-24T15:45:44.112Z</time></trkpt><trkpt lat="35.8945606" lon="10.0900506"><ele>51.0</ele><time>2026-04-24T15:45:45.103Z</time></trkpt><trkpt lat="35.8945572" lon="10.0901617"><ele>51.0</ele><time>2026-04-24T15:45:46.109Z</time></trkpt><trkpt lat="35.8945497" lon="10.0902754"><ele>50.8</ele><time>2026-04-24T15:45:47.115Z</time></trkpt><trkpt lat="35.8945476" lon="10.0903993"><ele>50.599999999999994</ele><time>2026-04-24T15:45:48.105Z</time></trkpt><trkpt lat="35.8945556" lon="10.0905247"><ele>50.4</ele><time>2026-04-24T15:45:49.115Z</time></trkpt><trkpt lat="35.8945681" lon="10.0906452"><ele>50.2</ele><time>2026-04-24T15:45:50.127Z</time></trkpt><trkpt lat="35.8945816" lon="10.0907649"><ele>50.0</ele><time>2026-04-24T15:45:51.089Z</time></trkpt><trkpt lat="35.8945985" lon="10.0908779"><ele>49.6</ele><time>2026-04-24T15:45:52.089Z</time></trkpt><trkpt lat="35.8946137" lon="10.0909809"><ele>49.2</ele><time>2026-04-24T15:45:53.099Z</time></trkpt><trkpt lat="35.8946326" lon="10.0910852"><ele>48.8</ele><time>2026-04-24T15:45:54.093Z</time></trkpt><trkpt lat="35.8946515" lon="10.0911935"><ele>48.4</ele><time>2026-04-24T15:45:55.116Z</time></trkpt><trkpt lat="35.8946752" lon="10.0913054"><ele>48.0</ele><time>2026-04-24T15:45:56.109Z</time></trkpt><trkpt lat="35.8946995" lon="10.0914227"><ele>48.0</ele><time>2026-04-24T15:45:57.107Z</time></trkpt><trkpt lat="35.894714" lon="10.091532"><ele>48.0</ele><time>2026-04-24T15:45:58.098Z</time></trkpt><trkpt lat="35.8947231" lon="10.0916321"><ele>48.0</ele><time>2026-04-24T15:45:59.129Z</time></trkpt><trkpt lat="35.8947248" lon="10.0917351"><ele>48.0</ele><time>2026-04-24T15:46:00.095Z</time></trkpt><trkpt lat="35.8947142" lon="10.0918414"><ele>48.0</ele><time>2026-04-24T15:46:01.112Z</time></trkpt><trkpt lat="35.8946976" lon="10.0919459"><ele>48.0</ele><time>2026-04-24T15:46:02.106Z</time></trkpt><trkpt lat="35.8946628" lon="10.0920397"><ele>48.0</ele><time>2026-04-24T15:46:03.099Z</time></trkpt><trkpt lat="35.8946225" lon="10.0921395"><ele>48.0</ele><time>2026-04-24T15:46:04.12Z</time></trkpt><trkpt lat="35.8945756" lon="10.0922382"><ele>48.0</ele><time>2026-04-24T15:46:05.11Z</time></trkpt><trkpt lat="35.8945221" lon="10.0923337"><ele>48.0</ele><time>2026-04-24T15:46:06.108Z</time></trkpt><trkpt lat="35.8944668" lon="10.0924307"><ele>48.0</ele><time>2026-04-24T15:46:07.1Z</time></trkpt><trkpt lat="35.8944115" lon="10.0925309"><ele>48.166666666666664</ele><time>2026-04-24T15:46:08.114Z</time></trkpt><trkpt lat="35.8943542" lon="10.0926331"><ele>48.33333333333333</ele><time>2026-04-24T15:46:09.112Z</time></trkpt><trkpt lat="35.8943091" lon="10.0927314"><ele>48.5</ele><time>2026-04-24T15:46:10.105Z</time></trkpt><trkpt lat="35.8942597" lon="10.0928161"><ele>48.666666666666664</ele><time>2026-04-24T15:46:11.109Z</time></trkpt><trkpt lat="35.8942173" lon="10.0928961"><ele>48.83333333333333</ele><time>2026-04-24T15:46:12.121Z</time></trkpt><trkpt lat="35.8941603" lon="10.0929798"><ele>49.0</ele><time>2026-04-24T15:46:13.11Z</time></trkpt><trkpt lat="35.8940989" lon="10.0930656"><ele>48.99999999999999</ele><time>2026-04-24T15:46:14.109Z</time></trkpt><trkpt lat="35.8940427" lon="10.093146"><ele>49.0</ele><time>2026-04-24T15:46:15.095Z</time></trkpt><trkpt lat="35.893994" lon="10.0932205"><ele>49.0</ele><time>2026-04-24T15:46:16.116Z</time></trkpt><trkpt lat="35.8939497" lon="10.0932938"><ele>49.0</ele><time>2026-04-24T15:46:17.107Z</time></trkpt><trkpt lat="35.8939079" lon="10.0933626"><ele>48.99999999999999</ele><time>2026-04-24T15:46:18.105Z</time></trkpt><trkpt lat="35.8938644" lon="10.0934331"><ele>49.0</ele><time>2026-04-24T15:46:19.133Z</time></trkpt><trkpt lat="35.8938123" lon="10.0935094"><ele>48.99999999999999</ele><time>2026-04-24T15:46:20.113Z</time></trkpt><trkpt lat="35.8937658" lon="10.0935849"><ele>49.0</ele><time>2026-04-24T15:46:21.114Z</time></trkpt><trkpt lat="35.8937152" lon="10.093655"><ele>49.0</ele><time>2026-04-24T15:46:22.098Z</time></trkpt><trkpt lat="35.8936628" lon="10.0937333"><ele>49.0</ele><time>2026-04-24T15:46:23.106Z</time></trkpt><trkpt lat="35.8936132" lon="10.0938055"><ele>48.99999999999999</ele><time>2026-04-24T15:46:24.117Z</time></trkpt><trkpt lat="35.893559" lon="10.093881"><ele>49.0</ele><time>2026-04-24T15:46:25.103Z</time></trkpt><trkpt lat="35.8934992" lon="10.0939547"><ele>48.99999999999999</ele><time>2026-04-24T15:46:26.101Z</time></trkpt><trkpt lat="35.8934417" lon="10.0940325"><ele>49.0</ele><time>2026-04-24T15:46:27.131Z</time></trkpt><trkpt lat="35.8933832" lon="10.0941112"><ele>49.0</ele><time>2026-04-24T15:46:28.091Z</time></trkpt><trkpt lat="35.8933274" lon="10.0941931"><ele>49.0</ele><time>2026-04-24T15:46:29.114Z</time></trkpt><trkpt lat="35.8932638" lon="10.0942711"><ele>48.99999999999999</ele><time>2026-04-24T15:46:30.117Z</time></trkpt><trkpt lat="35.8931997" lon="10.0943531"><ele>49.0</ele><time>2026-04-24T15:46:31.107Z</time></trkpt><trkpt lat="35.8931376" lon="10.0944347"><ele>49.2</ele><time>2026-04-24T15:46:32.094Z</time></trkpt><trkpt lat="35.8930757" lon="10.0945195"><ele>49.400000000000006</ele><time>2026-04-24T15:46:33.093Z</time></trkpt><trkpt lat="35.8930104" lon="10.094603"><ele>49.6</ele><time>2026-04-24T15:46:34.103Z</time></trkpt><trkpt lat="35.8929399" lon="10.0946844"><ele>49.8</ele><time>2026-04-24T15:46:35.11Z</time></trkpt><trkpt lat="35.8928773" lon="10.094769"><ele>50.0</ele><time>2026-04-24T15:46:36.105Z</time></trkpt><trkpt lat="35.8928125" lon="10.094854"><ele>49.6</ele><time>2026-04-24T15:46:37.1Z</time></trkpt><trkpt lat="35.8927462" lon="10.0949379"><ele>49.2</ele><time>2026-04-24T15:46:38.142Z</time></trkpt><trkpt lat="35.8926817" lon="10.0950198"><ele>48.8</ele><time>2026-04-24T15:46:39.108Z</time></trkpt><trkpt lat="35.8926126" lon="10.0951054"><ele>48.4</ele><time>2026-04-24T15:46:40.118Z</time></trkpt><trkpt lat="35.8925463" lon="10.0951866"><ele>48.0</ele><time>2026-04-24T15:46:41.098Z</time></trkpt><trkpt lat="35.8924879" lon="10.0952633"><ele>47.8</ele><time>2026-04-24T15:46:42.112Z</time></trkpt><trkpt lat="35.8924206" lon="10.0953511"><ele>47.599999999999994</ele><time>2026-04-24T15:46:43.094Z</time></trkpt><trkpt lat="35.8923614" lon="10.0954388"><ele>47.400000000000006</ele><time>2026-04-24T15:46:44.107Z</time></trkpt><trkpt lat="35.8923014" lon="10.0955288"><ele>47.2</ele><time>2026-04-24T15:46:45.112Z</time></trkpt><trkpt lat="35.8922422" lon="10.0956133"><ele>47.0</ele><time>2026-04-24T15:46:46.107Z</time></trkpt><trkpt lat="35.8921801" lon="10.0956991"><ele>47.0</ele><time>2026-04-24T15:46:47.119Z</time></trkpt><trkpt lat="35.8921118" lon="10.0957782"><ele>47.0</ele><time>2026-04-24T15:46:48.109Z</time></trkpt><trkpt lat="35.8920472" lon="10.0958642"><ele>47.0</ele><time>2026-04-24T15:46:49.103Z</time></trkpt><trkpt lat="35.8919881" lon="10.0959553"><ele>47.0</ele><time>2026-04-24T15:46:50.109Z</time></trkpt><trkpt lat="35.8919233" lon="10.0960485"><ele>47.0</ele><time>2026-04-24T15:46:51.096Z</time></trkpt><trkpt lat="35.8918514" lon="10.0961436"><ele>47.0</ele><time>2026-04-24T15:46:52.114Z</time></trkpt><trkpt lat="35.8917667" lon="10.0962443"><ele>47.0</ele><time>2026-04-24T15:46:53.109Z</time></trkpt><trkpt lat="35.8916605" lon="10.096376"><ele>47.0</ele><time>2026-04-24T15:46:54.119Z</time></trkpt><trkpt lat="35.8915309" lon="10.0965433"><ele>46.666666666666664</ele><time>2026-04-24T15:46:55.107Z</time></trkpt><trkpt lat="35.8913774" lon="10.0967471"><ele>46.333333333333336</ele><time>2026-04-24T15:46:56.12Z</time></trkpt><trkpt lat="35.8912443" lon="10.0969323"><ele>46.0</ele><time>2026-04-24T15:46:57.095Z</time></trkpt><trkpt lat="35.8911348" lon="10.097062"><ele>46.0</ele><time>2026-04-24T15:46:58.126Z</time></trkpt><trkpt lat="35.8910539" lon="10.0971664"><ele>46.0</ele><time>2026-04-24T15:46:59.112Z</time></trkpt><trkpt lat="35.8909938" lon="10.0972586"><ele>46.0</ele><time>2026-04-24T15:47:00.1Z</time></trkpt><trkpt lat="35.8909388" lon="10.0973331"><ele>46.0</ele><time>2026-04-24T15:47:01.115Z</time></trkpt><trkpt lat="35.8908893" lon="10.097402"><ele>46.0</ele><time>2026-04-24T15:47:02.114Z</time></trkpt><trkpt lat="35.8908338" lon="10.0974826"><ele>45.8</ele><time>2026-04-24T15:47:03.105Z</time></trkpt><trkpt lat="35.8907702" lon="10.0975723"><ele>45.599999999999994</ele><time>2026-04-24T15:47:04.105Z</time></trkpt><trkpt lat="35.8907028" lon="10.0976592"><ele>45.4</ele><time>2026-04-24T15:47:05.113Z</time></trkpt><trkpt lat="35.8906313" lon="10.0977397"><ele>45.2</ele><time>2026-04-24T15:47:06.102Z</time></trkpt><trkpt lat="35.8905597" lon="10.0978294"><ele>45.0</ele><time>2026-04-24T15:47:07.109Z</time></trkpt><trkpt lat="35.8904911" lon="10.0979269"><ele>45.0</ele><time>2026-04-24T15:47:08.092Z</time></trkpt><trkpt lat="35.890416" lon="10.0980235"><ele>45.0</ele><time>2026-04-24T15:47:09.105Z</time></trkpt><trkpt lat="35.8903362" lon="10.0981253"><ele>45.0</ele><time>2026-04-24T15:47:10.094Z</time></trkpt><trkpt lat="35.8902618" lon="10.0982256"><ele>45.0</ele><time>2026-04-24T15:47:11.106Z</time></trkpt><trkpt lat="35.8901774" lon="10.0983272"><ele>45.0</ele><time>2026-04-24T15:47:12.116Z</time></trkpt><trkpt lat="35.8900933" lon="10.0984385"><ele>45.0</ele><time>2026-04-24T15:47:13.099Z</time></trkpt><trkpt lat="35.8900103" lon="10.0985485"><ele>45.0</ele><time>2026-04-24T15:47:14.104Z</time></trkpt><trkpt lat="35.8899302" lon="10.0986654"><ele>45.0</ele><time>2026-04-24T15:47:15.119Z</time></trkpt><trkpt lat="35.8898462" lon="10.0987785"><ele>45.5</ele><time>2026-04-24T15:47:16.106Z</time></trkpt><trkpt lat="35.8897617" lon="10.0988889"><ele>46.0</ele><time>2026-04-24T15:47:17.117Z</time></trkpt><trkpt lat="35.8896763" lon="10.0989983"><ele>46.5</ele><time>2026-04-24T15:47:18.102Z</time></trkpt><trkpt lat="35.889596" lon="10.0991107"><ele>47.0</ele><time>2026-04-24T15:47:19.103Z</time></trkpt><trkpt lat="35.8895086" lon="10.0992209"><ele>47.0</ele><time>2026-04-24T15:47:20.124Z</time></trkpt><trkpt lat="35.8894214" lon="10.0993338"><ele>47.0</ele><time>2026-04-24T15:47:21.107Z</time></trkpt><trkpt lat="35.8893378" lon="10.099446"><ele>47.0</ele><time>2026-04-24T15:47:22.106Z</time></trkpt><trkpt lat="35.8892508" lon="10.0995614"><ele>47.0</ele><time>2026-04-24T15:47:23.079Z</time></trkpt><trkpt lat="35.8891628" lon="10.0996783"><ele>47.0</ele><time>2026-04-24T15:47:24.085Z</time></trkpt><trkpt lat="35.8890726" lon="10.0997974"><ele>47.0</ele><time>2026-04-24T15:47:25.076Z</time></trkpt><trkpt lat="35.8889832" lon="10.0999186"><ele>47.0</ele><time>2026-04-24T15:47:26.09Z</time></trkpt><trkpt lat="35.8888942" lon="10.1000366"><ele>47.0</ele><time>2026-04-24T15:47:27.107Z</time></trkpt><trkpt lat="35.8888094" lon="10.1001587"><ele>46.5</ele><time>2026-04-24T15:47:28.097Z</time></trkpt><trkpt lat="35.8887208" lon="10.1002818"><ele>46.0</ele><time>2026-04-24T15:47:29.093Z</time></trkpt><trkpt lat="35.8886271" lon="10.100401"><ele>45.5</ele><time>2026-04-24T15:47:30.096Z</time></trkpt><trkpt lat="35.8885389" lon="10.1005231"><ele>45.0</ele><time>2026-04-24T15:47:31.104Z</time></trkpt><trkpt lat="35.8884498" lon="10.1006458"><ele>45.0</ele><time>2026-04-24T15:47:32.106Z</time></trkpt><trkpt lat="35.8883514" lon="10.1007748"><ele>45.0</ele><time>2026-04-24T15:47:33.087Z</time></trkpt><trkpt lat="35.888252" lon="10.1009244"><ele>45.0</ele><time>2026-04-24T15:47:34.117Z</time></trkpt><trkpt lat="35.8881389" lon="10.1010769"><ele>45.0</ele><time>2026-04-24T15:47:35.096Z</time></trkpt><trkpt lat="35.8880196" lon="10.1012288"><ele>45.0</ele><time>2026-04-24T15:47:36.108Z</time></trkpt><trkpt lat="35.8879001" lon="10.1013852"><ele>45.0</ele><time>2026-04-24T15:47:37.099Z</time></trkpt><trkpt lat="35.8877843" lon="10.1015396"><ele>45.333333333333336</ele><time>2026-04-24T15:47:38.102Z</time></trkpt><trkpt lat="35.8876673" lon="10.1016939"><ele>45.66666666666667</ele><time>2026-04-24T15:47:39.101Z</time></trkpt><trkpt lat="35.8875568" lon="10.1018398"><ele>46.0</ele><time>2026-04-24T15:47:40.135Z</time></trkpt><trkpt lat="35.8874433" lon="10.1019897"><ele>46.0</ele><time>2026-04-24T15:47:41.115Z</time></trkpt><trkpt lat="35.8873309" lon="10.1021367"><ele>46.0</ele><time>2026-04-24T15:47:42.105Z</time></trkpt><trkpt lat="35.8872243" lon="10.1022798"><ele>46.0</ele><time>2026-04-24T15:47:43.105Z</time></trkpt><trkpt lat="35.8871181" lon="10.1024284"><ele>46.0</ele><time>2026-04-24T15:47:44.113Z</time></trkpt><trkpt lat="35.8870081" lon="10.1025719"><ele>46.0</ele><time>2026-04-24T15:47:45.112Z</time></trkpt><trkpt lat="35.8868997" lon="10.1027125"><ele>46.0</ele><time>2026-04-24T15:47:46.107Z</time></trkpt><trkpt lat="35.8867887" lon="10.1028542"><ele>45.66666666666667</ele><time>2026-04-24T15:47:47.101Z</time></trkpt><trkpt lat="35.8866819" lon="10.1030086"><ele>45.333333333333336</ele><time>2026-04-24T15:47:48.109Z</time></trkpt><trkpt lat="35.8865744" lon="10.1031511"><ele>45.0</ele><time>2026-04-24T15:47:49.092Z</time></trkpt><trkpt lat="35.8864671" lon="10.1032993"><ele>45.0</ele><time>2026-04-24T15:47:50.093Z</time></trkpt><trkpt lat="35.8863558" lon="10.1034395"><ele>45.0</ele><time>2026-04-24T15:47:51.107Z</time></trkpt><trkpt lat="35.8862491" lon="10.1035825"><ele>45.0</ele><time>2026-04-24T15:47:52.112Z</time></trkpt><trkpt lat="35.8861481" lon="10.1037287"><ele>45.0</ele><time>2026-04-24T15:47:53.1Z</time></trkpt><trkpt lat="35.8860425" lon="10.103876"><ele>45.0</ele><time>2026-04-24T15:47:54.109Z</time></trkpt><trkpt lat="35.8859375" lon="10.1040235"><ele>45.0</ele><time>2026-04-24T15:47:55.111Z</time></trkpt><trkpt lat="35.8858319" lon="10.10417"><ele>45.0</ele><time>2026-04-24T15:47:56.105Z</time></trkpt><trkpt lat="35.8857228" lon="10.1043132"><ele>45.0</ele><time>2026-04-24T15:47:57.105Z</time></trkpt><trkpt lat="35.8856114" lon="10.1044533"><ele>45.0</ele><time>2026-04-24T15:47:58.11Z</time></trkpt><trkpt lat="35.8855032" lon="10.1045904"><ele>45.0</ele><time>2026-04-24T15:47:59.096Z</time></trkpt><trkpt lat="35.8853988" lon="10.1047311"><ele>45.0</ele><time>2026-04-24T15:48:00.103Z</time></trkpt><trkpt lat="35.8852882" lon="10.1048665"><ele>45.0</ele><time>2026-04-24T15:48:01.095Z</time></trkpt><trkpt lat="35.885182" lon="10.1050095"><ele>45.666666666666664</ele><time>2026-04-24T15:48:02.106Z</time></trkpt><trkpt lat="35.8850794" lon="10.1051531"><ele>46.33333333333333</ele><time>2026-04-24T15:48:03.111Z</time></trkpt><trkpt lat="35.8849706" lon="10.1052951"><ele>47.0</ele><time>2026-04-24T15:48:04.105Z</time></trkpt><trkpt lat="35.8848614" lon="10.1054303"><ele>47.0</ele><time>2026-04-24T15:48:05.096Z</time></trkpt><trkpt lat="35.8847515" lon="10.1055726"><ele>47.0</ele><time>2026-04-24T15:48:06.122Z</time></trkpt><trkpt lat="35.884641" lon="10.1057149"><ele>47.0</ele><time>2026-04-24T15:48:07.109Z</time></trkpt><trkpt lat="35.8845308" lon="10.105859"><ele>46.666666666666664</ele><time>2026-04-24T15:48:08.107Z</time></trkpt><trkpt lat="35.8844248" lon="10.1060012"><ele>46.333333333333336</ele><time>2026-04-24T15:48:09.11Z</time></trkpt><trkpt lat="35.8843167" lon="10.1061549"><ele>46.0</ele><time>2026-04-24T15:48:10.103Z</time></trkpt><trkpt lat="35.8842105" lon="10.1063047"><ele>45.66666666666667</ele><time>2026-04-24T15:48:11.096Z</time></trkpt><trkpt lat="35.8841012" lon="10.1064538"><ele>45.333333333333336</ele><time>2026-04-24T15:48:12.113Z</time></trkpt><trkpt lat="35.8839905" lon="10.1066022"><ele>45.0</ele><time>2026-04-24T15:48:13.107Z</time></trkpt><trkpt lat="35.8838781" lon="10.1067528"><ele>45.666666666666664</ele><time>2026-04-24T15:48:14.103Z</time></trkpt><trkpt lat="35.8837706" lon="10.106903"><ele>46.33333333333333</ele><time>2026-04-24T15:48:15.089Z</time></trkpt><trkpt lat="35.8836621" lon="10.1070426"><ele>47.0</ele><time>2026-04-24T15:48:16.086Z</time></trkpt><trkpt lat="35.883553" lon="10.1071837"><ele>47.0</ele><time>2026-04-24T15:48:17.119Z</time></trkpt><trkpt lat="35.8834443" lon="10.1073257"><ele>47.0</ele><time>2026-04-24T15:48:18.1Z</time></trkpt><trkpt lat="35.8833447" lon="10.1074668"><ele>47.0</ele><time>2026-04-24T15:48:19.102Z</time></trkpt><trkpt lat="35.8832388" lon="10.1076002"><ele>46.666666666666664</ele><time>2026-04-24T15:48:20.112Z</time></trkpt><trkpt lat="35.8831294" lon="10.1077334"><ele>46.333333333333336</ele><time>2026-04-24T15:48:21.1Z</time></trkpt><trkpt lat="35.8830242" lon="10.1078753"><ele>46.0</ele><time>2026-04-24T15:48:22.096Z</time></trkpt><trkpt lat="35.8829152" lon="10.108015"><ele>46.0</ele><time>2026-04-24T15:48:23.096Z</time></trkpt><trkpt lat="35.8828043" lon="10.1081628"><ele>46.0</ele><time>2026-04-24T15:48:24.103Z</time></trkpt><trkpt lat="35.8826935" lon="10.1083082"><ele>46.0</ele><time>2026-04-24T15:48:25.093Z</time></trkpt><trkpt lat="35.8825764" lon="10.1084596"><ele>45.333333333333336</ele><time>2026-04-24T15:48:26.127Z</time></trkpt><trkpt lat="35.8824663" lon="10.1086002"><ele>44.666666666666664</ele><time>2026-04-24T15:48:27.109Z</time></trkpt><trkpt lat="35.882358" lon="10.1087481"><ele>44.0</ele><time>2026-04-24T15:48:28.139Z</time></trkpt><trkpt lat="35.8822438" lon="10.1088903"><ele>44.0</ele><time>2026-04-24T15:48:29.107Z</time></trkpt><trkpt lat="35.8821309" lon="10.1090445"><ele>44.0</ele><time>2026-04-24T15:48:30.088Z</time></trkpt><trkpt lat="35.8820178" lon="10.1091888"><ele>44.0</ele><time>2026-04-24T15:48:31.117Z</time></trkpt><trkpt lat="35.8819052" lon="10.109331"><ele>44.0</ele><time>2026-04-24T15:48:32.1Z</time></trkpt><trkpt lat="35.8817881" lon="10.1094722"><ele>44.0</ele><time>2026-04-24T15:48:33.089Z</time></trkpt><trkpt lat="35.8816722" lon="10.1096166"><ele>44.0</ele><time>2026-04-24T15:48:34.102Z</time></trkpt><trkpt lat="35.8815601" lon="10.1097577"><ele>44.0</ele><time>2026-04-24T15:48:35.111Z</time></trkpt><trkpt lat="35.8814487" lon="10.1099028"><ele>44.0</ele><time>2026-04-24T15:48:36.115Z</time></trkpt><trkpt lat="35.8813337" lon="10.1100427"><ele>44.0</ele><time>2026-04-24T15:48:37.103Z</time></trkpt><trkpt lat="35.8812211" lon="10.1101845"><ele>43.666666666666664</ele><time>2026-04-24T15:48:38.114Z</time></trkpt><trkpt lat="35.8811019" lon="10.1103224"><ele>43.333333333333336</ele><time>2026-04-24T15:48:39.09Z</time></trkpt><trkpt lat="35.880989" lon="10.1104635"><ele>43.0</ele><time>2026-04-24T15:48:40.115Z</time></trkpt><trkpt lat="35.8808717" lon="10.1106041"><ele>42.66666666666667</ele><time>2026-04-24T15:48:41.104Z</time></trkpt><trkpt lat="35.8807554" lon="10.1107515"><ele>42.333333333333336</ele><time>2026-04-24T15:48:42.104Z</time></trkpt><trkpt lat="35.880641" lon="10.1109098"><ele>42.0</ele><time>2026-04-24T15:48:43.12Z</time></trkpt><trkpt lat="35.8805252" lon="10.1110667"><ele>42.0</ele><time>2026-04-24T15:48:44.123Z</time></trkpt><trkpt lat="35.8804072" lon="10.1112203"><ele>42.0</ele><time>2026-04-24T15:48:45.115Z</time></trkpt><trkpt lat="35.8802858" lon="10.1113725"><ele>42.0</ele><time>2026-04-24T15:48:46.105Z</time></trkpt><trkpt lat="35.8801679" lon="10.1115257"><ele>42.333333333333336</ele><time>2026-04-24T15:48:47.106Z</time></trkpt><trkpt lat="35.8800553" lon="10.1116844"><ele>42.66666666666667</ele><time>2026-04-24T15:48:48.105Z</time></trkpt><trkpt lat="35.879933" lon="10.1118372"><ele>43.0</ele><time>2026-04-24T15:48:49.107Z</time></trkpt><trkpt lat="35.879817" lon="10.1119938"><ele>43.0</ele><time>2026-04-24T15:48:50.099Z</time></trkpt><trkpt lat="35.8796987" lon="10.1121521"><ele>43.0</ele><time>2026-04-24T15:48:51.101Z</time></trkpt><trkpt lat="35.8795804" lon="10.112309"><ele>43.0</ele><time>2026-04-24T15:48:52.109Z</time></trkpt><trkpt lat="35.87946" lon="10.1124651"><ele>42.66666666666667</ele><time>2026-04-24T15:48:53.104Z</time></trkpt><trkpt lat="35.8793391" lon="10.1126141"><ele>42.333333333333336</ele><time>2026-04-24T15:48:54.104Z</time></trkpt><trkpt lat="35.8792187" lon="10.1127673"><ele>42.0</ele><time>2026-04-24T15:48:55.111Z</time></trkpt><trkpt lat="35.8791" lon="10.1129238"><ele>42.0</ele><time>2026-04-24T15:48:56.106Z</time></trkpt><trkpt lat="35.8789804" lon="10.1130819"><ele>42.0</ele><time>2026-04-24T15:48:57.091Z</time></trkpt><trkpt lat="35.8788554" lon="10.1132455"><ele>42.0</ele><time>2026-04-24T15:48:58.106Z</time></trkpt><trkpt lat="35.8787302" lon="10.1134071"><ele>42.333333333333336</ele><time>2026-04-24T15:48:59.1Z</time></trkpt><trkpt lat="35.8786036" lon="10.1135737"><ele>42.66666666666667</ele><time>2026-04-24T15:49:00.104Z</time></trkpt><trkpt lat="35.8784706" lon="10.1137407"><ele>43.0</ele><time>2026-04-24T15:49:01.098Z</time></trkpt><trkpt lat="35.8783406" lon="10.1139128"><ele>42.333333333333336</ele><time>2026-04-24T15:49:02.124Z</time></trkpt><trkpt lat="35.8782091" lon="10.1140814"><ele>41.666666666666664</ele><time>2026-04-24T15:49:03.099Z</time></trkpt><trkpt lat="35.8780749" lon="10.1142542"><ele>41.0</ele><time>2026-04-24T15:49:04.108Z</time></trkpt><trkpt lat="35.8779413" lon="10.1144201"><ele>41.0</ele><time>2026-04-24T15:49:05.098Z</time></trkpt><trkpt lat="35.8778085" lon="10.1145837"><ele>41.0</ele><time>2026-04-24T15:49:06.116Z</time></trkpt><trkpt lat="35.8776799" lon="10.1147456"><ele>41.0</ele><time>2026-04-24T15:49:07.097Z</time></trkpt><trkpt lat="35.8775508" lon="10.1149016"><ele>41.33333333333333</ele><time>2026-04-24T15:49:08.134Z</time></trkpt><trkpt lat="35.877426" lon="10.1150517"><ele>41.666666666666664</ele><time>2026-04-24T15:49:09.132Z</time></trkpt><trkpt lat="35.8772986" lon="10.1152036"><ele>42.0</ele><time>2026-04-24T15:49:10.082Z</time></trkpt><trkpt lat="35.8771789" lon="10.1153656"><ele>42.0</ele><time>2026-04-24T15:49:11.098Z</time></trkpt><trkpt lat="35.8770551" lon="10.1155232"><ele>42.0</ele><time>2026-04-24T15:49:12.128Z</time></trkpt><trkpt lat="35.8769317" lon="10.11567"><ele>42.0</ele><time>2026-04-24T15:49:13.122Z</time></trkpt><trkpt lat="35.876816" lon="10.1158167"><ele>42.333333333333336</ele><time>2026-04-24T15:49:14.116Z</time></trkpt><trkpt lat="35.8767039" lon="10.1159679"><ele>42.66666666666667</ele><time>2026-04-24T15:49:15.082Z</time></trkpt><trkpt lat="35.8765845" lon="10.1161228"><ele>43.0</ele><time>2026-04-24T15:49:16.089Z</time></trkpt><trkpt lat="35.8764622" lon="10.1162843"><ele>43.0</ele><time>2026-04-24T15:49:17.094Z</time></trkpt><trkpt lat="35.8763359" lon="10.1164459"><ele>43.0</ele><time>2026-04-24T15:49:18.113Z</time></trkpt><trkpt lat="35.8762115" lon="10.1166071"><ele>43.0</ele><time>2026-04-24T15:49:19.13Z</time></trkpt><trkpt lat="35.8760829" lon="10.1167726"><ele>42.66666666666667</ele><time>2026-04-24T15:49:20.112Z</time></trkpt><trkpt lat="35.8759592" lon="10.1169429"><ele>42.333333333333336</ele><time>2026-04-24T15:49:21.096Z</time></trkpt><trkpt lat="35.8758291" lon="10.1171065"><ele>42.0</ele><time>2026-04-24T15:49:22.106Z</time></trkpt><trkpt lat="35.8756974" lon="10.1172792"><ele>42.0</ele><time>2026-04-24T15:49:23.116Z</time></trkpt><trkpt lat="35.8755616" lon="10.1174538"><ele>42.0</ele><time>2026-04-24T15:49:24.107Z</time></trkpt><trkpt lat="35.8754268" lon="10.1176328"><ele>42.0</ele><time>2026-04-24T15:49:25.102Z</time></trkpt><trkpt lat="35.8752958" lon="10.117806"><ele>42.0</ele><time>2026-04-24T15:49:26.094Z</time></trkpt><trkpt lat="35.8751626" lon="10.1179725"><ele>42.0</ele><time>2026-04-24T15:49:27.097Z</time></trkpt><trkpt lat="35.8750319" lon="10.1181354"><ele>42.0</ele><time>2026-04-24T15:49:28.097Z</time></trkpt><trkpt lat="35.8748986" lon="10.1183052"><ele>41.666666666666664</ele><time>2026-04-24T15:49:29.1Z</time></trkpt><trkpt lat="35.8747676" lon="10.1184675"><ele>41.33333333333333</ele><time>2026-04-24T15:49:30.103Z</time></trkpt><trkpt lat="35.8746369" lon="10.1186409"><ele>41.0</ele><time>2026-04-24T15:49:31.133Z</time></trkpt><trkpt lat="35.8745035" lon="10.1188131"><ele>41.0</ele><time>2026-04-24T15:49:32.096Z</time></trkpt><trkpt lat="35.8743792" lon="10.1189871"><ele>41.0</ele><time>2026-04-24T15:49:33.107Z</time></trkpt><trkpt lat="35.8742522" lon="10.119152"><ele>41.0</ele><time>2026-04-24T15:49:34.096Z</time></trkpt><trkpt lat="35.8741286" lon="10.1193186"><ele>40.666666666666664</ele><time>2026-04-24T15:49:35.127Z</time></trkpt><trkpt lat="35.8740056" lon="10.119487"><ele>40.333333333333336</ele><time>2026-04-24T15:49:36.098Z</time></trkpt><trkpt lat="35.873879" lon="10.119656"><ele>40.0</ele><time>2026-04-24T15:49:37.095Z</time></trkpt><trkpt lat="35.8737515" lon="10.1198261"><ele>40.0</ele><time>2026-04-24T15:49:38.108Z</time></trkpt><trkpt lat="35.8736236" lon="10.1199918"><ele>40.0</ele><time>2026-04-24T15:49:39.089Z</time></trkpt><trkpt lat="35.8734949" lon="10.1201562"><ele>40.0</ele><time>2026-04-24T15:49:40.116Z</time></trkpt><trkpt lat="35.8733671" lon="10.1203225"><ele>40.0</ele><time>2026-04-24T15:49:41.1Z</time></trkpt><trkpt lat="35.8732375" lon="10.1204853"><ele>40.0</ele><time>2026-04-24T15:49:42.092Z</time></trkpt><trkpt lat="35.8731096" lon="10.1206509"><ele>40.0</ele><time>2026-04-24T15:49:43.098Z</time></trkpt><trkpt lat="35.8729799" lon="10.1208135"><ele>40.333333333333336</ele><time>2026-04-24T15:49:44.121Z</time></trkpt><trkpt lat="35.872849" lon="10.1209734"><ele>40.666666666666664</ele><time>2026-04-24T15:49:45.106Z</time></trkpt><trkpt lat="35.8727234" lon="10.1211321"><ele>41.0</ele><time>2026-04-24T15:49:46.112Z</time></trkpt><trkpt lat="35.8726014" lon="10.1212906"><ele>41.33333333333333</ele><time>2026-04-24T15:49:47.11Z</time></trkpt><trkpt lat="35.8724804" lon="10.1214562"><ele>41.666666666666664</ele><time>2026-04-24T15:49:48.111Z</time></trkpt><trkpt lat="35.8723574" lon="10.1216335"><ele>42.0</ele><time>2026-04-24T15:49:49.115Z</time></trkpt><trkpt lat="35.8722249" lon="10.1218078"><ele>41.333333333333336</ele><time>2026-04-24T15:49:50.094Z</time></trkpt><trkpt lat="35.8720958" lon="10.1219796"><ele>40.66666666666667</ele><time>2026-04-24T15:49:51.097Z</time></trkpt><trkpt lat="35.871966" lon="10.122148"><ele>40.0</ele><time>2026-04-24T15:49:52.105Z</time></trkpt><trkpt lat="35.8718452" lon="10.1223118"><ele>39.66666666666667</ele><time>2026-04-24T15:49:53.107Z</time></trkpt><trkpt lat="35.8717205" lon="10.1224712"><ele>39.333333333333336</ele><time>2026-04-24T15:49:54.116Z</time></trkpt><trkpt lat="35.8715996" lon="10.1226285"><ele>39.0</ele><time>2026-04-24T15:49:55.108Z</time></trkpt><trkpt lat="35.8714845" lon="10.1227865"><ele>39.0</ele><time>2026-04-24T15:49:56.104Z</time></trkpt><trkpt lat="35.8713718" lon="10.1229426"><ele>39.0</ele><time>2026-04-24T15:49:57.105Z</time></trkpt><trkpt lat="35.8712556" lon="10.1230928"><ele>39.0</ele><time>2026-04-24T15:49:58.087Z</time></trkpt><trkpt lat="35.8711381" lon="10.1232389"><ele>39.0</ele><time>2026-04-24T15:49:59.093Z</time></trkpt><trkpt lat="35.8710119" lon="10.1233699"><ele>39.0</ele><time>2026-04-24T15:50:00.089Z</time></trkpt><trkpt lat="35.870885" lon="10.1234956"><ele>39.0</ele><time>2026-04-24T15:50:01.092Z</time></trkpt><trkpt lat="35.8707435" lon="10.1236095"><ele>39.0</ele><time>2026-04-24T15:50:02.11Z</time></trkpt><trkpt lat="35.8705935" lon="10.1237207"><ele>39.0</ele><time>2026-04-24T15:50:03.097Z</time></trkpt><trkpt lat="35.8704411" lon="10.1238188"><ele>39.0</ele><time>2026-04-24T15:50:04.098Z</time></trkpt><trkpt lat="35.8702869" lon="10.1239063"><ele>39.0</ele><time>2026-04-24T15:50:05.095Z</time></trkpt><trkpt lat="35.8701322" lon="10.1239817"><ele>39.0</ele><time>2026-04-24T15:50:06.102Z</time></trkpt><trkpt lat="35.8699717" lon="10.1240454"><ele>39.0</ele><time>2026-04-24T15:50:07.102Z</time></trkpt><trkpt lat="35.8698064" lon="10.1240986"><ele>39.333333333333336</ele><time>2026-04-24T15:50:08.106Z</time></trkpt><trkpt lat="35.8696423" lon="10.1241481"><ele>39.66666666666667</ele><time>2026-04-24T15:50:09.109Z</time></trkpt><trkpt lat="35.8694767" lon="10.1242132"><ele>40.0</ele><time>2026-04-24T15:50:10.105Z</time></trkpt><trkpt lat="35.8693109" lon="10.1242672"><ele>39.66666666666667</ele><time>2026-04-24T15:50:11.102Z</time></trkpt><trkpt lat="35.869141" lon="10.1243122"><ele>39.333333333333336</ele><time>2026-04-24T15:50:12.104Z</time></trkpt><trkpt lat="35.8689758" lon="10.1243526"><ele>39.0</ele><time>2026-04-24T15:50:13.108Z</time></trkpt><trkpt lat="35.868808" lon="10.1244051"><ele>39.0</ele><time>2026-04-24T15:50:14.094Z</time></trkpt><trkpt lat="35.8686404" lon="10.1244574"><ele>39.0</ele><time>2026-04-24T15:50:15.102Z</time></trkpt><trkpt lat="35.8684708" lon="10.1245155"><ele>39.0</ele><time>2026-04-24T15:50:16.103Z</time></trkpt><trkpt lat="35.8683091" lon="10.1245667"><ele>38.666666666666664</ele><time>2026-04-24T15:50:17.086Z</time></trkpt><trkpt lat="35.8681546" lon="10.1246183"><ele>38.33333333333333</ele><time>2026-04-24T15:50:18.107Z</time></trkpt><trkpt lat="35.867993" lon="10.1246685"><ele>38.0</ele><time>2026-04-24T15:50:19.108Z</time></trkpt><trkpt lat="35.8678277" lon="10.1247231"><ele>38.0</ele><time>2026-04-24T15:50:20.109Z</time></trkpt><trkpt lat="35.8676582" lon="10.1247719"><ele>38.0</ele><time>2026-04-24T15:50:21.093Z</time></trkpt><trkpt lat="35.8674936" lon="10.1248214"><ele>38.0</ele><time>2026-04-24T15:50:22.114Z</time></trkpt><trkpt lat="35.8673285" lon="10.1248718"><ele>38.33333333333333</ele><time>2026-04-24T15:50:23.106Z</time></trkpt><trkpt lat="35.8671632" lon="10.1249243"><ele>38.666666666666664</ele><time>2026-04-24T15:50:24.11Z</time></trkpt><trkpt lat="35.8670011" lon="10.1249748"><ele>39.0</ele><time>2026-04-24T15:50:25.1Z</time></trkpt><trkpt lat="35.8668454" lon="10.125026"><ele>38.666666666666664</ele><time>2026-04-24T15:50:26.089Z</time></trkpt><trkpt lat="35.8666877" lon="10.125077"><ele>38.33333333333333</ele><time>2026-04-24T15:50:27.102Z</time></trkpt><trkpt lat="35.8665269" lon="10.1251241"><ele>38.0</ele><time>2026-04-24T15:50:28.106Z</time></trkpt><trkpt lat="35.8663693" lon="10.1251705"><ele>38.0</ele><time>2026-04-24T15:50:29.105Z</time></trkpt><trkpt lat="35.8662192" lon="10.1252141"><ele>38.0</ele><time>2026-04-24T15:50:30.099Z</time></trkpt><trkpt lat="35.8660649" lon="10.1252593"><ele>38.0</ele><time>2026-04-24T15:50:31.104Z</time></trkpt><trkpt lat="35.8659092" lon="10.1253041"><ele>37.666666666666664</ele><time>2026-04-24T15:50:32.107Z</time></trkpt><trkpt lat="35.8657577" lon="10.1253539"><ele>37.333333333333336</ele><time>2026-04-24T15:50:33.106Z</time></trkpt><trkpt lat="35.8656075" lon="10.1253948"><ele>37.0</ele><time>2026-04-24T15:50:34.109Z</time></trkpt><trkpt lat="35.865452" lon="10.1254404"><ele>37.0</ele><time>2026-04-24T15:50:35.104Z</time></trkpt><trkpt lat="35.8652994" lon="10.1254911"><ele>37.0</ele><time>2026-04-24T15:50:36.092Z</time></trkpt><trkpt lat="35.8651476" lon="10.1255309"><ele>37.0</ele><time>2026-04-24T15:50:37.109Z</time></trkpt><trkpt lat="35.8649972" lon="10.125572"><ele>37.66666666666667</ele><time>2026-04-24T15:50:38.107Z</time></trkpt><trkpt lat="35.864852" lon="10.1256172"><ele>38.333333333333336</ele><time>2026-04-24T15:50:39.098Z</time></trkpt><trkpt lat="35.8647051" lon="10.1256621"><ele>39.0</ele><time>2026-04-24T15:50:40.093Z</time></trkpt><trkpt lat="35.86456" lon="10.1257019"><ele>38.333333333333336</ele><time>2026-04-24T15:50:41.089Z</time></trkpt><trkpt lat="35.8644085" lon="10.1257471"><ele>37.66666666666667</ele><time>2026-04-24T15:50:42.099Z</time></trkpt><trkpt lat="35.8642588" lon="10.1257978"><ele>37.0</ele><time>2026-04-24T15:50:43.097Z</time></trkpt><trkpt lat="35.8641121" lon="10.1258428"><ele>37.0</ele><time>2026-04-24T15:50:44.115Z</time></trkpt><trkpt lat="35.8639646" lon="10.1258903"><ele>37.0</ele><time>2026-04-24T15:50:45.099Z</time></trkpt><trkpt lat="35.863819" lon="10.1259429"><ele>37.0</ele><time>2026-04-24T15:50:46.099Z</time></trkpt><trkpt lat="35.8636697" lon="10.1259931"><ele>37.0</ele><time>2026-04-24T15:50:47.107Z</time></trkpt><trkpt lat="35.8635202" lon="10.1260417"><ele>37.0</ele><time>2026-04-24T15:50:48.106Z</time></trkpt><trkpt lat="35.8633692" lon="10.1260875"><ele>37.0</ele><time>2026-04-24T15:50:49.102Z</time></trkpt><trkpt lat="35.8632133" lon="10.1261375"><ele>37.333333333333336</ele><time>2026-04-24T15:50:50.104Z</time></trkpt><trkpt lat="35.8630645" lon="10.1261833"><ele>37.666666666666664</ele><time>2026-04-24T15:50:51.109Z</time></trkpt><trkpt lat="35.8629144" lon="10.1262271"><ele>38.0</ele><time>2026-04-24T15:50:52.108Z</time></trkpt><trkpt lat="35.8627635" lon="10.1262676"><ele>37.0</ele><time>2026-04-24T15:50:53.106Z</time></trkpt><trkpt lat="35.8626093" lon="10.1263012"><ele>36.0</ele><time>2026-04-24T15:50:54.1Z</time></trkpt><trkpt lat="35.8624606" lon="10.1263171"><ele>35.0</ele><time>2026-04-24T15:50:55.104Z</time></trkpt><trkpt lat="35.8623089" lon="10.1263183"><ele>35.0</ele><time>2026-04-24T15:50:56.102Z</time></trkpt><trkpt lat="35.8621552" lon="10.12632"><ele>35.0</ele><time>2026-04-24T15:50:57.103Z</time></trkpt><trkpt lat="35.8619997" lon="10.1263109"><ele>35.0</ele><time>2026-04-24T15:50:58.107Z</time></trkpt><trkpt lat="35.8618411" lon="10.1263049"><ele>35.666666666666664</ele><time>2026-04-24T15:50:59.102Z</time></trkpt><trkpt lat="35.8616832" lon="10.1262972"><ele>36.333333333333336</ele><time>2026-04-24T15:51:00.091Z</time></trkpt><trkpt lat="35.8615232" lon="10.1262937"><ele>37.0</ele><time>2026-04-24T15:51:01.112Z</time></trkpt><trkpt lat="35.8613685" lon="10.1262847"><ele>37.0</ele><time>2026-04-24T15:51:02.117Z</time></trkpt><trkpt lat="35.8612155" lon="10.1262801"><ele>37.0</ele><time>2026-04-24T15:51:03.101Z</time></trkpt><trkpt lat="35.8610611" lon="10.1262769"><ele>37.0</ele><time>2026-04-24T15:51:04.099Z</time></trkpt><trkpt lat="35.8609094" lon="10.1262729"><ele>36.66666666666667</ele><time>2026-04-24T15:51:05.11Z</time></trkpt><trkpt lat="35.8607486" lon="10.1262694"><ele>36.333333333333336</ele><time>2026-04-24T15:51:06.106Z</time></trkpt><trkpt lat="35.8605875" lon="10.1262694"><ele>36.0</ele><time>2026-04-24T15:51:07.095Z</time></trkpt><trkpt lat="35.8604259" lon="10.1262561"><ele>36.0</ele><time>2026-04-24T15:51:08.097Z</time></trkpt><trkpt lat="35.860264" lon="10.1262506"><ele>36.0</ele><time>2026-04-24T15:51:09.109Z</time></trkpt><trkpt lat="35.8601028" lon="10.1262445"><ele>36.0</ele><time>2026-04-24T15:51:10.103Z</time></trkpt><trkpt lat="35.8599469" lon="10.1262415"><ele>35.666666666666664</ele><time>2026-04-24T15:51:11.097Z</time></trkpt><trkpt lat="35.8597945" lon="10.1262358"><ele>35.33333333333333</ele><time>2026-04-24T15:51:12.099Z</time></trkpt><trkpt lat="35.8596409" lon="10.1262367"><ele>35.0</ele><time>2026-04-24T15:51:13.084Z</time></trkpt><trkpt lat="35.8594846" lon="10.1262325"><ele>35.0</ele><time>2026-04-24T15:51:14.097Z</time></trkpt><trkpt lat="35.8593333" lon="10.1262247"><ele>35.0</ele><time>2026-04-24T15:51:15.098Z</time></trkpt><trkpt lat="35.8591736" lon="10.1262173"><ele>35.0</ele><time>2026-04-24T15:51:16.116Z</time></trkpt><trkpt lat="35.8590162" lon="10.1262109"><ele>34.666666666666664</ele><time>2026-04-24T15:51:17.098Z</time></trkpt><trkpt lat="35.8588642" lon="10.1262029"><ele>34.333333333333336</ele><time>2026-04-24T15:51:18.122Z</time></trkpt><trkpt lat="35.8587085" lon="10.1261933"><ele>34.0</ele><time>2026-04-24T15:51:19.107Z</time></trkpt><trkpt lat="35.8585501" lon="10.1261855"><ele>34.333333333333336</ele><time>2026-04-24T15:51:20.105Z</time></trkpt><trkpt lat="35.8583898" lon="10.1261809"><ele>34.666666666666664</ele><time>2026-04-24T15:51:21.1Z</time></trkpt><trkpt lat="35.8582307" lon="10.1261742"><ele>35.0</ele><time>2026-04-24T15:51:22.111Z</time></trkpt><trkpt lat="35.8580742" lon="10.1261696"><ele>35.0</ele><time>2026-04-24T15:51:23.111Z</time></trkpt><trkpt lat="35.8579152" lon="10.1261629"><ele>35.0</ele><time>2026-04-24T15:51:24.111Z</time></trkpt><trkpt lat="35.8577582" lon="10.1261663"><ele>35.0</ele><time>2026-04-24T15:51:25.115Z</time></trkpt><trkpt lat="35.8576001" lon="10.1261629"><ele>35.33333333333333</ele><time>2026-04-24T15:51:26.105Z</time></trkpt><trkpt lat="35.8574459" lon="10.1261547"><ele>35.666666666666664</ele><time>2026-04-24T15:51:27.097Z</time></trkpt><trkpt lat="35.8572877" lon="10.1261483"><ele>36.0</ele><time>2026-04-24T15:51:28.106Z</time></trkpt><trkpt lat="35.8571322" lon="10.1261433"><ele>36.0</ele><time>2026-04-24T15:51:29.109Z</time></trkpt><trkpt lat="35.8569823" lon="10.1261399"><ele>36.0</ele><time>2026-04-24T15:51:30.105Z</time></trkpt><trkpt lat="35.8568287" lon="10.1261392"><ele>36.0</ele><time>2026-04-24T15:51:31.096Z</time></trkpt><trkpt lat="35.8566729" lon="10.1261352"><ele>35.666666666666664</ele><time>2026-04-24T15:51:32.103Z</time></trkpt><trkpt lat="35.8565173" lon="10.1261346"><ele>35.33333333333333</ele><time>2026-04-24T15:51:33.108Z</time></trkpt><trkpt lat="35.8563664" lon="10.1261311"><ele>35.0</ele><time>2026-04-24T15:51:34.112Z</time></trkpt><trkpt lat="35.8562141" lon="10.1261293"><ele>35.0</ele><time>2026-04-24T15:51:35.094Z</time></trkpt><trkpt lat="35.8560621" lon="10.1261227"><ele>35.0</ele><time>2026-04-24T15:51:36.091Z</time></trkpt><trkpt lat="35.8559139" lon="10.1261129"><ele>35.0</ele><time>2026-04-24T15:51:37.104Z</time></trkpt><trkpt lat="35.8557608" lon="10.1261027"><ele>34.0</ele><time>2026-04-24T15:51:38.105Z</time></trkpt><trkpt lat="35.855607" lon="10.126102"><ele>33.0</ele><time>2026-04-24T15:51:39.103Z</time></trkpt><trkpt lat="35.8554526" lon="10.1260996"><ele>32.0</ele><time>2026-04-24T15:51:40.099Z</time></trkpt><trkpt lat="35.8553063" lon="10.1260927"><ele>32.0</ele><time>2026-04-24T15:51:41.11Z</time></trkpt><trkpt lat="35.8551523" lon="10.126084"><ele>32.0</ele><time>2026-04-24T15:51:42.112Z</time></trkpt><trkpt lat="35.8549993" lon="10.1260784"><ele>32.0</ele><time>2026-04-24T15:51:43.115Z</time></trkpt><trkpt lat="35.8548499" lon="10.1260716"><ele>32.0</ele><time>2026-04-24T15:51:44.102Z</time></trkpt><trkpt lat="35.8546956" lon="10.1260693"><ele>32.0</ele><time>2026-04-24T15:51:45.1Z</time></trkpt><trkpt lat="35.854541" lon="10.1260626"><ele>32.0</ele><time>2026-04-24T15:51:46.103Z</time></trkpt><trkpt lat="35.8543892" lon="10.1260538"><ele>32.33333333333333</ele><time>2026-04-24T15:51:47.103Z</time></trkpt><trkpt lat="35.854234" lon="10.1260492"><ele>32.666666666666664</ele><time>2026-04-24T15:51:48.103Z</time></trkpt><trkpt lat="35.8540805" lon="10.1260467"><ele>33.0</ele><time>2026-04-24T15:51:49.091Z</time></trkpt><trkpt lat="35.8539281" lon="10.1260492"><ele>33.0</ele><time>2026-04-24T15:51:50.109Z</time></trkpt><trkpt lat="35.8537739" lon="10.1260487"><ele>33.0</ele><time>2026-04-24T15:51:51.1Z</time></trkpt><trkpt lat="35.8536217" lon="10.1260494"><ele>33.0</ele><time>2026-04-24T15:51:52.1Z</time></trkpt><trkpt lat="35.8534671" lon="10.1260468"><ele>33.0</ele><time>2026-04-24T15:51:53.102Z</time></trkpt><trkpt lat="35.8533129" lon="10.1260455"><ele>33.0</ele><time>2026-04-24T15:51:54.106Z</time></trkpt><trkpt lat="35.8531607" lon="10.1260426"><ele>33.0</ele><time>2026-04-24T15:51:55.09Z</time></trkpt><trkpt lat="35.8530078" lon="10.1260396"><ele>33.0</ele><time>2026-04-24T15:51:56.096Z</time></trkpt><trkpt lat="35.8528538" lon="10.1260366"><ele>33.0</ele><time>2026-04-24T15:51:57.111Z</time></trkpt><trkpt lat="35.8527021" lon="10.1260336"><ele>33.0</ele><time>2026-04-24T15:51:58.111Z</time></trkpt><trkpt lat="35.852543" lon="10.126029"><ele>33.333333333333336</ele><time>2026-04-24T15:51:59.124Z</time></trkpt><trkpt lat="35.8523801" lon="10.1260305"><ele>33.66666666666667</ele><time>2026-04-24T15:52:00.09Z</time></trkpt><trkpt lat="35.8522227" lon="10.1260246"><ele>34.0</ele><time>2026-04-24T15:52:01.096Z</time></trkpt><trkpt lat="35.8520612" lon="10.1260302"><ele>34.0</ele><time>2026-04-24T15:52:02.099Z</time></trkpt><trkpt lat="35.8519069" lon="10.1260275"><ele>34.0</ele><time>2026-04-24T15:52:03.115Z</time></trkpt><trkpt lat="35.8517537" lon="10.1260242"><ele>34.0</ele><time>2026-04-24T15:52:04.109Z</time></trkpt><trkpt lat="35.8516059" lon="10.1260232"><ele>33.66666666666667</ele><time>2026-04-24T15:52:05.113Z</time></trkpt><trkpt lat="35.8514555" lon="10.1260307"><ele>33.333333333333336</ele><time>2026-04-24T15:52:06.101Z</time></trkpt><trkpt lat="35.8513039" lon="10.1260288"><ele>33.0</ele><time>2026-04-24T15:52:07.11Z</time></trkpt><trkpt lat="35.8511526" lon="10.1260218"><ele>33.0</ele><time>2026-04-24T15:52:08.084Z</time></trkpt><trkpt lat="35.8509966" lon="10.1260136"><ele>33.0</ele><time>2026-04-24T15:52:09.097Z</time></trkpt><trkpt lat="35.8508377" lon="10.126009"><ele>33.0</ele><time>2026-04-24T15:52:10.107Z</time></trkpt><trkpt lat="35.8506813" lon="10.1260065"><ele>33.666666666666664</ele><time>2026-04-24T15:52:11.101Z</time></trkpt><trkpt lat="35.8505228" lon="10.126009"><ele>34.33333333333333</ele><time>2026-04-24T15:52:12.113Z</time></trkpt><trkpt lat="35.8503644" lon="10.1260134"><ele>35.0</ele><time>2026-04-24T15:52:13.096Z</time></trkpt><trkpt lat="35.8502031" lon="10.1260286"><ele>35.0</ele><time>2026-04-24T15:52:14.08Z</time></trkpt><trkpt lat="35.8500415" lon="10.1260574"><ele>35.0</ele><time>2026-04-24T15:52:15.107Z</time></trkpt><trkpt lat="35.8498863" lon="10.1261005"><ele>35.0</ele><time>2026-04-24T15:52:16.109Z</time></trkpt><trkpt lat="35.8497306" lon="10.1261439"><ele>35.0</ele><time>2026-04-24T15:52:17.102Z</time></trkpt><trkpt lat="35.8495791" lon="10.1261863"><ele>35.0</ele><time>2026-04-24T15:52:18.099Z</time></trkpt><trkpt lat="35.8494309" lon="10.1262278"><ele>35.0</ele><time>2026-04-24T15:52:19.119Z</time></trkpt><trkpt lat="35.8492833" lon="10.1262605"><ele>35.75</ele><time>2026-04-24T15:52:20.11Z</time></trkpt><trkpt lat="35.8491414" lon="10.1263003"><ele>36.5</ele><time>2026-04-24T15:52:21.108Z</time></trkpt><trkpt lat="35.8489976" lon="10.1263402"><ele>37.25</ele><time>2026-04-24T15:52:22.103Z</time></trkpt><trkpt lat="35.8488531" lon="10.1263829"><ele>38.0</ele><time>2026-04-24T15:52:23.107Z</time></trkpt><trkpt lat="35.8487045" lon="10.1264231"><ele>38.0</ele><time>2026-04-24T15:52:24.112Z</time></trkpt><trkpt lat="35.8485573" lon="10.1264666"><ele>38.0</ele><time>2026-04-24T15:52:25.11Z</time></trkpt><trkpt lat="35.8484004" lon="10.1265094"><ele>38.0</ele><time>2026-04-24T15:52:26.089Z</time></trkpt><trkpt lat="35.8482452" lon="10.1265444"><ele>36.666666666666664</ele><time>2026-04-24T15:52:27.094Z</time></trkpt><trkpt lat="35.8480886" lon="10.1265875"><ele>35.333333333333336</ele><time>2026-04-24T15:52:28.1Z</time></trkpt><trkpt lat="35.8479336" lon="10.1266401"><ele>34.0</ele><time>2026-04-24T15:52:29.109Z</time></trkpt><trkpt lat="35.8477755" lon="10.1266902"><ele>34.66666666666667</ele><time>2026-04-24T15:52:30.105Z</time></trkpt><trkpt lat="35.8476253" lon="10.1267317"><ele>35.333333333333336</ele><time>2026-04-24T15:52:31.089Z</time></trkpt><trkpt lat="35.8474742" lon="10.1267714"><ele>36.0</ele><time>2026-04-24T15:52:32.114Z</time></trkpt><trkpt lat="35.84732" lon="10.1268121"><ele>36.0</ele><time>2026-04-24T15:52:33.085Z</time></trkpt><trkpt lat="35.8471679" lon="10.1268465"><ele>36.0</ele><time>2026-04-24T15:52:34.118Z</time></trkpt><trkpt lat="35.8470186" lon="10.1268875"><ele>36.0</ele><time>2026-04-24T15:52:35.098Z</time></trkpt><trkpt lat="35.8468714" lon="10.1269283"><ele>36.0</ele><time>2026-04-24T15:52:36.112Z</time></trkpt><trkpt lat="35.8467239" lon="10.1269681"><ele>36.0</ele><time>2026-04-24T15:52:37.1Z</time></trkpt><trkpt lat="35.8465721" lon="10.1270099"><ele>36.0</ele><time>2026-04-24T15:52:38.11Z</time></trkpt><trkpt lat="35.8464244" lon="10.1270526"><ele>36.0</ele><time>2026-04-24T15:52:39.1Z</time></trkpt><trkpt lat="35.8462716" lon="10.1270964"><ele>36.0</ele><time>2026-04-24T15:52:40.112Z</time></trkpt><trkpt lat="35.8461134" lon="10.1271358"><ele>36.0</ele><time>2026-04-24T15:52:41.111Z</time></trkpt><trkpt lat="35.8459596" lon="10.1271771"><ele>36.333333333333336</ele><time>2026-04-24T15:52:42.108Z</time></trkpt><trkpt lat="35.8458106" lon="10.1272172"><ele>36.66666666666667</ele><time>2026-04-24T15:52:43.121Z</time></trkpt><trkpt lat="35.8456558" lon="10.1272643"><ele>37.0</ele><time>2026-04-24T15:52:44.096Z</time></trkpt><trkpt lat="35.8454999" lon="10.1273027"><ele>37.0</ele><time>2026-04-24T15:52:45.1Z</time></trkpt><trkpt lat="35.8453404" lon="10.1273422"><ele>37.0</ele><time>2026-04-24T15:52:46.1Z</time></trkpt><trkpt lat="35.8451904" lon="10.1273799"><ele>37.0</ele><time>2026-04-24T15:52:47.112Z</time></trkpt><trkpt lat="35.8450408" lon="10.1274277"><ele>36.0</ele><time>2026-04-24T15:52:48.098Z</time></trkpt><trkpt lat="35.8448894" lon="10.1274656"><ele>35.0</ele><time>2026-04-24T15:52:49.095Z</time></trkpt><trkpt lat="35.8447391" lon="10.1275048"><ele>34.0</ele><time>2026-04-24T15:52:50.108Z</time></trkpt><trkpt lat="35.8445887" lon="10.1275498"><ele>34.0</ele><time>2026-04-24T15:52:51.1Z</time></trkpt><trkpt lat="35.8444345" lon="10.1275807"><ele>34.0</ele><time>2026-04-24T15:52:52.094Z</time></trkpt><trkpt lat="35.8442787" lon="10.1276171"><ele>34.0</ele><time>2026-04-24T15:52:53.09Z</time></trkpt><trkpt lat="35.8441282" lon="10.1276567"><ele>34.0</ele><time>2026-04-24T15:52:54.115Z</time></trkpt><trkpt lat="35.8439865" lon="10.1276974"><ele>34.0</ele><time>2026-04-24T15:52:55.105Z</time></trkpt><trkpt lat="35.8438414" lon="10.12774"><ele>34.0</ele><time>2026-04-24T15:52:56.091Z</time></trkpt><trkpt lat="35.8436976" lon="10.127779"><ele>34.0</ele><time>2026-04-24T15:52:57.096Z</time></trkpt><trkpt lat="35.8435525" lon="10.1278174"><ele>34.333333333333336</ele><time>2026-04-24T15:52:58.104Z</time></trkpt><trkpt lat="35.8434076" lon="10.1278592"><ele>34.666666666666664</ele><time>2026-04-24T15:52:59.086Z</time></trkpt><trkpt lat="35.843256" lon="10.1278966"><ele>35.0</ele><time>2026-04-24T15:53:00.105Z</time></trkpt><trkpt lat="35.843105" lon="10.1279279"><ele>35.0</ele><time>2026-04-24T15:53:01.101Z</time></trkpt><trkpt lat="35.8429528" lon="10.1279694"><ele>35.0</ele><time>2026-04-24T15:53:02.09Z</time></trkpt><trkpt lat="35.842805" lon="10.1280084"><ele>35.0</ele><time>2026-04-24T15:53:03.097Z</time></trkpt><trkpt lat="35.8426542" lon="10.1280554"><ele>34.666666666666664</ele><time>2026-04-24T15:53:04.101Z</time></trkpt><trkpt lat="35.8425003" lon="10.1280953"><ele>34.333333333333336</ele><time>2026-04-24T15:53:05.113Z</time></trkpt><trkpt lat="35.8423527" lon="10.128131"><ele>34.0</ele><time>2026-04-24T15:53:06.107Z</time></trkpt><trkpt lat="35.8422014" lon="10.1281748"><ele>34.0</ele><time>2026-04-24T15:53:07.105Z</time></trkpt><trkpt lat="35.8420477" lon="10.1282184"><ele>34.0</ele><time>2026-04-24T15:53:08.081Z</time></trkpt><trkpt lat="35.8418965" lon="10.1282597"><ele>34.0</ele><time>2026-04-24T15:53:09.115Z</time></trkpt><trkpt lat="35.8417436" lon="10.1282991"><ele>34.0</ele><time>2026-04-24T15:53:10.116Z</time></trkpt><trkpt lat="35.8415891" lon="10.1283355"><ele>34.0</ele><time>2026-04-24T15:53:11.121Z</time></trkpt><trkpt lat="35.8414366" lon="10.128379"><ele>34.0</ele><time>2026-04-24T15:53:12.132Z</time></trkpt><trkpt lat="35.8412856" lon="10.1284193"><ele>34.0</ele><time>2026-04-24T15:53:13.103Z</time></trkpt><trkpt lat="35.8411377" lon="10.1284576"><ele>34.0</ele><time>2026-04-24T15:53:14.104Z</time></trkpt><trkpt lat="35.8409885" lon="10.1285022"><ele>34.0</ele><time>2026-04-24T15:53:15.13Z</time></trkpt><trkpt lat="35.8408354" lon="10.1285464"><ele>33.333333333333336</ele><time>2026-04-24T15:53:16.1Z</time></trkpt><trkpt lat="35.8406784" lon="10.1285936"><ele>32.666666666666664</ele><time>2026-04-24T15:53:17.127Z</time></trkpt><trkpt lat="35.8405242" lon="10.1286414"><ele>32.0</ele><time>2026-04-24T15:53:18.115Z</time></trkpt><trkpt lat="35.8403718" lon="10.1286927"><ele>32.0</ele><time>2026-04-24T15:53:19.127Z</time></trkpt><trkpt lat="35.8402211" lon="10.1287442"><ele>32.0</ele><time>2026-04-24T15:53:20.121Z</time></trkpt><trkpt lat="35.8400689" lon="10.1287958"><ele>32.0</ele><time>2026-04-24T15:53:21.113Z</time></trkpt><trkpt lat="35.8399228" lon="10.1288551"><ele>32.33333333333333</ele><time>2026-04-24T15:53:22.105Z</time></trkpt><trkpt lat="35.8397792" lon="10.1289113"><ele>32.666666666666664</ele><time>2026-04-24T15:53:23.133Z</time></trkpt><trkpt lat="35.8396336" lon="10.1289696"><ele>33.0</ele><time>2026-04-24T15:53:24.127Z</time></trkpt><trkpt lat="35.8394883" lon="10.129027"><ele>33.333333333333336</ele><time>2026-04-24T15:53:25.12Z</time></trkpt><trkpt lat="35.8393444" lon="10.1290792"><ele>33.66666666666667</ele><time>2026-04-24T15:53:26.128Z</time></trkpt><trkpt lat="35.8391991" lon="10.1291355"><ele>34.0</ele><time>2026-04-24T15:53:27.129Z</time></trkpt><trkpt lat="35.8390499" lon="10.1291941"><ele>34.0</ele><time>2026-04-24T15:53:28.148Z</time></trkpt><trkpt lat="35.8389063" lon="10.1292461"><ele>34.0</ele><time>2026-04-24T15:53:29.122Z</time></trkpt><trkpt lat="35.8387608" lon="10.1293043"><ele>34.0</ele><time>2026-04-24T15:53:30.119Z</time></trkpt><trkpt lat="35.8386168" lon="10.1293592"><ele>34.333333333333336</ele><time>2026-04-24T15:53:31.129Z</time></trkpt><trkpt lat="35.8384634" lon="10.1294133"><ele>34.666666666666664</ele><time>2026-04-24T15:53:32.103Z</time></trkpt><trkpt lat="35.8383165" lon="10.1294681"><ele>35.0</ele><time>2026-04-24T15:53:33.125Z</time></trkpt><trkpt lat="35.8381652" lon="10.1295292"><ele>35.0</ele><time>2026-04-24T15:53:34.108Z</time></trkpt><trkpt lat="35.838011" lon="10.1295849"><ele>35.0</ele><time>2026-04-24T15:53:35.117Z</time></trkpt><trkpt lat="35.8378588" lon="10.1296462"><ele>35.0</ele><time>2026-04-24T15:53:36.137Z</time></trkpt><trkpt lat="35.8377118" lon="10.1297035"><ele>34.666666666666664</ele><time>2026-04-24T15:53:37.132Z</time></trkpt><trkpt lat="35.8375621" lon="10.1297627"><ele>34.333333333333336</ele><time>2026-04-24T15:53:38.123Z</time></trkpt><trkpt lat="35.8374115" lon="10.1298271"><ele>34.0</ele><time>2026-04-24T15:53:39.119Z</time></trkpt><trkpt lat="35.8372654" lon="10.1298892"><ele>33.0</ele><time>2026-04-24T15:53:40.119Z</time></trkpt><trkpt lat="35.8371179" lon="10.1299473"><ele>32.0</ele><time>2026-04-24T15:53:41.134Z</time></trkpt><trkpt lat="35.8369712" lon="10.1299998"><ele>31.0</ele><time>2026-04-24T15:53:42.119Z</time></trkpt><trkpt lat="35.8368271" lon="10.1300585"><ele>32.333333333333336</ele><time>2026-04-24T15:53:43.125Z</time></trkpt><trkpt lat="35.8366792" lon="10.1301173"><ele>33.666666666666664</ele><time>2026-04-24T15:53:44.126Z</time></trkpt><trkpt lat="35.8365361" lon="10.1301749"><ele>35.0</ele><time>2026-04-24T15:53:45.103Z</time></trkpt><trkpt lat="35.8363858" lon="10.1302346"><ele>35.0</ele><time>2026-04-24T15:53:46.129Z</time></trkpt><trkpt lat="35.8362383" lon="10.1302936"><ele>35.0</ele><time>2026-04-24T15:53:47.125Z</time></trkpt><trkpt lat="35.8360942" lon="10.1303553"><ele>35.0</ele><time>2026-04-24T15:53:48.135Z</time></trkpt><trkpt lat="35.8359499" lon="10.1304162"><ele>35.0</ele><time>2026-04-24T15:53:49.103Z</time></trkpt><trkpt lat="35.8357997" lon="10.1304703"><ele>35.0</ele><time>2026-04-24T15:53:50.125Z</time></trkpt><trkpt lat="35.8356529" lon="10.1305257"><ele>35.0</ele><time>2026-04-24T15:53:51.123Z</time></trkpt><trkpt lat="35.8355045" lon="10.1305861"><ele>35.0</ele><time>2026-04-24T15:53:52.109Z</time></trkpt><trkpt lat="35.8353574" lon="10.1306455"><ele>35.0</ele><time>2026-04-24T15:53:53.134Z</time></trkpt><trkpt lat="35.8352108" lon="10.1307054"><ele>35.0</ele><time>2026-04-24T15:53:54.127Z</time></trkpt><trkpt lat="35.8350606" lon="10.1307583"><ele>34.0</ele><time>2026-04-24T15:53:55.131Z</time></trkpt><trkpt lat="35.8349151" lon="10.1308117"><ele>33.0</ele><time>2026-04-24T15:53:56.128Z</time></trkpt><trkpt lat="35.8347696" lon="10.1308692"><ele>32.0</ele><time>2026-04-24T15:53:57.131Z</time></trkpt><trkpt lat="35.8346203" lon="10.1309284"><ele>32.0</ele><time>2026-04-24T15:53:58.125Z</time></trkpt><trkpt lat="35.8344732" lon="10.1309833"><ele>32.0</ele><time>2026-04-24T15:53:59.119Z</time></trkpt><trkpt lat="35.8343268" lon="10.1310374"><ele>32.0</ele><time>2026-04-24T15:54:00.115Z</time></trkpt><trkpt lat="35.8341763" lon="10.1310986"><ele>32.666666666666664</ele><time>2026-04-24T15:54:01.118Z</time></trkpt><trkpt lat="35.8340255" lon="10.1311539"><ele>33.333333333333336</ele><time>2026-04-24T15:54:02.119Z</time></trkpt><trkpt lat="35.8338793" lon="10.1312147"><ele>34.0</ele><time>2026-04-24T15:54:03.102Z</time></trkpt><trkpt lat="35.8337318" lon="10.1312764"><ele>34.0</ele><time>2026-04-24T15:54:04.126Z</time></trkpt><trkpt lat="35.8335849" lon="10.1313405"><ele>34.0</ele><time>2026-04-24T15:54:05.112Z</time></trkpt><trkpt lat="35.8334346" lon="10.1314009"><ele>34.0</ele><time>2026-04-24T15:54:06.131Z</time></trkpt><trkpt lat="35.8332853" lon="10.1314579"><ele>33.66666666666667</ele><time>2026-04-24T15:54:07.135Z</time></trkpt><trkpt lat="35.833137" lon="10.1315164"><ele>33.333333333333336</ele><time>2026-04-24T15:54:08.121Z</time></trkpt><trkpt lat="35.8329921" lon="10.1315677"><ele>33.0</ele><time>2026-04-24T15:54:09.127Z</time></trkpt><trkpt lat="35.8328442" lon="10.1316207"><ele>33.333333333333336</ele><time>2026-04-24T15:54:10.116Z</time></trkpt><trkpt lat="35.8326998" lon="10.1316713"><ele>33.66666666666667</ele><time>2026-04-24T15:54:11.149Z</time></trkpt><trkpt lat="35.8325547" lon="10.1317223"><ele>34.0</ele><time>2026-04-24T15:54:12.124Z</time></trkpt><trkpt lat="35.8324032" lon="10.1317825"><ele>34.0</ele><time>2026-04-24T15:54:13.123Z</time></trkpt><trkpt lat="35.8322554" lon="10.1318395"><ele>34.0</ele><time>2026-04-24T15:54:14.135Z</time></trkpt><trkpt lat="35.8321103" lon="10.1318953"><ele>34.0</ele><time>2026-04-24T15:54:15.107Z</time></trkpt><trkpt lat="35.831964" lon="10.1319567"><ele>34.0</ele><time>2026-04-24T15:54:16.128Z</time></trkpt><trkpt lat="35.8318126" lon="10.132014"><ele>34.0</ele><time>2026-04-24T15:54:17.126Z</time></trkpt><trkpt lat="35.831663" lon="10.1320715"><ele>34.0</ele><time>2026-04-24T15:54:18.134Z</time></trkpt><trkpt lat="35.8315163" lon="10.1321296"><ele>33.66666666666667</ele><time>2026-04-24T15:54:19.13Z</time></trkpt><trkpt lat="35.8313677" lon="10.1321875"><ele>33.333333333333336</ele><time>2026-04-24T15:54:20.113Z</time></trkpt><trkpt lat="35.8312219" lon="10.1322471"><ele>33.0</ele><time>2026-04-24T15:54:21.137Z</time></trkpt><trkpt lat="35.8310747" lon="10.1323051"><ele>33.0</ele><time>2026-04-24T15:54:22.131Z</time></trkpt><trkpt lat="35.8309257" lon="10.1323617"><ele>33.0</ele><time>2026-04-24T15:54:23.123Z</time></trkpt><trkpt lat="35.8307801" lon="10.1324216"><ele>33.0</ele><time>2026-04-24T15:54:24.136Z</time></trkpt><trkpt lat="35.8306293" lon="10.1324809"><ele>32.666666666666664</ele><time>2026-04-24T15:54:25.129Z</time></trkpt><trkpt lat="35.830482" lon="10.1325424"><ele>32.33333333333333</ele><time>2026-04-24T15:54:26.121Z</time></trkpt><trkpt lat="35.8303319" lon="10.1325981"><ele>32.0</ele><time>2026-04-24T15:54:27.119Z</time></trkpt><trkpt lat="35.8301852" lon="10.1326579"><ele>32.33333333333333</ele><time>2026-04-24T15:54:28.123Z</time></trkpt><trkpt lat="35.8300365" lon="10.1327128"><ele>32.666666666666664</ele><time>2026-04-24T15:54:29.133Z</time></trkpt><trkpt lat="35.8298901" lon="10.1327755"><ele>33.0</ele><time>2026-04-24T15:54:30.124Z</time></trkpt><trkpt lat="35.8297427" lon="10.132834"><ele>33.0</ele><time>2026-04-24T15:54:31.133Z</time></trkpt><trkpt lat="35.8295937" lon="10.1328869"><ele>33.0</ele><time>2026-04-24T15:54:32.135Z</time></trkpt><trkpt lat="35.8294461" lon="10.1329403"><ele>33.0</ele><time>2026-04-24T15:54:33.124Z</time></trkpt><trkpt lat="35.8292952" lon="10.1329929"><ele>33.666666666666664</ele><time>2026-04-24T15:54:34.13Z</time></trkpt><trkpt lat="35.8291478" lon="10.1330483"><ele>34.33333333333333</ele><time>2026-04-24T15:54:35.116Z</time></trkpt><trkpt lat="35.828998" lon="10.1331191"><ele>35.0</ele><time>2026-04-24T15:54:36.132Z</time></trkpt><trkpt lat="35.8288518" lon="10.1331946"><ele>34.33333333333333</ele><time>2026-04-24T15:54:37.126Z</time></trkpt><trkpt lat="35.8287063" lon="10.1332585"><ele>33.666666666666664</ele><time>2026-04-24T15:54:38.115Z</time></trkpt><trkpt lat="35.8285622" lon="10.1333153"><ele>33.0</ele><time>2026-04-24T15:54:39.121Z</time></trkpt><trkpt lat="35.8284172" lon="10.1333733"><ele>32.666666666666664</ele><time>2026-04-24T15:54:40.139Z</time></trkpt><trkpt lat="35.8282726" lon="10.1334295"><ele>32.33333333333333</ele><time>2026-04-24T15:54:41.126Z</time></trkpt><trkpt lat="35.8281279" lon="10.1334868"><ele>32.0</ele><time>2026-04-24T15:54:42.124Z</time></trkpt><trkpt lat="35.8279787" lon="10.133542"><ele>32.0</ele><time>2026-04-24T15:54:43.099Z</time></trkpt><trkpt lat="35.8278319" lon="10.133595"><ele>32.0</ele><time>2026-04-24T15:54:44.097Z</time></trkpt><trkpt lat="35.8276837" lon="10.1336494"><ele>32.0</ele><time>2026-04-24T15:54:45.116Z</time></trkpt><trkpt lat="35.8275345" lon="10.1337117"><ele>32.0</ele><time>2026-04-24T15:54:46.081Z</time></trkpt><trkpt lat="35.8273868" lon="10.1337734"><ele>32.0</ele><time>2026-04-24T15:54:47.117Z</time></trkpt><trkpt lat="35.8272364" lon="10.1338298"><ele>32.0</ele><time>2026-04-24T15:54:48.117Z</time></trkpt><trkpt lat="35.8270938" lon="10.1338856"><ele>32.0</ele><time>2026-04-24T15:54:49.131Z</time></trkpt><trkpt lat="35.8269483" lon="10.1339481"><ele>32.0</ele><time>2026-04-24T15:54:50.126Z</time></trkpt><trkpt lat="35.8268014" lon="10.1340115"><ele>32.0</ele><time>2026-04-24T15:54:51.127Z</time></trkpt><trkpt lat="35.8266572" lon="10.1340726"><ele>32.0</ele><time>2026-04-24T15:54:52.13Z</time></trkpt><trkpt lat="35.8265061" lon="10.1341383"><ele>32.0</ele><time>2026-04-24T15:54:53.118Z</time></trkpt><trkpt lat="35.8263401" lon="10.134201"><ele>32.0</ele><time>2026-04-24T15:54:54.087Z</time></trkpt><trkpt lat="35.8261692" lon="10.1342671"><ele>32.0</ele><time>2026-04-24T15:54:55.127Z</time></trkpt><trkpt lat="35.825994" lon="10.1343318"><ele>32.0</ele><time>2026-04-24T15:54:56.132Z</time></trkpt><trkpt lat="35.8258257" lon="10.1343855"><ele>32.0</ele><time>2026-04-24T15:54:57.127Z</time></trkpt><trkpt lat="35.8256616" lon="10.13444"><ele>31.666666666666664</ele><time>2026-04-24T15:54:58.128Z</time></trkpt><trkpt lat="35.8254991" lon="10.1344932"><ele>31.333333333333336</ele><time>2026-04-24T15:54:59.126Z</time></trkpt><trkpt lat="35.8253487" lon="10.1345513"><ele>31.0</ele><time>2026-04-24T15:55:00.105Z</time></trkpt><trkpt lat="35.8252051" lon="10.1346111"><ele>31.5</ele><time>2026-04-24T15:55:01.122Z</time></trkpt><trkpt lat="35.8250627" lon="10.1346642"><ele>32.0</ele><time>2026-04-24T15:55:02.133Z</time></trkpt><trkpt lat="35.8249156" lon="10.1347127"><ele>32.5</ele><time>2026-04-24T15:55:03.124Z</time></trkpt><trkpt lat="35.8247726" lon="10.1347584"><ele>33.0</ele><time>2026-04-24T15:55:04.096Z</time></trkpt><trkpt lat="35.8246248" lon="10.1348064"><ele>33.0</ele><time>2026-04-24T15:55:05.117Z</time></trkpt><trkpt lat="35.8244733" lon="10.1348684"><ele>33.0</ele><time>2026-04-24T15:55:06.128Z</time></trkpt><trkpt lat="35.8243207" lon="10.1349233"><ele>33.0</ele><time>2026-04-24T15:55:07.12Z</time></trkpt><trkpt lat="35.824169" lon="10.1349797"><ele>31.666666666666664</ele><time>2026-04-24T15:55:08.118Z</time></trkpt><trkpt lat="35.8240165" lon="10.1350347"><ele>30.333333333333332</ele><time>2026-04-24T15:55:09.124Z</time></trkpt><trkpt lat="35.8238725" lon="10.13509"><ele>29.0</ele><time>2026-04-24T15:55:10.12Z</time></trkpt><trkpt lat="35.823728" lon="10.1351413"><ele>29.0</ele><time>2026-04-24T15:55:11.128Z</time></trkpt><trkpt lat="35.8235837" lon="10.1351933"><ele>29.0</ele><time>2026-04-24T15:55:12.133Z</time></trkpt><trkpt lat="35.8234387" lon="10.1352491"><ele>29.0</ele><time>2026-04-24T15:55:13.119Z</time></trkpt><trkpt lat="35.8233048" lon="10.1352962"><ele>29.0</ele><time>2026-04-24T15:55:14.127Z</time></trkpt><trkpt lat="35.8231814" lon="10.1353434"><ele>29.799999999999997</ele><time>2026-04-24T15:55:15.109Z</time></trkpt><trkpt lat="35.8230753" lon="10.1353829"><ele>30.599999999999998</ele><time>2026-04-24T15:55:16.127Z</time></trkpt><trkpt lat="35.8229779" lon="10.1354185"><ele>31.4</ele><time>2026-04-24T15:55:17.116Z</time></trkpt><trkpt lat="35.8228824" lon="10.1354529"><ele>32.199999999999996</ele><time>2026-04-24T15:55:18.13Z</time></trkpt><trkpt lat="35.8227867" lon="10.1354871"><ele>33.0</ele><time>2026-04-24T15:55:19.125Z</time></trkpt><trkpt lat="35.8226805" lon="10.1355192"><ele>32.75</ele><time>2026-04-24T15:55:20.125Z</time></trkpt><trkpt lat="35.822574" lon="10.1355602"><ele>32.5</ele><time>2026-04-24T15:55:21.101Z</time></trkpt><trkpt lat="35.8224641" lon="10.1356061"><ele>32.25</ele><time>2026-04-24T15:55:22.128Z</time></trkpt><trkpt lat="35.8223476" lon="10.1356489"><ele>32.0</ele><time>2026-04-24T15:55:23.132Z</time></trkpt><trkpt lat="35.8222347" lon="10.1356856"><ele>31.75</ele><time>2026-04-24T15:55:24.114Z</time></trkpt><trkpt lat="35.8221146" lon="10.1357287"><ele>31.5</ele><time>2026-04-24T15:55:25.11Z</time></trkpt><trkpt lat="35.8219919" lon="10.1357725"><ele>31.25</ele><time>2026-04-24T15:55:26.128Z</time></trkpt><trkpt lat="35.8218645" lon="10.1358109"><ele>31.0</ele><time>2026-04-24T15:55:27.123Z</time></trkpt><trkpt lat="35.8217351" lon="10.1358519"><ele>31.0</ele><time>2026-04-24T15:55:28.124Z</time></trkpt><trkpt lat="35.8216017" lon="10.1359022"><ele>31.0</ele><time>2026-04-24T15:55:29.105Z</time></trkpt><trkpt lat="35.8214723" lon="10.1359536"><ele>31.0</ele><time>2026-04-24T15:55:30.126Z</time></trkpt><trkpt lat="35.8213388" lon="10.1360079"><ele>31.0</ele><time>2026-04-24T15:55:31.125Z</time></trkpt><trkpt lat="35.8212084" lon="10.1360615"><ele>31.0</ele><time>2026-04-24T15:55:32.131Z</time></trkpt><trkpt lat="35.8210724" lon="10.136127"><ele>31.0</ele><time>2026-04-24T15:55:33.129Z</time></trkpt><trkpt lat="35.8209381" lon="10.1361876"><ele>31.0</ele><time>2026-04-24T15:55:34.124Z</time></trkpt><trkpt lat="35.8208071" lon="10.1362578"><ele>31.0</ele><time>2026-04-24T15:55:35.118Z</time></trkpt><trkpt lat="35.8206852" lon="10.1363391"><ele>31.0</ele><time>2026-04-24T15:55:36.117Z</time></trkpt><trkpt lat="35.8205608" lon="10.1364224"><ele>31.0</ele><time>2026-04-24T15:55:37.09Z</time></trkpt><trkpt lat="35.8204416" lon="10.1365139"><ele>31.0</ele><time>2026-04-24T15:55:38.124Z</time></trkpt><trkpt lat="35.8203281" lon="10.1366199"><ele>31.0</ele><time>2026-04-24T15:55:39.122Z</time></trkpt><trkpt lat="35.820213" lon="10.1367236"><ele>30.5</ele><time>2026-04-24T15:55:40.11Z</time></trkpt><trkpt lat="35.8201001" lon="10.1368142"><ele>30.0</ele><time>2026-04-24T15:55:41.121Z</time></trkpt><trkpt lat="35.8199823" lon="10.136904"><ele>29.5</ele><time>2026-04-24T15:55:42.098Z</time></trkpt><trkpt lat="35.8198689" lon="10.1369999"><ele>29.0</ele><time>2026-04-24T15:55:43.128Z</time></trkpt><trkpt lat="35.8197543" lon="10.1370937"><ele>29.0</ele><time>2026-04-24T15:55:44.123Z</time></trkpt><trkpt lat="35.8196396" lon="10.1371839"><ele>29.0</ele><time>2026-04-24T15:55:45.111Z</time></trkpt><trkpt lat="35.8195326" lon="10.1372757"><ele>29.0</ele><time>2026-04-24T15:55:46.117Z</time></trkpt><trkpt lat="35.8194214" lon="10.1373689"><ele>29.0</ele><time>2026-04-24T15:55:47.098Z</time></trkpt><trkpt lat="35.8193108" lon="10.1374623"><ele>29.0</ele><time>2026-04-24T15:55:48.073Z</time></trkpt><trkpt lat="35.8191995" lon="10.1375612"><ele>29.0</ele><time>2026-04-24T15:55:49.092Z</time></trkpt><trkpt lat="35.8190912" lon="10.1376526"><ele>29.0</ele><time>2026-04-24T15:55:50.125Z</time></trkpt><trkpt lat="35.8189816" lon="10.1377459"><ele>29.0</ele><time>2026-04-24T15:55:51.119Z</time></trkpt><trkpt lat="35.8188745" lon="10.1378383"><ele>29.0</ele><time>2026-04-24T15:55:52.124Z</time></trkpt><trkpt lat="35.8187702" lon="10.1379259"><ele>29.0</ele><time>2026-04-24T15:55:53.122Z</time></trkpt><trkpt lat="35.8186668" lon="10.1380179"><ele>29.0</ele><time>2026-04-24T15:55:54.122Z</time></trkpt><trkpt lat="35.8185608" lon="10.1381059"><ele>29.0</ele><time>2026-04-24T15:55:55.108Z</time></trkpt><trkpt lat="35.8184585" lon="10.1381944"><ele>29.25</ele><time>2026-04-24T15:55:56.093Z</time></trkpt><trkpt lat="35.8183548" lon="10.1382859"><ele>29.5</ele><time>2026-04-24T15:55:57.103Z</time></trkpt><trkpt lat="35.8182517" lon="10.1383744"><ele>29.75</ele><time>2026-04-24T15:55:58.123Z</time></trkpt><trkpt lat="35.8181551" lon="10.1384632"><ele>30.0</ele><time>2026-04-24T15:55:59.124Z</time></trkpt><trkpt lat="35.818054" lon="10.1385488"><ele>30.0</ele><time>2026-04-24T15:56:00.102Z</time></trkpt><trkpt lat="35.81795" lon="10.1386321"><ele>30.0</ele><time>2026-04-24T15:56:01.111Z</time></trkpt><trkpt lat="35.8178458" lon="10.1387203"><ele>30.0</ele><time>2026-04-24T15:56:02.12Z</time></trkpt><trkpt lat="35.8177448" lon="10.1388074"><ele>30.0</ele><time>2026-04-24T15:56:03.131Z</time></trkpt><trkpt lat="35.8176421" lon="10.1388929"><ele>30.0</ele><time>2026-04-24T15:56:04.122Z</time></trkpt><trkpt lat="35.8175398" lon="10.1389836"><ele>30.0</ele><time>2026-04-24T15:56:05.097Z</time></trkpt><trkpt lat="35.8174438" lon="10.1390688"><ele>30.0</ele><time>2026-04-24T15:56:06.075Z</time></trkpt><trkpt lat="35.8173454" lon="10.1391471"><ele>30.0</ele><time>2026-04-24T15:56:07.113Z</time></trkpt><trkpt lat="35.8172472" lon="10.139227"><ele>29.75</ele><time>2026-04-24T15:56:08.119Z</time></trkpt><trkpt lat="35.8171454" lon="10.1393111"><ele>29.5</ele><time>2026-04-24T15:56:09.119Z</time></trkpt><trkpt lat="35.8170478" lon="10.1393936"><ele>29.25</ele><time>2026-04-24T15:56:10.081Z</time></trkpt><trkpt lat="35.8169565" lon="10.1394727"><ele>29.0</ele><time>2026-04-24T15:56:11.093Z</time></trkpt><trkpt lat="35.8168663" lon="10.1395581"><ele>29.2</ele><time>2026-04-24T15:56:12.117Z</time></trkpt><trkpt lat="35.8167743" lon="10.1396391"><ele>29.4</ele><time>2026-04-24T15:56:13.1Z</time></trkpt><trkpt lat="35.816687" lon="10.1397137"><ele>29.6</ele><time>2026-04-24T15:56:14.103Z</time></trkpt><trkpt lat="35.8165987" lon="10.139787"><ele>29.8</ele><time>2026-04-24T15:56:15.085Z</time></trkpt><trkpt lat="35.816512" lon="10.1398676"><ele>30.0</ele><time>2026-04-24T15:56:16.138Z</time></trkpt><trkpt lat="35.8164243" lon="10.1399482"><ele>30.2</ele><time>2026-04-24T15:56:17.094Z</time></trkpt><trkpt lat="35.8163369" lon="10.1400234"><ele>30.4</ele><time>2026-04-24T15:56:18.113Z</time></trkpt><trkpt lat="35.8162455" lon="10.1400983"><ele>30.6</ele><time>2026-04-24T15:56:19.122Z</time></trkpt><trkpt lat="35.8161555" lon="10.1401688"><ele>30.8</ele><time>2026-04-24T15:56:20.124Z</time></trkpt><trkpt lat="35.8160702" lon="10.1402441"><ele>31.0</ele><time>2026-04-24T15:56:21.091Z</time></trkpt><trkpt lat="35.8159848" lon="10.1403168"><ele>31.4</ele><time>2026-04-24T15:56:22.119Z</time></trkpt><trkpt lat="35.815896" lon="10.1403902"><ele>31.8</ele><time>2026-04-24T15:56:23.132Z</time></trkpt><trkpt lat="35.8158072" lon="10.1404648"><ele>32.199999999999996</ele><time>2026-04-24T15:56:24.122Z</time></trkpt><trkpt lat="35.8157179" lon="10.1405371"><ele>32.6</ele><time>2026-04-24T15:56:25.122Z</time></trkpt><trkpt lat="35.8156267" lon="10.140612"><ele>33.0</ele><time>2026-04-24T15:56:26.122Z</time></trkpt><trkpt lat="35.8155373" lon="10.1406893"><ele>33.0</ele><time>2026-04-24T15:56:27.105Z</time></trkpt><trkpt lat="35.8154463" lon="10.1407617"><ele>33.0</ele><time>2026-04-24T15:56:28.115Z</time></trkpt><trkpt lat="35.8153619" lon="10.1408337"><ele>33.0</ele><time>2026-04-24T15:56:29.123Z</time></trkpt><trkpt lat="35.8152786" lon="10.1409046"><ele>33.0</ele><time>2026-04-24T15:56:30.125Z</time></trkpt><trkpt lat="35.815193" lon="10.1409831"><ele>33.0</ele><time>2026-04-24T15:56:31.135Z</time></trkpt><trkpt lat="35.8151044" lon="10.1410576"><ele>33.0</ele><time>2026-04-24T15:56:32.086Z</time></trkpt><trkpt lat="35.8150158" lon="10.1411362"><ele>33.0</ele><time>2026-04-24T15:56:33.12Z</time></trkpt><trkpt lat="35.8149245" lon="10.1412192"><ele>33.0</ele><time>2026-04-24T15:56:34.124Z</time></trkpt><trkpt lat="35.8148375" lon="10.1412998"><ele>33.0</ele><time>2026-04-24T15:56:35.124Z</time></trkpt><trkpt lat="35.8147566" lon="10.1413801"><ele>33.0</ele><time>2026-04-24T15:56:36.107Z</time></trkpt><trkpt lat="35.8146683" lon="10.1414563"><ele>33.0</ele><time>2026-04-24T15:56:37.116Z</time></trkpt><trkpt lat="35.8145789" lon="10.1415228"><ele>33.0</ele><time>2026-04-24T15:56:38.119Z</time></trkpt><trkpt lat="35.8144883" lon="10.1415977"><ele>33.0</ele><time>2026-04-24T15:56:39.13Z</time></trkpt><trkpt lat="35.8143936" lon="10.1416695"><ele>33.0</ele><time>2026-04-24T15:56:40.114Z</time></trkpt><trkpt lat="35.8142994" lon="10.1417367"><ele>33.0</ele><time>2026-04-24T15:56:41.123Z</time></trkpt><trkpt lat="35.8142073" lon="10.1418016"><ele>32.199999999999996</ele><time>2026-04-24T15:56:42.126Z</time></trkpt><trkpt lat="35.81411" lon="10.1418513"><ele>31.4</ele><time>2026-04-24T15:56:43.126Z</time></trkpt><trkpt lat="35.8140035" lon="10.1419002"><ele>30.599999999999998</ele><time>2026-04-24T15:56:44.12Z</time></trkpt><trkpt lat="35.8138994" lon="10.1419436"><ele>29.799999999999997</ele><time>2026-04-24T15:56:45.108Z</time></trkpt><trkpt lat="35.8137913" lon="10.141985"><ele>29.0</ele><time>2026-04-24T15:56:46.126Z</time></trkpt><trkpt lat="35.8136945" lon="10.1420246"><ele>29.0</ele><time>2026-04-24T15:56:47.122Z</time></trkpt><trkpt lat="35.8136" lon="10.1420602"><ele>29.0</ele><time>2026-04-24T15:56:48.089Z</time></trkpt><trkpt lat="35.8134997" lon="10.1420904"><ele>29.0</ele><time>2026-04-24T15:56:49.107Z</time></trkpt><trkpt lat="35.8134063" lon="10.142115"><ele>29.0</ele><time>2026-04-24T15:56:50.134Z</time></trkpt><trkpt lat="35.8133167" lon="10.1421301"><ele>29.0</ele><time>2026-04-24T15:56:51.108Z</time></trkpt><trkpt lat="35.8132316" lon="10.142137"><ele>29.75</ele><time>2026-04-24T15:56:52.122Z</time></trkpt><trkpt lat="35.8131434" lon="10.1421504"><ele>30.5</ele><time>2026-04-24T15:56:53.119Z</time></trkpt><trkpt lat="35.8130479" lon="10.1421859"><ele>31.25</ele><time>2026-04-24T15:56:54.13Z</time></trkpt><trkpt lat="35.8129327" lon="10.1422551"><ele>32.0</ele><time>2026-04-24T15:56:55.124Z</time></trkpt><trkpt lat="35.8128021" lon="10.1423335"><ele>32.33333333333333</ele><time>2026-04-24T15:56:56.125Z</time></trkpt><trkpt lat="35.8126403" lon="10.142403"><ele>32.666666666666664</ele><time>2026-04-24T15:56:57.12Z</time></trkpt><trkpt lat="35.812477" lon="10.1424744"><ele>33.0</ele><time>2026-04-24T15:56:58.124Z</time></trkpt><trkpt lat="35.8123254" lon="10.1425276"><ele>33.0</ele><time>2026-04-24T15:56:59.134Z</time></trkpt><trkpt lat="35.8121899" lon="10.142573"><ele>33.0</ele><time>2026-04-24T15:57:00.122Z</time></trkpt><trkpt lat="35.8120516" lon="10.1426219"><ele>33.0</ele><time>2026-04-24T15:57:01.128Z</time></trkpt><trkpt lat="35.8119177" lon="10.1426712"><ele>33.0</ele><time>2026-04-24T15:57:02.109Z</time></trkpt><trkpt lat="35.8117872" lon="10.1427227"><ele>33.5</ele><time>2026-04-24T15:57:03.083Z</time></trkpt><trkpt lat="35.8116648" lon="10.1427724"><ele>34.0</ele><time>2026-04-24T15:57:04.115Z</time></trkpt><trkpt lat="35.8115385" lon="10.1428207"><ele>34.5</ele><time>2026-04-24T15:57:05.097Z</time></trkpt><trkpt lat="35.8114102" lon="10.1428642"><ele>35.0</ele><time>2026-04-24T15:57:06.105Z</time></trkpt><trkpt lat="35.8112762" lon="10.1429119"><ele>35.0</ele><time>2026-04-24T15:57:07.125Z</time></trkpt><trkpt lat="35.8111483" lon="10.1429593"><ele>35.0</ele><time>2026-04-24T15:57:08.125Z</time></trkpt><trkpt lat="35.8110145" lon="10.1430074"><ele>35.0</ele><time>2026-04-24T15:57:09.129Z</time></trkpt><trkpt lat="35.8108751" lon="10.1430521"><ele>35.0</ele><time>2026-04-24T15:57:10.132Z</time></trkpt><trkpt lat="35.8107376" lon="10.1430999"><ele>35.0</ele><time>2026-04-24T15:57:11.133Z</time></trkpt><trkpt lat="35.8105988" lon="10.1431472"><ele>35.0</ele><time>2026-04-24T15:57:12.132Z</time></trkpt><trkpt lat="35.8104599" lon="10.1431921"><ele>35.0</ele><time>2026-04-24T15:57:13.126Z</time></trkpt><trkpt lat="35.8103203" lon="10.1432405"><ele>35.0</ele><time>2026-04-24T15:57:14.143Z</time></trkpt><trkpt lat="35.8101849" lon="10.143289"><ele>35.0</ele><time>2026-04-24T15:57:15.11Z</time></trkpt><trkpt lat="35.8100478" lon="10.1433325"><ele>35.0</ele><time>2026-04-24T15:57:16.087Z</time></trkpt><trkpt lat="35.8099206" lon="10.1433802"><ele>35.0</ele><time>2026-04-24T15:57:17.1Z</time></trkpt><trkpt lat="35.8097829" lon="10.1434295"><ele>35.0</ele><time>2026-04-24T15:57:18.08Z</time></trkpt><trkpt lat="35.8096463" lon="10.143476"><ele>35.0</ele><time>2026-04-24T15:57:19.117Z</time></trkpt><trkpt lat="35.8095095" lon="10.1435301"><ele>35.0</ele><time>2026-04-24T15:57:20.073Z</time></trkpt><trkpt lat="35.8093698" lon="10.143583"><ele>35.0</ele><time>2026-04-24T15:57:21.105Z</time></trkpt><trkpt lat="35.809229" lon="10.1436309"><ele>35.0</ele><time>2026-04-24T15:57:22.076Z</time></trkpt><trkpt lat="35.8090871" lon="10.1436803"><ele>35.5</ele><time>2026-04-24T15:57:23.091Z</time></trkpt><trkpt lat="35.8089445" lon="10.1437393"><ele>36.0</ele><time>2026-04-24T15:57:24.078Z</time></trkpt><trkpt lat="35.8088029" lon="10.1437911"><ele>36.5</ele><time>2026-04-24T15:57:25.082Z</time></trkpt><trkpt lat="35.8086605" lon="10.1438391"><ele>37.0</ele><time>2026-04-24T15:57:26.091Z</time></trkpt><trkpt lat="35.8085189" lon="10.1438903"><ele>37.0</ele><time>2026-04-24T15:57:27.081Z</time></trkpt><trkpt lat="35.8083773" lon="10.1439429"><ele>37.0</ele><time>2026-04-24T15:57:28.103Z</time></trkpt><trkpt lat="35.8082355" lon="10.1439929"><ele>37.0</ele><time>2026-04-24T15:57:29.085Z</time></trkpt><trkpt lat="35.8080966" lon="10.1440441"><ele>37.0</ele><time>2026-04-24T15:57:30.079Z</time></trkpt><trkpt lat="35.8079587" lon="10.1440929"><ele>37.0</ele><time>2026-04-24T15:57:31.13Z</time></trkpt><trkpt lat="35.8078162" lon="10.1441427"><ele>37.0</ele><time>2026-04-24T15:57:32.073Z</time></trkpt><trkpt lat="35.8076777" lon="10.1441904"><ele>37.0</ele><time>2026-04-24T15:57:33.13Z</time></trkpt><trkpt lat="35.8075346" lon="10.144235"><ele>37.0</ele><time>2026-04-24T15:57:34.069Z</time></trkpt><trkpt lat="35.8073961" lon="10.1442864"><ele>37.0</ele><time>2026-04-24T15:57:35.134Z</time></trkpt><trkpt lat="35.807261" lon="10.1443364"><ele>37.0</ele><time>2026-04-24T15:57:36.119Z</time></trkpt><trkpt lat="35.807124" lon="10.1443838"><ele>37.0</ele><time>2026-04-24T15:57:37.105Z</time></trkpt><trkpt lat="35.8069865" lon="10.1444336"><ele>37.0</ele><time>2026-04-24T15:57:38.072Z</time></trkpt><trkpt lat="35.806841" lon="10.1444842"><ele>36.75</ele><time>2026-04-24T15:57:39.107Z</time></trkpt><trkpt lat="35.8067034" lon="10.1445411"><ele>36.5</ele><time>2026-04-24T15:57:40.067Z</time></trkpt><trkpt lat="35.8065647" lon="10.1445929"><ele>36.25</ele><time>2026-04-24T15:57:41.124Z</time></trkpt><trkpt lat="35.8064249" lon="10.1446428"><ele>36.0</ele><time>2026-04-24T15:57:42.071Z</time></trkpt><trkpt lat="35.8062882" lon="10.1446944"><ele>36.0</ele><time>2026-04-24T15:57:43.068Z</time></trkpt><trkpt lat="35.8061471" lon="10.1447478"><ele>36.0</ele><time>2026-04-24T15:57:44.104Z</time></trkpt><trkpt lat="35.8060057" lon="10.1447931"><ele>36.0</ele><time>2026-04-24T15:57:45.113Z</time></trkpt><trkpt lat="35.8058657" lon="10.1448458"><ele>36.0</ele><time>2026-04-24T15:57:46.14Z</time></trkpt><trkpt lat="35.8057271" lon="10.1449055"><ele>36.0</ele><time>2026-04-24T15:57:47.081Z</time></trkpt><trkpt lat="35.8055875" lon="10.144959"><ele>36.0</ele><time>2026-04-24T15:57:48.1Z</time></trkpt><trkpt lat="35.8054458" lon="10.14501"><ele>36.0</ele><time>2026-04-24T15:57:49.066Z</time></trkpt><trkpt lat="35.8053001" lon="10.1450619"><ele>36.0</ele><time>2026-04-24T15:57:50.072Z</time></trkpt><trkpt lat="35.8051558" lon="10.1451096"><ele>35.75</ele><time>2026-04-24T15:57:51.085Z</time></trkpt><trkpt lat="35.8050199" lon="10.1451642"><ele>35.5</ele><time>2026-04-24T15:57:52.087Z</time></trkpt><trkpt lat="35.8048829" lon="10.1452173"><ele>35.25</ele><time>2026-04-24T15:57:53.08Z</time></trkpt><trkpt lat="35.8047438" lon="10.1452651"><ele>35.0</ele><time>2026-04-24T15:57:54.111Z</time></trkpt><trkpt lat="35.8046038" lon="10.1453139"><ele>35.0</ele><time>2026-04-24T15:57:55.085Z</time></trkpt><trkpt lat="35.8044522" lon="10.1453701"><ele>35.0</ele><time>2026-04-24T15:57:56.1Z</time></trkpt><trkpt lat="35.8042903" lon="10.1454271"><ele>35.0</ele><time>2026-04-24T15:57:57.099Z</time></trkpt><trkpt lat="35.8041357" lon="10.1454792"><ele>34.33333333333333</ele><time>2026-04-24T15:57:58.097Z</time></trkpt><trkpt lat="35.8039829" lon="10.1455336"><ele>33.666666666666664</ele><time>2026-04-24T15:57:59.102Z</time></trkpt><trkpt lat="35.8038352" lon="10.1455882"><ele>33.0</ele><time>2026-04-24T15:58:00.095Z</time></trkpt><trkpt lat="35.8036903" lon="10.1456395"><ele>33.0</ele><time>2026-04-24T15:58:01.091Z</time></trkpt><trkpt lat="35.8035471" lon="10.145689"><ele>33.0</ele><time>2026-04-24T15:58:02.119Z</time></trkpt><trkpt lat="35.8034101" lon="10.1457414"><ele>33.0</ele><time>2026-04-24T15:58:03.148Z</time></trkpt><trkpt lat="35.80327" lon="10.1457936"><ele>33.0</ele><time>2026-04-24T15:58:04.1Z</time></trkpt><trkpt lat="35.8031371" lon="10.1458491"><ele>34.0</ele><time>2026-04-24T15:58:05.114Z</time></trkpt><trkpt lat="35.8030065" lon="10.1459137"><ele>35.0</ele><time>2026-04-24T15:58:06.102Z</time></trkpt><trkpt lat="35.8028871" lon="10.1459972"><ele>36.0</ele><time>2026-04-24T15:58:07.135Z</time></trkpt><trkpt lat="35.8027803" lon="10.1460915"><ele>37.0</ele><time>2026-04-24T15:58:08.106Z</time></trkpt><trkpt lat="35.8026833" lon="10.1462133"><ele>36.5</ele><time>2026-04-24T15:58:09.102Z</time></trkpt><trkpt lat="35.8025922" lon="10.1463551"><ele>36.0</ele><time>2026-04-24T15:58:10.098Z</time></trkpt><trkpt lat="35.8025152" lon="10.146511"><ele>35.5</ele><time>2026-04-24T15:58:11.104Z</time></trkpt><trkpt lat="35.8024492" lon="10.146677"><ele>35.0</ele><time>2026-04-24T15:58:12.122Z</time></trkpt><trkpt lat="35.8023845" lon="10.1468445"><ele>35.0</ele><time>2026-04-24T15:58:13.132Z</time></trkpt><trkpt lat="35.8023299" lon="10.1469943"><ele>35.0</ele><time>2026-04-24T15:58:14.119Z</time></trkpt><trkpt lat="35.8022805" lon="10.1471388"><ele>35.0</ele><time>2026-04-24T15:58:15.081Z</time></trkpt><trkpt lat="35.8022333" lon="10.147277"><ele>35.0</ele><time>2026-04-24T15:58:16.126Z</time></trkpt><trkpt lat="35.8021886" lon="10.1474087"><ele>34.6</ele><time>2026-04-24T15:58:17.089Z</time></trkpt><trkpt lat="35.8021425" lon="10.1475268"><ele>34.2</ele><time>2026-04-24T15:58:18.101Z</time></trkpt><trkpt lat="35.8021007" lon="10.1476414"><ele>33.8</ele><time>2026-04-24T15:58:19.104Z</time></trkpt><trkpt lat="35.8020514" lon="10.1477465"><ele>33.4</ele><time>2026-04-24T15:58:20.109Z</time></trkpt><trkpt lat="35.8020006" lon="10.147845"><ele>33.0</ele><time>2026-04-24T15:58:21.09Z</time></trkpt><trkpt lat="35.8019502" lon="10.1479302"><ele>33.0</ele><time>2026-04-24T15:58:22.109Z</time></trkpt><trkpt lat="35.801893" lon="10.1480066"><ele>33.0</ele><time>2026-04-24T15:58:23.104Z</time></trkpt><trkpt lat="35.8018288" lon="10.1480547"><ele>33.0</ele><time>2026-04-24T15:58:24.127Z</time></trkpt><trkpt lat="35.8017497" lon="10.1480968"><ele>33.0</ele><time>2026-04-24T15:58:25.104Z</time></trkpt><trkpt lat="35.801678" lon="10.1481193"><ele>33.0</ele><time>2026-04-24T15:58:26.135Z</time></trkpt><trkpt lat="35.8015887" lon="10.1481179"><ele>33.0</ele><time>2026-04-24T15:58:27.12Z</time></trkpt><trkpt lat="35.8014954" lon="10.1481123"><ele>33.0</ele><time>2026-04-24T15:58:28.107Z</time></trkpt><trkpt lat="35.8013996" lon="10.1480928"><ele>33.0</ele><time>2026-04-24T15:58:29.11Z</time></trkpt><trkpt lat="35.8012921" lon="10.1480722"><ele>33.0</ele><time>2026-04-24T15:58:30.084Z</time></trkpt><trkpt lat="35.8011801" lon="10.1480458"><ele>33.0</ele><time>2026-04-24T15:58:31.065Z</time></trkpt><trkpt lat="35.8010719" lon="10.1480231"><ele>33.0</ele><time>2026-04-24T15:58:32.1Z</time></trkpt><trkpt lat="35.8009603" lon="10.1480084"><ele>32.4</ele><time>2026-04-24T15:58:33.077Z</time></trkpt><trkpt lat="35.8008522" lon="10.1479812"><ele>31.799999999999997</ele><time>2026-04-24T15:58:34.08Z</time></trkpt><trkpt lat="35.8007425" lon="10.1479563"><ele>31.2</ele><time>2026-04-24T15:58:35.082Z</time></trkpt><trkpt lat="35.8006346" lon="10.1479349"><ele>30.6</ele><time>2026-04-24T15:58:36.082Z</time></trkpt><trkpt lat="35.8005287" lon="10.147913"><ele>30.0</ele><time>2026-04-24T15:58:37.085Z</time></trkpt><trkpt lat="35.8004262" lon="10.1479038"><ele>30.0</ele><time>2026-04-24T15:58:38.082Z</time></trkpt><trkpt lat="35.8003226" lon="10.1478837"><ele>30.0</ele><time>2026-04-24T15:58:39.078Z</time></trkpt><trkpt lat="35.8002192" lon="10.1478582"><ele>30.0</ele><time>2026-04-24T15:58:40.077Z</time></trkpt><trkpt lat="35.8001071" lon="10.1478351"><ele>30.0</ele><time>2026-04-24T15:58:41.083Z</time></trkpt><trkpt lat="35.7999946" lon="10.1478161"><ele>30.0</ele><time>2026-04-24T15:58:42.084Z</time></trkpt><trkpt lat="35.7998806" lon="10.1477919"><ele>29.75</ele><time>2026-04-24T15:58:43.087Z</time></trkpt><trkpt lat="35.7997595" lon="10.1477643"><ele>29.5</ele><time>2026-04-24T15:58:44.073Z</time></trkpt><trkpt lat="35.7996409" lon="10.1477395"><ele>29.25</ele><time>2026-04-24T15:58:45.07Z</time></trkpt><trkpt lat="35.7995262" lon="10.1477141"><ele>29.0</ele><time>2026-04-24T15:58:46.084Z</time></trkpt><trkpt lat="35.7994036" lon="10.1476884"><ele>29.25</ele><time>2026-04-24T15:58:47.076Z</time></trkpt><trkpt lat="35.7992856" lon="10.1476641"><ele>29.5</ele><time>2026-04-24T15:58:48.092Z</time></trkpt><trkpt lat="35.7991597" lon="10.147634"><ele>29.75</ele><time>2026-04-24T15:58:49.076Z</time></trkpt><trkpt lat="35.7990372" lon="10.147616"><ele>30.0</ele><time>2026-04-24T15:58:50.082Z</time></trkpt><trkpt lat="35.7989067" lon="10.1475892"><ele>30.0</ele><time>2026-04-24T15:58:51.079Z</time></trkpt><trkpt lat="35.7987669" lon="10.1475607"><ele>30.0</ele><time>2026-04-24T15:58:52.082Z</time></trkpt><trkpt lat="35.798619" lon="10.1475255"><ele>30.0</ele><time>2026-04-24T15:58:53.071Z</time></trkpt><trkpt lat="35.7984762" lon="10.1474926"><ele>30.0</ele><time>2026-04-24T15:58:54.086Z</time></trkpt><trkpt lat="35.7983368" lon="10.1474664"><ele>29.75</ele><time>2026-04-24T15:58:55.082Z</time></trkpt><trkpt lat="35.7981967" lon="10.1474364"><ele>29.5</ele><time>2026-04-24T15:58:56.083Z</time></trkpt><trkpt lat="35.7980496" lon="10.1474043"><ele>29.25</ele><time>2026-04-24T15:58:57.085Z</time></trkpt><trkpt lat="35.797901" lon="10.1473734"><ele>29.0</ele><time>2026-04-24T15:58:58.083Z</time></trkpt><trkpt lat="35.7977605" lon="10.1473407"><ele>29.0</ele><time>2026-04-24T15:58:59.079Z</time></trkpt><trkpt lat="35.7976209" lon="10.1473103"><ele>29.0</ele><time>2026-04-24T15:59:00.077Z</time></trkpt><trkpt lat="35.7974816" lon="10.1472803"><ele>29.0</ele><time>2026-04-24T15:59:01.083Z</time></trkpt><trkpt lat="35.7973467" lon="10.1472489"><ele>29.0</ele><time>2026-04-24T15:59:02.079Z</time></trkpt><trkpt lat="35.7972094" lon="10.1472199"><ele>29.0</ele><time>2026-04-24T15:59:03.082Z</time></trkpt><trkpt lat="35.7970722" lon="10.1471901"><ele>29.0</ele><time>2026-04-24T15:59:04.08Z</time></trkpt><trkpt lat="35.7969351" lon="10.1471657"><ele>29.0</ele><time>2026-04-24T15:59:05.077Z</time></trkpt><trkpt lat="35.796795" lon="10.1471362"><ele>29.0</ele><time>2026-04-24T15:59:06.078Z</time></trkpt><trkpt lat="35.7966518" lon="10.147107"><ele>30.25</ele><time>2026-04-24T15:59:07.071Z</time></trkpt><trkpt lat="35.7965063" lon="10.147073"><ele>31.5</ele><time>2026-04-24T15:59:08.07Z</time></trkpt><trkpt lat="35.7963661" lon="10.1470449"><ele>32.75</ele><time>2026-04-24T15:59:09.081Z</time></trkpt><trkpt lat="35.7962311" lon="10.1470136"><ele>34.0</ele><time>2026-04-24T15:59:10.08Z</time></trkpt><trkpt lat="35.796105" lon="10.1469836"><ele>34.0</ele><time>2026-04-24T15:59:11.08Z</time></trkpt><trkpt lat="35.7959876" lon="10.1469575"><ele>34.0</ele><time>2026-04-24T15:59:12.078Z</time></trkpt><trkpt lat="35.7958742" lon="10.1469335"><ele>34.0</ele><time>2026-04-24T15:59:13.096Z</time></trkpt><trkpt lat="35.7957741" lon="10.1469094"><ele>34.0</ele><time>2026-04-24T15:59:14.084Z</time></trkpt><trkpt lat="35.7956866" lon="10.1468871"><ele>34.0</ele><time>2026-04-24T15:59:15.081Z</time></trkpt><trkpt lat="35.7956066" lon="10.1468772"><ele>34.0</ele><time>2026-04-24T15:59:16.081Z</time></trkpt><trkpt lat="35.7955322" lon="10.1468638"><ele>34.0</ele><time>2026-04-24T15:59:17.078Z</time></trkpt><trkpt lat="35.795442" lon="10.1468535"><ele>34.0</ele><time>2026-04-24T15:59:18.082Z</time></trkpt><trkpt lat="35.7953522" lon="10.1468305"><ele>34.0</ele><time>2026-04-24T15:59:19.084Z</time></trkpt><trkpt lat="35.7952626" lon="10.146806"><ele>34.0</ele><time>2026-04-24T15:59:20.083Z</time></trkpt><trkpt lat="35.7951632" lon="10.1467822"><ele>33.8</ele><time>2026-04-24T15:59:21.084Z</time></trkpt><trkpt lat="35.7950649" lon="10.1467624"><ele>33.599999999999994</ele><time>2026-04-24T15:59:22.082Z</time></trkpt><trkpt lat="35.7949671" lon="10.1467376"><ele>33.4</ele><time>2026-04-24T15:59:23.08Z</time></trkpt><trkpt lat="35.7948669" lon="10.1467154"><ele>33.199999999999996</ele><time>2026-04-24T15:59:24.115Z</time></trkpt><trkpt lat="35.7947626" lon="10.1466839"><ele>33.0</ele><time>2026-04-24T15:59:25.083Z</time></trkpt><trkpt lat="35.7946552" lon="10.1466488"><ele>33.0</ele><time>2026-04-24T15:59:26.084Z</time></trkpt><trkpt lat="35.7945418" lon="10.1466172"><ele>33.0</ele><time>2026-04-24T15:59:27.086Z</time></trkpt><trkpt lat="35.7944358" lon="10.1465883"><ele>33.0</ele><time>2026-04-24T15:59:28.086Z</time></trkpt><trkpt lat="35.7943323" lon="10.1465516"><ele>33.0</ele><time>2026-04-24T15:59:29.088Z</time></trkpt><trkpt lat="35.7942241" lon="10.1465141"><ele>33.0</ele><time>2026-04-24T15:59:30.079Z</time></trkpt><trkpt lat="35.7941163" lon="10.1464874"><ele>32.6</ele><time>2026-04-24T15:59:31.089Z</time></trkpt><trkpt lat="35.7940152" lon="10.1464669"><ele>32.199999999999996</ele><time>2026-04-24T15:59:32.079Z</time></trkpt><trkpt lat="35.7939094" lon="10.1464404"><ele>31.8</ele><time>2026-04-24T15:59:33.085Z</time></trkpt><trkpt lat="35.7938076" lon="10.1464168"><ele>31.4</ele><time>2026-04-24T15:59:34.074Z</time></trkpt><trkpt lat="35.7936993" lon="10.1463951"><ele>31.0</ele><time>2026-04-24T15:59:35.075Z</time></trkpt><trkpt lat="35.7935872" lon="10.1463702"><ele>32.0</ele><time>2026-04-24T15:59:36.083Z</time></trkpt><trkpt lat="35.7934792" lon="10.146344"><ele>33.0</ele><time>2026-04-24T15:59:37.084Z</time></trkpt><trkpt lat="35.793372" lon="10.1463145"><ele>34.0</ele><time>2026-04-24T15:59:38.083Z</time></trkpt><trkpt lat="35.7932676" lon="10.1462834"><ele>35.0</ele><time>2026-04-24T15:59:39.082Z</time></trkpt><trkpt lat="35.7931649" lon="10.1462493"><ele>36.0</ele><time>2026-04-24T15:59:40.074Z</time></trkpt><trkpt lat="35.7930701" lon="10.1462113"><ele>36.0</ele><time>2026-04-24T15:59:41.087Z</time></trkpt><trkpt lat="35.7929699" lon="10.1461691"><ele>36.0</ele><time>2026-04-24T15:59:42.073Z</time></trkpt><trkpt lat="35.7928681" lon="10.1461163"><ele>36.0</ele><time>2026-04-24T15:59:43.077Z</time></trkpt><trkpt lat="35.7927585" lon="10.1460596"><ele>36.0</ele><time>2026-04-24T15:59:44.076Z</time></trkpt><trkpt lat="35.7926503" lon="10.1460038"><ele>36.2</ele><time>2026-04-24T15:59:45.069Z</time></trkpt><trkpt lat="35.7925521" lon="10.1459503"><ele>36.400000000000006</ele><time>2026-04-24T15:59:46.099Z</time></trkpt><trkpt lat="35.7924572" lon="10.1458956"><ele>36.6</ele><time>2026-04-24T15:59:47.078Z</time></trkpt><trkpt lat="35.7923661" lon="10.14583"><ele>36.800000000000004</ele><time>2026-04-24T15:59:48.076Z</time></trkpt><trkpt lat="35.7922815" lon="10.1457729"><ele>37.0</ele><time>2026-04-24T15:59:49.082Z</time></trkpt><trkpt lat="35.7921951" lon="10.1457202"><ele>36.6</ele><time>2026-04-24T15:59:50.083Z</time></trkpt><trkpt lat="35.792108" lon="10.145662"><ele>36.2</ele><time>2026-04-24T15:59:51.082Z</time></trkpt><trkpt lat="35.7920238" lon="10.1456007"><ele>35.8</ele><time>2026-04-24T15:59:52.083Z</time></trkpt><trkpt lat="35.7919415" lon="10.1455323"><ele>35.4</ele><time>2026-04-24T15:59:53.075Z</time></trkpt><trkpt lat="35.7918601" lon="10.1454615"><ele>35.0</ele><time>2026-04-24T15:59:54.076Z</time></trkpt><trkpt lat="35.7917777" lon="10.1453862"><ele>35.0</ele><time>2026-04-24T15:59:55.09Z</time></trkpt><trkpt lat="35.7916964" lon="10.1453096"><ele>35.0</ele><time>2026-04-24T15:59:56.079Z</time></trkpt><trkpt lat="35.7916144" lon="10.14523"><ele>35.0</ele><time>2026-04-24T15:59:57.082Z</time></trkpt><trkpt lat="35.7915289" lon="10.1451488"><ele>35.0</ele><time>2026-04-24T15:59:58.078Z</time></trkpt><trkpt lat="35.7914484" lon="10.1450663"><ele>35.0</ele><time>2026-04-24T15:59:59.078Z</time></trkpt><trkpt lat="35.7913619" lon="10.1449807"><ele>35.0</ele><time>2026-04-24T16:00:00.076Z</time></trkpt><trkpt lat="35.7912846" lon="10.1448958"><ele>35.0</ele><time>2026-04-24T16:00:01.082Z</time></trkpt><trkpt lat="35.7912047" lon="10.1448107"><ele>35.0</ele><time>2026-04-24T16:00:02.087Z</time></trkpt><trkpt lat="35.7911257" lon="10.1447207"><ele>35.0</ele><time>2026-04-24T16:00:03.084Z</time></trkpt><trkpt lat="35.7910483" lon="10.1446348"><ele>35.0</ele><time>2026-04-24T16:00:04.098Z</time></trkpt><trkpt lat="35.7909664" lon="10.1445507"><ele>34.4</ele><time>2026-04-24T16:00:05.081Z</time></trkpt><trkpt lat="35.7908853" lon="10.1444662"><ele>33.8</ele><time>2026-04-24T16:00:06.085Z</time></trkpt><trkpt lat="35.7908054" lon="10.144386"><ele>33.2</ele><time>2026-04-24T16:00:07.078Z</time></trkpt><trkpt lat="35.7907281" lon="10.1442991"><ele>32.6</ele><time>2026-04-24T16:00:08.106Z</time></trkpt><trkpt lat="35.7906453" lon="10.1442162"><ele>32.0</ele><time>2026-04-24T16:00:09.085Z</time></trkpt><trkpt lat="35.7905663" lon="10.1441308"><ele>31.999999999999996</ele><time>2026-04-24T16:00:10.085Z</time></trkpt><trkpt lat="35.7904941" lon="10.1440546"><ele>32.0</ele><time>2026-04-24T16:00:11.081Z</time></trkpt><trkpt lat="35.7904428" lon="10.1439949"><ele>32.0</ele><time>2026-04-24T16:00:12.068Z</time></trkpt><trkpt lat="35.7903594" lon="10.1439059"><ele>32.0</ele><time>2026-04-24T16:00:14.083Z</time></trkpt><trkpt lat="35.7903081" lon="10.1438447"><ele>31.999999999999996</ele><time>2026-04-24T16:00:15.079Z</time></trkpt><trkpt lat="35.7902428" lon="10.1437788"><ele>32.0</ele><time>2026-04-24T16:00:16.083Z</time></trkpt><trkpt lat="35.790173" lon="10.1437043"><ele>32.0</ele><time>2026-04-24T16:00:17.079Z</time></trkpt><trkpt lat="35.7901001" lon="10.1436256"><ele>32.0</ele><time>2026-04-24T16:00:18.078Z</time></trkpt><trkpt lat="35.7900215" lon="10.143536"><ele>32.0</ele><time>2026-04-24T16:00:19.078Z</time></trkpt><trkpt lat="35.7899395" lon="10.1434449"><ele>32.0</ele><time>2026-04-24T16:00:20.079Z</time></trkpt><trkpt lat="35.7898584" lon="10.1433529"><ele>32.0</ele><time>2026-04-24T16:00:21.075Z</time></trkpt><trkpt lat="35.789768" lon="10.1432565"><ele>31.75</ele><time>2026-04-24T16:00:22.071Z</time></trkpt><trkpt lat="35.7896746" lon="10.1431568"><ele>31.5</ele><time>2026-04-24T16:00:23.079Z</time></trkpt><trkpt lat="35.7895756" lon="10.1430573"><ele>31.25</ele><time>2026-04-24T16:00:24.08Z</time></trkpt><trkpt lat="35.7894754" lon="10.1429515"><ele>31.0</ele><time>2026-04-24T16:00:25.076Z</time></trkpt><trkpt lat="35.7893765" lon="10.1428511"><ele>30.75</ele><time>2026-04-24T16:00:26.071Z</time></trkpt><trkpt lat="35.789282" lon="10.1427533"><ele>30.5</ele><time>2026-04-24T16:00:27.124Z</time></trkpt><trkpt lat="35.7891968" lon="10.1426577"><ele>30.25</ele><time>2026-04-24T16:00:28.078Z</time></trkpt><trkpt lat="35.7891031" lon="10.1425603"><ele>30.0</ele><time>2026-04-24T16:00:29.1Z</time></trkpt><trkpt lat="35.7890156" lon="10.1424752"><ele>30.0</ele><time>2026-04-24T16:00:30.117Z</time></trkpt><trkpt lat="35.7889344" lon="10.1423986"><ele>30.0</ele><time>2026-04-24T16:00:31.127Z</time></trkpt><trkpt lat="35.7888602" lon="10.1423276"><ele>30.0</ele><time>2026-04-24T16:00:32.115Z</time></trkpt><trkpt lat="35.788785" lon="10.1422551"><ele>30.0</ele><time>2026-04-24T16:00:33.118Z</time></trkpt><trkpt lat="35.7887068" lon="10.1421841"><ele>30.0</ele><time>2026-04-24T16:00:34.102Z</time></trkpt><trkpt lat="35.7886197" lon="10.142108"><ele>30.0</ele><time>2026-04-24T16:00:35.12Z</time></trkpt><trkpt lat="35.7885238" lon="10.1420308"><ele>30.0</ele><time>2026-04-24T16:00:36.132Z</time></trkpt><trkpt lat="35.7884228" lon="10.1419469"><ele>30.0</ele><time>2026-04-24T16:00:37.127Z</time></trkpt><trkpt lat="35.7883157" lon="10.1418583"><ele>30.0</ele><time>2026-04-24T16:00:38.129Z</time></trkpt><trkpt lat="35.7881988" lon="10.1417661"><ele>30.0</ele><time>2026-04-24T16:00:39.107Z</time></trkpt><trkpt lat="35.7880763" lon="10.141676"><ele>30.0</ele><time>2026-04-24T16:00:40.11Z</time></trkpt><trkpt lat="35.7879515" lon="10.1415718"><ele>30.0</ele><time>2026-04-24T16:00:41.115Z</time></trkpt><trkpt lat="35.7878236" lon="10.1414718"><ele>30.0</ele><time>2026-04-24T16:00:42.135Z</time></trkpt><trkpt lat="35.7876927" lon="10.1413656"><ele>30.0</ele><time>2026-04-24T16:00:43.078Z</time></trkpt><trkpt lat="35.7875599" lon="10.1412584"><ele>30.0</ele><time>2026-04-24T16:00:44.109Z</time></trkpt><trkpt lat="35.7874303" lon="10.1411439"><ele>30.0</ele><time>2026-04-24T16:00:45.1Z</time></trkpt><trkpt lat="35.7872942" lon="10.1410362"><ele>30.0</ele><time>2026-04-24T16:00:46.119Z</time></trkpt><trkpt lat="35.7871587" lon="10.1409277"><ele>30.0</ele><time>2026-04-24T16:00:47.127Z</time></trkpt><trkpt lat="35.787025" lon="10.1408216"><ele>30.0</ele><time>2026-04-24T16:00:48.112Z</time></trkpt><trkpt lat="35.7868939" lon="10.1407167"><ele>30.0</ele><time>2026-04-24T16:00:49.094Z</time></trkpt><trkpt lat="35.7867622" lon="10.1406121"><ele>30.0</ele><time>2026-04-24T16:00:50.088Z</time></trkpt><trkpt lat="35.7866348" lon="10.1405109"><ele>30.0</ele><time>2026-04-24T16:00:51.116Z</time></trkpt><trkpt lat="35.7865065" lon="10.1404089"><ele>30.0</ele><time>2026-04-24T16:00:52.124Z</time></trkpt><trkpt lat="35.7863823" lon="10.1403047"><ele>30.0</ele><time>2026-04-24T16:00:53.103Z</time></trkpt><trkpt lat="35.786255" lon="10.1402002"><ele>30.0</ele><time>2026-04-24T16:00:54.121Z</time></trkpt><trkpt lat="35.7861177" lon="10.1400961"><ele>30.0</ele><time>2026-04-24T16:00:55.112Z</time></trkpt><trkpt lat="35.785984" lon="10.1399929"><ele>30.0</ele><time>2026-04-24T16:00:56.123Z</time></trkpt><trkpt lat="35.7858436" lon="10.1398861"><ele>30.0</ele><time>2026-04-24T16:00:57.113Z</time></trkpt><trkpt lat="35.7857005" lon="10.1397717"><ele>30.0</ele><time>2026-04-24T16:00:58.118Z</time></trkpt><trkpt lat="35.7855519" lon="10.1396544"><ele>30.0</ele><time>2026-04-24T16:00:59.078Z</time></trkpt><trkpt lat="35.7854032" lon="10.1395394"><ele>30.0</ele><time>2026-04-24T16:01:00.104Z</time></trkpt><trkpt lat="35.7852542" lon="10.1394263"><ele>29.666666666666664</ele><time>2026-04-24T16:01:01.088Z</time></trkpt><trkpt lat="35.7851131" lon="10.1393107"><ele>29.333333333333332</ele><time>2026-04-24T16:01:02.082Z</time></trkpt><trkpt lat="35.7849724" lon="10.139198"><ele>29.0</ele><time>2026-04-24T16:01:03.085Z</time></trkpt><trkpt lat="35.7848295" lon="10.1390912"><ele>29.0</ele><time>2026-04-24T16:01:04.085Z</time></trkpt><trkpt lat="35.784694" lon="10.1389783"><ele>29.0</ele><time>2026-04-24T16:01:05.08Z</time></trkpt><trkpt lat="35.7845579" lon="10.1388686"><ele>29.0</ele><time>2026-04-24T16:01:06.08Z</time></trkpt><trkpt lat="35.7844211" lon="10.1387599"><ele>29.0</ele><time>2026-04-24T16:01:07.078Z</time></trkpt><trkpt lat="35.7842802" lon="10.1386536"><ele>29.0</ele><time>2026-04-24T16:01:08.071Z</time></trkpt><trkpt lat="35.7841434" lon="10.1385502"><ele>29.0</ele><time>2026-04-24T16:01:09.074Z</time></trkpt><trkpt lat="35.7840065" lon="10.1384428"><ele>29.0</ele><time>2026-04-24T16:01:10.083Z</time></trkpt><trkpt lat="35.783872" lon="10.1383317"><ele>29.0</ele><time>2026-04-24T16:01:11.077Z</time></trkpt><trkpt lat="35.7837342" lon="10.1382258"><ele>29.0</ele><time>2026-04-24T16:01:12.085Z</time></trkpt><trkpt lat="35.7835971" lon="10.1381197"><ele>29.333333333333332</ele><time>2026-04-24T16:01:13.079Z</time></trkpt><trkpt lat="35.7834578" lon="10.1380119"><ele>29.666666666666664</ele><time>2026-04-24T16:01:14.079Z</time></trkpt><trkpt lat="35.7833208" lon="10.1379072"><ele>30.0</ele><time>2026-04-24T16:01:15.076Z</time></trkpt><trkpt lat="35.7831835" lon="10.1378033"><ele>30.0</ele><time>2026-04-24T16:01:16.079Z</time></trkpt><trkpt lat="35.7830499" lon="10.137693"><ele>30.0</ele><time>2026-04-24T16:01:17.075Z</time></trkpt><trkpt lat="35.7829167" lon="10.1375878"><ele>30.0</ele><time>2026-04-24T16:01:18.076Z</time></trkpt><trkpt lat="35.7827806" lon="10.1374805"><ele>29.666666666666664</ele><time>2026-04-24T16:01:19.074Z</time></trkpt><trkpt lat="35.7826442" lon="10.1373822"><ele>29.333333333333332</ele><time>2026-04-24T16:01:20.077Z</time></trkpt><trkpt lat="35.7825086" lon="10.1372819"><ele>29.0</ele><time>2026-04-24T16:01:21.068Z</time></trkpt><trkpt lat="35.7823754" lon="10.1371785"><ele>29.0</ele><time>2026-04-24T16:01:22.079Z</time></trkpt><trkpt lat="35.7822442" lon="10.1370765"><ele>29.0</ele><time>2026-04-24T16:01:23.071Z</time></trkpt><trkpt lat="35.7821116" lon="10.1369745"><ele>29.0</ele><time>2026-04-24T16:01:24.076Z</time></trkpt><trkpt lat="35.7819726" lon="10.1368627"><ele>29.333333333333332</ele><time>2026-04-24T16:01:25.081Z</time></trkpt><trkpt lat="35.7818323" lon="10.1367519"><ele>29.666666666666664</ele><time>2026-04-24T16:01:26.083Z</time></trkpt><trkpt lat="35.7816944" lon="10.1366369"><ele>30.0</ele><time>2026-04-24T16:01:27.077Z</time></trkpt><trkpt lat="35.7815511" lon="10.1365248"><ele>30.666666666666664</ele><time>2026-04-24T16:01:28.083Z</time></trkpt><trkpt lat="35.7814073" lon="10.1364135"><ele>31.333333333333332</ele><time>2026-04-24T16:01:29.074Z</time></trkpt><trkpt lat="35.7812628" lon="10.1363046"><ele>32.0</ele><time>2026-04-24T16:01:30.075Z</time></trkpt><trkpt lat="35.7811207" lon="10.1361928"><ele>31.666666666666664</ele><time>2026-04-24T16:01:31.079Z</time></trkpt><trkpt lat="35.7809765" lon="10.1360821"><ele>31.333333333333336</ele><time>2026-04-24T16:01:32.115Z</time></trkpt><trkpt lat="35.7808369" lon="10.1359633"><ele>31.0</ele><time>2026-04-24T16:01:33.076Z</time></trkpt><trkpt lat="35.7806942" lon="10.1358464"><ele>31.0</ele><time>2026-04-24T16:01:34.079Z</time></trkpt><trkpt lat="35.7805476" lon="10.1357306"><ele>31.0</ele><time>2026-04-24T16:01:35.077Z</time></trkpt><trkpt lat="35.7804014" lon="10.1356162"><ele>31.0</ele><time>2026-04-24T16:01:36.082Z</time></trkpt><trkpt lat="35.7802598" lon="10.1355034"><ele>30.333333333333336</ele><time>2026-04-24T16:01:37.081Z</time></trkpt><trkpt lat="35.7801124" lon="10.1353895"><ele>29.666666666666664</ele><time>2026-04-24T16:01:38.073Z</time></trkpt><trkpt lat="35.7799687" lon="10.1352774"><ele>29.0</ele><time>2026-04-24T16:01:39.082Z</time></trkpt><trkpt lat="35.7798234" lon="10.1351635"><ele>29.0</ele><time>2026-04-24T16:01:40.077Z</time></trkpt><trkpt lat="35.7796768" lon="10.1350509"><ele>29.0</ele><time>2026-04-24T16:01:41.08Z</time></trkpt><trkpt lat="35.7795279" lon="10.1349355"><ele>29.0</ele><time>2026-04-24T16:01:42.081Z</time></trkpt><trkpt lat="35.7793845" lon="10.1348278"><ele>29.666666666666664</ele><time>2026-04-24T16:01:43.084Z</time></trkpt><trkpt lat="35.7792408" lon="10.1347194"><ele>30.333333333333336</ele><time>2026-04-24T16:01:44.082Z</time></trkpt><trkpt lat="35.7790954" lon="10.1346059"><ele>31.0</ele><time>2026-04-24T16:01:45.082Z</time></trkpt><trkpt lat="35.7789519" lon="10.1344926"><ele>31.0</ele><time>2026-04-24T16:01:46.084Z</time></trkpt><trkpt lat="35.7788102" lon="10.134376"><ele>31.0</ele><time>2026-04-24T16:01:47.079Z</time></trkpt><trkpt lat="35.7786666" lon="10.1342617"><ele>31.0</ele><time>2026-04-24T16:01:48.077Z</time></trkpt><trkpt lat="35.778526" lon="10.1341553"><ele>30.666666666666668</ele><time>2026-04-24T16:01:49.074Z</time></trkpt><trkpt lat="35.7783838" lon="10.1340458"><ele>30.333333333333336</ele><time>2026-04-24T16:01:50.077Z</time></trkpt><trkpt lat="35.7782445" lon="10.1339306"><ele>30.0</ele><time>2026-04-24T16:01:51.075Z</time></trkpt><trkpt lat="35.778102" lon="10.1338172"><ele>30.0</ele><time>2026-04-24T16:01:52.082Z</time></trkpt><trkpt lat="35.7779615" lon="10.1337023"><ele>30.0</ele><time>2026-04-24T16:01:53.078Z</time></trkpt><trkpt lat="35.7778174" lon="10.1335888"><ele>30.0</ele><time>2026-04-24T16:01:54.079Z</time></trkpt><trkpt lat="35.7776734" lon="10.1334782"><ele>30.0</ele><time>2026-04-24T16:01:55.081Z</time></trkpt><trkpt lat="35.7775262" lon="10.1333691"><ele>30.0</ele><time>2026-04-24T16:01:56.072Z</time></trkpt><trkpt lat="35.7773827" lon="10.1332604"><ele>30.0</ele><time>2026-04-24T16:01:57.078Z</time></trkpt><trkpt lat="35.7772387" lon="10.1331443"><ele>29.333333333333336</ele><time>2026-04-24T16:01:58.077Z</time></trkpt><trkpt lat="35.7770951" lon="10.133032"><ele>28.666666666666668</ele><time>2026-04-24T16:01:59.083Z</time></trkpt><trkpt lat="35.7769533" lon="10.1329171"><ele>28.0</ele><time>2026-04-24T16:02:00.094Z</time></trkpt><trkpt lat="35.7768119" lon="10.1328004"><ele>29.333333333333336</ele><time>2026-04-24T16:02:01.081Z</time></trkpt><trkpt lat="35.7766715" lon="10.1326878"><ele>30.666666666666664</ele><time>2026-04-24T16:02:02.081Z</time></trkpt><trkpt lat="35.7765265" lon="10.1325833"><ele>32.0</ele><time>2026-04-24T16:02:03.083Z</time></trkpt><trkpt lat="35.7763892" lon="10.1324733"><ele>32.33333333333333</ele><time>2026-04-24T16:02:04.076Z</time></trkpt><trkpt lat="35.7762454" lon="10.1323631"><ele>32.666666666666664</ele><time>2026-04-24T16:02:05.084Z</time></trkpt><trkpt lat="35.7761002" lon="10.1322496"><ele>33.0</ele><time>2026-04-24T16:02:06.088Z</time></trkpt><trkpt lat="35.7759545" lon="10.1321344"><ele>32.0</ele><time>2026-04-24T16:02:07.09Z</time></trkpt><trkpt lat="35.7758077" lon="10.1320185"><ele>31.0</ele><time>2026-04-24T16:02:08.081Z</time></trkpt><trkpt lat="35.7756568" lon="10.1319058"><ele>30.0</ele><time>2026-04-24T16:02:09.082Z</time></trkpt><trkpt lat="35.7755094" lon="10.1317879"><ele>30.0</ele><time>2026-04-24T16:02:10.089Z</time></trkpt><trkpt lat="35.7753636" lon="10.1316723"><ele>30.0</ele><time>2026-04-24T16:02:11.08Z</time></trkpt><trkpt lat="35.775215" lon="10.1315582"><ele>30.0</ele><time>2026-04-24T16:02:12.079Z</time></trkpt><trkpt lat="35.7750672" lon="10.1314442"><ele>30.333333333333336</ele><time>2026-04-24T16:02:13.086Z</time></trkpt><trkpt lat="35.7749212" lon="10.1313297"><ele>30.666666666666668</ele><time>2026-04-24T16:02:14.074Z</time></trkpt><trkpt lat="35.7747746" lon="10.1312095"><ele>31.0</ele><time>2026-04-24T16:02:15.086Z</time></trkpt><trkpt lat="35.7746288" lon="10.1310959"><ele>31.0</ele><time>2026-04-24T16:02:16.078Z</time></trkpt><trkpt lat="35.7744812" lon="10.1309825"><ele>31.0</ele><time>2026-04-24T16:02:17.083Z</time></trkpt><trkpt lat="35.7743306" lon="10.1308688"><ele>31.0</ele><time>2026-04-24T16:02:18.078Z</time></trkpt><trkpt lat="35.7741852" lon="10.1307545"><ele>30.666666666666668</ele><time>2026-04-24T16:02:19.081Z</time></trkpt><trkpt lat="35.7740378" lon="10.1306415"><ele>30.333333333333336</ele><time>2026-04-24T16:02:20.078Z</time></trkpt><trkpt lat="35.7738897" lon="10.130521"><ele>30.0</ele><time>2026-04-24T16:02:21.077Z</time></trkpt><trkpt lat="35.7737414" lon="10.1304043"><ele>30.0</ele><time>2026-04-24T16:02:22.079Z</time></trkpt><trkpt lat="35.7735919" lon="10.1302856"><ele>30.0</ele><time>2026-04-24T16:02:23.078Z</time></trkpt><trkpt lat="35.7734453" lon="10.1301705"><ele>30.0</ele><time>2026-04-24T16:02:24.081Z</time></trkpt><trkpt lat="35.7733021" lon="10.1300571"><ele>30.333333333333336</ele><time>2026-04-24T16:02:25.08Z</time></trkpt><trkpt lat="35.7731632" lon="10.1299413"><ele>30.666666666666668</ele><time>2026-04-24T16:02:26.078Z</time></trkpt><trkpt lat="35.7730264" lon="10.1298359"><ele>31.0</ele><time>2026-04-24T16:02:27.084Z</time></trkpt><trkpt lat="35.7728782" lon="10.1297238"><ele>30.333333333333336</ele><time>2026-04-24T16:02:28.069Z</time></trkpt><trkpt lat="35.7727376" lon="10.1296187"><ele>29.666666666666664</ele><time>2026-04-24T16:02:29.078Z</time></trkpt><trkpt lat="35.7725987" lon="10.1295158"><ele>29.0</ele><time>2026-04-24T16:02:30.075Z</time></trkpt><trkpt lat="35.7724563" lon="10.1294058"><ele>29.0</ele><time>2026-04-24T16:02:31.079Z</time></trkpt><trkpt lat="35.7723164" lon="10.1292969"><ele>29.0</ele><time>2026-04-24T16:02:32.08Z</time></trkpt><trkpt lat="35.7721748" lon="10.1291911"><ele>29.0</ele><time>2026-04-24T16:02:33.081Z</time></trkpt><trkpt lat="35.7720328" lon="10.1290757"><ele>29.0</ele><time>2026-04-24T16:02:34.072Z</time></trkpt><trkpt lat="35.7718817" lon="10.1289574"><ele>29.0</ele><time>2026-04-24T16:02:35.08Z</time></trkpt><trkpt lat="35.7717277" lon="10.1288348"><ele>29.0</ele><time>2026-04-24T16:02:36.081Z</time></trkpt><trkpt lat="35.7715662" lon="10.1287029"><ele>29.0</ele><time>2026-04-24T16:02:37.079Z</time></trkpt><trkpt lat="35.7714016" lon="10.1285686"><ele>29.0</ele><time>2026-04-24T16:02:38.08Z</time></trkpt><trkpt lat="35.7712412" lon="10.1284427"><ele>29.0</ele><time>2026-04-24T16:02:39.081Z</time></trkpt><trkpt lat="35.7710789" lon="10.1283201"><ele>29.0</ele><time>2026-04-24T16:02:40.083Z</time></trkpt><trkpt lat="35.7709111" lon="10.1281923"><ele>29.0</ele><time>2026-04-24T16:02:41.079Z</time></trkpt><trkpt lat="35.7707494" lon="10.1280681"><ele>29.0</ele><time>2026-04-24T16:02:42.08Z</time></trkpt><trkpt lat="35.7705873" lon="10.1279455"><ele>29.0</ele><time>2026-04-24T16:02:43.079Z</time></trkpt><trkpt lat="35.770421" lon="10.1278169"><ele>29.0</ele><time>2026-04-24T16:02:44.077Z</time></trkpt><trkpt lat="35.7702581" lon="10.127689"><ele>29.0</ele><time>2026-04-24T16:02:45.082Z</time></trkpt><trkpt lat="35.7700953" lon="10.1275626"><ele>29.0</ele><time>2026-04-24T16:02:46.079Z</time></trkpt><trkpt lat="35.7699298" lon="10.1274374"><ele>29.0</ele><time>2026-04-24T16:02:47.079Z</time></trkpt><trkpt lat="35.7697638" lon="10.1273151"><ele>29.0</ele><time>2026-04-24T16:02:48.079Z</time></trkpt><trkpt lat="35.7695999" lon="10.1271896"><ele>29.0</ele><time>2026-04-24T16:02:49.076Z</time></trkpt><trkpt lat="35.7694364" lon="10.1270697"><ele>29.0</ele><time>2026-04-24T16:02:50.073Z</time></trkpt><trkpt lat="35.7692766" lon="10.1269415"><ele>29.0</ele><time>2026-04-24T16:02:51.081Z</time></trkpt><trkpt lat="35.7691143" lon="10.1268135"><ele>29.333333333333332</ele><time>2026-04-24T16:02:52.085Z</time></trkpt><trkpt lat="35.7689533" lon="10.126685"><ele>29.666666666666664</ele><time>2026-04-24T16:02:53.078Z</time></trkpt><trkpt lat="35.768789" lon="10.1265596"><ele>30.0</ele><time>2026-04-24T16:02:54.092Z</time></trkpt><trkpt lat="35.768625" lon="10.126433"><ele>30.333333333333336</ele><time>2026-04-24T16:02:55.079Z</time></trkpt><trkpt lat="35.7684619" lon="10.1263045"><ele>30.666666666666668</ele><time>2026-04-24T16:02:56.081Z</time></trkpt><trkpt lat="35.768299" lon="10.1261766"><ele>31.0</ele><time>2026-04-24T16:02:57.075Z</time></trkpt><trkpt lat="35.768133" lon="10.1260452"><ele>31.0</ele><time>2026-04-24T16:02:58.074Z</time></trkpt><trkpt lat="35.7679745" lon="10.1259154"><ele>31.0</ele><time>2026-04-24T16:02:59.074Z</time></trkpt><trkpt lat="35.7678082" lon="10.1257869"><ele>31.0</ele><time>2026-04-24T16:03:00.077Z</time></trkpt><trkpt lat="35.7676436" lon="10.1256639"><ele>31.333333333333336</ele><time>2026-04-24T16:03:01.083Z</time></trkpt><trkpt lat="35.7674835" lon="10.1255485"><ele>31.666666666666664</ele><time>2026-04-24T16:03:02.077Z</time></trkpt><trkpt lat="35.7673281" lon="10.1254277"><ele>32.0</ele><time>2026-04-24T16:03:03.079Z</time></trkpt><trkpt lat="35.7671812" lon="10.1253042"><ele>32.0</ele><time>2026-04-24T16:03:04.08Z</time></trkpt><trkpt lat="35.7670367" lon="10.1251913"><ele>32.0</ele><time>2026-04-24T16:03:05.079Z</time></trkpt><trkpt lat="35.766892" lon="10.1250807"><ele>32.0</ele><time>2026-04-24T16:03:06.079Z</time></trkpt><trkpt lat="35.7667502" lon="10.1249685"><ele>31.666666666666664</ele><time>2026-04-24T16:03:07.081Z</time></trkpt><trkpt lat="35.7666098" lon="10.1248547"><ele>31.333333333333336</ele><time>2026-04-24T16:03:08.081Z</time></trkpt><trkpt lat="35.7664662" lon="10.1247441"><ele>31.0</ele><time>2026-04-24T16:03:09.093Z</time></trkpt><trkpt lat="35.7663276" lon="10.1246355"><ele>31.0</ele><time>2026-04-24T16:03:10.078Z</time></trkpt><trkpt lat="35.7661821" lon="10.1245201"><ele>31.0</ele><time>2026-04-24T16:03:11.084Z</time></trkpt><trkpt lat="35.7660415" lon="10.1244035"><ele>31.0</ele><time>2026-04-24T16:03:12.079Z</time></trkpt><trkpt lat="35.7658974" lon="10.1242849"><ele>31.333333333333336</ele><time>2026-04-24T16:03:13.082Z</time></trkpt><trkpt lat="35.7657552" lon="10.1241713"><ele>31.666666666666664</ele><time>2026-04-24T16:03:14.077Z</time></trkpt><trkpt lat="35.7656138" lon="10.1240552"><ele>32.0</ele><time>2026-04-24T16:03:15.075Z</time></trkpt><trkpt lat="35.7654734" lon="10.1239316"><ele>32.33333333333333</ele><time>2026-04-24T16:03:16.077Z</time></trkpt><trkpt lat="35.7653337" lon="10.1238077"><ele>32.666666666666664</ele><time>2026-04-24T16:03:17.079Z</time></trkpt><trkpt lat="35.7651949" lon="10.1236742"><ele>33.0</ele><time>2026-04-24T16:03:18.083Z</time></trkpt><trkpt lat="35.7650555" lon="10.1235399"><ele>32.333333333333336</ele><time>2026-04-24T16:03:19.077Z</time></trkpt><trkpt lat="35.7649171" lon="10.1233935"><ele>31.666666666666668</ele><time>2026-04-24T16:03:20.082Z</time></trkpt><trkpt lat="35.764785" lon="10.1232488"><ele>31.0</ele><time>2026-04-24T16:03:21.073Z</time></trkpt><trkpt lat="35.764656" lon="10.1231002"><ele>31.0</ele><time>2026-04-24T16:03:22.081Z</time></trkpt><trkpt lat="35.7645298" lon="10.1229545"><ele>31.0</ele><time>2026-04-24T16:03:23.08Z</time></trkpt><trkpt lat="35.7644067" lon="10.1227949"><ele>31.0</ele><time>2026-04-24T16:03:24.076Z</time></trkpt><trkpt lat="35.7642835" lon="10.1226346"><ele>31.0</ele><time>2026-04-24T16:03:25.085Z</time></trkpt><trkpt lat="35.7641676" lon="10.1224714"><ele>31.0</ele><time>2026-04-24T16:03:26.083Z</time></trkpt><trkpt lat="35.7640538" lon="10.1223131"><ele>31.0</ele><time>2026-04-24T16:03:27.088Z</time></trkpt><trkpt lat="35.7639389" lon="10.1221519"><ele>31.0</ele><time>2026-04-24T16:03:28.08Z</time></trkpt><trkpt lat="35.7638282" lon="10.1219807"><ele>31.0</ele><time>2026-04-24T16:03:29.077Z</time></trkpt><trkpt lat="35.7637197" lon="10.1218027"><ele>31.0</ele><time>2026-04-24T16:03:30.083Z</time></trkpt><trkpt lat="35.763608" lon="10.1216207"><ele>31.333333333333336</ele><time>2026-04-24T16:03:31.083Z</time></trkpt><trkpt lat="35.763495" lon="10.1214377"><ele>31.666666666666664</ele><time>2026-04-24T16:03:32.077Z</time></trkpt><trkpt lat="35.763379" lon="10.1212471"><ele>32.0</ele><time>2026-04-24T16:03:33.076Z</time></trkpt><trkpt lat="35.7632624" lon="10.1210514"><ele>32.0</ele><time>2026-04-24T16:03:34.082Z</time></trkpt><trkpt lat="35.763141" lon="10.1208544"><ele>32.0</ele><time>2026-04-24T16:03:35.08Z</time></trkpt><trkpt lat="35.7630139" lon="10.120657"><ele>32.0</ele><time>2026-04-24T16:03:36.084Z</time></trkpt><trkpt lat="35.7628954" lon="10.120459"><ele>32.666666666666664</ele><time>2026-04-24T16:03:37.077Z</time></trkpt><trkpt lat="35.7627762" lon="10.1202658"><ele>33.333333333333336</ele><time>2026-04-24T16:03:38.083Z</time></trkpt><trkpt lat="35.762661" lon="10.1200728"><ele>34.0</ele><time>2026-04-24T16:03:39.083Z</time></trkpt><trkpt lat="35.762542" lon="10.1198796"><ele>34.0</ele><time>2026-04-24T16:03:40.08Z</time></trkpt><trkpt lat="35.7624254" lon="10.1196863"><ele>34.0</ele><time>2026-04-24T16:03:41.08Z</time></trkpt><trkpt lat="35.7623075" lon="10.1194989"><ele>34.0</ele><time>2026-04-24T16:03:42.075Z</time></trkpt><trkpt lat="35.7621942" lon="10.1193118"><ele>34.0</ele><time>2026-04-24T16:03:43.079Z</time></trkpt><trkpt lat="35.7620777" lon="10.1191224"><ele>34.0</ele><time>2026-04-24T16:03:44.079Z</time></trkpt><trkpt lat="35.7619619" lon="10.1189395"><ele>34.0</ele><time>2026-04-24T16:03:45.08Z</time></trkpt><trkpt lat="35.7618384" lon="10.1187597"><ele>34.0</ele><time>2026-04-24T16:03:46.082Z</time></trkpt><trkpt lat="35.7617114" lon="10.1185877"><ele>34.0</ele><time>2026-04-24T16:03:47.078Z</time></trkpt><trkpt lat="35.7615765" lon="10.1184191"><ele>34.0</ele><time>2026-04-24T16:03:48.079Z</time></trkpt><trkpt lat="35.7614356" lon="10.1182505"><ele>34.0</ele><time>2026-04-24T16:03:49.071Z</time></trkpt><trkpt lat="35.7612875" lon="10.1180909"><ele>34.0</ele><time>2026-04-24T16:03:50.081Z</time></trkpt><trkpt lat="35.7611301" lon="10.1179415"><ele>34.0</ele><time>2026-04-24T16:03:51.081Z</time></trkpt><trkpt lat="35.7609649" lon="10.117801"><ele>34.333333333333336</ele><time>2026-04-24T16:03:52.081Z</time></trkpt><trkpt lat="35.7607953" lon="10.1176702"><ele>34.666666666666664</ele><time>2026-04-24T16:03:53.078Z</time></trkpt><trkpt lat="35.7606202" lon="10.1175487"><ele>35.0</ele><time>2026-04-24T16:03:54.08Z</time></trkpt><trkpt lat="35.760434" lon="10.1174382"><ele>34.666666666666664</ele><time>2026-04-24T16:03:55.08Z</time></trkpt><trkpt lat="35.7602476" lon="10.1173401"><ele>34.333333333333336</ele><time>2026-04-24T16:03:56.074Z</time></trkpt><trkpt lat="35.7600538" lon="10.1172601"><ele>34.0</ele><time>2026-04-24T16:03:57.08Z</time></trkpt><trkpt lat="35.7598547" lon="10.117186"><ele>33.66666666666667</ele><time>2026-04-24T16:03:58.082Z</time></trkpt><trkpt lat="35.7596457" lon="10.1171089"><ele>33.333333333333336</ele><time>2026-04-24T16:03:59.075Z</time></trkpt><trkpt lat="35.7594252" lon="10.1170609"><ele>33.0</ele><time>2026-04-24T16:04:00.071Z</time></trkpt><trkpt lat="35.7591871" lon="10.1170264"><ele>32.5</ele><time>2026-04-24T16:04:01.075Z</time></trkpt><trkpt lat="35.7589358" lon="10.117"><ele>32.0</ele><time>2026-04-24T16:04:02.078Z</time></trkpt><trkpt lat="35.758699" lon="10.1169816"><ele>33.0</ele><time>2026-04-24T16:04:03.083Z</time></trkpt><trkpt lat="35.7584663" lon="10.116957"><ele>34.0</ele><time>2026-04-24T16:04:04.08Z</time></trkpt><trkpt lat="35.7582363" lon="10.1169319"><ele>34.0</ele><time>2026-04-24T16:04:05.08Z</time></trkpt><trkpt lat="35.7580147" lon="10.1169026"><ele>34.0</ele><time>2026-04-24T16:04:06.081Z</time></trkpt><trkpt lat="35.7577941" lon="10.1168715"><ele>34.0</ele><time>2026-04-24T16:04:07.091Z</time></trkpt><trkpt lat="35.757575" lon="10.1168406"><ele>33.66666666666667</ele><time>2026-04-24T16:04:08.081Z</time></trkpt><trkpt lat="35.7573706" lon="10.1168138"><ele>33.333333333333336</ele><time>2026-04-24T16:04:09.081Z</time></trkpt><trkpt lat="35.7571607" lon="10.1167871"><ele>33.0</ele><time>2026-04-24T16:04:10.079Z</time></trkpt><trkpt lat="35.7569554" lon="10.1167602"><ele>33.0</ele><time>2026-04-24T16:04:11.083Z</time></trkpt><trkpt lat="35.7567468" lon="10.116733"><ele>33.0</ele><time>2026-04-24T16:04:12.082Z</time></trkpt><trkpt lat="35.7565349" lon="10.1167104"><ele>33.0</ele><time>2026-04-24T16:04:13.08Z</time></trkpt><trkpt lat="35.7563301" lon="10.1166855"><ele>33.0</ele><time>2026-04-24T16:04:14.085Z</time></trkpt><trkpt lat="35.7561256" lon="10.1166643"><ele>33.0</ele><time>2026-04-24T16:04:15.08Z</time></trkpt><trkpt lat="35.7559261" lon="10.1166414"><ele>33.0</ele><time>2026-04-24T16:04:16.077Z</time></trkpt><trkpt lat="35.7557322" lon="10.1166206"><ele>33.0</ele><time>2026-04-24T16:04:17.079Z</time></trkpt><trkpt lat="35.7555387" lon="10.1166003"><ele>33.0</ele><time>2026-04-24T16:04:18.083Z</time></trkpt><trkpt lat="35.7553431" lon="10.1165809"><ele>33.0</ele><time>2026-04-24T16:04:19.08Z</time></trkpt><trkpt lat="35.7551491" lon="10.1165587"><ele>33.0</ele><time>2026-04-24T16:04:20.071Z</time></trkpt><trkpt lat="35.7549566" lon="10.1165385"><ele>33.0</ele><time>2026-04-24T16:04:21.077Z</time></trkpt><trkpt lat="35.7547632" lon="10.1165139"><ele>33.0</ele><time>2026-04-24T16:04:22.09Z</time></trkpt><trkpt lat="35.7545767" lon="10.116492"><ele>33.0</ele><time>2026-04-24T16:04:23.081Z</time></trkpt><trkpt lat="35.7543856" lon="10.116471"><ele>33.0</ele><time>2026-04-24T16:04:24.081Z</time></trkpt><trkpt lat="35.7541974" lon="10.1164527"><ele>33.0</ele><time>2026-04-24T16:04:25.076Z</time></trkpt><trkpt lat="35.7540083" lon="10.1164319"><ele>33.0</ele><time>2026-04-24T16:04:26.08Z</time></trkpt><trkpt lat="35.7538152" lon="10.1164114"><ele>33.0</ele><time>2026-04-24T16:04:27.075Z</time></trkpt><trkpt lat="35.7536222" lon="10.1163885"><ele>33.0</ele><time>2026-04-24T16:04:28.074Z</time></trkpt><trkpt lat="35.7534269" lon="10.1163637"><ele>33.0</ele><time>2026-04-24T16:04:29.075Z</time></trkpt><trkpt lat="35.75323" lon="10.1163389"><ele>33.0</ele><time>2026-04-24T16:04:30.081Z</time></trkpt><trkpt lat="35.7530295" lon="10.1163107"><ele>33.0</ele><time>2026-04-24T16:04:31.078Z</time></trkpt><trkpt lat="35.7528328" lon="10.1162887"><ele>33.666666666666664</ele><time>2026-04-24T16:04:32.083Z</time></trkpt><trkpt lat="35.7526361" lon="10.1162674"><ele>34.33333333333333</ele><time>2026-04-24T16:04:33.078Z</time></trkpt><trkpt lat="35.7524396" lon="10.1162448"><ele>35.0</ele><time>2026-04-24T16:04:34.083Z</time></trkpt><trkpt lat="35.7522378" lon="10.1162205"><ele>35.0</ele><time>2026-04-24T16:04:35.077Z</time></trkpt><trkpt lat="35.7520368" lon="10.1161944"><ele>35.0</ele><time>2026-04-24T16:04:36.085Z</time></trkpt><trkpt lat="35.7518358" lon="10.116169"><ele>35.0</ele><time>2026-04-24T16:04:37.078Z</time></trkpt><trkpt lat="35.7516347" lon="10.1161513"><ele>35.0</ele><time>2026-04-24T16:04:38.079Z</time></trkpt><trkpt lat="35.7514357" lon="10.1161237"><ele>35.0</ele><time>2026-04-24T16:04:39.081Z</time></trkpt><trkpt lat="35.7512301" lon="10.1160935"><ele>35.0</ele><time>2026-04-24T16:04:40.078Z</time></trkpt><trkpt lat="35.7510287" lon="10.116068"><ele>34.33333333333333</ele><time>2026-04-24T16:04:41.083Z</time></trkpt><trkpt lat="35.7508283" lon="10.1160444"><ele>33.666666666666664</ele><time>2026-04-24T16:04:42.076Z</time></trkpt><trkpt lat="35.7506293" lon="10.1160207"><ele>33.0</ele><time>2026-04-24T16:04:43.084Z</time></trkpt><trkpt lat="35.7504292" lon="10.1159996"><ele>33.0</ele><time>2026-04-24T16:04:44.082Z</time></trkpt><trkpt lat="35.750234" lon="10.1159755"><ele>33.0</ele><time>2026-04-24T16:04:45.074Z</time></trkpt><trkpt lat="35.7500358" lon="10.1159525"><ele>33.0</ele><time>2026-04-24T16:04:46.077Z</time></trkpt><trkpt lat="35.7498339" lon="10.1159321"><ele>33.0</ele><time>2026-04-24T16:04:47.077Z</time></trkpt><trkpt lat="35.7496354" lon="10.1159141"><ele>33.0</ele><time>2026-04-24T16:04:48.074Z</time></trkpt><trkpt lat="35.749436" lon="10.1159022"><ele>33.0</ele><time>2026-04-24T16:04:49.078Z</time></trkpt><trkpt lat="35.74924" lon="10.1158948"><ele>33.333333333333336</ele><time>2026-04-24T16:04:50.077Z</time></trkpt><trkpt lat="35.7490432" lon="10.1158885"><ele>33.66666666666667</ele><time>2026-04-24T16:04:51.077Z</time></trkpt><trkpt lat="35.7488498" lon="10.115881"><ele>34.0</ele><time>2026-04-24T16:04:52.08Z</time></trkpt><trkpt lat="35.7486531" lon="10.1158762"><ele>34.333333333333336</ele><time>2026-04-24T16:04:53.079Z</time></trkpt><trkpt lat="35.7484616" lon="10.1158729"><ele>34.666666666666664</ele><time>2026-04-24T16:04:54.083Z</time></trkpt><trkpt lat="35.7482708" lon="10.1158644"><ele>35.0</ele><time>2026-04-24T16:04:55.078Z</time></trkpt><trkpt lat="35.7480802" lon="10.115863"><ele>35.0</ele><time>2026-04-24T16:04:56.083Z</time></trkpt><trkpt lat="35.7478896" lon="10.1158597"><ele>35.0</ele><time>2026-04-24T16:04:57.079Z</time></trkpt><trkpt lat="35.7477" lon="10.1158548"><ele>35.0</ele><time>2026-04-24T16:04:58.079Z</time></trkpt><trkpt lat="35.747508" lon="10.115849"><ele>34.666666666666664</ele><time>2026-04-24T16:04:59.074Z</time></trkpt><trkpt lat="35.7473138" lon="10.1158451"><ele>34.333333333333336</ele><time>2026-04-24T16:05:00.073Z</time></trkpt><trkpt lat="35.7471181" lon="10.1158376"><ele>34.0</ele><time>2026-04-24T16:05:01.082Z</time></trkpt><trkpt lat="35.7469266" lon="10.1158335"><ele>34.66666666666667</ele><time>2026-04-24T16:05:02.079Z</time></trkpt><trkpt lat="35.7467321" lon="10.1158305"><ele>35.333333333333336</ele><time>2026-04-24T16:05:03.079Z</time></trkpt><trkpt lat="35.7465436" lon="10.1158267"><ele>36.0</ele><time>2026-04-24T16:05:04.075Z</time></trkpt><trkpt lat="35.7463523" lon="10.11582"><ele>36.0</ele><time>2026-04-24T16:05:05.074Z</time></trkpt><trkpt lat="35.7461613" lon="10.1158135"><ele>36.0</ele><time>2026-04-24T16:05:06.08Z</time></trkpt><trkpt lat="35.7459705" lon="10.1158069"><ele>36.0</ele><time>2026-04-24T16:05:07.08Z</time></trkpt><trkpt lat="35.7457741" lon="10.1158017"><ele>35.666666666666664</ele><time>2026-04-24T16:05:08.076Z</time></trkpt><trkpt lat="35.7455815" lon="10.1157931"><ele>35.33333333333333</ele><time>2026-04-24T16:05:09.083Z</time></trkpt><trkpt lat="35.7453882" lon="10.1157847"><ele>35.0</ele><time>2026-04-24T16:05:10.078Z</time></trkpt><trkpt lat="35.7451979" lon="10.1157806"><ele>36.0</ele><time>2026-04-24T16:05:11.084Z</time></trkpt><trkpt lat="35.7450025" lon="10.1157783"><ele>37.0</ele><time>2026-04-24T16:05:12.084Z</time></trkpt><trkpt lat="35.7448132" lon="10.1157754"><ele>38.0</ele><time>2026-04-24T16:05:13.083Z</time></trkpt><trkpt lat="35.744627" lon="10.1157734"><ele>38.0</ele><time>2026-04-24T16:05:14.086Z</time></trkpt><trkpt lat="35.7444377" lon="10.1157741"><ele>38.0</ele><time>2026-04-24T16:05:15.081Z</time></trkpt><trkpt lat="35.7442523" lon="10.115782"><ele>38.0</ele><time>2026-04-24T16:05:16.079Z</time></trkpt><trkpt lat="35.7440681" lon="10.1157857"><ele>37.666666666666664</ele><time>2026-04-24T16:05:17.079Z</time></trkpt><trkpt lat="35.743886" lon="10.1157863"><ele>37.333333333333336</ele><time>2026-04-24T16:05:18.084Z</time></trkpt><trkpt lat="35.7437073" lon="10.1157868"><ele>37.0</ele><time>2026-04-24T16:05:19.079Z</time></trkpt><trkpt lat="35.7435245" lon="10.1157838"><ele>37.0</ele><time>2026-04-24T16:05:20.078Z</time></trkpt><trkpt lat="35.7433418" lon="10.1157765"><ele>37.0</ele><time>2026-04-24T16:05:21.074Z</time></trkpt><trkpt lat="35.7431597" lon="10.1157622"><ele>37.0</ele><time>2026-04-24T16:05:22.083Z</time></trkpt><trkpt lat="35.7429815" lon="10.1157437"><ele>37.66666666666667</ele><time>2026-04-24T16:05:23.08Z</time></trkpt><trkpt lat="35.7428026" lon="10.1157221"><ele>38.333333333333336</ele><time>2026-04-24T16:05:24.081Z</time></trkpt><trkpt lat="35.7426244" lon="10.1156987"><ele>39.0</ele><time>2026-04-24T16:05:25.084Z</time></trkpt><trkpt lat="35.742443" lon="10.1156766"><ele>39.666666666666664</ele><time>2026-04-24T16:05:26.083Z</time></trkpt><trkpt lat="35.7422655" lon="10.1156505"><ele>40.33333333333333</ele><time>2026-04-24T16:05:27.08Z</time></trkpt><trkpt lat="35.7420834" lon="10.11563"><ele>41.0</ele><time>2026-04-24T16:05:28.074Z</time></trkpt><trkpt lat="35.7418976" lon="10.1156081"><ele>41.666666666666664</ele><time>2026-04-24T16:05:29.079Z</time></trkpt><trkpt lat="35.7417007" lon="10.115587"><ele>42.333333333333336</ele><time>2026-04-24T16:05:30.081Z</time></trkpt><trkpt lat="35.741508" lon="10.1155656"><ele>43.0</ele><time>2026-04-24T16:05:31.078Z</time></trkpt><trkpt lat="35.741308" lon="10.1155432"><ele>43.0</ele><time>2026-04-24T16:05:32.081Z</time></trkpt><trkpt lat="35.741111" lon="10.1155164"><ele>43.0</ele><time>2026-04-24T16:05:33.084Z</time></trkpt><trkpt lat="35.7409159" lon="10.1154919"><ele>43.0</ele><time>2026-04-24T16:05:34.078Z</time></trkpt><trkpt lat="35.740724" lon="10.1154666"><ele>43.333333333333336</ele><time>2026-04-24T16:05:35.075Z</time></trkpt><trkpt lat="35.7405269" lon="10.115446"><ele>43.666666666666664</ele><time>2026-04-24T16:05:36.078Z</time></trkpt><trkpt lat="35.7403316" lon="10.1154184"><ele>44.0</ele><time>2026-04-24T16:05:37.083Z</time></trkpt><trkpt lat="35.7401351" lon="10.1153989"><ele>43.33333333333333</ele><time>2026-04-24T16:05:38.08Z</time></trkpt><trkpt lat="35.7399429" lon="10.1153781"><ele>42.666666666666664</ele><time>2026-04-24T16:05:39.072Z</time></trkpt><trkpt lat="35.739752" lon="10.1153587"><ele>42.0</ele><time>2026-04-24T16:05:40.076Z</time></trkpt><trkpt lat="35.7395622" lon="10.1153364"><ele>41.666666666666664</ele><time>2026-04-24T16:05:41.072Z</time></trkpt><trkpt lat="35.7393719" lon="10.1153128"><ele>41.33333333333333</ele><time>2026-04-24T16:05:42.074Z</time></trkpt><trkpt lat="35.7391811" lon="10.1152918"><ele>41.0</ele><time>2026-04-24T16:05:43.078Z</time></trkpt><trkpt lat="35.7389907" lon="10.1152737"><ele>41.0</ele><time>2026-04-24T16:05:44.074Z</time></trkpt><trkpt lat="35.7388061" lon="10.1152554"><ele>41.0</ele><time>2026-04-24T16:05:45.077Z</time></trkpt><trkpt lat="35.7386287" lon="10.115232"><ele>41.0</ele><time>2026-04-24T16:05:46.081Z</time></trkpt><trkpt lat="35.7384546" lon="10.1152117"><ele>41.0</ele><time>2026-04-24T16:05:47.083Z</time></trkpt><trkpt lat="35.7382827" lon="10.1151922"><ele>41.0</ele><time>2026-04-24T16:05:48.085Z</time></trkpt><trkpt lat="35.7381073" lon="10.1151684"><ele>41.0</ele><time>2026-04-24T16:05:49.071Z</time></trkpt><trkpt lat="35.7379361" lon="10.1151365"><ele>41.0</ele><time>2026-04-24T16:05:50.076Z</time></trkpt><trkpt lat="35.7377748" lon="10.1150984"><ele>41.0</ele><time>2026-04-24T16:05:51.075Z</time></trkpt><trkpt lat="35.7376142" lon="10.115058"><ele>41.0</ele><time>2026-04-24T16:05:52.078Z</time></trkpt><trkpt lat="35.7374495" lon="10.1150057"><ele>41.0</ele><time>2026-04-24T16:05:53.073Z</time></trkpt><trkpt lat="35.7372881" lon="10.1149507"><ele>41.0</ele><time>2026-04-24T16:05:54.083Z</time></trkpt><trkpt lat="35.7371328" lon="10.1148977"><ele>41.0</ele><time>2026-04-24T16:05:55.072Z</time></trkpt><trkpt lat="35.7369714" lon="10.1148468"><ele>40.33333333333333</ele><time>2026-04-24T16:05:56.076Z</time></trkpt><trkpt lat="35.7368182" lon="10.1147976"><ele>39.666666666666664</ele><time>2026-04-24T16:05:57.08Z</time></trkpt><trkpt lat="35.7366645" lon="10.1147442"><ele>39.0</ele><time>2026-04-24T16:05:58.072Z</time></trkpt><trkpt lat="35.7365168" lon="10.1146907"><ele>39.0</ele><time>2026-04-24T16:05:59.081Z</time></trkpt><trkpt lat="35.7363593" lon="10.1146218"><ele>39.0</ele><time>2026-04-24T16:06:00.077Z</time></trkpt><trkpt lat="35.7361997" lon="10.1145536"><ele>39.0</ele><time>2026-04-24T16:06:01.08Z</time></trkpt><trkpt lat="35.7360402" lon="10.1144955"><ele>38.666666666666664</ele><time>2026-04-24T16:06:02.071Z</time></trkpt><trkpt lat="35.7358829" lon="10.1144471"><ele>38.33333333333333</ele><time>2026-04-24T16:06:03.079Z</time></trkpt><trkpt lat="35.7357198" lon="10.1143904"><ele>38.0</ele><time>2026-04-24T16:06:04.068Z</time></trkpt><trkpt lat="35.7355642" lon="10.1143315"><ele>38.0</ele><time>2026-04-24T16:06:05.077Z</time></trkpt><trkpt lat="35.7354044" lon="10.1142744"><ele>38.0</ele><time>2026-04-24T16:06:06.07Z</time></trkpt><trkpt lat="35.7352423" lon="10.1142104"><ele>38.0</ele><time>2026-04-24T16:06:07.073Z</time></trkpt><trkpt lat="35.7350816" lon="10.1141541"><ele>38.0</ele><time>2026-04-24T16:06:08.082Z</time></trkpt><trkpt lat="35.734924" lon="10.1140992"><ele>38.0</ele><time>2026-04-24T16:06:09.067Z</time></trkpt><trkpt lat="35.7347691" lon="10.1140449"><ele>38.0</ele><time>2026-04-24T16:06:10.076Z</time></trkpt><trkpt lat="35.7346151" lon="10.1139912"><ele>38.33333333333333</ele><time>2026-04-24T16:06:11.081Z</time></trkpt><trkpt lat="35.7344621" lon="10.1139305"><ele>38.666666666666664</ele><time>2026-04-24T16:06:12.081Z</time></trkpt><trkpt lat="35.7343103" lon="10.1138641"><ele>39.0</ele><time>2026-04-24T16:06:13.08Z</time></trkpt><trkpt lat="35.7341536" lon="10.1137993"><ele>38.0</ele><time>2026-04-24T16:06:14.079Z</time></trkpt><trkpt lat="35.7339905" lon="10.1137447"><ele>37.0</ele><time>2026-04-24T16:06:15.078Z</time></trkpt><trkpt lat="35.7338324" lon="10.1136884"><ele>36.0</ele><time>2026-04-24T16:06:16.08Z</time></trkpt><trkpt lat="35.7336743" lon="10.1136371"><ele>35.666666666666664</ele><time>2026-04-24T16:06:17.082Z</time></trkpt><trkpt lat="35.73352" lon="10.1135783"><ele>35.33333333333333</ele><time>2026-04-24T16:06:18.075Z</time></trkpt><trkpt lat="35.7333546" lon="10.1135167"><ele>35.0</ele><time>2026-04-24T16:06:19.081Z</time></trkpt><trkpt lat="35.7331948" lon="10.1134541"><ele>35.0</ele><time>2026-04-24T16:06:20.079Z</time></trkpt><trkpt lat="35.7330363" lon="10.1133927"><ele>35.0</ele><time>2026-04-24T16:06:21.077Z</time></trkpt><trkpt lat="35.7328772" lon="10.1133377"><ele>35.0</ele><time>2026-04-24T16:06:22.081Z</time></trkpt><trkpt lat="35.7327186" lon="10.1132838"><ele>35.666666666666664</ele><time>2026-04-24T16:06:23.082Z</time></trkpt><trkpt lat="35.7325593" lon="10.1132263"><ele>36.333333333333336</ele><time>2026-04-24T16:06:24.082Z</time></trkpt><trkpt lat="35.7323949" lon="10.113174"><ele>37.0</ele><time>2026-04-24T16:06:25.08Z</time></trkpt><trkpt lat="35.732235" lon="10.1131188"><ele>37.0</ele><time>2026-04-24T16:06:26.08Z</time></trkpt><trkpt lat="35.7320762" lon="10.1130593"><ele>37.0</ele><time>2026-04-24T16:06:27.082Z</time></trkpt><trkpt lat="35.731917" lon="10.1130006"><ele>37.0</ele><time>2026-04-24T16:06:28.077Z</time></trkpt><trkpt lat="35.7317569" lon="10.112943"><ele>37.66666666666667</ele><time>2026-04-24T16:06:29.078Z</time></trkpt><trkpt lat="35.7316042" lon="10.1128862"><ele>38.333333333333336</ele><time>2026-04-24T16:06:30.083Z</time></trkpt><trkpt lat="35.7314483" lon="10.1128241"><ele>39.0</ele><time>2026-04-24T16:06:31.078Z</time></trkpt><trkpt lat="35.7312863" lon="10.1127599"><ele>39.0</ele><time>2026-04-24T16:06:32.071Z</time></trkpt><trkpt lat="35.7311264" lon="10.1126963"><ele>39.0</ele><time>2026-04-24T16:06:33.076Z</time></trkpt><trkpt lat="35.7309716" lon="10.112637"><ele>39.0</ele><time>2026-04-24T16:06:34.087Z</time></trkpt><trkpt lat="35.7308172" lon="10.1125762"><ele>38.5</ele><time>2026-04-24T16:06:35.072Z</time></trkpt><trkpt lat="35.7306661" lon="10.1125225"><ele>38.0</ele><time>2026-04-24T16:06:36.076Z</time></trkpt><trkpt lat="35.7305273" lon="10.1124628"><ele>37.5</ele><time>2026-04-24T16:06:37.078Z</time></trkpt><trkpt lat="35.7303895" lon="10.1124073"><ele>37.0</ele><time>2026-04-24T16:06:38.078Z</time></trkpt><trkpt lat="35.7302439" lon="10.1123541"><ele>37.66666666666667</ele><time>2026-04-24T16:06:39.076Z</time></trkpt><trkpt lat="35.730094" lon="10.112298"><ele>38.333333333333336</ele><time>2026-04-24T16:06:40.081Z</time></trkpt><trkpt lat="35.7299419" lon="10.1122457"><ele>39.0</ele><time>2026-04-24T16:06:41.079Z</time></trkpt><trkpt lat="35.7297881" lon="10.112191"><ele>39.0</ele><time>2026-04-24T16:06:42.085Z</time></trkpt><trkpt lat="35.7296333" lon="10.1121346"><ele>39.0</ele><time>2026-04-24T16:06:43.079Z</time></trkpt><trkpt lat="35.729471" lon="10.1120743"><ele>39.0</ele><time>2026-04-24T16:06:44.072Z</time></trkpt><trkpt lat="35.7293095" lon="10.1120167"><ele>38.333333333333336</ele><time>2026-04-24T16:06:45.076Z</time></trkpt><trkpt lat="35.7291509" lon="10.1119577"><ele>37.66666666666667</ele><time>2026-04-24T16:06:46.079Z</time></trkpt><trkpt lat="35.7289927" lon="10.1119049"><ele>37.0</ele><time>2026-04-24T16:06:47.083Z</time></trkpt><trkpt lat="35.7288338" lon="10.1118428"><ele>37.0</ele><time>2026-04-24T16:06:48.08Z</time></trkpt><trkpt lat="35.7286747" lon="10.1117883"><ele>37.0</ele><time>2026-04-24T16:06:49.079Z</time></trkpt><trkpt lat="35.7285164" lon="10.1117267"><ele>37.0</ele><time>2026-04-24T16:06:50.076Z</time></trkpt><trkpt lat="35.7283538" lon="10.1116614"><ele>37.66666666666667</ele><time>2026-04-24T16:06:51.081Z</time></trkpt><trkpt lat="35.7281928" lon="10.1115964"><ele>38.333333333333336</ele><time>2026-04-24T16:06:52.078Z</time></trkpt><trkpt lat="35.7280263" lon="10.1115387"><ele>39.0</ele><time>2026-04-24T16:06:53.08Z</time></trkpt><trkpt lat="35.7278601" lon="10.1114771"><ele>40.0</ele><time>2026-04-24T16:06:54.074Z</time></trkpt><trkpt lat="35.7276905" lon="10.1114133"><ele>41.0</ele><time>2026-04-24T16:06:55.085Z</time></trkpt><trkpt lat="35.7275246" lon="10.1113493"><ele>42.0</ele><time>2026-04-24T16:06:56.079Z</time></trkpt><trkpt lat="35.7273664" lon="10.1112857"><ele>42.0</ele><time>2026-04-24T16:06:57.079Z</time></trkpt><trkpt lat="35.7272096" lon="10.111223"><ele>42.0</ele><time>2026-04-24T16:06:58.08Z</time></trkpt><trkpt lat="35.7270455" lon="10.1111641"><ele>42.0</ele><time>2026-04-24T16:06:59.075Z</time></trkpt><trkpt lat="35.7268773" lon="10.1111024"><ele>42.333333333333336</ele><time>2026-04-24T16:07:00.083Z</time></trkpt><trkpt lat="35.7267074" lon="10.1110359"><ele>42.66666666666667</ele><time>2026-04-24T16:07:01.078Z</time></trkpt><trkpt lat="35.7265387" lon="10.1109714"><ele>43.0</ele><time>2026-04-24T16:07:02.073Z</time></trkpt><trkpt lat="35.7263686" lon="10.1109098"><ele>43.0</ele><time>2026-04-24T16:07:03.081Z</time></trkpt><trkpt lat="35.7262013" lon="10.1108504"><ele>43.0</ele><time>2026-04-24T16:07:04.08Z</time></trkpt><trkpt lat="35.7260356" lon="10.1107868"><ele>43.0</ele><time>2026-04-24T16:07:05.074Z</time></trkpt><trkpt lat="35.7258703" lon="10.110721"><ele>44.333333333333336</ele><time>2026-04-24T16:07:06.077Z</time></trkpt><trkpt lat="35.7257084" lon="10.1106584"><ele>45.666666666666664</ele><time>2026-04-24T16:07:07.078Z</time></trkpt><trkpt lat="35.7255437" lon="10.1105974"><ele>47.0</ele><time>2026-04-24T16:07:08.074Z</time></trkpt><trkpt lat="35.7253817" lon="10.1105358"><ele>47.0</ele><time>2026-04-24T16:07:09.079Z</time></trkpt><trkpt lat="35.7252191" lon="10.1104725"><ele>47.0</ele><time>2026-04-24T16:07:10.079Z</time></trkpt><trkpt lat="35.7250579" lon="10.1104152"><ele>47.0</ele><time>2026-04-24T16:07:11.083Z</time></trkpt><trkpt lat="35.7249004" lon="10.1103487"><ele>47.0</ele><time>2026-04-24T16:07:12.079Z</time></trkpt><trkpt lat="35.7247359" lon="10.1102787"><ele>47.0</ele><time>2026-04-24T16:07:13.083Z</time></trkpt><trkpt lat="35.7245739" lon="10.1102132"><ele>47.0</ele><time>2026-04-24T16:07:14.079Z</time></trkpt><trkpt lat="35.7244121" lon="10.1101551"><ele>47.666666666666664</ele><time>2026-04-24T16:07:15.08Z</time></trkpt><trkpt lat="35.7242549" lon="10.1100929"><ele>48.33333333333333</ele><time>2026-04-24T16:07:16.071Z</time></trkpt><trkpt lat="35.7241094" lon="10.1100383"><ele>49.0</ele><time>2026-04-24T16:07:17.072Z</time></trkpt><trkpt lat="35.7239692" lon="10.1099904"><ele>49.0</ele><time>2026-04-24T16:07:18.08Z</time></trkpt><trkpt lat="35.723843" lon="10.109932"><ele>49.0</ele><time>2026-04-24T16:07:19.08Z</time></trkpt><trkpt lat="35.7237171" lon="10.1098744"><ele>49.0</ele><time>2026-04-24T16:07:20.076Z</time></trkpt><trkpt lat="35.7235848" lon="10.1098151"><ele>49.0</ele><time>2026-04-24T16:07:21.084Z</time></trkpt><trkpt lat="35.7234447" lon="10.1097604"><ele>48.25</ele><time>2026-04-24T16:07:22.086Z</time></trkpt><trkpt lat="35.7233026" lon="10.109698"><ele>47.5</ele><time>2026-04-24T16:07:23.094Z</time></trkpt><trkpt lat="35.7231605" lon="10.1096454"><ele>46.75</ele><time>2026-04-24T16:07:24.084Z</time></trkpt><trkpt lat="35.723021" lon="10.1095918"><ele>46.0</ele><time>2026-04-24T16:07:25.081Z</time></trkpt><trkpt lat="35.722879" lon="10.1095351"><ele>46.0</ele><time>2026-04-24T16:07:26.08Z</time></trkpt><trkpt lat="35.722738" lon="10.1094847"><ele>46.0</ele><time>2026-04-24T16:07:27.077Z</time></trkpt><trkpt lat="35.7225974" lon="10.1094391"><ele>46.0</ele><time>2026-04-24T16:07:28.081Z</time></trkpt><trkpt lat="35.7224528" lon="10.1093936"><ele>46.0</ele><time>2026-04-24T16:07:29.076Z</time></trkpt><trkpt lat="35.722316" lon="10.1093581"><ele>45.75</ele><time>2026-04-24T16:07:30.07Z</time></trkpt><trkpt lat="35.7221883" lon="10.1093207"><ele>45.5</ele><time>2026-04-24T16:07:31.072Z</time></trkpt><trkpt lat="35.7220708" lon="10.1092889"><ele>45.25</ele><time>2026-04-24T16:07:32.068Z</time></trkpt><trkpt lat="35.7219587" lon="10.1092556"><ele>45.0</ele><time>2026-04-24T16:07:33.075Z</time></trkpt><trkpt lat="35.7218565" lon="10.1092341"><ele>45.4</ele><time>2026-04-24T16:07:34.075Z</time></trkpt><trkpt lat="35.721756" lon="10.109208"><ele>45.8</ele><time>2026-04-24T16:07:35.075Z</time></trkpt><trkpt lat="35.7216479" lon="10.109185"><ele>46.2</ele><time>2026-04-24T16:07:36.07Z</time></trkpt><trkpt lat="35.7215337" lon="10.1091565"><ele>46.6</ele><time>2026-04-24T16:07:37.075Z</time></trkpt><trkpt lat="35.7214164" lon="10.1091237"><ele>47.0</ele><time>2026-04-24T16:07:38.079Z</time></trkpt><trkpt lat="35.7212968" lon="10.1090896"><ele>47.0</ele><time>2026-04-24T16:07:39.072Z</time></trkpt><trkpt lat="35.7211727" lon="10.1090596"><ele>47.0</ele><time>2026-04-24T16:07:40.079Z</time></trkpt><trkpt lat="35.7210464" lon="10.1090268"><ele>47.0</ele><time>2026-04-24T16:07:41.081Z</time></trkpt><trkpt lat="35.7209238" lon="10.1089923"><ele>47.0</ele><time>2026-04-24T16:07:42.078Z</time></trkpt><trkpt lat="35.7208" lon="10.1089604"><ele>47.25</ele><time>2026-04-24T16:07:43.08Z</time></trkpt><trkpt lat="35.7206755" lon="10.108929"><ele>47.5</ele><time>2026-04-24T16:07:44.08Z</time></trkpt><trkpt lat="35.7205481" lon="10.1088916"><ele>47.75</ele><time>2026-04-24T16:07:45.07Z</time></trkpt><trkpt lat="35.720423" lon="10.1088595"><ele>48.0</ele><time>2026-04-24T16:07:46.075Z</time></trkpt><trkpt lat="35.7202925" lon="10.1088272"><ele>47.5</ele><time>2026-04-24T16:07:47.079Z</time></trkpt><trkpt lat="35.7201672" lon="10.1087889"><ele>47.0</ele><time>2026-04-24T16:07:48.077Z</time></trkpt><trkpt lat="35.7200347" lon="10.1087547"><ele>46.5</ele><time>2026-04-24T16:07:49.08Z</time></trkpt><trkpt lat="35.7199011" lon="10.1087248"><ele>46.0</ele><time>2026-04-24T16:07:50.08Z</time></trkpt><trkpt lat="35.7197645" lon="10.1086887"><ele>46.0</ele><time>2026-04-24T16:07:51.081Z</time></trkpt><trkpt lat="35.7196222" lon="10.1086487"><ele>46.0</ele><time>2026-04-24T16:07:52.083Z</time></trkpt><trkpt lat="35.7194851" lon="10.1086132"><ele>46.0</ele><time>2026-04-24T16:07:53.068Z</time></trkpt><trkpt lat="35.7193524" lon="10.108579"><ele>46.0</ele><time>2026-04-24T16:07:54.082Z</time></trkpt><trkpt lat="35.7192084" lon="10.1085517"><ele>46.5</ele><time>2026-04-24T16:07:55.076Z</time></trkpt><trkpt lat="35.7190694" lon="10.1085221"><ele>47.0</ele><time>2026-04-24T16:07:56.08Z</time></trkpt><trkpt lat="35.7189276" lon="10.1084887"><ele>47.5</ele><time>2026-04-24T16:07:57.074Z</time></trkpt><trkpt lat="35.7187863" lon="10.1084596"><ele>48.0</ele><time>2026-04-24T16:07:58.08Z</time></trkpt><trkpt lat="35.7186478" lon="10.1084309"><ele>48.25</ele><time>2026-04-24T16:07:59.076Z</time></trkpt><trkpt lat="35.7185125" lon="10.1084048"><ele>48.5</ele><time>2026-04-24T16:08:00.08Z</time></trkpt><trkpt lat="35.718384" lon="10.1083803"><ele>48.75</ele><time>2026-04-24T16:08:01.081Z</time></trkpt><trkpt lat="35.7182551" lon="10.1083535"><ele>49.0</ele><time>2026-04-24T16:08:02.079Z</time></trkpt><trkpt lat="35.7181275" lon="10.1083262"><ele>49.0</ele><time>2026-04-24T16:08:03.075Z</time></trkpt><trkpt lat="35.7179876" lon="10.1082931"><ele>49.0</ele><time>2026-04-24T16:08:04.07Z</time></trkpt><trkpt lat="35.7178451" lon="10.1082616"><ele>49.0</ele><time>2026-04-24T16:08:05.082Z</time></trkpt><trkpt lat="35.7177013" lon="10.1082285"><ele>49.0</ele><time>2026-04-24T16:08:06.075Z</time></trkpt><trkpt lat="35.7175593" lon="10.1081941"><ele>50.0</ele><time>2026-04-24T16:08:07.077Z</time></trkpt><trkpt lat="35.7174179" lon="10.1081679"><ele>51.0</ele><time>2026-04-24T16:08:08.075Z</time></trkpt><trkpt lat="35.7172787" lon="10.1081374"><ele>52.0</ele><time>2026-04-24T16:08:09.078Z</time></trkpt><trkpt lat="35.7171403" lon="10.1081085"><ele>53.0</ele><time>2026-04-24T16:08:10.074Z</time></trkpt><trkpt lat="35.7170053" lon="10.108076"><ele>53.0</ele><time>2026-04-24T16:08:11.082Z</time></trkpt><trkpt lat="35.7168646" lon="10.1080457"><ele>53.0</ele><time>2026-04-24T16:08:12.088Z</time></trkpt><trkpt lat="35.7167215" lon="10.1080162"><ele>53.0</ele><time>2026-04-24T16:08:13.085Z</time></trkpt><trkpt lat="35.716584" lon="10.1079877"><ele>53.0</ele><time>2026-04-24T16:08:14.065Z</time></trkpt><trkpt lat="35.7164514" lon="10.1079594"><ele>53.0</ele><time>2026-04-24T16:08:15.067Z</time></trkpt><trkpt lat="35.7163165" lon="10.1079334"><ele>53.0</ele><time>2026-04-24T16:08:16.067Z</time></trkpt><trkpt lat="35.7161799" lon="10.1079024"><ele>53.0</ele><time>2026-04-24T16:08:17.063Z</time></trkpt><trkpt lat="35.7160399" lon="10.1078659"><ele>53.0</ele><time>2026-04-24T16:08:18.075Z</time></trkpt><trkpt lat="35.7158999" lon="10.1078294"><ele>53.75</ele><time>2026-04-24T16:08:19.069Z</time></trkpt><trkpt lat="35.7157604" lon="10.1078004"><ele>54.5</ele><time>2026-04-24T16:08:20.075Z</time></trkpt><trkpt lat="35.7156197" lon="10.1077652"><ele>55.25</ele><time>2026-04-24T16:08:21.08Z</time></trkpt><trkpt lat="35.7154781" lon="10.1077333"><ele>56.0</ele><time>2026-04-24T16:08:22.077Z</time></trkpt><trkpt lat="35.7153325" lon="10.1077007"><ele>55.333333333333336</ele><time>2026-04-24T16:08:23.106Z</time></trkpt><trkpt lat="35.715181" lon="10.1076691"><ele>54.66666666666667</ele><time>2026-04-24T16:08:24.078Z</time></trkpt><trkpt lat="35.7150318" lon="10.1076334"><ele>54.0</ele><time>2026-04-24T16:08:25.076Z</time></trkpt><trkpt lat="35.7148868" lon="10.1075997"><ele>54.0</ele><time>2026-04-24T16:08:26.076Z</time></trkpt><trkpt lat="35.714738" lon="10.1075608"><ele>54.0</ele><time>2026-04-24T16:08:27.075Z</time></trkpt><trkpt lat="35.7145886" lon="10.1075223"><ele>54.0</ele><time>2026-04-24T16:08:28.073Z</time></trkpt><trkpt lat="35.7144447" lon="10.1074772"><ele>53.75</ele><time>2026-04-24T16:08:29.075Z</time></trkpt><trkpt lat="35.7142992" lon="10.1074269"><ele>53.5</ele><time>2026-04-24T16:08:30.082Z</time></trkpt><trkpt lat="35.7141546" lon="10.107383"><ele>53.25</ele><time>2026-04-24T16:08:31.071Z</time></trkpt><trkpt lat="35.7140221" lon="10.1073446"><ele>53.0</ele><time>2026-04-24T16:08:32.071Z</time></trkpt><trkpt lat="35.7138876" lon="10.1073099"><ele>52.75</ele><time>2026-04-24T16:08:33.074Z</time></trkpt><trkpt lat="35.713755" lon="10.107276"><ele>52.5</ele><time>2026-04-24T16:08:34.065Z</time></trkpt><trkpt lat="35.7136282" lon="10.1072382"><ele>52.25</ele><time>2026-04-24T16:08:35.063Z</time></trkpt><trkpt lat="35.7135039" lon="10.1072057"><ele>52.0</ele><time>2026-04-24T16:08:36.079Z</time></trkpt><trkpt lat="35.7133884" lon="10.1071765"><ele>52.0</ele><time>2026-04-24T16:08:37.103Z</time></trkpt><trkpt lat="35.7132734" lon="10.1071516"><ele>52.0</ele><time>2026-04-24T16:08:38.074Z</time></trkpt><trkpt lat="35.7131616" lon="10.1071297"><ele>52.0</ele><time>2026-04-24T16:08:39.076Z</time></trkpt><trkpt lat="35.7130519" lon="10.1071169"><ele>52.0</ele><time>2026-04-24T16:08:40.072Z</time></trkpt><trkpt lat="35.7129499" lon="10.1071062"><ele>52.0</ele><time>2026-04-24T16:08:41.073Z</time></trkpt><trkpt lat="35.7128398" lon="10.1070942"><ele>51.8</ele><time>2026-04-24T16:08:42.071Z</time></trkpt><trkpt lat="35.7127292" lon="10.1070822"><ele>51.6</ele><time>2026-04-24T16:08:43.078Z</time></trkpt><trkpt lat="35.7126202" lon="10.1070765"><ele>51.4</ele><time>2026-04-24T16:08:44.078Z</time></trkpt><trkpt lat="35.7125068" lon="10.107077"><ele>51.199999999999996</ele><time>2026-04-24T16:08:45.07Z</time></trkpt><trkpt lat="35.7123912" lon="10.1070808"><ele>51.0</ele><time>2026-04-24T16:08:46.076Z</time></trkpt><trkpt lat="35.7122756" lon="10.1070812"><ele>51.0</ele><time>2026-04-24T16:08:47.079Z</time></trkpt><trkpt lat="35.7121576" lon="10.1070784"><ele>51.0</ele><time>2026-04-24T16:08:48.068Z</time></trkpt><trkpt lat="35.7120401" lon="10.107076"><ele>51.0</ele><time>2026-04-24T16:08:49.076Z</time></trkpt><trkpt lat="35.7119195" lon="10.1070707"><ele>51.0</ele><time>2026-04-24T16:08:50.08Z</time></trkpt><trkpt lat="35.7117995" lon="10.1070641"><ele>50.5</ele><time>2026-04-24T16:08:51.082Z</time></trkpt><trkpt lat="35.7116798" lon="10.1070616"><ele>50.0</ele><time>2026-04-24T16:08:52.076Z</time></trkpt><trkpt lat="35.7115549" lon="10.1070579"><ele>49.5</ele><time>2026-04-24T16:08:53.078Z</time></trkpt><trkpt lat="35.7114269" lon="10.1070541"><ele>49.0</ele><time>2026-04-24T16:08:54.078Z</time></trkpt><trkpt lat="35.7112929" lon="10.1070545"><ele>49.0</ele><time>2026-04-24T16:08:55.077Z</time></trkpt><trkpt lat="35.7111632" lon="10.1070545"><ele>49.0</ele><time>2026-04-24T16:08:56.079Z</time></trkpt><trkpt lat="35.7110303" lon="10.1070548"><ele>49.0</ele><time>2026-04-24T16:08:57.08Z</time></trkpt><trkpt lat="35.7108992" lon="10.1070512"><ele>49.0</ele><time>2026-04-24T16:08:58.076Z</time></trkpt><trkpt lat="35.7107628" lon="10.107048"><ele>48.5</ele><time>2026-04-24T16:08:59.08Z</time></trkpt><trkpt lat="35.710628" lon="10.1070487"><ele>48.0</ele><time>2026-04-24T16:09:00.078Z</time></trkpt><trkpt lat="35.7104911" lon="10.1070485"><ele>47.5</ele><time>2026-04-24T16:09:01.075Z</time></trkpt><trkpt lat="35.7103505" lon="10.1070472"><ele>47.0</ele><time>2026-04-24T16:09:02.076Z</time></trkpt><trkpt lat="35.7102086" lon="10.1070401"><ele>47.0</ele><time>2026-04-24T16:09:03.079Z</time></trkpt><trkpt lat="35.7100724" lon="10.1070352"><ele>47.0</ele><time>2026-04-24T16:09:04.079Z</time></trkpt><trkpt lat="35.709937" lon="10.1070339"><ele>47.0</ele><time>2026-04-24T16:09:05.087Z</time></trkpt><trkpt lat="35.7098014" lon="10.1070359"><ele>47.0</ele><time>2026-04-24T16:09:06.078Z</time></trkpt><trkpt lat="35.709656" lon="10.1070375"><ele>47.0</ele><time>2026-04-24T16:09:07.08Z</time></trkpt><trkpt lat="35.7095135" lon="10.1070385"><ele>47.0</ele><time>2026-04-24T16:09:08.075Z</time></trkpt><trkpt lat="35.7093662" lon="10.107027"><ele>47.0</ele><time>2026-04-24T16:09:09.083Z</time></trkpt><trkpt lat="35.7092218" lon="10.1070249"><ele>47.0</ele><time>2026-04-24T16:09:10.073Z</time></trkpt><trkpt lat="35.7090752" lon="10.1070219"><ele>47.666666666666664</ele><time>2026-04-24T16:09:11.071Z</time></trkpt><trkpt lat="35.7089258" lon="10.1070242"><ele>48.33333333333333</ele><time>2026-04-24T16:09:12.081Z</time></trkpt><trkpt lat="35.708776" lon="10.1070268"><ele>49.0</ele><time>2026-04-24T16:09:13.071Z</time></trkpt><trkpt lat="35.708622" lon="10.1070273"><ele>49.0</ele><time>2026-04-24T16:09:14.082Z</time></trkpt><trkpt lat="35.7084747" lon="10.1070252"><ele>49.0</ele><time>2026-04-24T16:09:15.082Z</time></trkpt><trkpt lat="35.7083255" lon="10.1070249"><ele>49.0</ele><time>2026-04-24T16:09:16.08Z</time></trkpt><trkpt lat="35.7081829" lon="10.107026"><ele>49.0</ele><time>2026-04-24T16:09:17.076Z</time></trkpt><trkpt lat="35.7080423" lon="10.1070231"><ele>49.0</ele><time>2026-04-24T16:09:18.079Z</time></trkpt><trkpt lat="35.7078973" lon="10.1070226"><ele>49.0</ele><time>2026-04-24T16:09:19.077Z</time></trkpt><trkpt lat="35.7077519" lon="10.107018"><ele>49.0</ele><time>2026-04-24T16:09:20.076Z</time></trkpt><trkpt lat="35.7076096" lon="10.1070159"><ele>49.0</ele><time>2026-04-24T16:09:21.072Z</time></trkpt><trkpt lat="35.7074708" lon="10.1070158"><ele>48.75</ele><time>2026-04-24T16:09:22.086Z</time></trkpt><trkpt lat="35.7073319" lon="10.1070145"><ele>48.5</ele><time>2026-04-24T16:09:23.079Z</time></trkpt><trkpt lat="35.7071938" lon="10.1070069"><ele>48.25</ele><time>2026-04-24T16:09:24.071Z</time></trkpt><trkpt lat="35.7070641" lon="10.1070006"><ele>48.0</ele><time>2026-04-24T16:09:25.083Z</time></trkpt><trkpt lat="35.7069309" lon="10.1069944"><ele>47.5</ele><time>2026-04-24T16:09:26.077Z</time></trkpt><trkpt lat="35.7068038" lon="10.10699"><ele>47.0</ele><time>2026-04-24T16:09:27.078Z</time></trkpt><trkpt lat="35.7066836" lon="10.10699"><ele>46.5</ele><time>2026-04-24T16:09:28.083Z</time></trkpt><trkpt lat="35.7065678" lon="10.10699"><ele>46.0</ele><time>2026-04-24T16:09:29.074Z</time></trkpt><trkpt lat="35.7064521" lon="10.1069719"><ele>46.0</ele><time>2026-04-24T16:09:30.082Z</time></trkpt><trkpt lat="35.7063378" lon="10.1069484"><ele>46.0</ele><time>2026-04-24T16:09:31.075Z</time></trkpt><trkpt lat="35.7062263" lon="10.1069188"><ele>46.0</ele><time>2026-04-24T16:09:32.081Z</time></trkpt><trkpt lat="35.7061163" lon="10.1068922"><ele>46.0</ele><time>2026-04-24T16:09:33.079Z</time></trkpt><trkpt lat="35.7060192" lon="10.1068591"><ele>46.0</ele><time>2026-04-24T16:09:34.075Z</time></trkpt><trkpt lat="35.7059319" lon="10.1068251"><ele>46.5</ele><time>2026-04-24T16:09:35.083Z</time></trkpt><trkpt lat="35.7058499" lon="10.1067872"><ele>47.0</ele><time>2026-04-24T16:09:36.082Z</time></trkpt><trkpt lat="35.7057751" lon="10.1067474"><ele>47.5</ele><time>2026-04-24T16:09:37.078Z</time></trkpt><trkpt lat="35.7057134" lon="10.1067165"><ele>48.0</ele><time>2026-04-24T16:09:38.075Z</time></trkpt><trkpt lat="35.7056393" lon="10.1066489"><ele>48.49999999999999</ele><time>2026-04-24T16:09:40.079Z</time></trkpt><trkpt lat="35.7055702" lon="10.1066251"><ele>49.0</ele><time>2026-04-24T16:11:12.081Z</time></trkpt><trkpt lat="35.7054896" lon="10.1065858"><ele>49.2</ele><time>2026-04-24T16:11:14.086Z</time></trkpt><trkpt lat="35.7053953" lon="10.1065517"><ele>49.400000000000006</ele><time>2026-04-24T16:11:16.089Z</time></trkpt><trkpt lat="35.7053143" lon="10.1065227"><ele>49.6</ele><time>2026-04-24T16:11:18.08Z</time></trkpt><trkpt lat="35.7052159" lon="10.1064854"><ele>49.8</ele><time>2026-04-24T16:11:20.103Z</time></trkpt><trkpt lat="35.7051285" lon="10.1064469"><ele>50.0</ele><time>2026-04-24T16:11:22.084Z</time></trkpt><trkpt lat="35.7050106" lon="10.1064035"><ele>49.6</ele><time>2026-04-24T16:11:24.084Z</time></trkpt><trkpt lat="35.7048935" lon="10.1063866"><ele>49.2</ele><time>2026-04-24T16:11:26.086Z</time></trkpt><trkpt lat="35.7047692" lon="10.1064127"><ele>48.8</ele><time>2026-04-24T16:11:28.083Z</time></trkpt><trkpt lat="35.7047055" lon="10.1064423"><ele>48.4</ele><time>2026-04-24T16:11:29.071Z</time></trkpt><trkpt lat="35.7046477" lon="10.1064907"><ele>48.0</ele><time>2026-04-24T16:11:30.08Z</time></trkpt><trkpt lat="35.7045916" lon="10.1065438"><ele>48.166666666666664</ele><time>2026-04-24T16:11:31.081Z</time></trkpt><trkpt lat="35.7045325" lon="10.1065906"><ele>48.33333333333333</ele><time>2026-04-24T16:11:32.081Z</time></trkpt><trkpt lat="35.7044666" lon="10.1066308"><ele>48.5</ele><time>2026-04-24T16:11:33.072Z</time></trkpt><trkpt lat="35.7044021" lon="10.1066719"><ele>48.666666666666664</ele><time>2026-04-24T16:11:34.078Z</time></trkpt><trkpt lat="35.7043249" lon="10.1067092"><ele>48.83333333333333</ele><time>2026-04-24T16:11:35.08Z</time></trkpt><trkpt lat="35.7042465" lon="10.1067501"><ele>49.0</ele><time>2026-04-24T16:11:36.101Z</time></trkpt><trkpt lat="35.7041591" lon="10.106792"><ele>49.400000000000006</ele><time>2026-04-24T16:11:37.119Z</time></trkpt><trkpt lat="35.7040672" lon="10.106818"><ele>49.8</ele><time>2026-04-24T16:11:38.109Z</time></trkpt><trkpt lat="35.7039754" lon="10.1068361"><ele>50.2</ele><time>2026-04-24T16:11:39.101Z</time></trkpt><trkpt lat="35.7038799" lon="10.106841"><ele>50.599999999999994</ele><time>2026-04-24T16:11:40.137Z</time></trkpt><trkpt lat="35.7037832" lon="10.1068335"><ele>51.0</ele><time>2026-04-24T16:11:41.06Z</time></trkpt><trkpt lat="35.7036875" lon="10.1068216"><ele>51.0</ele><time>2026-04-24T16:11:42.099Z</time></trkpt><trkpt lat="35.7035941" lon="10.1068092"><ele>51.0</ele><time>2026-04-24T16:11:43.109Z</time></trkpt><trkpt lat="35.7034887" lon="10.1067869"><ele>51.0</ele><time>2026-04-24T16:11:44.062Z</time></trkpt><trkpt lat="35.7033827" lon="10.1067553"><ele>51.0</ele><time>2026-04-24T16:11:45.064Z</time></trkpt><trkpt lat="35.7032777" lon="10.1067332"><ele>51.0</ele><time>2026-04-24T16:11:46.063Z</time></trkpt><trkpt lat="35.7031781" lon="10.106711"><ele>50.0</ele><time>2026-04-24T16:11:47.117Z</time></trkpt><trkpt lat="35.7030687" lon="10.1066823"><ele>49.0</ele><time>2026-04-24T16:11:48.097Z</time></trkpt><trkpt lat="35.7029611" lon="10.1066517"><ele>48.0</ele><time>2026-04-24T16:11:49.073Z</time></trkpt><trkpt lat="35.7028516" lon="10.1066152"><ele>47.0</ele><time>2026-04-24T16:11:50.096Z</time></trkpt><trkpt lat="35.7027405" lon="10.1065807"><ele>46.8</ele><time>2026-04-24T16:11:51.083Z</time></trkpt><trkpt lat="35.7026418" lon="10.1065435"><ele>46.6</ele><time>2026-04-24T16:11:52.076Z</time></trkpt><trkpt lat="35.7025431" lon="10.106512"><ele>46.4</ele><time>2026-04-24T16:11:53.064Z</time></trkpt><trkpt lat="35.7024427" lon="10.1064776"><ele>46.199999999999996</ele><time>2026-04-24T16:11:54.101Z</time></trkpt><trkpt lat="35.702346" lon="10.1064404"><ele>46.0</ele><time>2026-04-24T16:11:55.148Z</time></trkpt><trkpt lat="35.7022442" lon="10.1064014"><ele>46.0</ele><time>2026-04-24T16:11:56.063Z</time></trkpt><trkpt lat="35.7021479" lon="10.1063539"><ele>46.0</ele><time>2026-04-24T16:11:57.064Z</time></trkpt><trkpt lat="35.7020476" lon="10.1063145"><ele>46.0</ele><time>2026-04-24T16:11:58.127Z</time></trkpt><trkpt lat="35.7019463" lon="10.106285"><ele>46.0</ele><time>2026-04-24T16:11:59.067Z</time></trkpt><trkpt lat="35.7018425" lon="10.1062521"><ele>46.0</ele><time>2026-04-24T16:12:00.085Z</time></trkpt><trkpt lat="35.7017479" lon="10.1062233"><ele>46.599999999999994</ele><time>2026-04-24T16:12:01.064Z</time></trkpt><trkpt lat="35.7016441" lon="10.1061883"><ele>47.2</ele><time>2026-04-24T16:12:02.065Z</time></trkpt><trkpt lat="35.7015406" lon="10.1061584"><ele>47.8</ele><time>2026-04-24T16:12:03.062Z</time></trkpt><trkpt lat="35.7014386" lon="10.1061267"><ele>48.400000000000006</ele><time>2026-04-24T16:12:04.067Z</time></trkpt><trkpt lat="35.7013329" lon="10.1060911"><ele>49.0</ele><time>2026-04-24T16:12:05.073Z</time></trkpt><trkpt lat="35.7012266" lon="10.1060596"><ele>49.0</ele><time>2026-04-24T16:12:06.148Z</time></trkpt><trkpt lat="35.701123" lon="10.1060226"><ele>49.0</ele><time>2026-04-24T16:12:07.065Z</time></trkpt><trkpt lat="35.7010196" lon="10.1059844"><ele>49.0</ele><time>2026-04-24T16:12:08.076Z</time></trkpt><trkpt lat="35.700914" lon="10.1059544"><ele>49.0</ele><time>2026-04-24T16:12:09.081Z</time></trkpt><trkpt lat="35.7008107" lon="10.1059208"><ele>49.0</ele><time>2026-04-24T16:12:10.078Z</time></trkpt><trkpt lat="35.7007132" lon="10.1058873"><ele>49.166666666666664</ele><time>2026-04-24T16:12:11.079Z</time></trkpt><trkpt lat="35.7006246" lon="10.1058541"><ele>49.33333333333333</ele><time>2026-04-24T16:12:12.073Z</time></trkpt><trkpt lat="35.7005396" lon="10.1058166"><ele>49.5</ele><time>2026-04-24T16:12:13.075Z</time></trkpt><trkpt lat="35.7004563" lon="10.1057841"><ele>49.66666666666667</ele><time>2026-04-24T16:12:14.086Z</time></trkpt><trkpt lat="35.7003837" lon="10.1057553"><ele>49.833333333333336</ele><time>2026-04-24T16:12:15.082Z</time></trkpt><trkpt lat="35.7003098" lon="10.1057222"><ele>50.0</ele><time>2026-04-24T16:12:16.079Z</time></trkpt><trkpt lat="35.7002299" lon="10.1056926"><ele>50.4</ele><time>2026-04-24T16:12:17.079Z</time></trkpt><trkpt lat="35.7001413" lon="10.1056725"><ele>50.8</ele><time>2026-04-24T16:12:18.072Z</time></trkpt><trkpt lat="35.7000543" lon="10.1056514"><ele>51.2</ele><time>2026-04-24T16:12:19.083Z</time></trkpt><trkpt lat="35.6999664" lon="10.1056276"><ele>51.6</ele><time>2026-04-24T16:12:20.072Z</time></trkpt><trkpt lat="35.6998753" lon="10.1055941"><ele>52.0</ele><time>2026-04-24T16:12:21.081Z</time></trkpt><trkpt lat="35.6997777" lon="10.105561"><ele>52.0</ele><time>2026-04-24T16:12:22.079Z</time></trkpt><trkpt lat="35.6996822" lon="10.1055297"><ele>52.0</ele><time>2026-04-24T16:12:23.075Z</time></trkpt><trkpt lat="35.6995948" lon="10.1054955"><ele>52.0</ele><time>2026-04-24T16:12:24.072Z</time></trkpt><trkpt lat="35.6995067" lon="10.1054718"><ele>52.0</ele><time>2026-04-24T16:12:25.075Z</time></trkpt><trkpt lat="35.6993375" lon="10.1054094"><ele>52.2</ele><time>2026-04-24T16:12:27.079Z</time></trkpt><trkpt lat="35.6992552" lon="10.1053746"><ele>52.400000000000006</ele><time>2026-04-24T16:12:28.077Z</time></trkpt><trkpt lat="35.6991691" lon="10.1053465"><ele>52.599999999999994</ele><time>2026-04-24T16:12:29.071Z</time></trkpt><trkpt lat="35.6990785" lon="10.1053161"><ele>52.8</ele><time>2026-04-24T16:12:30.07Z</time></trkpt><trkpt lat="35.6989906" lon="10.1052909"><ele>53.0</ele><time>2026-04-24T16:12:31.079Z</time></trkpt><trkpt lat="35.6989033" lon="10.1052614"><ele>53.00000000000001</ele><time>2026-04-24T16:12:32.072Z</time></trkpt><trkpt lat="35.6988182" lon="10.1052383"><ele>53.0</ele><time>2026-04-24T16:12:33.071Z</time></trkpt><trkpt lat="35.6987288" lon="10.1052137"><ele>53.0</ele><time>2026-04-24T16:12:34.082Z</time></trkpt><trkpt lat="35.6986432" lon="10.105178"><ele>53.0</ele><time>2026-04-24T16:12:35.077Z</time></trkpt><trkpt lat="35.6985576" lon="10.1051447"><ele>53.00000000000001</ele><time>2026-04-24T16:12:36.102Z</time></trkpt><trkpt lat="35.6984742" lon="10.1051127"><ele>53.0</ele><time>2026-04-24T16:12:37.096Z</time></trkpt><trkpt lat="35.6983894" lon="10.105086"><ele>52.4</ele><time>2026-04-24T16:12:38.063Z</time></trkpt><trkpt lat="35.6983027" lon="10.1050602"><ele>51.8</ele><time>2026-04-24T16:12:39.111Z</time></trkpt><trkpt lat="35.698217" lon="10.105028"><ele>51.2</ele><time>2026-04-24T16:12:40.064Z</time></trkpt><trkpt lat="35.6981281" lon="10.1049944"><ele>50.6</ele><time>2026-04-24T16:12:41.074Z</time></trkpt><trkpt lat="35.6980343" lon="10.1049578"><ele>50.0</ele><time>2026-04-24T16:12:42.072Z</time></trkpt><trkpt lat="35.6979412" lon="10.1049154"><ele>50.2</ele><time>2026-04-24T16:12:43.072Z</time></trkpt><trkpt lat="35.697845" lon="10.1048827"><ele>50.4</ele><time>2026-04-24T16:12:44.072Z</time></trkpt><trkpt lat="35.6977552" lon="10.1048468"><ele>50.599999999999994</ele><time>2026-04-24T16:12:45.069Z</time></trkpt><trkpt lat="35.6976618" lon="10.1048145"><ele>50.8</ele><time>2026-04-24T16:12:46.073Z</time></trkpt><trkpt lat="35.6975714" lon="10.1047849"><ele>51.0</ele><time>2026-04-24T16:12:47.083Z</time></trkpt><trkpt lat="35.6974724" lon="10.1047527"><ele>50.599999999999994</ele><time>2026-04-24T16:12:48.098Z</time></trkpt><trkpt lat="35.6973794" lon="10.1047232"><ele>50.2</ele><time>2026-04-24T16:12:49.096Z</time></trkpt><trkpt lat="35.697282" lon="10.1046854"><ele>49.8</ele><time>2026-04-24T16:12:50.084Z</time></trkpt><trkpt lat="35.6971847" lon="10.1046521"><ele>49.400000000000006</ele><time>2026-04-24T16:12:51.089Z</time></trkpt><trkpt lat="35.6970958" lon="10.1046296"><ele>49.0</ele><time>2026-04-24T16:12:52.075Z</time></trkpt><trkpt lat="35.6970069" lon="10.1046007"><ele>48.99999999999999</ele><time>2026-04-24T16:12:53.079Z</time></trkpt><trkpt lat="35.6969234" lon="10.1045745"><ele>49.0</ele><time>2026-04-24T16:12:54.074Z</time></trkpt><trkpt lat="35.6968505" lon="10.104543"><ele>49.0</ele><time>2026-04-24T16:12:55.082Z</time></trkpt><trkpt lat="35.6967836" lon="10.1045068"><ele>49.0</ele><time>2026-04-24T16:12:56.084Z</time></trkpt><trkpt lat="35.6967217" lon="10.1044704"><ele>48.99999999999999</ele><time>2026-04-24T16:12:57.082Z</time></trkpt><trkpt lat="35.6966498" lon="10.1044372"><ele>49.0</ele><time>2026-04-24T16:12:58.074Z</time></trkpt><trkpt lat="35.6965687" lon="10.1044145"><ele>49.285714285714285</ele><time>2026-04-24T16:12:59.097Z</time></trkpt><trkpt lat="35.6964935" lon="10.1043974"><ele>49.57142857142857</ele><time>2026-04-24T16:13:00.069Z</time></trkpt><trkpt lat="35.696424" lon="10.1043815"><ele>49.85714285714286</ele><time>2026-04-24T16:13:01.083Z</time></trkpt><trkpt lat="35.6963501" lon="10.1043605"><ele>50.14285714285714</ele><time>2026-04-24T16:13:02.075Z</time></trkpt><trkpt lat="35.6962828" lon="10.1043465"><ele>50.42857142857143</ele><time>2026-04-24T16:13:03.081Z</time></trkpt><trkpt lat="35.6962114" lon="10.1043238"><ele>50.714285714285715</ele><time>2026-04-24T16:13:04.081Z</time></trkpt><trkpt lat="35.6961487" lon="10.1043061"><ele>51.0</ele><time>2026-04-24T16:13:05.074Z</time></trkpt><trkpt lat="35.6960336" lon="10.1042838"><ele>51.142857142857146</ele><time>2026-04-24T16:13:07.076Z</time></trkpt><trkpt lat="35.6959677" lon="10.1042664"><ele>51.28571428571429</ele><time>2026-04-24T16:13:08.07Z</time></trkpt><trkpt lat="35.6958905" lon="10.10424"><ele>51.42857142857143</ele><time>2026-04-24T16:13:09.075Z</time></trkpt><trkpt lat="35.6958167" lon="10.1042125"><ele>51.57142857142857</ele><time>2026-04-24T16:13:10.075Z</time></trkpt><trkpt lat="35.69575" lon="10.1041946"><ele>51.714285714285715</ele><time>2026-04-24T16:13:11.071Z</time></trkpt><trkpt lat="35.6956794" lon="10.1041751"><ele>51.857142857142854</ele><time>2026-04-24T16:13:12.076Z</time></trkpt><trkpt lat="35.6956064" lon="10.1041534"><ele>52.0</ele><time>2026-04-24T16:13:13.077Z</time></trkpt><trkpt lat="35.6955369" lon="10.1041299"><ele>52.0</ele><time>2026-04-24T16:13:14.073Z</time></trkpt><trkpt lat="35.6954673" lon="10.1041048"><ele>52.0</ele><time>2026-04-24T16:13:15.073Z</time></trkpt><trkpt lat="35.6954003" lon="10.1040813"><ele>52.0</ele><time>2026-04-24T16:13:16.079Z</time></trkpt><trkpt lat="35.6953313" lon="10.1040564"><ele>52.0</ele><time>2026-04-24T16:13:17.077Z</time></trkpt><trkpt lat="35.6952575" lon="10.104028"><ele>52.0</ele><time>2026-04-24T16:13:18.076Z</time></trkpt><trkpt lat="35.6951839" lon="10.1040033"><ele>52.0</ele><time>2026-04-24T16:13:19.092Z</time></trkpt><trkpt lat="35.6951101" lon="10.1039819"><ele>52.0</ele><time>2026-04-24T16:13:20.086Z</time></trkpt><trkpt lat="35.6950359" lon="10.1039674"><ele>52.0</ele><time>2026-04-24T16:13:21.078Z</time></trkpt><trkpt lat="35.6949708" lon="10.1039442"><ele>52.0</ele><time>2026-04-24T16:13:22.073Z</time></trkpt><trkpt lat="35.6949062" lon="10.1039205"><ele>52.0</ele><time>2026-04-24T16:13:23.078Z</time></trkpt><trkpt lat="35.6948349" lon="10.1038965"><ele>52.0</ele><time>2026-04-24T16:13:24.08Z</time></trkpt><trkpt lat="35.6947709" lon="10.103877"><ele>52.0</ele><time>2026-04-24T16:13:25.077Z</time></trkpt><trkpt lat="35.6946999" lon="10.1038508"><ele>52.0</ele><time>2026-04-24T16:13:26.089Z</time></trkpt><trkpt lat="35.6946317" lon="10.103826"><ele>52.0</ele><time>2026-04-24T16:13:27.078Z</time></trkpt><trkpt lat="35.6945572" lon="10.1037956"><ele>51.99999999999999</ele><time>2026-04-24T16:13:28.075Z</time></trkpt><trkpt lat="35.6944845" lon="10.1037597"><ele>52.0</ele><time>2026-04-24T16:13:29.077Z</time></trkpt><trkpt lat="35.6944174" lon="10.1037276"><ele>52.0</ele><time>2026-04-24T16:13:30.076Z</time></trkpt><trkpt lat="35.6943387" lon="10.1036901"><ele>52.0</ele><time>2026-04-24T16:13:31.078Z</time></trkpt><trkpt lat="35.6942547" lon="10.1036593"><ele>51.99999999999999</ele><time>2026-04-24T16:13:32.076Z</time></trkpt><trkpt lat="35.6941753" lon="10.1036291"><ele>52.0</ele><time>2026-04-24T16:13:33.096Z</time></trkpt><trkpt lat="35.6940876" lon="10.1035984"><ele>52.2</ele><time>2026-04-24T16:13:34.064Z</time></trkpt><trkpt lat="35.6939989" lon="10.103569"><ele>52.400000000000006</ele><time>2026-04-24T16:13:35.094Z</time></trkpt><trkpt lat="35.6939069" lon="10.1035477"><ele>52.599999999999994</ele><time>2026-04-24T16:13:36.064Z</time></trkpt><trkpt lat="35.6938167" lon="10.1035183"><ele>52.8</ele><time>2026-04-24T16:13:37.067Z</time></trkpt><trkpt lat="35.6937295" lon="10.1034924"><ele>53.0</ele><time>2026-04-24T16:13:38.078Z</time></trkpt><trkpt lat="35.6936447" lon="10.1034618"><ele>52.50000000000001</ele><time>2026-04-24T16:13:39.075Z</time></trkpt><trkpt lat="35.6935608" lon="10.103437"><ele>52.0</ele><time>2026-04-24T16:13:40.072Z</time></trkpt><trkpt lat="35.6934792" lon="10.1034074"><ele>51.5</ele><time>2026-04-24T16:13:41.086Z</time></trkpt><trkpt lat="35.6933994" lon="10.1033798"><ele>51.0</ele><time>2026-04-24T16:13:42.075Z</time></trkpt><trkpt lat="35.6933226" lon="10.1033489"><ele>50.50000000000001</ele><time>2026-04-24T16:13:43.079Z</time></trkpt><trkpt lat="35.6932489" lon="10.1033199"><ele>50.0</ele><time>2026-04-24T16:13:44.064Z</time></trkpt><trkpt lat="35.6931754" lon="10.10329"><ele>50.00000000000001</ele><time>2026-04-24T16:13:45.089Z</time></trkpt><trkpt lat="35.6931011" lon="10.1032629"><ele>50.0</ele><time>2026-04-24T16:13:46.079Z</time></trkpt><trkpt lat="35.6930245" lon="10.1032343"><ele>50.0</ele><time>2026-04-24T16:13:47.082Z</time></trkpt><trkpt lat="35.6929484" lon="10.103212"><ele>50.0</ele><time>2026-04-24T16:13:48.082Z</time></trkpt><trkpt lat="35.6928694" lon="10.1031884"><ele>50.00000000000001</ele><time>2026-04-24T16:13:49.074Z</time></trkpt><trkpt lat="35.692804" lon="10.1031691"><ele>50.0</ele><time>2026-04-24T16:13:50.076Z</time></trkpt><trkpt lat="35.6926948" lon="10.1031336"><ele>50.2</ele><time>2026-04-24T16:13:52.073Z</time></trkpt><trkpt lat="35.6925919" lon="10.1030991"><ele>50.4</ele><time>2026-04-24T16:13:54.076Z</time></trkpt><trkpt lat="35.6924828" lon="10.1030441"><ele>50.599999999999994</ele><time>2026-04-24T16:13:56.085Z</time></trkpt><trkpt lat="35.6923652" lon="10.1029863"><ele>50.8</ele><time>2026-04-24T16:13:58.069Z</time></trkpt><trkpt lat="35.6922994" lon="10.1029521"><ele>51.0</ele><time>2026-04-24T16:13:59.082Z</time></trkpt><trkpt lat="35.6922339" lon="10.1029184"><ele>51.0</ele><time>2026-04-24T16:14:00.073Z</time></trkpt><trkpt lat="35.6921639" lon="10.1028759"><ele>51.0</ele><time>2026-04-24T16:14:01.08Z</time></trkpt><trkpt lat="35.6920891" lon="10.1028361"><ele>51.0</ele><time>2026-04-24T16:14:02.085Z</time></trkpt><trkpt lat="35.6920125" lon="10.1028009"><ele>51.0</ele><time>2026-04-24T16:14:03.074Z</time></trkpt><trkpt lat="35.6919373" lon="10.1027587"><ele>51.0</ele><time>2026-04-24T16:14:04.083Z</time></trkpt><trkpt lat="35.6918601" lon="10.1027181"><ele>51.0</ele><time>2026-04-24T16:14:05.088Z</time></trkpt><trkpt lat="35.6917831" lon="10.1026705"><ele>51.0</ele><time>2026-04-24T16:14:06.084Z</time></trkpt><trkpt lat="35.6917073" lon="10.1026337"><ele>51.0</ele><time>2026-04-24T16:14:07.082Z</time></trkpt><trkpt lat="35.6916353" lon="10.1025978"><ele>51.0</ele><time>2026-04-24T16:14:08.087Z</time></trkpt><trkpt lat="35.6915541" lon="10.1025569"><ele>51.0</ele><time>2026-04-24T16:14:09.08Z</time></trkpt><trkpt lat="35.6914745" lon="10.1025113"><ele>51.0</ele><time>2026-04-24T16:14:10.084Z</time></trkpt><trkpt lat="35.6913971" lon="10.1024652"><ele>51.0</ele><time>2026-04-24T16:14:11.085Z</time></trkpt><trkpt lat="35.6913117" lon="10.1024142"><ele>51.199999999999996</ele><time>2026-04-24T16:14:12.081Z</time></trkpt><trkpt lat="35.6912256" lon="10.1023678"><ele>51.4</ele><time>2026-04-24T16:14:13.079Z</time></trkpt><trkpt lat="35.6911389" lon="10.1023238"><ele>51.6</ele><time>2026-04-24T16:14:14.076Z</time></trkpt><trkpt lat="35.6910545" lon="10.1022814"><ele>51.8</ele><time>2026-04-24T16:14:15.074Z</time></trkpt><trkpt lat="35.6909641" lon="10.1022361"><ele>52.0</ele><time>2026-04-24T16:14:16.085Z</time></trkpt><trkpt lat="35.6908797" lon="10.1021931"><ele>52.33333333333333</ele><time>2026-04-24T16:14:17.103Z</time></trkpt><trkpt lat="35.6907927" lon="10.1021465"><ele>52.666666666666664</ele><time>2026-04-24T16:14:18.072Z</time></trkpt><trkpt lat="35.6907101" lon="10.1021041"><ele>53.0</ele><time>2026-04-24T16:14:19.079Z</time></trkpt><trkpt lat="35.69063" lon="10.1020605"><ele>53.33333333333333</ele><time>2026-04-24T16:14:20.07Z</time></trkpt><trkpt lat="35.6905569" lon="10.1020186"><ele>53.666666666666664</ele><time>2026-04-24T16:14:21.082Z</time></trkpt><trkpt lat="35.6904875" lon="10.1019805"><ele>54.0</ele><time>2026-04-24T16:14:22.091Z</time></trkpt><trkpt lat="35.6904167" lon="10.1019446"><ele>54.0</ele><time>2026-04-24T16:14:23.069Z</time></trkpt><trkpt lat="35.6903488" lon="10.1019103"><ele>54.0</ele><time>2026-04-24T16:14:24.086Z</time></trkpt><trkpt lat="35.6902753" lon="10.101872"><ele>54.0</ele><time>2026-04-24T16:14:25.085Z</time></trkpt><trkpt lat="35.6902019" lon="10.1018355"><ele>54.0</ele><time>2026-04-24T16:14:26.082Z</time></trkpt><trkpt lat="35.6901212" lon="10.1017953"><ele>54.0</ele><time>2026-04-24T16:14:27.081Z</time></trkpt><trkpt lat="35.6900438" lon="10.1017565"><ele>54.0</ele><time>2026-04-24T16:14:28.08Z</time></trkpt><trkpt lat="35.6899665" lon="10.101712"><ele>53.800000000000004</ele><time>2026-04-24T16:14:29.084Z</time></trkpt><trkpt lat="35.6898868" lon="10.1016668"><ele>53.60000000000001</ele><time>2026-04-24T16:14:30.068Z</time></trkpt><trkpt lat="35.689804" lon="10.1016192"><ele>53.4</ele><time>2026-04-24T16:14:31.075Z</time></trkpt><trkpt lat="35.6897227" lon="10.1015655"><ele>53.2</ele><time>2026-04-24T16:14:32.082Z</time></trkpt><trkpt lat="35.6896391" lon="10.1015117"><ele>53.0</ele><time>2026-04-24T16:14:33.077Z</time></trkpt><trkpt lat="35.6895532" lon="10.1014576"><ele>53.0</ele><time>2026-04-24T16:14:34.07Z</time></trkpt><trkpt lat="35.6894672" lon="10.1014032"><ele>53.0</ele><time>2026-04-24T16:14:35.084Z</time></trkpt><trkpt lat="35.689379" lon="10.1013491"><ele>53.0</ele><time>2026-04-24T16:14:36.07Z</time></trkpt><trkpt lat="35.6892888" lon="10.1012993"><ele>53.0</ele><time>2026-04-24T16:14:37.061Z</time></trkpt><trkpt lat="35.6892058" lon="10.1012519"><ele>53.0</ele><time>2026-04-24T16:14:38.064Z</time></trkpt><trkpt lat="35.6891127" lon="10.1011994"><ele>53.0</ele><time>2026-04-24T16:14:39.109Z</time></trkpt><trkpt lat="35.6890285" lon="10.1011547"><ele>53.0</ele><time>2026-04-24T16:14:40.069Z</time></trkpt><trkpt lat="35.6889458" lon="10.1011123"><ele>53.0</ele><time>2026-04-24T16:14:41.077Z</time></trkpt><trkpt lat="35.6888586" lon="10.1010634"><ele>53.0</ele><time>2026-04-24T16:14:42.081Z</time></trkpt><trkpt lat="35.6887714" lon="10.1010166"><ele>53.0</ele><time>2026-04-24T16:14:43.084Z</time></trkpt><trkpt lat="35.6886895" lon="10.1009685"><ele>53.00000000000001</ele><time>2026-04-24T16:14:44.072Z</time></trkpt><trkpt lat="35.6886092" lon="10.1009267"><ele>53.0</ele><time>2026-04-24T16:14:45.077Z</time></trkpt><trkpt lat="35.6885273" lon="10.1008799"><ele>53.0</ele><time>2026-04-24T16:14:46.069Z</time></trkpt><trkpt lat="35.6884547" lon="10.1008387"><ele>53.0</ele><time>2026-04-24T16:14:47.074Z</time></trkpt><trkpt lat="35.6883831" lon="10.1007963"><ele>53.00000000000001</ele><time>2026-04-24T16:14:48.08Z</time></trkpt><trkpt lat="35.6883164" lon="10.1007651"><ele>53.0</ele><time>2026-04-24T16:14:49.08Z</time></trkpt><trkpt lat="35.6882571" lon="10.1007272"><ele>52.8</ele><time>2026-04-24T16:14:50.075Z</time></trkpt><trkpt lat="35.6881546" lon="10.1006646"><ele>52.599999999999994</ele><time>2026-04-24T16:14:52.083Z</time></trkpt><trkpt lat="35.6880765" lon="10.1006256"><ele>52.400000000000006</ele><time>2026-04-24T16:14:54.084Z</time></trkpt><trkpt lat="35.6880135" lon="10.1005724"><ele>52.2</ele><time>2026-04-24T16:14:56.078Z</time></trkpt><trkpt lat="35.6879484" lon="10.100508"><ele>52.0</ele><time>2026-04-24T16:14:58.083Z</time></trkpt><trkpt lat="35.6878556" lon="10.1004303"><ele>51.8</ele><time>2026-04-24T16:15:00.079Z</time></trkpt><trkpt lat="35.6877551" lon="10.1003618"><ele>51.6</ele><time>2026-04-24T16:15:02.078Z</time></trkpt><trkpt lat="35.6876371" lon="10.1002994"><ele>51.4</ele><time>2026-04-24T16:15:04.082Z</time></trkpt><trkpt lat="35.6875762" lon="10.1002678"><ele>51.199999999999996</ele><time>2026-04-24T16:15:05.082Z</time></trkpt><trkpt lat="35.6875082" lon="10.1002369"><ele>51.0</ele><time>2026-04-24T16:15:06.087Z</time></trkpt><trkpt lat="35.6874358" lon="10.1002002"><ele>51.0</ele><time>2026-04-24T16:15:07.076Z</time></trkpt><trkpt lat="35.687367" lon="10.1001599"><ele>51.0</ele><time>2026-04-24T16:15:08.083Z</time></trkpt><trkpt lat="35.6872975" lon="10.1001129"><ele>51.0</ele><time>2026-04-24T16:15:09.08Z</time></trkpt><trkpt lat="35.6872295" lon="10.1000616"><ele>51.0</ele><time>2026-04-24T16:15:10.082Z</time></trkpt><trkpt lat="35.6871698" lon="10.0999897"><ele>51.0</ele><time>2026-04-24T16:15:11.09Z</time></trkpt><trkpt lat="35.6871131" lon="10.0999021"><ele>51.0</ele><time>2026-04-24T16:15:12.08Z</time></trkpt><trkpt lat="35.6870636" lon="10.0998072"><ele>51.4</ele><time>2026-04-24T16:15:13.083Z</time></trkpt><trkpt lat="35.6870161" lon="10.0997078"><ele>51.8</ele><time>2026-04-24T16:15:14.081Z</time></trkpt><trkpt lat="35.6869714" lon="10.0996011"><ele>52.199999999999996</ele><time>2026-04-24T16:15:15.086Z</time></trkpt><trkpt lat="35.6869348" lon="10.0994844"><ele>52.599999999999994</ele><time>2026-04-24T16:15:16.082Z</time></trkpt><trkpt lat="35.6868999" lon="10.0993579"><ele>53.0</ele><time>2026-04-24T16:15:17.076Z</time></trkpt><trkpt lat="35.6868653" lon="10.0992269"><ele>53.0</ele><time>2026-04-24T16:15:18.068Z</time></trkpt><trkpt lat="35.6868373" lon="10.0990991"><ele>53.0</ele><time>2026-04-24T16:15:19.082Z</time></trkpt><trkpt lat="35.686799" lon="10.0989696"><ele>53.0</ele><time>2026-04-24T16:15:20.08Z</time></trkpt><trkpt lat="35.6867701" lon="10.0988402"><ele>53.0</ele><time>2026-04-24T16:15:21.076Z</time></trkpt><trkpt lat="35.6867423" lon="10.0987149"><ele>53.0</ele><time>2026-04-24T16:15:22.079Z</time></trkpt><trkpt lat="35.6867015" lon="10.0985715"><ele>52.8</ele><time>2026-04-24T16:15:23.073Z</time></trkpt><trkpt lat="35.6866642" lon="10.0984404"><ele>52.599999999999994</ele><time>2026-04-24T16:15:24.083Z</time></trkpt><trkpt lat="35.686627" lon="10.0983005"><ele>52.400000000000006</ele><time>2026-04-24T16:15:25.084Z</time></trkpt><trkpt lat="35.6865925" lon="10.0981755"><ele>52.2</ele><time>2026-04-24T16:15:26.08Z</time></trkpt><trkpt lat="35.686561" lon="10.0980515"><ele>52.0</ele><time>2026-04-24T16:15:27.079Z</time></trkpt><trkpt lat="35.6865345" lon="10.0979307"><ele>52.8</ele><time>2026-04-24T16:15:28.124Z</time></trkpt><trkpt lat="35.686512" lon="10.0978217"><ele>53.6</ele><time>2026-04-24T16:15:29.076Z</time></trkpt><trkpt lat="35.6864881" lon="10.0977056"><ele>54.39999999999999</ele><time>2026-04-24T16:15:30.083Z</time></trkpt><trkpt lat="35.6864591" lon="10.097587"><ele>55.199999999999996</ele><time>2026-04-24T16:15:31.08Z</time></trkpt><trkpt lat="35.6864361" lon="10.0974728"><ele>56.0</ele><time>2026-04-24T16:15:32.071Z</time></trkpt><trkpt lat="35.6864172" lon="10.0973725"><ele>56.0</ele><time>2026-04-24T16:15:33.082Z</time></trkpt><trkpt lat="35.6863839" lon="10.0972758"><ele>56.0</ele><time>2026-04-24T16:15:34.073Z</time></trkpt><trkpt lat="35.6863572" lon="10.0971869"><ele>56.0</ele><time>2026-04-24T16:15:35.07Z</time></trkpt><trkpt lat="35.6863315" lon="10.0971015"><ele>56.0</ele><time>2026-04-24T16:15:36.089Z</time></trkpt><trkpt lat="35.6862958" lon="10.0970222"><ele>56.0</ele><time>2026-04-24T16:15:37.08Z</time></trkpt><trkpt lat="35.6862629" lon="10.096956"><ele>56.0</ele><time>2026-04-24T16:15:38.068Z</time></trkpt><trkpt lat="35.686221" lon="10.0968851"><ele>56.0</ele><time>2026-04-24T16:15:39.075Z</time></trkpt><trkpt lat="35.6861729" lon="10.0968131"><ele>56.00000000000001</ele><time>2026-04-24T16:15:40.084Z</time></trkpt><trkpt lat="35.6861234" lon="10.0967507"><ele>56.0</ele><time>2026-04-24T16:15:41.081Z</time></trkpt><trkpt lat="35.6860542" lon="10.0966692"><ele>56.0</ele><time>2026-04-24T16:15:43.078Z</time></trkpt><trkpt lat="35.6860012" lon="10.0965873"><ele>56.0</ele><time>2026-04-24T16:15:45.073Z</time></trkpt><trkpt lat="35.6859462" lon="10.096502"><ele>56.00000000000001</ele><time>2026-04-24T16:15:47.085Z</time></trkpt><trkpt lat="35.6858726" lon="10.0964647"><ele>56.0</ele><time>2026-04-24T16:15:49.076Z</time></trkpt><trkpt lat="35.6858229" lon="10.0965184"><ele>56.199999999999996</ele><time>2026-04-24T16:15:51.083Z</time></trkpt><trkpt lat="35.68583" lon="10.0966136"><ele>56.39999999999999</ele><time>2026-04-24T16:15:53.195Z</time></trkpt><trkpt lat="35.6858858" lon="10.0967193"><ele>56.6</ele><time>2026-04-24T16:15:55.071Z</time></trkpt><trkpt lat="35.6859506" lon="10.0968252"><ele>56.8</ele><time>2026-04-24T16:15:57.08Z</time></trkpt><trkpt lat="35.6859942" lon="10.0969075"><ele>57.0</ele><time>2026-04-24T16:15:59.078Z</time></trkpt><trkpt lat="35.6860593" lon="10.09698"><ele>57.0</ele><time>2026-04-24T16:16:02.082Z</time></trkpt><trkpt lat="35.6861108" lon="10.097042"><ele>57.0</ele><time>2026-04-24T16:16:06.076Z</time></trkpt><trkpt lat="35.6861321" lon="10.0971271"><ele>57.0</ele><time>2026-04-24T16:16:31.082Z</time></trkpt><trkpt lat="35.6860928" lon="10.0971919"><ele>57.0</ele><time>2026-04-24T16:16:34.075Z</time></trkpt><trkpt lat="35.686021" lon="10.0972409"><ele>57.0</ele><time>2026-04-24T16:16:37.075Z</time></trkpt><trkpt lat="35.6859297" lon="10.0972892"><ele>57.0</ele><time>2026-04-24T16:16:40.075Z</time></trkpt><trkpt lat="35.685873" lon="10.0973381"><ele>57.0</ele><time>2026-04-24T16:16:42.075Z</time></trkpt><trkpt lat="35.6858179" lon="10.0973906"><ele>57.0</ele><time>2026-04-24T16:16:44.075Z</time></trkpt><trkpt lat="35.6857509" lon="10.0974521"><ele>58.0</ele><time>2026-04-24T16:16:47.077Z</time></trkpt><trkpt lat="35.6856887" lon="10.0975214"><ele>58.0</ele><time>2026-04-24T16:16:50.082Z</time></trkpt><trkpt lat="35.6856268" lon="10.0975508"><ele>58.0</ele><time>2026-04-24T16:17:00.072Z</time></trkpt><trkpt lat="35.6855727" lon="10.0975926"><ele>58.0</ele><time>2026-04-24T16:17:14.075Z</time></trkpt><trkpt lat="35.6855727" lon="10.0975926"><ele>58.0</ele><time>2026-04-24T16:17:14.075Z</time></trkpt></trkseg></trk></gpx>